<?xml version="1.0" encoding="UTF-8" standalone="no" ?>
<gpx xmlns="http://www.topografix.com/GPX/1/1" xmlns:xsi="http://www.w3.org/2001/XMLSchema-instance" xsi:schemaLocation="http://www.topografix.com/GPX/1/1 http://www.topografix.com/GPX/1/1/gpx.xsd" version="1.1" creator="VisuGPX - https://www.visugpx.com">
  <metadata>
    <name>Selle du Puy Gris</name>
  </metadata>
  <trk>
    <name><![CDATA[Selle du Puy Gris]]></name>
    <trkseg>
      <trkpt lat="45.28291" lon="6.20952">
        <ele>1226.5</ele>
        <time>2021-02-17T07:04:37Z</time>
      </trkpt>
      <trkpt lat="45.28291" lon="6.20952">
        <ele>1226.5</ele>
        <time>2021-02-17T07:04:38Z</time>
      </trkpt>
      <trkpt lat="45.28304" lon="6.20961">
        <ele>1225.3</ele>
        <time>2021-02-17T07:04:39Z</time>
      </trkpt>
      <trkpt lat="45.28309" lon="6.20957">
        <ele>1225.9</ele>
        <time>2021-02-17T07:04:40Z</time>
      </trkpt>
      <trkpt lat="45.28309" lon="6.20957">
        <ele>1225.9</ele>
        <time>2021-02-17T07:04:41Z</time>
      </trkpt>
      <trkpt lat="45.28314" lon="6.20966">
        <ele>1225.2</ele>
        <time>2021-02-17T07:04:42Z</time>
      </trkpt>
      <trkpt lat="45.28314" lon="6.20966">
        <ele>1225.2</ele>
        <time>2021-02-17T07:04:43Z</time>
      </trkpt>
      <trkpt lat="45.2832" lon="6.20972">
        <ele>1224.7</ele>
        <time>2021-02-17T07:04:44Z</time>
      </trkpt>
      <trkpt lat="45.28316" lon="6.20972">
        <ele>1224.9</ele>
        <time>2021-02-17T07:05:56Z</time>
      </trkpt>
      <trkpt lat="45.28317" lon="6.20971">
        <ele>1224.9</ele>
        <time>2021-02-17T07:05:57Z</time>
      </trkpt>
      <trkpt lat="45.28318" lon="6.2097">
        <ele>1224.9</ele>
        <time>2021-02-17T07:05:58Z</time>
      </trkpt>
      <trkpt lat="45.28318" lon="6.20969">
        <ele>1224.9</ele>
        <time>2021-02-17T07:05:59Z</time>
      </trkpt>
      <trkpt lat="45.28318" lon="6.20969">
        <ele>1224.9</ele>
        <time>2021-02-17T07:06:00Z</time>
      </trkpt>
      <trkpt lat="45.28318" lon="6.20969">
        <ele>1224.9</ele>
        <time>2021-02-17T07:06:01Z</time>
      </trkpt>
      <trkpt lat="45.28318" lon="6.20969">
        <ele>1224.9</ele>
        <time>2021-02-17T07:06:02Z</time>
      </trkpt>
      <trkpt lat="45.28317" lon="6.20971">
        <ele>1224.9</ele>
        <time>2021-02-17T07:06:03Z</time>
      </trkpt>
      <trkpt lat="45.28317" lon="6.2097">
        <ele>1224.9</ele>
        <time>2021-02-17T07:06:04Z</time>
      </trkpt>
      <trkpt lat="45.28318" lon="6.20969">
        <ele>1224.9</ele>
        <time>2021-02-17T07:06:05Z</time>
      </trkpt>
      <trkpt lat="45.28318" lon="6.20968">
        <ele>1224.9</ele>
        <time>2021-02-17T07:06:06Z</time>
      </trkpt>
      <trkpt lat="45.28318" lon="6.20967">
        <ele>1225.5</ele>
        <time>2021-02-17T07:06:07Z</time>
      </trkpt>
      <trkpt lat="45.28318" lon="6.20966">
        <ele>1225.5</ele>
        <time>2021-02-17T07:06:08Z</time>
      </trkpt>
      <trkpt lat="45.28318" lon="6.20965">
        <ele>1225.5</ele>
        <time>2021-02-17T07:06:09Z</time>
      </trkpt>
      <trkpt lat="45.28318" lon="6.20963">
        <ele>1226</ele>
        <time>2021-02-17T07:06:10Z</time>
      </trkpt>
      <trkpt lat="45.28318" lon="6.20962">
        <ele>1226</ele>
        <time>2021-02-17T07:06:11Z</time>
      </trkpt>
      <trkpt lat="45.28318" lon="6.20961">
        <ele>1226</ele>
        <time>2021-02-17T07:06:12Z</time>
      </trkpt>
      <trkpt lat="45.28318" lon="6.2096">
        <ele>1226</ele>
        <time>2021-02-17T07:06:13Z</time>
      </trkpt>
      <trkpt lat="45.28318" lon="6.20959">
        <ele>1226.5</ele>
        <time>2021-02-17T07:06:14Z</time>
      </trkpt>
      <trkpt lat="45.28318" lon="6.20959">
        <ele>1226.5</ele>
        <time>2021-02-17T07:06:15Z</time>
      </trkpt>
      <trkpt lat="45.28317" lon="6.20958">
        <ele>1226.5</ele>
        <time>2021-02-17T07:06:16Z</time>
      </trkpt>
      <trkpt lat="45.28317" lon="6.20957">
        <ele>1226.5</ele>
        <time>2021-02-17T07:06:17Z</time>
      </trkpt>
      <trkpt lat="45.28317" lon="6.20957">
        <ele>1226.5</ele>
        <time>2021-02-17T07:06:18Z</time>
      </trkpt>
      <trkpt lat="45.28317" lon="6.20957">
        <ele>1226.5</ele>
        <time>2021-02-17T07:06:19Z</time>
      </trkpt>
      <trkpt lat="45.28317" lon="6.20957">
        <ele>1226.5</ele>
        <time>2021-02-17T07:06:20Z</time>
      </trkpt>
      <trkpt lat="45.28317" lon="6.20958">
        <ele>1226.5</ele>
        <time>2021-02-17T07:06:21Z</time>
      </trkpt>
      <trkpt lat="45.28317" lon="6.20957">
        <ele>1226.5</ele>
        <time>2021-02-17T07:06:22Z</time>
      </trkpt>
      <trkpt lat="45.28318" lon="6.20956">
        <ele>1226.5</ele>
        <time>2021-02-17T07:06:23Z</time>
      </trkpt>
      <trkpt lat="45.28319" lon="6.20955">
        <ele>1226.5</ele>
        <time>2021-02-17T07:06:24Z</time>
      </trkpt>
      <trkpt lat="45.2832" lon="6.20955">
        <ele>1227.3</ele>
        <time>2021-02-17T07:06:25Z</time>
      </trkpt>
      <trkpt lat="45.2832" lon="6.20954">
        <ele>1227.3</ele>
        <time>2021-02-17T07:06:26Z</time>
      </trkpt>
      <trkpt lat="45.28321" lon="6.20953">
        <ele>1227.3</ele>
        <time>2021-02-17T07:06:27Z</time>
      </trkpt>
      <trkpt lat="45.28321" lon="6.20952">
        <ele>1227.3</ele>
        <time>2021-02-17T07:06:28Z</time>
      </trkpt>
      <trkpt lat="45.28322" lon="6.20952">
        <ele>1227.3</ele>
        <time>2021-02-17T07:06:29Z</time>
      </trkpt>
      <trkpt lat="45.28322" lon="6.20951">
        <ele>1228.1</ele>
        <time>2021-02-17T07:06:30Z</time>
      </trkpt>
      <trkpt lat="45.28322" lon="6.2095">
        <ele>1228.1</ele>
        <time>2021-02-17T07:06:31Z</time>
      </trkpt>
      <trkpt lat="45.28323" lon="6.20949">
        <ele>1228.1</ele>
        <time>2021-02-17T07:06:32Z</time>
      </trkpt>
      <trkpt lat="45.28323" lon="6.20948">
        <ele>1228.1</ele>
        <time>2021-02-17T07:06:33Z</time>
      </trkpt>
      <trkpt lat="45.28324" lon="6.20947">
        <ele>1228.1</ele>
        <time>2021-02-17T07:06:34Z</time>
      </trkpt>
      <trkpt lat="45.28324" lon="6.20946">
        <ele>1228.7</ele>
        <time>2021-02-17T07:06:35Z</time>
      </trkpt>
      <trkpt lat="45.28325" lon="6.20945">
        <ele>1228.7</ele>
        <time>2021-02-17T07:06:36Z</time>
      </trkpt>
      <trkpt lat="45.28325" lon="6.20944">
        <ele>1228.7</ele>
        <time>2021-02-17T07:06:37Z</time>
      </trkpt>
      <trkpt lat="45.28325" lon="6.20943">
        <ele>1228.7</ele>
        <time>2021-02-17T07:06:38Z</time>
      </trkpt>
      <trkpt lat="45.28325" lon="6.20942">
        <ele>1229.6</ele>
        <time>2021-02-17T07:06:39Z</time>
      </trkpt>
      <trkpt lat="45.28325" lon="6.20941">
        <ele>1229.6</ele>
        <time>2021-02-17T07:06:40Z</time>
      </trkpt>
      <trkpt lat="45.28325" lon="6.2094">
        <ele>1229.6</ele>
        <time>2021-02-17T07:06:41Z</time>
      </trkpt>
      <trkpt lat="45.28325" lon="6.20939">
        <ele>1229.6</ele>
        <time>2021-02-17T07:06:42Z</time>
      </trkpt>
      <trkpt lat="45.28325" lon="6.20938">
        <ele>1230.1</ele>
        <time>2021-02-17T07:06:43Z</time>
      </trkpt>
      <trkpt lat="45.28325" lon="6.20937">
        <ele>1230.1</ele>
        <time>2021-02-17T07:06:44Z</time>
      </trkpt>
      <trkpt lat="45.28326" lon="6.20935">
        <ele>1230.1</ele>
        <time>2021-02-17T07:06:45Z</time>
      </trkpt>
      <trkpt lat="45.28326" lon="6.20934">
        <ele>1230.1</ele>
        <time>2021-02-17T07:06:46Z</time>
      </trkpt>
      <trkpt lat="45.28326" lon="6.20933">
        <ele>1230.7</ele>
        <time>2021-02-17T07:06:47Z</time>
      </trkpt>
      <trkpt lat="45.28326" lon="6.20932">
        <ele>1230.7</ele>
        <time>2021-02-17T07:06:48Z</time>
      </trkpt>
      <trkpt lat="45.28326" lon="6.20931">
        <ele>1230.7</ele>
        <time>2021-02-17T07:06:49Z</time>
      </trkpt>
      <trkpt lat="45.28325" lon="6.20929">
        <ele>1230.7</ele>
        <time>2021-02-17T07:06:50Z</time>
      </trkpt>
      <trkpt lat="45.28325" lon="6.20928">
        <ele>1231.3</ele>
        <time>2021-02-17T07:06:51Z</time>
      </trkpt>
      <trkpt lat="45.28325" lon="6.20927">
        <ele>1230.9</ele>
        <time>2021-02-17T07:06:52Z</time>
      </trkpt>
      <trkpt lat="45.28325" lon="6.20926">
        <ele>1230.9</ele>
        <time>2021-02-17T07:06:53Z</time>
      </trkpt>
      <trkpt lat="45.28325" lon="6.20925">
        <ele>1231.5</ele>
        <time>2021-02-17T07:06:54Z</time>
      </trkpt>
      <trkpt lat="45.28325" lon="6.20924">
        <ele>1231.5</ele>
        <time>2021-02-17T07:06:55Z</time>
      </trkpt>
      <trkpt lat="45.28325" lon="6.20923">
        <ele>1231.5</ele>
        <time>2021-02-17T07:06:56Z</time>
      </trkpt>
      <trkpt lat="45.28325" lon="6.20922">
        <ele>1231.5</ele>
        <time>2021-02-17T07:06:57Z</time>
      </trkpt>
      <trkpt lat="45.28325" lon="6.20921">
        <ele>1232.2</ele>
        <time>2021-02-17T07:06:58Z</time>
      </trkpt>
      <trkpt lat="45.28325" lon="6.2092">
        <ele>1232.2</ele>
        <time>2021-02-17T07:06:59Z</time>
      </trkpt>
      <trkpt lat="45.28325" lon="6.20918">
        <ele>1232.2</ele>
        <time>2021-02-17T07:07:00Z</time>
      </trkpt>
      <trkpt lat="45.28325" lon="6.20917">
        <ele>1232.2</ele>
        <time>2021-02-17T07:07:01Z</time>
      </trkpt>
      <trkpt lat="45.28325" lon="6.20916">
        <ele>1232.9</ele>
        <time>2021-02-17T07:07:02Z</time>
      </trkpt>
      <trkpt lat="45.28325" lon="6.20915">
        <ele>1232.9</ele>
        <time>2021-02-17T07:07:03Z</time>
      </trkpt>
      <trkpt lat="45.28325" lon="6.20913">
        <ele>1232.9</ele>
        <time>2021-02-17T07:07:04Z</time>
      </trkpt>
      <trkpt lat="45.28325" lon="6.20911">
        <ele>1233.7</ele>
        <time>2021-02-17T07:07:05Z</time>
      </trkpt>
      <trkpt lat="45.28325" lon="6.2091">
        <ele>1233.7</ele>
        <time>2021-02-17T07:07:06Z</time>
      </trkpt>
      <trkpt lat="45.28325" lon="6.20909">
        <ele>1233.7</ele>
        <time>2021-02-17T07:07:07Z</time>
      </trkpt>
      <trkpt lat="45.28325" lon="6.20908">
        <ele>1233.7</ele>
        <time>2021-02-17T07:07:08Z</time>
      </trkpt>
      <trkpt lat="45.28325" lon="6.20906">
        <ele>1234.8</ele>
        <time>2021-02-17T07:07:09Z</time>
      </trkpt>
      <trkpt lat="45.28325" lon="6.20905">
        <ele>1234.8</ele>
        <time>2021-02-17T07:07:10Z</time>
      </trkpt>
      <trkpt lat="45.28325" lon="6.20903">
        <ele>1235</ele>
        <time>2021-02-17T07:07:11Z</time>
      </trkpt>
      <trkpt lat="45.28325" lon="6.20902">
        <ele>1235.5</ele>
        <time>2021-02-17T07:07:12Z</time>
      </trkpt>
      <trkpt lat="45.28325" lon="6.20901">
        <ele>1235.5</ele>
        <time>2021-02-17T07:07:13Z</time>
      </trkpt>
      <trkpt lat="45.28325" lon="6.209">
        <ele>1235.5</ele>
        <time>2021-02-17T07:07:14Z</time>
      </trkpt>
      <trkpt lat="45.28325" lon="6.20899">
        <ele>1235.6</ele>
        <time>2021-02-17T07:07:15Z</time>
      </trkpt>
      <trkpt lat="45.28325" lon="6.20897">
        <ele>1235.6</ele>
        <time>2021-02-17T07:07:16Z</time>
      </trkpt>
      <trkpt lat="45.28325" lon="6.20896">
        <ele>1235.6</ele>
        <time>2021-02-17T07:07:17Z</time>
      </trkpt>
      <trkpt lat="45.28325" lon="6.20895">
        <ele>1236.2</ele>
        <time>2021-02-17T07:07:18Z</time>
      </trkpt>
      <trkpt lat="45.28325" lon="6.20894">
        <ele>1236.7</ele>
        <time>2021-02-17T07:07:19Z</time>
      </trkpt>
      <trkpt lat="45.28326" lon="6.20893">
        <ele>1236.7</ele>
        <time>2021-02-17T07:07:20Z</time>
      </trkpt>
      <trkpt lat="45.28326" lon="6.20891">
        <ele>1236.7</ele>
        <time>2021-02-17T07:07:21Z</time>
      </trkpt>
      <trkpt lat="45.28326" lon="6.2089">
        <ele>1237.3</ele>
        <time>2021-02-17T07:07:22Z</time>
      </trkpt>
      <trkpt lat="45.28326" lon="6.20889">
        <ele>1237.3</ele>
        <time>2021-02-17T07:07:23Z</time>
      </trkpt>
      <trkpt lat="45.28326" lon="6.20887">
        <ele>1237.3</ele>
        <time>2021-02-17T07:07:24Z</time>
      </trkpt>
      <trkpt lat="45.28326" lon="6.20886">
        <ele>1237.9</ele>
        <time>2021-02-17T07:07:25Z</time>
      </trkpt>
      <trkpt lat="45.28326" lon="6.20884">
        <ele>1237.9</ele>
        <time>2021-02-17T07:07:26Z</time>
      </trkpt>
      <trkpt lat="45.28326" lon="6.20883">
        <ele>1237.9</ele>
        <time>2021-02-17T07:07:27Z</time>
      </trkpt>
      <trkpt lat="45.28326" lon="6.20882">
        <ele>1238.5</ele>
        <time>2021-02-17T07:07:28Z</time>
      </trkpt>
      <trkpt lat="45.28327" lon="6.2088">
        <ele>1238.5</ele>
        <time>2021-02-17T07:07:29Z</time>
      </trkpt>
      <trkpt lat="45.28327" lon="6.20879">
        <ele>1238.5</ele>
        <time>2021-02-17T07:07:30Z</time>
      </trkpt>
      <trkpt lat="45.28327" lon="6.20877">
        <ele>1239.1</ele>
        <time>2021-02-17T07:07:31Z</time>
      </trkpt>
      <trkpt lat="45.28327" lon="6.20876">
        <ele>1239.1</ele>
        <time>2021-02-17T07:07:32Z</time>
      </trkpt>
      <trkpt lat="45.28327" lon="6.20874">
        <ele>1239.1</ele>
        <time>2021-02-17T07:07:33Z</time>
      </trkpt>
      <trkpt lat="45.28327" lon="6.20873">
        <ele>1239.8</ele>
        <time>2021-02-17T07:07:34Z</time>
      </trkpt>
      <trkpt lat="45.28327" lon="6.20872">
        <ele>1239.8</ele>
        <time>2021-02-17T07:07:35Z</time>
      </trkpt>
      <trkpt lat="45.28328" lon="6.20871">
        <ele>1239.8</ele>
        <time>2021-02-17T07:07:36Z</time>
      </trkpt>
      <trkpt lat="45.28328" lon="6.2087">
        <ele>1239.8</ele>
        <time>2021-02-17T07:07:37Z</time>
      </trkpt>
      <trkpt lat="45.28328" lon="6.20869">
        <ele>1240.5</ele>
        <time>2021-02-17T07:07:38Z</time>
      </trkpt>
      <trkpt lat="45.28328" lon="6.20868">
        <ele>1240.5</ele>
        <time>2021-02-17T07:07:39Z</time>
      </trkpt>
      <trkpt lat="45.28328" lon="6.20868">
        <ele>1241</ele>
        <time>2021-02-17T07:07:40Z</time>
      </trkpt>
      <trkpt lat="45.28329" lon="6.20867">
        <ele>1241</ele>
        <time>2021-02-17T07:07:41Z</time>
      </trkpt>
      <trkpt lat="45.28329" lon="6.20866">
        <ele>1241</ele>
        <time>2021-02-17T07:07:42Z</time>
      </trkpt>
      <trkpt lat="45.28329" lon="6.20865">
        <ele>1241</ele>
        <time>2021-02-17T07:07:43Z</time>
      </trkpt>
      <trkpt lat="45.2833" lon="6.20864">
        <ele>1241.8</ele>
        <time>2021-02-17T07:07:44Z</time>
      </trkpt>
      <trkpt lat="45.28331" lon="6.20863">
        <ele>1241.8</ele>
        <time>2021-02-17T07:07:45Z</time>
      </trkpt>
      <trkpt lat="45.28331" lon="6.20863">
        <ele>1242.4</ele>
        <time>2021-02-17T07:07:46Z</time>
      </trkpt>
      <trkpt lat="45.28332" lon="6.20862">
        <ele>1242.4</ele>
        <time>2021-02-17T07:07:47Z</time>
      </trkpt>
      <trkpt lat="45.28332" lon="6.20861">
        <ele>1242.4</ele>
        <time>2021-02-17T07:07:48Z</time>
      </trkpt>
      <trkpt lat="45.28333" lon="6.2086">
        <ele>1243.2</ele>
        <time>2021-02-17T07:07:49Z</time>
      </trkpt>
      <trkpt lat="45.28333" lon="6.2086">
        <ele>1243.2</ele>
        <time>2021-02-17T07:07:50Z</time>
      </trkpt>
      <trkpt lat="45.28334" lon="6.20859">
        <ele>1243.2</ele>
        <time>2021-02-17T07:07:51Z</time>
      </trkpt>
      <trkpt lat="45.28334" lon="6.20859">
        <ele>1243.2</ele>
        <time>2021-02-17T07:07:52Z</time>
      </trkpt>
      <trkpt lat="45.28334" lon="6.20858">
        <ele>1243.9</ele>
        <time>2021-02-17T07:07:53Z</time>
      </trkpt>
      <trkpt lat="45.28334" lon="6.20857">
        <ele>1243.9</ele>
        <time>2021-02-17T07:07:54Z</time>
      </trkpt>
      <trkpt lat="45.28335" lon="6.20856">
        <ele>1244.6</ele>
        <time>2021-02-17T07:07:55Z</time>
      </trkpt>
      <trkpt lat="45.28335" lon="6.20855">
        <ele>1244.6</ele>
        <time>2021-02-17T07:07:56Z</time>
      </trkpt>
      <trkpt lat="45.28335" lon="6.20854">
        <ele>1244.6</ele>
        <time>2021-02-17T07:07:57Z</time>
      </trkpt>
      <trkpt lat="45.28335" lon="6.20853">
        <ele>1244.6</ele>
        <time>2021-02-17T07:07:58Z</time>
      </trkpt>
      <trkpt lat="45.28336" lon="6.20852">
        <ele>1245.3</ele>
        <time>2021-02-17T07:07:59Z</time>
      </trkpt>
      <trkpt lat="45.28336" lon="6.20851">
        <ele>1245.3</ele>
        <time>2021-02-17T07:08:00Z</time>
      </trkpt>
      <trkpt lat="45.28337" lon="6.2085">
        <ele>1245.3</ele>
        <time>2021-02-17T07:08:01Z</time>
      </trkpt>
      <trkpt lat="45.28338" lon="6.2085">
        <ele>1246.1</ele>
        <time>2021-02-17T07:08:02Z</time>
      </trkpt>
      <trkpt lat="45.28339" lon="6.20849">
        <ele>1246.1</ele>
        <time>2021-02-17T07:08:03Z</time>
      </trkpt>
      <trkpt lat="45.2834" lon="6.20849">
        <ele>1246.1</ele>
        <time>2021-02-17T07:08:04Z</time>
      </trkpt>
      <trkpt lat="45.2834" lon="6.20848">
        <ele>1246.8</ele>
        <time>2021-02-17T07:08:05Z</time>
      </trkpt>
      <trkpt lat="45.28341" lon="6.20848">
        <ele>1246.8</ele>
        <time>2021-02-17T07:08:06Z</time>
      </trkpt>
      <trkpt lat="45.28342" lon="6.20848">
        <ele>1246.8</ele>
        <time>2021-02-17T07:08:07Z</time>
      </trkpt>
      <trkpt lat="45.28343" lon="6.20848">
        <ele>1246.8</ele>
        <time>2021-02-17T07:08:08Z</time>
      </trkpt>
      <trkpt lat="45.28343" lon="6.20848">
        <ele>1248.3</ele>
        <time>2021-02-17T07:08:09Z</time>
      </trkpt>
      <trkpt lat="45.28344" lon="6.20848">
        <ele>1248.3</ele>
        <time>2021-02-17T07:08:10Z</time>
      </trkpt>
      <trkpt lat="45.28345" lon="6.20848">
        <ele>1248.3</ele>
        <time>2021-02-17T07:08:11Z</time>
      </trkpt>
      <trkpt lat="45.28345" lon="6.20848">
        <ele>1248.3</ele>
        <time>2021-02-17T07:08:12Z</time>
      </trkpt>
      <trkpt lat="45.28346" lon="6.20848">
        <ele>1247.6</ele>
        <time>2021-02-17T07:08:13Z</time>
      </trkpt>
      <trkpt lat="45.28346" lon="6.20848">
        <ele>1247.6</ele>
        <time>2021-02-17T07:08:14Z</time>
      </trkpt>
      <trkpt lat="45.28347" lon="6.20848">
        <ele>1248.3</ele>
        <time>2021-02-17T07:08:15Z</time>
      </trkpt>
      <trkpt lat="45.28348" lon="6.20848">
        <ele>1248.3</ele>
        <time>2021-02-17T07:08:16Z</time>
      </trkpt>
      <trkpt lat="45.28349" lon="6.20848">
        <ele>1248.3</ele>
        <time>2021-02-17T07:08:17Z</time>
      </trkpt>
      <trkpt lat="45.2835" lon="6.20848">
        <ele>1249.1</ele>
        <time>2021-02-17T07:08:18Z</time>
      </trkpt>
      <trkpt lat="45.2835" lon="6.20849">
        <ele>1249.1</ele>
        <time>2021-02-17T07:08:19Z</time>
      </trkpt>
      <trkpt lat="45.2835" lon="6.20849">
        <ele>1249.1</ele>
        <time>2021-02-17T07:08:20Z</time>
      </trkpt>
      <trkpt lat="45.28351" lon="6.20849">
        <ele>1249.1</ele>
        <time>2021-02-17T07:08:21Z</time>
      </trkpt>
      <trkpt lat="45.28352" lon="6.20849">
        <ele>1249.1</ele>
        <time>2021-02-17T07:08:22Z</time>
      </trkpt>
      <trkpt lat="45.28352" lon="6.20848">
        <ele>1250</ele>
        <time>2021-02-17T07:08:23Z</time>
      </trkpt>
      <trkpt lat="45.28353" lon="6.20847">
        <ele>1250.7</ele>
        <time>2021-02-17T07:08:24Z</time>
      </trkpt>
      <trkpt lat="45.28354" lon="6.20846">
        <ele>1250.9</ele>
        <time>2021-02-17T07:08:25Z</time>
      </trkpt>
      <trkpt lat="45.28355" lon="6.20846">
        <ele>1251.1</ele>
        <time>2021-02-17T07:08:26Z</time>
      </trkpt>
      <trkpt lat="45.28356" lon="6.20845">
        <ele>1251.2</ele>
        <time>2021-02-17T07:08:27Z</time>
      </trkpt>
      <trkpt lat="45.28357" lon="6.20844">
        <ele>1251.4</ele>
        <time>2021-02-17T07:08:28Z</time>
      </trkpt>
      <trkpt lat="45.28358" lon="6.20843">
        <ele>1251.5</ele>
        <time>2021-02-17T07:08:29Z</time>
      </trkpt>
      <trkpt lat="45.28358" lon="6.20843">
        <ele>1251.6</ele>
        <time>2021-02-17T07:08:30Z</time>
      </trkpt>
      <trkpt lat="45.28359" lon="6.20843">
        <ele>1251.7</ele>
        <time>2021-02-17T07:08:31Z</time>
      </trkpt>
      <trkpt lat="45.2836" lon="6.20843">
        <ele>1251.8</ele>
        <time>2021-02-17T07:08:32Z</time>
      </trkpt>
      <trkpt lat="45.2836" lon="6.20843">
        <ele>1252</ele>
        <time>2021-02-17T07:08:33Z</time>
      </trkpt>
      <trkpt lat="45.28361" lon="6.20842">
        <ele>1252.1</ele>
        <time>2021-02-17T07:08:34Z</time>
      </trkpt>
      <trkpt lat="45.28362" lon="6.20842">
        <ele>1252.2</ele>
        <time>2021-02-17T07:08:35Z</time>
      </trkpt>
      <trkpt lat="45.28363" lon="6.20841">
        <ele>1252.3</ele>
        <time>2021-02-17T07:08:36Z</time>
      </trkpt>
      <trkpt lat="45.28363" lon="6.20841">
        <ele>1252.5</ele>
        <time>2021-02-17T07:08:37Z</time>
      </trkpt>
      <trkpt lat="45.28364" lon="6.20841">
        <ele>1252.6</ele>
        <time>2021-02-17T07:08:38Z</time>
      </trkpt>
      <trkpt lat="45.28365" lon="6.2084">
        <ele>1252.7</ele>
        <time>2021-02-17T07:08:39Z</time>
      </trkpt>
      <trkpt lat="45.28366" lon="6.2084">
        <ele>1252.9</ele>
        <time>2021-02-17T07:08:40Z</time>
      </trkpt>
      <trkpt lat="45.28366" lon="6.2084">
        <ele>1253</ele>
        <time>2021-02-17T07:08:41Z</time>
      </trkpt>
      <trkpt lat="45.28367" lon="6.2084">
        <ele>1253.1</ele>
        <time>2021-02-17T07:08:42Z</time>
      </trkpt>
      <trkpt lat="45.28368" lon="6.20839">
        <ele>1253.3</ele>
        <time>2021-02-17T07:08:43Z</time>
      </trkpt>
      <trkpt lat="45.28369" lon="6.20839">
        <ele>1253.4</ele>
        <time>2021-02-17T07:08:44Z</time>
      </trkpt>
      <trkpt lat="45.28369" lon="6.20839">
        <ele>1253.4</ele>
        <time>2021-02-17T07:08:45Z</time>
      </trkpt>
      <trkpt lat="45.2837" lon="6.20838">
        <ele>1253.6</ele>
        <time>2021-02-17T07:08:46Z</time>
      </trkpt>
      <trkpt lat="45.2837" lon="6.20837">
        <ele>1253.7</ele>
        <time>2021-02-17T07:08:47Z</time>
      </trkpt>
      <trkpt lat="45.28371" lon="6.20837">
        <ele>1253.8</ele>
        <time>2021-02-17T07:08:48Z</time>
      </trkpt>
      <trkpt lat="45.28371" lon="6.20836">
        <ele>1253.9</ele>
        <time>2021-02-17T07:08:49Z</time>
      </trkpt>
      <trkpt lat="45.28371" lon="6.20836">
        <ele>1254</ele>
        <time>2021-02-17T07:08:50Z</time>
      </trkpt>
      <trkpt lat="45.28371" lon="6.20835">
        <ele>1254.1</ele>
        <time>2021-02-17T07:08:51Z</time>
      </trkpt>
      <trkpt lat="45.28371" lon="6.20834">
        <ele>1254.2</ele>
        <time>2021-02-17T07:08:52Z</time>
      </trkpt>
      <trkpt lat="45.28371" lon="6.20834">
        <ele>1254.3</ele>
        <time>2021-02-17T07:08:53Z</time>
      </trkpt>
      <trkpt lat="45.28371" lon="6.20833">
        <ele>1254.4</ele>
        <time>2021-02-17T07:08:54Z</time>
      </trkpt>
      <trkpt lat="45.2837" lon="6.20832">
        <ele>1254.5</ele>
        <time>2021-02-17T07:08:55Z</time>
      </trkpt>
      <trkpt lat="45.2837" lon="6.20831">
        <ele>1254.6</ele>
        <time>2021-02-17T07:08:56Z</time>
      </trkpt>
      <trkpt lat="45.28369" lon="6.20831">
        <ele>1254.8</ele>
        <time>2021-02-17T07:08:57Z</time>
      </trkpt>
      <trkpt lat="45.28369" lon="6.2083">
        <ele>1254.9</ele>
        <time>2021-02-17T07:08:58Z</time>
      </trkpt>
      <trkpt lat="45.28368" lon="6.20829">
        <ele>1255.1</ele>
        <time>2021-02-17T07:08:59Z</time>
      </trkpt>
      <trkpt lat="45.28367" lon="6.20828">
        <ele>1255.2</ele>
        <time>2021-02-17T07:09:00Z</time>
      </trkpt>
      <trkpt lat="45.28367" lon="6.20827">
        <ele>1255.4</ele>
        <time>2021-02-17T07:09:01Z</time>
      </trkpt>
      <trkpt lat="45.28366" lon="6.20827">
        <ele>1255.5</ele>
        <time>2021-02-17T07:09:02Z</time>
      </trkpt>
      <trkpt lat="45.28366" lon="6.20826">
        <ele>1255.6</ele>
        <time>2021-02-17T07:09:03Z</time>
      </trkpt>
      <trkpt lat="45.28365" lon="6.20825">
        <ele>1255.7</ele>
        <time>2021-02-17T07:09:04Z</time>
      </trkpt>
      <trkpt lat="45.28365" lon="6.20824">
        <ele>1255.9</ele>
        <time>2021-02-17T07:09:05Z</time>
      </trkpt>
      <trkpt lat="45.28365" lon="6.20823">
        <ele>1256</ele>
        <time>2021-02-17T07:09:06Z</time>
      </trkpt>
      <trkpt lat="45.28365" lon="6.20822">
        <ele>1256.2</ele>
        <time>2021-02-17T07:09:07Z</time>
      </trkpt>
      <trkpt lat="45.28365" lon="6.20821">
        <ele>1256.3</ele>
        <time>2021-02-17T07:09:08Z</time>
      </trkpt>
      <trkpt lat="45.28364" lon="6.2082">
        <ele>1256.4</ele>
        <time>2021-02-17T07:09:09Z</time>
      </trkpt>
      <trkpt lat="45.28364" lon="6.2082">
        <ele>1256.5</ele>
        <time>2021-02-17T07:09:10Z</time>
      </trkpt>
      <trkpt lat="45.28363" lon="6.20819">
        <ele>1256.7</ele>
        <time>2021-02-17T07:09:11Z</time>
      </trkpt>
      <trkpt lat="45.28363" lon="6.20818">
        <ele>1256.8</ele>
        <time>2021-02-17T07:09:12Z</time>
      </trkpt>
      <trkpt lat="45.28362" lon="6.20817">
        <ele>1256.9</ele>
        <time>2021-02-17T07:09:13Z</time>
      </trkpt>
      <trkpt lat="45.28361" lon="6.20817">
        <ele>1257.1</ele>
        <time>2021-02-17T07:09:14Z</time>
      </trkpt>
      <trkpt lat="45.28361" lon="6.20816">
        <ele>1257.3</ele>
        <time>2021-02-17T07:09:15Z</time>
      </trkpt>
      <trkpt lat="45.2836" lon="6.20815">
        <ele>1257.5</ele>
        <time>2021-02-17T07:09:16Z</time>
      </trkpt>
      <trkpt lat="45.28359" lon="6.20814">
        <ele>1257.6</ele>
        <time>2021-02-17T07:09:17Z</time>
      </trkpt>
      <trkpt lat="45.28358" lon="6.20814">
        <ele>1257.8</ele>
        <time>2021-02-17T07:09:18Z</time>
      </trkpt>
      <trkpt lat="45.28357" lon="6.20813">
        <ele>1258</ele>
        <time>2021-02-17T07:09:19Z</time>
      </trkpt>
      <trkpt lat="45.28356" lon="6.20812">
        <ele>1258.2</ele>
        <time>2021-02-17T07:09:20Z</time>
      </trkpt>
      <trkpt lat="45.28355" lon="6.20811">
        <ele>1258.4</ele>
        <time>2021-02-17T07:09:21Z</time>
      </trkpt>
      <trkpt lat="45.28355" lon="6.2081">
        <ele>1258.5</ele>
        <time>2021-02-17T07:09:22Z</time>
      </trkpt>
      <trkpt lat="45.28354" lon="6.20809">
        <ele>1258.7</ele>
        <time>2021-02-17T07:09:23Z</time>
      </trkpt>
      <trkpt lat="45.28353" lon="6.20809">
        <ele>1258.9</ele>
        <time>2021-02-17T07:09:24Z</time>
      </trkpt>
      <trkpt lat="45.28352" lon="6.20808">
        <ele>1259.1</ele>
        <time>2021-02-17T07:09:25Z</time>
      </trkpt>
      <trkpt lat="45.28352" lon="6.20807">
        <ele>1259.2</ele>
        <time>2021-02-17T07:09:26Z</time>
      </trkpt>
      <trkpt lat="45.28351" lon="6.20806">
        <ele>1259.4</ele>
        <time>2021-02-17T07:09:27Z</time>
      </trkpt>
      <trkpt lat="45.28351" lon="6.20805">
        <ele>1259.5</ele>
        <time>2021-02-17T07:09:28Z</time>
      </trkpt>
      <trkpt lat="45.28351" lon="6.20804">
        <ele>1259.6</ele>
        <time>2021-02-17T07:09:29Z</time>
      </trkpt>
      <trkpt lat="45.28351" lon="6.20804">
        <ele>1259.6</ele>
        <time>2021-02-17T07:09:30Z</time>
      </trkpt>
      <trkpt lat="45.28351" lon="6.20803">
        <ele>1259.7</ele>
        <time>2021-02-17T07:09:31Z</time>
      </trkpt>
      <trkpt lat="45.28351" lon="6.20802">
        <ele>1259.8</ele>
        <time>2021-02-17T07:09:32Z</time>
      </trkpt>
      <trkpt lat="45.2835" lon="6.20799">
        <ele>1260.1</ele>
        <time>2021-02-17T07:09:33Z</time>
      </trkpt>
      <trkpt lat="45.28349" lon="6.20799">
        <ele>1260.3</ele>
        <time>2021-02-17T07:09:34Z</time>
      </trkpt>
      <trkpt lat="45.28348" lon="6.20798">
        <ele>1260.4</ele>
        <time>2021-02-17T07:09:35Z</time>
      </trkpt>
      <trkpt lat="45.28348" lon="6.20797">
        <ele>1260.6</ele>
        <time>2021-02-17T07:09:36Z</time>
      </trkpt>
      <trkpt lat="45.28347" lon="6.20796">
        <ele>1260.7</ele>
        <time>2021-02-17T07:09:37Z</time>
      </trkpt>
      <trkpt lat="45.28346" lon="6.20794">
        <ele>1260.9</ele>
        <time>2021-02-17T07:09:38Z</time>
      </trkpt>
      <trkpt lat="45.28345" lon="6.20793">
        <ele>1261.1</ele>
        <time>2021-02-17T07:09:39Z</time>
      </trkpt>
      <trkpt lat="45.28344" lon="6.20793">
        <ele>1261.2</ele>
        <time>2021-02-17T07:09:40Z</time>
      </trkpt>
      <trkpt lat="45.28343" lon="6.20792">
        <ele>1261.4</ele>
        <time>2021-02-17T07:09:41Z</time>
      </trkpt>
      <trkpt lat="45.28342" lon="6.2079">
        <ele>1261.6</ele>
        <time>2021-02-17T07:09:42Z</time>
      </trkpt>
      <trkpt lat="45.28341" lon="6.2079">
        <ele>1261.8</ele>
        <time>2021-02-17T07:09:43Z</time>
      </trkpt>
      <trkpt lat="45.2834" lon="6.20789">
        <ele>1261.9</ele>
        <time>2021-02-17T07:09:44Z</time>
      </trkpt>
      <trkpt lat="45.2834" lon="6.20788">
        <ele>1262</ele>
        <time>2021-02-17T07:09:45Z</time>
      </trkpt>
      <trkpt lat="45.28339" lon="6.20787">
        <ele>1262.1</ele>
        <time>2021-02-17T07:09:46Z</time>
      </trkpt>
      <trkpt lat="45.28339" lon="6.20786">
        <ele>1262.3</ele>
        <time>2021-02-17T07:09:47Z</time>
      </trkpt>
      <trkpt lat="45.28338" lon="6.20785">
        <ele>1262.4</ele>
        <time>2021-02-17T07:09:48Z</time>
      </trkpt>
      <trkpt lat="45.28337" lon="6.20783">
        <ele>1262.5</ele>
        <time>2021-02-17T07:09:49Z</time>
      </trkpt>
      <trkpt lat="45.28337" lon="6.20783">
        <ele>1262.6</ele>
        <time>2021-02-17T07:09:50Z</time>
      </trkpt>
      <trkpt lat="45.28336" lon="6.20782">
        <ele>1262.8</ele>
        <time>2021-02-17T07:09:51Z</time>
      </trkpt>
      <trkpt lat="45.28335" lon="6.20781">
        <ele>1262.9</ele>
        <time>2021-02-17T07:09:52Z</time>
      </trkpt>
      <trkpt lat="45.28335" lon="6.2078">
        <ele>1263</ele>
        <time>2021-02-17T07:09:53Z</time>
      </trkpt>
      <trkpt lat="45.28334" lon="6.20779">
        <ele>1263.1</ele>
        <time>2021-02-17T07:09:54Z</time>
      </trkpt>
      <trkpt lat="45.28334" lon="6.20778">
        <ele>1263.3</ele>
        <time>2021-02-17T07:09:55Z</time>
      </trkpt>
      <trkpt lat="45.28333" lon="6.20777">
        <ele>1263.4</ele>
        <time>2021-02-17T07:09:56Z</time>
      </trkpt>
      <trkpt lat="45.28332" lon="6.20776">
        <ele>1263.5</ele>
        <time>2021-02-17T07:09:57Z</time>
      </trkpt>
      <trkpt lat="45.28332" lon="6.20775">
        <ele>1263.6</ele>
        <time>2021-02-17T07:09:58Z</time>
      </trkpt>
      <trkpt lat="45.28332" lon="6.20774">
        <ele>1263.7</ele>
        <time>2021-02-17T07:09:59Z</time>
      </trkpt>
      <trkpt lat="45.28332" lon="6.20773">
        <ele>1263.8</ele>
        <time>2021-02-17T07:10:00Z</time>
      </trkpt>
      <trkpt lat="45.28332" lon="6.20771">
        <ele>1264</ele>
        <time>2021-02-17T07:10:01Z</time>
      </trkpt>
      <trkpt lat="45.28332" lon="6.2077">
        <ele>1264.1</ele>
        <time>2021-02-17T07:10:02Z</time>
      </trkpt>
      <trkpt lat="45.28332" lon="6.20769">
        <ele>1264.2</ele>
        <time>2021-02-17T07:10:03Z</time>
      </trkpt>
      <trkpt lat="45.28332" lon="6.20768">
        <ele>1264.3</ele>
        <time>2021-02-17T07:10:04Z</time>
      </trkpt>
      <trkpt lat="45.28331" lon="6.20767">
        <ele>1264.4</ele>
        <time>2021-02-17T07:10:05Z</time>
      </trkpt>
      <trkpt lat="45.28331" lon="6.20766">
        <ele>1264.5</ele>
        <time>2021-02-17T07:10:06Z</time>
      </trkpt>
      <trkpt lat="45.2833" lon="6.20765">
        <ele>1264.7</ele>
        <time>2021-02-17T07:10:07Z</time>
      </trkpt>
      <trkpt lat="45.28329" lon="6.20764">
        <ele>1264.8</ele>
        <time>2021-02-17T07:10:08Z</time>
      </trkpt>
      <trkpt lat="45.28328" lon="6.20763">
        <ele>1265</ele>
        <time>2021-02-17T07:10:09Z</time>
      </trkpt>
      <trkpt lat="45.28328" lon="6.20762">
        <ele>1265.2</ele>
        <time>2021-02-17T07:10:10Z</time>
      </trkpt>
      <trkpt lat="45.28327" lon="6.20761">
        <ele>1265.3</ele>
        <time>2021-02-17T07:10:11Z</time>
      </trkpt>
      <trkpt lat="45.28326" lon="6.20761">
        <ele>1265.5</ele>
        <time>2021-02-17T07:10:12Z</time>
      </trkpt>
      <trkpt lat="45.28325" lon="6.2076">
        <ele>1265.6</ele>
        <time>2021-02-17T07:10:13Z</time>
      </trkpt>
      <trkpt lat="45.28324" lon="6.20759">
        <ele>1265.8</ele>
        <time>2021-02-17T07:10:48Z</time>
      </trkpt>
      <trkpt lat="45.28323" lon="6.20758">
        <ele>1266</ele>
        <time>2021-02-17T07:10:49Z</time>
      </trkpt>
      <trkpt lat="45.28322" lon="6.20757">
        <ele>1266.1</ele>
        <time>2021-02-17T07:10:50Z</time>
      </trkpt>
      <trkpt lat="45.28322" lon="6.20757">
        <ele>1266.2</ele>
        <time>2021-02-17T07:10:51Z</time>
      </trkpt>
      <trkpt lat="45.28322" lon="6.20757">
        <ele>1266.2</ele>
        <time>2021-02-17T07:10:52Z</time>
      </trkpt>
      <trkpt lat="45.28321" lon="6.20759">
        <ele>1266.4</ele>
        <time>2021-02-17T07:10:53Z</time>
      </trkpt>
      <trkpt lat="45.28321" lon="6.20759">
        <ele>1266.4</ele>
        <time>2021-02-17T07:10:54Z</time>
      </trkpt>
      <trkpt lat="45.28322" lon="6.20759">
        <ele>1266.5</ele>
        <time>2021-02-17T07:10:55Z</time>
      </trkpt>
      <trkpt lat="45.28322" lon="6.20759">
        <ele>1266.5</ele>
        <time>2021-02-17T07:10:56Z</time>
      </trkpt>
      <trkpt lat="45.28322" lon="6.2076">
        <ele>1266.5</ele>
        <time>2021-02-17T07:10:57Z</time>
      </trkpt>
      <trkpt lat="45.28322" lon="6.20761">
        <ele>1266.7</ele>
        <time>2021-02-17T07:10:58Z</time>
      </trkpt>
      <trkpt lat="45.28322" lon="6.20762">
        <ele>1266.8</ele>
        <time>2021-02-17T07:10:59Z</time>
      </trkpt>
      <trkpt lat="45.28322" lon="6.20762">
        <ele>1266.8</ele>
        <time>2021-02-17T07:11:00Z</time>
      </trkpt>
      <trkpt lat="45.28317" lon="6.20761">
        <ele>1267.6</ele>
        <time>2021-02-17T07:11:12Z</time>
      </trkpt>
      <trkpt lat="45.28316" lon="6.2076">
        <ele>1267.7</ele>
        <time>2021-02-17T07:11:13Z</time>
      </trkpt>
      <trkpt lat="45.28316" lon="6.2076">
        <ele>1267.8</ele>
        <time>2021-02-17T07:11:14Z</time>
      </trkpt>
      <trkpt lat="45.28315" lon="6.20759">
        <ele>1268</ele>
        <time>2021-02-17T07:11:15Z</time>
      </trkpt>
      <trkpt lat="45.28315" lon="6.20759">
        <ele>1268</ele>
        <time>2021-02-17T07:11:16Z</time>
      </trkpt>
      <trkpt lat="45.28315" lon="6.20759">
        <ele>1268</ele>
        <time>2021-02-17T07:11:17Z</time>
      </trkpt>
      <trkpt lat="45.28314" lon="6.20759">
        <ele>1268.1</ele>
        <time>2021-02-17T07:11:18Z</time>
      </trkpt>
      <trkpt lat="45.28314" lon="6.20759">
        <ele>1268.1</ele>
        <time>2021-02-17T07:11:19Z</time>
      </trkpt>
      <trkpt lat="45.28313" lon="6.20758">
        <ele>1268.3</ele>
        <time>2021-02-17T07:11:20Z</time>
      </trkpt>
      <trkpt lat="45.28313" lon="6.20757">
        <ele>1268.5</ele>
        <time>2021-02-17T07:11:21Z</time>
      </trkpt>
      <trkpt lat="45.28313" lon="6.20755">
        <ele>1268.6</ele>
        <time>2021-02-17T07:11:22Z</time>
      </trkpt>
      <trkpt lat="45.28318" lon="6.2075">
        <ele>1269.6</ele>
        <time>2021-02-17T07:11:28Z</time>
      </trkpt>
      <trkpt lat="45.28319" lon="6.2075">
        <ele>1269.7</ele>
        <time>2021-02-17T07:11:29Z</time>
      </trkpt>
      <trkpt lat="45.2832" lon="6.2075">
        <ele>1269.8</ele>
        <time>2021-02-17T07:11:30Z</time>
      </trkpt>
      <trkpt lat="45.2832" lon="6.2075">
        <ele>1269.9</ele>
        <time>2021-02-17T07:11:31Z</time>
      </trkpt>
      <trkpt lat="45.28321" lon="6.2075">
        <ele>1270.1</ele>
        <time>2021-02-17T07:11:32Z</time>
      </trkpt>
      <trkpt lat="45.28322" lon="6.2075">
        <ele>1270.2</ele>
        <time>2021-02-17T07:11:33Z</time>
      </trkpt>
      <trkpt lat="45.28322" lon="6.2075">
        <ele>1270.2</ele>
        <time>2021-02-17T07:11:34Z</time>
      </trkpt>
      <trkpt lat="45.28323" lon="6.2075">
        <ele>1270.3</ele>
        <time>2021-02-17T07:11:35Z</time>
      </trkpt>
      <trkpt lat="45.28323" lon="6.20749">
        <ele>1270.4</ele>
        <time>2021-02-17T07:11:36Z</time>
      </trkpt>
      <trkpt lat="45.28323" lon="6.20748">
        <ele>1270.5</ele>
        <time>2021-02-17T07:11:37Z</time>
      </trkpt>
      <trkpt lat="45.28322" lon="6.20748">
        <ele>1270.5</ele>
        <time>2021-02-17T07:11:38Z</time>
      </trkpt>
      <trkpt lat="45.28322" lon="6.20747">
        <ele>1270.6</ele>
        <time>2021-02-17T07:11:39Z</time>
      </trkpt>
      <trkpt lat="45.28322" lon="6.20747">
        <ele>1270.7</ele>
        <time>2021-02-17T07:11:40Z</time>
      </trkpt>
      <trkpt lat="45.28322" lon="6.20747">
        <ele>1270.7</ele>
        <time>2021-02-17T07:11:41Z</time>
      </trkpt>
      <trkpt lat="45.28322" lon="6.20746">
        <ele>1270.7</ele>
        <time>2021-02-17T07:11:42Z</time>
      </trkpt>
      <trkpt lat="45.28321" lon="6.20746">
        <ele>1270.8</ele>
        <time>2021-02-17T07:11:43Z</time>
      </trkpt>
      <trkpt lat="45.28321" lon="6.20745">
        <ele>1270.9</ele>
        <time>2021-02-17T07:11:44Z</time>
      </trkpt>
      <trkpt lat="45.28321" lon="6.20745">
        <ele>1270.9</ele>
        <time>2021-02-17T07:11:45Z</time>
      </trkpt>
      <trkpt lat="45.28321" lon="6.20745">
        <ele>1270.9</ele>
        <time>2021-02-17T07:11:46Z</time>
      </trkpt>
      <trkpt lat="45.28321" lon="6.20744">
        <ele>1271</ele>
        <time>2021-02-17T07:11:47Z</time>
      </trkpt>
      <trkpt lat="45.28318" lon="6.20735">
        <ele>1271.9</ele>
        <time>2021-02-17T07:11:56Z</time>
      </trkpt>
      <trkpt lat="45.28317" lon="6.20734">
        <ele>1272</ele>
        <time>2021-02-17T07:11:57Z</time>
      </trkpt>
      <trkpt lat="45.28317" lon="6.20733">
        <ele>1272.2</ele>
        <time>2021-02-17T07:11:58Z</time>
      </trkpt>
      <trkpt lat="45.28317" lon="6.20732">
        <ele>1272.3</ele>
        <time>2021-02-17T07:11:59Z</time>
      </trkpt>
      <trkpt lat="45.28316" lon="6.20731">
        <ele>1272.4</ele>
        <time>2021-02-17T07:12:00Z</time>
      </trkpt>
      <trkpt lat="45.28316" lon="6.2073">
        <ele>1272.5</ele>
        <time>2021-02-17T07:12:01Z</time>
      </trkpt>
      <trkpt lat="45.28315" lon="6.20729">
        <ele>1272.6</ele>
        <time>2021-02-17T07:12:02Z</time>
      </trkpt>
      <trkpt lat="45.28315" lon="6.20728">
        <ele>1272.7</ele>
        <time>2021-02-17T07:12:03Z</time>
      </trkpt>
      <trkpt lat="45.28316" lon="6.20727">
        <ele>1272.8</ele>
        <time>2021-02-17T07:12:04Z</time>
      </trkpt>
      <trkpt lat="45.28316" lon="6.20726">
        <ele>1272.9</ele>
        <time>2021-02-17T07:12:05Z</time>
      </trkpt>
      <trkpt lat="45.28317" lon="6.20726">
        <ele>1273</ele>
        <time>2021-02-17T07:12:06Z</time>
      </trkpt>
      <trkpt lat="45.28317" lon="6.20725">
        <ele>1273.1</ele>
        <time>2021-02-17T07:12:07Z</time>
      </trkpt>
      <trkpt lat="45.28318" lon="6.20725">
        <ele>1273.2</ele>
        <time>2021-02-17T07:12:08Z</time>
      </trkpt>
      <trkpt lat="45.28318" lon="6.20724">
        <ele>1273.2</ele>
        <time>2021-02-17T07:12:09Z</time>
      </trkpt>
      <trkpt lat="45.28318" lon="6.20724">
        <ele>1273.3</ele>
        <time>2021-02-17T07:12:10Z</time>
      </trkpt>
      <trkpt lat="45.28319" lon="6.20723">
        <ele>1273.4</ele>
        <time>2021-02-17T07:12:11Z</time>
      </trkpt>
      <trkpt lat="45.2832" lon="6.20722">
        <ele>1273.5</ele>
        <time>2021-02-17T07:12:12Z</time>
      </trkpt>
      <trkpt lat="45.2832" lon="6.20722">
        <ele>1273.7</ele>
        <time>2021-02-17T07:12:13Z</time>
      </trkpt>
      <trkpt lat="45.28321" lon="6.20722">
        <ele>1273.7</ele>
        <time>2021-02-17T07:12:14Z</time>
      </trkpt>
      <trkpt lat="45.28321" lon="6.20722">
        <ele>1273.8</ele>
        <time>2021-02-17T07:12:15Z</time>
      </trkpt>
      <trkpt lat="45.28322" lon="6.20722">
        <ele>1273.9</ele>
        <time>2021-02-17T07:12:16Z</time>
      </trkpt>
      <trkpt lat="45.28323" lon="6.20722">
        <ele>1274.1</ele>
        <time>2021-02-17T07:12:17Z</time>
      </trkpt>
      <trkpt lat="45.28323" lon="6.20722">
        <ele>1274.2</ele>
        <time>2021-02-17T07:12:18Z</time>
      </trkpt>
      <trkpt lat="45.28324" lon="6.20723">
        <ele>1274.3</ele>
        <time>2021-02-17T07:12:19Z</time>
      </trkpt>
      <trkpt lat="45.28325" lon="6.20723">
        <ele>1274.5</ele>
        <time>2021-02-17T07:12:20Z</time>
      </trkpt>
      <trkpt lat="45.28326" lon="6.20723">
        <ele>1274.6</ele>
        <time>2021-02-17T07:12:21Z</time>
      </trkpt>
      <trkpt lat="45.28327" lon="6.20723">
        <ele>1274.7</ele>
        <time>2021-02-17T07:12:22Z</time>
      </trkpt>
      <trkpt lat="45.28328" lon="6.20722">
        <ele>1274.8</ele>
        <time>2021-02-17T07:12:23Z</time>
      </trkpt>
      <trkpt lat="45.28329" lon="6.20722">
        <ele>1275</ele>
        <time>2021-02-17T07:12:24Z</time>
      </trkpt>
      <trkpt lat="45.2833" lon="6.20722">
        <ele>1275.1</ele>
        <time>2021-02-17T07:12:25Z</time>
      </trkpt>
      <trkpt lat="45.28331" lon="6.20722">
        <ele>1275.3</ele>
        <time>2021-02-17T07:12:26Z</time>
      </trkpt>
      <trkpt lat="45.28332" lon="6.20722">
        <ele>1275.5</ele>
        <time>2021-02-17T07:12:27Z</time>
      </trkpt>
      <trkpt lat="45.28333" lon="6.20722">
        <ele>1275.6</ele>
        <time>2021-02-17T07:12:28Z</time>
      </trkpt>
      <trkpt lat="45.28334" lon="6.20722">
        <ele>1275.8</ele>
        <time>2021-02-17T07:12:29Z</time>
      </trkpt>
      <trkpt lat="45.28335" lon="6.20722">
        <ele>1275.9</ele>
        <time>2021-02-17T07:12:30Z</time>
      </trkpt>
      <trkpt lat="45.28336" lon="6.20722">
        <ele>1276.1</ele>
        <time>2021-02-17T07:12:31Z</time>
      </trkpt>
      <trkpt lat="45.28337" lon="6.20722">
        <ele>1276.3</ele>
        <time>2021-02-17T07:12:32Z</time>
      </trkpt>
      <trkpt lat="45.28338" lon="6.20722">
        <ele>1276.4</ele>
        <time>2021-02-17T07:12:33Z</time>
      </trkpt>
      <trkpt lat="45.28339" lon="6.20722">
        <ele>1276.6</ele>
        <time>2021-02-17T07:12:34Z</time>
      </trkpt>
      <trkpt lat="45.2834" lon="6.20722">
        <ele>1276.7</ele>
        <time>2021-02-17T07:12:35Z</time>
      </trkpt>
      <trkpt lat="45.28341" lon="6.20722">
        <ele>1276.8</ele>
        <time>2021-02-17T07:12:36Z</time>
      </trkpt>
      <trkpt lat="45.28341" lon="6.20722">
        <ele>1276.9</ele>
        <time>2021-02-17T07:12:37Z</time>
      </trkpt>
      <trkpt lat="45.28342" lon="6.20722">
        <ele>1277</ele>
        <time>2021-02-17T07:12:38Z</time>
      </trkpt>
      <trkpt lat="45.28342" lon="6.20722">
        <ele>1277</ele>
        <time>2021-02-17T07:12:39Z</time>
      </trkpt>
      <trkpt lat="45.28342" lon="6.20722">
        <ele>1277.1</ele>
        <time>2021-02-17T07:12:40Z</time>
      </trkpt>
      <trkpt lat="45.28343" lon="6.20722">
        <ele>1277.2</ele>
        <time>2021-02-17T07:12:41Z</time>
      </trkpt>
      <trkpt lat="45.28344" lon="6.20722">
        <ele>1277.3</ele>
        <time>2021-02-17T07:12:42Z</time>
      </trkpt>
      <trkpt lat="45.28344" lon="6.20721">
        <ele>1277.4</ele>
        <time>2021-02-17T07:12:43Z</time>
      </trkpt>
      <trkpt lat="45.28345" lon="6.20721">
        <ele>1277.5</ele>
        <time>2021-02-17T07:12:44Z</time>
      </trkpt>
      <trkpt lat="45.28349" lon="6.20714">
        <ele>1278.4</ele>
        <time>2021-02-17T07:12:52Z</time>
      </trkpt>
      <trkpt lat="45.2835" lon="6.20714">
        <ele>1278.4</ele>
        <time>2021-02-17T07:12:53Z</time>
      </trkpt>
      <trkpt lat="45.28351" lon="6.20714">
        <ele>1278.5</ele>
        <time>2021-02-17T07:12:54Z</time>
      </trkpt>
      <trkpt lat="45.28351" lon="6.20714">
        <ele>1278.6</ele>
        <time>2021-02-17T07:12:55Z</time>
      </trkpt>
      <trkpt lat="45.28352" lon="6.20715">
        <ele>1278.7</ele>
        <time>2021-02-17T07:12:56Z</time>
      </trkpt>
      <trkpt lat="45.28352" lon="6.20715">
        <ele>1278.8</ele>
        <time>2021-02-17T07:12:57Z</time>
      </trkpt>
      <trkpt lat="45.28353" lon="6.20715">
        <ele>1278.9</ele>
        <time>2021-02-17T07:12:58Z</time>
      </trkpt>
      <trkpt lat="45.28353" lon="6.20714">
        <ele>1279</ele>
        <time>2021-02-17T07:12:59Z</time>
      </trkpt>
      <trkpt lat="45.28354" lon="6.20714">
        <ele>1279</ele>
        <time>2021-02-17T07:13:00Z</time>
      </trkpt>
      <trkpt lat="45.28354" lon="6.20713">
        <ele>1279.1</ele>
        <time>2021-02-17T07:13:01Z</time>
      </trkpt>
      <trkpt lat="45.28354" lon="6.20712">
        <ele>1279.2</ele>
        <time>2021-02-17T07:13:02Z</time>
      </trkpt>
      <trkpt lat="45.28354" lon="6.20711">
        <ele>1279.3</ele>
        <time>2021-02-17T07:13:03Z</time>
      </trkpt>
      <trkpt lat="45.28354" lon="6.2071">
        <ele>1279.4</ele>
        <time>2021-02-17T07:13:04Z</time>
      </trkpt>
      <trkpt lat="45.28354" lon="6.20709">
        <ele>1279.5</ele>
        <time>2021-02-17T07:13:05Z</time>
      </trkpt>
      <trkpt lat="45.28355" lon="6.20709">
        <ele>1279.6</ele>
        <time>2021-02-17T07:13:06Z</time>
      </trkpt>
      <trkpt lat="45.28355" lon="6.20708">
        <ele>1279.7</ele>
        <time>2021-02-17T07:13:07Z</time>
      </trkpt>
      <trkpt lat="45.28355" lon="6.20707">
        <ele>1279.8</ele>
        <time>2021-02-17T07:13:08Z</time>
      </trkpt>
      <trkpt lat="45.28355" lon="6.20706">
        <ele>1279.9</ele>
        <time>2021-02-17T07:13:09Z</time>
      </trkpt>
      <trkpt lat="45.28355" lon="6.20705">
        <ele>1280</ele>
        <time>2021-02-17T07:13:10Z</time>
      </trkpt>
      <trkpt lat="45.28355" lon="6.20704">
        <ele>1280</ele>
        <time>2021-02-17T07:13:11Z</time>
      </trkpt>
      <trkpt lat="45.28355" lon="6.20704">
        <ele>1280.1</ele>
        <time>2021-02-17T07:13:12Z</time>
      </trkpt>
      <trkpt lat="45.28355" lon="6.20703">
        <ele>1280.1</ele>
        <time>2021-02-17T07:13:13Z</time>
      </trkpt>
      <trkpt lat="45.28354" lon="6.20702">
        <ele>1280.3</ele>
        <time>2021-02-17T07:13:14Z</time>
      </trkpt>
      <trkpt lat="45.28353" lon="6.20702">
        <ele>1280.4</ele>
        <time>2021-02-17T07:13:15Z</time>
      </trkpt>
      <trkpt lat="45.28353" lon="6.20701">
        <ele>1280.5</ele>
        <time>2021-02-17T07:13:16Z</time>
      </trkpt>
      <trkpt lat="45.28352" lon="6.207">
        <ele>1280.6</ele>
        <time>2021-02-17T07:13:17Z</time>
      </trkpt>
      <trkpt lat="45.28351" lon="6.20699">
        <ele>1280.8</ele>
        <time>2021-02-17T07:13:18Z</time>
      </trkpt>
      <trkpt lat="45.2835" lon="6.20699">
        <ele>1281</ele>
        <time>2021-02-17T07:13:19Z</time>
      </trkpt>
      <trkpt lat="45.28349" lon="6.20698">
        <ele>1281.2</ele>
        <time>2021-02-17T07:13:20Z</time>
      </trkpt>
      <trkpt lat="45.28348" lon="6.20697">
        <ele>1281.3</ele>
        <time>2021-02-17T07:13:21Z</time>
      </trkpt>
      <trkpt lat="45.28347" lon="6.20697">
        <ele>1281.5</ele>
        <time>2021-02-17T07:13:22Z</time>
      </trkpt>
      <trkpt lat="45.28347" lon="6.20696">
        <ele>1281.5</ele>
        <time>2021-02-17T07:13:23Z</time>
      </trkpt>
      <trkpt lat="45.28347" lon="6.20696">
        <ele>1281.6</ele>
        <time>2021-02-17T07:13:24Z</time>
      </trkpt>
      <trkpt lat="45.28346" lon="6.20695">
        <ele>1281.7</ele>
        <time>2021-02-17T07:13:25Z</time>
      </trkpt>
      <trkpt lat="45.28345" lon="6.20695">
        <ele>1281.9</ele>
        <time>2021-02-17T07:13:26Z</time>
      </trkpt>
      <trkpt lat="45.28345" lon="6.20695">
        <ele>1281.9</ele>
        <time>2021-02-17T07:13:27Z</time>
      </trkpt>
      <trkpt lat="45.28344" lon="6.20695">
        <ele>1282</ele>
        <time>2021-02-17T07:13:28Z</time>
      </trkpt>
      <trkpt lat="45.28344" lon="6.20694">
        <ele>1282</ele>
        <time>2021-02-17T07:13:29Z</time>
      </trkpt>
      <trkpt lat="45.28344" lon="6.20694">
        <ele>1282.1</ele>
        <time>2021-02-17T07:13:30Z</time>
      </trkpt>
      <trkpt lat="45.28343" lon="6.20694">
        <ele>1282.1</ele>
        <time>2021-02-17T07:13:31Z</time>
      </trkpt>
      <trkpt lat="45.28343" lon="6.20693">
        <ele>1282.2</ele>
        <time>2021-02-17T07:13:32Z</time>
      </trkpt>
      <trkpt lat="45.28343" lon="6.20692">
        <ele>1282.3</ele>
        <time>2021-02-17T07:13:33Z</time>
      </trkpt>
      <trkpt lat="45.28342" lon="6.20691">
        <ele>1282.4</ele>
        <time>2021-02-17T07:13:34Z</time>
      </trkpt>
      <trkpt lat="45.28341" lon="6.2069">
        <ele>1282.6</ele>
        <time>2021-02-17T07:13:35Z</time>
      </trkpt>
      <trkpt lat="45.28341" lon="6.20689">
        <ele>1282.7</ele>
        <time>2021-02-17T07:13:36Z</time>
      </trkpt>
      <trkpt lat="45.2834" lon="6.20689">
        <ele>1282.9</ele>
        <time>2021-02-17T07:13:37Z</time>
      </trkpt>
      <trkpt lat="45.2834" lon="6.20688">
        <ele>1283</ele>
        <time>2021-02-17T07:13:38Z</time>
      </trkpt>
      <trkpt lat="45.28339" lon="6.20687">
        <ele>1283.1</ele>
        <time>2021-02-17T07:13:39Z</time>
      </trkpt>
      <trkpt lat="45.28338" lon="6.20687">
        <ele>1283.2</ele>
        <time>2021-02-17T07:13:40Z</time>
      </trkpt>
      <trkpt lat="45.28338" lon="6.20686">
        <ele>1283.3</ele>
        <time>2021-02-17T07:13:41Z</time>
      </trkpt>
      <trkpt lat="45.28338" lon="6.20685">
        <ele>1283.4</ele>
        <time>2021-02-17T07:13:42Z</time>
      </trkpt>
      <trkpt lat="45.28337" lon="6.20684">
        <ele>1283.5</ele>
        <time>2021-02-17T07:13:43Z</time>
      </trkpt>
      <trkpt lat="45.28337" lon="6.20684">
        <ele>1283.5</ele>
        <time>2021-02-17T07:13:44Z</time>
      </trkpt>
      <trkpt lat="45.28337" lon="6.20683">
        <ele>1283.6</ele>
        <time>2021-02-17T07:13:45Z</time>
      </trkpt>
      <trkpt lat="45.28337" lon="6.20683">
        <ele>1283.6</ele>
        <time>2021-02-17T07:13:46Z</time>
      </trkpt>
      <trkpt lat="45.28335" lon="6.20679">
        <ele>1284.1</ele>
        <time>2021-02-17T07:13:51Z</time>
      </trkpt>
      <trkpt lat="45.28334" lon="6.20678">
        <ele>1284.1</ele>
        <time>2021-02-17T07:13:52Z</time>
      </trkpt>
      <trkpt lat="45.28334" lon="6.20677">
        <ele>1284.2</ele>
        <time>2021-02-17T07:13:53Z</time>
      </trkpt>
      <trkpt lat="45.28334" lon="6.20677">
        <ele>1284.3</ele>
        <time>2021-02-17T07:13:54Z</time>
      </trkpt>
      <trkpt lat="45.28334" lon="6.20676">
        <ele>1284.4</ele>
        <time>2021-02-17T07:13:55Z</time>
      </trkpt>
      <trkpt lat="45.28334" lon="6.20675">
        <ele>1284.4</ele>
        <time>2021-02-17T07:13:56Z</time>
      </trkpt>
      <trkpt lat="45.28335" lon="6.20674">
        <ele>1284.6</ele>
        <time>2021-02-17T07:13:57Z</time>
      </trkpt>
      <trkpt lat="45.28334" lon="6.20673">
        <ele>1284.6</ele>
        <time>2021-02-17T07:13:58Z</time>
      </trkpt>
      <trkpt lat="45.28334" lon="6.20672">
        <ele>1284.7</ele>
        <time>2021-02-17T07:13:59Z</time>
      </trkpt>
      <trkpt lat="45.28334" lon="6.20671">
        <ele>1284.8</ele>
        <time>2021-02-17T07:14:00Z</time>
      </trkpt>
      <trkpt lat="45.28334" lon="6.2067">
        <ele>1284.9</ele>
        <time>2021-02-17T07:14:01Z</time>
      </trkpt>
      <trkpt lat="45.28334" lon="6.20669">
        <ele>1285</ele>
        <time>2021-02-17T07:14:02Z</time>
      </trkpt>
      <trkpt lat="45.28334" lon="6.20668">
        <ele>1285.1</ele>
        <time>2021-02-17T07:14:03Z</time>
      </trkpt>
      <trkpt lat="45.28334" lon="6.20666">
        <ele>1285.3</ele>
        <time>2021-02-17T07:14:04Z</time>
      </trkpt>
      <trkpt lat="45.28333" lon="6.20665">
        <ele>1285.4</ele>
        <time>2021-02-17T07:14:05Z</time>
      </trkpt>
      <trkpt lat="45.28333" lon="6.20664">
        <ele>1285.5</ele>
        <time>2021-02-17T07:14:06Z</time>
      </trkpt>
      <trkpt lat="45.28333" lon="6.20663">
        <ele>1285.5</ele>
        <time>2021-02-17T07:14:07Z</time>
      </trkpt>
      <trkpt lat="45.28334" lon="6.20663">
        <ele>1285.6</ele>
        <time>2021-02-17T07:14:08Z</time>
      </trkpt>
      <trkpt lat="45.28334" lon="6.20663">
        <ele>1285.6</ele>
        <time>2021-02-17T07:14:09Z</time>
      </trkpt>
      <trkpt lat="45.28334" lon="6.20662">
        <ele>1285.7</ele>
        <time>2021-02-17T07:14:10Z</time>
      </trkpt>
      <trkpt lat="45.28334" lon="6.20662">
        <ele>1285.7</ele>
        <time>2021-02-17T07:14:11Z</time>
      </trkpt>
      <trkpt lat="45.28335" lon="6.20661">
        <ele>1285.8</ele>
        <time>2021-02-17T07:14:12Z</time>
      </trkpt>
      <trkpt lat="45.28335" lon="6.20661">
        <ele>1285.8</ele>
        <time>2021-02-17T07:14:13Z</time>
      </trkpt>
      <trkpt lat="45.28335" lon="6.2066">
        <ele>1285.9</ele>
        <time>2021-02-17T07:14:14Z</time>
      </trkpt>
      <trkpt lat="45.28336" lon="6.20659">
        <ele>1286</ele>
        <time>2021-02-17T07:14:15Z</time>
      </trkpt>
      <trkpt lat="45.28336" lon="6.20658">
        <ele>1286.1</ele>
        <time>2021-02-17T07:14:16Z</time>
      </trkpt>
      <trkpt lat="45.28336" lon="6.20658">
        <ele>1286.1</ele>
        <time>2021-02-17T07:14:17Z</time>
      </trkpt>
      <trkpt lat="45.28336" lon="6.20657">
        <ele>1286.2</ele>
        <time>2021-02-17T07:14:18Z</time>
      </trkpt>
      <trkpt lat="45.28336" lon="6.20656">
        <ele>1286.3</ele>
        <time>2021-02-17T07:14:19Z</time>
      </trkpt>
      <trkpt lat="45.28336" lon="6.20655">
        <ele>1286.4</ele>
        <time>2021-02-17T07:14:20Z</time>
      </trkpt>
      <trkpt lat="45.28336" lon="6.20654">
        <ele>1286.5</ele>
        <time>2021-02-17T07:14:21Z</time>
      </trkpt>
      <trkpt lat="45.28336" lon="6.20653">
        <ele>1286.6</ele>
        <time>2021-02-17T07:14:22Z</time>
      </trkpt>
      <trkpt lat="45.28337" lon="6.20652">
        <ele>1286.7</ele>
        <time>2021-02-17T07:14:23Z</time>
      </trkpt>
      <trkpt lat="45.28337" lon="6.20651">
        <ele>1286.8</ele>
        <time>2021-02-17T07:14:24Z</time>
      </trkpt>
      <trkpt lat="45.28337" lon="6.2065">
        <ele>1286.9</ele>
        <time>2021-02-17T07:14:25Z</time>
      </trkpt>
      <trkpt lat="45.28337" lon="6.20649">
        <ele>1287</ele>
        <time>2021-02-17T07:14:26Z</time>
      </trkpt>
      <trkpt lat="45.28337" lon="6.20649">
        <ele>1287</ele>
        <time>2021-02-17T07:14:27Z</time>
      </trkpt>
      <trkpt lat="45.28337" lon="6.20648">
        <ele>1287.1</ele>
        <time>2021-02-17T07:14:28Z</time>
      </trkpt>
      <trkpt lat="45.28337" lon="6.20647">
        <ele>1287.2</ele>
        <time>2021-02-17T07:14:29Z</time>
      </trkpt>
      <trkpt lat="45.28337" lon="6.20646">
        <ele>1287.2</ele>
        <time>2021-02-17T07:14:30Z</time>
      </trkpt>
      <trkpt lat="45.28337" lon="6.20646">
        <ele>1287.3</ele>
        <time>2021-02-17T07:14:31Z</time>
      </trkpt>
      <trkpt lat="45.28337" lon="6.20645">
        <ele>1287.4</ele>
        <time>2021-02-17T07:14:32Z</time>
      </trkpt>
      <trkpt lat="45.28337" lon="6.20643">
        <ele>1287.5</ele>
        <time>2021-02-17T07:14:33Z</time>
      </trkpt>
      <trkpt lat="45.28337" lon="6.20643">
        <ele>1287.6</ele>
        <time>2021-02-17T07:14:34Z</time>
      </trkpt>
      <trkpt lat="45.28337" lon="6.20642">
        <ele>1287.6</ele>
        <time>2021-02-17T07:14:35Z</time>
      </trkpt>
      <trkpt lat="45.28337" lon="6.20642">
        <ele>1287.7</ele>
        <time>2021-02-17T07:14:36Z</time>
      </trkpt>
      <trkpt lat="45.28337" lon="6.20641">
        <ele>1287.7</ele>
        <time>2021-02-17T07:14:37Z</time>
      </trkpt>
      <trkpt lat="45.28337" lon="6.20641">
        <ele>1287.8</ele>
        <time>2021-02-17T07:14:38Z</time>
      </trkpt>
      <trkpt lat="45.28338" lon="6.2064">
        <ele>1287.9</ele>
        <time>2021-02-17T07:14:39Z</time>
      </trkpt>
      <trkpt lat="45.28338" lon="6.20639">
        <ele>1288</ele>
        <time>2021-02-17T07:14:40Z</time>
      </trkpt>
      <trkpt lat="45.28339" lon="6.20639">
        <ele>1288.2</ele>
        <time>2021-02-17T07:14:41Z</time>
      </trkpt>
      <trkpt lat="45.28341" lon="6.20639">
        <ele>1288.3</ele>
        <time>2021-02-17T07:14:42Z</time>
      </trkpt>
      <trkpt lat="45.28342" lon="6.20639">
        <ele>1288.5</ele>
        <time>2021-02-17T07:14:43Z</time>
      </trkpt>
      <trkpt lat="45.28343" lon="6.2064">
        <ele>1288.6</ele>
        <time>2021-02-17T07:14:44Z</time>
      </trkpt>
      <trkpt lat="45.28343" lon="6.20641">
        <ele>1288.7</ele>
        <time>2021-02-17T07:14:45Z</time>
      </trkpt>
      <trkpt lat="45.28343" lon="6.20642">
        <ele>1288.8</ele>
        <time>2021-02-17T07:14:46Z</time>
      </trkpt>
      <trkpt lat="45.28344" lon="6.20642">
        <ele>1288.9</ele>
        <time>2021-02-17T07:14:47Z</time>
      </trkpt>
      <trkpt lat="45.28344" lon="6.20643">
        <ele>1289</ele>
        <time>2021-02-17T07:14:48Z</time>
      </trkpt>
      <trkpt lat="45.28344" lon="6.20643">
        <ele>1289</ele>
        <time>2021-02-17T07:14:49Z</time>
      </trkpt>
      <trkpt lat="45.28345" lon="6.20644">
        <ele>1289.2</ele>
        <time>2021-02-17T07:14:50Z</time>
      </trkpt>
      <trkpt lat="45.28346" lon="6.20644">
        <ele>1289.3</ele>
        <time>2021-02-17T07:14:51Z</time>
      </trkpt>
      <trkpt lat="45.28347" lon="6.20644">
        <ele>1289.4</ele>
        <time>2021-02-17T07:14:52Z</time>
      </trkpt>
      <trkpt lat="45.28347" lon="6.20645">
        <ele>1289.5</ele>
        <time>2021-02-17T07:14:53Z</time>
      </trkpt>
      <trkpt lat="45.28348" lon="6.20646">
        <ele>1289.7</ele>
        <time>2021-02-17T07:14:54Z</time>
      </trkpt>
      <trkpt lat="45.28349" lon="6.20647">
        <ele>1289.8</ele>
        <time>2021-02-17T07:14:55Z</time>
      </trkpt>
      <trkpt lat="45.28349" lon="6.20648">
        <ele>1289.9</ele>
        <time>2021-02-17T07:14:56Z</time>
      </trkpt>
      <trkpt lat="45.2835" lon="6.20649">
        <ele>1290.1</ele>
        <time>2021-02-17T07:14:57Z</time>
      </trkpt>
      <trkpt lat="45.28351" lon="6.2065">
        <ele>1290.3</ele>
        <time>2021-02-17T07:14:58Z</time>
      </trkpt>
      <trkpt lat="45.28352" lon="6.2065">
        <ele>1290.4</ele>
        <time>2021-02-17T07:14:59Z</time>
      </trkpt>
      <trkpt lat="45.28353" lon="6.2065">
        <ele>1290.5</ele>
        <time>2021-02-17T07:15:00Z</time>
      </trkpt>
      <trkpt lat="45.28353" lon="6.2065">
        <ele>1290.5</ele>
        <time>2021-02-17T07:15:01Z</time>
      </trkpt>
      <trkpt lat="45.28353" lon="6.20649">
        <ele>1290.6</ele>
        <time>2021-02-17T07:15:02Z</time>
      </trkpt>
      <trkpt lat="45.28353" lon="6.20649">
        <ele>1290.7</ele>
        <time>2021-02-17T07:15:03Z</time>
      </trkpt>
      <trkpt lat="45.28353" lon="6.20648">
        <ele>1290.8</ele>
        <time>2021-02-17T07:15:04Z</time>
      </trkpt>
      <trkpt lat="45.28354" lon="6.20647">
        <ele>1290.8</ele>
        <time>2021-02-17T07:15:05Z</time>
      </trkpt>
      <trkpt lat="45.28354" lon="6.20646">
        <ele>1290.9</ele>
        <time>2021-02-17T07:15:06Z</time>
      </trkpt>
      <trkpt lat="45.28354" lon="6.20645">
        <ele>1291</ele>
        <time>2021-02-17T07:15:07Z</time>
      </trkpt>
      <trkpt lat="45.28354" lon="6.20645">
        <ele>1291.1</ele>
        <time>2021-02-17T07:15:08Z</time>
      </trkpt>
      <trkpt lat="45.28354" lon="6.20644">
        <ele>1291.2</ele>
        <time>2021-02-17T07:15:09Z</time>
      </trkpt>
      <trkpt lat="45.28355" lon="6.20642">
        <ele>1291.4</ele>
        <time>2021-02-17T07:15:12Z</time>
      </trkpt>
      <trkpt lat="45.28355" lon="6.20641">
        <ele>1291.4</ele>
        <time>2021-02-17T07:15:13Z</time>
      </trkpt>
      <trkpt lat="45.28355" lon="6.20641">
        <ele>1291.5</ele>
        <time>2021-02-17T07:15:14Z</time>
      </trkpt>
      <trkpt lat="45.28355" lon="6.2064">
        <ele>1291.6</ele>
        <time>2021-02-17T07:15:15Z</time>
      </trkpt>
      <trkpt lat="45.28356" lon="6.20639">
        <ele>1291.8</ele>
        <time>2021-02-17T07:15:16Z</time>
      </trkpt>
      <trkpt lat="45.28356" lon="6.20638">
        <ele>1291.9</ele>
        <time>2021-02-17T07:15:17Z</time>
      </trkpt>
      <trkpt lat="45.28356" lon="6.20637">
        <ele>1291.9</ele>
        <time>2021-02-17T07:15:18Z</time>
      </trkpt>
      <trkpt lat="45.28356" lon="6.20636">
        <ele>1292</ele>
        <time>2021-02-17T07:15:19Z</time>
      </trkpt>
      <trkpt lat="45.28357" lon="6.20636">
        <ele>1292.1</ele>
        <time>2021-02-17T07:15:20Z</time>
      </trkpt>
      <trkpt lat="45.28357" lon="6.20635">
        <ele>1292.1</ele>
        <time>2021-02-17T07:15:21Z</time>
      </trkpt>
      <trkpt lat="45.28357" lon="6.20635">
        <ele>1292.2</ele>
        <time>2021-02-17T07:15:22Z</time>
      </trkpt>
      <trkpt lat="45.28357" lon="6.20634">
        <ele>1292.3</ele>
        <time>2021-02-17T07:15:23Z</time>
      </trkpt>
      <trkpt lat="45.28358" lon="6.20634">
        <ele>1292.3</ele>
        <time>2021-02-17T07:15:24Z</time>
      </trkpt>
      <trkpt lat="45.28358" lon="6.20633">
        <ele>1292.4</ele>
        <time>2021-02-17T07:15:25Z</time>
      </trkpt>
      <trkpt lat="45.28358" lon="6.20633">
        <ele>1292.5</ele>
        <time>2021-02-17T07:15:26Z</time>
      </trkpt>
      <trkpt lat="45.28358" lon="6.20632">
        <ele>1292.5</ele>
        <time>2021-02-17T07:15:27Z</time>
      </trkpt>
      <trkpt lat="45.28358" lon="6.20631">
        <ele>1292.6</ele>
        <time>2021-02-17T07:15:28Z</time>
      </trkpt>
      <trkpt lat="45.28356" lon="6.20627">
        <ele>1293.1</ele>
        <time>2021-02-17T07:15:34Z</time>
      </trkpt>
      <trkpt lat="45.28356" lon="6.20626">
        <ele>1293.1</ele>
        <time>2021-02-17T07:15:35Z</time>
      </trkpt>
      <trkpt lat="45.28356" lon="6.20625">
        <ele>1293.2</ele>
        <time>2021-02-17T07:15:36Z</time>
      </trkpt>
      <trkpt lat="45.28356" lon="6.20625">
        <ele>1293.3</ele>
        <time>2021-02-17T07:15:37Z</time>
      </trkpt>
      <trkpt lat="45.28356" lon="6.20624">
        <ele>1293.4</ele>
        <time>2021-02-17T07:15:38Z</time>
      </trkpt>
      <trkpt lat="45.28356" lon="6.20623">
        <ele>1293.5</ele>
        <time>2021-02-17T07:15:39Z</time>
      </trkpt>
      <trkpt lat="45.28356" lon="6.20622">
        <ele>1293.5</ele>
        <time>2021-02-17T07:15:40Z</time>
      </trkpt>
      <trkpt lat="45.28356" lon="6.20622">
        <ele>1293.6</ele>
        <time>2021-02-17T07:15:41Z</time>
      </trkpt>
      <trkpt lat="45.28357" lon="6.20621">
        <ele>1293.7</ele>
        <time>2021-02-17T07:15:42Z</time>
      </trkpt>
      <trkpt lat="45.28357" lon="6.20621">
        <ele>1293.7</ele>
        <time>2021-02-17T07:15:43Z</time>
      </trkpt>
      <trkpt lat="45.28358" lon="6.2062">
        <ele>1293.8</ele>
        <time>2021-02-17T07:15:44Z</time>
      </trkpt>
      <trkpt lat="45.28358" lon="6.2062">
        <ele>1293.9</ele>
        <time>2021-02-17T07:15:45Z</time>
      </trkpt>
      <trkpt lat="45.28359" lon="6.2062">
        <ele>1294</ele>
        <time>2021-02-17T07:15:46Z</time>
      </trkpt>
      <trkpt lat="45.28359" lon="6.2062">
        <ele>1294</ele>
        <time>2021-02-17T07:15:47Z</time>
      </trkpt>
      <trkpt lat="45.2836" lon="6.20619">
        <ele>1294.1</ele>
        <time>2021-02-17T07:15:48Z</time>
      </trkpt>
      <trkpt lat="45.28361" lon="6.20618">
        <ele>1294.2</ele>
        <time>2021-02-17T07:15:49Z</time>
      </trkpt>
      <trkpt lat="45.28361" lon="6.20618">
        <ele>1294.3</ele>
        <time>2021-02-17T07:15:50Z</time>
      </trkpt>
      <trkpt lat="45.28362" lon="6.20617">
        <ele>1294.4</ele>
        <time>2021-02-17T07:15:51Z</time>
      </trkpt>
      <trkpt lat="45.28362" lon="6.20617">
        <ele>1294.5</ele>
        <time>2021-02-17T07:15:52Z</time>
      </trkpt>
      <trkpt lat="45.28357" lon="6.20597">
        <ele>1296.5</ele>
        <time>2021-02-17T07:16:25Z</time>
      </trkpt>
      <trkpt lat="45.28356" lon="6.20596">
        <ele>1296.7</ele>
        <time>2021-02-17T07:16:26Z</time>
      </trkpt>
      <trkpt lat="45.28356" lon="6.20594">
        <ele>1296.8</ele>
        <time>2021-02-17T07:16:27Z</time>
      </trkpt>
      <trkpt lat="45.28356" lon="6.20594">
        <ele>1296.8</ele>
        <time>2021-02-17T07:16:28Z</time>
      </trkpt>
      <trkpt lat="45.28355" lon="6.20593">
        <ele>1297</ele>
        <time>2021-02-17T07:16:29Z</time>
      </trkpt>
      <trkpt lat="45.28355" lon="6.20592">
        <ele>1297.2</ele>
        <time>2021-02-17T07:16:30Z</time>
      </trkpt>
      <trkpt lat="45.28354" lon="6.2059">
        <ele>1297.3</ele>
        <time>2021-02-17T07:16:31Z</time>
      </trkpt>
      <trkpt lat="45.28354" lon="6.20589">
        <ele>1297.5</ele>
        <time>2021-02-17T07:16:32Z</time>
      </trkpt>
      <trkpt lat="45.28353" lon="6.20587">
        <ele>1297.6</ele>
        <time>2021-02-17T07:16:33Z</time>
      </trkpt>
      <trkpt lat="45.28353" lon="6.20585">
        <ele>1297.8</ele>
        <time>2021-02-17T07:16:34Z</time>
      </trkpt>
      <trkpt lat="45.28352" lon="6.20584">
        <ele>1298</ele>
        <time>2021-02-17T07:16:35Z</time>
      </trkpt>
      <trkpt lat="45.28352" lon="6.20582">
        <ele>1298.1</ele>
        <time>2021-02-17T07:16:36Z</time>
      </trkpt>
      <trkpt lat="45.28351" lon="6.20581">
        <ele>1298.3</ele>
        <time>2021-02-17T07:16:37Z</time>
      </trkpt>
      <trkpt lat="45.28351" lon="6.2058">
        <ele>1298.4</ele>
        <time>2021-02-17T07:16:38Z</time>
      </trkpt>
      <trkpt lat="45.2835" lon="6.20579">
        <ele>1298.6</ele>
        <time>2021-02-17T07:16:39Z</time>
      </trkpt>
      <trkpt lat="45.28349" lon="6.20578">
        <ele>1298.7</ele>
        <time>2021-02-17T07:16:40Z</time>
      </trkpt>
      <trkpt lat="45.28349" lon="6.20576">
        <ele>1298.9</ele>
        <time>2021-02-17T07:16:41Z</time>
      </trkpt>
      <trkpt lat="45.28349" lon="6.20575">
        <ele>1299</ele>
        <time>2021-02-17T07:16:42Z</time>
      </trkpt>
      <trkpt lat="45.28348" lon="6.20574">
        <ele>1299.1</ele>
        <time>2021-02-17T07:16:43Z</time>
      </trkpt>
      <trkpt lat="45.28348" lon="6.20573">
        <ele>1299.3</ele>
        <time>2021-02-17T07:16:44Z</time>
      </trkpt>
      <trkpt lat="45.28348" lon="6.20571">
        <ele>1299.4</ele>
        <time>2021-02-17T07:16:45Z</time>
      </trkpt>
      <trkpt lat="45.28347" lon="6.2057">
        <ele>1299.6</ele>
        <time>2021-02-17T07:16:46Z</time>
      </trkpt>
      <trkpt lat="45.28346" lon="6.20569">
        <ele>1299.7</ele>
        <time>2021-02-17T07:16:47Z</time>
      </trkpt>
      <trkpt lat="45.28346" lon="6.20568">
        <ele>1299.8</ele>
        <time>2021-02-17T07:16:48Z</time>
      </trkpt>
      <trkpt lat="45.28346" lon="6.20566">
        <ele>1299.9</ele>
        <time>2021-02-17T07:16:49Z</time>
      </trkpt>
      <trkpt lat="45.28345" lon="6.20565">
        <ele>1300</ele>
        <time>2021-02-17T07:16:50Z</time>
      </trkpt>
      <trkpt lat="45.28345" lon="6.20564">
        <ele>1300.2</ele>
        <time>2021-02-17T07:16:51Z</time>
      </trkpt>
      <trkpt lat="45.28345" lon="6.20562">
        <ele>1300.3</ele>
        <time>2021-02-17T07:16:52Z</time>
      </trkpt>
      <trkpt lat="45.28344" lon="6.20561">
        <ele>1300.5</ele>
        <time>2021-02-17T07:16:53Z</time>
      </trkpt>
      <trkpt lat="45.28343" lon="6.20561">
        <ele>1300.6</ele>
        <time>2021-02-17T07:16:54Z</time>
      </trkpt>
      <trkpt lat="45.28343" lon="6.2056">
        <ele>1300.6</ele>
        <time>2021-02-17T07:16:55Z</time>
      </trkpt>
      <trkpt lat="45.28342" lon="6.20559">
        <ele>1300.7</ele>
        <time>2021-02-17T07:16:56Z</time>
      </trkpt>
      <trkpt lat="45.28342" lon="6.20558">
        <ele>1300.8</ele>
        <time>2021-02-17T07:16:57Z</time>
      </trkpt>
      <trkpt lat="45.28342" lon="6.20557">
        <ele>1300.9</ele>
        <time>2021-02-17T07:16:58Z</time>
      </trkpt>
      <trkpt lat="45.28341" lon="6.20556">
        <ele>1301.1</ele>
        <time>2021-02-17T07:16:59Z</time>
      </trkpt>
      <trkpt lat="45.28341" lon="6.20555">
        <ele>1301.1</ele>
        <time>2021-02-17T07:17:00Z</time>
      </trkpt>
      <trkpt lat="45.28341" lon="6.20554">
        <ele>1301.2</ele>
        <time>2021-02-17T07:17:01Z</time>
      </trkpt>
      <trkpt lat="45.28341" lon="6.20553">
        <ele>1301.4</ele>
        <time>2021-02-17T07:17:02Z</time>
      </trkpt>
      <trkpt lat="45.2834" lon="6.20552">
        <ele>1301.5</ele>
        <time>2021-02-17T07:17:03Z</time>
      </trkpt>
      <trkpt lat="45.2834" lon="6.20551">
        <ele>1301.6</ele>
        <time>2021-02-17T07:17:04Z</time>
      </trkpt>
      <trkpt lat="45.2834" lon="6.2055">
        <ele>1301.7</ele>
        <time>2021-02-17T07:17:05Z</time>
      </trkpt>
      <trkpt lat="45.2834" lon="6.20549">
        <ele>1301.8</ele>
        <time>2021-02-17T07:17:06Z</time>
      </trkpt>
      <trkpt lat="45.2834" lon="6.20547">
        <ele>1301.9</ele>
        <time>2021-02-17T07:17:07Z</time>
      </trkpt>
      <trkpt lat="45.2834" lon="6.20546">
        <ele>1302</ele>
        <time>2021-02-17T07:17:08Z</time>
      </trkpt>
      <trkpt lat="45.2834" lon="6.20546">
        <ele>1302</ele>
        <time>2021-02-17T07:17:09Z</time>
      </trkpt>
      <trkpt lat="45.2834" lon="6.20546">
        <ele>1302</ele>
        <time>2021-02-17T07:17:10Z</time>
      </trkpt>
      <trkpt lat="45.2834" lon="6.20544">
        <ele>1302.2</ele>
        <time>2021-02-17T07:17:11Z</time>
      </trkpt>
      <trkpt lat="45.2834" lon="6.20543">
        <ele>1302.3</ele>
        <time>2021-02-17T07:17:12Z</time>
      </trkpt>
      <trkpt lat="45.2834" lon="6.20542">
        <ele>1302.3</ele>
        <time>2021-02-17T07:17:13Z</time>
      </trkpt>
      <trkpt lat="45.28339" lon="6.20541">
        <ele>1302.5</ele>
        <time>2021-02-17T07:17:14Z</time>
      </trkpt>
      <trkpt lat="45.28339" lon="6.2054">
        <ele>1302.6</ele>
        <time>2021-02-17T07:17:15Z</time>
      </trkpt>
      <trkpt lat="45.2834" lon="6.20539">
        <ele>1302.7</ele>
        <time>2021-02-17T07:17:16Z</time>
      </trkpt>
      <trkpt lat="45.2834" lon="6.20538">
        <ele>1302.8</ele>
        <time>2021-02-17T07:17:17Z</time>
      </trkpt>
      <trkpt lat="45.28339" lon="6.20536">
        <ele>1302.9</ele>
        <time>2021-02-17T07:17:18Z</time>
      </trkpt>
      <trkpt lat="45.28339" lon="6.20535">
        <ele>1303</ele>
        <time>2021-02-17T07:17:19Z</time>
      </trkpt>
      <trkpt lat="45.28339" lon="6.20534">
        <ele>1303.1</ele>
        <time>2021-02-17T07:17:20Z</time>
      </trkpt>
      <trkpt lat="45.28339" lon="6.20533">
        <ele>1303.2</ele>
        <time>2021-02-17T07:17:21Z</time>
      </trkpt>
      <trkpt lat="45.28339" lon="6.20532">
        <ele>1303.3</ele>
        <time>2021-02-17T07:17:22Z</time>
      </trkpt>
      <trkpt lat="45.28338" lon="6.20531">
        <ele>1303.4</ele>
        <time>2021-02-17T07:17:23Z</time>
      </trkpt>
      <trkpt lat="45.28338" lon="6.2053">
        <ele>1303.5</ele>
        <time>2021-02-17T07:17:24Z</time>
      </trkpt>
      <trkpt lat="45.28338" lon="6.20529">
        <ele>1303.5</ele>
        <time>2021-02-17T07:17:25Z</time>
      </trkpt>
      <trkpt lat="45.28338" lon="6.20529">
        <ele>1303.6</ele>
        <time>2021-02-17T07:17:26Z</time>
      </trkpt>
      <trkpt lat="45.28338" lon="6.20528">
        <ele>1303.7</ele>
        <time>2021-02-17T07:17:27Z</time>
      </trkpt>
      <trkpt lat="45.28338" lon="6.20527">
        <ele>1303.8</ele>
        <time>2021-02-17T07:17:28Z</time>
      </trkpt>
      <trkpt lat="45.28339" lon="6.20526">
        <ele>1303.9</ele>
        <time>2021-02-17T07:17:29Z</time>
      </trkpt>
      <trkpt lat="45.28339" lon="6.20524">
        <ele>1304</ele>
        <time>2021-02-17T07:17:30Z</time>
      </trkpt>
      <trkpt lat="45.28339" lon="6.20523">
        <ele>1304.2</ele>
        <time>2021-02-17T07:17:31Z</time>
      </trkpt>
      <trkpt lat="45.28339" lon="6.20521">
        <ele>1304.3</ele>
        <time>2021-02-17T07:17:32Z</time>
      </trkpt>
      <trkpt lat="45.28339" lon="6.20521">
        <ele>1304.4</ele>
        <time>2021-02-17T07:17:33Z</time>
      </trkpt>
      <trkpt lat="45.28339" lon="6.2052">
        <ele>1304.4</ele>
        <time>2021-02-17T07:17:34Z</time>
      </trkpt>
      <trkpt lat="45.28338" lon="6.20519">
        <ele>1304.5</ele>
        <time>2021-02-17T07:17:35Z</time>
      </trkpt>
      <trkpt lat="45.28338" lon="6.20518">
        <ele>1304.6</ele>
        <time>2021-02-17T07:17:36Z</time>
      </trkpt>
      <trkpt lat="45.28338" lon="6.20517">
        <ele>1304.7</ele>
        <time>2021-02-17T07:17:37Z</time>
      </trkpt>
      <trkpt lat="45.28338" lon="6.20517">
        <ele>1304.7</ele>
        <time>2021-02-17T07:17:38Z</time>
      </trkpt>
      <trkpt lat="45.28338" lon="6.20516">
        <ele>1304.8</ele>
        <time>2021-02-17T07:17:39Z</time>
      </trkpt>
      <trkpt lat="45.28338" lon="6.20515">
        <ele>1304.9</ele>
        <time>2021-02-17T07:17:40Z</time>
      </trkpt>
      <trkpt lat="45.28338" lon="6.20514">
        <ele>1305</ele>
        <time>2021-02-17T07:17:41Z</time>
      </trkpt>
      <trkpt lat="45.28338" lon="6.20513">
        <ele>1305.1</ele>
        <time>2021-02-17T07:17:42Z</time>
      </trkpt>
      <trkpt lat="45.28338" lon="6.20512">
        <ele>1305.2</ele>
        <time>2021-02-17T07:17:43Z</time>
      </trkpt>
      <trkpt lat="45.28338" lon="6.20511">
        <ele>1305.3</ele>
        <time>2021-02-17T07:17:44Z</time>
      </trkpt>
      <trkpt lat="45.28338" lon="6.2051">
        <ele>1305.4</ele>
        <time>2021-02-17T07:17:45Z</time>
      </trkpt>
      <trkpt lat="45.28338" lon="6.20509">
        <ele>1305.5</ele>
        <time>2021-02-17T07:17:46Z</time>
      </trkpt>
      <trkpt lat="45.28338" lon="6.20508">
        <ele>1305.6</ele>
        <time>2021-02-17T07:17:47Z</time>
      </trkpt>
      <trkpt lat="45.28338" lon="6.20507">
        <ele>1305.7</ele>
        <time>2021-02-17T07:17:48Z</time>
      </trkpt>
      <trkpt lat="45.28338" lon="6.20506">
        <ele>1305.8</ele>
        <time>2021-02-17T07:17:49Z</time>
      </trkpt>
      <trkpt lat="45.28337" lon="6.20505">
        <ele>1305.9</ele>
        <time>2021-02-17T07:17:50Z</time>
      </trkpt>
      <trkpt lat="45.28337" lon="6.20504">
        <ele>1306</ele>
        <time>2021-02-17T07:17:51Z</time>
      </trkpt>
      <trkpt lat="45.28337" lon="6.20504">
        <ele>1306.1</ele>
        <time>2021-02-17T07:17:52Z</time>
      </trkpt>
      <trkpt lat="45.28336" lon="6.20503">
        <ele>1306.2</ele>
        <time>2021-02-17T07:17:53Z</time>
      </trkpt>
      <trkpt lat="45.28336" lon="6.20502">
        <ele>1306.3</ele>
        <time>2021-02-17T07:17:54Z</time>
      </trkpt>
      <trkpt lat="45.28335" lon="6.205">
        <ele>1306.5</ele>
        <time>2021-02-17T07:17:55Z</time>
      </trkpt>
      <trkpt lat="45.28335" lon="6.20499">
        <ele>1306.6</ele>
        <time>2021-02-17T07:17:56Z</time>
      </trkpt>
      <trkpt lat="45.28335" lon="6.20498">
        <ele>1306.7</ele>
        <time>2021-02-17T07:17:57Z</time>
      </trkpt>
      <trkpt lat="45.28334" lon="6.20497">
        <ele>1306.8</ele>
        <time>2021-02-17T07:17:58Z</time>
      </trkpt>
      <trkpt lat="45.28334" lon="6.20496">
        <ele>1307</ele>
        <time>2021-02-17T07:17:59Z</time>
      </trkpt>
      <trkpt lat="45.28333" lon="6.20495">
        <ele>1307.1</ele>
        <time>2021-02-17T07:18:00Z</time>
      </trkpt>
      <trkpt lat="45.28332" lon="6.20494">
        <ele>1307.3</ele>
        <time>2021-02-17T07:18:01Z</time>
      </trkpt>
      <trkpt lat="45.28332" lon="6.20493">
        <ele>1307.5</ele>
        <time>2021-02-17T07:18:02Z</time>
      </trkpt>
      <trkpt lat="45.28331" lon="6.20491">
        <ele>1307.7</ele>
        <time>2021-02-17T07:18:03Z</time>
      </trkpt>
      <trkpt lat="45.2833" lon="6.2049">
        <ele>1307.8</ele>
        <time>2021-02-17T07:18:04Z</time>
      </trkpt>
      <trkpt lat="45.2833" lon="6.20489">
        <ele>1308</ele>
        <time>2021-02-17T07:18:05Z</time>
      </trkpt>
      <trkpt lat="45.28329" lon="6.20488">
        <ele>1308.1</ele>
        <time>2021-02-17T07:18:06Z</time>
      </trkpt>
      <trkpt lat="45.28329" lon="6.20487">
        <ele>1308.2</ele>
        <time>2021-02-17T07:18:07Z</time>
      </trkpt>
      <trkpt lat="45.28328" lon="6.20486">
        <ele>1308.4</ele>
        <time>2021-02-17T07:18:08Z</time>
      </trkpt>
      <trkpt lat="45.28328" lon="6.20485">
        <ele>1308.5</ele>
        <time>2021-02-17T07:18:09Z</time>
      </trkpt>
      <trkpt lat="45.28328" lon="6.20485">
        <ele>1308.6</ele>
        <time>2021-02-17T07:18:10Z</time>
      </trkpt>
      <trkpt lat="45.28327" lon="6.20483">
        <ele>1308.7</ele>
        <time>2021-02-17T07:18:11Z</time>
      </trkpt>
      <trkpt lat="45.28327" lon="6.20482">
        <ele>1308.9</ele>
        <time>2021-02-17T07:18:12Z</time>
      </trkpt>
      <trkpt lat="45.28327" lon="6.20481">
        <ele>1309</ele>
        <time>2021-02-17T07:18:13Z</time>
      </trkpt>
      <trkpt lat="45.28327" lon="6.2048">
        <ele>1309.1</ele>
        <time>2021-02-17T07:18:14Z</time>
      </trkpt>
      <trkpt lat="45.28327" lon="6.20479">
        <ele>1309.2</ele>
        <time>2021-02-17T07:18:15Z</time>
      </trkpt>
      <trkpt lat="45.28327" lon="6.20478">
        <ele>1309.3</ele>
        <time>2021-02-17T07:18:16Z</time>
      </trkpt>
      <trkpt lat="45.28326" lon="6.20477">
        <ele>1309.4</ele>
        <time>2021-02-17T07:18:17Z</time>
      </trkpt>
      <trkpt lat="45.28326" lon="6.20476">
        <ele>1309.5</ele>
        <time>2021-02-17T07:18:18Z</time>
      </trkpt>
      <trkpt lat="45.28326" lon="6.20475">
        <ele>1309.6</ele>
        <time>2021-02-17T07:18:19Z</time>
      </trkpt>
      <trkpt lat="45.28326" lon="6.20474">
        <ele>1309.8</ele>
        <time>2021-02-17T07:18:20Z</time>
      </trkpt>
      <trkpt lat="45.28326" lon="6.20473">
        <ele>1309.8</ele>
        <time>2021-02-17T07:18:21Z</time>
      </trkpt>
      <trkpt lat="45.28326" lon="6.20473">
        <ele>1309.9</ele>
        <time>2021-02-17T07:18:22Z</time>
      </trkpt>
      <trkpt lat="45.28325" lon="6.20472">
        <ele>1310</ele>
        <time>2021-02-17T07:18:23Z</time>
      </trkpt>
      <trkpt lat="45.28325" lon="6.20471">
        <ele>1310.1</ele>
        <time>2021-02-17T07:18:24Z</time>
      </trkpt>
      <trkpt lat="45.28325" lon="6.2047">
        <ele>1310.2</ele>
        <time>2021-02-17T07:18:25Z</time>
      </trkpt>
      <trkpt lat="45.28325" lon="6.20469">
        <ele>1310.2</ele>
        <time>2021-02-17T07:18:26Z</time>
      </trkpt>
      <trkpt lat="45.28325" lon="6.20468">
        <ele>1310.3</ele>
        <time>2021-02-17T07:18:27Z</time>
      </trkpt>
      <trkpt lat="45.28325" lon="6.20467">
        <ele>1310.4</ele>
        <time>2021-02-17T07:18:28Z</time>
      </trkpt>
      <trkpt lat="45.28326" lon="6.20466">
        <ele>1310.5</ele>
        <time>2021-02-17T07:18:29Z</time>
      </trkpt>
      <trkpt lat="45.28326" lon="6.20465">
        <ele>1310.6</ele>
        <time>2021-02-17T07:18:30Z</time>
      </trkpt>
      <trkpt lat="45.28327" lon="6.20464">
        <ele>1310.7</ele>
        <time>2021-02-17T07:18:31Z</time>
      </trkpt>
      <trkpt lat="45.28327" lon="6.20463">
        <ele>1310.8</ele>
        <time>2021-02-17T07:18:32Z</time>
      </trkpt>
      <trkpt lat="45.28327" lon="6.20463">
        <ele>1310.9</ele>
        <time>2021-02-17T07:18:33Z</time>
      </trkpt>
      <trkpt lat="45.28327" lon="6.20462">
        <ele>1310.9</ele>
        <time>2021-02-17T07:18:34Z</time>
      </trkpt>
      <trkpt lat="45.28327" lon="6.20461">
        <ele>1311</ele>
        <time>2021-02-17T07:18:35Z</time>
      </trkpt>
      <trkpt lat="45.28327" lon="6.20459">
        <ele>1311.1</ele>
        <time>2021-02-17T07:18:36Z</time>
      </trkpt>
      <trkpt lat="45.28327" lon="6.20458">
        <ele>1311.2</ele>
        <time>2021-02-17T07:18:37Z</time>
      </trkpt>
      <trkpt lat="45.28326" lon="6.20457">
        <ele>1311.3</ele>
        <time>2021-02-17T07:18:38Z</time>
      </trkpt>
      <trkpt lat="45.28326" lon="6.20456">
        <ele>1311.4</ele>
        <time>2021-02-17T07:18:39Z</time>
      </trkpt>
      <trkpt lat="45.28326" lon="6.20455">
        <ele>1311.5</ele>
        <time>2021-02-17T07:18:40Z</time>
      </trkpt>
      <trkpt lat="45.28326" lon="6.20454">
        <ele>1311.6</ele>
        <time>2021-02-17T07:18:41Z</time>
      </trkpt>
      <trkpt lat="45.28326" lon="6.20453">
        <ele>1311.7</ele>
        <time>2021-02-17T07:18:42Z</time>
      </trkpt>
      <trkpt lat="45.28327" lon="6.20452">
        <ele>1311.7</ele>
        <time>2021-02-17T07:18:43Z</time>
      </trkpt>
      <trkpt lat="45.28327" lon="6.20451">
        <ele>1311.8</ele>
        <time>2021-02-17T07:18:44Z</time>
      </trkpt>
      <trkpt lat="45.28326" lon="6.2045">
        <ele>1311.9</ele>
        <time>2021-02-17T07:18:45Z</time>
      </trkpt>
      <trkpt lat="45.28326" lon="6.20449">
        <ele>1312</ele>
        <time>2021-02-17T07:18:46Z</time>
      </trkpt>
      <trkpt lat="45.28326" lon="6.20448">
        <ele>1312.1</ele>
        <time>2021-02-17T07:18:47Z</time>
      </trkpt>
      <trkpt lat="45.28325" lon="6.20447">
        <ele>1312.2</ele>
        <time>2021-02-17T07:18:48Z</time>
      </trkpt>
      <trkpt lat="45.28325" lon="6.20446">
        <ele>1312.2</ele>
        <time>2021-02-17T07:18:49Z</time>
      </trkpt>
      <trkpt lat="45.28325" lon="6.20446">
        <ele>1312.2</ele>
        <time>2021-02-17T07:18:50Z</time>
      </trkpt>
      <trkpt lat="45.28325" lon="6.20445">
        <ele>1312.3</ele>
        <time>2021-02-17T07:18:51Z</time>
      </trkpt>
      <trkpt lat="45.28325" lon="6.20445">
        <ele>1312.3</ele>
        <time>2021-02-17T07:18:52Z</time>
      </trkpt>
      <trkpt lat="45.28325" lon="6.20444">
        <ele>1312.4</ele>
        <time>2021-02-17T07:18:53Z</time>
      </trkpt>
      <trkpt lat="45.28325" lon="6.20443">
        <ele>1312.5</ele>
        <time>2021-02-17T07:18:54Z</time>
      </trkpt>
      <trkpt lat="45.28325" lon="6.20442">
        <ele>1312.5</ele>
        <time>2021-02-17T07:18:55Z</time>
      </trkpt>
      <trkpt lat="45.28324" lon="6.20442">
        <ele>1312.6</ele>
        <time>2021-02-17T07:18:56Z</time>
      </trkpt>
      <trkpt lat="45.28324" lon="6.20441">
        <ele>1312.6</ele>
        <time>2021-02-17T07:18:57Z</time>
      </trkpt>
      <trkpt lat="45.28324" lon="6.20441">
        <ele>1312.6</ele>
        <time>2021-02-17T07:18:58Z</time>
      </trkpt>
      <trkpt lat="45.28323" lon="6.20441">
        <ele>1312.7</ele>
        <time>2021-02-17T07:18:59Z</time>
      </trkpt>
      <trkpt lat="45.28323" lon="6.2044">
        <ele>1312.7</ele>
        <time>2021-02-17T07:19:00Z</time>
      </trkpt>
      <trkpt lat="45.28323" lon="6.2044">
        <ele>1312.8</ele>
        <time>2021-02-17T07:19:01Z</time>
      </trkpt>
      <trkpt lat="45.28322" lon="6.20439">
        <ele>1312.8</ele>
        <time>2021-02-17T07:19:02Z</time>
      </trkpt>
      <trkpt lat="45.28321" lon="6.20437">
        <ele>1313</ele>
        <time>2021-02-17T07:19:03Z</time>
      </trkpt>
      <trkpt lat="45.2832" lon="6.20437">
        <ele>1313.1</ele>
        <time>2021-02-17T07:19:04Z</time>
      </trkpt>
      <trkpt lat="45.28319" lon="6.20436">
        <ele>1313.2</ele>
        <time>2021-02-17T07:19:05Z</time>
      </trkpt>
      <trkpt lat="45.28318" lon="6.20434">
        <ele>1313.4</ele>
        <time>2021-02-17T07:19:06Z</time>
      </trkpt>
      <trkpt lat="45.28317" lon="6.20433">
        <ele>1313.5</ele>
        <time>2021-02-17T07:19:07Z</time>
      </trkpt>
      <trkpt lat="45.28317" lon="6.20431">
        <ele>1313.6</ele>
        <time>2021-02-17T07:19:08Z</time>
      </trkpt>
      <trkpt lat="45.28316" lon="6.2043">
        <ele>1313.7</ele>
        <time>2021-02-17T07:19:09Z</time>
      </trkpt>
      <trkpt lat="45.28316" lon="6.20429">
        <ele>1313.8</ele>
        <time>2021-02-17T07:19:10Z</time>
      </trkpt>
      <trkpt lat="45.28315" lon="6.20428">
        <ele>1313.9</ele>
        <time>2021-02-17T07:19:11Z</time>
      </trkpt>
      <trkpt lat="45.28315" lon="6.20428">
        <ele>1314</ele>
        <time>2021-02-17T07:19:12Z</time>
      </trkpt>
      <trkpt lat="45.28314" lon="6.20427">
        <ele>1314</ele>
        <time>2021-02-17T07:19:13Z</time>
      </trkpt>
      <trkpt lat="45.28314" lon="6.20426">
        <ele>1314.1</ele>
        <time>2021-02-17T07:19:14Z</time>
      </trkpt>
      <trkpt lat="45.28313" lon="6.20425">
        <ele>1314.2</ele>
        <time>2021-02-17T07:19:15Z</time>
      </trkpt>
      <trkpt lat="45.28312" lon="6.20424">
        <ele>1314.3</ele>
        <time>2021-02-17T07:19:16Z</time>
      </trkpt>
      <trkpt lat="45.28312" lon="6.20423">
        <ele>1314.4</ele>
        <time>2021-02-17T07:19:17Z</time>
      </trkpt>
      <trkpt lat="45.28311" lon="6.20422">
        <ele>1314.5</ele>
        <time>2021-02-17T07:19:18Z</time>
      </trkpt>
      <trkpt lat="45.28311" lon="6.20421">
        <ele>1314.6</ele>
        <time>2021-02-17T07:19:19Z</time>
      </trkpt>
      <trkpt lat="45.28311" lon="6.2042">
        <ele>1314.7</ele>
        <time>2021-02-17T07:19:20Z</time>
      </trkpt>
      <trkpt lat="45.2831" lon="6.20419">
        <ele>1314.7</ele>
        <time>2021-02-17T07:19:21Z</time>
      </trkpt>
      <trkpt lat="45.2831" lon="6.20419">
        <ele>1314.7</ele>
        <time>2021-02-17T07:19:22Z</time>
      </trkpt>
      <trkpt lat="45.2831" lon="6.20418">
        <ele>1314.8</ele>
        <time>2021-02-17T07:19:23Z</time>
      </trkpt>
      <trkpt lat="45.2831" lon="6.20418">
        <ele>1314.8</ele>
        <time>2021-02-17T07:19:24Z</time>
      </trkpt>
      <trkpt lat="45.2831" lon="6.20417">
        <ele>1314.9</ele>
        <time>2021-02-17T07:19:25Z</time>
      </trkpt>
      <trkpt lat="45.28309" lon="6.20416">
        <ele>1315</ele>
        <time>2021-02-17T07:19:26Z</time>
      </trkpt>
      <trkpt lat="45.28309" lon="6.20414">
        <ele>1315.1</ele>
        <time>2021-02-17T07:19:27Z</time>
      </trkpt>
      <trkpt lat="45.28308" lon="6.20413">
        <ele>1315.2</ele>
        <time>2021-02-17T07:19:28Z</time>
      </trkpt>
      <trkpt lat="45.28308" lon="6.20412">
        <ele>1315.3</ele>
        <time>2021-02-17T07:19:29Z</time>
      </trkpt>
      <trkpt lat="45.28308" lon="6.20411">
        <ele>1315.4</ele>
        <time>2021-02-17T07:19:30Z</time>
      </trkpt>
      <trkpt lat="45.28308" lon="6.2041">
        <ele>1315.5</ele>
        <time>2021-02-17T07:19:31Z</time>
      </trkpt>
      <trkpt lat="45.28307" lon="6.20409">
        <ele>1315.6</ele>
        <time>2021-02-17T07:19:32Z</time>
      </trkpt>
      <trkpt lat="45.28308" lon="6.20408">
        <ele>1315.6</ele>
        <time>2021-02-17T07:19:33Z</time>
      </trkpt>
      <trkpt lat="45.28308" lon="6.20407">
        <ele>1315.7</ele>
        <time>2021-02-17T07:19:34Z</time>
      </trkpt>
      <trkpt lat="45.28308" lon="6.20406">
        <ele>1315.8</ele>
        <time>2021-02-17T07:19:35Z</time>
      </trkpt>
      <trkpt lat="45.28308" lon="6.20405">
        <ele>1315.9</ele>
        <time>2021-02-17T07:19:36Z</time>
      </trkpt>
      <trkpt lat="45.28308" lon="6.20405">
        <ele>1315.9</ele>
        <time>2021-02-17T07:19:37Z</time>
      </trkpt>
      <trkpt lat="45.28309" lon="6.20404">
        <ele>1316</ele>
        <time>2021-02-17T07:19:38Z</time>
      </trkpt>
      <trkpt lat="45.28309" lon="6.20403">
        <ele>1316.1</ele>
        <time>2021-02-17T07:19:39Z</time>
      </trkpt>
      <trkpt lat="45.28309" lon="6.20402">
        <ele>1316.2</ele>
        <time>2021-02-17T07:19:40Z</time>
      </trkpt>
      <trkpt lat="45.28309" lon="6.20401">
        <ele>1316.3</ele>
        <time>2021-02-17T07:19:41Z</time>
      </trkpt>
      <trkpt lat="45.28309" lon="6.204">
        <ele>1316.4</ele>
        <time>2021-02-17T07:19:42Z</time>
      </trkpt>
      <trkpt lat="45.28309" lon="6.20399">
        <ele>1316.4</ele>
        <time>2021-02-17T07:19:43Z</time>
      </trkpt>
      <trkpt lat="45.28309" lon="6.20398">
        <ele>1316.5</ele>
        <time>2021-02-17T07:19:44Z</time>
      </trkpt>
      <trkpt lat="45.28309" lon="6.20398">
        <ele>1316.6</ele>
        <time>2021-02-17T07:19:45Z</time>
      </trkpt>
      <trkpt lat="45.28315" lon="6.20384">
        <ele>1318.1</ele>
        <time>2021-02-17T07:20:38Z</time>
      </trkpt>
      <trkpt lat="45.28315" lon="6.20383">
        <ele>1318.2</ele>
        <time>2021-02-17T07:20:39Z</time>
      </trkpt>
      <trkpt lat="45.28315" lon="6.20382">
        <ele>1318.3</ele>
        <time>2021-02-17T07:20:40Z</time>
      </trkpt>
      <trkpt lat="45.28315" lon="6.20381">
        <ele>1318.4</ele>
        <time>2021-02-17T07:20:41Z</time>
      </trkpt>
      <trkpt lat="45.28315" lon="6.2038">
        <ele>1318.5</ele>
        <time>2021-02-17T07:20:42Z</time>
      </trkpt>
      <trkpt lat="45.28316" lon="6.20379">
        <ele>1318.6</ele>
        <time>2021-02-17T07:20:43Z</time>
      </trkpt>
      <trkpt lat="45.28317" lon="6.20378">
        <ele>1318.8</ele>
        <time>2021-02-17T07:20:44Z</time>
      </trkpt>
      <trkpt lat="45.28318" lon="6.20377">
        <ele>1318.9</ele>
        <time>2021-02-17T07:20:45Z</time>
      </trkpt>
      <trkpt lat="45.28318" lon="6.20376">
        <ele>1319</ele>
        <time>2021-02-17T07:20:46Z</time>
      </trkpt>
      <trkpt lat="45.28319" lon="6.20375">
        <ele>1319.1</ele>
        <time>2021-02-17T07:20:47Z</time>
      </trkpt>
      <trkpt lat="45.28319" lon="6.20374">
        <ele>1319.3</ele>
        <time>2021-02-17T07:20:48Z</time>
      </trkpt>
      <trkpt lat="45.2832" lon="6.20373">
        <ele>1319.4</ele>
        <time>2021-02-17T07:20:49Z</time>
      </trkpt>
      <trkpt lat="45.2832" lon="6.20372">
        <ele>1319.5</ele>
        <time>2021-02-17T07:20:50Z</time>
      </trkpt>
      <trkpt lat="45.28321" lon="6.20371">
        <ele>1319.6</ele>
        <time>2021-02-17T07:20:51Z</time>
      </trkpt>
      <trkpt lat="45.28321" lon="6.2037">
        <ele>1319.7</ele>
        <time>2021-02-17T07:20:52Z</time>
      </trkpt>
      <trkpt lat="45.28322" lon="6.20369">
        <ele>1319.8</ele>
        <time>2021-02-17T07:20:53Z</time>
      </trkpt>
      <trkpt lat="45.28322" lon="6.20368">
        <ele>1319.9</ele>
        <time>2021-02-17T07:20:54Z</time>
      </trkpt>
      <trkpt lat="45.28322" lon="6.20367">
        <ele>1320</ele>
        <time>2021-02-17T07:20:55Z</time>
      </trkpt>
      <trkpt lat="45.28323" lon="6.20366">
        <ele>1320.1</ele>
        <time>2021-02-17T07:20:56Z</time>
      </trkpt>
      <trkpt lat="45.28323" lon="6.20365">
        <ele>1320.2</ele>
        <time>2021-02-17T07:20:57Z</time>
      </trkpt>
      <trkpt lat="45.28324" lon="6.20364">
        <ele>1320.3</ele>
        <time>2021-02-17T07:20:58Z</time>
      </trkpt>
      <trkpt lat="45.28324" lon="6.20363">
        <ele>1320.5</ele>
        <time>2021-02-17T07:20:59Z</time>
      </trkpt>
      <trkpt lat="45.28324" lon="6.20362">
        <ele>1320.6</ele>
        <time>2021-02-17T07:21:00Z</time>
      </trkpt>
      <trkpt lat="45.28324" lon="6.20361">
        <ele>1320.7</ele>
        <time>2021-02-17T07:21:01Z</time>
      </trkpt>
      <trkpt lat="45.28324" lon="6.20359">
        <ele>1320.8</ele>
        <time>2021-02-17T07:21:02Z</time>
      </trkpt>
      <trkpt lat="45.28324" lon="6.20358">
        <ele>1320.9</ele>
        <time>2021-02-17T07:21:03Z</time>
      </trkpt>
      <trkpt lat="45.28324" lon="6.20357">
        <ele>1321</ele>
        <time>2021-02-17T07:21:04Z</time>
      </trkpt>
      <trkpt lat="45.28324" lon="6.20356">
        <ele>1321.2</ele>
        <time>2021-02-17T07:21:05Z</time>
      </trkpt>
      <trkpt lat="45.28323" lon="6.20355">
        <ele>1321.3</ele>
        <time>2021-02-17T07:21:06Z</time>
      </trkpt>
      <trkpt lat="45.28323" lon="6.20354">
        <ele>1321.4</ele>
        <time>2021-02-17T07:21:07Z</time>
      </trkpt>
      <trkpt lat="45.28323" lon="6.20354">
        <ele>1321.4</ele>
        <time>2021-02-17T07:21:08Z</time>
      </trkpt>
      <trkpt lat="45.28322" lon="6.20354">
        <ele>1321.5</ele>
        <time>2021-02-17T07:21:09Z</time>
      </trkpt>
      <trkpt lat="45.28321" lon="6.20353">
        <ele>1321.6</ele>
        <time>2021-02-17T07:21:10Z</time>
      </trkpt>
      <trkpt lat="45.28321" lon="6.20353">
        <ele>1321.7</ele>
        <time>2021-02-17T07:21:11Z</time>
      </trkpt>
      <trkpt lat="45.2832" lon="6.20352">
        <ele>1321.8</ele>
        <time>2021-02-17T07:21:12Z</time>
      </trkpt>
      <trkpt lat="45.2832" lon="6.20352">
        <ele>1321.9</ele>
        <time>2021-02-17T07:21:13Z</time>
      </trkpt>
      <trkpt lat="45.28319" lon="6.20352">
        <ele>1322</ele>
        <time>2021-02-17T07:21:14Z</time>
      </trkpt>
      <trkpt lat="45.28319" lon="6.20351">
        <ele>1322.1</ele>
        <time>2021-02-17T07:21:15Z</time>
      </trkpt>
      <trkpt lat="45.28319" lon="6.20351">
        <ele>1322.1</ele>
        <time>2021-02-17T07:21:16Z</time>
      </trkpt>
      <trkpt lat="45.28318" lon="6.20351">
        <ele>1322.2</ele>
        <time>2021-02-17T07:21:17Z</time>
      </trkpt>
      <trkpt lat="45.28318" lon="6.2035">
        <ele>1322.3</ele>
        <time>2021-02-17T07:21:18Z</time>
      </trkpt>
      <trkpt lat="45.28318" lon="6.20349">
        <ele>1322.4</ele>
        <time>2021-02-17T07:21:19Z</time>
      </trkpt>
      <trkpt lat="45.28317" lon="6.20349">
        <ele>1322.5</ele>
        <time>2021-02-17T07:21:20Z</time>
      </trkpt>
      <trkpt lat="45.28317" lon="6.20349">
        <ele>1322.5</ele>
        <time>2021-02-17T07:21:21Z</time>
      </trkpt>
      <trkpt lat="45.28316" lon="6.20349">
        <ele>1322.6</ele>
        <time>2021-02-17T07:21:22Z</time>
      </trkpt>
      <trkpt lat="45.28315" lon="6.20347">
        <ele>1322.9</ele>
        <time>2021-02-17T07:21:48Z</time>
      </trkpt>
      <trkpt lat="45.28315" lon="6.20347">
        <ele>1322.9</ele>
        <time>2021-02-17T07:21:49Z</time>
      </trkpt>
      <trkpt lat="45.28315" lon="6.20347">
        <ele>1322.9</ele>
        <time>2021-02-17T07:21:50Z</time>
      </trkpt>
      <trkpt lat="45.28315" lon="6.20347">
        <ele>1322.9</ele>
        <time>2021-02-17T07:21:51Z</time>
      </trkpt>
      <trkpt lat="45.28313" lon="6.20346">
        <ele>1323.3</ele>
        <time>2021-02-17T07:21:52Z</time>
      </trkpt>
      <trkpt lat="45.28313" lon="6.20346">
        <ele>1323.3</ele>
        <time>2021-02-17T07:21:53Z</time>
      </trkpt>
      <trkpt lat="45.28313" lon="6.20346">
        <ele>1323.3</ele>
        <time>2021-02-17T07:21:54Z</time>
      </trkpt>
      <trkpt lat="45.28313" lon="6.20346">
        <ele>1323.3</ele>
        <time>2021-02-17T07:21:55Z</time>
      </trkpt>
      <trkpt lat="45.28313" lon="6.20346">
        <ele>1323.3</ele>
        <time>2021-02-17T07:21:56Z</time>
      </trkpt>
      <trkpt lat="45.28313" lon="6.20346">
        <ele>1323.3</ele>
        <time>2021-02-17T07:21:57Z</time>
      </trkpt>
      <trkpt lat="45.2831" lon="6.20349">
        <ele>1324</ele>
        <time>2021-02-17T07:22:15Z</time>
      </trkpt>
      <trkpt lat="45.28309" lon="6.2035">
        <ele>1324.2</ele>
        <time>2021-02-17T07:22:16Z</time>
      </trkpt>
      <trkpt lat="45.28309" lon="6.2035">
        <ele>1324.3</ele>
        <time>2021-02-17T07:22:17Z</time>
      </trkpt>
      <trkpt lat="45.28308" lon="6.20351">
        <ele>1324.3</ele>
        <time>2021-02-17T07:22:18Z</time>
      </trkpt>
      <trkpt lat="45.28308" lon="6.20351">
        <ele>1324.4</ele>
        <time>2021-02-17T07:22:19Z</time>
      </trkpt>
      <trkpt lat="45.28308" lon="6.20351">
        <ele>1324.5</ele>
        <time>2021-02-17T07:22:20Z</time>
      </trkpt>
      <trkpt lat="45.28307" lon="6.20351">
        <ele>1324.6</ele>
        <time>2021-02-17T07:22:21Z</time>
      </trkpt>
      <trkpt lat="45.28307" lon="6.20352">
        <ele>1324.6</ele>
        <time>2021-02-17T07:22:22Z</time>
      </trkpt>
      <trkpt lat="45.28307" lon="6.20352">
        <ele>1324.6</ele>
        <time>2021-02-17T07:22:23Z</time>
      </trkpt>
      <trkpt lat="45.28307" lon="6.20352">
        <ele>1324.6</ele>
        <time>2021-02-17T07:22:24Z</time>
      </trkpt>
      <trkpt lat="45.28307" lon="6.20352">
        <ele>1324.6</ele>
        <time>2021-02-17T07:22:25Z</time>
      </trkpt>
      <trkpt lat="45.28306" lon="6.20357">
        <ele>1325.3</ele>
        <time>2021-02-17T07:23:10Z</time>
      </trkpt>
      <trkpt lat="45.28305" lon="6.20357">
        <ele>1325.5</ele>
        <time>2021-02-17T07:23:11Z</time>
      </trkpt>
      <trkpt lat="45.28304" lon="6.20357">
        <ele>1325.6</ele>
        <time>2021-02-17T07:23:12Z</time>
      </trkpt>
      <trkpt lat="45.28304" lon="6.20357">
        <ele>1325.7</ele>
        <time>2021-02-17T07:23:13Z</time>
      </trkpt>
      <trkpt lat="45.28304" lon="6.20356">
        <ele>1325.8</ele>
        <time>2021-02-17T07:23:14Z</time>
      </trkpt>
      <trkpt lat="45.28303" lon="6.20355">
        <ele>1326</ele>
        <time>2021-02-17T07:23:15Z</time>
      </trkpt>
      <trkpt lat="45.28303" lon="6.20354">
        <ele>1326.1</ele>
        <time>2021-02-17T07:23:16Z</time>
      </trkpt>
      <trkpt lat="45.28303" lon="6.20353">
        <ele>1326.2</ele>
        <time>2021-02-17T07:23:17Z</time>
      </trkpt>
      <trkpt lat="45.28303" lon="6.20352">
        <ele>1326.3</ele>
        <time>2021-02-17T07:23:18Z</time>
      </trkpt>
      <trkpt lat="45.28303" lon="6.20351">
        <ele>1326.4</ele>
        <time>2021-02-17T07:23:19Z</time>
      </trkpt>
      <trkpt lat="45.28303" lon="6.20351">
        <ele>1326.4</ele>
        <time>2021-02-17T07:23:20Z</time>
      </trkpt>
      <trkpt lat="45.28295" lon="6.20359">
        <ele>1328.1</ele>
        <time>2021-02-17T07:23:52Z</time>
      </trkpt>
      <trkpt lat="45.28294" lon="6.20359">
        <ele>1328.3</ele>
        <time>2021-02-17T07:23:53Z</time>
      </trkpt>
      <trkpt lat="45.28292" lon="6.20359">
        <ele>1328.5</ele>
        <time>2021-02-17T07:23:54Z</time>
      </trkpt>
      <trkpt lat="45.28291" lon="6.20358">
        <ele>1328.8</ele>
        <time>2021-02-17T07:23:55Z</time>
      </trkpt>
      <trkpt lat="45.2829" lon="6.20356">
        <ele>1329</ele>
        <time>2021-02-17T07:23:56Z</time>
      </trkpt>
      <trkpt lat="45.28289" lon="6.20355">
        <ele>1329.2</ele>
        <time>2021-02-17T07:23:57Z</time>
      </trkpt>
      <trkpt lat="45.28288" lon="6.20354">
        <ele>1329.4</ele>
        <time>2021-02-17T07:23:58Z</time>
      </trkpt>
      <trkpt lat="45.28288" lon="6.20354">
        <ele>1329.5</ele>
        <time>2021-02-17T07:23:59Z</time>
      </trkpt>
      <trkpt lat="45.28287" lon="6.20353">
        <ele>1329.6</ele>
        <time>2021-02-17T07:24:00Z</time>
      </trkpt>
      <trkpt lat="45.28286" lon="6.20352">
        <ele>1329.7</ele>
        <time>2021-02-17T07:24:01Z</time>
      </trkpt>
      <trkpt lat="45.28286" lon="6.20352">
        <ele>1329.8</ele>
        <time>2021-02-17T07:24:02Z</time>
      </trkpt>
      <trkpt lat="45.28285" lon="6.20351">
        <ele>1329.9</ele>
        <time>2021-02-17T07:24:03Z</time>
      </trkpt>
      <trkpt lat="45.28285" lon="6.20351">
        <ele>1330</ele>
        <time>2021-02-17T07:24:04Z</time>
      </trkpt>
      <trkpt lat="45.28285" lon="6.20351">
        <ele>1330</ele>
        <time>2021-02-17T07:24:05Z</time>
      </trkpt>
      <trkpt lat="45.28284" lon="6.2035">
        <ele>1330.1</ele>
        <time>2021-02-17T07:24:06Z</time>
      </trkpt>
      <trkpt lat="45.28285" lon="6.2035">
        <ele>1330.1</ele>
        <time>2021-02-17T07:24:07Z</time>
      </trkpt>
      <trkpt lat="45.28285" lon="6.20349">
        <ele>1330.2</ele>
        <time>2021-02-17T07:24:08Z</time>
      </trkpt>
      <trkpt lat="45.28285" lon="6.20348">
        <ele>1330.3</ele>
        <time>2021-02-17T07:24:09Z</time>
      </trkpt>
      <trkpt lat="45.28285" lon="6.20347">
        <ele>1330.4</ele>
        <time>2021-02-17T07:24:10Z</time>
      </trkpt>
      <trkpt lat="45.28284" lon="6.20346">
        <ele>1330.5</ele>
        <time>2021-02-17T07:24:11Z</time>
      </trkpt>
      <trkpt lat="45.28284" lon="6.20345">
        <ele>1330.6</ele>
        <time>2021-02-17T07:24:12Z</time>
      </trkpt>
      <trkpt lat="45.28284" lon="6.20344">
        <ele>1330.7</ele>
        <time>2021-02-17T07:24:13Z</time>
      </trkpt>
      <trkpt lat="45.28285" lon="6.20343">
        <ele>1330.8</ele>
        <time>2021-02-17T07:24:14Z</time>
      </trkpt>
      <trkpt lat="45.28285" lon="6.20342">
        <ele>1330.9</ele>
        <time>2021-02-17T07:24:15Z</time>
      </trkpt>
      <trkpt lat="45.28285" lon="6.20341">
        <ele>1331</ele>
        <time>2021-02-17T07:24:16Z</time>
      </trkpt>
      <trkpt lat="45.28285" lon="6.2034">
        <ele>1331.1</ele>
        <time>2021-02-17T07:24:17Z</time>
      </trkpt>
      <trkpt lat="45.28284" lon="6.20339">
        <ele>1331.2</ele>
        <time>2021-02-17T07:24:18Z</time>
      </trkpt>
      <trkpt lat="45.28284" lon="6.20337">
        <ele>1331.3</ele>
        <time>2021-02-17T07:24:19Z</time>
      </trkpt>
      <trkpt lat="45.28284" lon="6.20336">
        <ele>1331.5</ele>
        <time>2021-02-17T07:24:20Z</time>
      </trkpt>
      <trkpt lat="45.28284" lon="6.20335">
        <ele>1331.6</ele>
        <time>2021-02-17T07:24:21Z</time>
      </trkpt>
      <trkpt lat="45.28284" lon="6.20333">
        <ele>1331.7</ele>
        <time>2021-02-17T07:24:22Z</time>
      </trkpt>
      <trkpt lat="45.28284" lon="6.20332">
        <ele>1331.8</ele>
        <time>2021-02-17T07:24:23Z</time>
      </trkpt>
      <trkpt lat="45.28284" lon="6.20331">
        <ele>1331.9</ele>
        <time>2021-02-17T07:24:24Z</time>
      </trkpt>
      <trkpt lat="45.28284" lon="6.2033">
        <ele>1332</ele>
        <time>2021-02-17T07:24:25Z</time>
      </trkpt>
      <trkpt lat="45.28284" lon="6.20328">
        <ele>1332.1</ele>
        <time>2021-02-17T07:24:26Z</time>
      </trkpt>
      <trkpt lat="45.28284" lon="6.20327">
        <ele>1332.2</ele>
        <time>2021-02-17T07:24:27Z</time>
      </trkpt>
      <trkpt lat="45.28284" lon="6.20325">
        <ele>1332.4</ele>
        <time>2021-02-17T07:24:28Z</time>
      </trkpt>
      <trkpt lat="45.28283" lon="6.20323">
        <ele>1332.5</ele>
        <time>2021-02-17T07:24:29Z</time>
      </trkpt>
      <trkpt lat="45.28282" lon="6.20322">
        <ele>1332.7</ele>
        <time>2021-02-17T07:24:30Z</time>
      </trkpt>
      <trkpt lat="45.28282" lon="6.20321">
        <ele>1332.8</ele>
        <time>2021-02-17T07:24:31Z</time>
      </trkpt>
      <trkpt lat="45.28281" lon="6.20319">
        <ele>1333</ele>
        <time>2021-02-17T07:24:32Z</time>
      </trkpt>
      <trkpt lat="45.28281" lon="6.20318">
        <ele>1333.1</ele>
        <time>2021-02-17T07:24:33Z</time>
      </trkpt>
      <trkpt lat="45.28281" lon="6.20317">
        <ele>1333.2</ele>
        <time>2021-02-17T07:24:34Z</time>
      </trkpt>
      <trkpt lat="45.2828" lon="6.20316">
        <ele>1333.3</ele>
        <time>2021-02-17T07:24:35Z</time>
      </trkpt>
      <trkpt lat="45.2828" lon="6.20316">
        <ele>1333.3</ele>
        <time>2021-02-17T07:24:36Z</time>
      </trkpt>
      <trkpt lat="45.2828" lon="6.20316">
        <ele>1333.4</ele>
        <time>2021-02-17T07:24:37Z</time>
      </trkpt>
      <trkpt lat="45.2828" lon="6.20316">
        <ele>1333.4</ele>
        <time>2021-02-17T07:24:38Z</time>
      </trkpt>
      <trkpt lat="45.2828" lon="6.20316">
        <ele>1333.4</ele>
        <time>2021-02-17T07:24:39Z</time>
      </trkpt>
      <trkpt lat="45.2828" lon="6.20316">
        <ele>1333.4</ele>
        <time>2021-02-17T07:24:40Z</time>
      </trkpt>
      <trkpt lat="45.2828" lon="6.20316">
        <ele>1333.4</ele>
        <time>2021-02-17T07:24:41Z</time>
      </trkpt>
      <trkpt lat="45.2828" lon="6.20316">
        <ele>1333.4</ele>
        <time>2021-02-17T07:24:42Z</time>
      </trkpt>
      <trkpt lat="45.2828" lon="6.20316">
        <ele>1333.4</ele>
        <time>2021-02-17T07:24:43Z</time>
      </trkpt>
      <trkpt lat="45.2828" lon="6.20316">
        <ele>1333.4</ele>
        <time>2021-02-17T07:24:44Z</time>
      </trkpt>
      <trkpt lat="45.28277" lon="6.20315">
        <ele>1333.8</ele>
        <time>2021-02-17T07:25:01Z</time>
      </trkpt>
      <trkpt lat="45.28276" lon="6.20314">
        <ele>1334</ele>
        <time>2021-02-17T07:25:02Z</time>
      </trkpt>
      <trkpt lat="45.28275" lon="6.20313">
        <ele>1334.1</ele>
        <time>2021-02-17T07:25:03Z</time>
      </trkpt>
      <trkpt lat="45.28275" lon="6.20313">
        <ele>1334.2</ele>
        <time>2021-02-17T07:25:04Z</time>
      </trkpt>
      <trkpt lat="45.28274" lon="6.20312">
        <ele>1334.3</ele>
        <time>2021-02-17T07:25:05Z</time>
      </trkpt>
      <trkpt lat="45.28273" lon="6.20311">
        <ele>1334.4</ele>
        <time>2021-02-17T07:25:06Z</time>
      </trkpt>
      <trkpt lat="45.28273" lon="6.20311">
        <ele>1334.5</ele>
        <time>2021-02-17T07:25:07Z</time>
      </trkpt>
      <trkpt lat="45.28272" lon="6.20312">
        <ele>1334.6</ele>
        <time>2021-02-17T07:25:08Z</time>
      </trkpt>
      <trkpt lat="45.28272" lon="6.20312">
        <ele>1334.6</ele>
        <time>2021-02-17T07:25:09Z</time>
      </trkpt>
      <trkpt lat="45.28272" lon="6.20312">
        <ele>1334.7</ele>
        <time>2021-02-17T07:25:10Z</time>
      </trkpt>
      <trkpt lat="45.28272" lon="6.20312">
        <ele>1334.7</ele>
        <time>2021-02-17T07:25:11Z</time>
      </trkpt>
      <trkpt lat="45.28272" lon="6.20312">
        <ele>1334.7</ele>
        <time>2021-02-17T07:25:12Z</time>
      </trkpt>
      <trkpt lat="45.28272" lon="6.20312">
        <ele>1334.7</ele>
        <time>2021-02-17T07:25:13Z</time>
      </trkpt>
      <trkpt lat="45.28272" lon="6.20312">
        <ele>1334.7</ele>
        <time>2021-02-17T07:25:14Z</time>
      </trkpt>
      <trkpt lat="45.28272" lon="6.20312">
        <ele>1334.7</ele>
        <time>2021-02-17T07:25:15Z</time>
      </trkpt>
      <trkpt lat="45.28272" lon="6.20312">
        <ele>1334.7</ele>
        <time>2021-02-17T07:25:16Z</time>
      </trkpt>
      <trkpt lat="45.28272" lon="6.20312">
        <ele>1334.7</ele>
        <time>2021-02-17T07:25:17Z</time>
      </trkpt>
      <trkpt lat="45.28266" lon="6.2032">
        <ele>1335.8</ele>
        <time>2021-02-17T07:25:49Z</time>
      </trkpt>
      <trkpt lat="45.28265" lon="6.2032">
        <ele>1335.9</ele>
        <time>2021-02-17T07:25:50Z</time>
      </trkpt>
      <trkpt lat="45.28265" lon="6.20319">
        <ele>1336</ele>
        <time>2021-02-17T07:25:51Z</time>
      </trkpt>
      <trkpt lat="45.28264" lon="6.20319">
        <ele>1336.1</ele>
        <time>2021-02-17T07:25:52Z</time>
      </trkpt>
      <trkpt lat="45.28263" lon="6.20319">
        <ele>1336.1</ele>
        <time>2021-02-17T07:25:53Z</time>
      </trkpt>
      <trkpt lat="45.28263" lon="6.20319">
        <ele>1336.2</ele>
        <time>2021-02-17T07:25:54Z</time>
      </trkpt>
      <trkpt lat="45.28262" lon="6.20318">
        <ele>1336.3</ele>
        <time>2021-02-17T07:25:55Z</time>
      </trkpt>
      <trkpt lat="45.28262" lon="6.20318">
        <ele>1336.4</ele>
        <time>2021-02-17T07:25:56Z</time>
      </trkpt>
      <trkpt lat="45.28261" lon="6.20317">
        <ele>1336.5</ele>
        <time>2021-02-17T07:25:57Z</time>
      </trkpt>
      <trkpt lat="45.2826" lon="6.20317">
        <ele>1336.6</ele>
        <time>2021-02-17T07:25:58Z</time>
      </trkpt>
      <trkpt lat="45.2826" lon="6.20317">
        <ele>1336.6</ele>
        <time>2021-02-17T07:25:59Z</time>
      </trkpt>
      <trkpt lat="45.28259" lon="6.20316">
        <ele>1336.7</ele>
        <time>2021-02-17T07:26:00Z</time>
      </trkpt>
      <trkpt lat="45.28259" lon="6.20316">
        <ele>1336.8</ele>
        <time>2021-02-17T07:26:01Z</time>
      </trkpt>
      <trkpt lat="45.28259" lon="6.20315">
        <ele>1336.9</ele>
        <time>2021-02-17T07:26:02Z</time>
      </trkpt>
      <trkpt lat="45.28259" lon="6.20315">
        <ele>1336.9</ele>
        <time>2021-02-17T07:26:03Z</time>
      </trkpt>
      <trkpt lat="45.28258" lon="6.20315">
        <ele>1336.9</ele>
        <time>2021-02-17T07:26:04Z</time>
      </trkpt>
      <trkpt lat="45.28258" lon="6.20314">
        <ele>1337</ele>
        <time>2021-02-17T07:26:05Z</time>
      </trkpt>
      <trkpt lat="45.28258" lon="6.20313">
        <ele>1337</ele>
        <time>2021-02-17T07:26:06Z</time>
      </trkpt>
      <trkpt lat="45.28258" lon="6.20313">
        <ele>1337.1</ele>
        <time>2021-02-17T07:26:07Z</time>
      </trkpt>
      <trkpt lat="45.28258" lon="6.20312">
        <ele>1337.2</ele>
        <time>2021-02-17T07:26:08Z</time>
      </trkpt>
      <trkpt lat="45.28258" lon="6.20311">
        <ele>1337.2</ele>
        <time>2021-02-17T07:26:09Z</time>
      </trkpt>
      <trkpt lat="45.28257" lon="6.20311">
        <ele>1337.3</ele>
        <time>2021-02-17T07:26:10Z</time>
      </trkpt>
      <trkpt lat="45.28257" lon="6.2031">
        <ele>1337.3</ele>
        <time>2021-02-17T07:26:11Z</time>
      </trkpt>
      <trkpt lat="45.28258" lon="6.2031">
        <ele>1337.4</ele>
        <time>2021-02-17T07:26:12Z</time>
      </trkpt>
      <trkpt lat="45.28257" lon="6.20309">
        <ele>1337.4</ele>
        <time>2021-02-17T07:26:13Z</time>
      </trkpt>
      <trkpt lat="45.28257" lon="6.20308">
        <ele>1337.5</ele>
        <time>2021-02-17T07:26:14Z</time>
      </trkpt>
      <trkpt lat="45.28256" lon="6.20307">
        <ele>1337.7</ele>
        <time>2021-02-17T07:26:15Z</time>
      </trkpt>
      <trkpt lat="45.28256" lon="6.20306">
        <ele>1337.8</ele>
        <time>2021-02-17T07:26:16Z</time>
      </trkpt>
      <trkpt lat="45.28256" lon="6.20306">
        <ele>1337.8</ele>
        <time>2021-02-17T07:26:17Z</time>
      </trkpt>
      <trkpt lat="45.28256" lon="6.20305">
        <ele>1337.9</ele>
        <time>2021-02-17T07:26:18Z</time>
      </trkpt>
      <trkpt lat="45.28256" lon="6.20304">
        <ele>1337.9</ele>
        <time>2021-02-17T07:26:19Z</time>
      </trkpt>
      <trkpt lat="45.28256" lon="6.20304">
        <ele>1338</ele>
        <time>2021-02-17T07:26:20Z</time>
      </trkpt>
      <trkpt lat="45.28256" lon="6.20303">
        <ele>1338.1</ele>
        <time>2021-02-17T07:26:21Z</time>
      </trkpt>
      <trkpt lat="45.28256" lon="6.20302">
        <ele>1338.1</ele>
        <time>2021-02-17T07:26:22Z</time>
      </trkpt>
      <trkpt lat="45.28256" lon="6.20301">
        <ele>1338.2</ele>
        <time>2021-02-17T07:26:23Z</time>
      </trkpt>
      <trkpt lat="45.28255" lon="6.203">
        <ele>1338.3</ele>
        <time>2021-02-17T07:26:24Z</time>
      </trkpt>
      <trkpt lat="45.28255" lon="6.20299">
        <ele>1338.4</ele>
        <time>2021-02-17T07:26:25Z</time>
      </trkpt>
      <trkpt lat="45.28254" lon="6.20298">
        <ele>1338.5</ele>
        <time>2021-02-17T07:26:26Z</time>
      </trkpt>
      <trkpt lat="45.28254" lon="6.20297">
        <ele>1338.6</ele>
        <time>2021-02-17T07:26:27Z</time>
      </trkpt>
      <trkpt lat="45.28253" lon="6.20296">
        <ele>1338.7</ele>
        <time>2021-02-17T07:26:28Z</time>
      </trkpt>
      <trkpt lat="45.28253" lon="6.20295">
        <ele>1338.9</ele>
        <time>2021-02-17T07:26:29Z</time>
      </trkpt>
      <trkpt lat="45.28252" lon="6.20294">
        <ele>1339</ele>
        <time>2021-02-17T07:26:30Z</time>
      </trkpt>
      <trkpt lat="45.28252" lon="6.20293">
        <ele>1339.2</ele>
        <time>2021-02-17T07:26:31Z</time>
      </trkpt>
      <trkpt lat="45.28251" lon="6.20292">
        <ele>1339.3</ele>
        <time>2021-02-17T07:26:32Z</time>
      </trkpt>
      <trkpt lat="45.28251" lon="6.20291">
        <ele>1339.5</ele>
        <time>2021-02-17T07:26:33Z</time>
      </trkpt>
      <trkpt lat="45.28251" lon="6.2029">
        <ele>1339.6</ele>
        <time>2021-02-17T07:26:34Z</time>
      </trkpt>
      <trkpt lat="45.28251" lon="6.20289">
        <ele>1339.7</ele>
        <time>2021-02-17T07:26:35Z</time>
      </trkpt>
      <trkpt lat="45.2825" lon="6.20288">
        <ele>1339.8</ele>
        <time>2021-02-17T07:26:36Z</time>
      </trkpt>
      <trkpt lat="45.2825" lon="6.20287">
        <ele>1339.9</ele>
        <time>2021-02-17T07:26:37Z</time>
      </trkpt>
      <trkpt lat="45.2825" lon="6.20286">
        <ele>1340</ele>
        <time>2021-02-17T07:26:38Z</time>
      </trkpt>
      <trkpt lat="45.2825" lon="6.20285">
        <ele>1340.1</ele>
        <time>2021-02-17T07:26:39Z</time>
      </trkpt>
      <trkpt lat="45.28249" lon="6.20284">
        <ele>1340.2</ele>
        <time>2021-02-17T07:26:40Z</time>
      </trkpt>
      <trkpt lat="45.28249" lon="6.20283">
        <ele>1340.3</ele>
        <time>2021-02-17T07:26:41Z</time>
      </trkpt>
      <trkpt lat="45.28249" lon="6.20282">
        <ele>1340.4</ele>
        <time>2021-02-17T07:26:42Z</time>
      </trkpt>
      <trkpt lat="45.28248" lon="6.20281">
        <ele>1340.5</ele>
        <time>2021-02-17T07:26:43Z</time>
      </trkpt>
      <trkpt lat="45.28248" lon="6.2028">
        <ele>1340.6</ele>
        <time>2021-02-17T07:26:44Z</time>
      </trkpt>
      <trkpt lat="45.28248" lon="6.20279">
        <ele>1340.8</ele>
        <time>2021-02-17T07:26:45Z</time>
      </trkpt>
      <trkpt lat="45.28248" lon="6.20278">
        <ele>1340.9</ele>
        <time>2021-02-17T07:26:46Z</time>
      </trkpt>
      <trkpt lat="45.28248" lon="6.20277">
        <ele>1341</ele>
        <time>2021-02-17T07:26:47Z</time>
      </trkpt>
      <trkpt lat="45.28247" lon="6.20276">
        <ele>1341.1</ele>
        <time>2021-02-17T07:26:48Z</time>
      </trkpt>
      <trkpt lat="45.28246" lon="6.20275">
        <ele>1341.2</ele>
        <time>2021-02-17T07:26:49Z</time>
      </trkpt>
      <trkpt lat="45.28246" lon="6.20274">
        <ele>1341.4</ele>
        <time>2021-02-17T07:26:50Z</time>
      </trkpt>
      <trkpt lat="45.28245" lon="6.20274">
        <ele>1341.5</ele>
        <time>2021-02-17T07:26:51Z</time>
      </trkpt>
      <trkpt lat="45.28245" lon="6.20273">
        <ele>1341.7</ele>
        <time>2021-02-17T07:26:52Z</time>
      </trkpt>
      <trkpt lat="45.28245" lon="6.20271">
        <ele>1341.8</ele>
        <time>2021-02-17T07:26:53Z</time>
      </trkpt>
      <trkpt lat="45.28244" lon="6.2027">
        <ele>1341.9</ele>
        <time>2021-02-17T07:26:54Z</time>
      </trkpt>
      <trkpt lat="45.28244" lon="6.20269">
        <ele>1342.1</ele>
        <time>2021-02-17T07:26:55Z</time>
      </trkpt>
      <trkpt lat="45.28244" lon="6.20269">
        <ele>1342.1</ele>
        <time>2021-02-17T07:26:56Z</time>
      </trkpt>
      <trkpt lat="45.28243" lon="6.20268">
        <ele>1342.3</ele>
        <time>2021-02-17T07:26:57Z</time>
      </trkpt>
      <trkpt lat="45.28242" lon="6.20267">
        <ele>1342.4</ele>
        <time>2021-02-17T07:26:58Z</time>
      </trkpt>
      <trkpt lat="45.28242" lon="6.20266">
        <ele>1342.6</ele>
        <time>2021-02-17T07:26:59Z</time>
      </trkpt>
      <trkpt lat="45.28241" lon="6.20265">
        <ele>1342.7</ele>
        <time>2021-02-17T07:27:00Z</time>
      </trkpt>
      <trkpt lat="45.2824" lon="6.20264">
        <ele>1342.9</ele>
        <time>2021-02-17T07:27:01Z</time>
      </trkpt>
      <trkpt lat="45.2824" lon="6.20264">
        <ele>1343</ele>
        <time>2021-02-17T07:27:02Z</time>
      </trkpt>
      <trkpt lat="45.28239" lon="6.20263">
        <ele>1343.1</ele>
        <time>2021-02-17T07:27:03Z</time>
      </trkpt>
      <trkpt lat="45.28239" lon="6.20263">
        <ele>1343.2</ele>
        <time>2021-02-17T07:27:04Z</time>
      </trkpt>
      <trkpt lat="45.28238" lon="6.20262">
        <ele>1343.4</ele>
        <time>2021-02-17T07:27:05Z</time>
      </trkpt>
      <trkpt lat="45.28237" lon="6.20261">
        <ele>1343.5</ele>
        <time>2021-02-17T07:27:06Z</time>
      </trkpt>
      <trkpt lat="45.28236" lon="6.2026">
        <ele>1343.7</ele>
        <time>2021-02-17T07:27:07Z</time>
      </trkpt>
      <trkpt lat="45.28236" lon="6.20259">
        <ele>1343.8</ele>
        <time>2021-02-17T07:27:08Z</time>
      </trkpt>
      <trkpt lat="45.28236" lon="6.20258">
        <ele>1343.9</ele>
        <time>2021-02-17T07:27:09Z</time>
      </trkpt>
      <trkpt lat="45.28236" lon="6.20257">
        <ele>1344</ele>
        <time>2021-02-17T07:27:10Z</time>
      </trkpt>
      <trkpt lat="45.28235" lon="6.20256">
        <ele>1344.1</ele>
        <time>2021-02-17T07:27:11Z</time>
      </trkpt>
      <trkpt lat="45.28235" lon="6.20255">
        <ele>1344.3</ele>
        <time>2021-02-17T07:27:12Z</time>
      </trkpt>
      <trkpt lat="45.28235" lon="6.20254">
        <ele>1344.4</ele>
        <time>2021-02-17T07:27:13Z</time>
      </trkpt>
      <trkpt lat="45.28235" lon="6.20253">
        <ele>1344.5</ele>
        <time>2021-02-17T07:27:14Z</time>
      </trkpt>
      <trkpt lat="45.28235" lon="6.20252">
        <ele>1344.6</ele>
        <time>2021-02-17T07:27:15Z</time>
      </trkpt>
      <trkpt lat="45.28234" lon="6.2025">
        <ele>1344.8</ele>
        <time>2021-02-17T07:27:16Z</time>
      </trkpt>
      <trkpt lat="45.28234" lon="6.20249">
        <ele>1344.9</ele>
        <time>2021-02-17T07:27:17Z</time>
      </trkpt>
      <trkpt lat="45.28234" lon="6.20248">
        <ele>1345</ele>
        <time>2021-02-17T07:27:18Z</time>
      </trkpt>
      <trkpt lat="45.28234" lon="6.20246">
        <ele>1345.2</ele>
        <time>2021-02-17T07:27:19Z</time>
      </trkpt>
      <trkpt lat="45.28234" lon="6.20245">
        <ele>1345.3</ele>
        <time>2021-02-17T07:27:20Z</time>
      </trkpt>
      <trkpt lat="45.28234" lon="6.20244">
        <ele>1345.5</ele>
        <time>2021-02-17T07:27:21Z</time>
      </trkpt>
      <trkpt lat="45.28234" lon="6.20243">
        <ele>1345.6</ele>
        <time>2021-02-17T07:27:22Z</time>
      </trkpt>
      <trkpt lat="45.28234" lon="6.20242">
        <ele>1345.7</ele>
        <time>2021-02-17T07:27:23Z</time>
      </trkpt>
      <trkpt lat="45.28234" lon="6.20241">
        <ele>1345.9</ele>
        <time>2021-02-17T07:27:24Z</time>
      </trkpt>
      <trkpt lat="45.28234" lon="6.20239">
        <ele>1346</ele>
        <time>2021-02-17T07:27:25Z</time>
      </trkpt>
      <trkpt lat="45.28234" lon="6.20238">
        <ele>1346.2</ele>
        <time>2021-02-17T07:27:26Z</time>
      </trkpt>
      <trkpt lat="45.28233" lon="6.20237">
        <ele>1346.3</ele>
        <time>2021-02-17T07:27:27Z</time>
      </trkpt>
      <trkpt lat="45.28233" lon="6.20236">
        <ele>1346.5</ele>
        <time>2021-02-17T07:27:28Z</time>
      </trkpt>
      <trkpt lat="45.28232" lon="6.20234">
        <ele>1346.7</ele>
        <time>2021-02-17T07:27:29Z</time>
      </trkpt>
      <trkpt lat="45.28231" lon="6.20233">
        <ele>1346.9</ele>
        <time>2021-02-17T07:27:30Z</time>
      </trkpt>
      <trkpt lat="45.28231" lon="6.20232">
        <ele>1347.1</ele>
        <time>2021-02-17T07:27:31Z</time>
      </trkpt>
      <trkpt lat="45.28231" lon="6.20231">
        <ele>1347.2</ele>
        <time>2021-02-17T07:27:32Z</time>
      </trkpt>
      <trkpt lat="45.28231" lon="6.2023">
        <ele>1347.3</ele>
        <time>2021-02-17T07:27:33Z</time>
      </trkpt>
      <trkpt lat="45.2823" lon="6.20229">
        <ele>1347.5</ele>
        <time>2021-02-17T07:27:34Z</time>
      </trkpt>
      <trkpt lat="45.2823" lon="6.20227">
        <ele>1347.6</ele>
        <time>2021-02-17T07:27:35Z</time>
      </trkpt>
      <trkpt lat="45.28229" lon="6.20226">
        <ele>1347.8</ele>
        <time>2021-02-17T07:27:36Z</time>
      </trkpt>
      <trkpt lat="45.28229" lon="6.20225">
        <ele>1348</ele>
        <time>2021-02-17T07:27:37Z</time>
      </trkpt>
      <trkpt lat="45.28228" lon="6.20224">
        <ele>1348.1</ele>
        <time>2021-02-17T07:27:38Z</time>
      </trkpt>
      <trkpt lat="45.28228" lon="6.20223">
        <ele>1348.3</ele>
        <time>2021-02-17T07:27:39Z</time>
      </trkpt>
      <trkpt lat="45.28227" lon="6.20222">
        <ele>1348.5</ele>
        <time>2021-02-17T07:27:40Z</time>
      </trkpt>
      <trkpt lat="45.28227" lon="6.20221">
        <ele>1348.6</ele>
        <time>2021-02-17T07:27:41Z</time>
      </trkpt>
      <trkpt lat="45.28227" lon="6.2022">
        <ele>1348.8</ele>
        <time>2021-02-17T07:27:42Z</time>
      </trkpt>
      <trkpt lat="45.28226" lon="6.20219">
        <ele>1348.9</ele>
        <time>2021-02-17T07:27:43Z</time>
      </trkpt>
      <trkpt lat="45.28226" lon="6.20217">
        <ele>1349.1</ele>
        <time>2021-02-17T07:27:44Z</time>
      </trkpt>
      <trkpt lat="45.28226" lon="6.20216">
        <ele>1349.2</ele>
        <time>2021-02-17T07:27:45Z</time>
      </trkpt>
      <trkpt lat="45.28226" lon="6.20215">
        <ele>1349.3</ele>
        <time>2021-02-17T07:27:46Z</time>
      </trkpt>
      <trkpt lat="45.28226" lon="6.20214">
        <ele>1349.5</ele>
        <time>2021-02-17T07:27:47Z</time>
      </trkpt>
      <trkpt lat="45.28225" lon="6.20213">
        <ele>1349.6</ele>
        <time>2021-02-17T07:27:48Z</time>
      </trkpt>
      <trkpt lat="45.28225" lon="6.20212">
        <ele>1349.7</ele>
        <time>2021-02-17T07:27:49Z</time>
      </trkpt>
      <trkpt lat="45.28225" lon="6.20211">
        <ele>1349.9</ele>
        <time>2021-02-17T07:27:50Z</time>
      </trkpt>
      <trkpt lat="45.28225" lon="6.2021">
        <ele>1350</ele>
        <time>2021-02-17T07:27:51Z</time>
      </trkpt>
      <trkpt lat="45.28224" lon="6.20209">
        <ele>1350.2</ele>
        <time>2021-02-17T07:27:52Z</time>
      </trkpt>
      <trkpt lat="45.28223" lon="6.20208">
        <ele>1350.4</ele>
        <time>2021-02-17T07:27:53Z</time>
      </trkpt>
      <trkpt lat="45.28222" lon="6.20207">
        <ele>1350.7</ele>
        <time>2021-02-17T07:27:54Z</time>
      </trkpt>
      <trkpt lat="45.28222" lon="6.20206">
        <ele>1350.8</ele>
        <time>2021-02-17T07:27:55Z</time>
      </trkpt>
      <trkpt lat="45.28221" lon="6.20205">
        <ele>1350.9</ele>
        <time>2021-02-17T07:27:56Z</time>
      </trkpt>
      <trkpt lat="45.28221" lon="6.20204">
        <ele>1351.1</ele>
        <time>2021-02-17T07:27:57Z</time>
      </trkpt>
      <trkpt lat="45.28221" lon="6.20204">
        <ele>1351.2</ele>
        <time>2021-02-17T07:27:58Z</time>
      </trkpt>
      <trkpt lat="45.2822" lon="6.20203">
        <ele>1351.3</ele>
        <time>2021-02-17T07:27:59Z</time>
      </trkpt>
      <trkpt lat="45.2822" lon="6.20202">
        <ele>1351.5</ele>
        <time>2021-02-17T07:28:00Z</time>
      </trkpt>
      <trkpt lat="45.28219" lon="6.20201">
        <ele>1351.6</ele>
        <time>2021-02-17T07:28:01Z</time>
      </trkpt>
      <trkpt lat="45.28219" lon="6.202">
        <ele>1351.7</ele>
        <time>2021-02-17T07:28:02Z</time>
      </trkpt>
      <trkpt lat="45.28218" lon="6.20199">
        <ele>1351.9</ele>
        <time>2021-02-17T07:28:03Z</time>
      </trkpt>
      <trkpt lat="45.28218" lon="6.20199">
        <ele>1352</ele>
        <time>2021-02-17T07:28:04Z</time>
      </trkpt>
      <trkpt lat="45.28217" lon="6.20198">
        <ele>1352.1</ele>
        <time>2021-02-17T07:28:05Z</time>
      </trkpt>
      <trkpt lat="45.28217" lon="6.20197">
        <ele>1352.2</ele>
        <time>2021-02-17T07:28:06Z</time>
      </trkpt>
      <trkpt lat="45.28217" lon="6.20197">
        <ele>1352.3</ele>
        <time>2021-02-17T07:28:07Z</time>
      </trkpt>
      <trkpt lat="45.28217" lon="6.20195">
        <ele>1352.4</ele>
        <time>2021-02-17T07:28:08Z</time>
      </trkpt>
      <trkpt lat="45.28217" lon="6.20194">
        <ele>1352.6</ele>
        <time>2021-02-17T07:28:09Z</time>
      </trkpt>
      <trkpt lat="45.28216" lon="6.20193">
        <ele>1352.7</ele>
        <time>2021-02-17T07:28:10Z</time>
      </trkpt>
      <trkpt lat="45.28216" lon="6.20192">
        <ele>1352.9</ele>
        <time>2021-02-17T07:28:11Z</time>
      </trkpt>
      <trkpt lat="45.28216" lon="6.20192">
        <ele>1352.9</ele>
        <time>2021-02-17T07:28:12Z</time>
      </trkpt>
      <trkpt lat="45.28216" lon="6.20191">
        <ele>1353</ele>
        <time>2021-02-17T07:28:13Z</time>
      </trkpt>
      <trkpt lat="45.28216" lon="6.2019">
        <ele>1353.1</ele>
        <time>2021-02-17T07:28:14Z</time>
      </trkpt>
      <trkpt lat="45.28216" lon="6.20189">
        <ele>1353.2</ele>
        <time>2021-02-17T07:28:15Z</time>
      </trkpt>
      <trkpt lat="45.28216" lon="6.20188">
        <ele>1353.3</ele>
        <time>2021-02-17T07:28:16Z</time>
      </trkpt>
      <trkpt lat="45.28215" lon="6.20187">
        <ele>1353.5</ele>
        <time>2021-02-17T07:28:17Z</time>
      </trkpt>
      <trkpt lat="45.28215" lon="6.20187">
        <ele>1353.6</ele>
        <time>2021-02-17T07:28:18Z</time>
      </trkpt>
      <trkpt lat="45.28215" lon="6.20186">
        <ele>1353.7</ele>
        <time>2021-02-17T07:28:19Z</time>
      </trkpt>
      <trkpt lat="45.28215" lon="6.20185">
        <ele>1353.8</ele>
        <time>2021-02-17T07:28:20Z</time>
      </trkpt>
      <trkpt lat="45.28214" lon="6.20184">
        <ele>1353.9</ele>
        <time>2021-02-17T07:28:21Z</time>
      </trkpt>
      <trkpt lat="45.28214" lon="6.20183">
        <ele>1354</ele>
        <time>2021-02-17T07:28:22Z</time>
      </trkpt>
      <trkpt lat="45.28214" lon="6.20182">
        <ele>1354.1</ele>
        <time>2021-02-17T07:28:23Z</time>
      </trkpt>
      <trkpt lat="45.28213" lon="6.20182">
        <ele>1354.2</ele>
        <time>2021-02-17T07:28:24Z</time>
      </trkpt>
      <trkpt lat="45.28213" lon="6.20181">
        <ele>1354.3</ele>
        <time>2021-02-17T07:28:25Z</time>
      </trkpt>
      <trkpt lat="45.28212" lon="6.2018">
        <ele>1354.5</ele>
        <time>2021-02-17T07:28:26Z</time>
      </trkpt>
      <trkpt lat="45.28212" lon="6.20178">
        <ele>1354.6</ele>
        <time>2021-02-17T07:28:27Z</time>
      </trkpt>
      <trkpt lat="45.28211" lon="6.20177">
        <ele>1354.8</ele>
        <time>2021-02-17T07:28:28Z</time>
      </trkpt>
      <trkpt lat="45.28211" lon="6.20176">
        <ele>1354.9</ele>
        <time>2021-02-17T07:28:29Z</time>
      </trkpt>
      <trkpt lat="45.28211" lon="6.20175">
        <ele>1355</ele>
        <time>2021-02-17T07:28:30Z</time>
      </trkpt>
      <trkpt lat="45.2821" lon="6.20175">
        <ele>1355.1</ele>
        <time>2021-02-17T07:28:31Z</time>
      </trkpt>
      <trkpt lat="45.2821" lon="6.20174">
        <ele>1355.2</ele>
        <time>2021-02-17T07:28:32Z</time>
      </trkpt>
      <trkpt lat="45.2821" lon="6.20173">
        <ele>1355.3</ele>
        <time>2021-02-17T07:28:33Z</time>
      </trkpt>
      <trkpt lat="45.2821" lon="6.20172">
        <ele>1355.4</ele>
        <time>2021-02-17T07:28:34Z</time>
      </trkpt>
      <trkpt lat="45.2821" lon="6.20171">
        <ele>1355.5</ele>
        <time>2021-02-17T07:28:35Z</time>
      </trkpt>
      <trkpt lat="45.2821" lon="6.20171">
        <ele>1355.6</ele>
        <time>2021-02-17T07:28:36Z</time>
      </trkpt>
      <trkpt lat="45.2821" lon="6.2017">
        <ele>1355.7</ele>
        <time>2021-02-17T07:28:37Z</time>
      </trkpt>
      <trkpt lat="45.2821" lon="6.20169">
        <ele>1355.8</ele>
        <time>2021-02-17T07:28:38Z</time>
      </trkpt>
      <trkpt lat="45.2821" lon="6.20168">
        <ele>1355.9</ele>
        <time>2021-02-17T07:28:39Z</time>
      </trkpt>
      <trkpt lat="45.2821" lon="6.20167">
        <ele>1356</ele>
        <time>2021-02-17T07:28:40Z</time>
      </trkpt>
      <trkpt lat="45.2821" lon="6.20166">
        <ele>1356.1</ele>
        <time>2021-02-17T07:28:41Z</time>
      </trkpt>
      <trkpt lat="45.2821" lon="6.20165">
        <ele>1356.2</ele>
        <time>2021-02-17T07:28:42Z</time>
      </trkpt>
      <trkpt lat="45.2821" lon="6.20164">
        <ele>1356.3</ele>
        <time>2021-02-17T07:28:43Z</time>
      </trkpt>
      <trkpt lat="45.2821" lon="6.20163">
        <ele>1356.5</ele>
        <time>2021-02-17T07:28:44Z</time>
      </trkpt>
      <trkpt lat="45.28209" lon="6.20162">
        <ele>1356.6</ele>
        <time>2021-02-17T07:28:45Z</time>
      </trkpt>
      <trkpt lat="45.28209" lon="6.20161">
        <ele>1356.7</ele>
        <time>2021-02-17T07:28:46Z</time>
      </trkpt>
      <trkpt lat="45.28209" lon="6.2016">
        <ele>1356.9</ele>
        <time>2021-02-17T07:28:47Z</time>
      </trkpt>
      <trkpt lat="45.28208" lon="6.20158">
        <ele>1357.1</ele>
        <time>2021-02-17T07:28:48Z</time>
      </trkpt>
      <trkpt lat="45.28207" lon="6.20157">
        <ele>1357.2</ele>
        <time>2021-02-17T07:28:49Z</time>
      </trkpt>
      <trkpt lat="45.28207" lon="6.20156">
        <ele>1357.4</ele>
        <time>2021-02-17T07:28:50Z</time>
      </trkpt>
      <trkpt lat="45.28206" lon="6.20154">
        <ele>1357.6</ele>
        <time>2021-02-17T07:28:51Z</time>
      </trkpt>
      <trkpt lat="45.28205" lon="6.20153">
        <ele>1357.8</ele>
        <time>2021-02-17T07:28:52Z</time>
      </trkpt>
      <trkpt lat="45.28205" lon="6.20153">
        <ele>1357.9</ele>
        <time>2021-02-17T07:28:53Z</time>
      </trkpt>
      <trkpt lat="45.28204" lon="6.20151">
        <ele>1358</ele>
        <time>2021-02-17T07:28:54Z</time>
      </trkpt>
      <trkpt lat="45.28204" lon="6.2015">
        <ele>1358.2</ele>
        <time>2021-02-17T07:28:55Z</time>
      </trkpt>
      <trkpt lat="45.28204" lon="6.20149">
        <ele>1358.3</ele>
        <time>2021-02-17T07:28:56Z</time>
      </trkpt>
      <trkpt lat="45.28203" lon="6.20148">
        <ele>1358.4</ele>
        <time>2021-02-17T07:28:57Z</time>
      </trkpt>
      <trkpt lat="45.28203" lon="6.20147">
        <ele>1358.6</ele>
        <time>2021-02-17T07:28:58Z</time>
      </trkpt>
      <trkpt lat="45.28202" lon="6.20146">
        <ele>1358.7</ele>
        <time>2021-02-17T07:28:59Z</time>
      </trkpt>
      <trkpt lat="45.28201" lon="6.20145">
        <ele>1358.9</ele>
        <time>2021-02-17T07:29:00Z</time>
      </trkpt>
      <trkpt lat="45.28201" lon="6.20144">
        <ele>1359</ele>
        <time>2021-02-17T07:29:01Z</time>
      </trkpt>
      <trkpt lat="45.282" lon="6.20144">
        <ele>1359.1</ele>
        <time>2021-02-17T07:29:02Z</time>
      </trkpt>
      <trkpt lat="45.282" lon="6.20143">
        <ele>1359.3</ele>
        <time>2021-02-17T07:29:03Z</time>
      </trkpt>
      <trkpt lat="45.28199" lon="6.20142">
        <ele>1359.4</ele>
        <time>2021-02-17T07:29:04Z</time>
      </trkpt>
      <trkpt lat="45.28199" lon="6.20141">
        <ele>1359.5</ele>
        <time>2021-02-17T07:29:05Z</time>
      </trkpt>
      <trkpt lat="45.28198" lon="6.2014">
        <ele>1359.7</ele>
        <time>2021-02-17T07:29:06Z</time>
      </trkpt>
      <trkpt lat="45.28197" lon="6.20139">
        <ele>1359.8</ele>
        <time>2021-02-17T07:29:07Z</time>
      </trkpt>
      <trkpt lat="45.28197" lon="6.20138">
        <ele>1360</ele>
        <time>2021-02-17T07:29:08Z</time>
      </trkpt>
      <trkpt lat="45.28196" lon="6.20138">
        <ele>1360.1</ele>
        <time>2021-02-17T07:29:09Z</time>
      </trkpt>
      <trkpt lat="45.28196" lon="6.20137">
        <ele>1360.2</ele>
        <time>2021-02-17T07:29:10Z</time>
      </trkpt>
      <trkpt lat="45.28195" lon="6.20137">
        <ele>1360.3</ele>
        <time>2021-02-17T07:29:11Z</time>
      </trkpt>
      <trkpt lat="45.28195" lon="6.20136">
        <ele>1360.4</ele>
        <time>2021-02-17T07:29:12Z</time>
      </trkpt>
      <trkpt lat="45.28194" lon="6.20135">
        <ele>1360.5</ele>
        <time>2021-02-17T07:29:13Z</time>
      </trkpt>
      <trkpt lat="45.28193" lon="6.20135">
        <ele>1360.6</ele>
        <time>2021-02-17T07:29:14Z</time>
      </trkpt>
      <trkpt lat="45.28193" lon="6.20134">
        <ele>1360.8</ele>
        <time>2021-02-17T07:29:15Z</time>
      </trkpt>
      <trkpt lat="45.28192" lon="6.20134">
        <ele>1360.9</ele>
        <time>2021-02-17T07:29:16Z</time>
      </trkpt>
      <trkpt lat="45.28191" lon="6.20133">
        <ele>1361.1</ele>
        <time>2021-02-17T07:29:17Z</time>
      </trkpt>
      <trkpt lat="45.2819" lon="6.20133">
        <ele>1361.2</ele>
        <time>2021-02-17T07:29:18Z</time>
      </trkpt>
      <trkpt lat="45.28189" lon="6.20132">
        <ele>1361.4</ele>
        <time>2021-02-17T07:29:19Z</time>
      </trkpt>
      <trkpt lat="45.28188" lon="6.20132">
        <ele>1361.5</ele>
        <time>2021-02-17T07:29:20Z</time>
      </trkpt>
      <trkpt lat="45.28188" lon="6.20131">
        <ele>1361.6</ele>
        <time>2021-02-17T07:29:21Z</time>
      </trkpt>
      <trkpt lat="45.28187" lon="6.20131">
        <ele>1361.7</ele>
        <time>2021-02-17T07:29:22Z</time>
      </trkpt>
      <trkpt lat="45.28186" lon="6.2013">
        <ele>1361.9</ele>
        <time>2021-02-17T07:29:23Z</time>
      </trkpt>
      <trkpt lat="45.28186" lon="6.2013">
        <ele>1362</ele>
        <time>2021-02-17T07:29:24Z</time>
      </trkpt>
      <trkpt lat="45.28184" lon="6.20129">
        <ele>1362.2</ele>
        <time>2021-02-17T07:29:25Z</time>
      </trkpt>
      <trkpt lat="45.28183" lon="6.20129">
        <ele>1362.4</ele>
        <time>2021-02-17T07:29:26Z</time>
      </trkpt>
      <trkpt lat="45.28182" lon="6.20128">
        <ele>1362.5</ele>
        <time>2021-02-17T07:29:27Z</time>
      </trkpt>
      <trkpt lat="45.28182" lon="6.20128">
        <ele>1362.7</ele>
        <time>2021-02-17T07:29:28Z</time>
      </trkpt>
      <trkpt lat="45.28181" lon="6.20127">
        <ele>1362.8</ele>
        <time>2021-02-17T07:29:29Z</time>
      </trkpt>
      <trkpt lat="45.2818" lon="6.20127">
        <ele>1362.9</ele>
        <time>2021-02-17T07:29:30Z</time>
      </trkpt>
      <trkpt lat="45.28179" lon="6.20127">
        <ele>1363</ele>
        <time>2021-02-17T07:29:31Z</time>
      </trkpt>
      <trkpt lat="45.28178" lon="6.20126">
        <ele>1363.2</ele>
        <time>2021-02-17T07:29:32Z</time>
      </trkpt>
      <trkpt lat="45.28178" lon="6.20126">
        <ele>1363.3</ele>
        <time>2021-02-17T07:29:33Z</time>
      </trkpt>
      <trkpt lat="45.28178" lon="6.20127">
        <ele>1363.3</ele>
        <time>2021-02-17T07:29:34Z</time>
      </trkpt>
      <trkpt lat="45.28178" lon="6.20127">
        <ele>1363.4</ele>
        <time>2021-02-17T07:29:35Z</time>
      </trkpt>
      <trkpt lat="45.28177" lon="6.20128">
        <ele>1363.5</ele>
        <time>2021-02-17T07:29:36Z</time>
      </trkpt>
      <trkpt lat="45.28177" lon="6.20127">
        <ele>1363.6</ele>
        <time>2021-02-17T07:29:37Z</time>
      </trkpt>
      <trkpt lat="45.28176" lon="6.20127">
        <ele>1363.7</ele>
        <time>2021-02-17T07:29:38Z</time>
      </trkpt>
      <trkpt lat="45.28176" lon="6.20126">
        <ele>1363.8</ele>
        <time>2021-02-17T07:29:39Z</time>
      </trkpt>
      <trkpt lat="45.28175" lon="6.20126">
        <ele>1363.8</ele>
        <time>2021-02-17T07:29:40Z</time>
      </trkpt>
      <trkpt lat="45.28174" lon="6.20126">
        <ele>1364</ele>
        <time>2021-02-17T07:29:41Z</time>
      </trkpt>
      <trkpt lat="45.28174" lon="6.20125">
        <ele>1364.1</ele>
        <time>2021-02-17T07:29:42Z</time>
      </trkpt>
      <trkpt lat="45.28173" lon="6.20125">
        <ele>1364.2</ele>
        <time>2021-02-17T07:29:43Z</time>
      </trkpt>
      <trkpt lat="45.28172" lon="6.20124">
        <ele>1364.4</ele>
        <time>2021-02-17T07:29:44Z</time>
      </trkpt>
      <trkpt lat="45.28171" lon="6.20123">
        <ele>1364.6</ele>
        <time>2021-02-17T07:29:45Z</time>
      </trkpt>
      <trkpt lat="45.2817" lon="6.20122">
        <ele>1364.8</ele>
        <time>2021-02-17T07:29:46Z</time>
      </trkpt>
      <trkpt lat="45.28169" lon="6.20121">
        <ele>1365</ele>
        <time>2021-02-17T07:29:47Z</time>
      </trkpt>
      <trkpt lat="45.28168" lon="6.20121">
        <ele>1365.2</ele>
        <time>2021-02-17T07:29:48Z</time>
      </trkpt>
      <trkpt lat="45.28167" lon="6.2012">
        <ele>1365.3</ele>
        <time>2021-02-17T07:29:49Z</time>
      </trkpt>
      <trkpt lat="45.28167" lon="6.2012">
        <ele>1365.4</ele>
        <time>2021-02-17T07:29:50Z</time>
      </trkpt>
      <trkpt lat="45.28167" lon="6.20119">
        <ele>1365.5</ele>
        <time>2021-02-17T07:29:51Z</time>
      </trkpt>
      <trkpt lat="45.28167" lon="6.20118">
        <ele>1365.5</ele>
        <time>2021-02-17T07:29:52Z</time>
      </trkpt>
      <trkpt lat="45.28167" lon="6.20117">
        <ele>1365.6</ele>
        <time>2021-02-17T07:29:53Z</time>
      </trkpt>
      <trkpt lat="45.28166" lon="6.20116">
        <ele>1365.9</ele>
        <time>2021-02-17T07:29:54Z</time>
      </trkpt>
      <trkpt lat="45.28165" lon="6.20115">
        <ele>1366.1</ele>
        <time>2021-02-17T07:29:55Z</time>
      </trkpt>
      <trkpt lat="45.28164" lon="6.20114">
        <ele>1366.3</ele>
        <time>2021-02-17T07:29:56Z</time>
      </trkpt>
      <trkpt lat="45.28164" lon="6.20113">
        <ele>1366.5</ele>
        <time>2021-02-17T07:29:57Z</time>
      </trkpt>
      <trkpt lat="45.28163" lon="6.20112">
        <ele>1366.6</ele>
        <time>2021-02-17T07:29:58Z</time>
      </trkpt>
      <trkpt lat="45.28163" lon="6.20112">
        <ele>1366.7</ele>
        <time>2021-02-17T07:29:59Z</time>
      </trkpt>
      <trkpt lat="45.28162" lon="6.20111">
        <ele>1366.9</ele>
        <time>2021-02-17T07:30:00Z</time>
      </trkpt>
      <trkpt lat="45.28162" lon="6.2011">
        <ele>1367</ele>
        <time>2021-02-17T07:30:01Z</time>
      </trkpt>
      <trkpt lat="45.28162" lon="6.20109">
        <ele>1367.1</ele>
        <time>2021-02-17T07:30:02Z</time>
      </trkpt>
      <trkpt lat="45.28161" lon="6.20107">
        <ele>1367.4</ele>
        <time>2021-02-17T07:30:03Z</time>
      </trkpt>
      <trkpt lat="45.2816" lon="6.20106">
        <ele>1367.5</ele>
        <time>2021-02-17T07:30:04Z</time>
      </trkpt>
      <trkpt lat="45.2816" lon="6.20105">
        <ele>1367.7</ele>
        <time>2021-02-17T07:30:05Z</time>
      </trkpt>
      <trkpt lat="45.28159" lon="6.20104">
        <ele>1367.8</ele>
        <time>2021-02-17T07:30:06Z</time>
      </trkpt>
      <trkpt lat="45.28159" lon="6.20103">
        <ele>1368</ele>
        <time>2021-02-17T07:30:07Z</time>
      </trkpt>
      <trkpt lat="45.28159" lon="6.20102">
        <ele>1368.1</ele>
        <time>2021-02-17T07:30:08Z</time>
      </trkpt>
      <trkpt lat="45.28158" lon="6.20102">
        <ele>1368.2</ele>
        <time>2021-02-17T07:30:09Z</time>
      </trkpt>
      <trkpt lat="45.28158" lon="6.20101">
        <ele>1368.3</ele>
        <time>2021-02-17T07:30:10Z</time>
      </trkpt>
      <trkpt lat="45.28158" lon="6.201">
        <ele>1368.4</ele>
        <time>2021-02-17T07:30:11Z</time>
      </trkpt>
      <trkpt lat="45.28158" lon="6.20099">
        <ele>1368.5</ele>
        <time>2021-02-17T07:30:12Z</time>
      </trkpt>
      <trkpt lat="45.28158" lon="6.20099">
        <ele>1368.6</ele>
        <time>2021-02-17T07:30:13Z</time>
      </trkpt>
      <trkpt lat="45.28158" lon="6.20098">
        <ele>1368.7</ele>
        <time>2021-02-17T07:30:14Z</time>
      </trkpt>
      <trkpt lat="45.28158" lon="6.20097">
        <ele>1368.8</ele>
        <time>2021-02-17T07:30:15Z</time>
      </trkpt>
      <trkpt lat="45.28157" lon="6.20096">
        <ele>1369</ele>
        <time>2021-02-17T07:30:16Z</time>
      </trkpt>
      <trkpt lat="45.28157" lon="6.20095">
        <ele>1369.1</ele>
        <time>2021-02-17T07:30:17Z</time>
      </trkpt>
      <trkpt lat="45.28157" lon="6.20094">
        <ele>1369.2</ele>
        <time>2021-02-17T07:30:18Z</time>
      </trkpt>
      <trkpt lat="45.28157" lon="6.20093">
        <ele>1369.3</ele>
        <time>2021-02-17T07:30:19Z</time>
      </trkpt>
      <trkpt lat="45.28157" lon="6.20092">
        <ele>1369.5</ele>
        <time>2021-02-17T07:30:20Z</time>
      </trkpt>
      <trkpt lat="45.28156" lon="6.20091">
        <ele>1369.7</ele>
        <time>2021-02-17T07:30:21Z</time>
      </trkpt>
      <trkpt lat="45.28156" lon="6.2009">
        <ele>1369.8</ele>
        <time>2021-02-17T07:30:22Z</time>
      </trkpt>
      <trkpt lat="45.28155" lon="6.20089">
        <ele>1370</ele>
        <time>2021-02-17T07:30:23Z</time>
      </trkpt>
      <trkpt lat="45.28155" lon="6.20088">
        <ele>1370.2</ele>
        <time>2021-02-17T07:30:24Z</time>
      </trkpt>
      <trkpt lat="45.28154" lon="6.20087">
        <ele>1370.3</ele>
        <time>2021-02-17T07:30:25Z</time>
      </trkpt>
      <trkpt lat="45.28154" lon="6.20086">
        <ele>1370.5</ele>
        <time>2021-02-17T07:30:26Z</time>
      </trkpt>
      <trkpt lat="45.28153" lon="6.20085">
        <ele>1370.6</ele>
        <time>2021-02-17T07:30:27Z</time>
      </trkpt>
      <trkpt lat="45.28153" lon="6.20084">
        <ele>1370.8</ele>
        <time>2021-02-17T07:30:28Z</time>
      </trkpt>
      <trkpt lat="45.28152" lon="6.20083">
        <ele>1371</ele>
        <time>2021-02-17T07:30:29Z</time>
      </trkpt>
      <trkpt lat="45.28151" lon="6.20082">
        <ele>1371.2</ele>
        <time>2021-02-17T07:30:30Z</time>
      </trkpt>
      <trkpt lat="45.28151" lon="6.20081">
        <ele>1371.4</ele>
        <time>2021-02-17T07:30:31Z</time>
      </trkpt>
      <trkpt lat="45.28151" lon="6.2008">
        <ele>1371.4</ele>
        <time>2021-02-17T07:30:32Z</time>
      </trkpt>
      <trkpt lat="45.2815" lon="6.2008">
        <ele>1371.5</ele>
        <time>2021-02-17T07:30:33Z</time>
      </trkpt>
      <trkpt lat="45.2815" lon="6.20079">
        <ele>1371.6</ele>
        <time>2021-02-17T07:30:34Z</time>
      </trkpt>
      <trkpt lat="45.2815" lon="6.20078">
        <ele>1371.8</ele>
        <time>2021-02-17T07:30:35Z</time>
      </trkpt>
      <trkpt lat="45.28149" lon="6.20078">
        <ele>1371.9</ele>
        <time>2021-02-17T07:30:36Z</time>
      </trkpt>
      <trkpt lat="45.28148" lon="6.20077">
        <ele>1372.1</ele>
        <time>2021-02-17T07:30:37Z</time>
      </trkpt>
      <trkpt lat="45.28148" lon="6.20076">
        <ele>1372.1</ele>
        <time>2021-02-17T07:30:38Z</time>
      </trkpt>
      <trkpt lat="45.28147" lon="6.20076">
        <ele>1372.3</ele>
        <time>2021-02-17T07:30:39Z</time>
      </trkpt>
      <trkpt lat="45.28147" lon="6.20075">
        <ele>1372.4</ele>
        <time>2021-02-17T07:30:40Z</time>
      </trkpt>
      <trkpt lat="45.28146" lon="6.20075">
        <ele>1372.5</ele>
        <time>2021-02-17T07:30:41Z</time>
      </trkpt>
      <trkpt lat="45.28145" lon="6.20074">
        <ele>1372.7</ele>
        <time>2021-02-17T07:30:42Z</time>
      </trkpt>
      <trkpt lat="45.28145" lon="6.20073">
        <ele>1372.8</ele>
        <time>2021-02-17T07:30:43Z</time>
      </trkpt>
      <trkpt lat="45.28144" lon="6.20072">
        <ele>1373</ele>
        <time>2021-02-17T07:30:44Z</time>
      </trkpt>
      <trkpt lat="45.28144" lon="6.20071">
        <ele>1373.1</ele>
        <time>2021-02-17T07:30:45Z</time>
      </trkpt>
      <trkpt lat="45.28144" lon="6.2007">
        <ele>1373.2</ele>
        <time>2021-02-17T07:30:46Z</time>
      </trkpt>
      <trkpt lat="45.28144" lon="6.20069">
        <ele>1373.3</ele>
        <time>2021-02-17T07:30:47Z</time>
      </trkpt>
      <trkpt lat="45.28143" lon="6.20068">
        <ele>1373.5</ele>
        <time>2021-02-17T07:30:48Z</time>
      </trkpt>
      <trkpt lat="45.28143" lon="6.20068">
        <ele>1373.6</ele>
        <time>2021-02-17T07:30:49Z</time>
      </trkpt>
      <trkpt lat="45.28142" lon="6.20067">
        <ele>1373.7</ele>
        <time>2021-02-17T07:30:50Z</time>
      </trkpt>
      <trkpt lat="45.28142" lon="6.20067">
        <ele>1373.8</ele>
        <time>2021-02-17T07:30:51Z</time>
      </trkpt>
      <trkpt lat="45.28141" lon="6.20066">
        <ele>1373.9</ele>
        <time>2021-02-17T07:30:52Z</time>
      </trkpt>
      <trkpt lat="45.28141" lon="6.20065">
        <ele>1374</ele>
        <time>2021-02-17T07:30:53Z</time>
      </trkpt>
      <trkpt lat="45.28141" lon="6.20065">
        <ele>1374</ele>
        <time>2021-02-17T07:30:54Z</time>
      </trkpt>
      <trkpt lat="45.2814" lon="6.20064">
        <ele>1374.2</ele>
        <time>2021-02-17T07:30:55Z</time>
      </trkpt>
      <trkpt lat="45.2814" lon="6.20064">
        <ele>1374.3</ele>
        <time>2021-02-17T07:30:56Z</time>
      </trkpt>
      <trkpt lat="45.28139" lon="6.20063">
        <ele>1374.4</ele>
        <time>2021-02-17T07:30:57Z</time>
      </trkpt>
      <trkpt lat="45.28139" lon="6.20062">
        <ele>1374.5</ele>
        <time>2021-02-17T07:30:58Z</time>
      </trkpt>
      <trkpt lat="45.28138" lon="6.20061">
        <ele>1374.7</ele>
        <time>2021-02-17T07:30:59Z</time>
      </trkpt>
      <trkpt lat="45.28138" lon="6.2006">
        <ele>1374.8</ele>
        <time>2021-02-17T07:31:00Z</time>
      </trkpt>
      <trkpt lat="45.28137" lon="6.2006">
        <ele>1374.9</ele>
        <time>2021-02-17T07:31:01Z</time>
      </trkpt>
      <trkpt lat="45.28137" lon="6.2006">
        <ele>1375</ele>
        <time>2021-02-17T07:31:02Z</time>
      </trkpt>
      <trkpt lat="45.28136" lon="6.20059">
        <ele>1375.1</ele>
        <time>2021-02-17T07:31:03Z</time>
      </trkpt>
      <trkpt lat="45.28136" lon="6.20059">
        <ele>1375.2</ele>
        <time>2021-02-17T07:31:04Z</time>
      </trkpt>
      <trkpt lat="45.28135" lon="6.20058">
        <ele>1375.4</ele>
        <time>2021-02-17T07:31:05Z</time>
      </trkpt>
      <trkpt lat="45.28135" lon="6.20057">
        <ele>1375.5</ele>
        <time>2021-02-17T07:31:06Z</time>
      </trkpt>
      <trkpt lat="45.28135" lon="6.20056">
        <ele>1375.6</ele>
        <time>2021-02-17T07:31:07Z</time>
      </trkpt>
      <trkpt lat="45.28135" lon="6.20055">
        <ele>1375.7</ele>
        <time>2021-02-17T07:31:08Z</time>
      </trkpt>
      <trkpt lat="45.28134" lon="6.20054">
        <ele>1375.8</ele>
        <time>2021-02-17T07:31:09Z</time>
      </trkpt>
      <trkpt lat="45.28134" lon="6.20053">
        <ele>1376</ele>
        <time>2021-02-17T07:31:10Z</time>
      </trkpt>
      <trkpt lat="45.28134" lon="6.20052">
        <ele>1376.1</ele>
        <time>2021-02-17T07:31:11Z</time>
      </trkpt>
      <trkpt lat="45.28134" lon="6.20051">
        <ele>1376.2</ele>
        <time>2021-02-17T07:31:12Z</time>
      </trkpt>
      <trkpt lat="45.28134" lon="6.2005">
        <ele>1376.3</ele>
        <time>2021-02-17T07:31:13Z</time>
      </trkpt>
      <trkpt lat="45.28134" lon="6.20049">
        <ele>1376.4</ele>
        <time>2021-02-17T07:31:14Z</time>
      </trkpt>
      <trkpt lat="45.28134" lon="6.20048">
        <ele>1376.5</ele>
        <time>2021-02-17T07:31:15Z</time>
      </trkpt>
      <trkpt lat="45.28133" lon="6.20047">
        <ele>1376.6</ele>
        <time>2021-02-17T07:31:16Z</time>
      </trkpt>
      <trkpt lat="45.28133" lon="6.20047">
        <ele>1376.7</ele>
        <time>2021-02-17T07:31:17Z</time>
      </trkpt>
      <trkpt lat="45.28133" lon="6.20046">
        <ele>1377.3</ele>
        <time>2021-02-17T07:31:18Z</time>
      </trkpt>
      <trkpt lat="45.28133" lon="6.20046">
        <ele>1377.4</ele>
        <time>2021-02-17T07:31:19Z</time>
      </trkpt>
      <trkpt lat="45.28133" lon="6.20045">
        <ele>1377.4</ele>
        <time>2021-02-17T07:31:20Z</time>
      </trkpt>
      <trkpt lat="45.28133" lon="6.20045">
        <ele>1377.5</ele>
        <time>2021-02-17T07:31:21Z</time>
      </trkpt>
      <trkpt lat="45.28133" lon="6.20044">
        <ele>1377.7</ele>
        <time>2021-02-17T07:31:22Z</time>
      </trkpt>
      <trkpt lat="45.28132" lon="6.20043">
        <ele>1377.9</ele>
        <time>2021-02-17T07:31:23Z</time>
      </trkpt>
      <trkpt lat="45.28132" lon="6.20041">
        <ele>1378.1</ele>
        <time>2021-02-17T07:31:24Z</time>
      </trkpt>
      <trkpt lat="45.28131" lon="6.2004">
        <ele>1378.3</ele>
        <time>2021-02-17T07:31:25Z</time>
      </trkpt>
      <trkpt lat="45.28131" lon="6.20039">
        <ele>1378.4</ele>
        <time>2021-02-17T07:31:26Z</time>
      </trkpt>
      <trkpt lat="45.28131" lon="6.20038">
        <ele>1378.6</ele>
        <time>2021-02-17T07:31:27Z</time>
      </trkpt>
      <trkpt lat="45.28131" lon="6.20037">
        <ele>1378.8</ele>
        <time>2021-02-17T07:31:28Z</time>
      </trkpt>
      <trkpt lat="45.28131" lon="6.20036">
        <ele>1378.9</ele>
        <time>2021-02-17T07:31:29Z</time>
      </trkpt>
      <trkpt lat="45.28131" lon="6.20035">
        <ele>1379</ele>
        <time>2021-02-17T07:31:30Z</time>
      </trkpt>
      <trkpt lat="45.28131" lon="6.20034">
        <ele>1379.2</ele>
        <time>2021-02-17T07:31:31Z</time>
      </trkpt>
      <trkpt lat="45.28131" lon="6.20033">
        <ele>1379.3</ele>
        <time>2021-02-17T07:31:32Z</time>
      </trkpt>
      <trkpt lat="45.28131" lon="6.20032">
        <ele>1379.5</ele>
        <time>2021-02-17T07:31:33Z</time>
      </trkpt>
      <trkpt lat="45.2813" lon="6.20032">
        <ele>1379.6</ele>
        <time>2021-02-17T07:31:34Z</time>
      </trkpt>
      <trkpt lat="45.2813" lon="6.20031">
        <ele>1379.7</ele>
        <time>2021-02-17T07:31:35Z</time>
      </trkpt>
      <trkpt lat="45.2813" lon="6.20031">
        <ele>1379.7</ele>
        <time>2021-02-17T07:31:36Z</time>
      </trkpt>
      <trkpt lat="45.2813" lon="6.2003">
        <ele>1379.8</ele>
        <time>2021-02-17T07:31:37Z</time>
      </trkpt>
      <trkpt lat="45.2813" lon="6.20029">
        <ele>1380</ele>
        <time>2021-02-17T07:31:38Z</time>
      </trkpt>
      <trkpt lat="45.2813" lon="6.20028">
        <ele>1380.1</ele>
        <time>2021-02-17T07:31:39Z</time>
      </trkpt>
      <trkpt lat="45.2813" lon="6.20027">
        <ele>1380.3</ele>
        <time>2021-02-17T07:31:40Z</time>
      </trkpt>
      <trkpt lat="45.28129" lon="6.20027">
        <ele>1380.4</ele>
        <time>2021-02-17T07:31:41Z</time>
      </trkpt>
      <trkpt lat="45.28129" lon="6.20026">
        <ele>1380.5</ele>
        <time>2021-02-17T07:31:42Z</time>
      </trkpt>
      <trkpt lat="45.28129" lon="6.20025">
        <ele>1380.7</ele>
        <time>2021-02-17T07:31:43Z</time>
      </trkpt>
      <trkpt lat="45.28129" lon="6.20024">
        <ele>1380.8</ele>
        <time>2021-02-17T07:31:44Z</time>
      </trkpt>
      <trkpt lat="45.28129" lon="6.20023">
        <ele>1380.9</ele>
        <time>2021-02-17T07:31:45Z</time>
      </trkpt>
      <trkpt lat="45.28128" lon="6.20022">
        <ele>1381.1</ele>
        <time>2021-02-17T07:31:46Z</time>
      </trkpt>
      <trkpt lat="45.28128" lon="6.20021">
        <ele>1381.2</ele>
        <time>2021-02-17T07:31:47Z</time>
      </trkpt>
      <trkpt lat="45.28128" lon="6.2002">
        <ele>1381.4</ele>
        <time>2021-02-17T07:31:48Z</time>
      </trkpt>
      <trkpt lat="45.28128" lon="6.20019">
        <ele>1381.6</ele>
        <time>2021-02-17T07:31:49Z</time>
      </trkpt>
      <trkpt lat="45.28128" lon="6.20018">
        <ele>1381.7</ele>
        <time>2021-02-17T07:31:50Z</time>
      </trkpt>
      <trkpt lat="45.28128" lon="6.20016">
        <ele>1382</ele>
        <time>2021-02-17T07:31:51Z</time>
      </trkpt>
      <trkpt lat="45.28128" lon="6.20015">
        <ele>1382.1</ele>
        <time>2021-02-17T07:31:52Z</time>
      </trkpt>
      <trkpt lat="45.28128" lon="6.20014">
        <ele>1382.3</ele>
        <time>2021-02-17T07:31:53Z</time>
      </trkpt>
      <trkpt lat="45.28127" lon="6.20013">
        <ele>1382.4</ele>
        <time>2021-02-17T07:31:54Z</time>
      </trkpt>
      <trkpt lat="45.28127" lon="6.20012">
        <ele>1382.6</ele>
        <time>2021-02-17T07:31:55Z</time>
      </trkpt>
      <trkpt lat="45.28127" lon="6.20011">
        <ele>1382.7</ele>
        <time>2021-02-17T07:31:56Z</time>
      </trkpt>
      <trkpt lat="45.28127" lon="6.2001">
        <ele>1382.9</ele>
        <time>2021-02-17T07:31:57Z</time>
      </trkpt>
      <trkpt lat="45.28127" lon="6.20008">
        <ele>1383</ele>
        <time>2021-02-17T07:31:58Z</time>
      </trkpt>
      <trkpt lat="45.28127" lon="6.20007">
        <ele>1383.2</ele>
        <time>2021-02-17T07:31:59Z</time>
      </trkpt>
      <trkpt lat="45.28127" lon="6.20006">
        <ele>1383.3</ele>
        <time>2021-02-17T07:32:00Z</time>
      </trkpt>
      <trkpt lat="45.28126" lon="6.20005">
        <ele>1383.5</ele>
        <time>2021-02-17T07:32:01Z</time>
      </trkpt>
      <trkpt lat="45.28126" lon="6.20004">
        <ele>1383.6</ele>
        <time>2021-02-17T07:32:02Z</time>
      </trkpt>
      <trkpt lat="45.28126" lon="6.20003">
        <ele>1383.7</ele>
        <time>2021-02-17T07:32:03Z</time>
      </trkpt>
      <trkpt lat="45.28125" lon="6.20002">
        <ele>1383.9</ele>
        <time>2021-02-17T07:32:04Z</time>
      </trkpt>
      <trkpt lat="45.28125" lon="6.20001">
        <ele>1384</ele>
        <time>2021-02-17T07:32:05Z</time>
      </trkpt>
      <trkpt lat="45.28124" lon="6.2">
        <ele>1384.2</ele>
        <time>2021-02-17T07:32:06Z</time>
      </trkpt>
      <trkpt lat="45.28124" lon="6.19999">
        <ele>1384.3</ele>
        <time>2021-02-17T07:32:07Z</time>
      </trkpt>
      <trkpt lat="45.28123" lon="6.19998">
        <ele>1384.4</ele>
        <time>2021-02-17T07:32:08Z</time>
      </trkpt>
      <trkpt lat="45.28123" lon="6.19998">
        <ele>1384.5</ele>
        <time>2021-02-17T07:32:09Z</time>
      </trkpt>
      <trkpt lat="45.28122" lon="6.19997">
        <ele>1384.7</ele>
        <time>2021-02-17T07:32:10Z</time>
      </trkpt>
      <trkpt lat="45.28121" lon="6.19996">
        <ele>1384.8</ele>
        <time>2021-02-17T07:32:11Z</time>
      </trkpt>
      <trkpt lat="45.28121" lon="6.19995">
        <ele>1384.9</ele>
        <time>2021-02-17T07:32:12Z</time>
      </trkpt>
      <trkpt lat="45.2812" lon="6.19994">
        <ele>1385</ele>
        <time>2021-02-17T07:32:13Z</time>
      </trkpt>
      <trkpt lat="45.2812" lon="6.19993">
        <ele>1385.1</ele>
        <time>2021-02-17T07:32:14Z</time>
      </trkpt>
      <trkpt lat="45.28119" lon="6.19992">
        <ele>1385.2</ele>
        <time>2021-02-17T07:32:15Z</time>
      </trkpt>
      <trkpt lat="45.28119" lon="6.19992">
        <ele>1385.2</ele>
        <time>2021-02-17T07:32:16Z</time>
      </trkpt>
      <trkpt lat="45.2812" lon="6.19992">
        <ele>1385.2</ele>
        <time>2021-02-17T07:32:17Z</time>
      </trkpt>
      <trkpt lat="45.2812" lon="6.19992">
        <ele>1385.3</ele>
        <time>2021-02-17T07:32:18Z</time>
      </trkpt>
      <trkpt lat="45.28119" lon="6.19991">
        <ele>1385.3</ele>
        <time>2021-02-17T07:32:19Z</time>
      </trkpt>
      <trkpt lat="45.28119" lon="6.1999">
        <ele>1385.4</ele>
        <time>2021-02-17T07:32:20Z</time>
      </trkpt>
      <trkpt lat="45.28119" lon="6.19989">
        <ele>1385.5</ele>
        <time>2021-02-17T07:32:21Z</time>
      </trkpt>
      <trkpt lat="45.28118" lon="6.19988">
        <ele>1385.6</ele>
        <time>2021-02-17T07:32:22Z</time>
      </trkpt>
      <trkpt lat="45.28118" lon="6.19987">
        <ele>1385.7</ele>
        <time>2021-02-17T07:32:23Z</time>
      </trkpt>
      <trkpt lat="45.28117" lon="6.19986">
        <ele>1385.8</ele>
        <time>2021-02-17T07:32:24Z</time>
      </trkpt>
      <trkpt lat="45.28117" lon="6.19985">
        <ele>1385.9</ele>
        <time>2021-02-17T07:32:25Z</time>
      </trkpt>
      <trkpt lat="45.28116" lon="6.19984">
        <ele>1386</ele>
        <time>2021-02-17T07:32:26Z</time>
      </trkpt>
      <trkpt lat="45.28116" lon="6.19983">
        <ele>1386.1</ele>
        <time>2021-02-17T07:32:27Z</time>
      </trkpt>
      <trkpt lat="45.28115" lon="6.19982">
        <ele>1386.2</ele>
        <time>2021-02-17T07:32:28Z</time>
      </trkpt>
      <trkpt lat="45.28115" lon="6.1998">
        <ele>1386.3</ele>
        <time>2021-02-17T07:32:29Z</time>
      </trkpt>
      <trkpt lat="45.28115" lon="6.19979">
        <ele>1386.4</ele>
        <time>2021-02-17T07:32:30Z</time>
      </trkpt>
      <trkpt lat="45.28114" lon="6.19978">
        <ele>1386.5</ele>
        <time>2021-02-17T07:32:31Z</time>
      </trkpt>
      <trkpt lat="45.28114" lon="6.19976">
        <ele>1386.6</ele>
        <time>2021-02-17T07:32:32Z</time>
      </trkpt>
      <trkpt lat="45.28113" lon="6.19975">
        <ele>1386.7</ele>
        <time>2021-02-17T07:32:33Z</time>
      </trkpt>
      <trkpt lat="45.28112" lon="6.19973">
        <ele>1386.8</ele>
        <time>2021-02-17T07:32:34Z</time>
      </trkpt>
      <trkpt lat="45.28112" lon="6.19972">
        <ele>1386.9</ele>
        <time>2021-02-17T07:32:35Z</time>
      </trkpt>
      <trkpt lat="45.28112" lon="6.19971">
        <ele>1387</ele>
        <time>2021-02-17T07:32:36Z</time>
      </trkpt>
      <trkpt lat="45.28111" lon="6.1997">
        <ele>1387.1</ele>
        <time>2021-02-17T07:32:37Z</time>
      </trkpt>
      <trkpt lat="45.28111" lon="6.19969">
        <ele>1387.1</ele>
        <time>2021-02-17T07:32:38Z</time>
      </trkpt>
      <trkpt lat="45.2811" lon="6.19967">
        <ele>1387.2</ele>
        <time>2021-02-17T07:32:39Z</time>
      </trkpt>
      <trkpt lat="45.2811" lon="6.19966">
        <ele>1387.3</ele>
        <time>2021-02-17T07:32:40Z</time>
      </trkpt>
      <trkpt lat="45.28109" lon="6.19965">
        <ele>1387.5</ele>
        <time>2021-02-17T07:32:41Z</time>
      </trkpt>
      <trkpt lat="45.28108" lon="6.19963">
        <ele>1387.6</ele>
        <time>2021-02-17T07:32:42Z</time>
      </trkpt>
      <trkpt lat="45.28108" lon="6.19962">
        <ele>1387.7</ele>
        <time>2021-02-17T07:32:43Z</time>
      </trkpt>
      <trkpt lat="45.28107" lon="6.19961">
        <ele>1387.7</ele>
        <time>2021-02-17T07:32:44Z</time>
      </trkpt>
      <trkpt lat="45.28107" lon="6.19961">
        <ele>1387.8</ele>
        <time>2021-02-17T07:32:45Z</time>
      </trkpt>
      <trkpt lat="45.28106" lon="6.19959">
        <ele>1387.9</ele>
        <time>2021-02-17T07:32:46Z</time>
      </trkpt>
      <trkpt lat="45.28106" lon="6.19958">
        <ele>1388</ele>
        <time>2021-02-17T07:32:47Z</time>
      </trkpt>
      <trkpt lat="45.28105" lon="6.19957">
        <ele>1388.1</ele>
        <time>2021-02-17T07:32:48Z</time>
      </trkpt>
      <trkpt lat="45.28105" lon="6.19955">
        <ele>1388.2</ele>
        <time>2021-02-17T07:32:49Z</time>
      </trkpt>
      <trkpt lat="45.28105" lon="6.19954">
        <ele>1388.3</ele>
        <time>2021-02-17T07:32:50Z</time>
      </trkpt>
      <trkpt lat="45.28104" lon="6.19953">
        <ele>1388.4</ele>
        <time>2021-02-17T07:32:51Z</time>
      </trkpt>
      <trkpt lat="45.28104" lon="6.19952">
        <ele>1388.5</ele>
        <time>2021-02-17T07:32:52Z</time>
      </trkpt>
      <trkpt lat="45.28104" lon="6.19951">
        <ele>1388.6</ele>
        <time>2021-02-17T07:32:53Z</time>
      </trkpt>
      <trkpt lat="45.28104" lon="6.1995">
        <ele>1388.6</ele>
        <time>2021-02-17T07:32:54Z</time>
      </trkpt>
      <trkpt lat="45.28104" lon="6.19949">
        <ele>1388.7</ele>
        <time>2021-02-17T07:32:55Z</time>
      </trkpt>
      <trkpt lat="45.28103" lon="6.19948">
        <ele>1388.8</ele>
        <time>2021-02-17T07:32:56Z</time>
      </trkpt>
      <trkpt lat="45.28103" lon="6.19947">
        <ele>1388.9</ele>
        <time>2021-02-17T07:32:57Z</time>
      </trkpt>
      <trkpt lat="45.28103" lon="6.19946">
        <ele>1389</ele>
        <time>2021-02-17T07:32:58Z</time>
      </trkpt>
      <trkpt lat="45.28102" lon="6.19944">
        <ele>1389.1</ele>
        <time>2021-02-17T07:32:59Z</time>
      </trkpt>
      <trkpt lat="45.28102" lon="6.19944">
        <ele>1389.2</ele>
        <time>2021-02-17T07:33:00Z</time>
      </trkpt>
      <trkpt lat="45.28102" lon="6.19943">
        <ele>1389.3</ele>
        <time>2021-02-17T07:33:01Z</time>
      </trkpt>
      <trkpt lat="45.28102" lon="6.19942">
        <ele>1389.3</ele>
        <time>2021-02-17T07:33:02Z</time>
      </trkpt>
      <trkpt lat="45.28102" lon="6.19941">
        <ele>1389.4</ele>
        <time>2021-02-17T07:33:03Z</time>
      </trkpt>
      <trkpt lat="45.28102" lon="6.1994">
        <ele>1389.5</ele>
        <time>2021-02-17T07:33:04Z</time>
      </trkpt>
      <trkpt lat="45.28102" lon="6.19939">
        <ele>1389.6</ele>
        <time>2021-02-17T07:33:05Z</time>
      </trkpt>
      <trkpt lat="45.28101" lon="6.19937">
        <ele>1389.7</ele>
        <time>2021-02-17T07:33:06Z</time>
      </trkpt>
      <trkpt lat="45.28101" lon="6.19936">
        <ele>1389.8</ele>
        <time>2021-02-17T07:33:07Z</time>
      </trkpt>
      <trkpt lat="45.28101" lon="6.19935">
        <ele>1389.9</ele>
        <time>2021-02-17T07:33:08Z</time>
      </trkpt>
      <trkpt lat="45.28101" lon="6.19934">
        <ele>1390</ele>
        <time>2021-02-17T07:33:09Z</time>
      </trkpt>
      <trkpt lat="45.281" lon="6.19934">
        <ele>1390.1</ele>
        <time>2021-02-17T07:33:10Z</time>
      </trkpt>
      <trkpt lat="45.281" lon="6.19933">
        <ele>1390.2</ele>
        <time>2021-02-17T07:33:11Z</time>
      </trkpt>
      <trkpt lat="45.281" lon="6.19931">
        <ele>1390.3</ele>
        <time>2021-02-17T07:33:12Z</time>
      </trkpt>
      <trkpt lat="45.281" lon="6.1993">
        <ele>1390.5</ele>
        <time>2021-02-17T07:33:13Z</time>
      </trkpt>
      <trkpt lat="45.281" lon="6.19929">
        <ele>1390.6</ele>
        <time>2021-02-17T07:33:14Z</time>
      </trkpt>
      <trkpt lat="45.281" lon="6.19928">
        <ele>1390.7</ele>
        <time>2021-02-17T07:33:15Z</time>
      </trkpt>
      <trkpt lat="45.28099" lon="6.19927">
        <ele>1390.8</ele>
        <time>2021-02-17T07:33:16Z</time>
      </trkpt>
      <trkpt lat="45.28099" lon="6.19926">
        <ele>1390.9</ele>
        <time>2021-02-17T07:33:17Z</time>
      </trkpt>
      <trkpt lat="45.281" lon="6.19925">
        <ele>1391</ele>
        <time>2021-02-17T07:33:18Z</time>
      </trkpt>
      <trkpt lat="45.28099" lon="6.19925">
        <ele>1391.1</ele>
        <time>2021-02-17T07:33:19Z</time>
      </trkpt>
      <trkpt lat="45.28099" lon="6.19924">
        <ele>1391.1</ele>
        <time>2021-02-17T07:33:20Z</time>
      </trkpt>
      <trkpt lat="45.28099" lon="6.19924">
        <ele>1391.2</ele>
        <time>2021-02-17T07:33:21Z</time>
      </trkpt>
      <trkpt lat="45.281" lon="6.19923">
        <ele>1391.3</ele>
        <time>2021-02-17T07:33:22Z</time>
      </trkpt>
      <trkpt lat="45.281" lon="6.19922">
        <ele>1391.3</ele>
        <time>2021-02-17T07:33:23Z</time>
      </trkpt>
      <trkpt lat="45.281" lon="6.19921">
        <ele>1391.4</ele>
        <time>2021-02-17T07:33:24Z</time>
      </trkpt>
      <trkpt lat="45.28099" lon="6.19921">
        <ele>1391.5</ele>
        <time>2021-02-17T07:33:25Z</time>
      </trkpt>
      <trkpt lat="45.28099" lon="6.1992">
        <ele>1391.7</ele>
        <time>2021-02-17T07:33:26Z</time>
      </trkpt>
      <trkpt lat="45.28099" lon="6.19919">
        <ele>1391.8</ele>
        <time>2021-02-17T07:33:27Z</time>
      </trkpt>
      <trkpt lat="45.28099" lon="6.19919">
        <ele>1391.8</ele>
        <time>2021-02-17T07:33:28Z</time>
      </trkpt>
      <trkpt lat="45.28099" lon="6.19919">
        <ele>1391.8</ele>
        <time>2021-02-17T07:33:29Z</time>
      </trkpt>
      <trkpt lat="45.28099" lon="6.19918">
        <ele>1391.9</ele>
        <time>2021-02-17T07:33:30Z</time>
      </trkpt>
      <trkpt lat="45.28099" lon="6.19918">
        <ele>1391.9</ele>
        <time>2021-02-17T07:33:31Z</time>
      </trkpt>
      <trkpt lat="45.28098" lon="6.19918">
        <ele>1391.9</ele>
        <time>2021-02-17T07:33:32Z</time>
      </trkpt>
      <trkpt lat="45.28098" lon="6.19918">
        <ele>1391.9</ele>
        <time>2021-02-17T07:33:33Z</time>
      </trkpt>
      <trkpt lat="45.28099" lon="6.19917">
        <ele>1392</ele>
        <time>2021-02-17T07:33:34Z</time>
      </trkpt>
      <trkpt lat="45.28099" lon="6.19916">
        <ele>1392.2</ele>
        <time>2021-02-17T07:33:35Z</time>
      </trkpt>
      <trkpt lat="45.281" lon="6.19915">
        <ele>1392.3</ele>
        <time>2021-02-17T07:33:36Z</time>
      </trkpt>
      <trkpt lat="45.28101" lon="6.19914">
        <ele>1392.5</ele>
        <time>2021-02-17T07:33:37Z</time>
      </trkpt>
      <trkpt lat="45.28102" lon="6.19912">
        <ele>1392.8</ele>
        <time>2021-02-17T07:33:39Z</time>
      </trkpt>
      <trkpt lat="45.28102" lon="6.19912">
        <ele>1393</ele>
        <time>2021-02-17T07:33:40Z</time>
      </trkpt>
      <trkpt lat="45.28103" lon="6.19911">
        <ele>1393</ele>
        <time>2021-02-17T07:33:41Z</time>
      </trkpt>
      <trkpt lat="45.28103" lon="6.19911">
        <ele>1393.2</ele>
        <time>2021-02-17T07:33:42Z</time>
      </trkpt>
      <trkpt lat="45.28103" lon="6.19911">
        <ele>1393.2</ele>
        <time>2021-02-17T07:33:43Z</time>
      </trkpt>
      <trkpt lat="45.28104" lon="6.1991">
        <ele>1393.3</ele>
        <time>2021-02-17T07:33:44Z</time>
      </trkpt>
      <trkpt lat="45.28104" lon="6.19909">
        <ele>1393.4</ele>
        <time>2021-02-17T07:33:45Z</time>
      </trkpt>
      <trkpt lat="45.28104" lon="6.19908">
        <ele>1393.5</ele>
        <time>2021-02-17T07:33:46Z</time>
      </trkpt>
      <trkpt lat="45.28105" lon="6.19907">
        <ele>1393.7</ele>
        <time>2021-02-17T07:33:47Z</time>
      </trkpt>
      <trkpt lat="45.28105" lon="6.19907">
        <ele>1393.8</ele>
        <time>2021-02-17T07:33:48Z</time>
      </trkpt>
      <trkpt lat="45.28106" lon="6.19906">
        <ele>1394</ele>
        <time>2021-02-17T07:33:49Z</time>
      </trkpt>
      <trkpt lat="45.28107" lon="6.19905">
        <ele>1394.2</ele>
        <time>2021-02-17T07:33:50Z</time>
      </trkpt>
      <trkpt lat="45.28108" lon="6.19904">
        <ele>1394.3</ele>
        <time>2021-02-17T07:33:51Z</time>
      </trkpt>
      <trkpt lat="45.28108" lon="6.19904">
        <ele>1394.4</ele>
        <time>2021-02-17T07:33:52Z</time>
      </trkpt>
      <trkpt lat="45.28108" lon="6.19903">
        <ele>1394.5</ele>
        <time>2021-02-17T07:33:53Z</time>
      </trkpt>
      <trkpt lat="45.28108" lon="6.19903">
        <ele>1394.6</ele>
        <time>2021-02-17T07:33:54Z</time>
      </trkpt>
      <trkpt lat="45.28108" lon="6.19902">
        <ele>1394.7</ele>
        <time>2021-02-17T07:33:55Z</time>
      </trkpt>
      <trkpt lat="45.28109" lon="6.19901">
        <ele>1394.9</ele>
        <time>2021-02-17T07:33:56Z</time>
      </trkpt>
      <trkpt lat="45.28109" lon="6.199">
        <ele>1395</ele>
        <time>2021-02-17T07:33:57Z</time>
      </trkpt>
      <trkpt lat="45.28109" lon="6.199">
        <ele>1395</ele>
        <time>2021-02-17T07:33:58Z</time>
      </trkpt>
      <trkpt lat="45.28109" lon="6.199">
        <ele>1395</ele>
        <time>2021-02-17T07:33:59Z</time>
      </trkpt>
      <trkpt lat="45.28109" lon="6.199">
        <ele>1395</ele>
        <time>2021-02-17T07:34:00Z</time>
      </trkpt>
      <trkpt lat="45.2811" lon="6.199">
        <ele>1395.2</ele>
        <time>2021-02-17T07:34:01Z</time>
      </trkpt>
      <trkpt lat="45.2811" lon="6.199">
        <ele>1395.3</ele>
        <time>2021-02-17T07:34:02Z</time>
      </trkpt>
      <trkpt lat="45.28111" lon="6.199">
        <ele>1395.3</ele>
        <time>2021-02-17T07:34:03Z</time>
      </trkpt>
      <trkpt lat="45.28111" lon="6.19899">
        <ele>1395.4</ele>
        <time>2021-02-17T07:34:04Z</time>
      </trkpt>
      <trkpt lat="45.28111" lon="6.19899">
        <ele>1395.4</ele>
        <time>2021-02-17T07:34:05Z</time>
      </trkpt>
      <trkpt lat="45.28112" lon="6.19899">
        <ele>1395.6</ele>
        <time>2021-02-17T07:34:06Z</time>
      </trkpt>
      <trkpt lat="45.28116" lon="6.19877">
        <ele>1398.7</ele>
        <time>2021-02-17T07:34:59Z</time>
      </trkpt>
      <trkpt lat="45.28116" lon="6.19876">
        <ele>1398.9</ele>
        <time>2021-02-17T07:35:00Z</time>
      </trkpt>
      <trkpt lat="45.28116" lon="6.19875">
        <ele>1399</ele>
        <time>2021-02-17T07:35:01Z</time>
      </trkpt>
      <trkpt lat="45.28116" lon="6.19874">
        <ele>1399.1</ele>
        <time>2021-02-17T07:35:02Z</time>
      </trkpt>
      <trkpt lat="45.28116" lon="6.19873">
        <ele>1399.3</ele>
        <time>2021-02-17T07:35:03Z</time>
      </trkpt>
      <trkpt lat="45.28116" lon="6.19872">
        <ele>1399.4</ele>
        <time>2021-02-17T07:35:04Z</time>
      </trkpt>
      <trkpt lat="45.28117" lon="6.19871">
        <ele>1399.6</ele>
        <time>2021-02-17T07:35:05Z</time>
      </trkpt>
      <trkpt lat="45.28117" lon="6.1987">
        <ele>1399.7</ele>
        <time>2021-02-17T07:35:06Z</time>
      </trkpt>
      <trkpt lat="45.28116" lon="6.1987">
        <ele>1399.8</ele>
        <time>2021-02-17T07:35:07Z</time>
      </trkpt>
      <trkpt lat="45.28116" lon="6.19869">
        <ele>1399.9</ele>
        <time>2021-02-17T07:35:08Z</time>
      </trkpt>
      <trkpt lat="45.28116" lon="6.19868">
        <ele>1400</ele>
        <time>2021-02-17T07:35:09Z</time>
      </trkpt>
      <trkpt lat="45.28116" lon="6.19868">
        <ele>1400</ele>
        <time>2021-02-17T07:35:10Z</time>
      </trkpt>
      <trkpt lat="45.28116" lon="6.19868">
        <ele>1400</ele>
        <time>2021-02-17T07:35:11Z</time>
      </trkpt>
      <trkpt lat="45.28117" lon="6.19867">
        <ele>1400.1</ele>
        <time>2021-02-17T07:35:12Z</time>
      </trkpt>
      <trkpt lat="45.28117" lon="6.19867">
        <ele>1400.1</ele>
        <time>2021-02-17T07:35:13Z</time>
      </trkpt>
      <trkpt lat="45.28117" lon="6.19866">
        <ele>1400.2</ele>
        <time>2021-02-17T07:35:14Z</time>
      </trkpt>
      <trkpt lat="45.28117" lon="6.19866">
        <ele>1400.3</ele>
        <time>2021-02-17T07:35:15Z</time>
      </trkpt>
      <trkpt lat="45.28117" lon="6.19865">
        <ele>1400.4</ele>
        <time>2021-02-17T07:35:16Z</time>
      </trkpt>
      <trkpt lat="45.28117" lon="6.19865">
        <ele>1400.4</ele>
        <time>2021-02-17T07:35:17Z</time>
      </trkpt>
      <trkpt lat="45.28117" lon="6.19864">
        <ele>1400.5</ele>
        <time>2021-02-17T07:35:18Z</time>
      </trkpt>
      <trkpt lat="45.28107" lon="6.19861">
        <ele>1401.8</ele>
        <time>2021-02-17T07:35:59Z</time>
      </trkpt>
      <trkpt lat="45.28106" lon="6.19862">
        <ele>1401.9</ele>
        <time>2021-02-17T07:36:00Z</time>
      </trkpt>
      <trkpt lat="45.28105" lon="6.19863">
        <ele>1402</ele>
        <time>2021-02-17T07:36:01Z</time>
      </trkpt>
      <trkpt lat="45.28104" lon="6.19863">
        <ele>1402.1</ele>
        <time>2021-02-17T07:36:02Z</time>
      </trkpt>
      <trkpt lat="45.28104" lon="6.19863">
        <ele>1402.1</ele>
        <time>2021-02-17T07:36:03Z</time>
      </trkpt>
      <trkpt lat="45.28103" lon="6.19862">
        <ele>1402.2</ele>
        <time>2021-02-17T07:36:04Z</time>
      </trkpt>
      <trkpt lat="45.28102" lon="6.19862">
        <ele>1402.2</ele>
        <time>2021-02-17T07:36:05Z</time>
      </trkpt>
      <trkpt lat="45.28101" lon="6.1986">
        <ele>1402.3</ele>
        <time>2021-02-17T07:36:06Z</time>
      </trkpt>
      <trkpt lat="45.28101" lon="6.19859">
        <ele>1402.3</ele>
        <time>2021-02-17T07:36:07Z</time>
      </trkpt>
      <trkpt lat="45.281" lon="6.19858">
        <ele>1402.4</ele>
        <time>2021-02-17T07:36:08Z</time>
      </trkpt>
      <trkpt lat="45.281" lon="6.19858">
        <ele>1402.4</ele>
        <time>2021-02-17T07:36:09Z</time>
      </trkpt>
      <trkpt lat="45.281" lon="6.19858">
        <ele>1402.4</ele>
        <time>2021-02-17T07:36:10Z</time>
      </trkpt>
      <trkpt lat="45.281" lon="6.19858">
        <ele>1402.4</ele>
        <time>2021-02-17T07:36:11Z</time>
      </trkpt>
      <trkpt lat="45.281" lon="6.19858">
        <ele>1402.4</ele>
        <time>2021-02-17T07:36:12Z</time>
      </trkpt>
      <trkpt lat="45.28101" lon="6.19858">
        <ele>1402.4</ele>
        <time>2021-02-17T07:36:13Z</time>
      </trkpt>
      <trkpt lat="45.28101" lon="6.19857">
        <ele>1402.4</ele>
        <time>2021-02-17T07:36:14Z</time>
      </trkpt>
      <trkpt lat="45.28101" lon="6.19857">
        <ele>1402.5</ele>
        <time>2021-02-17T07:36:15Z</time>
      </trkpt>
      <trkpt lat="45.281" lon="6.19856">
        <ele>1402.5</ele>
        <time>2021-02-17T07:36:16Z</time>
      </trkpt>
      <trkpt lat="45.281" lon="6.19855">
        <ele>1402.5</ele>
        <time>2021-02-17T07:36:17Z</time>
      </trkpt>
      <trkpt lat="45.281" lon="6.19854">
        <ele>1402.5</ele>
        <time>2021-02-17T07:36:18Z</time>
      </trkpt>
      <trkpt lat="45.28099" lon="6.19852">
        <ele>1402.6</ele>
        <time>2021-02-17T07:36:19Z</time>
      </trkpt>
      <trkpt lat="45.28099" lon="6.19851">
        <ele>1402.6</ele>
        <time>2021-02-17T07:36:20Z</time>
      </trkpt>
      <trkpt lat="45.28099" lon="6.1985">
        <ele>1402.7</ele>
        <time>2021-02-17T07:36:21Z</time>
      </trkpt>
      <trkpt lat="45.28098" lon="6.19849">
        <ele>1402.7</ele>
        <time>2021-02-17T07:36:22Z</time>
      </trkpt>
      <trkpt lat="45.28098" lon="6.19847">
        <ele>1402.8</ele>
        <time>2021-02-17T07:36:23Z</time>
      </trkpt>
      <trkpt lat="45.28097" lon="6.19846">
        <ele>1402.8</ele>
        <time>2021-02-17T07:36:24Z</time>
      </trkpt>
      <trkpt lat="45.28097" lon="6.19845">
        <ele>1402.9</ele>
        <time>2021-02-17T07:36:25Z</time>
      </trkpt>
      <trkpt lat="45.28096" lon="6.19843">
        <ele>1402.9</ele>
        <time>2021-02-17T07:36:26Z</time>
      </trkpt>
      <trkpt lat="45.28096" lon="6.19842">
        <ele>1403</ele>
        <time>2021-02-17T07:36:27Z</time>
      </trkpt>
      <trkpt lat="45.28095" lon="6.1984">
        <ele>1403</ele>
        <time>2021-02-17T07:36:28Z</time>
      </trkpt>
      <trkpt lat="45.28095" lon="6.19839">
        <ele>1403.1</ele>
        <time>2021-02-17T07:36:29Z</time>
      </trkpt>
      <trkpt lat="45.28094" lon="6.19838">
        <ele>1403.2</ele>
        <time>2021-02-17T07:36:30Z</time>
      </trkpt>
      <trkpt lat="45.28094" lon="6.19837">
        <ele>1403.2</ele>
        <time>2021-02-17T07:36:31Z</time>
      </trkpt>
      <trkpt lat="45.28094" lon="6.19836">
        <ele>1403.2</ele>
        <time>2021-02-17T07:36:32Z</time>
      </trkpt>
      <trkpt lat="45.28093" lon="6.19835">
        <ele>1403.3</ele>
        <time>2021-02-17T07:36:33Z</time>
      </trkpt>
      <trkpt lat="45.28093" lon="6.19835">
        <ele>1403.3</ele>
        <time>2021-02-17T07:36:34Z</time>
      </trkpt>
      <trkpt lat="45.28093" lon="6.19834">
        <ele>1403.4</ele>
        <time>2021-02-17T07:36:35Z</time>
      </trkpt>
      <trkpt lat="45.28093" lon="6.19833">
        <ele>1403.4</ele>
        <time>2021-02-17T07:36:36Z</time>
      </trkpt>
      <trkpt lat="45.28092" lon="6.19831">
        <ele>1403.5</ele>
        <time>2021-02-17T07:36:37Z</time>
      </trkpt>
      <trkpt lat="45.28092" lon="6.1983">
        <ele>1403.6</ele>
        <time>2021-02-17T07:36:38Z</time>
      </trkpt>
      <trkpt lat="45.28091" lon="6.19829">
        <ele>1403.6</ele>
        <time>2021-02-17T07:36:39Z</time>
      </trkpt>
      <trkpt lat="45.28091" lon="6.19827">
        <ele>1403.7</ele>
        <time>2021-02-17T07:36:40Z</time>
      </trkpt>
      <trkpt lat="45.2809" lon="6.19826">
        <ele>1403.8</ele>
        <time>2021-02-17T07:36:41Z</time>
      </trkpt>
      <trkpt lat="45.2809" lon="6.19825">
        <ele>1403.9</ele>
        <time>2021-02-17T07:36:42Z</time>
      </trkpt>
      <trkpt lat="45.28089" lon="6.19824">
        <ele>1403.9</ele>
        <time>2021-02-17T07:36:43Z</time>
      </trkpt>
      <trkpt lat="45.28089" lon="6.19823">
        <ele>1404</ele>
        <time>2021-02-17T07:36:44Z</time>
      </trkpt>
      <trkpt lat="45.28089" lon="6.19821">
        <ele>1404</ele>
        <time>2021-02-17T07:36:45Z</time>
      </trkpt>
      <trkpt lat="45.28089" lon="6.1982">
        <ele>1404.1</ele>
        <time>2021-02-17T07:36:46Z</time>
      </trkpt>
      <trkpt lat="45.28089" lon="6.19819">
        <ele>1404.2</ele>
        <time>2021-02-17T07:36:47Z</time>
      </trkpt>
      <trkpt lat="45.28089" lon="6.19818">
        <ele>1404.2</ele>
        <time>2021-02-17T07:36:48Z</time>
      </trkpt>
      <trkpt lat="45.28089" lon="6.19817">
        <ele>1404.2</ele>
        <time>2021-02-17T07:36:49Z</time>
      </trkpt>
      <trkpt lat="45.28089" lon="6.19816">
        <ele>1404.3</ele>
        <time>2021-02-17T07:36:50Z</time>
      </trkpt>
      <trkpt lat="45.28089" lon="6.19815">
        <ele>1404.4</ele>
        <time>2021-02-17T07:36:51Z</time>
      </trkpt>
      <trkpt lat="45.28088" lon="6.19813">
        <ele>1404.4</ele>
        <time>2021-02-17T07:36:52Z</time>
      </trkpt>
      <trkpt lat="45.28088" lon="6.19812">
        <ele>1404.5</ele>
        <time>2021-02-17T07:36:53Z</time>
      </trkpt>
      <trkpt lat="45.28088" lon="6.1981">
        <ele>1404.6</ele>
        <time>2021-02-17T07:36:54Z</time>
      </trkpt>
      <trkpt lat="45.28087" lon="6.19809">
        <ele>1404.6</ele>
        <time>2021-02-17T07:36:55Z</time>
      </trkpt>
      <trkpt lat="45.28087" lon="6.19808">
        <ele>1404.7</ele>
        <time>2021-02-17T07:36:56Z</time>
      </trkpt>
      <trkpt lat="45.28087" lon="6.19807">
        <ele>1404.7</ele>
        <time>2021-02-17T07:36:57Z</time>
      </trkpt>
      <trkpt lat="45.28086" lon="6.19806">
        <ele>1404.8</ele>
        <time>2021-02-17T07:36:58Z</time>
      </trkpt>
      <trkpt lat="45.28086" lon="6.19804">
        <ele>1404.8</ele>
        <time>2021-02-17T07:36:59Z</time>
      </trkpt>
      <trkpt lat="45.28086" lon="6.19803">
        <ele>1404.9</ele>
        <time>2021-02-17T07:37:00Z</time>
      </trkpt>
      <trkpt lat="45.28086" lon="6.19802">
        <ele>1404.9</ele>
        <time>2021-02-17T07:37:01Z</time>
      </trkpt>
      <trkpt lat="45.28086" lon="6.19801">
        <ele>1405</ele>
        <time>2021-02-17T07:37:02Z</time>
      </trkpt>
      <trkpt lat="45.28086" lon="6.19799">
        <ele>1405.1</ele>
        <time>2021-02-17T07:37:03Z</time>
      </trkpt>
      <trkpt lat="45.28086" lon="6.19798">
        <ele>1405.1</ele>
        <time>2021-02-17T07:37:04Z</time>
      </trkpt>
      <trkpt lat="45.28086" lon="6.19797">
        <ele>1405.2</ele>
        <time>2021-02-17T07:37:05Z</time>
      </trkpt>
      <trkpt lat="45.28086" lon="6.19796">
        <ele>1405.2</ele>
        <time>2021-02-17T07:37:06Z</time>
      </trkpt>
      <trkpt lat="45.28086" lon="6.19794">
        <ele>1405.2</ele>
        <time>2021-02-17T07:37:07Z</time>
      </trkpt>
      <trkpt lat="45.28086" lon="6.19793">
        <ele>1405.3</ele>
        <time>2021-02-17T07:37:08Z</time>
      </trkpt>
      <trkpt lat="45.28086" lon="6.19792">
        <ele>1405.4</ele>
        <time>2021-02-17T07:37:09Z</time>
      </trkpt>
      <trkpt lat="45.28086" lon="6.19791">
        <ele>1405.4</ele>
        <time>2021-02-17T07:37:10Z</time>
      </trkpt>
      <trkpt lat="45.28086" lon="6.1979">
        <ele>1405.4</ele>
        <time>2021-02-17T07:37:11Z</time>
      </trkpt>
      <trkpt lat="45.28087" lon="6.19789">
        <ele>1405.5</ele>
        <time>2021-02-17T07:37:12Z</time>
      </trkpt>
      <trkpt lat="45.28087" lon="6.19788">
        <ele>1405.5</ele>
        <time>2021-02-17T07:37:13Z</time>
      </trkpt>
      <trkpt lat="45.28087" lon="6.19787">
        <ele>1405.5</ele>
        <time>2021-02-17T07:37:14Z</time>
      </trkpt>
      <trkpt lat="45.28087" lon="6.19786">
        <ele>1405.6</ele>
        <time>2021-02-17T07:37:15Z</time>
      </trkpt>
      <trkpt lat="45.28087" lon="6.19784">
        <ele>1405.6</ele>
        <time>2021-02-17T07:37:16Z</time>
      </trkpt>
      <trkpt lat="45.28087" lon="6.19783">
        <ele>1405.7</ele>
        <time>2021-02-17T07:37:17Z</time>
      </trkpt>
      <trkpt lat="45.28087" lon="6.19781">
        <ele>1405.7</ele>
        <time>2021-02-17T07:37:18Z</time>
      </trkpt>
      <trkpt lat="45.28087" lon="6.1978">
        <ele>1405.8</ele>
        <time>2021-02-17T07:37:19Z</time>
      </trkpt>
      <trkpt lat="45.28087" lon="6.19778">
        <ele>1405.8</ele>
        <time>2021-02-17T07:37:20Z</time>
      </trkpt>
      <trkpt lat="45.28087" lon="6.19777">
        <ele>1405.9</ele>
        <time>2021-02-17T07:37:21Z</time>
      </trkpt>
      <trkpt lat="45.28087" lon="6.19776">
        <ele>1405.9</ele>
        <time>2021-02-17T07:37:22Z</time>
      </trkpt>
      <trkpt lat="45.28087" lon="6.19775">
        <ele>1406</ele>
        <time>2021-02-17T07:37:23Z</time>
      </trkpt>
      <trkpt lat="45.28088" lon="6.19773">
        <ele>1406</ele>
        <time>2021-02-17T07:37:24Z</time>
      </trkpt>
      <trkpt lat="45.28088" lon="6.19772">
        <ele>1406</ele>
        <time>2021-02-17T07:37:25Z</time>
      </trkpt>
      <trkpt lat="45.28088" lon="6.19771">
        <ele>1406.1</ele>
        <time>2021-02-17T07:37:26Z</time>
      </trkpt>
      <trkpt lat="45.28088" lon="6.19771">
        <ele>1406.1</ele>
        <time>2021-02-17T07:37:27Z</time>
      </trkpt>
      <trkpt lat="45.28088" lon="6.1977">
        <ele>1406.1</ele>
        <time>2021-02-17T07:37:28Z</time>
      </trkpt>
      <trkpt lat="45.28088" lon="6.1977">
        <ele>1406.1</ele>
        <time>2021-02-17T07:37:29Z</time>
      </trkpt>
      <trkpt lat="45.28088" lon="6.1977">
        <ele>1406.1</ele>
        <time>2021-02-17T07:37:30Z</time>
      </trkpt>
      <trkpt lat="45.28088" lon="6.1977">
        <ele>1406.1</ele>
        <time>2021-02-17T07:37:31Z</time>
      </trkpt>
      <trkpt lat="45.28088" lon="6.1977">
        <ele>1406.1</ele>
        <time>2021-02-17T07:37:32Z</time>
      </trkpt>
      <trkpt lat="45.28089" lon="6.1977">
        <ele>1406.1</ele>
        <time>2021-02-17T07:37:33Z</time>
      </trkpt>
      <trkpt lat="45.28089" lon="6.19769">
        <ele>1406.2</ele>
        <time>2021-02-17T07:37:34Z</time>
      </trkpt>
      <trkpt lat="45.28089" lon="6.19769">
        <ele>1406.2</ele>
        <time>2021-02-17T07:37:35Z</time>
      </trkpt>
      <trkpt lat="45.28089" lon="6.19769">
        <ele>1406.2</ele>
        <time>2021-02-17T07:37:36Z</time>
      </trkpt>
      <trkpt lat="45.28089" lon="6.19763">
        <ele>1406.4</ele>
        <time>2021-02-17T07:37:40Z</time>
      </trkpt>
      <trkpt lat="45.28088" lon="6.19762">
        <ele>1406.4</ele>
        <time>2021-02-17T07:37:41Z</time>
      </trkpt>
      <trkpt lat="45.28088" lon="6.1976">
        <ele>1406.4</ele>
        <time>2021-02-17T07:37:42Z</time>
      </trkpt>
      <trkpt lat="45.28088" lon="6.19759">
        <ele>1406.5</ele>
        <time>2021-02-17T07:37:43Z</time>
      </trkpt>
      <trkpt lat="45.28087" lon="6.19757">
        <ele>1406.5</ele>
        <time>2021-02-17T07:37:44Z</time>
      </trkpt>
      <trkpt lat="45.28087" lon="6.19756">
        <ele>1406.5</ele>
        <time>2021-02-17T07:37:45Z</time>
      </trkpt>
      <trkpt lat="45.28087" lon="6.19754">
        <ele>1406.6</ele>
        <time>2021-02-17T07:37:46Z</time>
      </trkpt>
      <trkpt lat="45.28087" lon="6.19753">
        <ele>1406.6</ele>
        <time>2021-02-17T07:37:47Z</time>
      </trkpt>
      <trkpt lat="45.28087" lon="6.19751">
        <ele>1406.7</ele>
        <time>2021-02-17T07:37:48Z</time>
      </trkpt>
      <trkpt lat="45.28087" lon="6.1975">
        <ele>1406.7</ele>
        <time>2021-02-17T07:37:49Z</time>
      </trkpt>
      <trkpt lat="45.28087" lon="6.19749">
        <ele>1406.7</ele>
        <time>2021-02-17T07:37:50Z</time>
      </trkpt>
      <trkpt lat="45.28087" lon="6.19748">
        <ele>1406.7</ele>
        <time>2021-02-17T07:37:51Z</time>
      </trkpt>
      <trkpt lat="45.28087" lon="6.19747">
        <ele>1406.8</ele>
        <time>2021-02-17T07:37:52Z</time>
      </trkpt>
      <trkpt lat="45.28087" lon="6.19745">
        <ele>1406.8</ele>
        <time>2021-02-17T07:37:53Z</time>
      </trkpt>
      <trkpt lat="45.28087" lon="6.19744">
        <ele>1406.8</ele>
        <time>2021-02-17T07:37:54Z</time>
      </trkpt>
      <trkpt lat="45.28086" lon="6.19743">
        <ele>1406.9</ele>
        <time>2021-02-17T07:37:55Z</time>
      </trkpt>
      <trkpt lat="45.28086" lon="6.19742">
        <ele>1406.9</ele>
        <time>2021-02-17T07:37:56Z</time>
      </trkpt>
      <trkpt lat="45.28086" lon="6.19741">
        <ele>1406.9</ele>
        <time>2021-02-17T07:37:57Z</time>
      </trkpt>
      <trkpt lat="45.28085" lon="6.19739">
        <ele>1406.9</ele>
        <time>2021-02-17T07:37:58Z</time>
      </trkpt>
      <trkpt lat="45.28085" lon="6.19738">
        <ele>1407</ele>
        <time>2021-02-17T07:37:59Z</time>
      </trkpt>
      <trkpt lat="45.28084" lon="6.19738">
        <ele>1407</ele>
        <time>2021-02-17T07:38:00Z</time>
      </trkpt>
      <trkpt lat="45.28084" lon="6.19737">
        <ele>1407</ele>
        <time>2021-02-17T07:38:01Z</time>
      </trkpt>
      <trkpt lat="45.28084" lon="6.19736">
        <ele>1407.1</ele>
        <time>2021-02-17T07:38:02Z</time>
      </trkpt>
      <trkpt lat="45.28083" lon="6.19736">
        <ele>1407.1</ele>
        <time>2021-02-17T07:38:03Z</time>
      </trkpt>
      <trkpt lat="45.28083" lon="6.19735">
        <ele>1407.1</ele>
        <time>2021-02-17T07:38:04Z</time>
      </trkpt>
      <trkpt lat="45.28083" lon="6.19734">
        <ele>1407.2</ele>
        <time>2021-02-17T07:38:05Z</time>
      </trkpt>
      <trkpt lat="45.28082" lon="6.19733">
        <ele>1407.2</ele>
        <time>2021-02-17T07:38:06Z</time>
      </trkpt>
      <trkpt lat="45.28082" lon="6.19732">
        <ele>1407.2</ele>
        <time>2021-02-17T07:38:07Z</time>
      </trkpt>
      <trkpt lat="45.28081" lon="6.19731">
        <ele>1407.3</ele>
        <time>2021-02-17T07:38:08Z</time>
      </trkpt>
      <trkpt lat="45.28081" lon="6.1973">
        <ele>1407.3</ele>
        <time>2021-02-17T07:38:09Z</time>
      </trkpt>
      <trkpt lat="45.28081" lon="6.19729">
        <ele>1407.4</ele>
        <time>2021-02-17T07:38:10Z</time>
      </trkpt>
      <trkpt lat="45.2808" lon="6.19728">
        <ele>1407.4</ele>
        <time>2021-02-17T07:38:11Z</time>
      </trkpt>
      <trkpt lat="45.2808" lon="6.19727">
        <ele>1407.5</ele>
        <time>2021-02-17T07:38:12Z</time>
      </trkpt>
      <trkpt lat="45.28079" lon="6.19725">
        <ele>1407.6</ele>
        <time>2021-02-17T07:38:13Z</time>
      </trkpt>
      <trkpt lat="45.28078" lon="6.19724">
        <ele>1407.7</ele>
        <time>2021-02-17T07:38:14Z</time>
      </trkpt>
      <trkpt lat="45.28078" lon="6.19723">
        <ele>1407.7</ele>
        <time>2021-02-17T07:38:15Z</time>
      </trkpt>
      <trkpt lat="45.28077" lon="6.19722">
        <ele>1407.8</ele>
        <time>2021-02-17T07:38:16Z</time>
      </trkpt>
      <trkpt lat="45.28077" lon="6.1972">
        <ele>1407.9</ele>
        <time>2021-02-17T07:38:17Z</time>
      </trkpt>
      <trkpt lat="45.28076" lon="6.19719">
        <ele>1408</ele>
        <time>2021-02-17T07:38:18Z</time>
      </trkpt>
      <trkpt lat="45.28076" lon="6.19719">
        <ele>1408.1</ele>
        <time>2021-02-17T07:38:19Z</time>
      </trkpt>
      <trkpt lat="45.28076" lon="6.19718">
        <ele>1408.1</ele>
        <time>2021-02-17T07:38:20Z</time>
      </trkpt>
      <trkpt lat="45.28075" lon="6.19717">
        <ele>1408.2</ele>
        <time>2021-02-17T07:38:21Z</time>
      </trkpt>
      <trkpt lat="45.28075" lon="6.19716">
        <ele>1408.3</ele>
        <time>2021-02-17T07:38:22Z</time>
      </trkpt>
      <trkpt lat="45.28074" lon="6.19715">
        <ele>1408.4</ele>
        <time>2021-02-17T07:38:23Z</time>
      </trkpt>
      <trkpt lat="45.28074" lon="6.19715">
        <ele>1408.4</ele>
        <time>2021-02-17T07:38:24Z</time>
      </trkpt>
      <trkpt lat="45.28073" lon="6.19714">
        <ele>1408.5</ele>
        <time>2021-02-17T07:38:25Z</time>
      </trkpt>
      <trkpt lat="45.28073" lon="6.19713">
        <ele>1408.6</ele>
        <time>2021-02-17T07:38:26Z</time>
      </trkpt>
      <trkpt lat="45.28072" lon="6.19712">
        <ele>1408.7</ele>
        <time>2021-02-17T07:38:27Z</time>
      </trkpt>
      <trkpt lat="45.28072" lon="6.19711">
        <ele>1408.8</ele>
        <time>2021-02-17T07:38:28Z</time>
      </trkpt>
      <trkpt lat="45.28072" lon="6.1971">
        <ele>1408.8</ele>
        <time>2021-02-17T07:38:29Z</time>
      </trkpt>
      <trkpt lat="45.28071" lon="6.1971">
        <ele>1408.9</ele>
        <time>2021-02-17T07:38:30Z</time>
      </trkpt>
      <trkpt lat="45.28071" lon="6.19709">
        <ele>1409</ele>
        <time>2021-02-17T07:38:31Z</time>
      </trkpt>
      <trkpt lat="45.2807" lon="6.19708">
        <ele>1409.1</ele>
        <time>2021-02-17T07:38:32Z</time>
      </trkpt>
      <trkpt lat="45.2807" lon="6.19707">
        <ele>1409.2</ele>
        <time>2021-02-17T07:38:33Z</time>
      </trkpt>
      <trkpt lat="45.2807" lon="6.19707">
        <ele>1409.2</ele>
        <time>2021-02-17T07:38:34Z</time>
      </trkpt>
      <trkpt lat="45.2807" lon="6.19706">
        <ele>1409.3</ele>
        <time>2021-02-17T07:38:35Z</time>
      </trkpt>
      <trkpt lat="45.2807" lon="6.19705">
        <ele>1409.4</ele>
        <time>2021-02-17T07:38:36Z</time>
      </trkpt>
      <trkpt lat="45.2807" lon="6.19704">
        <ele>1409.4</ele>
        <time>2021-02-17T07:38:37Z</time>
      </trkpt>
      <trkpt lat="45.2807" lon="6.19703">
        <ele>1409.5</ele>
        <time>2021-02-17T07:38:38Z</time>
      </trkpt>
      <trkpt lat="45.2807" lon="6.19703">
        <ele>1409.6</ele>
        <time>2021-02-17T07:38:39Z</time>
      </trkpt>
      <trkpt lat="45.2807" lon="6.19702">
        <ele>1409.6</ele>
        <time>2021-02-17T07:38:40Z</time>
      </trkpt>
      <trkpt lat="45.28069" lon="6.19702">
        <ele>1409.6</ele>
        <time>2021-02-17T07:38:41Z</time>
      </trkpt>
      <trkpt lat="45.28069" lon="6.19701">
        <ele>1409.7</ele>
        <time>2021-02-17T07:38:42Z</time>
      </trkpt>
      <trkpt lat="45.2807" lon="6.19701">
        <ele>1409.7</ele>
        <time>2021-02-17T07:38:43Z</time>
      </trkpt>
      <trkpt lat="45.2807" lon="6.197">
        <ele>1409.8</ele>
        <time>2021-02-17T07:38:44Z</time>
      </trkpt>
      <trkpt lat="45.28069" lon="6.19699">
        <ele>1409.9</ele>
        <time>2021-02-17T07:38:45Z</time>
      </trkpt>
      <trkpt lat="45.28069" lon="6.19698">
        <ele>1410</ele>
        <time>2021-02-17T07:38:46Z</time>
      </trkpt>
      <trkpt lat="45.28068" lon="6.19696">
        <ele>1410.1</ele>
        <time>2021-02-17T07:38:47Z</time>
      </trkpt>
      <trkpt lat="45.28068" lon="6.19695">
        <ele>1410.3</ele>
        <time>2021-02-17T07:38:48Z</time>
      </trkpt>
      <trkpt lat="45.28067" lon="6.19694">
        <ele>1410.4</ele>
        <time>2021-02-17T07:38:49Z</time>
      </trkpt>
      <trkpt lat="45.28067" lon="6.19693">
        <ele>1410.5</ele>
        <time>2021-02-17T07:38:50Z</time>
      </trkpt>
      <trkpt lat="45.28066" lon="6.19692">
        <ele>1410.6</ele>
        <time>2021-02-17T07:38:51Z</time>
      </trkpt>
      <trkpt lat="45.28066" lon="6.19691">
        <ele>1410.7</ele>
        <time>2021-02-17T07:38:52Z</time>
      </trkpt>
      <trkpt lat="45.28066" lon="6.1969">
        <ele>1410.7</ele>
        <time>2021-02-17T07:38:53Z</time>
      </trkpt>
      <trkpt lat="45.28066" lon="6.19689">
        <ele>1410.8</ele>
        <time>2021-02-17T07:38:54Z</time>
      </trkpt>
      <trkpt lat="45.28066" lon="6.19688">
        <ele>1410.9</ele>
        <time>2021-02-17T07:38:55Z</time>
      </trkpt>
      <trkpt lat="45.28065" lon="6.19687">
        <ele>1411</ele>
        <time>2021-02-17T07:38:56Z</time>
      </trkpt>
      <trkpt lat="45.28065" lon="6.19686">
        <ele>1411.1</ele>
        <time>2021-02-17T07:38:57Z</time>
      </trkpt>
      <trkpt lat="45.28064" lon="6.19685">
        <ele>1411.2</ele>
        <time>2021-02-17T07:38:58Z</time>
      </trkpt>
      <trkpt lat="45.28064" lon="6.19685">
        <ele>1411.2</ele>
        <time>2021-02-17T07:38:59Z</time>
      </trkpt>
      <trkpt lat="45.28064" lon="6.19684">
        <ele>1411.3</ele>
        <time>2021-02-17T07:39:00Z</time>
      </trkpt>
      <trkpt lat="45.28064" lon="6.19683">
        <ele>1411.3</ele>
        <time>2021-02-17T07:39:01Z</time>
      </trkpt>
      <trkpt lat="45.28064" lon="6.19683">
        <ele>1411.4</ele>
        <time>2021-02-17T07:39:02Z</time>
      </trkpt>
      <trkpt lat="45.28064" lon="6.1968">
        <ele>1411.5</ele>
        <time>2021-02-17T07:39:03Z</time>
      </trkpt>
      <trkpt lat="45.28063" lon="6.19679">
        <ele>1411.6</ele>
        <time>2021-02-17T07:39:04Z</time>
      </trkpt>
      <trkpt lat="45.28063" lon="6.19678">
        <ele>1411.7</ele>
        <time>2021-02-17T07:39:05Z</time>
      </trkpt>
      <trkpt lat="45.28062" lon="6.19677">
        <ele>1411.8</ele>
        <time>2021-02-17T07:39:06Z</time>
      </trkpt>
      <trkpt lat="45.28062" lon="6.19676">
        <ele>1411.9</ele>
        <time>2021-02-17T07:39:07Z</time>
      </trkpt>
      <trkpt lat="45.28061" lon="6.19674">
        <ele>1412</ele>
        <time>2021-02-17T07:39:08Z</time>
      </trkpt>
      <trkpt lat="45.28061" lon="6.19673">
        <ele>1412.1</ele>
        <time>2021-02-17T07:39:09Z</time>
      </trkpt>
      <trkpt lat="45.2806" lon="6.19672">
        <ele>1412.2</ele>
        <time>2021-02-17T07:39:10Z</time>
      </trkpt>
      <trkpt lat="45.2806" lon="6.1967">
        <ele>1412.4</ele>
        <time>2021-02-17T07:39:11Z</time>
      </trkpt>
      <trkpt lat="45.28059" lon="6.19669">
        <ele>1412.5</ele>
        <time>2021-02-17T07:39:12Z</time>
      </trkpt>
      <trkpt lat="45.28058" lon="6.19668">
        <ele>1412.6</ele>
        <time>2021-02-17T07:39:13Z</time>
      </trkpt>
      <trkpt lat="45.28058" lon="6.19666">
        <ele>1412.7</ele>
        <time>2021-02-17T07:39:14Z</time>
      </trkpt>
      <trkpt lat="45.28057" lon="6.19665">
        <ele>1412.8</ele>
        <time>2021-02-17T07:39:15Z</time>
      </trkpt>
      <trkpt lat="45.28057" lon="6.19664">
        <ele>1412.8</ele>
        <time>2021-02-17T07:39:16Z</time>
      </trkpt>
      <trkpt lat="45.28057" lon="6.19662">
        <ele>1412.9</ele>
        <time>2021-02-17T07:39:17Z</time>
      </trkpt>
      <trkpt lat="45.28057" lon="6.19661">
        <ele>1413</ele>
        <time>2021-02-17T07:39:18Z</time>
      </trkpt>
      <trkpt lat="45.28056" lon="6.1966">
        <ele>1413.1</ele>
        <time>2021-02-17T07:39:19Z</time>
      </trkpt>
      <trkpt lat="45.28056" lon="6.19659">
        <ele>1413.2</ele>
        <time>2021-02-17T07:39:20Z</time>
      </trkpt>
      <trkpt lat="45.28056" lon="6.19657">
        <ele>1413.3</ele>
        <time>2021-02-17T07:39:21Z</time>
      </trkpt>
      <trkpt lat="45.28055" lon="6.19656">
        <ele>1413.4</ele>
        <time>2021-02-17T07:39:22Z</time>
      </trkpt>
      <trkpt lat="45.28055" lon="6.19655">
        <ele>1413.4</ele>
        <time>2021-02-17T07:39:23Z</time>
      </trkpt>
      <trkpt lat="45.28055" lon="6.19654">
        <ele>1413.5</ele>
        <time>2021-02-17T07:39:24Z</time>
      </trkpt>
      <trkpt lat="45.28054" lon="6.19653">
        <ele>1413.6</ele>
        <time>2021-02-17T07:39:25Z</time>
      </trkpt>
      <trkpt lat="45.28054" lon="6.19653">
        <ele>1413.6</ele>
        <time>2021-02-17T07:39:26Z</time>
      </trkpt>
      <trkpt lat="45.28054" lon="6.19652">
        <ele>1413.7</ele>
        <time>2021-02-17T07:39:27Z</time>
      </trkpt>
      <trkpt lat="45.28054" lon="6.19651">
        <ele>1413.7</ele>
        <time>2021-02-17T07:39:28Z</time>
      </trkpt>
      <trkpt lat="45.28054" lon="6.1965">
        <ele>1413.8</ele>
        <time>2021-02-17T07:39:29Z</time>
      </trkpt>
      <trkpt lat="45.28053" lon="6.19649">
        <ele>1413.9</ele>
        <time>2021-02-17T07:39:30Z</time>
      </trkpt>
      <trkpt lat="45.28053" lon="6.19647">
        <ele>1414</ele>
        <time>2021-02-17T07:39:31Z</time>
      </trkpt>
      <trkpt lat="45.28053" lon="6.19646">
        <ele>1414.1</ele>
        <time>2021-02-17T07:39:32Z</time>
      </trkpt>
      <trkpt lat="45.28052" lon="6.19645">
        <ele>1414.2</ele>
        <time>2021-02-17T07:39:33Z</time>
      </trkpt>
      <trkpt lat="45.28052" lon="6.19644">
        <ele>1414.3</ele>
        <time>2021-02-17T07:39:34Z</time>
      </trkpt>
      <trkpt lat="45.28052" lon="6.19643">
        <ele>1414.4</ele>
        <time>2021-02-17T07:39:35Z</time>
      </trkpt>
      <trkpt lat="45.28052" lon="6.19642">
        <ele>1414.4</ele>
        <time>2021-02-17T07:39:36Z</time>
      </trkpt>
      <trkpt lat="45.28052" lon="6.19641">
        <ele>1414.5</ele>
        <time>2021-02-17T07:39:37Z</time>
      </trkpt>
      <trkpt lat="45.28052" lon="6.19641">
        <ele>1414.5</ele>
        <time>2021-02-17T07:39:38Z</time>
      </trkpt>
      <trkpt lat="45.28052" lon="6.19641">
        <ele>1414.5</ele>
        <time>2021-02-17T07:39:39Z</time>
      </trkpt>
      <trkpt lat="45.28053" lon="6.1964">
        <ele>1414.6</ele>
        <time>2021-02-17T07:39:40Z</time>
      </trkpt>
      <trkpt lat="45.28053" lon="6.19639">
        <ele>1414.6</ele>
        <time>2021-02-17T07:39:41Z</time>
      </trkpt>
      <trkpt lat="45.28053" lon="6.19639">
        <ele>1414.7</ele>
        <time>2021-02-17T07:39:42Z</time>
      </trkpt>
      <trkpt lat="45.28052" lon="6.19638">
        <ele>1414.7</ele>
        <time>2021-02-17T07:39:43Z</time>
      </trkpt>
      <trkpt lat="45.28052" lon="6.19638">
        <ele>1414.8</ele>
        <time>2021-02-17T07:39:44Z</time>
      </trkpt>
      <trkpt lat="45.28052" lon="6.19637">
        <ele>1414.8</ele>
        <time>2021-02-17T07:39:45Z</time>
      </trkpt>
      <trkpt lat="45.28052" lon="6.19636">
        <ele>1414.9</ele>
        <time>2021-02-17T07:39:46Z</time>
      </trkpt>
      <trkpt lat="45.28051" lon="6.19635">
        <ele>1415</ele>
        <time>2021-02-17T07:39:47Z</time>
      </trkpt>
      <trkpt lat="45.28051" lon="6.19634">
        <ele>1415.1</ele>
        <time>2021-02-17T07:39:48Z</time>
      </trkpt>
      <trkpt lat="45.2805" lon="6.19634">
        <ele>1415.2</ele>
        <time>2021-02-17T07:39:49Z</time>
      </trkpt>
      <trkpt lat="45.2805" lon="6.19633">
        <ele>1415.3</ele>
        <time>2021-02-17T07:39:50Z</time>
      </trkpt>
      <trkpt lat="45.28049" lon="6.19631">
        <ele>1415.4</ele>
        <time>2021-02-17T07:39:51Z</time>
      </trkpt>
      <trkpt lat="45.28048" lon="6.1963">
        <ele>1415.6</ele>
        <time>2021-02-17T07:39:52Z</time>
      </trkpt>
      <trkpt lat="45.28047" lon="6.19629">
        <ele>1415.7</ele>
        <time>2021-02-17T07:39:53Z</time>
      </trkpt>
      <trkpt lat="45.28046" lon="6.19628">
        <ele>1415.9</ele>
        <time>2021-02-17T07:39:54Z</time>
      </trkpt>
      <trkpt lat="45.28045" lon="6.19627">
        <ele>1416</ele>
        <time>2021-02-17T07:39:55Z</time>
      </trkpt>
      <trkpt lat="45.28045" lon="6.19626">
        <ele>1416.1</ele>
        <time>2021-02-17T07:39:56Z</time>
      </trkpt>
      <trkpt lat="45.28044" lon="6.19625">
        <ele>1416.2</ele>
        <time>2021-02-17T07:39:57Z</time>
      </trkpt>
      <trkpt lat="45.28043" lon="6.19624">
        <ele>1416.3</ele>
        <time>2021-02-17T07:39:58Z</time>
      </trkpt>
      <trkpt lat="45.28042" lon="6.19624">
        <ele>1416.4</ele>
        <time>2021-02-17T07:39:59Z</time>
      </trkpt>
      <trkpt lat="45.28042" lon="6.19623">
        <ele>1416.5</ele>
        <time>2021-02-17T07:40:00Z</time>
      </trkpt>
      <trkpt lat="45.28041" lon="6.19622">
        <ele>1416.7</ele>
        <time>2021-02-17T07:40:01Z</time>
      </trkpt>
      <trkpt lat="45.2804" lon="6.1962">
        <ele>1416.8</ele>
        <time>2021-02-17T07:40:02Z</time>
      </trkpt>
      <trkpt lat="45.28039" lon="6.19619">
        <ele>1417</ele>
        <time>2021-02-17T07:40:03Z</time>
      </trkpt>
      <trkpt lat="45.28039" lon="6.19618">
        <ele>1417.1</ele>
        <time>2021-02-17T07:40:04Z</time>
      </trkpt>
      <trkpt lat="45.28038" lon="6.19617">
        <ele>1417.2</ele>
        <time>2021-02-17T07:40:05Z</time>
      </trkpt>
      <trkpt lat="45.28038" lon="6.19616">
        <ele>1417.3</ele>
        <time>2021-02-17T07:40:06Z</time>
      </trkpt>
      <trkpt lat="45.28037" lon="6.19614">
        <ele>1417.4</ele>
        <time>2021-02-17T07:40:07Z</time>
      </trkpt>
      <trkpt lat="45.28036" lon="6.19613">
        <ele>1417.6</ele>
        <time>2021-02-17T07:40:08Z</time>
      </trkpt>
      <trkpt lat="45.28036" lon="6.19612">
        <ele>1417.7</ele>
        <time>2021-02-17T07:40:09Z</time>
      </trkpt>
      <trkpt lat="45.28035" lon="6.19611">
        <ele>1417.8</ele>
        <time>2021-02-17T07:40:10Z</time>
      </trkpt>
      <trkpt lat="45.28034" lon="6.1961">
        <ele>1417.9</ele>
        <time>2021-02-17T07:40:11Z</time>
      </trkpt>
      <trkpt lat="45.28034" lon="6.19609">
        <ele>1418</ele>
        <time>2021-02-17T07:40:12Z</time>
      </trkpt>
      <trkpt lat="45.28034" lon="6.19608">
        <ele>1418.1</ele>
        <time>2021-02-17T07:40:13Z</time>
      </trkpt>
      <trkpt lat="45.28033" lon="6.19607">
        <ele>1418.2</ele>
        <time>2021-02-17T07:40:14Z</time>
      </trkpt>
      <trkpt lat="45.28032" lon="6.19606">
        <ele>1418.4</ele>
        <time>2021-02-17T07:40:15Z</time>
      </trkpt>
      <trkpt lat="45.28032" lon="6.19605">
        <ele>1418.4</ele>
        <time>2021-02-17T07:40:16Z</time>
      </trkpt>
      <trkpt lat="45.28031" lon="6.19604">
        <ele>1418.6</ele>
        <time>2021-02-17T07:40:17Z</time>
      </trkpt>
      <trkpt lat="45.2803" lon="6.19603">
        <ele>1418.7</ele>
        <time>2021-02-17T07:40:18Z</time>
      </trkpt>
      <trkpt lat="45.2803" lon="6.19601">
        <ele>1418.8</ele>
        <time>2021-02-17T07:40:19Z</time>
      </trkpt>
      <trkpt lat="45.28029" lon="6.19601">
        <ele>1418.9</ele>
        <time>2021-02-17T07:40:20Z</time>
      </trkpt>
      <trkpt lat="45.28029" lon="6.196">
        <ele>1419</ele>
        <time>2021-02-17T07:40:21Z</time>
      </trkpt>
      <trkpt lat="45.28028" lon="6.19599">
        <ele>1419.1</ele>
        <time>2021-02-17T07:40:22Z</time>
      </trkpt>
      <trkpt lat="45.28027" lon="6.19599">
        <ele>1419.2</ele>
        <time>2021-02-17T07:40:23Z</time>
      </trkpt>
      <trkpt lat="45.28027" lon="6.19598">
        <ele>1419.3</ele>
        <time>2021-02-17T07:40:24Z</time>
      </trkpt>
      <trkpt lat="45.28026" lon="6.19597">
        <ele>1419.4</ele>
        <time>2021-02-17T07:40:25Z</time>
      </trkpt>
      <trkpt lat="45.28026" lon="6.19597">
        <ele>1419.5</ele>
        <time>2021-02-17T07:40:26Z</time>
      </trkpt>
      <trkpt lat="45.28025" lon="6.19596">
        <ele>1419.5</ele>
        <time>2021-02-17T07:40:27Z</time>
      </trkpt>
      <trkpt lat="45.28025" lon="6.19596">
        <ele>1419.6</ele>
        <time>2021-02-17T07:40:28Z</time>
      </trkpt>
      <trkpt lat="45.28025" lon="6.19595">
        <ele>1419.7</ele>
        <time>2021-02-17T07:40:29Z</time>
      </trkpt>
      <trkpt lat="45.28024" lon="6.19595">
        <ele>1419.7</ele>
        <time>2021-02-17T07:40:30Z</time>
      </trkpt>
      <trkpt lat="45.28024" lon="6.19595">
        <ele>1419.8</ele>
        <time>2021-02-17T07:40:31Z</time>
      </trkpt>
      <trkpt lat="45.28024" lon="6.19595">
        <ele>1419.8</ele>
        <time>2021-02-17T07:40:32Z</time>
      </trkpt>
      <trkpt lat="45.28024" lon="6.19595">
        <ele>1419.8</ele>
        <time>2021-02-17T07:40:33Z</time>
      </trkpt>
      <trkpt lat="45.28024" lon="6.19595">
        <ele>1419.8</ele>
        <time>2021-02-17T07:40:34Z</time>
      </trkpt>
      <trkpt lat="45.28021" lon="6.19592">
        <ele>1420.3</ele>
        <time>2021-02-17T07:40:45Z</time>
      </trkpt>
      <trkpt lat="45.28021" lon="6.19591">
        <ele>1420.3</ele>
        <time>2021-02-17T07:40:46Z</time>
      </trkpt>
      <trkpt lat="45.2802" lon="6.1959">
        <ele>1420.4</ele>
        <time>2021-02-17T07:40:47Z</time>
      </trkpt>
      <trkpt lat="45.2802" lon="6.1959">
        <ele>1420.5</ele>
        <time>2021-02-17T07:40:48Z</time>
      </trkpt>
      <trkpt lat="45.2802" lon="6.1959">
        <ele>1420.5</ele>
        <time>2021-02-17T07:40:49Z</time>
      </trkpt>
      <trkpt lat="45.2802" lon="6.19589">
        <ele>1420.6</ele>
        <time>2021-02-17T07:40:50Z</time>
      </trkpt>
      <trkpt lat="45.2802" lon="6.19588">
        <ele>1420.6</ele>
        <time>2021-02-17T07:40:51Z</time>
      </trkpt>
      <trkpt lat="45.2802" lon="6.19588">
        <ele>1420.7</ele>
        <time>2021-02-17T07:40:52Z</time>
      </trkpt>
      <trkpt lat="45.28021" lon="6.19587">
        <ele>1420.7</ele>
        <time>2021-02-17T07:40:53Z</time>
      </trkpt>
      <trkpt lat="45.28021" lon="6.19587">
        <ele>1420.8</ele>
        <time>2021-02-17T07:40:54Z</time>
      </trkpt>
      <trkpt lat="45.2802" lon="6.19586">
        <ele>1420.8</ele>
        <time>2021-02-17T07:40:55Z</time>
      </trkpt>
      <trkpt lat="45.28011" lon="6.19584">
        <ele>1422.1</ele>
        <time>2021-02-17T07:41:42Z</time>
      </trkpt>
      <trkpt lat="45.2801" lon="6.19584">
        <ele>1422.2</ele>
        <time>2021-02-17T07:41:43Z</time>
      </trkpt>
      <trkpt lat="45.2801" lon="6.19584">
        <ele>1422.2</ele>
        <time>2021-02-17T07:41:44Z</time>
      </trkpt>
      <trkpt lat="45.28009" lon="6.19584">
        <ele>1422.2</ele>
        <time>2021-02-17T07:41:45Z</time>
      </trkpt>
      <trkpt lat="45.28009" lon="6.19584">
        <ele>1422.3</ele>
        <time>2021-02-17T07:41:46Z</time>
      </trkpt>
      <trkpt lat="45.28008" lon="6.19583">
        <ele>1422.5</ele>
        <time>2021-02-17T07:41:47Z</time>
      </trkpt>
      <trkpt lat="45.28007" lon="6.19582">
        <ele>1422.6</ele>
        <time>2021-02-17T07:41:48Z</time>
      </trkpt>
      <trkpt lat="45.28006" lon="6.19582">
        <ele>1422.7</ele>
        <time>2021-02-17T07:41:49Z</time>
      </trkpt>
      <trkpt lat="45.28005" lon="6.19581">
        <ele>1422.8</ele>
        <time>2021-02-17T07:41:50Z</time>
      </trkpt>
      <trkpt lat="45.28004" lon="6.19581">
        <ele>1422.9</ele>
        <time>2021-02-17T07:41:51Z</time>
      </trkpt>
      <trkpt lat="45.28004" lon="6.19581">
        <ele>1422.9</ele>
        <time>2021-02-17T07:41:52Z</time>
      </trkpt>
      <trkpt lat="45.28004" lon="6.19581">
        <ele>1422.9</ele>
        <time>2021-02-17T07:41:53Z</time>
      </trkpt>
      <trkpt lat="45.28004" lon="6.19581">
        <ele>1422.9</ele>
        <time>2021-02-17T07:41:54Z</time>
      </trkpt>
      <trkpt lat="45.28004" lon="6.19581">
        <ele>1423</ele>
        <time>2021-02-17T07:41:55Z</time>
      </trkpt>
      <trkpt lat="45.28004" lon="6.1958">
        <ele>1423</ele>
        <time>2021-02-17T07:41:56Z</time>
      </trkpt>
      <trkpt lat="45.28005" lon="6.1958">
        <ele>1423.1</ele>
        <time>2021-02-17T07:41:57Z</time>
      </trkpt>
      <trkpt lat="45.28005" lon="6.1958">
        <ele>1423.1</ele>
        <time>2021-02-17T07:41:58Z</time>
      </trkpt>
      <trkpt lat="45.28005" lon="6.19579">
        <ele>1423.2</ele>
        <time>2021-02-17T07:41:59Z</time>
      </trkpt>
      <trkpt lat="45.28005" lon="6.19578">
        <ele>1423.3</ele>
        <time>2021-02-17T07:42:00Z</time>
      </trkpt>
      <trkpt lat="45.28005" lon="6.19578">
        <ele>1423.3</ele>
        <time>2021-02-17T07:42:01Z</time>
      </trkpt>
      <trkpt lat="45.28005" lon="6.19577">
        <ele>1423.4</ele>
        <time>2021-02-17T07:42:02Z</time>
      </trkpt>
      <trkpt lat="45.28005" lon="6.19576">
        <ele>1423.4</ele>
        <time>2021-02-17T07:42:03Z</time>
      </trkpt>
      <trkpt lat="45.28005" lon="6.19575">
        <ele>1423.5</ele>
        <time>2021-02-17T07:42:04Z</time>
      </trkpt>
      <trkpt lat="45.28005" lon="6.19574">
        <ele>1423.6</ele>
        <time>2021-02-17T07:42:05Z</time>
      </trkpt>
      <trkpt lat="45.28005" lon="6.19573">
        <ele>1423.7</ele>
        <time>2021-02-17T07:42:06Z</time>
      </trkpt>
      <trkpt lat="45.28005" lon="6.19573">
        <ele>1423.8</ele>
        <time>2021-02-17T07:42:07Z</time>
      </trkpt>
      <trkpt lat="45.28005" lon="6.19571">
        <ele>1423.9</ele>
        <time>2021-02-17T07:42:08Z</time>
      </trkpt>
      <trkpt lat="45.28004" lon="6.1957">
        <ele>1424</ele>
        <time>2021-02-17T07:42:09Z</time>
      </trkpt>
      <trkpt lat="45.28004" lon="6.19569">
        <ele>1424.1</ele>
        <time>2021-02-17T07:42:10Z</time>
      </trkpt>
      <trkpt lat="45.28003" lon="6.19568">
        <ele>1424.2</ele>
        <time>2021-02-17T07:42:11Z</time>
      </trkpt>
      <trkpt lat="45.28003" lon="6.19567">
        <ele>1424.3</ele>
        <time>2021-02-17T07:42:12Z</time>
      </trkpt>
      <trkpt lat="45.28004" lon="6.19566">
        <ele>1424.3</ele>
        <time>2021-02-17T07:42:13Z</time>
      </trkpt>
      <trkpt lat="45.28004" lon="6.19566">
        <ele>1424.4</ele>
        <time>2021-02-17T07:42:14Z</time>
      </trkpt>
      <trkpt lat="45.28004" lon="6.19565">
        <ele>1424.4</ele>
        <time>2021-02-17T07:42:15Z</time>
      </trkpt>
      <trkpt lat="45.28003" lon="6.19564">
        <ele>1424.6</ele>
        <time>2021-02-17T07:42:16Z</time>
      </trkpt>
      <trkpt lat="45.28003" lon="6.19562">
        <ele>1424.7</ele>
        <time>2021-02-17T07:42:17Z</time>
      </trkpt>
      <trkpt lat="45.28003" lon="6.19562">
        <ele>1424.8</ele>
        <time>2021-02-17T07:42:18Z</time>
      </trkpt>
      <trkpt lat="45.28002" lon="6.19561">
        <ele>1424.8</ele>
        <time>2021-02-17T07:42:19Z</time>
      </trkpt>
      <trkpt lat="45.28002" lon="6.19559">
        <ele>1424.9</ele>
        <time>2021-02-17T07:42:20Z</time>
      </trkpt>
      <trkpt lat="45.28001" lon="6.19558">
        <ele>1425.1</ele>
        <time>2021-02-17T07:42:21Z</time>
      </trkpt>
      <trkpt lat="45.28001" lon="6.19557">
        <ele>1425.2</ele>
        <time>2021-02-17T07:42:22Z</time>
      </trkpt>
      <trkpt lat="45.28" lon="6.19556">
        <ele>1425.2</ele>
        <time>2021-02-17T07:42:23Z</time>
      </trkpt>
      <trkpt lat="45.28" lon="6.19554">
        <ele>1425.4</ele>
        <time>2021-02-17T07:42:24Z</time>
      </trkpt>
      <trkpt lat="45.27999" lon="6.19553">
        <ele>1425.5</ele>
        <time>2021-02-17T07:42:25Z</time>
      </trkpt>
      <trkpt lat="45.27999" lon="6.19553">
        <ele>1425.5</ele>
        <time>2021-02-17T07:42:26Z</time>
      </trkpt>
      <trkpt lat="45.27999" lon="6.19552">
        <ele>1425.6</ele>
        <time>2021-02-17T07:42:27Z</time>
      </trkpt>
      <trkpt lat="45.27998" lon="6.19551">
        <ele>1425.7</ele>
        <time>2021-02-17T07:42:28Z</time>
      </trkpt>
      <trkpt lat="45.27998" lon="6.19549">
        <ele>1425.8</ele>
        <time>2021-02-17T07:42:29Z</time>
      </trkpt>
      <trkpt lat="45.27997" lon="6.19548">
        <ele>1425.9</ele>
        <time>2021-02-17T07:42:30Z</time>
      </trkpt>
      <trkpt lat="45.27997" lon="6.19547">
        <ele>1426</ele>
        <time>2021-02-17T07:42:31Z</time>
      </trkpt>
      <trkpt lat="45.27997" lon="6.19546">
        <ele>1426</ele>
        <time>2021-02-17T07:42:32Z</time>
      </trkpt>
      <trkpt lat="45.27997" lon="6.19545">
        <ele>1426.1</ele>
        <time>2021-02-17T07:42:33Z</time>
      </trkpt>
      <trkpt lat="45.27997" lon="6.19544">
        <ele>1426.2</ele>
        <time>2021-02-17T07:42:34Z</time>
      </trkpt>
      <trkpt lat="45.27997" lon="6.19543">
        <ele>1426.2</ele>
        <time>2021-02-17T07:42:35Z</time>
      </trkpt>
      <trkpt lat="45.27997" lon="6.19542">
        <ele>1426.3</ele>
        <time>2021-02-17T07:42:36Z</time>
      </trkpt>
      <trkpt lat="45.27996" lon="6.19541">
        <ele>1426.4</ele>
        <time>2021-02-17T07:42:37Z</time>
      </trkpt>
      <trkpt lat="45.27996" lon="6.1954">
        <ele>1426.4</ele>
        <time>2021-02-17T07:42:38Z</time>
      </trkpt>
      <trkpt lat="45.27996" lon="6.19539">
        <ele>1426.5</ele>
        <time>2021-02-17T07:42:39Z</time>
      </trkpt>
      <trkpt lat="45.27996" lon="6.19539">
        <ele>1426.5</ele>
        <time>2021-02-17T07:42:40Z</time>
      </trkpt>
      <trkpt lat="45.27996" lon="6.19538">
        <ele>1426.6</ele>
        <time>2021-02-17T07:42:41Z</time>
      </trkpt>
      <trkpt lat="45.27996" lon="6.19537">
        <ele>1426.7</ele>
        <time>2021-02-17T07:42:42Z</time>
      </trkpt>
      <trkpt lat="45.27996" lon="6.19536">
        <ele>1426.7</ele>
        <time>2021-02-17T07:42:43Z</time>
      </trkpt>
      <trkpt lat="45.27996" lon="6.19535">
        <ele>1426.8</ele>
        <time>2021-02-17T07:42:44Z</time>
      </trkpt>
      <trkpt lat="45.27997" lon="6.19534">
        <ele>1426.8</ele>
        <time>2021-02-17T07:42:45Z</time>
      </trkpt>
      <trkpt lat="45.27996" lon="6.19533">
        <ele>1426.8</ele>
        <time>2021-02-17T07:42:46Z</time>
      </trkpt>
      <trkpt lat="45.27996" lon="6.19532">
        <ele>1426.9</ele>
        <time>2021-02-17T07:42:47Z</time>
      </trkpt>
      <trkpt lat="45.27996" lon="6.19531">
        <ele>1427</ele>
        <time>2021-02-17T07:42:48Z</time>
      </trkpt>
      <trkpt lat="45.27996" lon="6.1953">
        <ele>1427.1</ele>
        <time>2021-02-17T07:42:49Z</time>
      </trkpt>
      <trkpt lat="45.27995" lon="6.19529">
        <ele>1427.1</ele>
        <time>2021-02-17T07:42:50Z</time>
      </trkpt>
      <trkpt lat="45.27995" lon="6.19528">
        <ele>1427.2</ele>
        <time>2021-02-17T07:42:51Z</time>
      </trkpt>
      <trkpt lat="45.27995" lon="6.19527">
        <ele>1427.3</ele>
        <time>2021-02-17T07:42:52Z</time>
      </trkpt>
      <trkpt lat="45.27994" lon="6.19526">
        <ele>1427.4</ele>
        <time>2021-02-17T07:42:53Z</time>
      </trkpt>
      <trkpt lat="45.27994" lon="6.19524">
        <ele>1427.4</ele>
        <time>2021-02-17T07:42:54Z</time>
      </trkpt>
      <trkpt lat="45.27993" lon="6.19524">
        <ele>1427.5</ele>
        <time>2021-02-17T07:42:55Z</time>
      </trkpt>
      <trkpt lat="45.27993" lon="6.19524">
        <ele>1427.5</ele>
        <time>2021-02-17T07:42:56Z</time>
      </trkpt>
      <trkpt lat="45.27993" lon="6.19524">
        <ele>1427.5</ele>
        <time>2021-02-17T07:42:57Z</time>
      </trkpt>
      <trkpt lat="45.27993" lon="6.19524">
        <ele>1427.5</ele>
        <time>2021-02-17T07:42:58Z</time>
      </trkpt>
      <trkpt lat="45.27993" lon="6.19525">
        <ele>1427.6</ele>
        <time>2021-02-17T07:42:59Z</time>
      </trkpt>
      <trkpt lat="45.27993" lon="6.19525">
        <ele>1427.6</ele>
        <time>2021-02-17T07:43:00Z</time>
      </trkpt>
      <trkpt lat="45.27993" lon="6.19525">
        <ele>1427.6</ele>
        <time>2021-02-17T07:43:01Z</time>
      </trkpt>
      <trkpt lat="45.27994" lon="6.19526">
        <ele>1427.7</ele>
        <time>2021-02-17T07:43:02Z</time>
      </trkpt>
      <trkpt lat="45.27994" lon="6.19527">
        <ele>1427.7</ele>
        <time>2021-02-17T07:43:03Z</time>
      </trkpt>
      <trkpt lat="45.27994" lon="6.19527">
        <ele>1427.7</ele>
        <time>2021-02-17T07:43:04Z</time>
      </trkpt>
      <trkpt lat="45.27994" lon="6.19527">
        <ele>1427.8</ele>
        <time>2021-02-17T07:43:05Z</time>
      </trkpt>
      <trkpt lat="45.27988" lon="6.19518">
        <ele>1428.5</ele>
        <time>2021-02-17T07:43:35Z</time>
      </trkpt>
      <trkpt lat="45.27987" lon="6.19517">
        <ele>1428.6</ele>
        <time>2021-02-17T07:43:36Z</time>
      </trkpt>
      <trkpt lat="45.27986" lon="6.19516">
        <ele>1428.6</ele>
        <time>2021-02-17T07:43:37Z</time>
      </trkpt>
      <trkpt lat="45.27986" lon="6.19515">
        <ele>1428.7</ele>
        <time>2021-02-17T07:43:38Z</time>
      </trkpt>
      <trkpt lat="45.27986" lon="6.19514">
        <ele>1428.8</ele>
        <time>2021-02-17T07:43:39Z</time>
      </trkpt>
      <trkpt lat="45.27985" lon="6.19512">
        <ele>1428.9</ele>
        <time>2021-02-17T07:43:40Z</time>
      </trkpt>
      <trkpt lat="45.27985" lon="6.1951">
        <ele>1429</ele>
        <time>2021-02-17T07:43:41Z</time>
      </trkpt>
      <trkpt lat="45.27985" lon="6.19508">
        <ele>1429</ele>
        <time>2021-02-17T07:43:42Z</time>
      </trkpt>
      <trkpt lat="45.27984" lon="6.19507">
        <ele>1429.1</ele>
        <time>2021-02-17T07:43:43Z</time>
      </trkpt>
      <trkpt lat="45.27984" lon="6.19505">
        <ele>1429.2</ele>
        <time>2021-02-17T07:43:44Z</time>
      </trkpt>
      <trkpt lat="45.27984" lon="6.19504">
        <ele>1429.3</ele>
        <time>2021-02-17T07:43:45Z</time>
      </trkpt>
      <trkpt lat="45.27984" lon="6.19503">
        <ele>1429.3</ele>
        <time>2021-02-17T07:43:46Z</time>
      </trkpt>
      <trkpt lat="45.27984" lon="6.19502">
        <ele>1429.4</ele>
        <time>2021-02-17T07:43:47Z</time>
      </trkpt>
      <trkpt lat="45.27983" lon="6.19501">
        <ele>1429.4</ele>
        <time>2021-02-17T07:43:48Z</time>
      </trkpt>
      <trkpt lat="45.27983" lon="6.195">
        <ele>1429.5</ele>
        <time>2021-02-17T07:43:49Z</time>
      </trkpt>
      <trkpt lat="45.27983" lon="6.19499">
        <ele>1429.5</ele>
        <time>2021-02-17T07:43:50Z</time>
      </trkpt>
      <trkpt lat="45.27983" lon="6.19498">
        <ele>1429.6</ele>
        <time>2021-02-17T07:43:51Z</time>
      </trkpt>
      <trkpt lat="45.27983" lon="6.19497">
        <ele>1429.7</ele>
        <time>2021-02-17T07:43:52Z</time>
      </trkpt>
      <trkpt lat="45.27984" lon="6.19496">
        <ele>1429.7</ele>
        <time>2021-02-17T07:43:53Z</time>
      </trkpt>
      <trkpt lat="45.27984" lon="6.19494">
        <ele>1429.8</ele>
        <time>2021-02-17T07:43:54Z</time>
      </trkpt>
      <trkpt lat="45.27983" lon="6.19493">
        <ele>1429.8</ele>
        <time>2021-02-17T07:43:55Z</time>
      </trkpt>
      <trkpt lat="45.27983" lon="6.19492">
        <ele>1429.9</ele>
        <time>2021-02-17T07:43:56Z</time>
      </trkpt>
      <trkpt lat="45.27983" lon="6.1949">
        <ele>1430</ele>
        <time>2021-02-17T07:43:57Z</time>
      </trkpt>
      <trkpt lat="45.27983" lon="6.19489">
        <ele>1430</ele>
        <time>2021-02-17T07:43:58Z</time>
      </trkpt>
      <trkpt lat="45.27983" lon="6.19488">
        <ele>1430.1</ele>
        <time>2021-02-17T07:43:59Z</time>
      </trkpt>
      <trkpt lat="45.27984" lon="6.19487">
        <ele>1430.2</ele>
        <time>2021-02-17T07:44:00Z</time>
      </trkpt>
      <trkpt lat="45.27984" lon="6.19486">
        <ele>1430.2</ele>
        <time>2021-02-17T07:44:01Z</time>
      </trkpt>
      <trkpt lat="45.27984" lon="6.19485">
        <ele>1430.3</ele>
        <time>2021-02-17T07:44:02Z</time>
      </trkpt>
      <trkpt lat="45.27984" lon="6.19484">
        <ele>1430.4</ele>
        <time>2021-02-17T07:44:03Z</time>
      </trkpt>
      <trkpt lat="45.27984" lon="6.19482">
        <ele>1430.4</ele>
        <time>2021-02-17T07:44:04Z</time>
      </trkpt>
      <trkpt lat="45.27983" lon="6.1948">
        <ele>1430.5</ele>
        <time>2021-02-17T07:44:05Z</time>
      </trkpt>
      <trkpt lat="45.27983" lon="6.19479">
        <ele>1430.6</ele>
        <time>2021-02-17T07:44:06Z</time>
      </trkpt>
      <trkpt lat="45.27983" lon="6.19478">
        <ele>1430.7</ele>
        <time>2021-02-17T07:44:07Z</time>
      </trkpt>
      <trkpt lat="45.27983" lon="6.19477">
        <ele>1430.8</ele>
        <time>2021-02-17T07:44:08Z</time>
      </trkpt>
      <trkpt lat="45.27983" lon="6.19475">
        <ele>1430.8</ele>
        <time>2021-02-17T07:44:09Z</time>
      </trkpt>
      <trkpt lat="45.27983" lon="6.19474">
        <ele>1430.9</ele>
        <time>2021-02-17T07:44:10Z</time>
      </trkpt>
      <trkpt lat="45.27983" lon="6.19473">
        <ele>1431</ele>
        <time>2021-02-17T07:44:11Z</time>
      </trkpt>
      <trkpt lat="45.27983" lon="6.19472">
        <ele>1431.1</ele>
        <time>2021-02-17T07:44:12Z</time>
      </trkpt>
      <trkpt lat="45.27984" lon="6.19471">
        <ele>1431.1</ele>
        <time>2021-02-17T07:44:13Z</time>
      </trkpt>
      <trkpt lat="45.27984" lon="6.1947">
        <ele>1431.2</ele>
        <time>2021-02-17T07:44:14Z</time>
      </trkpt>
      <trkpt lat="45.27984" lon="6.19468">
        <ele>1431.3</ele>
        <time>2021-02-17T07:44:15Z</time>
      </trkpt>
      <trkpt lat="45.27984" lon="6.19467">
        <ele>1431.3</ele>
        <time>2021-02-17T07:44:16Z</time>
      </trkpt>
      <trkpt lat="45.27984" lon="6.19466">
        <ele>1431.4</ele>
        <time>2021-02-17T07:44:17Z</time>
      </trkpt>
      <trkpt lat="45.27983" lon="6.19464">
        <ele>1431.5</ele>
        <time>2021-02-17T07:44:18Z</time>
      </trkpt>
      <trkpt lat="45.27983" lon="6.19463">
        <ele>1431.6</ele>
        <time>2021-02-17T07:44:19Z</time>
      </trkpt>
      <trkpt lat="45.27983" lon="6.19461">
        <ele>1431.7</ele>
        <time>2021-02-17T07:44:20Z</time>
      </trkpt>
      <trkpt lat="45.27984" lon="6.1946">
        <ele>1431.8</ele>
        <time>2021-02-17T07:44:21Z</time>
      </trkpt>
      <trkpt lat="45.27983" lon="6.19459">
        <ele>1431.9</ele>
        <time>2021-02-17T07:44:22Z</time>
      </trkpt>
      <trkpt lat="45.27983" lon="6.19457">
        <ele>1432</ele>
        <time>2021-02-17T07:44:23Z</time>
      </trkpt>
      <trkpt lat="45.27983" lon="6.19454">
        <ele>1432.2</ele>
        <time>2021-02-17T07:44:24Z</time>
      </trkpt>
      <trkpt lat="45.27983" lon="6.19453">
        <ele>1432.3</ele>
        <time>2021-02-17T07:44:25Z</time>
      </trkpt>
      <trkpt lat="45.27983" lon="6.19452">
        <ele>1432.4</ele>
        <time>2021-02-17T07:44:26Z</time>
      </trkpt>
      <trkpt lat="45.27982" lon="6.1945">
        <ele>1432.5</ele>
        <time>2021-02-17T07:44:27Z</time>
      </trkpt>
      <trkpt lat="45.27982" lon="6.19449">
        <ele>1432.6</ele>
        <time>2021-02-17T07:44:28Z</time>
      </trkpt>
      <trkpt lat="45.27982" lon="6.19448">
        <ele>1432.7</ele>
        <time>2021-02-17T07:44:29Z</time>
      </trkpt>
      <trkpt lat="45.27982" lon="6.19446">
        <ele>1432.8</ele>
        <time>2021-02-17T07:44:30Z</time>
      </trkpt>
      <trkpt lat="45.27982" lon="6.19445">
        <ele>1432.9</ele>
        <time>2021-02-17T07:44:31Z</time>
      </trkpt>
      <trkpt lat="45.27982" lon="6.19444">
        <ele>1433</ele>
        <time>2021-02-17T07:44:32Z</time>
      </trkpt>
      <trkpt lat="45.27981" lon="6.19443">
        <ele>1433</ele>
        <time>2021-02-17T07:44:33Z</time>
      </trkpt>
      <trkpt lat="45.27981" lon="6.19442">
        <ele>1433.1</ele>
        <time>2021-02-17T07:44:34Z</time>
      </trkpt>
      <trkpt lat="45.27981" lon="6.19441">
        <ele>1433.2</ele>
        <time>2021-02-17T07:44:35Z</time>
      </trkpt>
      <trkpt lat="45.27981" lon="6.19439">
        <ele>1433.3</ele>
        <time>2021-02-17T07:44:36Z</time>
      </trkpt>
      <trkpt lat="45.27981" lon="6.19438">
        <ele>1433.4</ele>
        <time>2021-02-17T07:44:37Z</time>
      </trkpt>
      <trkpt lat="45.27981" lon="6.19436">
        <ele>1433.5</ele>
        <time>2021-02-17T07:44:38Z</time>
      </trkpt>
      <trkpt lat="45.2798" lon="6.19435">
        <ele>1433.6</ele>
        <time>2021-02-17T07:44:39Z</time>
      </trkpt>
      <trkpt lat="45.2798" lon="6.19434">
        <ele>1433.7</ele>
        <time>2021-02-17T07:44:40Z</time>
      </trkpt>
      <trkpt lat="45.2798" lon="6.19432">
        <ele>1433.8</ele>
        <time>2021-02-17T07:44:41Z</time>
      </trkpt>
      <trkpt lat="45.27979" lon="6.19431">
        <ele>1433.9</ele>
        <time>2021-02-17T07:44:42Z</time>
      </trkpt>
      <trkpt lat="45.27979" lon="6.1943">
        <ele>1434</ele>
        <time>2021-02-17T07:44:43Z</time>
      </trkpt>
      <trkpt lat="45.27979" lon="6.19429">
        <ele>1434.1</ele>
        <time>2021-02-17T07:44:44Z</time>
      </trkpt>
      <trkpt lat="45.27979" lon="6.19428">
        <ele>1434.2</ele>
        <time>2021-02-17T07:44:45Z</time>
      </trkpt>
      <trkpt lat="45.27979" lon="6.19426">
        <ele>1434.3</ele>
        <time>2021-02-17T07:44:46Z</time>
      </trkpt>
      <trkpt lat="45.27979" lon="6.19425">
        <ele>1434.4</ele>
        <time>2021-02-17T07:44:47Z</time>
      </trkpt>
      <trkpt lat="45.27978" lon="6.19423">
        <ele>1434.6</ele>
        <time>2021-02-17T07:44:48Z</time>
      </trkpt>
      <trkpt lat="45.27978" lon="6.19422">
        <ele>1434.7</ele>
        <time>2021-02-17T07:44:49Z</time>
      </trkpt>
      <trkpt lat="45.27978" lon="6.1942">
        <ele>1434.8</ele>
        <time>2021-02-17T07:44:50Z</time>
      </trkpt>
      <trkpt lat="45.27977" lon="6.19419">
        <ele>1435</ele>
        <time>2021-02-17T07:44:51Z</time>
      </trkpt>
      <trkpt lat="45.27977" lon="6.19418">
        <ele>1435.1</ele>
        <time>2021-02-17T07:44:52Z</time>
      </trkpt>
      <trkpt lat="45.27977" lon="6.19416">
        <ele>1435.2</ele>
        <time>2021-02-17T07:44:53Z</time>
      </trkpt>
      <trkpt lat="45.27976" lon="6.19415">
        <ele>1435.4</ele>
        <time>2021-02-17T07:44:54Z</time>
      </trkpt>
      <trkpt lat="45.27976" lon="6.19414">
        <ele>1435.5</ele>
        <time>2021-02-17T07:44:55Z</time>
      </trkpt>
      <trkpt lat="45.27975" lon="6.19412">
        <ele>1435.7</ele>
        <time>2021-02-17T07:44:56Z</time>
      </trkpt>
      <trkpt lat="45.27974" lon="6.19411">
        <ele>1435.9</ele>
        <time>2021-02-17T07:44:57Z</time>
      </trkpt>
      <trkpt lat="45.27974" lon="6.19409">
        <ele>1436.1</ele>
        <time>2021-02-17T07:44:58Z</time>
      </trkpt>
      <trkpt lat="45.27973" lon="6.19408">
        <ele>1436.3</ele>
        <time>2021-02-17T07:44:59Z</time>
      </trkpt>
      <trkpt lat="45.27972" lon="6.19406">
        <ele>1436.4</ele>
        <time>2021-02-17T07:45:00Z</time>
      </trkpt>
      <trkpt lat="45.27972" lon="6.19405">
        <ele>1436.6</ele>
        <time>2021-02-17T07:45:01Z</time>
      </trkpt>
      <trkpt lat="45.27971" lon="6.19404">
        <ele>1436.8</ele>
        <time>2021-02-17T07:45:02Z</time>
      </trkpt>
      <trkpt lat="45.2797" lon="6.19403">
        <ele>1436.9</ele>
        <time>2021-02-17T07:45:03Z</time>
      </trkpt>
      <trkpt lat="45.2797" lon="6.19402">
        <ele>1437</ele>
        <time>2021-02-17T07:45:04Z</time>
      </trkpt>
      <trkpt lat="45.27969" lon="6.19401">
        <ele>1437.2</ele>
        <time>2021-02-17T07:45:05Z</time>
      </trkpt>
      <trkpt lat="45.27968" lon="6.194">
        <ele>1437.4</ele>
        <time>2021-02-17T07:45:06Z</time>
      </trkpt>
      <trkpt lat="45.27968" lon="6.19399">
        <ele>1437.6</ele>
        <time>2021-02-17T07:45:07Z</time>
      </trkpt>
      <trkpt lat="45.27967" lon="6.19397">
        <ele>1437.7</ele>
        <time>2021-02-17T07:45:08Z</time>
      </trkpt>
      <trkpt lat="45.27967" lon="6.19396">
        <ele>1437.9</ele>
        <time>2021-02-17T07:45:09Z</time>
      </trkpt>
      <trkpt lat="45.27967" lon="6.19395">
        <ele>1438</ele>
        <time>2021-02-17T07:45:10Z</time>
      </trkpt>
      <trkpt lat="45.27966" lon="6.19394">
        <ele>1438.2</ele>
        <time>2021-02-17T07:45:11Z</time>
      </trkpt>
      <trkpt lat="45.27966" lon="6.19392">
        <ele>1438.4</ele>
        <time>2021-02-17T07:45:12Z</time>
      </trkpt>
      <trkpt lat="45.27966" lon="6.19391">
        <ele>1438.5</ele>
        <time>2021-02-17T07:45:13Z</time>
      </trkpt>
      <trkpt lat="45.27966" lon="6.1939">
        <ele>1438.6</ele>
        <time>2021-02-17T07:45:14Z</time>
      </trkpt>
      <trkpt lat="45.27966" lon="6.19389">
        <ele>1438.7</ele>
        <time>2021-02-17T07:45:15Z</time>
      </trkpt>
      <trkpt lat="45.27966" lon="6.19388">
        <ele>1438.9</ele>
        <time>2021-02-17T07:45:16Z</time>
      </trkpt>
      <trkpt lat="45.27966" lon="6.19387">
        <ele>1439</ele>
        <time>2021-02-17T07:45:17Z</time>
      </trkpt>
      <trkpt lat="45.27965" lon="6.19386">
        <ele>1439.2</ele>
        <time>2021-02-17T07:45:18Z</time>
      </trkpt>
      <trkpt lat="45.27965" lon="6.19385">
        <ele>1439.3</ele>
        <time>2021-02-17T07:45:19Z</time>
      </trkpt>
      <trkpt lat="45.27965" lon="6.19384">
        <ele>1439.4</ele>
        <time>2021-02-17T07:45:20Z</time>
      </trkpt>
      <trkpt lat="45.27965" lon="6.19383">
        <ele>1439.5</ele>
        <time>2021-02-17T07:45:21Z</time>
      </trkpt>
      <trkpt lat="45.27964" lon="6.19383">
        <ele>1439.6</ele>
        <time>2021-02-17T07:45:22Z</time>
      </trkpt>
      <trkpt lat="45.27964" lon="6.19382">
        <ele>1439.7</ele>
        <time>2021-02-17T07:45:23Z</time>
      </trkpt>
      <trkpt lat="45.27963" lon="6.19381">
        <ele>1439.9</ele>
        <time>2021-02-17T07:45:24Z</time>
      </trkpt>
      <trkpt lat="45.27963" lon="6.1938">
        <ele>1440</ele>
        <time>2021-02-17T07:45:25Z</time>
      </trkpt>
      <trkpt lat="45.27962" lon="6.19378">
        <ele>1440.2</ele>
        <time>2021-02-17T07:45:26Z</time>
      </trkpt>
      <trkpt lat="45.27962" lon="6.19377">
        <ele>1440.4</ele>
        <time>2021-02-17T07:45:27Z</time>
      </trkpt>
      <trkpt lat="45.27961" lon="6.19376">
        <ele>1440.6</ele>
        <time>2021-02-17T07:45:28Z</time>
      </trkpt>
      <trkpt lat="45.2796" lon="6.19374">
        <ele>1440.7</ele>
        <time>2021-02-17T07:45:29Z</time>
      </trkpt>
      <trkpt lat="45.2796" lon="6.19373">
        <ele>1440.9</ele>
        <time>2021-02-17T07:45:30Z</time>
      </trkpt>
      <trkpt lat="45.27959" lon="6.19372">
        <ele>1441</ele>
        <time>2021-02-17T07:45:31Z</time>
      </trkpt>
      <trkpt lat="45.27959" lon="6.19371">
        <ele>1441.2</ele>
        <time>2021-02-17T07:45:32Z</time>
      </trkpt>
      <trkpt lat="45.27958" lon="6.1937">
        <ele>1441.4</ele>
        <time>2021-02-17T07:45:33Z</time>
      </trkpt>
      <trkpt lat="45.27957" lon="6.19369">
        <ele>1441.6</ele>
        <time>2021-02-17T07:45:34Z</time>
      </trkpt>
      <trkpt lat="45.27956" lon="6.19368">
        <ele>1441.8</ele>
        <time>2021-02-17T07:45:35Z</time>
      </trkpt>
      <trkpt lat="45.27956" lon="6.19367">
        <ele>1441.9</ele>
        <time>2021-02-17T07:45:36Z</time>
      </trkpt>
      <trkpt lat="45.27955" lon="6.19365">
        <ele>1442.2</ele>
        <time>2021-02-17T07:45:37Z</time>
      </trkpt>
      <trkpt lat="45.27954" lon="6.19364">
        <ele>1442.3</ele>
        <time>2021-02-17T07:45:38Z</time>
      </trkpt>
      <trkpt lat="45.27954" lon="6.19363">
        <ele>1442.4</ele>
        <time>2021-02-17T07:45:39Z</time>
      </trkpt>
      <trkpt lat="45.27953" lon="6.19363">
        <ele>1442.5</ele>
        <time>2021-02-17T07:45:40Z</time>
      </trkpt>
      <trkpt lat="45.27952" lon="6.19362">
        <ele>1442.7</ele>
        <time>2021-02-17T07:45:41Z</time>
      </trkpt>
      <trkpt lat="45.27951" lon="6.1936">
        <ele>1442.9</ele>
        <time>2021-02-17T07:45:42Z</time>
      </trkpt>
      <trkpt lat="45.27951" lon="6.19359">
        <ele>1443.1</ele>
        <time>2021-02-17T07:45:43Z</time>
      </trkpt>
      <trkpt lat="45.2795" lon="6.19358">
        <ele>1443.2</ele>
        <time>2021-02-17T07:45:44Z</time>
      </trkpt>
      <trkpt lat="45.2795" lon="6.19357">
        <ele>1443.4</ele>
        <time>2021-02-17T07:45:45Z</time>
      </trkpt>
      <trkpt lat="45.27949" lon="6.19355">
        <ele>1443.5</ele>
        <time>2021-02-17T07:45:46Z</time>
      </trkpt>
      <trkpt lat="45.27949" lon="6.19354">
        <ele>1443.7</ele>
        <time>2021-02-17T07:45:47Z</time>
      </trkpt>
      <trkpt lat="45.27948" lon="6.19353">
        <ele>1443.8</ele>
        <time>2021-02-17T07:45:48Z</time>
      </trkpt>
      <trkpt lat="45.27948" lon="6.19352">
        <ele>1443.9</ele>
        <time>2021-02-17T07:45:49Z</time>
      </trkpt>
      <trkpt lat="45.27948" lon="6.19351">
        <ele>1444</ele>
        <time>2021-02-17T07:45:50Z</time>
      </trkpt>
      <trkpt lat="45.27948" lon="6.19351">
        <ele>1444.1</ele>
        <time>2021-02-17T07:45:51Z</time>
      </trkpt>
      <trkpt lat="45.27948" lon="6.1935">
        <ele>1444.2</ele>
        <time>2021-02-17T07:45:52Z</time>
      </trkpt>
      <trkpt lat="45.27947" lon="6.19349">
        <ele>1444.3</ele>
        <time>2021-02-17T07:45:53Z</time>
      </trkpt>
      <trkpt lat="45.27947" lon="6.19347">
        <ele>1444.5</ele>
        <time>2021-02-17T07:45:54Z</time>
      </trkpt>
      <trkpt lat="45.27946" lon="6.19346">
        <ele>1444.6</ele>
        <time>2021-02-17T07:45:55Z</time>
      </trkpt>
      <trkpt lat="45.27946" lon="6.19345">
        <ele>1444.8</ele>
        <time>2021-02-17T07:45:56Z</time>
      </trkpt>
      <trkpt lat="45.27946" lon="6.19344">
        <ele>1444.9</ele>
        <time>2021-02-17T07:45:57Z</time>
      </trkpt>
      <trkpt lat="45.27945" lon="6.19343">
        <ele>1445</ele>
        <time>2021-02-17T07:45:58Z</time>
      </trkpt>
      <trkpt lat="45.27945" lon="6.19342">
        <ele>1445.1</ele>
        <time>2021-02-17T07:45:59Z</time>
      </trkpt>
      <trkpt lat="45.27944" lon="6.19341">
        <ele>1445.3</ele>
        <time>2021-02-17T07:46:00Z</time>
      </trkpt>
      <trkpt lat="45.27943" lon="6.1934">
        <ele>1445.4</ele>
        <time>2021-02-17T07:46:01Z</time>
      </trkpt>
      <trkpt lat="45.27943" lon="6.19339">
        <ele>1445.6</ele>
        <time>2021-02-17T07:46:02Z</time>
      </trkpt>
      <trkpt lat="45.27942" lon="6.19338">
        <ele>1445.7</ele>
        <time>2021-02-17T07:46:03Z</time>
      </trkpt>
      <trkpt lat="45.27942" lon="6.19338">
        <ele>1445.7</ele>
        <time>2021-02-17T07:46:04Z</time>
      </trkpt>
      <trkpt lat="45.27942" lon="6.19337">
        <ele>1445.8</ele>
        <time>2021-02-17T07:46:05Z</time>
      </trkpt>
      <trkpt lat="45.27942" lon="6.19335">
        <ele>1445.9</ele>
        <time>2021-02-17T07:46:06Z</time>
      </trkpt>
      <trkpt lat="45.27941" lon="6.19334">
        <ele>1446.1</ele>
        <time>2021-02-17T07:46:07Z</time>
      </trkpt>
      <trkpt lat="45.27941" lon="6.19333">
        <ele>1446.2</ele>
        <time>2021-02-17T07:46:08Z</time>
      </trkpt>
      <trkpt lat="45.27941" lon="6.19333">
        <ele>1446.2</ele>
        <time>2021-02-17T07:46:09Z</time>
      </trkpt>
      <trkpt lat="45.27941" lon="6.19333">
        <ele>1446.3</ele>
        <time>2021-02-17T07:46:10Z</time>
      </trkpt>
      <trkpt lat="45.27941" lon="6.19333">
        <ele>1446.3</ele>
        <time>2021-02-17T07:46:11Z</time>
      </trkpt>
      <trkpt lat="45.27941" lon="6.19333">
        <ele>1446.3</ele>
        <time>2021-02-17T07:46:12Z</time>
      </trkpt>
      <trkpt lat="45.27941" lon="6.19333">
        <ele>1446.4</ele>
        <time>2021-02-17T07:46:13Z</time>
      </trkpt>
      <trkpt lat="45.27942" lon="6.19333">
        <ele>1446.4</ele>
        <time>2021-02-17T07:46:14Z</time>
      </trkpt>
      <trkpt lat="45.27942" lon="6.19333">
        <ele>1446.4</ele>
        <time>2021-02-17T07:46:15Z</time>
      </trkpt>
      <trkpt lat="45.27942" lon="6.19333">
        <ele>1446.4</ele>
        <time>2021-02-17T07:46:16Z</time>
      </trkpt>
      <trkpt lat="45.27942" lon="6.19334">
        <ele>1446.5</ele>
        <time>2021-02-17T07:46:17Z</time>
      </trkpt>
      <trkpt lat="45.27942" lon="6.19333">
        <ele>1446.6</ele>
        <time>2021-02-17T07:46:18Z</time>
      </trkpt>
      <trkpt lat="45.27943" lon="6.19325">
        <ele>1447.3</ele>
        <time>2021-02-17T07:46:25Z</time>
      </trkpt>
      <trkpt lat="45.27943" lon="6.19325">
        <ele>1448.8</ele>
        <time>2021-02-17T07:46:26Z</time>
      </trkpt>
      <trkpt lat="45.27943" lon="6.19324">
        <ele>1448.9</ele>
        <time>2021-02-17T07:46:27Z</time>
      </trkpt>
      <trkpt lat="45.27943" lon="6.19323">
        <ele>1449</ele>
        <time>2021-02-17T07:46:28Z</time>
      </trkpt>
      <trkpt lat="45.27943" lon="6.19322">
        <ele>1449.1</ele>
        <time>2021-02-17T07:46:29Z</time>
      </trkpt>
      <trkpt lat="45.27942" lon="6.19321">
        <ele>1449.2</ele>
        <time>2021-02-17T07:46:30Z</time>
      </trkpt>
      <trkpt lat="45.27942" lon="6.1932">
        <ele>1449.3</ele>
        <time>2021-02-17T07:46:31Z</time>
      </trkpt>
      <trkpt lat="45.27941" lon="6.19319">
        <ele>1449.4</ele>
        <time>2021-02-17T07:46:32Z</time>
      </trkpt>
      <trkpt lat="45.27941" lon="6.19319">
        <ele>1449.5</ele>
        <time>2021-02-17T07:46:33Z</time>
      </trkpt>
      <trkpt lat="45.27941" lon="6.19318">
        <ele>1449.6</ele>
        <time>2021-02-17T07:46:34Z</time>
      </trkpt>
      <trkpt lat="45.2794" lon="6.19318">
        <ele>1449.7</ele>
        <time>2021-02-17T07:46:35Z</time>
      </trkpt>
      <trkpt lat="45.27939" lon="6.19317">
        <ele>1449.8</ele>
        <time>2021-02-17T07:46:36Z</time>
      </trkpt>
      <trkpt lat="45.27939" lon="6.19317">
        <ele>1449.8</ele>
        <time>2021-02-17T07:46:37Z</time>
      </trkpt>
      <trkpt lat="45.27938" lon="6.19316">
        <ele>1450</ele>
        <time>2021-02-17T07:46:38Z</time>
      </trkpt>
      <trkpt lat="45.27937" lon="6.19316">
        <ele>1450.1</ele>
        <time>2021-02-17T07:46:39Z</time>
      </trkpt>
      <trkpt lat="45.27936" lon="6.19315">
        <ele>1450.2</ele>
        <time>2021-02-17T07:46:40Z</time>
      </trkpt>
      <trkpt lat="45.27936" lon="6.19315">
        <ele>1450.3</ele>
        <time>2021-02-17T07:46:41Z</time>
      </trkpt>
      <trkpt lat="45.27935" lon="6.19314">
        <ele>1450.5</ele>
        <time>2021-02-17T07:46:42Z</time>
      </trkpt>
      <trkpt lat="45.27934" lon="6.19314">
        <ele>1450.6</ele>
        <time>2021-02-17T07:46:43Z</time>
      </trkpt>
      <trkpt lat="45.27933" lon="6.19313">
        <ele>1450.8</ele>
        <time>2021-02-17T07:46:44Z</time>
      </trkpt>
      <trkpt lat="45.27932" lon="6.19312">
        <ele>1451</ele>
        <time>2021-02-17T07:46:45Z</time>
      </trkpt>
      <trkpt lat="45.27931" lon="6.19311">
        <ele>1451.2</ele>
        <time>2021-02-17T07:46:46Z</time>
      </trkpt>
      <trkpt lat="45.2793" lon="6.1931">
        <ele>1451.3</ele>
        <time>2021-02-17T07:46:47Z</time>
      </trkpt>
      <trkpt lat="45.27929" lon="6.19309">
        <ele>1451.4</ele>
        <time>2021-02-17T07:46:48Z</time>
      </trkpt>
      <trkpt lat="45.27928" lon="6.19309">
        <ele>1451.6</ele>
        <time>2021-02-17T07:46:49Z</time>
      </trkpt>
      <trkpt lat="45.27927" lon="6.19309">
        <ele>1451.7</ele>
        <time>2021-02-17T07:46:50Z</time>
      </trkpt>
      <trkpt lat="45.27926" lon="6.19308">
        <ele>1451.8</ele>
        <time>2021-02-17T07:46:51Z</time>
      </trkpt>
      <trkpt lat="45.27925" lon="6.19307">
        <ele>1452.1</ele>
        <time>2021-02-17T07:46:52Z</time>
      </trkpt>
      <trkpt lat="45.27924" lon="6.19306">
        <ele>1452.2</ele>
        <time>2021-02-17T07:46:53Z</time>
      </trkpt>
      <trkpt lat="45.27923" lon="6.19306">
        <ele>1452.3</ele>
        <time>2021-02-17T07:46:54Z</time>
      </trkpt>
      <trkpt lat="45.27922" lon="6.19305">
        <ele>1452.5</ele>
        <time>2021-02-17T07:46:55Z</time>
      </trkpt>
      <trkpt lat="45.27922" lon="6.19304">
        <ele>1452.6</ele>
        <time>2021-02-17T07:46:56Z</time>
      </trkpt>
      <trkpt lat="45.27922" lon="6.19304">
        <ele>1452.6</ele>
        <time>2021-02-17T07:46:57Z</time>
      </trkpt>
      <trkpt lat="45.27921" lon="6.19303">
        <ele>1452.7</ele>
        <time>2021-02-17T07:46:58Z</time>
      </trkpt>
      <trkpt lat="45.2792" lon="6.19301">
        <ele>1452.9</ele>
        <time>2021-02-17T07:46:59Z</time>
      </trkpt>
      <trkpt lat="45.27919" lon="6.193">
        <ele>1453.1</ele>
        <time>2021-02-17T07:47:00Z</time>
      </trkpt>
      <trkpt lat="45.27918" lon="6.19299">
        <ele>1453.2</ele>
        <time>2021-02-17T07:47:01Z</time>
      </trkpt>
      <trkpt lat="45.27918" lon="6.19299">
        <ele>1453.3</ele>
        <time>2021-02-17T07:47:02Z</time>
      </trkpt>
      <trkpt lat="45.27917" lon="6.19298">
        <ele>1453.5</ele>
        <time>2021-02-17T07:47:03Z</time>
      </trkpt>
      <trkpt lat="45.27916" lon="6.19296">
        <ele>1453.6</ele>
        <time>2021-02-17T07:47:04Z</time>
      </trkpt>
      <trkpt lat="45.27915" lon="6.19295">
        <ele>1453.8</ele>
        <time>2021-02-17T07:47:05Z</time>
      </trkpt>
      <trkpt lat="45.27914" lon="6.19294">
        <ele>1453.9</ele>
        <time>2021-02-17T07:47:06Z</time>
      </trkpt>
      <trkpt lat="45.27914" lon="6.19293">
        <ele>1454</ele>
        <time>2021-02-17T07:47:07Z</time>
      </trkpt>
      <trkpt lat="45.27913" lon="6.19293">
        <ele>1454.1</ele>
        <time>2021-02-17T07:47:08Z</time>
      </trkpt>
      <trkpt lat="45.27913" lon="6.19292">
        <ele>1454.1</ele>
        <time>2021-02-17T07:47:09Z</time>
      </trkpt>
      <trkpt lat="45.27913" lon="6.19291">
        <ele>1454.3</ele>
        <time>2021-02-17T07:47:10Z</time>
      </trkpt>
      <trkpt lat="45.27912" lon="6.1929">
        <ele>1454.4</ele>
        <time>2021-02-17T07:47:11Z</time>
      </trkpt>
      <trkpt lat="45.27912" lon="6.19289">
        <ele>1454.5</ele>
        <time>2021-02-17T07:47:12Z</time>
      </trkpt>
      <trkpt lat="45.27911" lon="6.19288">
        <ele>1454.5</ele>
        <time>2021-02-17T07:47:13Z</time>
      </trkpt>
      <trkpt lat="45.27911" lon="6.19287">
        <ele>1454.6</ele>
        <time>2021-02-17T07:47:14Z</time>
      </trkpt>
      <trkpt lat="45.27911" lon="6.19287">
        <ele>1454.7</ele>
        <time>2021-02-17T07:47:15Z</time>
      </trkpt>
      <trkpt lat="45.2791" lon="6.19285">
        <ele>1454.8</ele>
        <time>2021-02-17T07:47:16Z</time>
      </trkpt>
      <trkpt lat="45.27909" lon="6.19284">
        <ele>1454.9</ele>
        <time>2021-02-17T07:47:17Z</time>
      </trkpt>
      <trkpt lat="45.27909" lon="6.19283">
        <ele>1455</ele>
        <time>2021-02-17T07:47:18Z</time>
      </trkpt>
      <trkpt lat="45.27908" lon="6.19282">
        <ele>1455.1</ele>
        <time>2021-02-17T07:47:19Z</time>
      </trkpt>
      <trkpt lat="45.27908" lon="6.19282">
        <ele>1455.2</ele>
        <time>2021-02-17T07:47:20Z</time>
      </trkpt>
      <trkpt lat="45.27908" lon="6.19281">
        <ele>1455.3</ele>
        <time>2021-02-17T07:47:21Z</time>
      </trkpt>
      <trkpt lat="45.27907" lon="6.1928">
        <ele>1455.3</ele>
        <time>2021-02-17T07:47:22Z</time>
      </trkpt>
      <trkpt lat="45.27907" lon="6.19279">
        <ele>1455.4</ele>
        <time>2021-02-17T07:47:23Z</time>
      </trkpt>
      <trkpt lat="45.27906" lon="6.19278">
        <ele>1455.6</ele>
        <time>2021-02-17T07:47:24Z</time>
      </trkpt>
      <trkpt lat="45.27906" lon="6.19277">
        <ele>1455.7</ele>
        <time>2021-02-17T07:47:25Z</time>
      </trkpt>
      <trkpt lat="45.27905" lon="6.19276">
        <ele>1455.7</ele>
        <time>2021-02-17T07:47:26Z</time>
      </trkpt>
      <trkpt lat="45.27905" lon="6.19275">
        <ele>1455.8</ele>
        <time>2021-02-17T07:47:27Z</time>
      </trkpt>
      <trkpt lat="45.27904" lon="6.19275">
        <ele>1455.9</ele>
        <time>2021-02-17T07:47:28Z</time>
      </trkpt>
      <trkpt lat="45.27903" lon="6.19274">
        <ele>1456.1</ele>
        <time>2021-02-17T07:47:29Z</time>
      </trkpt>
      <trkpt lat="45.27902" lon="6.19273">
        <ele>1456.2</ele>
        <time>2021-02-17T07:47:30Z</time>
      </trkpt>
      <trkpt lat="45.27901" lon="6.19272">
        <ele>1456.3</ele>
        <time>2021-02-17T07:47:31Z</time>
      </trkpt>
      <trkpt lat="45.279" lon="6.19271">
        <ele>1456.4</ele>
        <time>2021-02-17T07:47:32Z</time>
      </trkpt>
      <trkpt lat="45.279" lon="6.1927">
        <ele>1456.6</ele>
        <time>2021-02-17T07:47:33Z</time>
      </trkpt>
      <trkpt lat="45.27899" lon="6.19269">
        <ele>1456.7</ele>
        <time>2021-02-17T07:47:34Z</time>
      </trkpt>
      <trkpt lat="45.27898" lon="6.19268">
        <ele>1456.8</ele>
        <time>2021-02-17T07:47:35Z</time>
      </trkpt>
      <trkpt lat="45.27897" lon="6.19267">
        <ele>1456.9</ele>
        <time>2021-02-17T07:47:36Z</time>
      </trkpt>
      <trkpt lat="45.27897" lon="6.19265">
        <ele>1457</ele>
        <time>2021-02-17T07:47:37Z</time>
      </trkpt>
      <trkpt lat="45.27896" lon="6.19264">
        <ele>1457.1</ele>
        <time>2021-02-17T07:47:38Z</time>
      </trkpt>
      <trkpt lat="45.27896" lon="6.19263">
        <ele>1457.1</ele>
        <time>2021-02-17T07:47:39Z</time>
      </trkpt>
      <trkpt lat="45.27896" lon="6.19262">
        <ele>1457.2</ele>
        <time>2021-02-17T07:47:40Z</time>
      </trkpt>
      <trkpt lat="45.27895" lon="6.19261">
        <ele>1457.3</ele>
        <time>2021-02-17T07:47:41Z</time>
      </trkpt>
      <trkpt lat="45.27895" lon="6.1926">
        <ele>1457.4</ele>
        <time>2021-02-17T07:47:42Z</time>
      </trkpt>
      <trkpt lat="45.27894" lon="6.19259">
        <ele>1457.4</ele>
        <time>2021-02-17T07:47:43Z</time>
      </trkpt>
      <trkpt lat="45.27893" lon="6.19258">
        <ele>1457.5</ele>
        <time>2021-02-17T07:47:44Z</time>
      </trkpt>
      <trkpt lat="45.27893" lon="6.19258">
        <ele>1457.5</ele>
        <time>2021-02-17T07:47:45Z</time>
      </trkpt>
      <trkpt lat="45.27893" lon="6.19257">
        <ele>1457.6</ele>
        <time>2021-02-17T07:47:46Z</time>
      </trkpt>
      <trkpt lat="45.27892" lon="6.19256">
        <ele>1457.6</ele>
        <time>2021-02-17T07:47:47Z</time>
      </trkpt>
      <trkpt lat="45.27892" lon="6.19255">
        <ele>1457.7</ele>
        <time>2021-02-17T07:47:48Z</time>
      </trkpt>
      <trkpt lat="45.27891" lon="6.19254">
        <ele>1457.8</ele>
        <time>2021-02-17T07:47:49Z</time>
      </trkpt>
      <trkpt lat="45.27891" lon="6.19253">
        <ele>1457.8</ele>
        <time>2021-02-17T07:47:50Z</time>
      </trkpt>
      <trkpt lat="45.27891" lon="6.19253">
        <ele>1457.9</ele>
        <time>2021-02-17T07:47:51Z</time>
      </trkpt>
      <trkpt lat="45.27891" lon="6.19251">
        <ele>1457.9</ele>
        <time>2021-02-17T07:47:52Z</time>
      </trkpt>
      <trkpt lat="45.2789" lon="6.1925">
        <ele>1458</ele>
        <time>2021-02-17T07:47:53Z</time>
      </trkpt>
      <trkpt lat="45.2789" lon="6.19249">
        <ele>1458</ele>
        <time>2021-02-17T07:47:54Z</time>
      </trkpt>
      <trkpt lat="45.2789" lon="6.19248">
        <ele>1458.1</ele>
        <time>2021-02-17T07:47:55Z</time>
      </trkpt>
      <trkpt lat="45.27889" lon="6.19247">
        <ele>1458.2</ele>
        <time>2021-02-17T07:47:56Z</time>
      </trkpt>
      <trkpt lat="45.27889" lon="6.19247">
        <ele>1458.2</ele>
        <time>2021-02-17T07:47:57Z</time>
      </trkpt>
      <trkpt lat="45.27889" lon="6.19246">
        <ele>1458.2</ele>
        <time>2021-02-17T07:47:58Z</time>
      </trkpt>
      <trkpt lat="45.27889" lon="6.19245">
        <ele>1458.3</ele>
        <time>2021-02-17T07:47:59Z</time>
      </trkpt>
      <trkpt lat="45.27888" lon="6.19243">
        <ele>1458.4</ele>
        <time>2021-02-17T07:48:00Z</time>
      </trkpt>
      <trkpt lat="45.27887" lon="6.19241">
        <ele>1458.5</ele>
        <time>2021-02-17T07:48:01Z</time>
      </trkpt>
      <trkpt lat="45.27886" lon="6.1924">
        <ele>1458.5</ele>
        <time>2021-02-17T07:48:02Z</time>
      </trkpt>
      <trkpt lat="45.27885" lon="6.19239">
        <ele>1458.6</ele>
        <time>2021-02-17T07:48:03Z</time>
      </trkpt>
      <trkpt lat="45.27884" lon="6.19238">
        <ele>1458.7</ele>
        <time>2021-02-17T07:48:04Z</time>
      </trkpt>
      <trkpt lat="45.27884" lon="6.19236">
        <ele>1458.7</ele>
        <time>2021-02-17T07:48:05Z</time>
      </trkpt>
      <trkpt lat="45.27883" lon="6.19236">
        <ele>1458.7</ele>
        <time>2021-02-17T07:48:06Z</time>
      </trkpt>
      <trkpt lat="45.27884" lon="6.19235">
        <ele>1458.8</ele>
        <time>2021-02-17T07:48:07Z</time>
      </trkpt>
      <trkpt lat="45.27884" lon="6.19234">
        <ele>1458.8</ele>
        <time>2021-02-17T07:48:08Z</time>
      </trkpt>
      <trkpt lat="45.27884" lon="6.19233">
        <ele>1458.8</ele>
        <time>2021-02-17T07:48:09Z</time>
      </trkpt>
      <trkpt lat="45.27884" lon="6.19233">
        <ele>1458.8</ele>
        <time>2021-02-17T07:48:10Z</time>
      </trkpt>
      <trkpt lat="45.27884" lon="6.19232">
        <ele>1458.9</ele>
        <time>2021-02-17T07:48:11Z</time>
      </trkpt>
      <trkpt lat="45.27885" lon="6.19231">
        <ele>1458.9</ele>
        <time>2021-02-17T07:48:12Z</time>
      </trkpt>
      <trkpt lat="45.27885" lon="6.19231">
        <ele>1458.9</ele>
        <time>2021-02-17T07:48:13Z</time>
      </trkpt>
      <trkpt lat="45.27885" lon="6.1923">
        <ele>1458.9</ele>
        <time>2021-02-17T07:48:14Z</time>
      </trkpt>
      <trkpt lat="45.27884" lon="6.19229">
        <ele>1459</ele>
        <time>2021-02-17T07:48:15Z</time>
      </trkpt>
      <trkpt lat="45.27884" lon="6.19228">
        <ele>1459</ele>
        <time>2021-02-17T07:48:16Z</time>
      </trkpt>
      <trkpt lat="45.27884" lon="6.19227">
        <ele>1459</ele>
        <time>2021-02-17T07:48:17Z</time>
      </trkpt>
      <trkpt lat="45.27883" lon="6.19226">
        <ele>1459</ele>
        <time>2021-02-17T07:48:18Z</time>
      </trkpt>
      <trkpt lat="45.27883" lon="6.19225">
        <ele>1459.1</ele>
        <time>2021-02-17T07:48:19Z</time>
      </trkpt>
      <trkpt lat="45.27882" lon="6.19224">
        <ele>1459.1</ele>
        <time>2021-02-17T07:48:20Z</time>
      </trkpt>
      <trkpt lat="45.27882" lon="6.19223">
        <ele>1459.1</ele>
        <time>2021-02-17T07:48:21Z</time>
      </trkpt>
      <trkpt lat="45.27882" lon="6.19222">
        <ele>1459.1</ele>
        <time>2021-02-17T07:48:22Z</time>
      </trkpt>
      <trkpt lat="45.27882" lon="6.19221">
        <ele>1459.1</ele>
        <time>2021-02-17T07:48:23Z</time>
      </trkpt>
      <trkpt lat="45.27882" lon="6.1922">
        <ele>1459.2</ele>
        <time>2021-02-17T07:48:24Z</time>
      </trkpt>
      <trkpt lat="45.27881" lon="6.19219">
        <ele>1459.2</ele>
        <time>2021-02-17T07:48:25Z</time>
      </trkpt>
      <trkpt lat="45.27881" lon="6.19218">
        <ele>1459.2</ele>
        <time>2021-02-17T07:48:26Z</time>
      </trkpt>
      <trkpt lat="45.27881" lon="6.19217">
        <ele>1459.2</ele>
        <time>2021-02-17T07:48:27Z</time>
      </trkpt>
      <trkpt lat="45.27881" lon="6.19216">
        <ele>1459.2</ele>
        <time>2021-02-17T07:48:28Z</time>
      </trkpt>
      <trkpt lat="45.27881" lon="6.19215">
        <ele>1459.2</ele>
        <time>2021-02-17T07:48:29Z</time>
      </trkpt>
      <trkpt lat="45.2788" lon="6.19214">
        <ele>1459.2</ele>
        <time>2021-02-17T07:48:30Z</time>
      </trkpt>
      <trkpt lat="45.27879" lon="6.19213">
        <ele>1459.3</ele>
        <time>2021-02-17T07:48:31Z</time>
      </trkpt>
      <trkpt lat="45.27879" lon="6.19212">
        <ele>1459.3</ele>
        <time>2021-02-17T07:48:32Z</time>
      </trkpt>
      <trkpt lat="45.27879" lon="6.19211">
        <ele>1459.3</ele>
        <time>2021-02-17T07:48:33Z</time>
      </trkpt>
      <trkpt lat="45.27879" lon="6.1921">
        <ele>1459.3</ele>
        <time>2021-02-17T07:48:34Z</time>
      </trkpt>
      <trkpt lat="45.27879" lon="6.19209">
        <ele>1459.3</ele>
        <time>2021-02-17T07:48:35Z</time>
      </trkpt>
      <trkpt lat="45.27879" lon="6.19207">
        <ele>1459.4</ele>
        <time>2021-02-17T07:48:36Z</time>
      </trkpt>
      <trkpt lat="45.27879" lon="6.19206">
        <ele>1459.4</ele>
        <time>2021-02-17T07:48:37Z</time>
      </trkpt>
      <trkpt lat="45.27878" lon="6.19205">
        <ele>1459.4</ele>
        <time>2021-02-17T07:48:38Z</time>
      </trkpt>
      <trkpt lat="45.27878" lon="6.19204">
        <ele>1459.4</ele>
        <time>2021-02-17T07:48:39Z</time>
      </trkpt>
      <trkpt lat="45.27878" lon="6.19203">
        <ele>1459.4</ele>
        <time>2021-02-17T07:48:40Z</time>
      </trkpt>
      <trkpt lat="45.27878" lon="6.19202">
        <ele>1459.4</ele>
        <time>2021-02-17T07:48:41Z</time>
      </trkpt>
      <trkpt lat="45.27878" lon="6.19201">
        <ele>1459.5</ele>
        <time>2021-02-17T07:48:42Z</time>
      </trkpt>
      <trkpt lat="45.27878" lon="6.19199">
        <ele>1459.5</ele>
        <time>2021-02-17T07:48:43Z</time>
      </trkpt>
      <trkpt lat="45.27878" lon="6.19198">
        <ele>1459.6</ele>
        <time>2021-02-17T07:48:44Z</time>
      </trkpt>
      <trkpt lat="45.27878" lon="6.19197">
        <ele>1459.6</ele>
        <time>2021-02-17T07:48:45Z</time>
      </trkpt>
      <trkpt lat="45.27878" lon="6.19196">
        <ele>1459.6</ele>
        <time>2021-02-17T07:48:46Z</time>
      </trkpt>
      <trkpt lat="45.27879" lon="6.19195">
        <ele>1459.7</ele>
        <time>2021-02-17T07:48:47Z</time>
      </trkpt>
      <trkpt lat="45.27879" lon="6.19193">
        <ele>1459.7</ele>
        <time>2021-02-17T07:48:48Z</time>
      </trkpt>
      <trkpt lat="45.27879" lon="6.19192">
        <ele>1459.8</ele>
        <time>2021-02-17T07:48:49Z</time>
      </trkpt>
      <trkpt lat="45.2788" lon="6.19191">
        <ele>1459.9</ele>
        <time>2021-02-17T07:48:50Z</time>
      </trkpt>
      <trkpt lat="45.2788" lon="6.19189">
        <ele>1459.9</ele>
        <time>2021-02-17T07:48:51Z</time>
      </trkpt>
      <trkpt lat="45.2788" lon="6.19188">
        <ele>1460</ele>
        <time>2021-02-17T07:48:52Z</time>
      </trkpt>
      <trkpt lat="45.2788" lon="6.19187">
        <ele>1460.1</ele>
        <time>2021-02-17T07:48:53Z</time>
      </trkpt>
      <trkpt lat="45.2788" lon="6.19186">
        <ele>1460.1</ele>
        <time>2021-02-17T07:48:54Z</time>
      </trkpt>
      <trkpt lat="45.2788" lon="6.19185">
        <ele>1460.2</ele>
        <time>2021-02-17T07:48:55Z</time>
      </trkpt>
      <trkpt lat="45.2788" lon="6.19184">
        <ele>1460.3</ele>
        <time>2021-02-17T07:48:56Z</time>
      </trkpt>
      <trkpt lat="45.27881" lon="6.19183">
        <ele>1460.3</ele>
        <time>2021-02-17T07:48:57Z</time>
      </trkpt>
      <trkpt lat="45.27881" lon="6.19182">
        <ele>1460.4</ele>
        <time>2021-02-17T07:48:58Z</time>
      </trkpt>
      <trkpt lat="45.27881" lon="6.19181">
        <ele>1460.5</ele>
        <time>2021-02-17T07:48:59Z</time>
      </trkpt>
      <trkpt lat="45.27882" lon="6.1918">
        <ele>1460.6</ele>
        <time>2021-02-17T07:49:00Z</time>
      </trkpt>
      <trkpt lat="45.27882" lon="6.19179">
        <ele>1460.7</ele>
        <time>2021-02-17T07:49:01Z</time>
      </trkpt>
      <trkpt lat="45.27883" lon="6.19178">
        <ele>1460.8</ele>
        <time>2021-02-17T07:49:02Z</time>
      </trkpt>
      <trkpt lat="45.27883" lon="6.19177">
        <ele>1460.9</ele>
        <time>2021-02-17T07:49:03Z</time>
      </trkpt>
      <trkpt lat="45.27883" lon="6.19176">
        <ele>1461</ele>
        <time>2021-02-17T07:49:04Z</time>
      </trkpt>
      <trkpt lat="45.27884" lon="6.19174">
        <ele>1461.1</ele>
        <time>2021-02-17T07:49:05Z</time>
      </trkpt>
      <trkpt lat="45.27884" lon="6.19173">
        <ele>1461.2</ele>
        <time>2021-02-17T07:49:06Z</time>
      </trkpt>
      <trkpt lat="45.27884" lon="6.19172">
        <ele>1461.4</ele>
        <time>2021-02-17T07:49:07Z</time>
      </trkpt>
      <trkpt lat="45.27884" lon="6.1917">
        <ele>1461.5</ele>
        <time>2021-02-17T07:49:08Z</time>
      </trkpt>
      <trkpt lat="45.27884" lon="6.19169">
        <ele>1461.6</ele>
        <time>2021-02-17T07:49:09Z</time>
      </trkpt>
      <trkpt lat="45.27884" lon="6.19168">
        <ele>1461.7</ele>
        <time>2021-02-17T07:49:10Z</time>
      </trkpt>
      <trkpt lat="45.27884" lon="6.19167">
        <ele>1461.8</ele>
        <time>2021-02-17T07:49:11Z</time>
      </trkpt>
      <trkpt lat="45.27884" lon="6.19166">
        <ele>1461.9</ele>
        <time>2021-02-17T07:49:12Z</time>
      </trkpt>
      <trkpt lat="45.27883" lon="6.19165">
        <ele>1462.1</ele>
        <time>2021-02-17T07:49:13Z</time>
      </trkpt>
      <trkpt lat="45.27882" lon="6.19164">
        <ele>1462.2</ele>
        <time>2021-02-17T07:49:14Z</time>
      </trkpt>
      <trkpt lat="45.27881" lon="6.19163">
        <ele>1462.3</ele>
        <time>2021-02-17T07:49:15Z</time>
      </trkpt>
      <trkpt lat="45.27881" lon="6.19163">
        <ele>1462.4</ele>
        <time>2021-02-17T07:49:16Z</time>
      </trkpt>
      <trkpt lat="45.2788" lon="6.19162">
        <ele>1462.5</ele>
        <time>2021-02-17T07:49:17Z</time>
      </trkpt>
      <trkpt lat="45.27879" lon="6.19162">
        <ele>1462.6</ele>
        <time>2021-02-17T07:49:18Z</time>
      </trkpt>
      <trkpt lat="45.27878" lon="6.19161">
        <ele>1462.7</ele>
        <time>2021-02-17T07:49:19Z</time>
      </trkpt>
      <trkpt lat="45.27877" lon="6.19161">
        <ele>1462.9</ele>
        <time>2021-02-17T07:49:20Z</time>
      </trkpt>
      <trkpt lat="45.27876" lon="6.19161">
        <ele>1463</ele>
        <time>2021-02-17T07:49:21Z</time>
      </trkpt>
      <trkpt lat="45.27875" lon="6.19161">
        <ele>1463.1</ele>
        <time>2021-02-17T07:49:22Z</time>
      </trkpt>
      <trkpt lat="45.27874" lon="6.19161">
        <ele>1463.2</ele>
        <time>2021-02-17T07:49:23Z</time>
      </trkpt>
      <trkpt lat="45.27873" lon="6.1916">
        <ele>1463.4</ele>
        <time>2021-02-17T07:49:24Z</time>
      </trkpt>
      <trkpt lat="45.27872" lon="6.1916">
        <ele>1463.5</ele>
        <time>2021-02-17T07:49:25Z</time>
      </trkpt>
      <trkpt lat="45.27871" lon="6.19159">
        <ele>1463.6</ele>
        <time>2021-02-17T07:49:26Z</time>
      </trkpt>
      <trkpt lat="45.2787" lon="6.19159">
        <ele>1463.7</ele>
        <time>2021-02-17T07:49:27Z</time>
      </trkpt>
      <trkpt lat="45.2787" lon="6.19158">
        <ele>1463.8</ele>
        <time>2021-02-17T07:49:28Z</time>
      </trkpt>
      <trkpt lat="45.27869" lon="6.19158">
        <ele>1463.9</ele>
        <time>2021-02-17T07:49:29Z</time>
      </trkpt>
      <trkpt lat="45.27868" lon="6.19157">
        <ele>1464</ele>
        <time>2021-02-17T07:49:30Z</time>
      </trkpt>
      <trkpt lat="45.27867" lon="6.19157">
        <ele>1464.1</ele>
        <time>2021-02-17T07:49:31Z</time>
      </trkpt>
      <trkpt lat="45.27866" lon="6.19155">
        <ele>1464.3</ele>
        <time>2021-02-17T07:49:32Z</time>
      </trkpt>
      <trkpt lat="45.27866" lon="6.19154">
        <ele>1464.4</ele>
        <time>2021-02-17T07:49:33Z</time>
      </trkpt>
      <trkpt lat="45.27865" lon="6.19153">
        <ele>1464.5</ele>
        <time>2021-02-17T07:49:34Z</time>
      </trkpt>
      <trkpt lat="45.27864" lon="6.19152">
        <ele>1464.6</ele>
        <time>2021-02-17T07:49:35Z</time>
      </trkpt>
      <trkpt lat="45.27864" lon="6.19152">
        <ele>1464.7</ele>
        <time>2021-02-17T07:49:36Z</time>
      </trkpt>
      <trkpt lat="45.27864" lon="6.19151">
        <ele>1464.7</ele>
        <time>2021-02-17T07:49:37Z</time>
      </trkpt>
      <trkpt lat="45.27863" lon="6.1915">
        <ele>1464.8</ele>
        <time>2021-02-17T07:49:38Z</time>
      </trkpt>
      <trkpt lat="45.27863" lon="6.19148">
        <ele>1464.9</ele>
        <time>2021-02-17T07:49:39Z</time>
      </trkpt>
      <trkpt lat="45.27863" lon="6.19147">
        <ele>1465</ele>
        <time>2021-02-17T07:49:40Z</time>
      </trkpt>
      <trkpt lat="45.27863" lon="6.19146">
        <ele>1465.1</ele>
        <time>2021-02-17T07:49:41Z</time>
      </trkpt>
      <trkpt lat="45.27863" lon="6.19145">
        <ele>1465.2</ele>
        <time>2021-02-17T07:49:42Z</time>
      </trkpt>
      <trkpt lat="45.27863" lon="6.19144">
        <ele>1465.3</ele>
        <time>2021-02-17T07:49:43Z</time>
      </trkpt>
      <trkpt lat="45.27864" lon="6.19144">
        <ele>1465.3</ele>
        <time>2021-02-17T07:49:44Z</time>
      </trkpt>
      <trkpt lat="45.27864" lon="6.19143">
        <ele>1465.4</ele>
        <time>2021-02-17T07:49:45Z</time>
      </trkpt>
      <trkpt lat="45.27864" lon="6.19142">
        <ele>1465.5</ele>
        <time>2021-02-17T07:49:46Z</time>
      </trkpt>
      <trkpt lat="45.27865" lon="6.19142">
        <ele>1465.5</ele>
        <time>2021-02-17T07:49:47Z</time>
      </trkpt>
      <trkpt lat="45.27865" lon="6.19141">
        <ele>1465.6</ele>
        <time>2021-02-17T07:49:48Z</time>
      </trkpt>
      <trkpt lat="45.27866" lon="6.1914">
        <ele>1465.7</ele>
        <time>2021-02-17T07:49:49Z</time>
      </trkpt>
      <trkpt lat="45.27866" lon="6.19139">
        <ele>1465.8</ele>
        <time>2021-02-17T07:49:50Z</time>
      </trkpt>
      <trkpt lat="45.27865" lon="6.19138">
        <ele>1465.8</ele>
        <time>2021-02-17T07:49:51Z</time>
      </trkpt>
      <trkpt lat="45.27865" lon="6.19138">
        <ele>1465.9</ele>
        <time>2021-02-17T07:49:52Z</time>
      </trkpt>
      <trkpt lat="45.27866" lon="6.19136">
        <ele>1466</ele>
        <time>2021-02-17T07:49:53Z</time>
      </trkpt>
      <trkpt lat="45.27867" lon="6.19134">
        <ele>1466.2</ele>
        <time>2021-02-17T07:49:54Z</time>
      </trkpt>
      <trkpt lat="45.27867" lon="6.19133">
        <ele>1466.3</ele>
        <time>2021-02-17T07:49:55Z</time>
      </trkpt>
      <trkpt lat="45.27868" lon="6.19131">
        <ele>1466.4</ele>
        <time>2021-02-17T07:49:56Z</time>
      </trkpt>
      <trkpt lat="45.27867" lon="6.19131">
        <ele>1466.5</ele>
        <time>2021-02-17T07:49:57Z</time>
      </trkpt>
      <trkpt lat="45.27867" lon="6.1913">
        <ele>1466.5</ele>
        <time>2021-02-17T07:49:58Z</time>
      </trkpt>
      <trkpt lat="45.27867" lon="6.19129">
        <ele>1466.6</ele>
        <time>2021-02-17T07:49:59Z</time>
      </trkpt>
      <trkpt lat="45.27866" lon="6.19128">
        <ele>1466.7</ele>
        <time>2021-02-17T07:50:00Z</time>
      </trkpt>
      <trkpt lat="45.27865" lon="6.19128">
        <ele>1466.8</ele>
        <time>2021-02-17T07:50:01Z</time>
      </trkpt>
      <trkpt lat="45.27865" lon="6.19127">
        <ele>1466.9</ele>
        <time>2021-02-17T07:50:02Z</time>
      </trkpt>
      <trkpt lat="45.27864" lon="6.19125">
        <ele>1467</ele>
        <time>2021-02-17T07:50:03Z</time>
      </trkpt>
      <trkpt lat="45.27864" lon="6.19124">
        <ele>1467.1</ele>
        <time>2021-02-17T07:50:04Z</time>
      </trkpt>
      <trkpt lat="45.27863" lon="6.19123">
        <ele>1467.2</ele>
        <time>2021-02-17T07:50:05Z</time>
      </trkpt>
      <trkpt lat="45.27863" lon="6.19122">
        <ele>1467.3</ele>
        <time>2021-02-17T07:50:06Z</time>
      </trkpt>
      <trkpt lat="45.27862" lon="6.19121">
        <ele>1467.4</ele>
        <time>2021-02-17T07:50:07Z</time>
      </trkpt>
      <trkpt lat="45.27862" lon="6.1912">
        <ele>1467.5</ele>
        <time>2021-02-17T07:50:08Z</time>
      </trkpt>
      <trkpt lat="45.27861" lon="6.19118">
        <ele>1467.6</ele>
        <time>2021-02-17T07:50:09Z</time>
      </trkpt>
      <trkpt lat="45.27861" lon="6.19117">
        <ele>1467.7</ele>
        <time>2021-02-17T07:50:10Z</time>
      </trkpt>
      <trkpt lat="45.27861" lon="6.19117">
        <ele>1467.7</ele>
        <time>2021-02-17T07:50:11Z</time>
      </trkpt>
      <trkpt lat="45.27861" lon="6.19115">
        <ele>1467.8</ele>
        <time>2021-02-17T07:50:12Z</time>
      </trkpt>
      <trkpt lat="45.27861" lon="6.19114">
        <ele>1467.9</ele>
        <time>2021-02-17T07:50:13Z</time>
      </trkpt>
      <trkpt lat="45.27861" lon="6.19113">
        <ele>1468</ele>
        <time>2021-02-17T07:50:14Z</time>
      </trkpt>
      <trkpt lat="45.2786" lon="6.19112">
        <ele>1468.1</ele>
        <time>2021-02-17T07:50:15Z</time>
      </trkpt>
      <trkpt lat="45.2786" lon="6.1911">
        <ele>1468.2</ele>
        <time>2021-02-17T07:50:16Z</time>
      </trkpt>
      <trkpt lat="45.2786" lon="6.19109">
        <ele>1468.3</ele>
        <time>2021-02-17T07:50:17Z</time>
      </trkpt>
      <trkpt lat="45.27859" lon="6.19108">
        <ele>1468.3</ele>
        <time>2021-02-17T07:50:18Z</time>
      </trkpt>
      <trkpt lat="45.27858" lon="6.19105">
        <ele>1468.6</ele>
        <time>2021-02-17T07:50:19Z</time>
      </trkpt>
      <trkpt lat="45.27858" lon="6.19104">
        <ele>1468.6</ele>
        <time>2021-02-17T07:50:20Z</time>
      </trkpt>
      <trkpt lat="45.27857" lon="6.19103">
        <ele>1468.7</ele>
        <time>2021-02-17T07:50:21Z</time>
      </trkpt>
      <trkpt lat="45.27857" lon="6.19103">
        <ele>1468.8</ele>
        <time>2021-02-17T07:50:22Z</time>
      </trkpt>
      <trkpt lat="45.27857" lon="6.19102">
        <ele>1468.8</ele>
        <time>2021-02-17T07:50:23Z</time>
      </trkpt>
      <trkpt lat="45.27857" lon="6.19102">
        <ele>1468.9</ele>
        <time>2021-02-17T07:50:24Z</time>
      </trkpt>
      <trkpt lat="45.27857" lon="6.19101">
        <ele>1468.9</ele>
        <time>2021-02-17T07:50:25Z</time>
      </trkpt>
      <trkpt lat="45.27857" lon="6.19099">
        <ele>1469</ele>
        <time>2021-02-17T07:50:26Z</time>
      </trkpt>
      <trkpt lat="45.27858" lon="6.19098">
        <ele>1469.1</ele>
        <time>2021-02-17T07:50:27Z</time>
      </trkpt>
      <trkpt lat="45.27858" lon="6.19097">
        <ele>1469.1</ele>
        <time>2021-02-17T07:50:28Z</time>
      </trkpt>
      <trkpt lat="45.27857" lon="6.19096">
        <ele>1469.2</ele>
        <time>2021-02-17T07:50:29Z</time>
      </trkpt>
      <trkpt lat="45.27857" lon="6.19095">
        <ele>1469.3</ele>
        <time>2021-02-17T07:50:30Z</time>
      </trkpt>
      <trkpt lat="45.27857" lon="6.19094">
        <ele>1469.3</ele>
        <time>2021-02-17T07:50:31Z</time>
      </trkpt>
      <trkpt lat="45.27856" lon="6.19093">
        <ele>1469.4</ele>
        <time>2021-02-17T07:50:32Z</time>
      </trkpt>
      <trkpt lat="45.27856" lon="6.19092">
        <ele>1469.5</ele>
        <time>2021-02-17T07:50:33Z</time>
      </trkpt>
      <trkpt lat="45.27855" lon="6.19091">
        <ele>1469.6</ele>
        <time>2021-02-17T07:50:34Z</time>
      </trkpt>
      <trkpt lat="45.27855" lon="6.1909">
        <ele>1469.6</ele>
        <time>2021-02-17T07:50:35Z</time>
      </trkpt>
      <trkpt lat="45.27855" lon="6.19089">
        <ele>1469.7</ele>
        <time>2021-02-17T07:50:36Z</time>
      </trkpt>
      <trkpt lat="45.27854" lon="6.19088">
        <ele>1469.8</ele>
        <time>2021-02-17T07:50:37Z</time>
      </trkpt>
      <trkpt lat="45.27854" lon="6.19087">
        <ele>1469.8</ele>
        <time>2021-02-17T07:50:38Z</time>
      </trkpt>
      <trkpt lat="45.27854" lon="6.19086">
        <ele>1470</ele>
        <time>2021-02-17T07:50:39Z</time>
      </trkpt>
      <trkpt lat="45.27853" lon="6.19085">
        <ele>1470</ele>
        <time>2021-02-17T07:50:40Z</time>
      </trkpt>
      <trkpt lat="45.27853" lon="6.19084">
        <ele>1470.1</ele>
        <time>2021-02-17T07:50:41Z</time>
      </trkpt>
      <trkpt lat="45.27852" lon="6.19083">
        <ele>1470.2</ele>
        <time>2021-02-17T07:50:42Z</time>
      </trkpt>
      <trkpt lat="45.27851" lon="6.1908">
        <ele>1470.3</ele>
        <time>2021-02-17T07:50:43Z</time>
      </trkpt>
      <trkpt lat="45.2785" lon="6.19079">
        <ele>1470.4</ele>
        <time>2021-02-17T07:50:44Z</time>
      </trkpt>
      <trkpt lat="45.2785" lon="6.19078">
        <ele>1470.5</ele>
        <time>2021-02-17T07:50:45Z</time>
      </trkpt>
      <trkpt lat="45.27849" lon="6.19077">
        <ele>1470.6</ele>
        <time>2021-02-17T07:50:46Z</time>
      </trkpt>
      <trkpt lat="45.27849" lon="6.19076">
        <ele>1470.7</ele>
        <time>2021-02-17T07:50:47Z</time>
      </trkpt>
      <trkpt lat="45.27848" lon="6.19075">
        <ele>1470.8</ele>
        <time>2021-02-17T07:50:48Z</time>
      </trkpt>
      <trkpt lat="45.27848" lon="6.19073">
        <ele>1470.9</ele>
        <time>2021-02-17T07:50:49Z</time>
      </trkpt>
      <trkpt lat="45.27848" lon="6.19071">
        <ele>1470.9</ele>
        <time>2021-02-17T07:50:50Z</time>
      </trkpt>
      <trkpt lat="45.27848" lon="6.1907">
        <ele>1471</ele>
        <time>2021-02-17T07:50:51Z</time>
      </trkpt>
      <trkpt lat="45.27848" lon="6.19069">
        <ele>1471.1</ele>
        <time>2021-02-17T07:50:52Z</time>
      </trkpt>
      <trkpt lat="45.27847" lon="6.19068">
        <ele>1471.2</ele>
        <time>2021-02-17T07:50:53Z</time>
      </trkpt>
      <trkpt lat="45.27847" lon="6.19067">
        <ele>1471.2</ele>
        <time>2021-02-17T07:50:54Z</time>
      </trkpt>
      <trkpt lat="45.27846" lon="6.19066">
        <ele>1471.3</ele>
        <time>2021-02-17T07:50:55Z</time>
      </trkpt>
      <trkpt lat="45.27846" lon="6.19065">
        <ele>1471.4</ele>
        <time>2021-02-17T07:50:56Z</time>
      </trkpt>
      <trkpt lat="45.27845" lon="6.19064">
        <ele>1471.5</ele>
        <time>2021-02-17T07:50:57Z</time>
      </trkpt>
      <trkpt lat="45.27845" lon="6.19062">
        <ele>1471.6</ele>
        <time>2021-02-17T07:50:58Z</time>
      </trkpt>
      <trkpt lat="45.27845" lon="6.19061">
        <ele>1471.7</ele>
        <time>2021-02-17T07:50:59Z</time>
      </trkpt>
      <trkpt lat="45.27844" lon="6.1906">
        <ele>1471.7</ele>
        <time>2021-02-17T07:51:00Z</time>
      </trkpt>
      <trkpt lat="45.27844" lon="6.19058">
        <ele>1471.8</ele>
        <time>2021-02-17T07:51:01Z</time>
      </trkpt>
      <trkpt lat="45.27844" lon="6.19057">
        <ele>1472</ele>
        <time>2021-02-17T07:51:02Z</time>
      </trkpt>
      <trkpt lat="45.27843" lon="6.19055">
        <ele>1472.1</ele>
        <time>2021-02-17T07:51:03Z</time>
      </trkpt>
      <trkpt lat="45.27843" lon="6.19054">
        <ele>1472.2</ele>
        <time>2021-02-17T07:51:04Z</time>
      </trkpt>
      <trkpt lat="45.27843" lon="6.19053">
        <ele>1472.2</ele>
        <time>2021-02-17T07:51:05Z</time>
      </trkpt>
      <trkpt lat="45.27843" lon="6.19052">
        <ele>1472.3</ele>
        <time>2021-02-17T07:51:06Z</time>
      </trkpt>
      <trkpt lat="45.27843" lon="6.19051">
        <ele>1472.4</ele>
        <time>2021-02-17T07:51:07Z</time>
      </trkpt>
      <trkpt lat="45.27843" lon="6.1905">
        <ele>1472.5</ele>
        <time>2021-02-17T07:51:08Z</time>
      </trkpt>
      <trkpt lat="45.27843" lon="6.19049">
        <ele>1472.6</ele>
        <time>2021-02-17T07:51:09Z</time>
      </trkpt>
      <trkpt lat="45.27843" lon="6.19048">
        <ele>1472.6</ele>
        <time>2021-02-17T07:51:10Z</time>
      </trkpt>
      <trkpt lat="45.27843" lon="6.19047">
        <ele>1472.7</ele>
        <time>2021-02-17T07:51:11Z</time>
      </trkpt>
      <trkpt lat="45.27842" lon="6.19046">
        <ele>1472.9</ele>
        <time>2021-02-17T07:51:12Z</time>
      </trkpt>
      <trkpt lat="45.27842" lon="6.19044">
        <ele>1473</ele>
        <time>2021-02-17T07:51:13Z</time>
      </trkpt>
      <trkpt lat="45.27842" lon="6.19044">
        <ele>1473.1</ele>
        <time>2021-02-17T07:51:14Z</time>
      </trkpt>
      <trkpt lat="45.27841" lon="6.19043">
        <ele>1473.2</ele>
        <time>2021-02-17T07:51:15Z</time>
      </trkpt>
      <trkpt lat="45.27841" lon="6.19041">
        <ele>1473.3</ele>
        <time>2021-02-17T07:51:16Z</time>
      </trkpt>
      <trkpt lat="45.27841" lon="6.1904">
        <ele>1473.4</ele>
        <time>2021-02-17T07:51:17Z</time>
      </trkpt>
      <trkpt lat="45.27841" lon="6.19039">
        <ele>1473.5</ele>
        <time>2021-02-17T07:51:18Z</time>
      </trkpt>
      <trkpt lat="45.27841" lon="6.19038">
        <ele>1473.6</ele>
        <time>2021-02-17T07:51:19Z</time>
      </trkpt>
      <trkpt lat="45.2784" lon="6.19037">
        <ele>1473.7</ele>
        <time>2021-02-17T07:51:20Z</time>
      </trkpt>
      <trkpt lat="45.2784" lon="6.19035">
        <ele>1473.9</ele>
        <time>2021-02-17T07:51:21Z</time>
      </trkpt>
      <trkpt lat="45.2784" lon="6.19034">
        <ele>1474</ele>
        <time>2021-02-17T07:51:22Z</time>
      </trkpt>
      <trkpt lat="45.27841" lon="6.19033">
        <ele>1474.2</ele>
        <time>2021-02-17T07:51:23Z</time>
      </trkpt>
      <trkpt lat="45.27841" lon="6.19031">
        <ele>1474.4</ele>
        <time>2021-02-17T07:51:24Z</time>
      </trkpt>
      <trkpt lat="45.27842" lon="6.1903">
        <ele>1474.6</ele>
        <time>2021-02-17T07:51:25Z</time>
      </trkpt>
      <trkpt lat="45.27842" lon="6.19029">
        <ele>1474.8</ele>
        <time>2021-02-17T07:51:26Z</time>
      </trkpt>
      <trkpt lat="45.27842" lon="6.19027">
        <ele>1474.9</ele>
        <time>2021-02-17T07:51:27Z</time>
      </trkpt>
      <trkpt lat="45.27842" lon="6.19026">
        <ele>1475.1</ele>
        <time>2021-02-17T07:51:28Z</time>
      </trkpt>
      <trkpt lat="45.27842" lon="6.19025">
        <ele>1475.3</ele>
        <time>2021-02-17T07:51:29Z</time>
      </trkpt>
      <trkpt lat="45.27843" lon="6.19024">
        <ele>1475.4</ele>
        <time>2021-02-17T07:51:30Z</time>
      </trkpt>
      <trkpt lat="45.27843" lon="6.19023">
        <ele>1475.6</ele>
        <time>2021-02-17T07:51:31Z</time>
      </trkpt>
      <trkpt lat="45.27843" lon="6.19021">
        <ele>1475.8</ele>
        <time>2021-02-17T07:51:32Z</time>
      </trkpt>
      <trkpt lat="45.27843" lon="6.1902">
        <ele>1476</ele>
        <time>2021-02-17T07:51:33Z</time>
      </trkpt>
      <trkpt lat="45.27843" lon="6.19019">
        <ele>1476.1</ele>
        <time>2021-02-17T07:51:34Z</time>
      </trkpt>
      <trkpt lat="45.27844" lon="6.19018">
        <ele>1476.3</ele>
        <time>2021-02-17T07:51:35Z</time>
      </trkpt>
      <trkpt lat="45.27844" lon="6.19017">
        <ele>1476.4</ele>
        <time>2021-02-17T07:51:36Z</time>
      </trkpt>
      <trkpt lat="45.27845" lon="6.19016">
        <ele>1476.6</ele>
        <time>2021-02-17T07:51:37Z</time>
      </trkpt>
      <trkpt lat="45.27845" lon="6.19015">
        <ele>1476.8</ele>
        <time>2021-02-17T07:51:38Z</time>
      </trkpt>
      <trkpt lat="45.27845" lon="6.19014">
        <ele>1477</ele>
        <time>2021-02-17T07:51:39Z</time>
      </trkpt>
      <trkpt lat="45.27846" lon="6.19013">
        <ele>1477.2</ele>
        <time>2021-02-17T07:51:40Z</time>
      </trkpt>
      <trkpt lat="45.27846" lon="6.19012">
        <ele>1477.4</ele>
        <time>2021-02-17T07:51:41Z</time>
      </trkpt>
      <trkpt lat="45.27847" lon="6.1901">
        <ele>1477.6</ele>
        <time>2021-02-17T07:51:42Z</time>
      </trkpt>
      <trkpt lat="45.27847" lon="6.1901">
        <ele>1477.7</ele>
        <time>2021-02-17T07:51:43Z</time>
      </trkpt>
      <trkpt lat="45.27847" lon="6.19009">
        <ele>1477.8</ele>
        <time>2021-02-17T07:51:44Z</time>
      </trkpt>
      <trkpt lat="45.27847" lon="6.19009">
        <ele>1477.9</ele>
        <time>2021-02-17T07:51:45Z</time>
      </trkpt>
      <trkpt lat="45.27847" lon="6.19008">
        <ele>1478</ele>
        <time>2021-02-17T07:51:46Z</time>
      </trkpt>
      <trkpt lat="45.27848" lon="6.19006">
        <ele>1478.2</ele>
        <time>2021-02-17T07:51:47Z</time>
      </trkpt>
      <trkpt lat="45.27848" lon="6.19005">
        <ele>1478.4</ele>
        <time>2021-02-17T07:51:48Z</time>
      </trkpt>
      <trkpt lat="45.27849" lon="6.19004">
        <ele>1478.6</ele>
        <time>2021-02-17T07:51:49Z</time>
      </trkpt>
      <trkpt lat="45.27849" lon="6.19003">
        <ele>1478.8</ele>
        <time>2021-02-17T07:51:50Z</time>
      </trkpt>
      <trkpt lat="45.2785" lon="6.19002">
        <ele>1479</ele>
        <time>2021-02-17T07:51:51Z</time>
      </trkpt>
      <trkpt lat="45.2785" lon="6.19002">
        <ele>1479.1</ele>
        <time>2021-02-17T07:51:52Z</time>
      </trkpt>
      <trkpt lat="45.27851" lon="6.19001">
        <ele>1479.3</ele>
        <time>2021-02-17T07:51:53Z</time>
      </trkpt>
      <trkpt lat="45.27851" lon="6.19">
        <ele>1479.4</ele>
        <time>2021-02-17T07:51:54Z</time>
      </trkpt>
      <trkpt lat="45.27851" lon="6.18999">
        <ele>1479.5</ele>
        <time>2021-02-17T07:51:55Z</time>
      </trkpt>
      <trkpt lat="45.27851" lon="6.18998">
        <ele>1479.6</ele>
        <time>2021-02-17T07:51:56Z</time>
      </trkpt>
      <trkpt lat="45.27852" lon="6.18998">
        <ele>1479.7</ele>
        <time>2021-02-17T07:51:57Z</time>
      </trkpt>
      <trkpt lat="45.27852" lon="6.18997">
        <ele>1479.8</ele>
        <time>2021-02-17T07:51:58Z</time>
      </trkpt>
      <trkpt lat="45.27852" lon="6.18996">
        <ele>1479.9</ele>
        <time>2021-02-17T07:51:59Z</time>
      </trkpt>
      <trkpt lat="45.27852" lon="6.18996">
        <ele>1480</ele>
        <time>2021-02-17T07:52:00Z</time>
      </trkpt>
      <trkpt lat="45.27852" lon="6.18995">
        <ele>1480.1</ele>
        <time>2021-02-17T07:52:01Z</time>
      </trkpt>
      <trkpt lat="45.2785" lon="6.1899">
        <ele>1480.9</ele>
        <time>2021-02-17T07:52:10Z</time>
      </trkpt>
      <trkpt lat="45.27849" lon="6.18989">
        <ele>1481</ele>
        <time>2021-02-17T07:52:11Z</time>
      </trkpt>
      <trkpt lat="45.27849" lon="6.18989">
        <ele>1481.1</ele>
        <time>2021-02-17T07:52:12Z</time>
      </trkpt>
      <trkpt lat="45.27848" lon="6.18988">
        <ele>1481.3</ele>
        <time>2021-02-17T07:52:13Z</time>
      </trkpt>
      <trkpt lat="45.27848" lon="6.18988">
        <ele>1481.4</ele>
        <time>2021-02-17T07:52:14Z</time>
      </trkpt>
      <trkpt lat="45.27847" lon="6.18987">
        <ele>1481.5</ele>
        <time>2021-02-17T07:52:15Z</time>
      </trkpt>
      <trkpt lat="45.27847" lon="6.18985">
        <ele>1481.7</ele>
        <time>2021-02-17T07:52:16Z</time>
      </trkpt>
      <trkpt lat="45.27846" lon="6.18984">
        <ele>1481.9</ele>
        <time>2021-02-17T07:52:17Z</time>
      </trkpt>
      <trkpt lat="45.27846" lon="6.18983">
        <ele>1482</ele>
        <time>2021-02-17T07:52:18Z</time>
      </trkpt>
      <trkpt lat="45.27845" lon="6.18983">
        <ele>1482.2</ele>
        <time>2021-02-17T07:52:19Z</time>
      </trkpt>
      <trkpt lat="45.27845" lon="6.18982">
        <ele>1482.3</ele>
        <time>2021-02-17T07:52:20Z</time>
      </trkpt>
      <trkpt lat="45.27845" lon="6.18981">
        <ele>1482.4</ele>
        <time>2021-02-17T07:52:21Z</time>
      </trkpt>
      <trkpt lat="45.27845" lon="6.1898">
        <ele>1482.6</ele>
        <time>2021-02-17T07:52:22Z</time>
      </trkpt>
      <trkpt lat="45.27845" lon="6.18979">
        <ele>1482.7</ele>
        <time>2021-02-17T07:52:23Z</time>
      </trkpt>
      <trkpt lat="45.27845" lon="6.18978">
        <ele>1482.8</ele>
        <time>2021-02-17T07:52:24Z</time>
      </trkpt>
      <trkpt lat="45.27845" lon="6.18977">
        <ele>1482.9</ele>
        <time>2021-02-17T07:52:25Z</time>
      </trkpt>
      <trkpt lat="45.27844" lon="6.18977">
        <ele>1482.9</ele>
        <time>2021-02-17T07:52:26Z</time>
      </trkpt>
      <trkpt lat="45.27844" lon="6.18976">
        <ele>1483</ele>
        <time>2021-02-17T07:52:27Z</time>
      </trkpt>
      <trkpt lat="45.27844" lon="6.18975">
        <ele>1483.1</ele>
        <time>2021-02-17T07:52:28Z</time>
      </trkpt>
      <trkpt lat="45.27844" lon="6.18974">
        <ele>1483.2</ele>
        <time>2021-02-17T07:52:29Z</time>
      </trkpt>
      <trkpt lat="45.27844" lon="6.18973">
        <ele>1483.4</ele>
        <time>2021-02-17T07:52:30Z</time>
      </trkpt>
      <trkpt lat="45.27844" lon="6.18972">
        <ele>1483.5</ele>
        <time>2021-02-17T07:52:31Z</time>
      </trkpt>
      <trkpt lat="45.27844" lon="6.18971">
        <ele>1483.6</ele>
        <time>2021-02-17T07:52:32Z</time>
      </trkpt>
      <trkpt lat="45.27844" lon="6.18971">
        <ele>1483.7</ele>
        <time>2021-02-17T07:52:33Z</time>
      </trkpt>
      <trkpt lat="45.27845" lon="6.1897">
        <ele>1483.8</ele>
        <time>2021-02-17T07:52:34Z</time>
      </trkpt>
      <trkpt lat="45.27845" lon="6.18969">
        <ele>1483.9</ele>
        <time>2021-02-17T07:52:35Z</time>
      </trkpt>
      <trkpt lat="45.27845" lon="6.18968">
        <ele>1484</ele>
        <time>2021-02-17T07:52:36Z</time>
      </trkpt>
      <trkpt lat="45.27845" lon="6.18966">
        <ele>1484.2</ele>
        <time>2021-02-17T07:52:37Z</time>
      </trkpt>
      <trkpt lat="45.27845" lon="6.18965">
        <ele>1484.3</ele>
        <time>2021-02-17T07:52:38Z</time>
      </trkpt>
      <trkpt lat="45.27845" lon="6.18964">
        <ele>1484.4</ele>
        <time>2021-02-17T07:52:39Z</time>
      </trkpt>
      <trkpt lat="45.27845" lon="6.18964">
        <ele>1484.5</ele>
        <time>2021-02-17T07:52:40Z</time>
      </trkpt>
      <trkpt lat="45.27845" lon="6.18963">
        <ele>1484.7</ele>
        <time>2021-02-17T07:52:41Z</time>
      </trkpt>
      <trkpt lat="45.27846" lon="6.18961">
        <ele>1484.8</ele>
        <time>2021-02-17T07:52:42Z</time>
      </trkpt>
      <trkpt lat="45.27846" lon="6.1896">
        <ele>1485</ele>
        <time>2021-02-17T07:52:43Z</time>
      </trkpt>
      <trkpt lat="45.27846" lon="6.18958">
        <ele>1485.2</ele>
        <time>2021-02-17T07:52:44Z</time>
      </trkpt>
      <trkpt lat="45.27846" lon="6.18957">
        <ele>1485.4</ele>
        <time>2021-02-17T07:52:45Z</time>
      </trkpt>
      <trkpt lat="45.27846" lon="6.18956">
        <ele>1485.6</ele>
        <time>2021-02-17T07:52:46Z</time>
      </trkpt>
      <trkpt lat="45.27847" lon="6.18954">
        <ele>1485.7</ele>
        <time>2021-02-17T07:52:47Z</time>
      </trkpt>
      <trkpt lat="45.27847" lon="6.18953">
        <ele>1485.9</ele>
        <time>2021-02-17T07:52:48Z</time>
      </trkpt>
      <trkpt lat="45.27847" lon="6.18952">
        <ele>1486.1</ele>
        <time>2021-02-17T07:52:49Z</time>
      </trkpt>
      <trkpt lat="45.27847" lon="6.1895">
        <ele>1486.3</ele>
        <time>2021-02-17T07:52:50Z</time>
      </trkpt>
      <trkpt lat="45.27847" lon="6.18949">
        <ele>1486.5</ele>
        <time>2021-02-17T07:52:51Z</time>
      </trkpt>
      <trkpt lat="45.27847" lon="6.18948">
        <ele>1486.6</ele>
        <time>2021-02-17T07:52:52Z</time>
      </trkpt>
      <trkpt lat="45.27847" lon="6.18947">
        <ele>1486.8</ele>
        <time>2021-02-17T07:52:53Z</time>
      </trkpt>
      <trkpt lat="45.27847" lon="6.18945">
        <ele>1486.9</ele>
        <time>2021-02-17T07:52:54Z</time>
      </trkpt>
      <trkpt lat="45.27848" lon="6.18944">
        <ele>1487.1</ele>
        <time>2021-02-17T07:52:55Z</time>
      </trkpt>
      <trkpt lat="45.27848" lon="6.18943">
        <ele>1487.3</ele>
        <time>2021-02-17T07:52:56Z</time>
      </trkpt>
      <trkpt lat="45.27848" lon="6.18942">
        <ele>1487.5</ele>
        <time>2021-02-17T07:52:57Z</time>
      </trkpt>
      <trkpt lat="45.27848" lon="6.1894">
        <ele>1487.7</ele>
        <time>2021-02-17T07:52:58Z</time>
      </trkpt>
      <trkpt lat="45.27848" lon="6.18939">
        <ele>1487.9</ele>
        <time>2021-02-17T07:52:59Z</time>
      </trkpt>
      <trkpt lat="45.27848" lon="6.18937">
        <ele>1488.1</ele>
        <time>2021-02-17T07:53:00Z</time>
      </trkpt>
      <trkpt lat="45.27849" lon="6.18936">
        <ele>1488.2</ele>
        <time>2021-02-17T07:53:01Z</time>
      </trkpt>
      <trkpt lat="45.27849" lon="6.18935">
        <ele>1488.4</ele>
        <time>2021-02-17T07:53:02Z</time>
      </trkpt>
      <trkpt lat="45.27849" lon="6.18934">
        <ele>1488.6</ele>
        <time>2021-02-17T07:53:03Z</time>
      </trkpt>
      <trkpt lat="45.27849" lon="6.18933">
        <ele>1488.6</ele>
        <time>2021-02-17T07:53:04Z</time>
      </trkpt>
      <trkpt lat="45.2785" lon="6.18931">
        <ele>1488.9</ele>
        <time>2021-02-17T07:53:05Z</time>
      </trkpt>
      <trkpt lat="45.2785" lon="6.1893">
        <ele>1489</ele>
        <time>2021-02-17T07:53:06Z</time>
      </trkpt>
      <trkpt lat="45.2785" lon="6.18929">
        <ele>1489.2</ele>
        <time>2021-02-17T07:53:07Z</time>
      </trkpt>
      <trkpt lat="45.2785" lon="6.18928">
        <ele>1489.2</ele>
        <time>2021-02-17T07:53:08Z</time>
      </trkpt>
      <trkpt lat="45.27851" lon="6.18926">
        <ele>1489.4</ele>
        <time>2021-02-17T07:53:09Z</time>
      </trkpt>
      <trkpt lat="45.27851" lon="6.18925">
        <ele>1489.6</ele>
        <time>2021-02-17T07:53:10Z</time>
      </trkpt>
      <trkpt lat="45.27852" lon="6.18924">
        <ele>1489.8</ele>
        <time>2021-02-17T07:53:11Z</time>
      </trkpt>
      <trkpt lat="45.27852" lon="6.18922">
        <ele>1490</ele>
        <time>2021-02-17T07:53:12Z</time>
      </trkpt>
      <trkpt lat="45.27852" lon="6.18921">
        <ele>1490</ele>
        <time>2021-02-17T07:53:13Z</time>
      </trkpt>
      <trkpt lat="45.27852" lon="6.1892">
        <ele>1490.2</ele>
        <time>2021-02-17T07:53:14Z</time>
      </trkpt>
      <trkpt lat="45.27852" lon="6.18919">
        <ele>1490.3</ele>
        <time>2021-02-17T07:53:15Z</time>
      </trkpt>
      <trkpt lat="45.27852" lon="6.18918">
        <ele>1490.4</ele>
        <time>2021-02-17T07:53:16Z</time>
      </trkpt>
      <trkpt lat="45.27852" lon="6.18917">
        <ele>1490.5</ele>
        <time>2021-02-17T07:53:17Z</time>
      </trkpt>
      <trkpt lat="45.27852" lon="6.18916">
        <ele>1490.6</ele>
        <time>2021-02-17T07:53:18Z</time>
      </trkpt>
      <trkpt lat="45.27852" lon="6.18915">
        <ele>1490.7</ele>
        <time>2021-02-17T07:53:19Z</time>
      </trkpt>
      <trkpt lat="45.27852" lon="6.18914">
        <ele>1490.8</ele>
        <time>2021-02-17T07:53:20Z</time>
      </trkpt>
      <trkpt lat="45.27852" lon="6.18913">
        <ele>1490.9</ele>
        <time>2021-02-17T07:53:21Z</time>
      </trkpt>
      <trkpt lat="45.27851" lon="6.18912">
        <ele>1491.1</ele>
        <time>2021-02-17T07:53:22Z</time>
      </trkpt>
      <trkpt lat="45.27851" lon="6.1891">
        <ele>1491.2</ele>
        <time>2021-02-17T07:53:23Z</time>
      </trkpt>
      <trkpt lat="45.27851" lon="6.18909">
        <ele>1491.2</ele>
        <time>2021-02-17T07:53:24Z</time>
      </trkpt>
      <trkpt lat="45.27851" lon="6.18908">
        <ele>1491.3</ele>
        <time>2021-02-17T07:53:25Z</time>
      </trkpt>
      <trkpt lat="45.27851" lon="6.18907">
        <ele>1491.5</ele>
        <time>2021-02-17T07:53:26Z</time>
      </trkpt>
      <trkpt lat="45.27851" lon="6.18906">
        <ele>1491.6</ele>
        <time>2021-02-17T07:53:27Z</time>
      </trkpt>
      <trkpt lat="45.27851" lon="6.18904">
        <ele>1491.8</ele>
        <time>2021-02-17T07:53:28Z</time>
      </trkpt>
      <trkpt lat="45.27851" lon="6.18903">
        <ele>1491.9</ele>
        <time>2021-02-17T07:53:29Z</time>
      </trkpt>
      <trkpt lat="45.27851" lon="6.18902">
        <ele>1492</ele>
        <time>2021-02-17T07:53:30Z</time>
      </trkpt>
      <trkpt lat="45.27852" lon="6.189">
        <ele>1492.2</ele>
        <time>2021-02-17T07:53:31Z</time>
      </trkpt>
      <trkpt lat="45.27852" lon="6.18899">
        <ele>1492.2</ele>
        <time>2021-02-17T07:53:32Z</time>
      </trkpt>
      <trkpt lat="45.27853" lon="6.18898">
        <ele>1492.3</ele>
        <time>2021-02-17T07:53:33Z</time>
      </trkpt>
      <trkpt lat="45.27853" lon="6.18898">
        <ele>1492.4</ele>
        <time>2021-02-17T07:53:34Z</time>
      </trkpt>
      <trkpt lat="45.27854" lon="6.18896">
        <ele>1492.5</ele>
        <time>2021-02-17T07:53:35Z</time>
      </trkpt>
      <trkpt lat="45.27855" lon="6.18895">
        <ele>1492.7</ele>
        <time>2021-02-17T07:53:36Z</time>
      </trkpt>
      <trkpt lat="45.27855" lon="6.18895">
        <ele>1492.8</ele>
        <time>2021-02-17T07:53:37Z</time>
      </trkpt>
      <trkpt lat="45.27857" lon="6.18894">
        <ele>1492.9</ele>
        <time>2021-02-17T07:53:38Z</time>
      </trkpt>
      <trkpt lat="45.27857" lon="6.18893">
        <ele>1493</ele>
        <time>2021-02-17T07:53:39Z</time>
      </trkpt>
      <trkpt lat="45.27858" lon="6.18892">
        <ele>1493.1</ele>
        <time>2021-02-17T07:53:40Z</time>
      </trkpt>
      <trkpt lat="45.27858" lon="6.18891">
        <ele>1493.1</ele>
        <time>2021-02-17T07:53:41Z</time>
      </trkpt>
      <trkpt lat="45.27859" lon="6.1889">
        <ele>1493.2</ele>
        <time>2021-02-17T07:53:42Z</time>
      </trkpt>
      <trkpt lat="45.27859" lon="6.18889">
        <ele>1493.3</ele>
        <time>2021-02-17T07:53:43Z</time>
      </trkpt>
      <trkpt lat="45.27859" lon="6.18889">
        <ele>1493.3</ele>
        <time>2021-02-17T07:53:44Z</time>
      </trkpt>
      <trkpt lat="45.2786" lon="6.18888">
        <ele>1493.4</ele>
        <time>2021-02-17T07:53:45Z</time>
      </trkpt>
      <trkpt lat="45.2786" lon="6.18887">
        <ele>1493.4</ele>
        <time>2021-02-17T07:53:46Z</time>
      </trkpt>
      <trkpt lat="45.2786" lon="6.18886">
        <ele>1493.5</ele>
        <time>2021-02-17T07:53:47Z</time>
      </trkpt>
      <trkpt lat="45.2786" lon="6.18885">
        <ele>1493.5</ele>
        <time>2021-02-17T07:53:48Z</time>
      </trkpt>
      <trkpt lat="45.2786" lon="6.18884">
        <ele>1493.6</ele>
        <time>2021-02-17T07:53:49Z</time>
      </trkpt>
      <trkpt lat="45.2786" lon="6.18883">
        <ele>1493.6</ele>
        <time>2021-02-17T07:53:50Z</time>
      </trkpt>
      <trkpt lat="45.2786" lon="6.18882">
        <ele>1493.7</ele>
        <time>2021-02-17T07:53:51Z</time>
      </trkpt>
      <trkpt lat="45.2786" lon="6.18881">
        <ele>1493.7</ele>
        <time>2021-02-17T07:53:52Z</time>
      </trkpt>
      <trkpt lat="45.27861" lon="6.1888">
        <ele>1493.8</ele>
        <time>2021-02-17T07:53:53Z</time>
      </trkpt>
      <trkpt lat="45.27861" lon="6.18879">
        <ele>1493.9</ele>
        <time>2021-02-17T07:53:54Z</time>
      </trkpt>
      <trkpt lat="45.27861" lon="6.18878">
        <ele>1493.9</ele>
        <time>2021-02-17T07:53:55Z</time>
      </trkpt>
      <trkpt lat="45.27862" lon="6.18877">
        <ele>1494</ele>
        <time>2021-02-17T07:53:56Z</time>
      </trkpt>
      <trkpt lat="45.27862" lon="6.18876">
        <ele>1494</ele>
        <time>2021-02-17T07:53:57Z</time>
      </trkpt>
      <trkpt lat="45.27863" lon="6.18875">
        <ele>1494.1</ele>
        <time>2021-02-17T07:53:58Z</time>
      </trkpt>
      <trkpt lat="45.27863" lon="6.18874">
        <ele>1494.1</ele>
        <time>2021-02-17T07:53:59Z</time>
      </trkpt>
      <trkpt lat="45.27864" lon="6.18872">
        <ele>1494.2</ele>
        <time>2021-02-17T07:54:00Z</time>
      </trkpt>
      <trkpt lat="45.27866" lon="6.18871">
        <ele>1494.3</ele>
        <time>2021-02-17T07:54:01Z</time>
      </trkpt>
      <trkpt lat="45.27866" lon="6.1887">
        <ele>1494.4</ele>
        <time>2021-02-17T07:54:02Z</time>
      </trkpt>
      <trkpt lat="45.27867" lon="6.18869">
        <ele>1494.4</ele>
        <time>2021-02-17T07:54:03Z</time>
      </trkpt>
      <trkpt lat="45.27868" lon="6.18868">
        <ele>1494.4</ele>
        <time>2021-02-17T07:54:04Z</time>
      </trkpt>
      <trkpt lat="45.27868" lon="6.18867">
        <ele>1494.5</ele>
        <time>2021-02-17T07:54:05Z</time>
      </trkpt>
      <trkpt lat="45.27868" lon="6.18865">
        <ele>1494.5</ele>
        <time>2021-02-17T07:54:06Z</time>
      </trkpt>
      <trkpt lat="45.27868" lon="6.18864">
        <ele>1494.6</ele>
        <time>2021-02-17T07:54:07Z</time>
      </trkpt>
      <trkpt lat="45.27868" lon="6.18863">
        <ele>1494.6</ele>
        <time>2021-02-17T07:54:08Z</time>
      </trkpt>
      <trkpt lat="45.27868" lon="6.18862">
        <ele>1494.7</ele>
        <time>2021-02-17T07:54:09Z</time>
      </trkpt>
      <trkpt lat="45.27868" lon="6.18861">
        <ele>1494.7</ele>
        <time>2021-02-17T07:54:10Z</time>
      </trkpt>
      <trkpt lat="45.27869" lon="6.1886">
        <ele>1494.6</ele>
        <time>2021-02-17T07:54:11Z</time>
      </trkpt>
      <trkpt lat="45.27869" lon="6.18859">
        <ele>1494.7</ele>
        <time>2021-02-17T07:54:12Z</time>
      </trkpt>
      <trkpt lat="45.27869" lon="6.18858">
        <ele>1494.7</ele>
        <time>2021-02-17T07:54:13Z</time>
      </trkpt>
      <trkpt lat="45.2787" lon="6.18857">
        <ele>1494.8</ele>
        <time>2021-02-17T07:54:14Z</time>
      </trkpt>
      <trkpt lat="45.2787" lon="6.18855">
        <ele>1494.8</ele>
        <time>2021-02-17T07:54:15Z</time>
      </trkpt>
      <trkpt lat="45.27871" lon="6.18854">
        <ele>1494.8</ele>
        <time>2021-02-17T07:54:16Z</time>
      </trkpt>
      <trkpt lat="45.27872" lon="6.18853">
        <ele>1494.9</ele>
        <time>2021-02-17T07:54:17Z</time>
      </trkpt>
      <trkpt lat="45.27873" lon="6.18852">
        <ele>1494.9</ele>
        <time>2021-02-17T07:54:18Z</time>
      </trkpt>
      <trkpt lat="45.27873" lon="6.18851">
        <ele>1494.9</ele>
        <time>2021-02-17T07:54:19Z</time>
      </trkpt>
      <trkpt lat="45.27874" lon="6.1885">
        <ele>1495</ele>
        <time>2021-02-17T07:54:20Z</time>
      </trkpt>
      <trkpt lat="45.27875" lon="6.18849">
        <ele>1495</ele>
        <time>2021-02-17T07:54:21Z</time>
      </trkpt>
      <trkpt lat="45.27875" lon="6.18848">
        <ele>1495</ele>
        <time>2021-02-17T07:54:22Z</time>
      </trkpt>
      <trkpt lat="45.27876" lon="6.18847">
        <ele>1495.1</ele>
        <time>2021-02-17T07:54:23Z</time>
      </trkpt>
      <trkpt lat="45.27876" lon="6.18845">
        <ele>1495.1</ele>
        <time>2021-02-17T07:54:24Z</time>
      </trkpt>
      <trkpt lat="45.27877" lon="6.18844">
        <ele>1495</ele>
        <time>2021-02-17T07:54:25Z</time>
      </trkpt>
      <trkpt lat="45.27877" lon="6.18843">
        <ele>1495</ele>
        <time>2021-02-17T07:54:26Z</time>
      </trkpt>
      <trkpt lat="45.27878" lon="6.18842">
        <ele>1495.1</ele>
        <time>2021-02-17T07:54:27Z</time>
      </trkpt>
      <trkpt lat="45.27878" lon="6.18841">
        <ele>1495.1</ele>
        <time>2021-02-17T07:54:28Z</time>
      </trkpt>
      <trkpt lat="45.27879" lon="6.1884">
        <ele>1495.1</ele>
        <time>2021-02-17T07:54:29Z</time>
      </trkpt>
      <trkpt lat="45.27879" lon="6.18839">
        <ele>1495.1</ele>
        <time>2021-02-17T07:54:30Z</time>
      </trkpt>
      <trkpt lat="45.2788" lon="6.18838">
        <ele>1495.1</ele>
        <time>2021-02-17T07:54:31Z</time>
      </trkpt>
      <trkpt lat="45.27881" lon="6.18837">
        <ele>1495.1</ele>
        <time>2021-02-17T07:54:32Z</time>
      </trkpt>
      <trkpt lat="45.27883" lon="6.18835">
        <ele>1495.2</ele>
        <time>2021-02-17T07:54:33Z</time>
      </trkpt>
      <trkpt lat="45.27884" lon="6.18834">
        <ele>1495.2</ele>
        <time>2021-02-17T07:54:34Z</time>
      </trkpt>
      <trkpt lat="45.27885" lon="6.18833">
        <ele>1495.2</ele>
        <time>2021-02-17T07:54:35Z</time>
      </trkpt>
      <trkpt lat="45.27885" lon="6.18832">
        <ele>1495.3</ele>
        <time>2021-02-17T07:54:36Z</time>
      </trkpt>
      <trkpt lat="45.27886" lon="6.1883">
        <ele>1495.3</ele>
        <time>2021-02-17T07:54:37Z</time>
      </trkpt>
      <trkpt lat="45.27887" lon="6.18829">
        <ele>1495.3</ele>
        <time>2021-02-17T07:54:38Z</time>
      </trkpt>
      <trkpt lat="45.27887" lon="6.18828">
        <ele>1495.3</ele>
        <time>2021-02-17T07:54:39Z</time>
      </trkpt>
      <trkpt lat="45.27887" lon="6.18827">
        <ele>1495.4</ele>
        <time>2021-02-17T07:54:40Z</time>
      </trkpt>
      <trkpt lat="45.27888" lon="6.18825">
        <ele>1495.4</ele>
        <time>2021-02-17T07:54:41Z</time>
      </trkpt>
      <trkpt lat="45.27888" lon="6.18824">
        <ele>1495.4</ele>
        <time>2021-02-17T07:54:42Z</time>
      </trkpt>
      <trkpt lat="45.27888" lon="6.18823">
        <ele>1495.4</ele>
        <time>2021-02-17T07:54:43Z</time>
      </trkpt>
      <trkpt lat="45.27888" lon="6.18822">
        <ele>1495.5</ele>
        <time>2021-02-17T07:54:44Z</time>
      </trkpt>
      <trkpt lat="45.27889" lon="6.1882">
        <ele>1495.5</ele>
        <time>2021-02-17T07:54:45Z</time>
      </trkpt>
      <trkpt lat="45.27889" lon="6.18819">
        <ele>1495.5</ele>
        <time>2021-02-17T07:54:46Z</time>
      </trkpt>
      <trkpt lat="45.2789" lon="6.18817">
        <ele>1495.6</ele>
        <time>2021-02-17T07:54:47Z</time>
      </trkpt>
      <trkpt lat="45.2789" lon="6.18816">
        <ele>1495.6</ele>
        <time>2021-02-17T07:54:48Z</time>
      </trkpt>
      <trkpt lat="45.2789" lon="6.18815">
        <ele>1495.6</ele>
        <time>2021-02-17T07:54:49Z</time>
      </trkpt>
      <trkpt lat="45.27891" lon="6.18815">
        <ele>1495.7</ele>
        <time>2021-02-17T07:54:50Z</time>
      </trkpt>
      <trkpt lat="45.27891" lon="6.18813">
        <ele>1495.7</ele>
        <time>2021-02-17T07:54:51Z</time>
      </trkpt>
      <trkpt lat="45.27892" lon="6.18812">
        <ele>1495.7</ele>
        <time>2021-02-17T07:54:52Z</time>
      </trkpt>
      <trkpt lat="45.27892" lon="6.18811">
        <ele>1495.8</ele>
        <time>2021-02-17T07:54:53Z</time>
      </trkpt>
      <trkpt lat="45.27892" lon="6.1881">
        <ele>1495.8</ele>
        <time>2021-02-17T07:54:54Z</time>
      </trkpt>
      <trkpt lat="45.27892" lon="6.18808">
        <ele>1495.8</ele>
        <time>2021-02-17T07:54:55Z</time>
      </trkpt>
      <trkpt lat="45.27892" lon="6.18807">
        <ele>1495.9</ele>
        <time>2021-02-17T07:54:56Z</time>
      </trkpt>
      <trkpt lat="45.27893" lon="6.18806">
        <ele>1495.9</ele>
        <time>2021-02-17T07:54:57Z</time>
      </trkpt>
      <trkpt lat="45.27893" lon="6.18805">
        <ele>1495.9</ele>
        <time>2021-02-17T07:54:58Z</time>
      </trkpt>
      <trkpt lat="45.27893" lon="6.18804">
        <ele>1496</ele>
        <time>2021-02-17T07:54:59Z</time>
      </trkpt>
      <trkpt lat="45.27893" lon="6.18803">
        <ele>1496</ele>
        <time>2021-02-17T07:55:00Z</time>
      </trkpt>
      <trkpt lat="45.27893" lon="6.18803">
        <ele>1496</ele>
        <time>2021-02-17T07:55:01Z</time>
      </trkpt>
      <trkpt lat="45.27893" lon="6.18802">
        <ele>1496.1</ele>
        <time>2021-02-17T07:55:02Z</time>
      </trkpt>
      <trkpt lat="45.27893" lon="6.18801">
        <ele>1496.1</ele>
        <time>2021-02-17T07:55:03Z</time>
      </trkpt>
      <trkpt lat="45.27893" lon="6.18799">
        <ele>1496.1</ele>
        <time>2021-02-17T07:55:04Z</time>
      </trkpt>
      <trkpt lat="45.27893" lon="6.18798">
        <ele>1496.2</ele>
        <time>2021-02-17T07:55:05Z</time>
      </trkpt>
      <trkpt lat="45.27893" lon="6.18797">
        <ele>1496.2</ele>
        <time>2021-02-17T07:55:06Z</time>
      </trkpt>
      <trkpt lat="45.27893" lon="6.18795">
        <ele>1496.3</ele>
        <time>2021-02-17T07:55:07Z</time>
      </trkpt>
      <trkpt lat="45.27893" lon="6.18794">
        <ele>1496.3</ele>
        <time>2021-02-17T07:55:08Z</time>
      </trkpt>
      <trkpt lat="45.27894" lon="6.18794">
        <ele>1496.4</ele>
        <time>2021-02-17T07:55:09Z</time>
      </trkpt>
      <trkpt lat="45.27894" lon="6.18793">
        <ele>1496.4</ele>
        <time>2021-02-17T07:55:10Z</time>
      </trkpt>
      <trkpt lat="45.27894" lon="6.18792">
        <ele>1496.5</ele>
        <time>2021-02-17T07:55:11Z</time>
      </trkpt>
      <trkpt lat="45.27894" lon="6.18791">
        <ele>1496.5</ele>
        <time>2021-02-17T07:55:12Z</time>
      </trkpt>
      <trkpt lat="45.27894" lon="6.1879">
        <ele>1496.6</ele>
        <time>2021-02-17T07:55:13Z</time>
      </trkpt>
      <trkpt lat="45.27894" lon="6.18789">
        <ele>1496.6</ele>
        <time>2021-02-17T07:55:14Z</time>
      </trkpt>
      <trkpt lat="45.27894" lon="6.18788">
        <ele>1496.6</ele>
        <time>2021-02-17T07:55:15Z</time>
      </trkpt>
      <trkpt lat="45.27894" lon="6.18787">
        <ele>1496.7</ele>
        <time>2021-02-17T07:55:16Z</time>
      </trkpt>
      <trkpt lat="45.27894" lon="6.18786">
        <ele>1496.8</ele>
        <time>2021-02-17T07:55:17Z</time>
      </trkpt>
      <trkpt lat="45.27893" lon="6.18785">
        <ele>1496.8</ele>
        <time>2021-02-17T07:55:18Z</time>
      </trkpt>
      <trkpt lat="45.27893" lon="6.18784">
        <ele>1496.9</ele>
        <time>2021-02-17T07:55:19Z</time>
      </trkpt>
      <trkpt lat="45.27893" lon="6.18782">
        <ele>1496.9</ele>
        <time>2021-02-17T07:55:20Z</time>
      </trkpt>
      <trkpt lat="45.27893" lon="6.18781">
        <ele>1497</ele>
        <time>2021-02-17T07:55:21Z</time>
      </trkpt>
      <trkpt lat="45.27893" lon="6.1878">
        <ele>1497.1</ele>
        <time>2021-02-17T07:55:22Z</time>
      </trkpt>
      <trkpt lat="45.27893" lon="6.18779">
        <ele>1497.1</ele>
        <time>2021-02-17T07:55:23Z</time>
      </trkpt>
      <trkpt lat="45.27894" lon="6.18776">
        <ele>1497.3</ele>
        <time>2021-02-17T07:55:24Z</time>
      </trkpt>
      <trkpt lat="45.27894" lon="6.18775">
        <ele>1497.3</ele>
        <time>2021-02-17T07:55:25Z</time>
      </trkpt>
      <trkpt lat="45.27894" lon="6.18775">
        <ele>1497.4</ele>
        <time>2021-02-17T07:55:26Z</time>
      </trkpt>
      <trkpt lat="45.27895" lon="6.18774">
        <ele>1497.5</ele>
        <time>2021-02-17T07:55:27Z</time>
      </trkpt>
      <trkpt lat="45.27895" lon="6.18772">
        <ele>1497.6</ele>
        <time>2021-02-17T07:55:28Z</time>
      </trkpt>
      <trkpt lat="45.27895" lon="6.18771">
        <ele>1497.6</ele>
        <time>2021-02-17T07:55:29Z</time>
      </trkpt>
      <trkpt lat="45.27895" lon="6.18769">
        <ele>1497.7</ele>
        <time>2021-02-17T07:55:30Z</time>
      </trkpt>
      <trkpt lat="45.27896" lon="6.18768">
        <ele>1497.8</ele>
        <time>2021-02-17T07:55:31Z</time>
      </trkpt>
      <trkpt lat="45.27896" lon="6.18767">
        <ele>1497.9</ele>
        <time>2021-02-17T07:55:32Z</time>
      </trkpt>
      <trkpt lat="45.27896" lon="6.18766">
        <ele>1498</ele>
        <time>2021-02-17T07:55:33Z</time>
      </trkpt>
      <trkpt lat="45.27895" lon="6.18765">
        <ele>1498</ele>
        <time>2021-02-17T07:55:34Z</time>
      </trkpt>
      <trkpt lat="45.27895" lon="6.18763">
        <ele>1498.1</ele>
        <time>2021-02-17T07:55:35Z</time>
      </trkpt>
      <trkpt lat="45.27895" lon="6.18762">
        <ele>1498.2</ele>
        <time>2021-02-17T07:55:36Z</time>
      </trkpt>
      <trkpt lat="45.27895" lon="6.18761">
        <ele>1498.3</ele>
        <time>2021-02-17T07:55:37Z</time>
      </trkpt>
      <trkpt lat="45.27895" lon="6.1876">
        <ele>1498.4</ele>
        <time>2021-02-17T07:55:38Z</time>
      </trkpt>
      <trkpt lat="45.27895" lon="6.18758">
        <ele>1498.5</ele>
        <time>2021-02-17T07:55:39Z</time>
      </trkpt>
      <trkpt lat="45.27895" lon="6.18757">
        <ele>1498.6</ele>
        <time>2021-02-17T07:55:40Z</time>
      </trkpt>
      <trkpt lat="45.27895" lon="6.18756">
        <ele>1498.7</ele>
        <time>2021-02-17T07:55:41Z</time>
      </trkpt>
      <trkpt lat="45.27896" lon="6.18755">
        <ele>1498.8</ele>
        <time>2021-02-17T07:55:42Z</time>
      </trkpt>
      <trkpt lat="45.27896" lon="6.18754">
        <ele>1498.9</ele>
        <time>2021-02-17T07:55:43Z</time>
      </trkpt>
      <trkpt lat="45.27896" lon="6.18752">
        <ele>1499</ele>
        <time>2021-02-17T07:55:44Z</time>
      </trkpt>
      <trkpt lat="45.27896" lon="6.18751">
        <ele>1499.1</ele>
        <time>2021-02-17T07:55:45Z</time>
      </trkpt>
      <trkpt lat="45.27896" lon="6.1875">
        <ele>1499.2</ele>
        <time>2021-02-17T07:55:46Z</time>
      </trkpt>
      <trkpt lat="45.27897" lon="6.18749">
        <ele>1499.3</ele>
        <time>2021-02-17T07:55:47Z</time>
      </trkpt>
      <trkpt lat="45.27897" lon="6.18749">
        <ele>1499.3</ele>
        <time>2021-02-17T07:55:48Z</time>
      </trkpt>
      <trkpt lat="45.27897" lon="6.18748">
        <ele>1499.4</ele>
        <time>2021-02-17T07:55:49Z</time>
      </trkpt>
      <trkpt lat="45.27898" lon="6.18748">
        <ele>1499.5</ele>
        <time>2021-02-17T07:55:50Z</time>
      </trkpt>
      <trkpt lat="45.27898" lon="6.18746">
        <ele>1499.6</ele>
        <time>2021-02-17T07:55:51Z</time>
      </trkpt>
      <trkpt lat="45.27899" lon="6.18745">
        <ele>1499.7</ele>
        <time>2021-02-17T07:55:52Z</time>
      </trkpt>
      <trkpt lat="45.27899" lon="6.18744">
        <ele>1499.8</ele>
        <time>2021-02-17T07:55:53Z</time>
      </trkpt>
      <trkpt lat="45.279" lon="6.18743">
        <ele>1499.9</ele>
        <time>2021-02-17T07:55:54Z</time>
      </trkpt>
      <trkpt lat="45.279" lon="6.18742">
        <ele>1499.9</ele>
        <time>2021-02-17T07:55:55Z</time>
      </trkpt>
      <trkpt lat="45.279" lon="6.18741">
        <ele>1500</ele>
        <time>2021-02-17T07:55:56Z</time>
      </trkpt>
      <trkpt lat="45.279" lon="6.1874">
        <ele>1500.1</ele>
        <time>2021-02-17T07:55:57Z</time>
      </trkpt>
      <trkpt lat="45.279" lon="6.18739">
        <ele>1500.3</ele>
        <time>2021-02-17T07:55:58Z</time>
      </trkpt>
      <trkpt lat="45.279" lon="6.18737">
        <ele>1500.4</ele>
        <time>2021-02-17T07:55:59Z</time>
      </trkpt>
      <trkpt lat="45.279" lon="6.18736">
        <ele>1500.5</ele>
        <time>2021-02-17T07:56:00Z</time>
      </trkpt>
      <trkpt lat="45.279" lon="6.18735">
        <ele>1500.6</ele>
        <time>2021-02-17T07:56:01Z</time>
      </trkpt>
      <trkpt lat="45.279" lon="6.18733">
        <ele>1500.7</ele>
        <time>2021-02-17T07:56:02Z</time>
      </trkpt>
      <trkpt lat="45.279" lon="6.18732">
        <ele>1500.8</ele>
        <time>2021-02-17T07:56:03Z</time>
      </trkpt>
      <trkpt lat="45.27901" lon="6.1873">
        <ele>1501</ele>
        <time>2021-02-17T07:56:04Z</time>
      </trkpt>
      <trkpt lat="45.27901" lon="6.18729">
        <ele>1501.1</ele>
        <time>2021-02-17T07:56:05Z</time>
      </trkpt>
      <trkpt lat="45.27901" lon="6.18728">
        <ele>1501.2</ele>
        <time>2021-02-17T07:56:06Z</time>
      </trkpt>
      <trkpt lat="45.27901" lon="6.18727">
        <ele>1501.2</ele>
        <time>2021-02-17T07:56:07Z</time>
      </trkpt>
      <trkpt lat="45.27901" lon="6.18726">
        <ele>1501.3</ele>
        <time>2021-02-17T07:56:08Z</time>
      </trkpt>
      <trkpt lat="45.27901" lon="6.18725">
        <ele>1501.4</ele>
        <time>2021-02-17T07:56:09Z</time>
      </trkpt>
      <trkpt lat="45.27901" lon="6.18724">
        <ele>1501.5</ele>
        <time>2021-02-17T07:56:10Z</time>
      </trkpt>
      <trkpt lat="45.27902" lon="6.18723">
        <ele>1501.6</ele>
        <time>2021-02-17T07:56:11Z</time>
      </trkpt>
      <trkpt lat="45.27902" lon="6.18722">
        <ele>1501.7</ele>
        <time>2021-02-17T07:56:12Z</time>
      </trkpt>
      <trkpt lat="45.27902" lon="6.18721">
        <ele>1501.8</ele>
        <time>2021-02-17T07:56:13Z</time>
      </trkpt>
      <trkpt lat="45.27901" lon="6.18719">
        <ele>1501.9</ele>
        <time>2021-02-17T07:56:14Z</time>
      </trkpt>
      <trkpt lat="45.27901" lon="6.18718">
        <ele>1502</ele>
        <time>2021-02-17T07:56:15Z</time>
      </trkpt>
      <trkpt lat="45.27901" lon="6.18716">
        <ele>1502.2</ele>
        <time>2021-02-17T07:56:16Z</time>
      </trkpt>
      <trkpt lat="45.27901" lon="6.18715">
        <ele>1502.3</ele>
        <time>2021-02-17T07:56:17Z</time>
      </trkpt>
      <trkpt lat="45.27901" lon="6.18714">
        <ele>1502.3</ele>
        <time>2021-02-17T07:56:18Z</time>
      </trkpt>
      <trkpt lat="45.279" lon="6.18713">
        <ele>1502.4</ele>
        <time>2021-02-17T07:56:19Z</time>
      </trkpt>
      <trkpt lat="45.279" lon="6.18712">
        <ele>1502.5</ele>
        <time>2021-02-17T07:56:20Z</time>
      </trkpt>
      <trkpt lat="45.279" lon="6.18711">
        <ele>1502.6</ele>
        <time>2021-02-17T07:56:21Z</time>
      </trkpt>
      <trkpt lat="45.279" lon="6.1871">
        <ele>1502.7</ele>
        <time>2021-02-17T07:56:22Z</time>
      </trkpt>
      <trkpt lat="45.279" lon="6.18709">
        <ele>1502.8</ele>
        <time>2021-02-17T07:56:23Z</time>
      </trkpt>
      <trkpt lat="45.279" lon="6.18708">
        <ele>1502.9</ele>
        <time>2021-02-17T07:56:24Z</time>
      </trkpt>
      <trkpt lat="45.279" lon="6.18707">
        <ele>1503</ele>
        <time>2021-02-17T07:56:25Z</time>
      </trkpt>
      <trkpt lat="45.27899" lon="6.18706">
        <ele>1503.1</ele>
        <time>2021-02-17T07:56:26Z</time>
      </trkpt>
      <trkpt lat="45.27899" lon="6.18705">
        <ele>1503.1</ele>
        <time>2021-02-17T07:56:27Z</time>
      </trkpt>
      <trkpt lat="45.279" lon="6.18705">
        <ele>1503.2</ele>
        <time>2021-02-17T07:56:28Z</time>
      </trkpt>
      <trkpt lat="45.279" lon="6.18704">
        <ele>1503.3</ele>
        <time>2021-02-17T07:56:29Z</time>
      </trkpt>
      <trkpt lat="45.279" lon="6.18702">
        <ele>1503.4</ele>
        <time>2021-02-17T07:56:30Z</time>
      </trkpt>
      <trkpt lat="45.279" lon="6.18701">
        <ele>1503.5</ele>
        <time>2021-02-17T07:56:31Z</time>
      </trkpt>
      <trkpt lat="45.279" lon="6.187">
        <ele>1503.6</ele>
        <time>2021-02-17T07:56:32Z</time>
      </trkpt>
      <trkpt lat="45.279" lon="6.18699">
        <ele>1503.7</ele>
        <time>2021-02-17T07:56:33Z</time>
      </trkpt>
      <trkpt lat="45.27901" lon="6.18699">
        <ele>1503.8</ele>
        <time>2021-02-17T07:56:34Z</time>
      </trkpt>
      <trkpt lat="45.27901" lon="6.18698">
        <ele>1503.9</ele>
        <time>2021-02-17T07:56:35Z</time>
      </trkpt>
      <trkpt lat="45.27902" lon="6.18697">
        <ele>1504</ele>
        <time>2021-02-17T07:56:36Z</time>
      </trkpt>
      <trkpt lat="45.27902" lon="6.18696">
        <ele>1504.1</ele>
        <time>2021-02-17T07:56:37Z</time>
      </trkpt>
      <trkpt lat="45.27901" lon="6.18695">
        <ele>1504.2</ele>
        <time>2021-02-17T07:56:38Z</time>
      </trkpt>
      <trkpt lat="45.27901" lon="6.18693">
        <ele>1504.3</ele>
        <time>2021-02-17T07:56:39Z</time>
      </trkpt>
      <trkpt lat="45.279" lon="6.18692">
        <ele>1504.4</ele>
        <time>2021-02-17T07:56:40Z</time>
      </trkpt>
      <trkpt lat="45.279" lon="6.18691">
        <ele>1504.5</ele>
        <time>2021-02-17T07:56:41Z</time>
      </trkpt>
      <trkpt lat="45.279" lon="6.1869">
        <ele>1504.6</ele>
        <time>2021-02-17T07:56:42Z</time>
      </trkpt>
      <trkpt lat="45.279" lon="6.18689">
        <ele>1504.7</ele>
        <time>2021-02-17T07:56:43Z</time>
      </trkpt>
      <trkpt lat="45.279" lon="6.18688">
        <ele>1504.8</ele>
        <time>2021-02-17T07:56:44Z</time>
      </trkpt>
      <trkpt lat="45.279" lon="6.18687">
        <ele>1504.9</ele>
        <time>2021-02-17T07:56:45Z</time>
      </trkpt>
      <trkpt lat="45.27899" lon="6.18686">
        <ele>1505</ele>
        <time>2021-02-17T07:56:46Z</time>
      </trkpt>
      <trkpt lat="45.27899" lon="6.18684">
        <ele>1505.1</ele>
        <time>2021-02-17T07:56:47Z</time>
      </trkpt>
      <trkpt lat="45.27899" lon="6.18683">
        <ele>1505.2</ele>
        <time>2021-02-17T07:56:48Z</time>
      </trkpt>
      <trkpt lat="45.27899" lon="6.18682">
        <ele>1505.3</ele>
        <time>2021-02-17T07:56:49Z</time>
      </trkpt>
      <trkpt lat="45.279" lon="6.18682">
        <ele>1505.3</ele>
        <time>2021-02-17T07:56:50Z</time>
      </trkpt>
      <trkpt lat="45.279" lon="6.18681">
        <ele>1505.4</ele>
        <time>2021-02-17T07:56:51Z</time>
      </trkpt>
      <trkpt lat="45.279" lon="6.1868">
        <ele>1505.5</ele>
        <time>2021-02-17T07:56:52Z</time>
      </trkpt>
      <trkpt lat="45.279" lon="6.18679">
        <ele>1505.5</ele>
        <time>2021-02-17T07:56:53Z</time>
      </trkpt>
      <trkpt lat="45.27901" lon="6.18679">
        <ele>1505.6</ele>
        <time>2021-02-17T07:56:54Z</time>
      </trkpt>
      <trkpt lat="45.27901" lon="6.18678">
        <ele>1505.7</ele>
        <time>2021-02-17T07:56:55Z</time>
      </trkpt>
      <trkpt lat="45.27901" lon="6.18678">
        <ele>1505.7</ele>
        <time>2021-02-17T07:56:56Z</time>
      </trkpt>
      <trkpt lat="45.27902" lon="6.18678">
        <ele>1505.7</ele>
        <time>2021-02-17T07:56:57Z</time>
      </trkpt>
      <trkpt lat="45.27902" lon="6.18677">
        <ele>1505.8</ele>
        <time>2021-02-17T07:56:58Z</time>
      </trkpt>
      <trkpt lat="45.27902" lon="6.18676">
        <ele>1505.9</ele>
        <time>2021-02-17T07:56:59Z</time>
      </trkpt>
      <trkpt lat="45.27902" lon="6.18675">
        <ele>1505.9</ele>
        <time>2021-02-17T07:57:00Z</time>
      </trkpt>
      <trkpt lat="45.27901" lon="6.18674">
        <ele>1506</ele>
        <time>2021-02-17T07:57:01Z</time>
      </trkpt>
      <trkpt lat="45.27901" lon="6.18673">
        <ele>1506.1</ele>
        <time>2021-02-17T07:57:02Z</time>
      </trkpt>
      <trkpt lat="45.27901" lon="6.18671">
        <ele>1506.2</ele>
        <time>2021-02-17T07:57:03Z</time>
      </trkpt>
      <trkpt lat="45.27901" lon="6.18669">
        <ele>1506.3</ele>
        <time>2021-02-17T07:57:04Z</time>
      </trkpt>
      <trkpt lat="45.27901" lon="6.18668">
        <ele>1506.4</ele>
        <time>2021-02-17T07:57:05Z</time>
      </trkpt>
      <trkpt lat="45.27901" lon="6.18667">
        <ele>1506.4</ele>
        <time>2021-02-17T07:57:06Z</time>
      </trkpt>
      <trkpt lat="45.27901" lon="6.18666">
        <ele>1506.5</ele>
        <time>2021-02-17T07:57:07Z</time>
      </trkpt>
      <trkpt lat="45.27901" lon="6.18665">
        <ele>1506.6</ele>
        <time>2021-02-17T07:57:08Z</time>
      </trkpt>
      <trkpt lat="45.27901" lon="6.18664">
        <ele>1506.6</ele>
        <time>2021-02-17T07:57:09Z</time>
      </trkpt>
      <trkpt lat="45.27901" lon="6.18662">
        <ele>1506.7</ele>
        <time>2021-02-17T07:57:10Z</time>
      </trkpt>
      <trkpt lat="45.27901" lon="6.18661">
        <ele>1506.8</ele>
        <time>2021-02-17T07:57:11Z</time>
      </trkpt>
      <trkpt lat="45.27901" lon="6.1866">
        <ele>1506.8</ele>
        <time>2021-02-17T07:57:12Z</time>
      </trkpt>
      <trkpt lat="45.27901" lon="6.18659">
        <ele>1506.9</ele>
        <time>2021-02-17T07:57:13Z</time>
      </trkpt>
      <trkpt lat="45.27901" lon="6.18657">
        <ele>1507</ele>
        <time>2021-02-17T07:57:14Z</time>
      </trkpt>
      <trkpt lat="45.27901" lon="6.18656">
        <ele>1507.1</ele>
        <time>2021-02-17T07:57:15Z</time>
      </trkpt>
      <trkpt lat="45.27901" lon="6.18655">
        <ele>1507.1</ele>
        <time>2021-02-17T07:57:16Z</time>
      </trkpt>
      <trkpt lat="45.27901" lon="6.18654">
        <ele>1507.2</ele>
        <time>2021-02-17T07:57:17Z</time>
      </trkpt>
      <trkpt lat="45.27901" lon="6.18652">
        <ele>1507.3</ele>
        <time>2021-02-17T07:57:18Z</time>
      </trkpt>
      <trkpt lat="45.27901" lon="6.18651">
        <ele>1507.3</ele>
        <time>2021-02-17T07:57:19Z</time>
      </trkpt>
      <trkpt lat="45.27901" lon="6.1865">
        <ele>1507.4</ele>
        <time>2021-02-17T07:57:20Z</time>
      </trkpt>
      <trkpt lat="45.27901" lon="6.18648">
        <ele>1507.5</ele>
        <time>2021-02-17T07:57:21Z</time>
      </trkpt>
      <trkpt lat="45.27901" lon="6.18647">
        <ele>1507.6</ele>
        <time>2021-02-17T07:57:22Z</time>
      </trkpt>
      <trkpt lat="45.27901" lon="6.18646">
        <ele>1507.6</ele>
        <time>2021-02-17T07:57:23Z</time>
      </trkpt>
      <trkpt lat="45.27901" lon="6.18645">
        <ele>1507.7</ele>
        <time>2021-02-17T07:57:24Z</time>
      </trkpt>
      <trkpt lat="45.27901" lon="6.18644">
        <ele>1507.8</ele>
        <time>2021-02-17T07:57:25Z</time>
      </trkpt>
      <trkpt lat="45.27901" lon="6.18642">
        <ele>1507.8</ele>
        <time>2021-02-17T07:57:26Z</time>
      </trkpt>
      <trkpt lat="45.27901" lon="6.18642">
        <ele>1507.9</ele>
        <time>2021-02-17T07:57:27Z</time>
      </trkpt>
      <trkpt lat="45.27902" lon="6.18641">
        <ele>1507.9</ele>
        <time>2021-02-17T07:57:28Z</time>
      </trkpt>
      <trkpt lat="45.27902" lon="6.1864">
        <ele>1508</ele>
        <time>2021-02-17T07:57:29Z</time>
      </trkpt>
      <trkpt lat="45.27902" lon="6.18639">
        <ele>1508</ele>
        <time>2021-02-17T07:57:30Z</time>
      </trkpt>
      <trkpt lat="45.27902" lon="6.18639">
        <ele>1508</ele>
        <time>2021-02-17T07:57:31Z</time>
      </trkpt>
      <trkpt lat="45.27901" lon="6.18637">
        <ele>1508.1</ele>
        <time>2021-02-17T07:57:32Z</time>
      </trkpt>
      <trkpt lat="45.27901" lon="6.18636">
        <ele>1508.2</ele>
        <time>2021-02-17T07:57:33Z</time>
      </trkpt>
      <trkpt lat="45.27901" lon="6.18635">
        <ele>1508.3</ele>
        <time>2021-02-17T07:57:34Z</time>
      </trkpt>
      <trkpt lat="45.27901" lon="6.18634">
        <ele>1508.4</ele>
        <time>2021-02-17T07:57:35Z</time>
      </trkpt>
      <trkpt lat="45.279" lon="6.18633">
        <ele>1508.5</ele>
        <time>2021-02-17T07:57:36Z</time>
      </trkpt>
      <trkpt lat="45.279" lon="6.18631">
        <ele>1508.5</ele>
        <time>2021-02-17T07:57:37Z</time>
      </trkpt>
      <trkpt lat="45.279" lon="6.1863">
        <ele>1508.6</ele>
        <time>2021-02-17T07:57:38Z</time>
      </trkpt>
      <trkpt lat="45.279" lon="6.18629">
        <ele>1508.7</ele>
        <time>2021-02-17T07:57:39Z</time>
      </trkpt>
      <trkpt lat="45.279" lon="6.18629">
        <ele>1508.7</ele>
        <time>2021-02-17T07:57:40Z</time>
      </trkpt>
      <trkpt lat="45.279" lon="6.18628">
        <ele>1508.8</ele>
        <time>2021-02-17T07:57:41Z</time>
      </trkpt>
      <trkpt lat="45.279" lon="6.18628">
        <ele>1508.8</ele>
        <time>2021-02-17T07:57:42Z</time>
      </trkpt>
      <trkpt lat="45.279" lon="6.18628">
        <ele>1508.8</ele>
        <time>2021-02-17T07:57:43Z</time>
      </trkpt>
      <trkpt lat="45.279" lon="6.18628">
        <ele>1508.8</ele>
        <time>2021-02-17T07:57:44Z</time>
      </trkpt>
      <trkpt lat="45.279" lon="6.18628">
        <ele>1508.8</ele>
        <time>2021-02-17T07:57:45Z</time>
      </trkpt>
      <trkpt lat="45.279" lon="6.18628">
        <ele>1508.8</ele>
        <time>2021-02-17T07:57:46Z</time>
      </trkpt>
      <trkpt lat="45.279" lon="6.18628">
        <ele>1508.8</ele>
        <time>2021-02-17T07:57:47Z</time>
      </trkpt>
      <trkpt lat="45.279" lon="6.18628">
        <ele>1508.8</ele>
        <time>2021-02-17T07:57:48Z</time>
      </trkpt>
      <trkpt lat="45.279" lon="6.18628">
        <ele>1508.8</ele>
        <time>2021-02-17T07:57:49Z</time>
      </trkpt>
      <trkpt lat="45.279" lon="6.18628">
        <ele>1508.8</ele>
        <time>2021-02-17T07:57:50Z</time>
      </trkpt>
      <trkpt lat="45.27899" lon="6.18623">
        <ele>1509.1</ele>
        <time>2021-02-17T07:58:26Z</time>
      </trkpt>
      <trkpt lat="45.27899" lon="6.18622">
        <ele>1509.2</ele>
        <time>2021-02-17T07:58:27Z</time>
      </trkpt>
      <trkpt lat="45.27899" lon="6.1862">
        <ele>1509.3</ele>
        <time>2021-02-17T07:58:28Z</time>
      </trkpt>
      <trkpt lat="45.27898" lon="6.18619">
        <ele>1509.4</ele>
        <time>2021-02-17T07:58:29Z</time>
      </trkpt>
      <trkpt lat="45.27898" lon="6.18617">
        <ele>1509.6</ele>
        <time>2021-02-17T07:58:30Z</time>
      </trkpt>
      <trkpt lat="45.27899" lon="6.18616">
        <ele>1509.7</ele>
        <time>2021-02-17T07:58:31Z</time>
      </trkpt>
      <trkpt lat="45.27899" lon="6.18614">
        <ele>1509.8</ele>
        <time>2021-02-17T07:58:32Z</time>
      </trkpt>
      <trkpt lat="45.27899" lon="6.18613">
        <ele>1509.9</ele>
        <time>2021-02-17T07:58:33Z</time>
      </trkpt>
      <trkpt lat="45.27899" lon="6.18612">
        <ele>1510</ele>
        <time>2021-02-17T07:58:34Z</time>
      </trkpt>
      <trkpt lat="45.27899" lon="6.1861">
        <ele>1510.1</ele>
        <time>2021-02-17T07:58:35Z</time>
      </trkpt>
      <trkpt lat="45.27899" lon="6.18609">
        <ele>1510.2</ele>
        <time>2021-02-17T07:58:36Z</time>
      </trkpt>
      <trkpt lat="45.27899" lon="6.18608">
        <ele>1510.3</ele>
        <time>2021-02-17T07:58:37Z</time>
      </trkpt>
      <trkpt lat="45.27899" lon="6.18607">
        <ele>1510.4</ele>
        <time>2021-02-17T07:58:38Z</time>
      </trkpt>
      <trkpt lat="45.27899" lon="6.18606">
        <ele>1510.4</ele>
        <time>2021-02-17T07:58:39Z</time>
      </trkpt>
      <trkpt lat="45.27899" lon="6.18606">
        <ele>1510.5</ele>
        <time>2021-02-17T07:58:40Z</time>
      </trkpt>
      <trkpt lat="45.279" lon="6.18605">
        <ele>1510.5</ele>
        <time>2021-02-17T07:58:41Z</time>
      </trkpt>
      <trkpt lat="45.279" lon="6.18604">
        <ele>1510.6</ele>
        <time>2021-02-17T07:58:42Z</time>
      </trkpt>
      <trkpt lat="45.27901" lon="6.18603">
        <ele>1510.7</ele>
        <time>2021-02-17T07:58:43Z</time>
      </trkpt>
      <trkpt lat="45.27901" lon="6.18602">
        <ele>1510.8</ele>
        <time>2021-02-17T07:58:44Z</time>
      </trkpt>
      <trkpt lat="45.27901" lon="6.18602">
        <ele>1510.9</ele>
        <time>2021-02-17T07:58:45Z</time>
      </trkpt>
      <trkpt lat="45.27902" lon="6.186">
        <ele>1511</ele>
        <time>2021-02-17T07:58:46Z</time>
      </trkpt>
      <trkpt lat="45.27902" lon="6.18599">
        <ele>1511</ele>
        <time>2021-02-17T07:58:47Z</time>
      </trkpt>
      <trkpt lat="45.27902" lon="6.18598">
        <ele>1511.1</ele>
        <time>2021-02-17T07:58:48Z</time>
      </trkpt>
      <trkpt lat="45.27901" lon="6.18597">
        <ele>1511.2</ele>
        <time>2021-02-17T07:58:49Z</time>
      </trkpt>
      <trkpt lat="45.27901" lon="6.18596">
        <ele>1511.3</ele>
        <time>2021-02-17T07:58:50Z</time>
      </trkpt>
      <trkpt lat="45.27901" lon="6.18595">
        <ele>1511.4</ele>
        <time>2021-02-17T07:58:51Z</time>
      </trkpt>
      <trkpt lat="45.27901" lon="6.18594">
        <ele>1511.5</ele>
        <time>2021-02-17T07:58:52Z</time>
      </trkpt>
      <trkpt lat="45.27901" lon="6.18592">
        <ele>1511.6</ele>
        <time>2021-02-17T07:58:53Z</time>
      </trkpt>
      <trkpt lat="45.27902" lon="6.18591">
        <ele>1511.7</ele>
        <time>2021-02-17T07:58:54Z</time>
      </trkpt>
      <trkpt lat="45.27902" lon="6.1859">
        <ele>1511.8</ele>
        <time>2021-02-17T07:58:55Z</time>
      </trkpt>
      <trkpt lat="45.27902" lon="6.18589">
        <ele>1511.9</ele>
        <time>2021-02-17T07:58:56Z</time>
      </trkpt>
      <trkpt lat="45.27902" lon="6.18587">
        <ele>1512</ele>
        <time>2021-02-17T07:58:57Z</time>
      </trkpt>
      <trkpt lat="45.27903" lon="6.18587">
        <ele>1512.1</ele>
        <time>2021-02-17T07:58:58Z</time>
      </trkpt>
      <trkpt lat="45.27903" lon="6.18586">
        <ele>1512.2</ele>
        <time>2021-02-17T07:58:59Z</time>
      </trkpt>
      <trkpt lat="45.27904" lon="6.18584">
        <ele>1512.3</ele>
        <time>2021-02-17T07:59:00Z</time>
      </trkpt>
      <trkpt lat="45.27904" lon="6.18583">
        <ele>1512.4</ele>
        <time>2021-02-17T07:59:01Z</time>
      </trkpt>
      <trkpt lat="45.27904" lon="6.18582">
        <ele>1512.5</ele>
        <time>2021-02-17T07:59:02Z</time>
      </trkpt>
      <trkpt lat="45.27904" lon="6.18581">
        <ele>1512.6</ele>
        <time>2021-02-17T07:59:03Z</time>
      </trkpt>
      <trkpt lat="45.27904" lon="6.1858">
        <ele>1512.7</ele>
        <time>2021-02-17T07:59:04Z</time>
      </trkpt>
      <trkpt lat="45.27904" lon="6.18579">
        <ele>1512.7</ele>
        <time>2021-02-17T07:59:05Z</time>
      </trkpt>
      <trkpt lat="45.27904" lon="6.18578">
        <ele>1512.8</ele>
        <time>2021-02-17T07:59:06Z</time>
      </trkpt>
      <trkpt lat="45.27903" lon="6.18577">
        <ele>1513</ele>
        <time>2021-02-17T07:59:07Z</time>
      </trkpt>
      <trkpt lat="45.27903" lon="6.18577">
        <ele>1513</ele>
        <time>2021-02-17T07:59:08Z</time>
      </trkpt>
      <trkpt lat="45.27903" lon="6.18577">
        <ele>1513</ele>
        <time>2021-02-17T07:59:09Z</time>
      </trkpt>
      <trkpt lat="45.27903" lon="6.18577">
        <ele>1513</ele>
        <time>2021-02-17T07:59:10Z</time>
      </trkpt>
      <trkpt lat="45.27903" lon="6.18576">
        <ele>1513.1</ele>
        <time>2021-02-17T07:59:11Z</time>
      </trkpt>
      <trkpt lat="45.27902" lon="6.18574">
        <ele>1513.3</ele>
        <time>2021-02-17T07:59:12Z</time>
      </trkpt>
      <trkpt lat="45.27902" lon="6.18573">
        <ele>1513.4</ele>
        <time>2021-02-17T07:59:13Z</time>
      </trkpt>
      <trkpt lat="45.27901" lon="6.18572">
        <ele>1513.6</ele>
        <time>2021-02-17T07:59:14Z</time>
      </trkpt>
      <trkpt lat="45.279" lon="6.18572">
        <ele>1513.7</ele>
        <time>2021-02-17T07:59:15Z</time>
      </trkpt>
      <trkpt lat="45.279" lon="6.18571">
        <ele>1513.7</ele>
        <time>2021-02-17T07:59:16Z</time>
      </trkpt>
      <trkpt lat="45.279" lon="6.18571">
        <ele>1513.8</ele>
        <time>2021-02-17T07:59:17Z</time>
      </trkpt>
      <trkpt lat="45.279" lon="6.1857">
        <ele>1513.8</ele>
        <time>2021-02-17T07:59:18Z</time>
      </trkpt>
      <trkpt lat="45.279" lon="6.1857">
        <ele>1513.9</ele>
        <time>2021-02-17T07:59:19Z</time>
      </trkpt>
      <trkpt lat="45.279" lon="6.1857">
        <ele>1513.9</ele>
        <time>2021-02-17T07:59:20Z</time>
      </trkpt>
      <trkpt lat="45.279" lon="6.1857">
        <ele>1514</ele>
        <time>2021-02-17T07:59:21Z</time>
      </trkpt>
      <trkpt lat="45.27899" lon="6.1857">
        <ele>1514.1</ele>
        <time>2021-02-17T07:59:22Z</time>
      </trkpt>
      <trkpt lat="45.27898" lon="6.1857">
        <ele>1514.3</ele>
        <time>2021-02-17T07:59:23Z</time>
      </trkpt>
      <trkpt lat="45.27897" lon="6.1857">
        <ele>1514.5</ele>
        <time>2021-02-17T07:59:24Z</time>
      </trkpt>
      <trkpt lat="45.27896" lon="6.1857">
        <ele>1514.6</ele>
        <time>2021-02-17T07:59:25Z</time>
      </trkpt>
      <trkpt lat="45.27895" lon="6.1857">
        <ele>1514.8</ele>
        <time>2021-02-17T07:59:26Z</time>
      </trkpt>
      <trkpt lat="45.27894" lon="6.1857">
        <ele>1514.9</ele>
        <time>2021-02-17T07:59:27Z</time>
      </trkpt>
      <trkpt lat="45.27894" lon="6.1857">
        <ele>1515</ele>
        <time>2021-02-17T07:59:28Z</time>
      </trkpt>
      <trkpt lat="45.27894" lon="6.1857">
        <ele>1515</ele>
        <time>2021-02-17T07:59:29Z</time>
      </trkpt>
      <trkpt lat="45.27893" lon="6.1857">
        <ele>1515.1</ele>
        <time>2021-02-17T07:59:30Z</time>
      </trkpt>
      <trkpt lat="45.27892" lon="6.18569">
        <ele>1515.2</ele>
        <time>2021-02-17T07:59:31Z</time>
      </trkpt>
      <trkpt lat="45.27892" lon="6.18569">
        <ele>1515.2</ele>
        <time>2021-02-17T07:59:32Z</time>
      </trkpt>
      <trkpt lat="45.27892" lon="6.18568">
        <ele>1515.4</ele>
        <time>2021-02-17T07:59:33Z</time>
      </trkpt>
      <trkpt lat="45.27891" lon="6.18566">
        <ele>1515.7</ele>
        <time>2021-02-17T07:59:34Z</time>
      </trkpt>
      <trkpt lat="45.2789" lon="6.18566">
        <ele>1515.7</ele>
        <time>2021-02-17T07:59:35Z</time>
      </trkpt>
      <trkpt lat="45.2789" lon="6.18565">
        <ele>1515.8</ele>
        <time>2021-02-17T07:59:36Z</time>
      </trkpt>
      <trkpt lat="45.2789" lon="6.18565">
        <ele>1515.9</ele>
        <time>2021-02-17T07:59:37Z</time>
      </trkpt>
      <trkpt lat="45.27889" lon="6.18564">
        <ele>1516</ele>
        <time>2021-02-17T07:59:38Z</time>
      </trkpt>
      <trkpt lat="45.27889" lon="6.18564">
        <ele>1516</ele>
        <time>2021-02-17T07:59:39Z</time>
      </trkpt>
      <trkpt lat="45.27889" lon="6.18563">
        <ele>1516.1</ele>
        <time>2021-02-17T07:59:40Z</time>
      </trkpt>
      <trkpt lat="45.27888" lon="6.18563">
        <ele>1516.2</ele>
        <time>2021-02-17T07:59:41Z</time>
      </trkpt>
      <trkpt lat="45.27887" lon="6.18562">
        <ele>1516.3</ele>
        <time>2021-02-17T07:59:42Z</time>
      </trkpt>
      <trkpt lat="45.27887" lon="6.18562">
        <ele>1516.5</ele>
        <time>2021-02-17T07:59:43Z</time>
      </trkpt>
      <trkpt lat="45.27885" lon="6.18556">
        <ele>1517.2</ele>
        <time>2021-02-17T07:59:48Z</time>
      </trkpt>
      <trkpt lat="45.27885" lon="6.18556">
        <ele>1517.2</ele>
        <time>2021-02-17T07:59:49Z</time>
      </trkpt>
      <trkpt lat="45.27885" lon="6.18555">
        <ele>1517.3</ele>
        <time>2021-02-17T07:59:50Z</time>
      </trkpt>
      <trkpt lat="45.27884" lon="6.18554">
        <ele>1517.5</ele>
        <time>2021-02-17T07:59:51Z</time>
      </trkpt>
      <trkpt lat="45.27884" lon="6.18553">
        <ele>1517.6</ele>
        <time>2021-02-17T07:59:52Z</time>
      </trkpt>
      <trkpt lat="45.27884" lon="6.18552">
        <ele>1517.7</ele>
        <time>2021-02-17T07:59:53Z</time>
      </trkpt>
      <trkpt lat="45.27884" lon="6.18552">
        <ele>1517.8</ele>
        <time>2021-02-17T07:59:54Z</time>
      </trkpt>
      <trkpt lat="45.27884" lon="6.18551">
        <ele>1517.9</ele>
        <time>2021-02-17T07:59:55Z</time>
      </trkpt>
      <trkpt lat="45.27884" lon="6.1855">
        <ele>1518</ele>
        <time>2021-02-17T07:59:56Z</time>
      </trkpt>
      <trkpt lat="45.27884" lon="6.18549">
        <ele>1518.1</ele>
        <time>2021-02-17T07:59:57Z</time>
      </trkpt>
      <trkpt lat="45.27884" lon="6.18548">
        <ele>1518.2</ele>
        <time>2021-02-17T07:59:58Z</time>
      </trkpt>
      <trkpt lat="45.27884" lon="6.18548">
        <ele>1518.3</ele>
        <time>2021-02-17T07:59:59Z</time>
      </trkpt>
      <trkpt lat="45.27884" lon="6.18548">
        <ele>1518.3</ele>
        <time>2021-02-17T08:00:00Z</time>
      </trkpt>
      <trkpt lat="45.27884" lon="6.18547">
        <ele>1518.4</ele>
        <time>2021-02-17T08:00:01Z</time>
      </trkpt>
      <trkpt lat="45.27883" lon="6.1854">
        <ele>1519.4</ele>
        <time>2021-02-17T08:00:15Z</time>
      </trkpt>
      <trkpt lat="45.27882" lon="6.18539">
        <ele>1519.6</ele>
        <time>2021-02-17T08:00:16Z</time>
      </trkpt>
      <trkpt lat="45.27882" lon="6.18538">
        <ele>1519.7</ele>
        <time>2021-02-17T08:00:17Z</time>
      </trkpt>
      <trkpt lat="45.27882" lon="6.18537">
        <ele>1519.9</ele>
        <time>2021-02-17T08:00:18Z</time>
      </trkpt>
      <trkpt lat="45.27882" lon="6.18536">
        <ele>1520</ele>
        <time>2021-02-17T08:00:19Z</time>
      </trkpt>
      <trkpt lat="45.27881" lon="6.18535">
        <ele>1520.2</ele>
        <time>2021-02-17T08:00:20Z</time>
      </trkpt>
      <trkpt lat="45.27881" lon="6.18534">
        <ele>1520.4</ele>
        <time>2021-02-17T08:00:21Z</time>
      </trkpt>
      <trkpt lat="45.2788" lon="6.18533">
        <ele>1520.5</ele>
        <time>2021-02-17T08:00:22Z</time>
      </trkpt>
      <trkpt lat="45.2788" lon="6.18533">
        <ele>1520.6</ele>
        <time>2021-02-17T08:00:23Z</time>
      </trkpt>
      <trkpt lat="45.27879" lon="6.18533">
        <ele>1520.8</ele>
        <time>2021-02-17T08:00:24Z</time>
      </trkpt>
      <trkpt lat="45.27878" lon="6.18532">
        <ele>1520.9</ele>
        <time>2021-02-17T08:00:25Z</time>
      </trkpt>
      <trkpt lat="45.27878" lon="6.18532">
        <ele>1521.1</ele>
        <time>2021-02-17T08:00:26Z</time>
      </trkpt>
      <trkpt lat="45.27877" lon="6.18532">
        <ele>1521.2</ele>
        <time>2021-02-17T08:00:27Z</time>
      </trkpt>
      <trkpt lat="45.27876" lon="6.18531">
        <ele>1521.4</ele>
        <time>2021-02-17T08:00:28Z</time>
      </trkpt>
      <trkpt lat="45.27876" lon="6.1853">
        <ele>1521.5</ele>
        <time>2021-02-17T08:00:29Z</time>
      </trkpt>
      <trkpt lat="45.27876" lon="6.18529">
        <ele>1521.7</ele>
        <time>2021-02-17T08:00:30Z</time>
      </trkpt>
      <trkpt lat="45.27876" lon="6.18528">
        <ele>1521.8</ele>
        <time>2021-02-17T08:00:31Z</time>
      </trkpt>
      <trkpt lat="45.27876" lon="6.18527">
        <ele>1522</ele>
        <time>2021-02-17T08:00:32Z</time>
      </trkpt>
      <trkpt lat="45.27876" lon="6.18526">
        <ele>1522.1</ele>
        <time>2021-02-17T08:00:33Z</time>
      </trkpt>
      <trkpt lat="45.27877" lon="6.18525">
        <ele>1522.3</ele>
        <time>2021-02-17T08:00:34Z</time>
      </trkpt>
      <trkpt lat="45.27877" lon="6.18524">
        <ele>1522.4</ele>
        <time>2021-02-17T08:00:35Z</time>
      </trkpt>
      <trkpt lat="45.27877" lon="6.18524">
        <ele>1522.4</ele>
        <time>2021-02-17T08:00:36Z</time>
      </trkpt>
      <trkpt lat="45.27877" lon="6.18524">
        <ele>1522.4</ele>
        <time>2021-02-17T08:00:37Z</time>
      </trkpt>
      <trkpt lat="45.27877" lon="6.18524">
        <ele>1522.4</ele>
        <time>2021-02-17T08:00:38Z</time>
      </trkpt>
      <trkpt lat="45.27877" lon="6.18524">
        <ele>1522.4</ele>
        <time>2021-02-17T08:00:39Z</time>
      </trkpt>
      <trkpt lat="45.27877" lon="6.18524">
        <ele>1522.4</ele>
        <time>2021-02-17T08:00:40Z</time>
      </trkpt>
      <trkpt lat="45.27877" lon="6.18524">
        <ele>1522.4</ele>
        <time>2021-02-17T08:00:41Z</time>
      </trkpt>
      <trkpt lat="45.27877" lon="6.18524">
        <ele>1522.4</ele>
        <time>2021-02-17T08:00:42Z</time>
      </trkpt>
      <trkpt lat="45.27877" lon="6.18524">
        <ele>1522.4</ele>
        <time>2021-02-17T08:00:43Z</time>
      </trkpt>
      <trkpt lat="45.27877" lon="6.18524">
        <ele>1522.4</ele>
        <time>2021-02-17T08:00:44Z</time>
      </trkpt>
      <trkpt lat="45.27877" lon="6.18524">
        <ele>1522.4</ele>
        <time>2021-02-17T08:00:45Z</time>
      </trkpt>
      <trkpt lat="45.2788" lon="6.18519">
        <ele>1523.2</ele>
        <time>2021-02-17T08:01:18Z</time>
      </trkpt>
      <trkpt lat="45.2788" lon="6.18518">
        <ele>1523.4</ele>
        <time>2021-02-17T08:01:19Z</time>
      </trkpt>
      <trkpt lat="45.27879" lon="6.18517">
        <ele>1523.5</ele>
        <time>2021-02-17T08:01:20Z</time>
      </trkpt>
      <trkpt lat="45.27879" lon="6.18517">
        <ele>1523.7</ele>
        <time>2021-02-17T08:01:21Z</time>
      </trkpt>
      <trkpt lat="45.27879" lon="6.18516">
        <ele>1523.8</ele>
        <time>2021-02-17T08:01:22Z</time>
      </trkpt>
      <trkpt lat="45.2788" lon="6.18514">
        <ele>1524</ele>
        <time>2021-02-17T08:01:23Z</time>
      </trkpt>
      <trkpt lat="45.2788" lon="6.18512">
        <ele>1524.2</ele>
        <time>2021-02-17T08:01:24Z</time>
      </trkpt>
      <trkpt lat="45.2788" lon="6.18511">
        <ele>1524.4</ele>
        <time>2021-02-17T08:01:25Z</time>
      </trkpt>
      <trkpt lat="45.2788" lon="6.1851">
        <ele>1524.5</ele>
        <time>2021-02-17T08:01:26Z</time>
      </trkpt>
      <trkpt lat="45.2788" lon="6.18509">
        <ele>1524.6</ele>
        <time>2021-02-17T08:01:27Z</time>
      </trkpt>
      <trkpt lat="45.2788" lon="6.18508">
        <ele>1524.8</ele>
        <time>2021-02-17T08:01:28Z</time>
      </trkpt>
      <trkpt lat="45.2788" lon="6.18507">
        <ele>1524.9</ele>
        <time>2021-02-17T08:01:29Z</time>
      </trkpt>
      <trkpt lat="45.27881" lon="6.18506">
        <ele>1525.1</ele>
        <time>2021-02-17T08:01:30Z</time>
      </trkpt>
      <trkpt lat="45.27881" lon="6.18505">
        <ele>1525.2</ele>
        <time>2021-02-17T08:01:31Z</time>
      </trkpt>
      <trkpt lat="45.27881" lon="6.18504">
        <ele>1525.3</ele>
        <time>2021-02-17T08:01:32Z</time>
      </trkpt>
      <trkpt lat="45.27882" lon="6.18503">
        <ele>1525.4</ele>
        <time>2021-02-17T08:01:33Z</time>
      </trkpt>
      <trkpt lat="45.27882" lon="6.18502">
        <ele>1525.5</ele>
        <time>2021-02-17T08:01:34Z</time>
      </trkpt>
      <trkpt lat="45.27881" lon="6.18501">
        <ele>1525.7</ele>
        <time>2021-02-17T08:01:35Z</time>
      </trkpt>
      <trkpt lat="45.27881" lon="6.185">
        <ele>1525.8</ele>
        <time>2021-02-17T08:01:36Z</time>
      </trkpt>
      <trkpt lat="45.27881" lon="6.18499">
        <ele>1526</ele>
        <time>2021-02-17T08:01:37Z</time>
      </trkpt>
      <trkpt lat="45.27881" lon="6.18498">
        <ele>1526.1</ele>
        <time>2021-02-17T08:01:38Z</time>
      </trkpt>
      <trkpt lat="45.27881" lon="6.18497">
        <ele>1526.3</ele>
        <time>2021-02-17T08:01:39Z</time>
      </trkpt>
      <trkpt lat="45.27881" lon="6.18495">
        <ele>1526.4</ele>
        <time>2021-02-17T08:01:40Z</time>
      </trkpt>
      <trkpt lat="45.27881" lon="6.18495">
        <ele>1526.5</ele>
        <time>2021-02-17T08:01:41Z</time>
      </trkpt>
      <trkpt lat="45.27881" lon="6.18494">
        <ele>1526.7</ele>
        <time>2021-02-17T08:01:42Z</time>
      </trkpt>
      <trkpt lat="45.27882" lon="6.18492">
        <ele>1526.8</ele>
        <time>2021-02-17T08:01:43Z</time>
      </trkpt>
      <trkpt lat="45.27882" lon="6.18491">
        <ele>1527</ele>
        <time>2021-02-17T08:01:44Z</time>
      </trkpt>
      <trkpt lat="45.27882" lon="6.1849">
        <ele>1527.1</ele>
        <time>2021-02-17T08:01:45Z</time>
      </trkpt>
      <trkpt lat="45.27882" lon="6.18488">
        <ele>1527.3</ele>
        <time>2021-02-17T08:01:46Z</time>
      </trkpt>
      <trkpt lat="45.27882" lon="6.18487">
        <ele>1527.5</ele>
        <time>2021-02-17T08:01:47Z</time>
      </trkpt>
      <trkpt lat="45.27882" lon="6.18486">
        <ele>1527.7</ele>
        <time>2021-02-17T08:01:48Z</time>
      </trkpt>
      <trkpt lat="45.27882" lon="6.18484">
        <ele>1527.9</ele>
        <time>2021-02-17T08:01:49Z</time>
      </trkpt>
      <trkpt lat="45.27881" lon="6.18483">
        <ele>1528.1</ele>
        <time>2021-02-17T08:01:50Z</time>
      </trkpt>
      <trkpt lat="45.27881" lon="6.18481">
        <ele>1528.3</ele>
        <time>2021-02-17T08:01:51Z</time>
      </trkpt>
      <trkpt lat="45.27881" lon="6.1848">
        <ele>1528.5</ele>
        <time>2021-02-17T08:01:52Z</time>
      </trkpt>
      <trkpt lat="45.27881" lon="6.18478">
        <ele>1528.7</ele>
        <time>2021-02-17T08:01:53Z</time>
      </trkpt>
      <trkpt lat="45.27881" lon="6.18477">
        <ele>1528.9</ele>
        <time>2021-02-17T08:01:54Z</time>
      </trkpt>
      <trkpt lat="45.27881" lon="6.18476">
        <ele>1529.1</ele>
        <time>2021-02-17T08:01:55Z</time>
      </trkpt>
      <trkpt lat="45.27881" lon="6.18475">
        <ele>1529.2</ele>
        <time>2021-02-17T08:01:56Z</time>
      </trkpt>
      <trkpt lat="45.27881" lon="6.18474">
        <ele>1529.3</ele>
        <time>2021-02-17T08:01:57Z</time>
      </trkpt>
      <trkpt lat="45.27881" lon="6.18473">
        <ele>1529.5</ele>
        <time>2021-02-17T08:01:58Z</time>
      </trkpt>
      <trkpt lat="45.27882" lon="6.18472">
        <ele>1529.6</ele>
        <time>2021-02-17T08:01:59Z</time>
      </trkpt>
      <trkpt lat="45.27882" lon="6.18471">
        <ele>1529.8</ele>
        <time>2021-02-17T08:02:00Z</time>
      </trkpt>
      <trkpt lat="45.27883" lon="6.1847">
        <ele>1529.9</ele>
        <time>2021-02-17T08:02:01Z</time>
      </trkpt>
      <trkpt lat="45.27883" lon="6.1847">
        <ele>1530.1</ele>
        <time>2021-02-17T08:02:02Z</time>
      </trkpt>
      <trkpt lat="45.27884" lon="6.18469">
        <ele>1530.3</ele>
        <time>2021-02-17T08:02:03Z</time>
      </trkpt>
      <trkpt lat="45.27885" lon="6.18468">
        <ele>1530.5</ele>
        <time>2021-02-17T08:02:04Z</time>
      </trkpt>
      <trkpt lat="45.27885" lon="6.18467">
        <ele>1530.7</ele>
        <time>2021-02-17T08:02:05Z</time>
      </trkpt>
      <trkpt lat="45.27886" lon="6.18466">
        <ele>1530.8</ele>
        <time>2021-02-17T08:02:06Z</time>
      </trkpt>
      <trkpt lat="45.27887" lon="6.18466">
        <ele>1531</ele>
        <time>2021-02-17T08:02:07Z</time>
      </trkpt>
      <trkpt lat="45.27887" lon="6.18465">
        <ele>1531.1</ele>
        <time>2021-02-17T08:02:08Z</time>
      </trkpt>
      <trkpt lat="45.27888" lon="6.18465">
        <ele>1531.2</ele>
        <time>2021-02-17T08:02:09Z</time>
      </trkpt>
      <trkpt lat="45.27888" lon="6.18464">
        <ele>1531.3</ele>
        <time>2021-02-17T08:02:10Z</time>
      </trkpt>
      <trkpt lat="45.27888" lon="6.18463">
        <ele>1531.5</ele>
        <time>2021-02-17T08:02:11Z</time>
      </trkpt>
      <trkpt lat="45.27888" lon="6.18462">
        <ele>1531.6</ele>
        <time>2021-02-17T08:02:12Z</time>
      </trkpt>
      <trkpt lat="45.27889" lon="6.18462">
        <ele>1531.7</ele>
        <time>2021-02-17T08:02:13Z</time>
      </trkpt>
      <trkpt lat="45.2789" lon="6.18461">
        <ele>1531.9</ele>
        <time>2021-02-17T08:02:14Z</time>
      </trkpt>
      <trkpt lat="45.2789" lon="6.1846">
        <ele>1532</ele>
        <time>2021-02-17T08:02:15Z</time>
      </trkpt>
      <trkpt lat="45.2789" lon="6.18459">
        <ele>1532.1</ele>
        <time>2021-02-17T08:02:16Z</time>
      </trkpt>
      <trkpt lat="45.2789" lon="6.18458">
        <ele>1532.3</ele>
        <time>2021-02-17T08:02:17Z</time>
      </trkpt>
      <trkpt lat="45.2789" lon="6.18457">
        <ele>1532.5</ele>
        <time>2021-02-17T08:02:18Z</time>
      </trkpt>
      <trkpt lat="45.2789" lon="6.18456">
        <ele>1532.6</ele>
        <time>2021-02-17T08:02:19Z</time>
      </trkpt>
      <trkpt lat="45.2789" lon="6.18455">
        <ele>1532.7</ele>
        <time>2021-02-17T08:02:20Z</time>
      </trkpt>
      <trkpt lat="45.27889" lon="6.18455">
        <ele>1532.8</ele>
        <time>2021-02-17T08:02:21Z</time>
      </trkpt>
      <trkpt lat="45.2789" lon="6.18454">
        <ele>1532.8</ele>
        <time>2021-02-17T08:02:22Z</time>
      </trkpt>
      <trkpt lat="45.2789" lon="6.18454">
        <ele>1532.9</ele>
        <time>2021-02-17T08:02:23Z</time>
      </trkpt>
      <trkpt lat="45.2789" lon="6.18453">
        <ele>1533</ele>
        <time>2021-02-17T08:02:24Z</time>
      </trkpt>
      <trkpt lat="45.2789" lon="6.18452">
        <ele>1533.1</ele>
        <time>2021-02-17T08:02:25Z</time>
      </trkpt>
      <trkpt lat="45.2789" lon="6.18451">
        <ele>1533.2</ele>
        <time>2021-02-17T08:02:26Z</time>
      </trkpt>
      <trkpt lat="45.2789" lon="6.1845">
        <ele>1533.3</ele>
        <time>2021-02-17T08:02:27Z</time>
      </trkpt>
      <trkpt lat="45.2789" lon="6.1845">
        <ele>1533.4</ele>
        <time>2021-02-17T08:02:28Z</time>
      </trkpt>
      <trkpt lat="45.2789" lon="6.18449">
        <ele>1533.5</ele>
        <time>2021-02-17T08:02:29Z</time>
      </trkpt>
      <trkpt lat="45.2789" lon="6.18448">
        <ele>1533.6</ele>
        <time>2021-02-17T08:02:30Z</time>
      </trkpt>
      <trkpt lat="45.27895" lon="6.18435">
        <ele>1535.7</ele>
        <time>2021-02-17T08:03:07Z</time>
      </trkpt>
      <trkpt lat="45.27895" lon="6.18434">
        <ele>1535.9</ele>
        <time>2021-02-17T08:03:08Z</time>
      </trkpt>
      <trkpt lat="45.27895" lon="6.18432">
        <ele>1536.2</ele>
        <time>2021-02-17T08:03:09Z</time>
      </trkpt>
      <trkpt lat="45.27895" lon="6.18431">
        <ele>1536.3</ele>
        <time>2021-02-17T08:03:10Z</time>
      </trkpt>
      <trkpt lat="45.27895" lon="6.1843">
        <ele>1536.5</ele>
        <time>2021-02-17T08:03:11Z</time>
      </trkpt>
      <trkpt lat="45.27895" lon="6.18429">
        <ele>1536.6</ele>
        <time>2021-02-17T08:03:12Z</time>
      </trkpt>
      <trkpt lat="45.27895" lon="6.18428">
        <ele>1536.7</ele>
        <time>2021-02-17T08:03:13Z</time>
      </trkpt>
      <trkpt lat="45.27895" lon="6.18428">
        <ele>1536.8</ele>
        <time>2021-02-17T08:03:14Z</time>
      </trkpt>
      <trkpt lat="45.27895" lon="6.18427">
        <ele>1537</ele>
        <time>2021-02-17T08:03:15Z</time>
      </trkpt>
      <trkpt lat="45.27895" lon="6.18426">
        <ele>1537.1</ele>
        <time>2021-02-17T08:03:16Z</time>
      </trkpt>
      <trkpt lat="45.27895" lon="6.18425">
        <ele>1537.3</ele>
        <time>2021-02-17T08:03:17Z</time>
      </trkpt>
      <trkpt lat="45.27895" lon="6.18424">
        <ele>1537.5</ele>
        <time>2021-02-17T08:03:18Z</time>
      </trkpt>
      <trkpt lat="45.27895" lon="6.18423">
        <ele>1537.6</ele>
        <time>2021-02-17T08:03:19Z</time>
      </trkpt>
      <trkpt lat="45.27895" lon="6.18422">
        <ele>1537.7</ele>
        <time>2021-02-17T08:03:20Z</time>
      </trkpt>
      <trkpt lat="45.27895" lon="6.18421">
        <ele>1537.9</ele>
        <time>2021-02-17T08:03:21Z</time>
      </trkpt>
      <trkpt lat="45.27895" lon="6.1842">
        <ele>1538.2</ele>
        <time>2021-02-17T08:03:22Z</time>
      </trkpt>
      <trkpt lat="45.27895" lon="6.18418">
        <ele>1538.4</ele>
        <time>2021-02-17T08:03:23Z</time>
      </trkpt>
      <trkpt lat="45.27894" lon="6.18417">
        <ele>1538.7</ele>
        <time>2021-02-17T08:03:24Z</time>
      </trkpt>
      <trkpt lat="45.27894" lon="6.18416">
        <ele>1538.9</ele>
        <time>2021-02-17T08:03:25Z</time>
      </trkpt>
      <trkpt lat="45.27894" lon="6.18414">
        <ele>1539.1</ele>
        <time>2021-02-17T08:03:26Z</time>
      </trkpt>
      <trkpt lat="45.27894" lon="6.18413">
        <ele>1539.3</ele>
        <time>2021-02-17T08:03:27Z</time>
      </trkpt>
      <trkpt lat="45.27894" lon="6.18412">
        <ele>1539.5</ele>
        <time>2021-02-17T08:03:28Z</time>
      </trkpt>
      <trkpt lat="45.27894" lon="6.18411">
        <ele>1539.7</ele>
        <time>2021-02-17T08:03:29Z</time>
      </trkpt>
      <trkpt lat="45.27894" lon="6.1841">
        <ele>1539.8</ele>
        <time>2021-02-17T08:03:30Z</time>
      </trkpt>
      <trkpt lat="45.27894" lon="6.1841">
        <ele>1540</ele>
        <time>2021-02-17T08:03:31Z</time>
      </trkpt>
      <trkpt lat="45.27894" lon="6.18409">
        <ele>1540.1</ele>
        <time>2021-02-17T08:03:32Z</time>
      </trkpt>
      <trkpt lat="45.27894" lon="6.18408">
        <ele>1540.2</ele>
        <time>2021-02-17T08:03:33Z</time>
      </trkpt>
      <trkpt lat="45.27894" lon="6.18408">
        <ele>1540.2</ele>
        <time>2021-02-17T08:03:34Z</time>
      </trkpt>
      <trkpt lat="45.27895" lon="6.18408">
        <ele>1540.3</ele>
        <time>2021-02-17T08:03:35Z</time>
      </trkpt>
      <trkpt lat="45.27895" lon="6.18408">
        <ele>1540.3</ele>
        <time>2021-02-17T08:03:36Z</time>
      </trkpt>
      <trkpt lat="45.27895" lon="6.18408">
        <ele>1540.4</ele>
        <time>2021-02-17T08:03:37Z</time>
      </trkpt>
      <trkpt lat="45.27895" lon="6.18408">
        <ele>1540.4</ele>
        <time>2021-02-17T08:03:38Z</time>
      </trkpt>
      <trkpt lat="45.27896" lon="6.18409">
        <ele>1540.6</ele>
        <time>2021-02-17T08:03:39Z</time>
      </trkpt>
      <trkpt lat="45.27897" lon="6.18409">
        <ele>1540.8</ele>
        <time>2021-02-17T08:03:40Z</time>
      </trkpt>
      <trkpt lat="45.27902" lon="6.18414">
        <ele>1542.4</ele>
        <time>2021-02-17T08:03:48Z</time>
      </trkpt>
      <trkpt lat="45.27903" lon="6.18414">
        <ele>1542.6</ele>
        <time>2021-02-17T08:03:49Z</time>
      </trkpt>
      <trkpt lat="45.27903" lon="6.18415">
        <ele>1542.8</ele>
        <time>2021-02-17T08:03:50Z</time>
      </trkpt>
      <trkpt lat="45.27904" lon="6.18416">
        <ele>1543</ele>
        <time>2021-02-17T08:03:51Z</time>
      </trkpt>
      <trkpt lat="45.27905" lon="6.18417">
        <ele>1543.1</ele>
        <time>2021-02-17T08:03:52Z</time>
      </trkpt>
      <trkpt lat="45.27905" lon="6.18417">
        <ele>1543.3</ele>
        <time>2021-02-17T08:03:53Z</time>
      </trkpt>
      <trkpt lat="45.27906" lon="6.18418">
        <ele>1543.5</ele>
        <time>2021-02-17T08:03:54Z</time>
      </trkpt>
      <trkpt lat="45.27907" lon="6.18419">
        <ele>1543.7</ele>
        <time>2021-02-17T08:03:55Z</time>
      </trkpt>
      <trkpt lat="45.27907" lon="6.1842">
        <ele>1543.9</ele>
        <time>2021-02-17T08:03:56Z</time>
      </trkpt>
      <trkpt lat="45.27907" lon="6.1842">
        <ele>1544</ele>
        <time>2021-02-17T08:03:57Z</time>
      </trkpt>
      <trkpt lat="45.27908" lon="6.18421">
        <ele>1544.1</ele>
        <time>2021-02-17T08:03:58Z</time>
      </trkpt>
      <trkpt lat="45.27908" lon="6.18422">
        <ele>1544.3</ele>
        <time>2021-02-17T08:03:59Z</time>
      </trkpt>
      <trkpt lat="45.27908" lon="6.18423">
        <ele>1544.4</ele>
        <time>2021-02-17T08:04:00Z</time>
      </trkpt>
      <trkpt lat="45.27909" lon="6.18423">
        <ele>1544.6</ele>
        <time>2021-02-17T08:04:01Z</time>
      </trkpt>
      <trkpt lat="45.27909" lon="6.18424">
        <ele>1544.7</ele>
        <time>2021-02-17T08:04:02Z</time>
      </trkpt>
      <trkpt lat="45.27909" lon="6.18424">
        <ele>1544.8</ele>
        <time>2021-02-17T08:04:03Z</time>
      </trkpt>
      <trkpt lat="45.2791" lon="6.18425">
        <ele>1544.9</ele>
        <time>2021-02-17T08:04:04Z</time>
      </trkpt>
      <trkpt lat="45.2791" lon="6.18425">
        <ele>1544.9</ele>
        <time>2021-02-17T08:04:05Z</time>
      </trkpt>
      <trkpt lat="45.27911" lon="6.1842">
        <ele>1545.7</ele>
        <time>2021-02-17T08:04:17Z</time>
      </trkpt>
      <trkpt lat="45.27911" lon="6.18419">
        <ele>1545.9</ele>
        <time>2021-02-17T08:04:18Z</time>
      </trkpt>
      <trkpt lat="45.27911" lon="6.18418">
        <ele>1546.2</ele>
        <time>2021-02-17T08:04:19Z</time>
      </trkpt>
      <trkpt lat="45.2791" lon="6.18417">
        <ele>1546.4</ele>
        <time>2021-02-17T08:04:20Z</time>
      </trkpt>
      <trkpt lat="45.2791" lon="6.18416">
        <ele>1546.6</ele>
        <time>2021-02-17T08:04:21Z</time>
      </trkpt>
      <trkpt lat="45.2791" lon="6.18414">
        <ele>1546.8</ele>
        <time>2021-02-17T08:04:22Z</time>
      </trkpt>
      <trkpt lat="45.27909" lon="6.18413">
        <ele>1547</ele>
        <time>2021-02-17T08:04:23Z</time>
      </trkpt>
      <trkpt lat="45.27909" lon="6.18412">
        <ele>1547.1</ele>
        <time>2021-02-17T08:04:24Z</time>
      </trkpt>
      <trkpt lat="45.27909" lon="6.18412">
        <ele>1547.3</ele>
        <time>2021-02-17T08:04:25Z</time>
      </trkpt>
      <trkpt lat="45.27909" lon="6.1841">
        <ele>1547.5</ele>
        <time>2021-02-17T08:04:26Z</time>
      </trkpt>
      <trkpt lat="45.27909" lon="6.18409">
        <ele>1547.6</ele>
        <time>2021-02-17T08:04:27Z</time>
      </trkpt>
      <trkpt lat="45.27909" lon="6.18408">
        <ele>1547.8</ele>
        <time>2021-02-17T08:04:28Z</time>
      </trkpt>
      <trkpt lat="45.27909" lon="6.18407">
        <ele>1548</ele>
        <time>2021-02-17T08:04:29Z</time>
      </trkpt>
      <trkpt lat="45.2791" lon="6.18406">
        <ele>1548.2</ele>
        <time>2021-02-17T08:04:30Z</time>
      </trkpt>
      <trkpt lat="45.2791" lon="6.18405">
        <ele>1548.3</ele>
        <time>2021-02-17T08:04:31Z</time>
      </trkpt>
      <trkpt lat="45.2791" lon="6.18404">
        <ele>1548.5</ele>
        <time>2021-02-17T08:04:32Z</time>
      </trkpt>
      <trkpt lat="45.2791" lon="6.18404">
        <ele>1548.6</ele>
        <time>2021-02-17T08:04:33Z</time>
      </trkpt>
      <trkpt lat="45.2791" lon="6.18403">
        <ele>1548.7</ele>
        <time>2021-02-17T08:04:34Z</time>
      </trkpt>
      <trkpt lat="45.27911" lon="6.18402">
        <ele>1548.8</ele>
        <time>2021-02-17T08:04:35Z</time>
      </trkpt>
      <trkpt lat="45.27911" lon="6.18401">
        <ele>1549</ele>
        <time>2021-02-17T08:04:36Z</time>
      </trkpt>
      <trkpt lat="45.27911" lon="6.184">
        <ele>1549.1</ele>
        <time>2021-02-17T08:04:37Z</time>
      </trkpt>
      <trkpt lat="45.27911" lon="6.184">
        <ele>1549.2</ele>
        <time>2021-02-17T08:04:38Z</time>
      </trkpt>
      <trkpt lat="45.27912" lon="6.18399">
        <ele>1549.3</ele>
        <time>2021-02-17T08:04:39Z</time>
      </trkpt>
      <trkpt lat="45.27912" lon="6.18399">
        <ele>1549.4</ele>
        <time>2021-02-17T08:04:40Z</time>
      </trkpt>
      <trkpt lat="45.27912" lon="6.18398">
        <ele>1549.6</ele>
        <time>2021-02-17T08:04:41Z</time>
      </trkpt>
      <trkpt lat="45.27913" lon="6.18397">
        <ele>1549.8</ele>
        <time>2021-02-17T08:04:42Z</time>
      </trkpt>
      <trkpt lat="45.27914" lon="6.18396">
        <ele>1550</ele>
        <time>2021-02-17T08:04:43Z</time>
      </trkpt>
      <trkpt lat="45.27915" lon="6.18396">
        <ele>1550.2</ele>
        <time>2021-02-17T08:04:44Z</time>
      </trkpt>
      <trkpt lat="45.27915" lon="6.18395">
        <ele>1550.3</ele>
        <time>2021-02-17T08:04:45Z</time>
      </trkpt>
      <trkpt lat="45.27915" lon="6.18394">
        <ele>1550.4</ele>
        <time>2021-02-17T08:04:46Z</time>
      </trkpt>
      <trkpt lat="45.27916" lon="6.18394">
        <ele>1550.5</ele>
        <time>2021-02-17T08:04:47Z</time>
      </trkpt>
      <trkpt lat="45.27916" lon="6.18393">
        <ele>1550.6</ele>
        <time>2021-02-17T08:04:48Z</time>
      </trkpt>
      <trkpt lat="45.27916" lon="6.18393">
        <ele>1550.7</ele>
        <time>2021-02-17T08:04:49Z</time>
      </trkpt>
      <trkpt lat="45.27917" lon="6.18392">
        <ele>1550.8</ele>
        <time>2021-02-17T08:04:50Z</time>
      </trkpt>
      <trkpt lat="45.27918" lon="6.18392">
        <ele>1551</ele>
        <time>2021-02-17T08:04:51Z</time>
      </trkpt>
      <trkpt lat="45.27919" lon="6.18391">
        <ele>1551.2</ele>
        <time>2021-02-17T08:04:52Z</time>
      </trkpt>
      <trkpt lat="45.2792" lon="6.18391">
        <ele>1551.3</ele>
        <time>2021-02-17T08:04:53Z</time>
      </trkpt>
      <trkpt lat="45.2792" lon="6.1839">
        <ele>1551.5</ele>
        <time>2021-02-17T08:04:54Z</time>
      </trkpt>
      <trkpt lat="45.27921" lon="6.1839">
        <ele>1551.6</ele>
        <time>2021-02-17T08:04:55Z</time>
      </trkpt>
      <trkpt lat="45.27922" lon="6.18389">
        <ele>1551.7</ele>
        <time>2021-02-17T08:04:56Z</time>
      </trkpt>
      <trkpt lat="45.27922" lon="6.18389">
        <ele>1551.9</ele>
        <time>2021-02-17T08:04:57Z</time>
      </trkpt>
      <trkpt lat="45.27923" lon="6.18389">
        <ele>1552</ele>
        <time>2021-02-17T08:04:58Z</time>
      </trkpt>
      <trkpt lat="45.27924" lon="6.18388">
        <ele>1552.2</ele>
        <time>2021-02-17T08:04:59Z</time>
      </trkpt>
      <trkpt lat="45.27925" lon="6.18388">
        <ele>1552.3</ele>
        <time>2021-02-17T08:05:00Z</time>
      </trkpt>
      <trkpt lat="45.27925" lon="6.18387">
        <ele>1552.4</ele>
        <time>2021-02-17T08:05:01Z</time>
      </trkpt>
      <trkpt lat="45.27926" lon="6.18387">
        <ele>1552.5</ele>
        <time>2021-02-17T08:05:02Z</time>
      </trkpt>
      <trkpt lat="45.27926" lon="6.18387">
        <ele>1552.6</ele>
        <time>2021-02-17T08:05:03Z</time>
      </trkpt>
      <trkpt lat="45.27927" lon="6.18387">
        <ele>1552.7</ele>
        <time>2021-02-17T08:05:04Z</time>
      </trkpt>
      <trkpt lat="45.27928" lon="6.18386">
        <ele>1552.8</ele>
        <time>2021-02-17T08:05:05Z</time>
      </trkpt>
      <trkpt lat="45.27928" lon="6.18386">
        <ele>1552.9</ele>
        <time>2021-02-17T08:05:06Z</time>
      </trkpt>
      <trkpt lat="45.27929" lon="6.18386">
        <ele>1553.1</ele>
        <time>2021-02-17T08:05:07Z</time>
      </trkpt>
      <trkpt lat="45.2793" lon="6.18385">
        <ele>1553.2</ele>
        <time>2021-02-17T08:05:08Z</time>
      </trkpt>
      <trkpt lat="45.27931" lon="6.18385">
        <ele>1553.4</ele>
        <time>2021-02-17T08:05:09Z</time>
      </trkpt>
      <trkpt lat="45.27932" lon="6.18384">
        <ele>1553.6</ele>
        <time>2021-02-17T08:05:10Z</time>
      </trkpt>
      <trkpt lat="45.27933" lon="6.18384">
        <ele>1553.8</ele>
        <time>2021-02-17T08:05:11Z</time>
      </trkpt>
      <trkpt lat="45.27933" lon="6.18383">
        <ele>1553.9</ele>
        <time>2021-02-17T08:05:12Z</time>
      </trkpt>
      <trkpt lat="45.27934" lon="6.18383">
        <ele>1554.1</ele>
        <time>2021-02-17T08:05:13Z</time>
      </trkpt>
      <trkpt lat="45.27935" lon="6.18382">
        <ele>1554.2</ele>
        <time>2021-02-17T08:05:14Z</time>
      </trkpt>
      <trkpt lat="45.27935" lon="6.18382">
        <ele>1554.3</ele>
        <time>2021-02-17T08:05:15Z</time>
      </trkpt>
      <trkpt lat="45.27936" lon="6.18381">
        <ele>1554.4</ele>
        <time>2021-02-17T08:05:16Z</time>
      </trkpt>
      <trkpt lat="45.27936" lon="6.18381">
        <ele>1554.5</ele>
        <time>2021-02-17T08:05:17Z</time>
      </trkpt>
      <trkpt lat="45.27936" lon="6.1838">
        <ele>1554.6</ele>
        <time>2021-02-17T08:05:18Z</time>
      </trkpt>
      <trkpt lat="45.27936" lon="6.18379">
        <ele>1554.7</ele>
        <time>2021-02-17T08:05:19Z</time>
      </trkpt>
      <trkpt lat="45.27937" lon="6.18378">
        <ele>1554.9</ele>
        <time>2021-02-17T08:05:20Z</time>
      </trkpt>
      <trkpt lat="45.27937" lon="6.18377">
        <ele>1555</ele>
        <time>2021-02-17T08:05:21Z</time>
      </trkpt>
      <trkpt lat="45.27938" lon="6.18377">
        <ele>1555.1</ele>
        <time>2021-02-17T08:05:22Z</time>
      </trkpt>
      <trkpt lat="45.27938" lon="6.18376">
        <ele>1555.3</ele>
        <time>2021-02-17T08:05:23Z</time>
      </trkpt>
      <trkpt lat="45.27939" lon="6.18375">
        <ele>1555.4</ele>
        <time>2021-02-17T08:05:24Z</time>
      </trkpt>
      <trkpt lat="45.27939" lon="6.18374">
        <ele>1555.5</ele>
        <time>2021-02-17T08:05:25Z</time>
      </trkpt>
      <trkpt lat="45.27939" lon="6.18373">
        <ele>1555.6</ele>
        <time>2021-02-17T08:05:26Z</time>
      </trkpt>
      <trkpt lat="45.27939" lon="6.18373">
        <ele>1555.7</ele>
        <time>2021-02-17T08:05:27Z</time>
      </trkpt>
      <trkpt lat="45.27939" lon="6.18371">
        <ele>1555.8</ele>
        <time>2021-02-17T08:05:28Z</time>
      </trkpt>
      <trkpt lat="45.2794" lon="6.1837">
        <ele>1556</ele>
        <time>2021-02-17T08:05:29Z</time>
      </trkpt>
      <trkpt lat="45.2794" lon="6.18369">
        <ele>1556.1</ele>
        <time>2021-02-17T08:05:30Z</time>
      </trkpt>
      <trkpt lat="45.2794" lon="6.18368">
        <ele>1556.3</ele>
        <time>2021-02-17T08:05:31Z</time>
      </trkpt>
      <trkpt lat="45.2794" lon="6.18367">
        <ele>1556.4</ele>
        <time>2021-02-17T08:05:32Z</time>
      </trkpt>
      <trkpt lat="45.2794" lon="6.18366">
        <ele>1556.5</ele>
        <time>2021-02-17T08:05:33Z</time>
      </trkpt>
      <trkpt lat="45.2794" lon="6.18365">
        <ele>1556.6</ele>
        <time>2021-02-17T08:05:34Z</time>
      </trkpt>
      <trkpt lat="45.2794" lon="6.18364">
        <ele>1556.7</ele>
        <time>2021-02-17T08:05:35Z</time>
      </trkpt>
      <trkpt lat="45.2794" lon="6.18363">
        <ele>1556.8</ele>
        <time>2021-02-17T08:05:36Z</time>
      </trkpt>
      <trkpt lat="45.2794" lon="6.18362">
        <ele>1556.9</ele>
        <time>2021-02-17T08:05:37Z</time>
      </trkpt>
      <trkpt lat="45.2794" lon="6.18361">
        <ele>1557</ele>
        <time>2021-02-17T08:05:38Z</time>
      </trkpt>
      <trkpt lat="45.2794" lon="6.1836">
        <ele>1557.1</ele>
        <time>2021-02-17T08:05:39Z</time>
      </trkpt>
      <trkpt lat="45.2794" lon="6.18359">
        <ele>1557.2</ele>
        <time>2021-02-17T08:05:40Z</time>
      </trkpt>
      <trkpt lat="45.2794" lon="6.18358">
        <ele>1557.3</ele>
        <time>2021-02-17T08:05:41Z</time>
      </trkpt>
      <trkpt lat="45.27941" lon="6.18358">
        <ele>1557.4</ele>
        <time>2021-02-17T08:05:42Z</time>
      </trkpt>
      <trkpt lat="45.27941" lon="6.18357">
        <ele>1557.5</ele>
        <time>2021-02-17T08:05:43Z</time>
      </trkpt>
      <trkpt lat="45.27941" lon="6.18356">
        <ele>1557.6</ele>
        <time>2021-02-17T08:05:44Z</time>
      </trkpt>
      <trkpt lat="45.27942" lon="6.18355">
        <ele>1557.7</ele>
        <time>2021-02-17T08:05:45Z</time>
      </trkpt>
      <trkpt lat="45.27942" lon="6.18354">
        <ele>1557.8</ele>
        <time>2021-02-17T08:05:46Z</time>
      </trkpt>
      <trkpt lat="45.27942" lon="6.18353">
        <ele>1557.9</ele>
        <time>2021-02-17T08:05:47Z</time>
      </trkpt>
      <trkpt lat="45.27943" lon="6.18352">
        <ele>1558.1</ele>
        <time>2021-02-17T08:05:48Z</time>
      </trkpt>
      <trkpt lat="45.27943" lon="6.18351">
        <ele>1558.2</ele>
        <time>2021-02-17T08:05:49Z</time>
      </trkpt>
      <trkpt lat="45.27944" lon="6.1835">
        <ele>1558.3</ele>
        <time>2021-02-17T08:05:50Z</time>
      </trkpt>
      <trkpt lat="45.27944" lon="6.18349">
        <ele>1558.4</ele>
        <time>2021-02-17T08:05:51Z</time>
      </trkpt>
      <trkpt lat="45.27945" lon="6.18348">
        <ele>1558.5</ele>
        <time>2021-02-17T08:05:52Z</time>
      </trkpt>
      <trkpt lat="45.27945" lon="6.18347">
        <ele>1558.6</ele>
        <time>2021-02-17T08:05:53Z</time>
      </trkpt>
      <trkpt lat="45.27946" lon="6.18347">
        <ele>1558.7</ele>
        <time>2021-02-17T08:05:54Z</time>
      </trkpt>
      <trkpt lat="45.27946" lon="6.18346">
        <ele>1558.8</ele>
        <time>2021-02-17T08:05:55Z</time>
      </trkpt>
      <trkpt lat="45.27946" lon="6.18345">
        <ele>1558.9</ele>
        <time>2021-02-17T08:05:56Z</time>
      </trkpt>
      <trkpt lat="45.27946" lon="6.18344">
        <ele>1559</ele>
        <time>2021-02-17T08:05:57Z</time>
      </trkpt>
      <trkpt lat="45.27947" lon="6.18343">
        <ele>1559.1</ele>
        <time>2021-02-17T08:05:58Z</time>
      </trkpt>
      <trkpt lat="45.27947" lon="6.18343">
        <ele>1559.2</ele>
        <time>2021-02-17T08:05:59Z</time>
      </trkpt>
      <trkpt lat="45.27947" lon="6.18342">
        <ele>1559.2</ele>
        <time>2021-02-17T08:06:00Z</time>
      </trkpt>
      <trkpt lat="45.27947" lon="6.18341">
        <ele>1559.3</ele>
        <time>2021-02-17T08:06:01Z</time>
      </trkpt>
      <trkpt lat="45.27948" lon="6.1834">
        <ele>1559.4</ele>
        <time>2021-02-17T08:06:02Z</time>
      </trkpt>
      <trkpt lat="45.27948" lon="6.18339">
        <ele>1559.5</ele>
        <time>2021-02-17T08:06:03Z</time>
      </trkpt>
      <trkpt lat="45.27948" lon="6.18338">
        <ele>1559.6</ele>
        <time>2021-02-17T08:06:04Z</time>
      </trkpt>
      <trkpt lat="45.27949" lon="6.18337">
        <ele>1559.7</ele>
        <time>2021-02-17T08:06:05Z</time>
      </trkpt>
      <trkpt lat="45.27949" lon="6.18336">
        <ele>1559.8</ele>
        <time>2021-02-17T08:06:06Z</time>
      </trkpt>
      <trkpt lat="45.27949" lon="6.18336">
        <ele>1559.8</ele>
        <time>2021-02-17T08:06:07Z</time>
      </trkpt>
      <trkpt lat="45.27949" lon="6.18335">
        <ele>1559.9</ele>
        <time>2021-02-17T08:06:08Z</time>
      </trkpt>
      <trkpt lat="45.27949" lon="6.18334">
        <ele>1559.9</ele>
        <time>2021-02-17T08:06:09Z</time>
      </trkpt>
      <trkpt lat="45.2795" lon="6.18334">
        <ele>1560</ele>
        <time>2021-02-17T08:06:10Z</time>
      </trkpt>
      <trkpt lat="45.2795" lon="6.18333">
        <ele>1560.1</ele>
        <time>2021-02-17T08:06:11Z</time>
      </trkpt>
      <trkpt lat="45.2795" lon="6.18332">
        <ele>1560.2</ele>
        <time>2021-02-17T08:06:12Z</time>
      </trkpt>
      <trkpt lat="45.27951" lon="6.18331">
        <ele>1560.3</ele>
        <time>2021-02-17T08:06:13Z</time>
      </trkpt>
      <trkpt lat="45.27952" lon="6.18329">
        <ele>1560.4</ele>
        <time>2021-02-17T08:06:14Z</time>
      </trkpt>
      <trkpt lat="45.27952" lon="6.18328">
        <ele>1560.5</ele>
        <time>2021-02-17T08:06:15Z</time>
      </trkpt>
      <trkpt lat="45.27953" lon="6.18327">
        <ele>1560.6</ele>
        <time>2021-02-17T08:06:16Z</time>
      </trkpt>
      <trkpt lat="45.27953" lon="6.18326">
        <ele>1560.7</ele>
        <time>2021-02-17T08:06:17Z</time>
      </trkpt>
      <trkpt lat="45.27953" lon="6.18325">
        <ele>1560.9</ele>
        <time>2021-02-17T08:06:18Z</time>
      </trkpt>
      <trkpt lat="45.27954" lon="6.18324">
        <ele>1561</ele>
        <time>2021-02-17T08:06:19Z</time>
      </trkpt>
      <trkpt lat="45.27954" lon="6.18323">
        <ele>1561.1</ele>
        <time>2021-02-17T08:06:20Z</time>
      </trkpt>
      <trkpt lat="45.27954" lon="6.18323">
        <ele>1561.2</ele>
        <time>2021-02-17T08:06:21Z</time>
      </trkpt>
      <trkpt lat="45.27955" lon="6.18322">
        <ele>1561.3</ele>
        <time>2021-02-17T08:06:22Z</time>
      </trkpt>
      <trkpt lat="45.27955" lon="6.18321">
        <ele>1561.4</ele>
        <time>2021-02-17T08:06:23Z</time>
      </trkpt>
      <trkpt lat="45.27955" lon="6.18321">
        <ele>1561.6</ele>
        <time>2021-02-17T08:06:24Z</time>
      </trkpt>
      <trkpt lat="45.27956" lon="6.18319">
        <ele>1561.7</ele>
        <time>2021-02-17T08:06:25Z</time>
      </trkpt>
      <trkpt lat="45.27956" lon="6.18318">
        <ele>1561.9</ele>
        <time>2021-02-17T08:06:26Z</time>
      </trkpt>
      <trkpt lat="45.27956" lon="6.18317">
        <ele>1562.1</ele>
        <time>2021-02-17T08:06:27Z</time>
      </trkpt>
      <trkpt lat="45.27957" lon="6.18316">
        <ele>1562.2</ele>
        <time>2021-02-17T08:06:28Z</time>
      </trkpt>
      <trkpt lat="45.27957" lon="6.18315">
        <ele>1562.4</ele>
        <time>2021-02-17T08:06:29Z</time>
      </trkpt>
      <trkpt lat="45.27957" lon="6.18314">
        <ele>1562.5</ele>
        <time>2021-02-17T08:06:30Z</time>
      </trkpt>
      <trkpt lat="45.27958" lon="6.18313">
        <ele>1562.6</ele>
        <time>2021-02-17T08:06:31Z</time>
      </trkpt>
      <trkpt lat="45.27958" lon="6.18313">
        <ele>1562.7</ele>
        <time>2021-02-17T08:06:32Z</time>
      </trkpt>
      <trkpt lat="45.27958" lon="6.18312">
        <ele>1562.8</ele>
        <time>2021-02-17T08:06:33Z</time>
      </trkpt>
      <trkpt lat="45.27959" lon="6.18311">
        <ele>1562.9</ele>
        <time>2021-02-17T08:06:34Z</time>
      </trkpt>
      <trkpt lat="45.27959" lon="6.1831">
        <ele>1563</ele>
        <time>2021-02-17T08:06:35Z</time>
      </trkpt>
      <trkpt lat="45.27959" lon="6.18309">
        <ele>1563.1</ele>
        <time>2021-02-17T08:06:36Z</time>
      </trkpt>
      <trkpt lat="45.27959" lon="6.18308">
        <ele>1563.2</ele>
        <time>2021-02-17T08:06:37Z</time>
      </trkpt>
      <trkpt lat="45.2796" lon="6.18307">
        <ele>1563.4</ele>
        <time>2021-02-17T08:06:38Z</time>
      </trkpt>
      <trkpt lat="45.2796" lon="6.18307">
        <ele>1563.5</ele>
        <time>2021-02-17T08:06:39Z</time>
      </trkpt>
      <trkpt lat="45.27961" lon="6.18306">
        <ele>1563.6</ele>
        <time>2021-02-17T08:06:40Z</time>
      </trkpt>
      <trkpt lat="45.27961" lon="6.18305">
        <ele>1563.8</ele>
        <time>2021-02-17T08:06:41Z</time>
      </trkpt>
      <trkpt lat="45.27962" lon="6.18304">
        <ele>1563.9</ele>
        <time>2021-02-17T08:06:42Z</time>
      </trkpt>
      <trkpt lat="45.27963" lon="6.18303">
        <ele>1564</ele>
        <time>2021-02-17T08:06:43Z</time>
      </trkpt>
      <trkpt lat="45.27963" lon="6.18302">
        <ele>1564.2</ele>
        <time>2021-02-17T08:06:44Z</time>
      </trkpt>
      <trkpt lat="45.27964" lon="6.18301">
        <ele>1564.3</ele>
        <time>2021-02-17T08:06:45Z</time>
      </trkpt>
      <trkpt lat="45.27964" lon="6.183">
        <ele>1564.4</ele>
        <time>2021-02-17T08:06:46Z</time>
      </trkpt>
      <trkpt lat="45.27965" lon="6.18298">
        <ele>1564.6</ele>
        <time>2021-02-17T08:06:47Z</time>
      </trkpt>
      <trkpt lat="45.27965" lon="6.18297">
        <ele>1564.8</ele>
        <time>2021-02-17T08:06:48Z</time>
      </trkpt>
      <trkpt lat="45.27966" lon="6.18296">
        <ele>1564.9</ele>
        <time>2021-02-17T08:06:49Z</time>
      </trkpt>
      <trkpt lat="45.27966" lon="6.18295">
        <ele>1565</ele>
        <time>2021-02-17T08:06:50Z</time>
      </trkpt>
      <trkpt lat="45.27967" lon="6.18294">
        <ele>1565.1</ele>
        <time>2021-02-17T08:06:51Z</time>
      </trkpt>
      <trkpt lat="45.27967" lon="6.18293">
        <ele>1565.2</ele>
        <time>2021-02-17T08:06:52Z</time>
      </trkpt>
      <trkpt lat="45.27968" lon="6.18292">
        <ele>1565.3</ele>
        <time>2021-02-17T08:06:53Z</time>
      </trkpt>
      <trkpt lat="45.27969" lon="6.18292">
        <ele>1565.5</ele>
        <time>2021-02-17T08:06:54Z</time>
      </trkpt>
      <trkpt lat="45.27969" lon="6.18291">
        <ele>1565.6</ele>
        <time>2021-02-17T08:06:55Z</time>
      </trkpt>
      <trkpt lat="45.2797" lon="6.1829">
        <ele>1565.7</ele>
        <time>2021-02-17T08:06:56Z</time>
      </trkpt>
      <trkpt lat="45.27971" lon="6.18289">
        <ele>1565.8</ele>
        <time>2021-02-17T08:06:57Z</time>
      </trkpt>
      <trkpt lat="45.27971" lon="6.18288">
        <ele>1565.9</ele>
        <time>2021-02-17T08:06:58Z</time>
      </trkpt>
      <trkpt lat="45.27972" lon="6.18287">
        <ele>1566</ele>
        <time>2021-02-17T08:06:59Z</time>
      </trkpt>
      <trkpt lat="45.27973" lon="6.18286">
        <ele>1566.2</ele>
        <time>2021-02-17T08:07:00Z</time>
      </trkpt>
      <trkpt lat="45.27974" lon="6.18284">
        <ele>1566.3</ele>
        <time>2021-02-17T08:07:01Z</time>
      </trkpt>
      <trkpt lat="45.27974" lon="6.18283">
        <ele>1566.4</ele>
        <time>2021-02-17T08:07:02Z</time>
      </trkpt>
      <trkpt lat="45.27975" lon="6.18283">
        <ele>1566.5</ele>
        <time>2021-02-17T08:07:03Z</time>
      </trkpt>
      <trkpt lat="45.27976" lon="6.18282">
        <ele>1566.6</ele>
        <time>2021-02-17T08:07:04Z</time>
      </trkpt>
      <trkpt lat="45.27976" lon="6.18281">
        <ele>1566.6</ele>
        <time>2021-02-17T08:07:05Z</time>
      </trkpt>
      <trkpt lat="45.27976" lon="6.18279">
        <ele>1566.7</ele>
        <time>2021-02-17T08:07:06Z</time>
      </trkpt>
      <trkpt lat="45.27977" lon="6.18278">
        <ele>1566.8</ele>
        <time>2021-02-17T08:07:07Z</time>
      </trkpt>
      <trkpt lat="45.27977" lon="6.18277">
        <ele>1566.9</ele>
        <time>2021-02-17T08:07:08Z</time>
      </trkpt>
      <trkpt lat="45.27978" lon="6.18276">
        <ele>1567</ele>
        <time>2021-02-17T08:07:09Z</time>
      </trkpt>
      <trkpt lat="45.27978" lon="6.18274">
        <ele>1567.1</ele>
        <time>2021-02-17T08:07:10Z</time>
      </trkpt>
      <trkpt lat="45.27979" lon="6.18273">
        <ele>1567.2</ele>
        <time>2021-02-17T08:07:11Z</time>
      </trkpt>
      <trkpt lat="45.27979" lon="6.18272">
        <ele>1567.2</ele>
        <time>2021-02-17T08:07:12Z</time>
      </trkpt>
      <trkpt lat="45.27979" lon="6.18272">
        <ele>1567.3</ele>
        <time>2021-02-17T08:07:13Z</time>
      </trkpt>
      <trkpt lat="45.2798" lon="6.18271">
        <ele>1567.4</ele>
        <time>2021-02-17T08:07:14Z</time>
      </trkpt>
      <trkpt lat="45.27981" lon="6.1827">
        <ele>1567.5</ele>
        <time>2021-02-17T08:07:15Z</time>
      </trkpt>
      <trkpt lat="45.27981" lon="6.18269">
        <ele>1567.5</ele>
        <time>2021-02-17T08:07:16Z</time>
      </trkpt>
      <trkpt lat="45.27982" lon="6.18267">
        <ele>1567.6</ele>
        <time>2021-02-17T08:07:17Z</time>
      </trkpt>
      <trkpt lat="45.27982" lon="6.18267">
        <ele>1567.7</ele>
        <time>2021-02-17T08:07:18Z</time>
      </trkpt>
      <trkpt lat="45.27983" lon="6.18266">
        <ele>1567.8</ele>
        <time>2021-02-17T08:07:19Z</time>
      </trkpt>
      <trkpt lat="45.27983" lon="6.18265">
        <ele>1567.8</ele>
        <time>2021-02-17T08:07:20Z</time>
      </trkpt>
      <trkpt lat="45.27984" lon="6.18263">
        <ele>1568</ele>
        <time>2021-02-17T08:07:21Z</time>
      </trkpt>
      <trkpt lat="45.27985" lon="6.18262">
        <ele>1568.1</ele>
        <time>2021-02-17T08:07:22Z</time>
      </trkpt>
      <trkpt lat="45.27986" lon="6.18262">
        <ele>1568.3</ele>
        <time>2021-02-17T08:07:23Z</time>
      </trkpt>
      <trkpt lat="45.27987" lon="6.18261">
        <ele>1568.4</ele>
        <time>2021-02-17T08:07:24Z</time>
      </trkpt>
      <trkpt lat="45.27988" lon="6.1826">
        <ele>1568.5</ele>
        <time>2021-02-17T08:07:25Z</time>
      </trkpt>
      <trkpt lat="45.27989" lon="6.18259">
        <ele>1568.6</ele>
        <time>2021-02-17T08:07:26Z</time>
      </trkpt>
      <trkpt lat="45.27989" lon="6.18259">
        <ele>1568.7</ele>
        <time>2021-02-17T08:07:27Z</time>
      </trkpt>
      <trkpt lat="45.2799" lon="6.18258">
        <ele>1568.8</ele>
        <time>2021-02-17T08:07:28Z</time>
      </trkpt>
      <trkpt lat="45.2799" lon="6.18258">
        <ele>1568.8</ele>
        <time>2021-02-17T08:07:29Z</time>
      </trkpt>
      <trkpt lat="45.2799" lon="6.18257">
        <ele>1568.9</ele>
        <time>2021-02-17T08:07:30Z</time>
      </trkpt>
      <trkpt lat="45.2799" lon="6.18256">
        <ele>1569</ele>
        <time>2021-02-17T08:07:31Z</time>
      </trkpt>
      <trkpt lat="45.2799" lon="6.18255">
        <ele>1569.1</ele>
        <time>2021-02-17T08:07:32Z</time>
      </trkpt>
      <trkpt lat="45.27991" lon="6.18254">
        <ele>1569.2</ele>
        <time>2021-02-17T08:07:33Z</time>
      </trkpt>
      <trkpt lat="45.27991" lon="6.18253">
        <ele>1569.3</ele>
        <time>2021-02-17T08:07:34Z</time>
      </trkpt>
      <trkpt lat="45.27992" lon="6.18252">
        <ele>1569.4</ele>
        <time>2021-02-17T08:07:35Z</time>
      </trkpt>
      <trkpt lat="45.27992" lon="6.18252">
        <ele>1569.5</ele>
        <time>2021-02-17T08:07:36Z</time>
      </trkpt>
      <trkpt lat="45.27993" lon="6.18251">
        <ele>1569.6</ele>
        <time>2021-02-17T08:07:37Z</time>
      </trkpt>
      <trkpt lat="45.27993" lon="6.18251">
        <ele>1569.7</ele>
        <time>2021-02-17T08:07:38Z</time>
      </trkpt>
      <trkpt lat="45.27993" lon="6.1825">
        <ele>1569.8</ele>
        <time>2021-02-17T08:07:39Z</time>
      </trkpt>
      <trkpt lat="45.27993" lon="6.18249">
        <ele>1569.9</ele>
        <time>2021-02-17T08:07:40Z</time>
      </trkpt>
      <trkpt lat="45.27993" lon="6.18248">
        <ele>1570</ele>
        <time>2021-02-17T08:07:41Z</time>
      </trkpt>
      <trkpt lat="45.27994" lon="6.18247">
        <ele>1570.2</ele>
        <time>2021-02-17T08:07:42Z</time>
      </trkpt>
      <trkpt lat="45.27994" lon="6.18246">
        <ele>1570.3</ele>
        <time>2021-02-17T08:07:43Z</time>
      </trkpt>
      <trkpt lat="45.27994" lon="6.18245">
        <ele>1570.4</ele>
        <time>2021-02-17T08:07:44Z</time>
      </trkpt>
      <trkpt lat="45.27995" lon="6.18244">
        <ele>1570.6</ele>
        <time>2021-02-17T08:07:45Z</time>
      </trkpt>
      <trkpt lat="45.27995" lon="6.18242">
        <ele>1570.8</ele>
        <time>2021-02-17T08:07:46Z</time>
      </trkpt>
      <trkpt lat="45.27996" lon="6.18241">
        <ele>1570.9</ele>
        <time>2021-02-17T08:07:47Z</time>
      </trkpt>
      <trkpt lat="45.27996" lon="6.18241">
        <ele>1571.1</ele>
        <time>2021-02-17T08:07:48Z</time>
      </trkpt>
      <trkpt lat="45.27997" lon="6.18239">
        <ele>1571.2</ele>
        <time>2021-02-17T08:07:49Z</time>
      </trkpt>
      <trkpt lat="45.27997" lon="6.18238">
        <ele>1571.4</ele>
        <time>2021-02-17T08:07:50Z</time>
      </trkpt>
      <trkpt lat="45.27997" lon="6.18237">
        <ele>1571.5</ele>
        <time>2021-02-17T08:07:51Z</time>
      </trkpt>
      <trkpt lat="45.27997" lon="6.18237">
        <ele>1571.6</ele>
        <time>2021-02-17T08:07:52Z</time>
      </trkpt>
      <trkpt lat="45.27997" lon="6.18236">
        <ele>1571.8</ele>
        <time>2021-02-17T08:07:53Z</time>
      </trkpt>
      <trkpt lat="45.27997" lon="6.18235">
        <ele>1571.9</ele>
        <time>2021-02-17T08:07:54Z</time>
      </trkpt>
      <trkpt lat="45.27997" lon="6.18234">
        <ele>1572</ele>
        <time>2021-02-17T08:07:55Z</time>
      </trkpt>
      <trkpt lat="45.27998" lon="6.18233">
        <ele>1572.2</ele>
        <time>2021-02-17T08:07:56Z</time>
      </trkpt>
      <trkpt lat="45.27998" lon="6.18231">
        <ele>1572.4</ele>
        <time>2021-02-17T08:07:57Z</time>
      </trkpt>
      <trkpt lat="45.27998" lon="6.1823">
        <ele>1572.6</ele>
        <time>2021-02-17T08:07:58Z</time>
      </trkpt>
      <trkpt lat="45.27998" lon="6.18229">
        <ele>1572.8</ele>
        <time>2021-02-17T08:07:59Z</time>
      </trkpt>
      <trkpt lat="45.27998" lon="6.18227">
        <ele>1573</ele>
        <time>2021-02-17T08:08:00Z</time>
      </trkpt>
      <trkpt lat="45.27998" lon="6.18226">
        <ele>1573.2</ele>
        <time>2021-02-17T08:08:01Z</time>
      </trkpt>
      <trkpt lat="45.27998" lon="6.18224">
        <ele>1573.5</ele>
        <time>2021-02-17T08:08:02Z</time>
      </trkpt>
      <trkpt lat="45.27998" lon="6.18223">
        <ele>1573.7</ele>
        <time>2021-02-17T08:08:03Z</time>
      </trkpt>
      <trkpt lat="45.27997" lon="6.18222">
        <ele>1573.9</ele>
        <time>2021-02-17T08:08:04Z</time>
      </trkpt>
      <trkpt lat="45.27997" lon="6.1822">
        <ele>1574.1</ele>
        <time>2021-02-17T08:08:05Z</time>
      </trkpt>
      <trkpt lat="45.27997" lon="6.18219">
        <ele>1574.3</ele>
        <time>2021-02-17T08:08:06Z</time>
      </trkpt>
      <trkpt lat="45.27996" lon="6.18218">
        <ele>1574.5</ele>
        <time>2021-02-17T08:08:07Z</time>
      </trkpt>
      <trkpt lat="45.27996" lon="6.18217">
        <ele>1574.6</ele>
        <time>2021-02-17T08:08:08Z</time>
      </trkpt>
      <trkpt lat="45.27996" lon="6.18216">
        <ele>1574.7</ele>
        <time>2021-02-17T08:08:09Z</time>
      </trkpt>
      <trkpt lat="45.27995" lon="6.18216">
        <ele>1574.9</ele>
        <time>2021-02-17T08:08:10Z</time>
      </trkpt>
      <trkpt lat="45.27995" lon="6.18215">
        <ele>1575</ele>
        <time>2021-02-17T08:08:11Z</time>
      </trkpt>
      <trkpt lat="45.27994" lon="6.18215">
        <ele>1575.1</ele>
        <time>2021-02-17T08:08:12Z</time>
      </trkpt>
      <trkpt lat="45.27994" lon="6.18215">
        <ele>1575.2</ele>
        <time>2021-02-17T08:08:13Z</time>
      </trkpt>
      <trkpt lat="45.27994" lon="6.18214">
        <ele>1575.3</ele>
        <time>2021-02-17T08:08:14Z</time>
      </trkpt>
      <trkpt lat="45.27994" lon="6.18214">
        <ele>1575.4</ele>
        <time>2021-02-17T08:08:15Z</time>
      </trkpt>
      <trkpt lat="45.27994" lon="6.18213">
        <ele>1575.5</ele>
        <time>2021-02-17T08:08:16Z</time>
      </trkpt>
      <trkpt lat="45.27993" lon="6.18212">
        <ele>1575.6</ele>
        <time>2021-02-17T08:08:17Z</time>
      </trkpt>
      <trkpt lat="45.27993" lon="6.18211">
        <ele>1575.7</ele>
        <time>2021-02-17T08:08:18Z</time>
      </trkpt>
      <trkpt lat="45.27993" lon="6.18211">
        <ele>1575.9</ele>
        <time>2021-02-17T08:08:19Z</time>
      </trkpt>
      <trkpt lat="45.27992" lon="6.1821">
        <ele>1576</ele>
        <time>2021-02-17T08:08:20Z</time>
      </trkpt>
      <trkpt lat="45.27992" lon="6.1821">
        <ele>1576.1</ele>
        <time>2021-02-17T08:08:21Z</time>
      </trkpt>
      <trkpt lat="45.27992" lon="6.1821">
        <ele>1576.2</ele>
        <time>2021-02-17T08:08:22Z</time>
      </trkpt>
      <trkpt lat="45.27991" lon="6.18209">
        <ele>1576.3</ele>
        <time>2021-02-17T08:08:23Z</time>
      </trkpt>
      <trkpt lat="45.27991" lon="6.18209">
        <ele>1576.4</ele>
        <time>2021-02-17T08:08:24Z</time>
      </trkpt>
      <trkpt lat="45.27991" lon="6.18209">
        <ele>1576.4</ele>
        <time>2021-02-17T08:08:25Z</time>
      </trkpt>
      <trkpt lat="45.27991" lon="6.18208">
        <ele>1576.5</ele>
        <time>2021-02-17T08:08:26Z</time>
      </trkpt>
      <trkpt lat="45.2799" lon="6.18207">
        <ele>1576.7</ele>
        <time>2021-02-17T08:08:27Z</time>
      </trkpt>
      <trkpt lat="45.2799" lon="6.18207">
        <ele>1576.8</ele>
        <time>2021-02-17T08:08:28Z</time>
      </trkpt>
      <trkpt lat="45.2799" lon="6.18206">
        <ele>1576.9</ele>
        <time>2021-02-17T08:08:29Z</time>
      </trkpt>
      <trkpt lat="45.2799" lon="6.18205">
        <ele>1577</ele>
        <time>2021-02-17T08:08:30Z</time>
      </trkpt>
      <trkpt lat="45.2799" lon="6.18204">
        <ele>1577.2</ele>
        <time>2021-02-17T08:08:31Z</time>
      </trkpt>
      <trkpt lat="45.27989" lon="6.18203">
        <ele>1577.3</ele>
        <time>2021-02-17T08:08:32Z</time>
      </trkpt>
      <trkpt lat="45.27989" lon="6.18202">
        <ele>1577.5</ele>
        <time>2021-02-17T08:08:33Z</time>
      </trkpt>
      <trkpt lat="45.27989" lon="6.18201">
        <ele>1577.7</ele>
        <time>2021-02-17T08:08:34Z</time>
      </trkpt>
      <trkpt lat="45.27989" lon="6.182">
        <ele>1577.9</ele>
        <time>2021-02-17T08:08:35Z</time>
      </trkpt>
      <trkpt lat="45.27989" lon="6.18199">
        <ele>1578</ele>
        <time>2021-02-17T08:08:36Z</time>
      </trkpt>
      <trkpt lat="45.27989" lon="6.18198">
        <ele>1578.2</ele>
        <time>2021-02-17T08:08:37Z</time>
      </trkpt>
      <trkpt lat="45.27988" lon="6.18197">
        <ele>1578.4</ele>
        <time>2021-02-17T08:08:38Z</time>
      </trkpt>
      <trkpt lat="45.27988" lon="6.18195">
        <ele>1578.6</ele>
        <time>2021-02-17T08:08:39Z</time>
      </trkpt>
      <trkpt lat="45.27988" lon="6.18194">
        <ele>1578.9</ele>
        <time>2021-02-17T08:08:40Z</time>
      </trkpt>
      <trkpt lat="45.27987" lon="6.18192">
        <ele>1579</ele>
        <time>2021-02-17T08:08:41Z</time>
      </trkpt>
      <trkpt lat="45.27987" lon="6.18191">
        <ele>1579.2</ele>
        <time>2021-02-17T08:08:42Z</time>
      </trkpt>
      <trkpt lat="45.27987" lon="6.1819">
        <ele>1579.4</ele>
        <time>2021-02-17T08:08:43Z</time>
      </trkpt>
      <trkpt lat="45.27987" lon="6.18189">
        <ele>1579.5</ele>
        <time>2021-02-17T08:08:44Z</time>
      </trkpt>
      <trkpt lat="45.27987" lon="6.18188">
        <ele>1579.7</ele>
        <time>2021-02-17T08:08:45Z</time>
      </trkpt>
      <trkpt lat="45.27986" lon="6.18187">
        <ele>1579.9</ele>
        <time>2021-02-17T08:08:46Z</time>
      </trkpt>
      <trkpt lat="45.27986" lon="6.18186">
        <ele>1580.1</ele>
        <time>2021-02-17T08:08:47Z</time>
      </trkpt>
      <trkpt lat="45.27986" lon="6.18185">
        <ele>1580.2</ele>
        <time>2021-02-17T08:08:48Z</time>
      </trkpt>
      <trkpt lat="45.27985" lon="6.18183">
        <ele>1580.4</ele>
        <time>2021-02-17T08:08:49Z</time>
      </trkpt>
      <trkpt lat="45.27985" lon="6.18182">
        <ele>1580.6</ele>
        <time>2021-02-17T08:08:50Z</time>
      </trkpt>
      <trkpt lat="45.27985" lon="6.18181">
        <ele>1580.7</ele>
        <time>2021-02-17T08:08:51Z</time>
      </trkpt>
      <trkpt lat="45.27984" lon="6.18181">
        <ele>1580.8</ele>
        <time>2021-02-17T08:08:52Z</time>
      </trkpt>
      <trkpt lat="45.27984" lon="6.1818">
        <ele>1580.9</ele>
        <time>2021-02-17T08:08:53Z</time>
      </trkpt>
      <trkpt lat="45.27984" lon="6.18179">
        <ele>1581</ele>
        <time>2021-02-17T08:08:54Z</time>
      </trkpt>
      <trkpt lat="45.27984" lon="6.18179">
        <ele>1581.1</ele>
        <time>2021-02-17T08:08:55Z</time>
      </trkpt>
      <trkpt lat="45.27984" lon="6.18178">
        <ele>1581.3</ele>
        <time>2021-02-17T08:08:56Z</time>
      </trkpt>
      <trkpt lat="45.27984" lon="6.18177">
        <ele>1581.4</ele>
        <time>2021-02-17T08:08:57Z</time>
      </trkpt>
      <trkpt lat="45.27984" lon="6.18176">
        <ele>1581.5</ele>
        <time>2021-02-17T08:08:58Z</time>
      </trkpt>
      <trkpt lat="45.27984" lon="6.18175">
        <ele>1581.6</ele>
        <time>2021-02-17T08:08:59Z</time>
      </trkpt>
      <trkpt lat="45.27983" lon="6.18174">
        <ele>1581.8</ele>
        <time>2021-02-17T08:09:00Z</time>
      </trkpt>
      <trkpt lat="45.27983" lon="6.18173">
        <ele>1581.9</ele>
        <time>2021-02-17T08:09:01Z</time>
      </trkpt>
      <trkpt lat="45.27983" lon="6.18172">
        <ele>1582.1</ele>
        <time>2021-02-17T08:09:02Z</time>
      </trkpt>
      <trkpt lat="45.27983" lon="6.18171">
        <ele>1582.2</ele>
        <time>2021-02-17T08:09:03Z</time>
      </trkpt>
      <trkpt lat="45.27982" lon="6.1817">
        <ele>1582.4</ele>
        <time>2021-02-17T08:09:04Z</time>
      </trkpt>
      <trkpt lat="45.27982" lon="6.18169">
        <ele>1582.5</ele>
        <time>2021-02-17T08:09:05Z</time>
      </trkpt>
      <trkpt lat="45.27982" lon="6.18168">
        <ele>1582.7</ele>
        <time>2021-02-17T08:09:06Z</time>
      </trkpt>
      <trkpt lat="45.27982" lon="6.18167">
        <ele>1582.8</ele>
        <time>2021-02-17T08:09:07Z</time>
      </trkpt>
      <trkpt lat="45.27983" lon="6.18166">
        <ele>1582.9</ele>
        <time>2021-02-17T08:09:08Z</time>
      </trkpt>
      <trkpt lat="45.27983" lon="6.18166">
        <ele>1583</ele>
        <time>2021-02-17T08:09:09Z</time>
      </trkpt>
      <trkpt lat="45.27983" lon="6.18165">
        <ele>1583.2</ele>
        <time>2021-02-17T08:09:10Z</time>
      </trkpt>
      <trkpt lat="45.27983" lon="6.18163">
        <ele>1583.4</ele>
        <time>2021-02-17T08:09:11Z</time>
      </trkpt>
      <trkpt lat="45.27983" lon="6.18162">
        <ele>1583.5</ele>
        <time>2021-02-17T08:09:12Z</time>
      </trkpt>
      <trkpt lat="45.27983" lon="6.18161">
        <ele>1583.7</ele>
        <time>2021-02-17T08:09:13Z</time>
      </trkpt>
      <trkpt lat="45.27982" lon="6.18159">
        <ele>1583.9</ele>
        <time>2021-02-17T08:09:14Z</time>
      </trkpt>
      <trkpt lat="45.27982" lon="6.18158">
        <ele>1584.1</ele>
        <time>2021-02-17T08:09:15Z</time>
      </trkpt>
      <trkpt lat="45.27983" lon="6.18157">
        <ele>1584.2</ele>
        <time>2021-02-17T08:09:16Z</time>
      </trkpt>
      <trkpt lat="45.27983" lon="6.18156">
        <ele>1584.3</ele>
        <time>2021-02-17T08:09:17Z</time>
      </trkpt>
      <trkpt lat="45.27983" lon="6.18155">
        <ele>1584.5</ele>
        <time>2021-02-17T08:09:18Z</time>
      </trkpt>
      <trkpt lat="45.27983" lon="6.18154">
        <ele>1584.6</ele>
        <time>2021-02-17T08:09:19Z</time>
      </trkpt>
      <trkpt lat="45.27983" lon="6.18153">
        <ele>1584.7</ele>
        <time>2021-02-17T08:09:20Z</time>
      </trkpt>
      <trkpt lat="45.27983" lon="6.18152">
        <ele>1584.8</ele>
        <time>2021-02-17T08:09:21Z</time>
      </trkpt>
      <trkpt lat="45.27983" lon="6.18151">
        <ele>1584.9</ele>
        <time>2021-02-17T08:09:22Z</time>
      </trkpt>
      <trkpt lat="45.27983" lon="6.1815">
        <ele>1585.1</ele>
        <time>2021-02-17T08:09:23Z</time>
      </trkpt>
      <trkpt lat="45.27983" lon="6.18149">
        <ele>1585.2</ele>
        <time>2021-02-17T08:09:24Z</time>
      </trkpt>
      <trkpt lat="45.27983" lon="6.18147">
        <ele>1585.3</ele>
        <time>2021-02-17T08:09:25Z</time>
      </trkpt>
      <trkpt lat="45.27983" lon="6.18146">
        <ele>1585.5</ele>
        <time>2021-02-17T08:09:26Z</time>
      </trkpt>
      <trkpt lat="45.27983" lon="6.18145">
        <ele>1585.6</ele>
        <time>2021-02-17T08:09:27Z</time>
      </trkpt>
      <trkpt lat="45.27983" lon="6.18143">
        <ele>1585.8</ele>
        <time>2021-02-17T08:09:28Z</time>
      </trkpt>
      <trkpt lat="45.27983" lon="6.18142">
        <ele>1585.9</ele>
        <time>2021-02-17T08:09:29Z</time>
      </trkpt>
      <trkpt lat="45.27983" lon="6.1814">
        <ele>1586.1</ele>
        <time>2021-02-17T08:09:30Z</time>
      </trkpt>
      <trkpt lat="45.27983" lon="6.18138">
        <ele>1586.2</ele>
        <time>2021-02-17T08:09:31Z</time>
      </trkpt>
      <trkpt lat="45.27983" lon="6.18137">
        <ele>1586.4</ele>
        <time>2021-02-17T08:09:32Z</time>
      </trkpt>
      <trkpt lat="45.27983" lon="6.18136">
        <ele>1586.5</ele>
        <time>2021-02-17T08:09:33Z</time>
      </trkpt>
      <trkpt lat="45.27983" lon="6.18135">
        <ele>1586.6</ele>
        <time>2021-02-17T08:09:34Z</time>
      </trkpt>
      <trkpt lat="45.27983" lon="6.18133">
        <ele>1586.7</ele>
        <time>2021-02-17T08:09:35Z</time>
      </trkpt>
      <trkpt lat="45.27983" lon="6.18132">
        <ele>1586.8</ele>
        <time>2021-02-17T08:09:36Z</time>
      </trkpt>
      <trkpt lat="45.27983" lon="6.18131">
        <ele>1586.9</ele>
        <time>2021-02-17T08:09:37Z</time>
      </trkpt>
      <trkpt lat="45.27983" lon="6.1813">
        <ele>1587</ele>
        <time>2021-02-17T08:09:38Z</time>
      </trkpt>
      <trkpt lat="45.27983" lon="6.18129">
        <ele>1587.1</ele>
        <time>2021-02-17T08:09:39Z</time>
      </trkpt>
      <trkpt lat="45.27983" lon="6.18129">
        <ele>1587.1</ele>
        <time>2021-02-17T08:09:40Z</time>
      </trkpt>
      <trkpt lat="45.27984" lon="6.18128">
        <ele>1587.2</ele>
        <time>2021-02-17T08:09:41Z</time>
      </trkpt>
      <trkpt lat="45.27984" lon="6.18127">
        <ele>1587.2</ele>
        <time>2021-02-17T08:09:42Z</time>
      </trkpt>
      <trkpt lat="45.27984" lon="6.18126">
        <ele>1587.3</ele>
        <time>2021-02-17T08:09:43Z</time>
      </trkpt>
      <trkpt lat="45.27984" lon="6.18125">
        <ele>1587.4</ele>
        <time>2021-02-17T08:09:44Z</time>
      </trkpt>
      <trkpt lat="45.27984" lon="6.18124">
        <ele>1587.5</ele>
        <time>2021-02-17T08:09:45Z</time>
      </trkpt>
      <trkpt lat="45.27985" lon="6.18123">
        <ele>1587.6</ele>
        <time>2021-02-17T08:09:46Z</time>
      </trkpt>
      <trkpt lat="45.27985" lon="6.18122">
        <ele>1587.6</ele>
        <time>2021-02-17T08:09:47Z</time>
      </trkpt>
      <trkpt lat="45.27985" lon="6.18121">
        <ele>1587.7</ele>
        <time>2021-02-17T08:09:48Z</time>
      </trkpt>
      <trkpt lat="45.27985" lon="6.18121">
        <ele>1587.8</ele>
        <time>2021-02-17T08:09:49Z</time>
      </trkpt>
      <trkpt lat="45.27984" lon="6.18119">
        <ele>1587.9</ele>
        <time>2021-02-17T08:09:50Z</time>
      </trkpt>
      <trkpt lat="45.27984" lon="6.18118">
        <ele>1588</ele>
        <time>2021-02-17T08:09:51Z</time>
      </trkpt>
      <trkpt lat="45.27984" lon="6.18117">
        <ele>1588.1</ele>
        <time>2021-02-17T08:09:52Z</time>
      </trkpt>
      <trkpt lat="45.27984" lon="6.18115">
        <ele>1588.2</ele>
        <time>2021-02-17T08:09:53Z</time>
      </trkpt>
      <trkpt lat="45.27984" lon="6.18114">
        <ele>1588.3</ele>
        <time>2021-02-17T08:09:54Z</time>
      </trkpt>
      <trkpt lat="45.27984" lon="6.18113">
        <ele>1588.4</ele>
        <time>2021-02-17T08:09:55Z</time>
      </trkpt>
      <trkpt lat="45.27984" lon="6.18111">
        <ele>1588.5</ele>
        <time>2021-02-17T08:09:56Z</time>
      </trkpt>
      <trkpt lat="45.27984" lon="6.1811">
        <ele>1588.6</ele>
        <time>2021-02-17T08:09:57Z</time>
      </trkpt>
      <trkpt lat="45.27984" lon="6.18108">
        <ele>1588.7</ele>
        <time>2021-02-17T08:09:58Z</time>
      </trkpt>
      <trkpt lat="45.27984" lon="6.18106">
        <ele>1588.9</ele>
        <time>2021-02-17T08:09:59Z</time>
      </trkpt>
      <trkpt lat="45.27984" lon="6.18105">
        <ele>1589</ele>
        <time>2021-02-17T08:10:00Z</time>
      </trkpt>
      <trkpt lat="45.27984" lon="6.18104">
        <ele>1589</ele>
        <time>2021-02-17T08:10:01Z</time>
      </trkpt>
      <trkpt lat="45.27984" lon="6.18103">
        <ele>1589.1</ele>
        <time>2021-02-17T08:10:02Z</time>
      </trkpt>
      <trkpt lat="45.27984" lon="6.18102">
        <ele>1589.2</ele>
        <time>2021-02-17T08:10:03Z</time>
      </trkpt>
      <trkpt lat="45.27984" lon="6.18101">
        <ele>1589.3</ele>
        <time>2021-02-17T08:10:04Z</time>
      </trkpt>
      <trkpt lat="45.27984" lon="6.181">
        <ele>1589.3</ele>
        <time>2021-02-17T08:10:05Z</time>
      </trkpt>
      <trkpt lat="45.27984" lon="6.181">
        <ele>1589.4</ele>
        <time>2021-02-17T08:10:06Z</time>
      </trkpt>
      <trkpt lat="45.27984" lon="6.18099">
        <ele>1589.4</ele>
        <time>2021-02-17T08:10:07Z</time>
      </trkpt>
      <trkpt lat="45.27984" lon="6.18097">
        <ele>1589.5</ele>
        <time>2021-02-17T08:10:08Z</time>
      </trkpt>
      <trkpt lat="45.27984" lon="6.18096">
        <ele>1589.6</ele>
        <time>2021-02-17T08:10:09Z</time>
      </trkpt>
      <trkpt lat="45.27984" lon="6.18095">
        <ele>1589.8</ele>
        <time>2021-02-17T08:10:10Z</time>
      </trkpt>
      <trkpt lat="45.27984" lon="6.18093">
        <ele>1589.9</ele>
        <time>2021-02-17T08:10:11Z</time>
      </trkpt>
      <trkpt lat="45.27984" lon="6.18092">
        <ele>1590</ele>
        <time>2021-02-17T08:10:12Z</time>
      </trkpt>
      <trkpt lat="45.27984" lon="6.18091">
        <ele>1590.1</ele>
        <time>2021-02-17T08:10:13Z</time>
      </trkpt>
      <trkpt lat="45.27984" lon="6.1809">
        <ele>1590.2</ele>
        <time>2021-02-17T08:10:14Z</time>
      </trkpt>
      <trkpt lat="45.27984" lon="6.18089">
        <ele>1590.3</ele>
        <time>2021-02-17T08:10:15Z</time>
      </trkpt>
      <trkpt lat="45.27984" lon="6.18088">
        <ele>1590.4</ele>
        <time>2021-02-17T08:10:16Z</time>
      </trkpt>
      <trkpt lat="45.27984" lon="6.18086">
        <ele>1590.5</ele>
        <time>2021-02-17T08:10:17Z</time>
      </trkpt>
      <trkpt lat="45.27984" lon="6.18085">
        <ele>1590.7</ele>
        <time>2021-02-17T08:10:18Z</time>
      </trkpt>
      <trkpt lat="45.27984" lon="6.18084">
        <ele>1590.8</ele>
        <time>2021-02-17T08:10:19Z</time>
      </trkpt>
      <trkpt lat="45.27984" lon="6.18083">
        <ele>1590.9</ele>
        <time>2021-02-17T08:10:20Z</time>
      </trkpt>
      <trkpt lat="45.27984" lon="6.18082">
        <ele>1591</ele>
        <time>2021-02-17T08:10:21Z</time>
      </trkpt>
      <trkpt lat="45.27984" lon="6.18081">
        <ele>1591.1</ele>
        <time>2021-02-17T08:10:22Z</time>
      </trkpt>
      <trkpt lat="45.27984" lon="6.1808">
        <ele>1591.2</ele>
        <time>2021-02-17T08:10:23Z</time>
      </trkpt>
      <trkpt lat="45.27984" lon="6.18079">
        <ele>1591.3</ele>
        <time>2021-02-17T08:10:24Z</time>
      </trkpt>
      <trkpt lat="45.27984" lon="6.18078">
        <ele>1591.4</ele>
        <time>2021-02-17T08:10:25Z</time>
      </trkpt>
      <trkpt lat="45.27984" lon="6.18077">
        <ele>1591.5</ele>
        <time>2021-02-17T08:10:26Z</time>
      </trkpt>
      <trkpt lat="45.27985" lon="6.18077">
        <ele>1591.6</ele>
        <time>2021-02-17T08:10:27Z</time>
      </trkpt>
      <trkpt lat="45.27985" lon="6.18076">
        <ele>1591.7</ele>
        <time>2021-02-17T08:10:28Z</time>
      </trkpt>
      <trkpt lat="45.27985" lon="6.18075">
        <ele>1591.8</ele>
        <time>2021-02-17T08:10:29Z</time>
      </trkpt>
      <trkpt lat="45.27985" lon="6.18074">
        <ele>1591.9</ele>
        <time>2021-02-17T08:10:30Z</time>
      </trkpt>
      <trkpt lat="45.27985" lon="6.18073">
        <ele>1592</ele>
        <time>2021-02-17T08:10:31Z</time>
      </trkpt>
      <trkpt lat="45.27986" lon="6.18072">
        <ele>1592.1</ele>
        <time>2021-02-17T08:10:32Z</time>
      </trkpt>
      <trkpt lat="45.27986" lon="6.18071">
        <ele>1592.2</ele>
        <time>2021-02-17T08:10:33Z</time>
      </trkpt>
      <trkpt lat="45.27986" lon="6.1807">
        <ele>1592.4</ele>
        <time>2021-02-17T08:10:34Z</time>
      </trkpt>
      <trkpt lat="45.27985" lon="6.18069">
        <ele>1592.5</ele>
        <time>2021-02-17T08:10:35Z</time>
      </trkpt>
      <trkpt lat="45.27985" lon="6.18068">
        <ele>1592.6</ele>
        <time>2021-02-17T08:10:36Z</time>
      </trkpt>
      <trkpt lat="45.27985" lon="6.18067">
        <ele>1592.7</ele>
        <time>2021-02-17T08:10:37Z</time>
      </trkpt>
      <trkpt lat="45.27985" lon="6.18066">
        <ele>1592.8</ele>
        <time>2021-02-17T08:10:38Z</time>
      </trkpt>
      <trkpt lat="45.27985" lon="6.18065">
        <ele>1592.9</ele>
        <time>2021-02-17T08:10:39Z</time>
      </trkpt>
      <trkpt lat="45.27984" lon="6.18064">
        <ele>1593.1</ele>
        <time>2021-02-17T08:10:40Z</time>
      </trkpt>
      <trkpt lat="45.27984" lon="6.18063">
        <ele>1593.3</ele>
        <time>2021-02-17T08:10:41Z</time>
      </trkpt>
      <trkpt lat="45.27984" lon="6.18062">
        <ele>1593.4</ele>
        <time>2021-02-17T08:10:42Z</time>
      </trkpt>
      <trkpt lat="45.27984" lon="6.18061">
        <ele>1593.5</ele>
        <time>2021-02-17T08:10:43Z</time>
      </trkpt>
      <trkpt lat="45.27984" lon="6.1806">
        <ele>1593.6</ele>
        <time>2021-02-17T08:10:44Z</time>
      </trkpt>
      <trkpt lat="45.27984" lon="6.18059">
        <ele>1593.7</ele>
        <time>2021-02-17T08:10:45Z</time>
      </trkpt>
      <trkpt lat="45.27984" lon="6.18058">
        <ele>1593.8</ele>
        <time>2021-02-17T08:10:46Z</time>
      </trkpt>
      <trkpt lat="45.27984" lon="6.18057">
        <ele>1594</ele>
        <time>2021-02-17T08:10:47Z</time>
      </trkpt>
      <trkpt lat="45.27984" lon="6.18056">
        <ele>1594.1</ele>
        <time>2021-02-17T08:10:48Z</time>
      </trkpt>
      <trkpt lat="45.27984" lon="6.18055">
        <ele>1594.2</ele>
        <time>2021-02-17T08:10:49Z</time>
      </trkpt>
      <trkpt lat="45.27984" lon="6.18054">
        <ele>1594.4</ele>
        <time>2021-02-17T08:10:50Z</time>
      </trkpt>
      <trkpt lat="45.27984" lon="6.18052">
        <ele>1594.5</ele>
        <time>2021-02-17T08:10:51Z</time>
      </trkpt>
      <trkpt lat="45.27984" lon="6.18051">
        <ele>1594.6</ele>
        <time>2021-02-17T08:10:52Z</time>
      </trkpt>
      <trkpt lat="45.27984" lon="6.1805">
        <ele>1594.7</ele>
        <time>2021-02-17T08:10:53Z</time>
      </trkpt>
      <trkpt lat="45.27984" lon="6.18049">
        <ele>1594.9</ele>
        <time>2021-02-17T08:10:54Z</time>
      </trkpt>
      <trkpt lat="45.27984" lon="6.18048">
        <ele>1595.1</ele>
        <time>2021-02-17T08:10:55Z</time>
      </trkpt>
      <trkpt lat="45.27984" lon="6.18047">
        <ele>1595.2</ele>
        <time>2021-02-17T08:10:56Z</time>
      </trkpt>
      <trkpt lat="45.27984" lon="6.18046">
        <ele>1595.4</ele>
        <time>2021-02-17T08:10:57Z</time>
      </trkpt>
      <trkpt lat="45.27984" lon="6.18045">
        <ele>1595.4</ele>
        <time>2021-02-17T08:10:58Z</time>
      </trkpt>
      <trkpt lat="45.27984" lon="6.18044">
        <ele>1595.6</ele>
        <time>2021-02-17T08:10:59Z</time>
      </trkpt>
      <trkpt lat="45.27984" lon="6.18043">
        <ele>1595.7</ele>
        <time>2021-02-17T08:11:00Z</time>
      </trkpt>
      <trkpt lat="45.27983" lon="6.18042">
        <ele>1595.9</ele>
        <time>2021-02-17T08:11:01Z</time>
      </trkpt>
      <trkpt lat="45.27983" lon="6.1804">
        <ele>1596</ele>
        <time>2021-02-17T08:11:02Z</time>
      </trkpt>
      <trkpt lat="45.27983" lon="6.18039">
        <ele>1596.2</ele>
        <time>2021-02-17T08:11:03Z</time>
      </trkpt>
      <trkpt lat="45.27983" lon="6.18038">
        <ele>1596.4</ele>
        <time>2021-02-17T08:11:04Z</time>
      </trkpt>
      <trkpt lat="45.27983" lon="6.18037">
        <ele>1596.5</ele>
        <time>2021-02-17T08:11:05Z</time>
      </trkpt>
      <trkpt lat="45.27983" lon="6.18036">
        <ele>1596.6</ele>
        <time>2021-02-17T08:11:06Z</time>
      </trkpt>
      <trkpt lat="45.27983" lon="6.18036">
        <ele>1596.7</ele>
        <time>2021-02-17T08:11:07Z</time>
      </trkpt>
      <trkpt lat="45.27983" lon="6.18035">
        <ele>1596.8</ele>
        <time>2021-02-17T08:11:08Z</time>
      </trkpt>
      <trkpt lat="45.27982" lon="6.18033">
        <ele>1597</ele>
        <time>2021-02-17T08:11:09Z</time>
      </trkpt>
      <trkpt lat="45.27982" lon="6.18032">
        <ele>1597.1</ele>
        <time>2021-02-17T08:11:10Z</time>
      </trkpt>
      <trkpt lat="45.27982" lon="6.18031">
        <ele>1597.3</ele>
        <time>2021-02-17T08:11:11Z</time>
      </trkpt>
      <trkpt lat="45.27982" lon="6.1803">
        <ele>1597.4</ele>
        <time>2021-02-17T08:11:12Z</time>
      </trkpt>
      <trkpt lat="45.27982" lon="6.18029">
        <ele>1597.5</ele>
        <time>2021-02-17T08:11:13Z</time>
      </trkpt>
      <trkpt lat="45.27981" lon="6.18028">
        <ele>1597.7</ele>
        <time>2021-02-17T08:11:14Z</time>
      </trkpt>
      <trkpt lat="45.27981" lon="6.18027">
        <ele>1597.9</ele>
        <time>2021-02-17T08:11:15Z</time>
      </trkpt>
      <trkpt lat="45.27981" lon="6.18026">
        <ele>1598</ele>
        <time>2021-02-17T08:11:16Z</time>
      </trkpt>
      <trkpt lat="45.27981" lon="6.18025">
        <ele>1598.1</ele>
        <time>2021-02-17T08:11:17Z</time>
      </trkpt>
      <trkpt lat="45.27981" lon="6.18024">
        <ele>1598.2</ele>
        <time>2021-02-17T08:11:18Z</time>
      </trkpt>
      <trkpt lat="45.27981" lon="6.18023">
        <ele>1598.3</ele>
        <time>2021-02-17T08:11:19Z</time>
      </trkpt>
      <trkpt lat="45.27981" lon="6.18022">
        <ele>1598.4</ele>
        <time>2021-02-17T08:11:20Z</time>
      </trkpt>
      <trkpt lat="45.27981" lon="6.18022">
        <ele>1598.5</ele>
        <time>2021-02-17T08:11:21Z</time>
      </trkpt>
      <trkpt lat="45.2798" lon="6.18021">
        <ele>1598.7</ele>
        <time>2021-02-17T08:11:22Z</time>
      </trkpt>
      <trkpt lat="45.2798" lon="6.1802">
        <ele>1598.8</ele>
        <time>2021-02-17T08:11:23Z</time>
      </trkpt>
      <trkpt lat="45.2798" lon="6.18019">
        <ele>1598.9</ele>
        <time>2021-02-17T08:11:24Z</time>
      </trkpt>
      <trkpt lat="45.27979" lon="6.18018">
        <ele>1599.1</ele>
        <time>2021-02-17T08:11:25Z</time>
      </trkpt>
      <trkpt lat="45.27979" lon="6.18017">
        <ele>1599.1</ele>
        <time>2021-02-17T08:11:26Z</time>
      </trkpt>
      <trkpt lat="45.27979" lon="6.18016">
        <ele>1599.3</ele>
        <time>2021-02-17T08:11:27Z</time>
      </trkpt>
      <trkpt lat="45.27979" lon="6.18015">
        <ele>1599.4</ele>
        <time>2021-02-17T08:11:28Z</time>
      </trkpt>
      <trkpt lat="45.27978" lon="6.18014">
        <ele>1599.6</ele>
        <time>2021-02-17T08:11:29Z</time>
      </trkpt>
      <trkpt lat="45.27978" lon="6.18012">
        <ele>1599.8</ele>
        <time>2021-02-17T08:11:30Z</time>
      </trkpt>
      <trkpt lat="45.27978" lon="6.18011">
        <ele>1599.9</ele>
        <time>2021-02-17T08:11:31Z</time>
      </trkpt>
      <trkpt lat="45.27978" lon="6.1801">
        <ele>1600.1</ele>
        <time>2021-02-17T08:11:32Z</time>
      </trkpt>
      <trkpt lat="45.27977" lon="6.18009">
        <ele>1600.2</ele>
        <time>2021-02-17T08:11:33Z</time>
      </trkpt>
      <trkpt lat="45.27977" lon="6.18008">
        <ele>1600.3</ele>
        <time>2021-02-17T08:11:34Z</time>
      </trkpt>
      <trkpt lat="45.27977" lon="6.18006">
        <ele>1600.5</ele>
        <time>2021-02-17T08:11:35Z</time>
      </trkpt>
      <trkpt lat="45.27977" lon="6.18005">
        <ele>1600.7</ele>
        <time>2021-02-17T08:11:36Z</time>
      </trkpt>
      <trkpt lat="45.27977" lon="6.18003">
        <ele>1600.8</ele>
        <time>2021-02-17T08:11:37Z</time>
      </trkpt>
      <trkpt lat="45.27977" lon="6.18003">
        <ele>1600.9</ele>
        <time>2021-02-17T08:11:38Z</time>
      </trkpt>
      <trkpt lat="45.27977" lon="6.18002">
        <ele>1601</ele>
        <time>2021-02-17T08:11:39Z</time>
      </trkpt>
      <trkpt lat="45.27977" lon="6.18">
        <ele>1601.2</ele>
        <time>2021-02-17T08:11:40Z</time>
      </trkpt>
      <trkpt lat="45.27977" lon="6.18">
        <ele>1601.3</ele>
        <time>2021-02-17T08:11:41Z</time>
      </trkpt>
      <trkpt lat="45.27977" lon="6.17999">
        <ele>1601.4</ele>
        <time>2021-02-17T08:11:42Z</time>
      </trkpt>
      <trkpt lat="45.27977" lon="6.17998">
        <ele>1601.4</ele>
        <time>2021-02-17T08:11:43Z</time>
      </trkpt>
      <trkpt lat="45.27977" lon="6.17998">
        <ele>1601.5</ele>
        <time>2021-02-17T08:11:44Z</time>
      </trkpt>
      <trkpt lat="45.27977" lon="6.17997">
        <ele>1601.7</ele>
        <time>2021-02-17T08:11:45Z</time>
      </trkpt>
      <trkpt lat="45.27976" lon="6.17996">
        <ele>1601.8</ele>
        <time>2021-02-17T08:11:46Z</time>
      </trkpt>
      <trkpt lat="45.27976" lon="6.17995">
        <ele>1601.9</ele>
        <time>2021-02-17T08:11:47Z</time>
      </trkpt>
      <trkpt lat="45.27976" lon="6.17994">
        <ele>1602</ele>
        <time>2021-02-17T08:11:48Z</time>
      </trkpt>
      <trkpt lat="45.27976" lon="6.17993">
        <ele>1602.1</ele>
        <time>2021-02-17T08:11:49Z</time>
      </trkpt>
      <trkpt lat="45.27976" lon="6.17992">
        <ele>1602.2</ele>
        <time>2021-02-17T08:11:50Z</time>
      </trkpt>
      <trkpt lat="45.27976" lon="6.17991">
        <ele>1602.4</ele>
        <time>2021-02-17T08:11:51Z</time>
      </trkpt>
      <trkpt lat="45.27976" lon="6.1799">
        <ele>1602.5</ele>
        <time>2021-02-17T08:11:52Z</time>
      </trkpt>
      <trkpt lat="45.27975" lon="6.17988">
        <ele>1602.6</ele>
        <time>2021-02-17T08:11:53Z</time>
      </trkpt>
      <trkpt lat="45.27975" lon="6.17987">
        <ele>1602.8</ele>
        <time>2021-02-17T08:11:54Z</time>
      </trkpt>
      <trkpt lat="45.27975" lon="6.17986">
        <ele>1603</ele>
        <time>2021-02-17T08:11:55Z</time>
      </trkpt>
      <trkpt lat="45.27975" lon="6.17985">
        <ele>1603.1</ele>
        <time>2021-02-17T08:11:56Z</time>
      </trkpt>
      <trkpt lat="45.27975" lon="6.17984">
        <ele>1603.2</ele>
        <time>2021-02-17T08:11:57Z</time>
      </trkpt>
      <trkpt lat="45.27975" lon="6.17983">
        <ele>1603.4</ele>
        <time>2021-02-17T08:11:58Z</time>
      </trkpt>
      <trkpt lat="45.27975" lon="6.17982">
        <ele>1603.4</ele>
        <time>2021-02-17T08:11:59Z</time>
      </trkpt>
      <trkpt lat="45.27976" lon="6.17981">
        <ele>1603.5</ele>
        <time>2021-02-17T08:12:00Z</time>
      </trkpt>
      <trkpt lat="45.27975" lon="6.1798">
        <ele>1603.6</ele>
        <time>2021-02-17T08:12:01Z</time>
      </trkpt>
      <trkpt lat="45.27975" lon="6.17979">
        <ele>1603.8</ele>
        <time>2021-02-17T08:12:02Z</time>
      </trkpt>
      <trkpt lat="45.27975" lon="6.17978">
        <ele>1603.9</ele>
        <time>2021-02-17T08:12:03Z</time>
      </trkpt>
      <trkpt lat="45.27975" lon="6.17977">
        <ele>1604</ele>
        <time>2021-02-17T08:12:04Z</time>
      </trkpt>
      <trkpt lat="45.27975" lon="6.17976">
        <ele>1604.2</ele>
        <time>2021-02-17T08:12:05Z</time>
      </trkpt>
      <trkpt lat="45.27975" lon="6.17974">
        <ele>1604.3</ele>
        <time>2021-02-17T08:12:06Z</time>
      </trkpt>
      <trkpt lat="45.27975" lon="6.17973">
        <ele>1604.4</ele>
        <time>2021-02-17T08:12:07Z</time>
      </trkpt>
      <trkpt lat="45.27975" lon="6.17972">
        <ele>1604.5</ele>
        <time>2021-02-17T08:12:08Z</time>
      </trkpt>
      <trkpt lat="45.27975" lon="6.17971">
        <ele>1604.7</ele>
        <time>2021-02-17T08:12:09Z</time>
      </trkpt>
      <trkpt lat="45.27975" lon="6.1797">
        <ele>1604.8</ele>
        <time>2021-02-17T08:12:10Z</time>
      </trkpt>
      <trkpt lat="45.27975" lon="6.1797">
        <ele>1604.9</ele>
        <time>2021-02-17T08:12:11Z</time>
      </trkpt>
      <trkpt lat="45.27975" lon="6.17969">
        <ele>1605</ele>
        <time>2021-02-17T08:12:12Z</time>
      </trkpt>
      <trkpt lat="45.27975" lon="6.17968">
        <ele>1605.1</ele>
        <time>2021-02-17T08:12:13Z</time>
      </trkpt>
      <trkpt lat="45.27975" lon="6.17967">
        <ele>1605.2</ele>
        <time>2021-02-17T08:12:14Z</time>
      </trkpt>
      <trkpt lat="45.27976" lon="6.17966">
        <ele>1605.3</ele>
        <time>2021-02-17T08:12:15Z</time>
      </trkpt>
      <trkpt lat="45.27976" lon="6.17965">
        <ele>1605.4</ele>
        <time>2021-02-17T08:12:16Z</time>
      </trkpt>
      <trkpt lat="45.27976" lon="6.17964">
        <ele>1605.5</ele>
        <time>2021-02-17T08:12:17Z</time>
      </trkpt>
      <trkpt lat="45.27976" lon="6.17963">
        <ele>1605.6</ele>
        <time>2021-02-17T08:12:18Z</time>
      </trkpt>
      <trkpt lat="45.27976" lon="6.17962">
        <ele>1605.8</ele>
        <time>2021-02-17T08:12:19Z</time>
      </trkpt>
      <trkpt lat="45.27976" lon="6.17961">
        <ele>1605.9</ele>
        <time>2021-02-17T08:12:20Z</time>
      </trkpt>
      <trkpt lat="45.27976" lon="6.1796">
        <ele>1606</ele>
        <time>2021-02-17T08:12:21Z</time>
      </trkpt>
      <trkpt lat="45.27976" lon="6.17959">
        <ele>1606.1</ele>
        <time>2021-02-17T08:12:22Z</time>
      </trkpt>
      <trkpt lat="45.27977" lon="6.17958">
        <ele>1606.3</ele>
        <time>2021-02-17T08:12:23Z</time>
      </trkpt>
      <trkpt lat="45.27977" lon="6.17955">
        <ele>1606.6</ele>
        <time>2021-02-17T08:12:24Z</time>
      </trkpt>
      <trkpt lat="45.27977" lon="6.17954">
        <ele>1606.7</ele>
        <time>2021-02-17T08:12:25Z</time>
      </trkpt>
      <trkpt lat="45.27978" lon="6.17953">
        <ele>1606.9</ele>
        <time>2021-02-17T08:12:26Z</time>
      </trkpt>
      <trkpt lat="45.27978" lon="6.17952">
        <ele>1607</ele>
        <time>2021-02-17T08:12:27Z</time>
      </trkpt>
      <trkpt lat="45.27978" lon="6.17951">
        <ele>1607.1</ele>
        <time>2021-02-17T08:12:28Z</time>
      </trkpt>
      <trkpt lat="45.27979" lon="6.17949">
        <ele>1607.3</ele>
        <time>2021-02-17T08:12:29Z</time>
      </trkpt>
      <trkpt lat="45.27979" lon="6.17948">
        <ele>1607.5</ele>
        <time>2021-02-17T08:12:30Z</time>
      </trkpt>
      <trkpt lat="45.27979" lon="6.17947">
        <ele>1607.6</ele>
        <time>2021-02-17T08:12:31Z</time>
      </trkpt>
      <trkpt lat="45.2798" lon="6.17946">
        <ele>1607.8</ele>
        <time>2021-02-17T08:12:32Z</time>
      </trkpt>
      <trkpt lat="45.2798" lon="6.17945">
        <ele>1607.9</ele>
        <time>2021-02-17T08:12:33Z</time>
      </trkpt>
      <trkpt lat="45.2798" lon="6.17944">
        <ele>1608</ele>
        <time>2021-02-17T08:12:34Z</time>
      </trkpt>
      <trkpt lat="45.2798" lon="6.17943">
        <ele>1608.1</ele>
        <time>2021-02-17T08:12:35Z</time>
      </trkpt>
      <trkpt lat="45.2798" lon="6.17942">
        <ele>1608.2</ele>
        <time>2021-02-17T08:12:36Z</time>
      </trkpt>
      <trkpt lat="45.2798" lon="6.17941">
        <ele>1608.3</ele>
        <time>2021-02-17T08:12:37Z</time>
      </trkpt>
      <trkpt lat="45.27981" lon="6.17941">
        <ele>1608.5</ele>
        <time>2021-02-17T08:12:38Z</time>
      </trkpt>
      <trkpt lat="45.27981" lon="6.17939">
        <ele>1608.6</ele>
        <time>2021-02-17T08:12:39Z</time>
      </trkpt>
      <trkpt lat="45.27981" lon="6.17938">
        <ele>1608.7</ele>
        <time>2021-02-17T08:12:40Z</time>
      </trkpt>
      <trkpt lat="45.27981" lon="6.17937">
        <ele>1608.8</ele>
        <time>2021-02-17T08:12:41Z</time>
      </trkpt>
      <trkpt lat="45.27981" lon="6.17936">
        <ele>1609</ele>
        <time>2021-02-17T08:12:42Z</time>
      </trkpt>
      <trkpt lat="45.27981" lon="6.17935">
        <ele>1609.1</ele>
        <time>2021-02-17T08:12:43Z</time>
      </trkpt>
      <trkpt lat="45.27981" lon="6.17934">
        <ele>1609.2</ele>
        <time>2021-02-17T08:12:44Z</time>
      </trkpt>
      <trkpt lat="45.27981" lon="6.17933">
        <ele>1609.4</ele>
        <time>2021-02-17T08:12:45Z</time>
      </trkpt>
      <trkpt lat="45.27981" lon="6.17932">
        <ele>1609.5</ele>
        <time>2021-02-17T08:12:46Z</time>
      </trkpt>
      <trkpt lat="45.27981" lon="6.17931">
        <ele>1609.6</ele>
        <time>2021-02-17T08:12:47Z</time>
      </trkpt>
      <trkpt lat="45.27981" lon="6.1793">
        <ele>1609.7</ele>
        <time>2021-02-17T08:12:48Z</time>
      </trkpt>
      <trkpt lat="45.27981" lon="6.17929">
        <ele>1609.8</ele>
        <time>2021-02-17T08:12:49Z</time>
      </trkpt>
      <trkpt lat="45.27982" lon="6.17928">
        <ele>1610</ele>
        <time>2021-02-17T08:12:50Z</time>
      </trkpt>
      <trkpt lat="45.27982" lon="6.17927">
        <ele>1610.1</ele>
        <time>2021-02-17T08:12:51Z</time>
      </trkpt>
      <trkpt lat="45.27982" lon="6.17926">
        <ele>1610.2</ele>
        <time>2021-02-17T08:12:52Z</time>
      </trkpt>
      <trkpt lat="45.27982" lon="6.17925">
        <ele>1610.3</ele>
        <time>2021-02-17T08:12:53Z</time>
      </trkpt>
      <trkpt lat="45.27982" lon="6.17924">
        <ele>1610.5</ele>
        <time>2021-02-17T08:12:54Z</time>
      </trkpt>
      <trkpt lat="45.27982" lon="6.17923">
        <ele>1610.6</ele>
        <time>2021-02-17T08:12:55Z</time>
      </trkpt>
      <trkpt lat="45.27982" lon="6.17922">
        <ele>1610.7</ele>
        <time>2021-02-17T08:12:56Z</time>
      </trkpt>
      <trkpt lat="45.27983" lon="6.17921">
        <ele>1610.8</ele>
        <time>2021-02-17T08:12:57Z</time>
      </trkpt>
      <trkpt lat="45.27983" lon="6.1792">
        <ele>1610.9</ele>
        <time>2021-02-17T08:12:58Z</time>
      </trkpt>
      <trkpt lat="45.27983" lon="6.17919">
        <ele>1611</ele>
        <time>2021-02-17T08:12:59Z</time>
      </trkpt>
      <trkpt lat="45.27983" lon="6.17918">
        <ele>1611.2</ele>
        <time>2021-02-17T08:13:00Z</time>
      </trkpt>
      <trkpt lat="45.27983" lon="6.17917">
        <ele>1611.3</ele>
        <time>2021-02-17T08:13:01Z</time>
      </trkpt>
      <trkpt lat="45.27983" lon="6.17916">
        <ele>1611.4</ele>
        <time>2021-02-17T08:13:02Z</time>
      </trkpt>
      <trkpt lat="45.27984" lon="6.17915">
        <ele>1611.5</ele>
        <time>2021-02-17T08:13:03Z</time>
      </trkpt>
      <trkpt lat="45.27984" lon="6.17914">
        <ele>1611.6</ele>
        <time>2021-02-17T08:13:04Z</time>
      </trkpt>
      <trkpt lat="45.27984" lon="6.17913">
        <ele>1611.8</ele>
        <time>2021-02-17T08:13:05Z</time>
      </trkpt>
      <trkpt lat="45.27985" lon="6.17912">
        <ele>1611.9</ele>
        <time>2021-02-17T08:13:06Z</time>
      </trkpt>
      <trkpt lat="45.27985" lon="6.1791">
        <ele>1612.1</ele>
        <time>2021-02-17T08:13:07Z</time>
      </trkpt>
      <trkpt lat="45.27985" lon="6.17909">
        <ele>1612.2</ele>
        <time>2021-02-17T08:13:08Z</time>
      </trkpt>
      <trkpt lat="45.27985" lon="6.17908">
        <ele>1612.3</ele>
        <time>2021-02-17T08:13:09Z</time>
      </trkpt>
      <trkpt lat="45.27985" lon="6.17907">
        <ele>1612.4</ele>
        <time>2021-02-17T08:13:10Z</time>
      </trkpt>
      <trkpt lat="45.27986" lon="6.17906">
        <ele>1612.6</ele>
        <time>2021-02-17T08:13:11Z</time>
      </trkpt>
      <trkpt lat="45.27986" lon="6.17905">
        <ele>1612.7</ele>
        <time>2021-02-17T08:13:12Z</time>
      </trkpt>
      <trkpt lat="45.27986" lon="6.17904">
        <ele>1612.8</ele>
        <time>2021-02-17T08:13:13Z</time>
      </trkpt>
      <trkpt lat="45.27986" lon="6.17903">
        <ele>1613</ele>
        <time>2021-02-17T08:13:14Z</time>
      </trkpt>
      <trkpt lat="45.27986" lon="6.17901">
        <ele>1613.1</ele>
        <time>2021-02-17T08:13:15Z</time>
      </trkpt>
      <trkpt lat="45.27986" lon="6.179">
        <ele>1613.3</ele>
        <time>2021-02-17T08:13:16Z</time>
      </trkpt>
      <trkpt lat="45.27986" lon="6.17899">
        <ele>1613.4</ele>
        <time>2021-02-17T08:13:17Z</time>
      </trkpt>
      <trkpt lat="45.27986" lon="6.17898">
        <ele>1613.5</ele>
        <time>2021-02-17T08:13:18Z</time>
      </trkpt>
      <trkpt lat="45.27986" lon="6.17897">
        <ele>1613.7</ele>
        <time>2021-02-17T08:13:19Z</time>
      </trkpt>
      <trkpt lat="45.27986" lon="6.17895">
        <ele>1613.8</ele>
        <time>2021-02-17T08:13:20Z</time>
      </trkpt>
      <trkpt lat="45.27986" lon="6.17894">
        <ele>1613.9</ele>
        <time>2021-02-17T08:13:21Z</time>
      </trkpt>
      <trkpt lat="45.27987" lon="6.17893">
        <ele>1614.1</ele>
        <time>2021-02-17T08:13:22Z</time>
      </trkpt>
      <trkpt lat="45.27987" lon="6.17892">
        <ele>1614.2</ele>
        <time>2021-02-17T08:13:23Z</time>
      </trkpt>
      <trkpt lat="45.27987" lon="6.17891">
        <ele>1614.3</ele>
        <time>2021-02-17T08:13:24Z</time>
      </trkpt>
      <trkpt lat="45.27987" lon="6.17889">
        <ele>1614.5</ele>
        <time>2021-02-17T08:13:25Z</time>
      </trkpt>
      <trkpt lat="45.27987" lon="6.17888">
        <ele>1614.6</ele>
        <time>2021-02-17T08:13:26Z</time>
      </trkpt>
      <trkpt lat="45.27987" lon="6.17887">
        <ele>1614.7</ele>
        <time>2021-02-17T08:13:27Z</time>
      </trkpt>
      <trkpt lat="45.27988" lon="6.17886">
        <ele>1614.8</ele>
        <time>2021-02-17T08:13:28Z</time>
      </trkpt>
      <trkpt lat="45.27988" lon="6.17885">
        <ele>1614.9</ele>
        <time>2021-02-17T08:13:29Z</time>
      </trkpt>
      <trkpt lat="45.27988" lon="6.17884">
        <ele>1615.1</ele>
        <time>2021-02-17T08:13:30Z</time>
      </trkpt>
      <trkpt lat="45.27988" lon="6.17883">
        <ele>1615.2</ele>
        <time>2021-02-17T08:13:31Z</time>
      </trkpt>
      <trkpt lat="45.27989" lon="6.17883">
        <ele>1615.3</ele>
        <time>2021-02-17T08:13:32Z</time>
      </trkpt>
      <trkpt lat="45.2799" lon="6.17882">
        <ele>1615.4</ele>
        <time>2021-02-17T08:13:33Z</time>
      </trkpt>
      <trkpt lat="45.2799" lon="6.17881">
        <ele>1615.6</ele>
        <time>2021-02-17T08:13:34Z</time>
      </trkpt>
      <trkpt lat="45.2799" lon="6.1788">
        <ele>1615.7</ele>
        <time>2021-02-17T08:13:35Z</time>
      </trkpt>
      <trkpt lat="45.27991" lon="6.17878">
        <ele>1615.8</ele>
        <time>2021-02-17T08:13:36Z</time>
      </trkpt>
      <trkpt lat="45.27991" lon="6.17878">
        <ele>1615.9</ele>
        <time>2021-02-17T08:13:37Z</time>
      </trkpt>
      <trkpt lat="45.27991" lon="6.17877">
        <ele>1616</ele>
        <time>2021-02-17T08:13:38Z</time>
      </trkpt>
      <trkpt lat="45.27991" lon="6.17876">
        <ele>1616.1</ele>
        <time>2021-02-17T08:13:39Z</time>
      </trkpt>
      <trkpt lat="45.27992" lon="6.17875">
        <ele>1616.2</ele>
        <time>2021-02-17T08:13:40Z</time>
      </trkpt>
      <trkpt lat="45.27992" lon="6.17875">
        <ele>1616.3</ele>
        <time>2021-02-17T08:13:41Z</time>
      </trkpt>
      <trkpt lat="45.27992" lon="6.17874">
        <ele>1616.4</ele>
        <time>2021-02-17T08:13:42Z</time>
      </trkpt>
      <trkpt lat="45.27993" lon="6.17873">
        <ele>1616.5</ele>
        <time>2021-02-17T08:13:43Z</time>
      </trkpt>
      <trkpt lat="45.27993" lon="6.17872">
        <ele>1616.7</ele>
        <time>2021-02-17T08:13:44Z</time>
      </trkpt>
      <trkpt lat="45.27994" lon="6.1787">
        <ele>1616.8</ele>
        <time>2021-02-17T08:13:45Z</time>
      </trkpt>
      <trkpt lat="45.27994" lon="6.17869">
        <ele>1617</ele>
        <time>2021-02-17T08:13:46Z</time>
      </trkpt>
      <trkpt lat="45.27995" lon="6.17868">
        <ele>1617.1</ele>
        <time>2021-02-17T08:13:47Z</time>
      </trkpt>
      <trkpt lat="45.27995" lon="6.17867">
        <ele>1617.3</ele>
        <time>2021-02-17T08:13:48Z</time>
      </trkpt>
      <trkpt lat="45.27996" lon="6.17866">
        <ele>1617.3</ele>
        <time>2021-02-17T08:13:49Z</time>
      </trkpt>
      <trkpt lat="45.27996" lon="6.17865">
        <ele>1617.5</ele>
        <time>2021-02-17T08:13:50Z</time>
      </trkpt>
      <trkpt lat="45.27997" lon="6.17864">
        <ele>1617.6</ele>
        <time>2021-02-17T08:13:51Z</time>
      </trkpt>
      <trkpt lat="45.27997" lon="6.17863">
        <ele>1617.7</ele>
        <time>2021-02-17T08:13:52Z</time>
      </trkpt>
      <trkpt lat="45.27998" lon="6.17862">
        <ele>1617.8</ele>
        <time>2021-02-17T08:13:53Z</time>
      </trkpt>
      <trkpt lat="45.27998" lon="6.17861">
        <ele>1618</ele>
        <time>2021-02-17T08:13:54Z</time>
      </trkpt>
      <trkpt lat="45.27998" lon="6.1786">
        <ele>1618.1</ele>
        <time>2021-02-17T08:13:55Z</time>
      </trkpt>
      <trkpt lat="45.27998" lon="6.17858">
        <ele>1618.2</ele>
        <time>2021-02-17T08:13:56Z</time>
      </trkpt>
      <trkpt lat="45.27998" lon="6.17857">
        <ele>1618.3</ele>
        <time>2021-02-17T08:13:57Z</time>
      </trkpt>
      <trkpt lat="45.27998" lon="6.17856">
        <ele>1618.5</ele>
        <time>2021-02-17T08:13:58Z</time>
      </trkpt>
      <trkpt lat="45.27998" lon="6.17854">
        <ele>1618.6</ele>
        <time>2021-02-17T08:13:59Z</time>
      </trkpt>
      <trkpt lat="45.27999" lon="6.17853">
        <ele>1618.7</ele>
        <time>2021-02-17T08:14:00Z</time>
      </trkpt>
      <trkpt lat="45.27999" lon="6.17851">
        <ele>1618.9</ele>
        <time>2021-02-17T08:14:01Z</time>
      </trkpt>
      <trkpt lat="45.27999" lon="6.1785">
        <ele>1619</ele>
        <time>2021-02-17T08:14:02Z</time>
      </trkpt>
      <trkpt lat="45.27998" lon="6.17848">
        <ele>1619.2</ele>
        <time>2021-02-17T08:14:03Z</time>
      </trkpt>
      <trkpt lat="45.27998" lon="6.17847">
        <ele>1619.3</ele>
        <time>2021-02-17T08:14:04Z</time>
      </trkpt>
      <trkpt lat="45.27998" lon="6.17845">
        <ele>1619.5</ele>
        <time>2021-02-17T08:14:05Z</time>
      </trkpt>
      <trkpt lat="45.27998" lon="6.17844">
        <ele>1619.6</ele>
        <time>2021-02-17T08:14:06Z</time>
      </trkpt>
      <trkpt lat="45.27998" lon="6.17843">
        <ele>1619.7</ele>
        <time>2021-02-17T08:14:07Z</time>
      </trkpt>
      <trkpt lat="45.27998" lon="6.17842">
        <ele>1619.8</ele>
        <time>2021-02-17T08:14:08Z</time>
      </trkpt>
      <trkpt lat="45.27998" lon="6.17841">
        <ele>1619.9</ele>
        <time>2021-02-17T08:14:09Z</time>
      </trkpt>
      <trkpt lat="45.27998" lon="6.1784">
        <ele>1620</ele>
        <time>2021-02-17T08:14:10Z</time>
      </trkpt>
      <trkpt lat="45.27998" lon="6.17839">
        <ele>1620.1</ele>
        <time>2021-02-17T08:14:11Z</time>
      </trkpt>
      <trkpt lat="45.27999" lon="6.17838">
        <ele>1620.2</ele>
        <time>2021-02-17T08:14:12Z</time>
      </trkpt>
      <trkpt lat="45.27999" lon="6.17837">
        <ele>1620.3</ele>
        <time>2021-02-17T08:14:13Z</time>
      </trkpt>
      <trkpt lat="45.27999" lon="6.17836">
        <ele>1620.4</ele>
        <time>2021-02-17T08:14:14Z</time>
      </trkpt>
      <trkpt lat="45.27999" lon="6.17835">
        <ele>1620.6</ele>
        <time>2021-02-17T08:14:15Z</time>
      </trkpt>
      <trkpt lat="45.27999" lon="6.17833">
        <ele>1620.7</ele>
        <time>2021-02-17T08:14:16Z</time>
      </trkpt>
      <trkpt lat="45.27999" lon="6.17831">
        <ele>1620.9</ele>
        <time>2021-02-17T08:14:17Z</time>
      </trkpt>
      <trkpt lat="45.27999" lon="6.1783">
        <ele>1621</ele>
        <time>2021-02-17T08:14:18Z</time>
      </trkpt>
      <trkpt lat="45.28" lon="6.17828">
        <ele>1621.2</ele>
        <time>2021-02-17T08:14:19Z</time>
      </trkpt>
      <trkpt lat="45.28" lon="6.17827">
        <ele>1621.3</ele>
        <time>2021-02-17T08:14:20Z</time>
      </trkpt>
      <trkpt lat="45.28" lon="6.17826">
        <ele>1621.5</ele>
        <time>2021-02-17T08:14:21Z</time>
      </trkpt>
      <trkpt lat="45.28" lon="6.17824">
        <ele>1621.6</ele>
        <time>2021-02-17T08:14:22Z</time>
      </trkpt>
      <trkpt lat="45.28001" lon="6.17822">
        <ele>1621.9</ele>
        <time>2021-02-17T08:14:23Z</time>
      </trkpt>
      <trkpt lat="45.28001" lon="6.17821">
        <ele>1622</ele>
        <time>2021-02-17T08:14:24Z</time>
      </trkpt>
      <trkpt lat="45.28001" lon="6.1782">
        <ele>1622.1</ele>
        <time>2021-02-17T08:14:25Z</time>
      </trkpt>
      <trkpt lat="45.28001" lon="6.17819">
        <ele>1622.2</ele>
        <time>2021-02-17T08:14:26Z</time>
      </trkpt>
      <trkpt lat="45.28002" lon="6.17818">
        <ele>1622.4</ele>
        <time>2021-02-17T08:14:27Z</time>
      </trkpt>
      <trkpt lat="45.28002" lon="6.17816">
        <ele>1622.5</ele>
        <time>2021-02-17T08:14:28Z</time>
      </trkpt>
      <trkpt lat="45.28002" lon="6.17815">
        <ele>1622.7</ele>
        <time>2021-02-17T08:14:29Z</time>
      </trkpt>
      <trkpt lat="45.28002" lon="6.17814">
        <ele>1622.8</ele>
        <time>2021-02-17T08:14:30Z</time>
      </trkpt>
      <trkpt lat="45.28002" lon="6.17813">
        <ele>1622.9</ele>
        <time>2021-02-17T08:14:31Z</time>
      </trkpt>
      <trkpt lat="45.28002" lon="6.17811">
        <ele>1623.1</ele>
        <time>2021-02-17T08:14:32Z</time>
      </trkpt>
      <trkpt lat="45.28002" lon="6.1781">
        <ele>1623.2</ele>
        <time>2021-02-17T08:14:33Z</time>
      </trkpt>
      <trkpt lat="45.28002" lon="6.17809">
        <ele>1623.3</ele>
        <time>2021-02-17T08:14:34Z</time>
      </trkpt>
      <trkpt lat="45.28002" lon="6.17809">
        <ele>1623.4</ele>
        <time>2021-02-17T08:14:35Z</time>
      </trkpt>
      <trkpt lat="45.28002" lon="6.17807">
        <ele>1623.6</ele>
        <time>2021-02-17T08:14:36Z</time>
      </trkpt>
      <trkpt lat="45.28002" lon="6.17806">
        <ele>1623.8</ele>
        <time>2021-02-17T08:14:37Z</time>
      </trkpt>
      <trkpt lat="45.28002" lon="6.17804">
        <ele>1624</ele>
        <time>2021-02-17T08:14:38Z</time>
      </trkpt>
      <trkpt lat="45.28002" lon="6.17803">
        <ele>1624.2</ele>
        <time>2021-02-17T08:14:39Z</time>
      </trkpt>
      <trkpt lat="45.28002" lon="6.17801">
        <ele>1624.3</ele>
        <time>2021-02-17T08:14:40Z</time>
      </trkpt>
      <trkpt lat="45.28003" lon="6.178">
        <ele>1624.5</ele>
        <time>2021-02-17T08:14:41Z</time>
      </trkpt>
      <trkpt lat="45.28003" lon="6.17799">
        <ele>1624.6</ele>
        <time>2021-02-17T08:14:42Z</time>
      </trkpt>
      <trkpt lat="45.28003" lon="6.17798">
        <ele>1624.8</ele>
        <time>2021-02-17T08:14:43Z</time>
      </trkpt>
      <trkpt lat="45.28003" lon="6.17797">
        <ele>1624.9</ele>
        <time>2021-02-17T08:14:44Z</time>
      </trkpt>
      <trkpt lat="45.28003" lon="6.17796">
        <ele>1625</ele>
        <time>2021-02-17T08:14:45Z</time>
      </trkpt>
      <trkpt lat="45.28003" lon="6.17795">
        <ele>1625.2</ele>
        <time>2021-02-17T08:14:46Z</time>
      </trkpt>
      <trkpt lat="45.28004" lon="6.17794">
        <ele>1625.3</ele>
        <time>2021-02-17T08:14:47Z</time>
      </trkpt>
      <trkpt lat="45.28004" lon="6.17793">
        <ele>1625.4</ele>
        <time>2021-02-17T08:14:48Z</time>
      </trkpt>
      <trkpt lat="45.28004" lon="6.17792">
        <ele>1625.6</ele>
        <time>2021-02-17T08:14:49Z</time>
      </trkpt>
      <trkpt lat="45.28004" lon="6.17792">
        <ele>1625.7</ele>
        <time>2021-02-17T08:14:50Z</time>
      </trkpt>
      <trkpt lat="45.28004" lon="6.17791">
        <ele>1625.8</ele>
        <time>2021-02-17T08:14:51Z</time>
      </trkpt>
      <trkpt lat="45.28005" lon="6.1779">
        <ele>1626</ele>
        <time>2021-02-17T08:14:52Z</time>
      </trkpt>
      <trkpt lat="45.28005" lon="6.17789">
        <ele>1626.1</ele>
        <time>2021-02-17T08:14:53Z</time>
      </trkpt>
      <trkpt lat="45.28005" lon="6.17788">
        <ele>1626.3</ele>
        <time>2021-02-17T08:14:54Z</time>
      </trkpt>
      <trkpt lat="45.28004" lon="6.17787">
        <ele>1626.5</ele>
        <time>2021-02-17T08:14:55Z</time>
      </trkpt>
      <trkpt lat="45.28004" lon="6.17786">
        <ele>1626.6</ele>
        <time>2021-02-17T08:14:56Z</time>
      </trkpt>
      <trkpt lat="45.28004" lon="6.17785">
        <ele>1626.8</ele>
        <time>2021-02-17T08:14:57Z</time>
      </trkpt>
      <trkpt lat="45.28004" lon="6.17784">
        <ele>1626.9</ele>
        <time>2021-02-17T08:14:58Z</time>
      </trkpt>
      <trkpt lat="45.28004" lon="6.17783">
        <ele>1627</ele>
        <time>2021-02-17T08:14:59Z</time>
      </trkpt>
      <trkpt lat="45.28004" lon="6.17782">
        <ele>1627.2</ele>
        <time>2021-02-17T08:15:00Z</time>
      </trkpt>
      <trkpt lat="45.28003" lon="6.17781">
        <ele>1627.3</ele>
        <time>2021-02-17T08:15:01Z</time>
      </trkpt>
      <trkpt lat="45.28003" lon="6.1778">
        <ele>1627.5</ele>
        <time>2021-02-17T08:15:02Z</time>
      </trkpt>
      <trkpt lat="45.28003" lon="6.17778">
        <ele>1627.7</ele>
        <time>2021-02-17T08:15:03Z</time>
      </trkpt>
      <trkpt lat="45.28003" lon="6.17777">
        <ele>1627.9</ele>
        <time>2021-02-17T08:15:04Z</time>
      </trkpt>
      <trkpt lat="45.28003" lon="6.17775">
        <ele>1628.2</ele>
        <time>2021-02-17T08:15:05Z</time>
      </trkpt>
      <trkpt lat="45.28003" lon="6.17774">
        <ele>1628.5</ele>
        <time>2021-02-17T08:15:06Z</time>
      </trkpt>
      <trkpt lat="45.28003" lon="6.17773">
        <ele>1628.6</ele>
        <time>2021-02-17T08:15:07Z</time>
      </trkpt>
      <trkpt lat="45.28003" lon="6.17772">
        <ele>1628.7</ele>
        <time>2021-02-17T08:15:08Z</time>
      </trkpt>
      <trkpt lat="45.28003" lon="6.17771">
        <ele>1628.8</ele>
        <time>2021-02-17T08:15:09Z</time>
      </trkpt>
      <trkpt lat="45.28003" lon="6.1777">
        <ele>1628.9</ele>
        <time>2021-02-17T08:15:10Z</time>
      </trkpt>
      <trkpt lat="45.28003" lon="6.17769">
        <ele>1629.1</ele>
        <time>2021-02-17T08:15:11Z</time>
      </trkpt>
      <trkpt lat="45.28003" lon="6.17767">
        <ele>1629.4</ele>
        <time>2021-02-17T08:15:12Z</time>
      </trkpt>
      <trkpt lat="45.28003" lon="6.17766">
        <ele>1629.6</ele>
        <time>2021-02-17T08:15:13Z</time>
      </trkpt>
      <trkpt lat="45.28003" lon="6.17764">
        <ele>1629.9</ele>
        <time>2021-02-17T08:15:14Z</time>
      </trkpt>
      <trkpt lat="45.28003" lon="6.17763">
        <ele>1630.1</ele>
        <time>2021-02-17T08:15:15Z</time>
      </trkpt>
      <trkpt lat="45.28003" lon="6.17762">
        <ele>1630.3</ele>
        <time>2021-02-17T08:15:16Z</time>
      </trkpt>
      <trkpt lat="45.28003" lon="6.1776">
        <ele>1630.5</ele>
        <time>2021-02-17T08:15:17Z</time>
      </trkpt>
      <trkpt lat="45.28003" lon="6.17759">
        <ele>1630.6</ele>
        <time>2021-02-17T08:15:18Z</time>
      </trkpt>
      <trkpt lat="45.28003" lon="6.17758">
        <ele>1630.8</ele>
        <time>2021-02-17T08:15:19Z</time>
      </trkpt>
      <trkpt lat="45.28003" lon="6.17757">
        <ele>1631</ele>
        <time>2021-02-17T08:15:20Z</time>
      </trkpt>
      <trkpt lat="45.28003" lon="6.17755">
        <ele>1631.2</ele>
        <time>2021-02-17T08:15:21Z</time>
      </trkpt>
      <trkpt lat="45.28003" lon="6.17754">
        <ele>1631.3</ele>
        <time>2021-02-17T08:15:22Z</time>
      </trkpt>
      <trkpt lat="45.28003" lon="6.17753">
        <ele>1631.5</ele>
        <time>2021-02-17T08:15:23Z</time>
      </trkpt>
      <trkpt lat="45.28002" lon="6.17752">
        <ele>1631.6</ele>
        <time>2021-02-17T08:15:24Z</time>
      </trkpt>
      <trkpt lat="45.28002" lon="6.1775">
        <ele>1631.9</ele>
        <time>2021-02-17T08:15:25Z</time>
      </trkpt>
      <trkpt lat="45.28002" lon="6.17748">
        <ele>1632.2</ele>
        <time>2021-02-17T08:15:26Z</time>
      </trkpt>
      <trkpt lat="45.28001" lon="6.17747">
        <ele>1632.4</ele>
        <time>2021-02-17T08:15:27Z</time>
      </trkpt>
      <trkpt lat="45.28001" lon="6.17746">
        <ele>1632.6</ele>
        <time>2021-02-17T08:15:28Z</time>
      </trkpt>
      <trkpt lat="45.28001" lon="6.17745">
        <ele>1632.7</ele>
        <time>2021-02-17T08:15:29Z</time>
      </trkpt>
      <trkpt lat="45.28001" lon="6.17744">
        <ele>1632.9</ele>
        <time>2021-02-17T08:15:30Z</time>
      </trkpt>
      <trkpt lat="45.28001" lon="6.17742">
        <ele>1633.2</ele>
        <time>2021-02-17T08:15:31Z</time>
      </trkpt>
      <trkpt lat="45.28" lon="6.17741">
        <ele>1633.3</ele>
        <time>2021-02-17T08:15:32Z</time>
      </trkpt>
      <trkpt lat="45.28" lon="6.1774">
        <ele>1633.5</ele>
        <time>2021-02-17T08:15:33Z</time>
      </trkpt>
      <trkpt lat="45.28" lon="6.17739">
        <ele>1633.6</ele>
        <time>2021-02-17T08:15:34Z</time>
      </trkpt>
      <trkpt lat="45.28" lon="6.17737">
        <ele>1633.8</ele>
        <time>2021-02-17T08:15:35Z</time>
      </trkpt>
      <trkpt lat="45.28001" lon="6.17736">
        <ele>1634</ele>
        <time>2021-02-17T08:15:36Z</time>
      </trkpt>
      <trkpt lat="45.28001" lon="6.17734">
        <ele>1634.2</ele>
        <time>2021-02-17T08:15:37Z</time>
      </trkpt>
      <trkpt lat="45.28" lon="6.17733">
        <ele>1634.4</ele>
        <time>2021-02-17T08:15:38Z</time>
      </trkpt>
      <trkpt lat="45.28" lon="6.17732">
        <ele>1634.6</ele>
        <time>2021-02-17T08:15:39Z</time>
      </trkpt>
      <trkpt lat="45.27999" lon="6.1773">
        <ele>1634.8</ele>
        <time>2021-02-17T08:15:40Z</time>
      </trkpt>
      <trkpt lat="45.27999" lon="6.17729">
        <ele>1635</ele>
        <time>2021-02-17T08:15:41Z</time>
      </trkpt>
      <trkpt lat="45.27999" lon="6.17728">
        <ele>1635.2</ele>
        <time>2021-02-17T08:15:42Z</time>
      </trkpt>
      <trkpt lat="45.27998" lon="6.17727">
        <ele>1635.3</ele>
        <time>2021-02-17T08:15:43Z</time>
      </trkpt>
      <trkpt lat="45.27998" lon="6.17726">
        <ele>1635.5</ele>
        <time>2021-02-17T08:15:44Z</time>
      </trkpt>
      <trkpt lat="45.27998" lon="6.17725">
        <ele>1635.6</ele>
        <time>2021-02-17T08:15:45Z</time>
      </trkpt>
      <trkpt lat="45.27998" lon="6.17723">
        <ele>1635.8</ele>
        <time>2021-02-17T08:15:46Z</time>
      </trkpt>
      <trkpt lat="45.27998" lon="6.17722">
        <ele>1636</ele>
        <time>2021-02-17T08:15:47Z</time>
      </trkpt>
      <trkpt lat="45.27997" lon="6.17721">
        <ele>1636.1</ele>
        <time>2021-02-17T08:15:48Z</time>
      </trkpt>
      <trkpt lat="45.27997" lon="6.1772">
        <ele>1636.3</ele>
        <time>2021-02-17T08:15:49Z</time>
      </trkpt>
      <trkpt lat="45.27997" lon="6.17719">
        <ele>1636.5</ele>
        <time>2021-02-17T08:15:50Z</time>
      </trkpt>
      <trkpt lat="45.27997" lon="6.17718">
        <ele>1636.7</ele>
        <time>2021-02-17T08:15:51Z</time>
      </trkpt>
      <trkpt lat="45.27997" lon="6.17716">
        <ele>1636.8</ele>
        <time>2021-02-17T08:15:52Z</time>
      </trkpt>
      <trkpt lat="45.27997" lon="6.17715">
        <ele>1637</ele>
        <time>2021-02-17T08:15:53Z</time>
      </trkpt>
      <trkpt lat="45.27997" lon="6.17714">
        <ele>1637.2</ele>
        <time>2021-02-17T08:15:54Z</time>
      </trkpt>
      <trkpt lat="45.27997" lon="6.17714">
        <ele>1637.3</ele>
        <time>2021-02-17T08:15:55Z</time>
      </trkpt>
      <trkpt lat="45.27997" lon="6.17713">
        <ele>1637.4</ele>
        <time>2021-02-17T08:15:56Z</time>
      </trkpt>
      <trkpt lat="45.27996" lon="6.17712">
        <ele>1637.6</ele>
        <time>2021-02-17T08:15:57Z</time>
      </trkpt>
      <trkpt lat="45.27996" lon="6.1771">
        <ele>1637.8</ele>
        <time>2021-02-17T08:15:58Z</time>
      </trkpt>
      <trkpt lat="45.27996" lon="6.17709">
        <ele>1638</ele>
        <time>2021-02-17T08:15:59Z</time>
      </trkpt>
      <trkpt lat="45.27996" lon="6.17708">
        <ele>1638.2</ele>
        <time>2021-02-17T08:16:00Z</time>
      </trkpt>
      <trkpt lat="45.27996" lon="6.17708">
        <ele>1638.3</ele>
        <time>2021-02-17T08:16:01Z</time>
      </trkpt>
      <trkpt lat="45.27996" lon="6.17707">
        <ele>1638.5</ele>
        <time>2021-02-17T08:16:02Z</time>
      </trkpt>
      <trkpt lat="45.27996" lon="6.17706">
        <ele>1638.6</ele>
        <time>2021-02-17T08:16:03Z</time>
      </trkpt>
      <trkpt lat="45.27996" lon="6.17705">
        <ele>1638.8</ele>
        <time>2021-02-17T08:16:04Z</time>
      </trkpt>
      <trkpt lat="45.27996" lon="6.17704">
        <ele>1639</ele>
        <time>2021-02-17T08:16:05Z</time>
      </trkpt>
      <trkpt lat="45.27996" lon="6.17702">
        <ele>1639.2</ele>
        <time>2021-02-17T08:16:06Z</time>
      </trkpt>
      <trkpt lat="45.27996" lon="6.17701">
        <ele>1639.5</ele>
        <time>2021-02-17T08:16:07Z</time>
      </trkpt>
      <trkpt lat="45.27996" lon="6.177">
        <ele>1639.7</ele>
        <time>2021-02-17T08:16:08Z</time>
      </trkpt>
      <trkpt lat="45.27996" lon="6.17699">
        <ele>1639.8</ele>
        <time>2021-02-17T08:16:09Z</time>
      </trkpt>
      <trkpt lat="45.27996" lon="6.17698">
        <ele>1640</ele>
        <time>2021-02-17T08:16:10Z</time>
      </trkpt>
      <trkpt lat="45.27996" lon="6.17697">
        <ele>1640.1</ele>
        <time>2021-02-17T08:16:11Z</time>
      </trkpt>
      <trkpt lat="45.27995" lon="6.17696">
        <ele>1640.2</ele>
        <time>2021-02-17T08:16:12Z</time>
      </trkpt>
      <trkpt lat="45.27995" lon="6.17696">
        <ele>1640.4</ele>
        <time>2021-02-17T08:16:13Z</time>
      </trkpt>
      <trkpt lat="45.27995" lon="6.17695">
        <ele>1640.5</ele>
        <time>2021-02-17T08:16:14Z</time>
      </trkpt>
      <trkpt lat="45.27995" lon="6.17694">
        <ele>1640.6</ele>
        <time>2021-02-17T08:16:15Z</time>
      </trkpt>
      <trkpt lat="45.27995" lon="6.17693">
        <ele>1640.8</ele>
        <time>2021-02-17T08:16:16Z</time>
      </trkpt>
      <trkpt lat="45.27995" lon="6.17693">
        <ele>1640.9</ele>
        <time>2021-02-17T08:16:17Z</time>
      </trkpt>
      <trkpt lat="45.27995" lon="6.17692">
        <ele>1641</ele>
        <time>2021-02-17T08:16:18Z</time>
      </trkpt>
      <trkpt lat="45.27995" lon="6.17691">
        <ele>1641.2</ele>
        <time>2021-02-17T08:16:19Z</time>
      </trkpt>
      <trkpt lat="45.27996" lon="6.17689">
        <ele>1641.5</ele>
        <time>2021-02-17T08:16:20Z</time>
      </trkpt>
      <trkpt lat="45.27996" lon="6.17688">
        <ele>1641.7</ele>
        <time>2021-02-17T08:16:21Z</time>
      </trkpt>
      <trkpt lat="45.27996" lon="6.17687">
        <ele>1641.9</ele>
        <time>2021-02-17T08:16:22Z</time>
      </trkpt>
      <trkpt lat="45.27996" lon="6.17686">
        <ele>1642</ele>
        <time>2021-02-17T08:16:23Z</time>
      </trkpt>
      <trkpt lat="45.27996" lon="6.17685">
        <ele>1642.1</ele>
        <time>2021-02-17T08:16:24Z</time>
      </trkpt>
      <trkpt lat="45.27996" lon="6.17685">
        <ele>1642.3</ele>
        <time>2021-02-17T08:16:25Z</time>
      </trkpt>
      <trkpt lat="45.27996" lon="6.17684">
        <ele>1642.4</ele>
        <time>2021-02-17T08:16:26Z</time>
      </trkpt>
      <trkpt lat="45.27997" lon="6.17684">
        <ele>1642.4</ele>
        <time>2021-02-17T08:16:27Z</time>
      </trkpt>
      <trkpt lat="45.27997" lon="6.17683">
        <ele>1642.6</ele>
        <time>2021-02-17T08:16:28Z</time>
      </trkpt>
      <trkpt lat="45.27997" lon="6.17682">
        <ele>1642.7</ele>
        <time>2021-02-17T08:16:29Z</time>
      </trkpt>
      <trkpt lat="45.27998" lon="6.17682">
        <ele>1642.8</ele>
        <time>2021-02-17T08:16:30Z</time>
      </trkpt>
      <trkpt lat="45.27998" lon="6.17682">
        <ele>1642.9</ele>
        <time>2021-02-17T08:16:31Z</time>
      </trkpt>
      <trkpt lat="45.27999" lon="6.17681">
        <ele>1643.2</ele>
        <time>2021-02-17T08:16:32Z</time>
      </trkpt>
      <trkpt lat="45.27999" lon="6.1768">
        <ele>1643.3</ele>
        <time>2021-02-17T08:16:33Z</time>
      </trkpt>
      <trkpt lat="45.28" lon="6.17679">
        <ele>1643.6</ele>
        <time>2021-02-17T08:16:34Z</time>
      </trkpt>
      <trkpt lat="45.28001" lon="6.17678">
        <ele>1643.8</ele>
        <time>2021-02-17T08:16:35Z</time>
      </trkpt>
      <trkpt lat="45.28001" lon="6.17677">
        <ele>1643.9</ele>
        <time>2021-02-17T08:16:36Z</time>
      </trkpt>
      <trkpt lat="45.28002" lon="6.17676">
        <ele>1644.2</ele>
        <time>2021-02-17T08:16:37Z</time>
      </trkpt>
      <trkpt lat="45.28002" lon="6.17675">
        <ele>1644.4</ele>
        <time>2021-02-17T08:16:38Z</time>
      </trkpt>
      <trkpt lat="45.28002" lon="6.17674">
        <ele>1644.5</ele>
        <time>2021-02-17T08:16:39Z</time>
      </trkpt>
      <trkpt lat="45.28003" lon="6.17673">
        <ele>1644.7</ele>
        <time>2021-02-17T08:16:40Z</time>
      </trkpt>
      <trkpt lat="45.28003" lon="6.17672">
        <ele>1644.9</ele>
        <time>2021-02-17T08:16:41Z</time>
      </trkpt>
      <trkpt lat="45.28003" lon="6.17671">
        <ele>1645.1</ele>
        <time>2021-02-17T08:16:42Z</time>
      </trkpt>
      <trkpt lat="45.28003" lon="6.17669">
        <ele>1645.3</ele>
        <time>2021-02-17T08:16:43Z</time>
      </trkpt>
      <trkpt lat="45.28004" lon="6.17667">
        <ele>1645.6</ele>
        <time>2021-02-17T08:16:44Z</time>
      </trkpt>
      <trkpt lat="45.28005" lon="6.17666">
        <ele>1646</ele>
        <time>2021-02-17T08:16:45Z</time>
      </trkpt>
      <trkpt lat="45.28006" lon="6.17665">
        <ele>1646.2</ele>
        <time>2021-02-17T08:16:46Z</time>
      </trkpt>
      <trkpt lat="45.28006" lon="6.17664">
        <ele>1646.3</ele>
        <time>2021-02-17T08:16:47Z</time>
      </trkpt>
      <trkpt lat="45.28007" lon="6.17664">
        <ele>1646.5</ele>
        <time>2021-02-17T08:16:48Z</time>
      </trkpt>
      <trkpt lat="45.28007" lon="6.17663">
        <ele>1646.6</ele>
        <time>2021-02-17T08:16:49Z</time>
      </trkpt>
      <trkpt lat="45.28007" lon="6.17662">
        <ele>1646.8</ele>
        <time>2021-02-17T08:16:50Z</time>
      </trkpt>
      <trkpt lat="45.28007" lon="6.17661">
        <ele>1646.9</ele>
        <time>2021-02-17T08:16:51Z</time>
      </trkpt>
      <trkpt lat="45.28007" lon="6.1766">
        <ele>1647</ele>
        <time>2021-02-17T08:16:52Z</time>
      </trkpt>
      <trkpt lat="45.28006" lon="6.17659">
        <ele>1647.2</ele>
        <time>2021-02-17T08:16:53Z</time>
      </trkpt>
      <trkpt lat="45.28006" lon="6.17658">
        <ele>1647.3</ele>
        <time>2021-02-17T08:16:54Z</time>
      </trkpt>
      <trkpt lat="45.28006" lon="6.17657">
        <ele>1647.6</ele>
        <time>2021-02-17T08:16:55Z</time>
      </trkpt>
      <trkpt lat="45.28005" lon="6.17656">
        <ele>1647.9</ele>
        <time>2021-02-17T08:16:56Z</time>
      </trkpt>
      <trkpt lat="45.28005" lon="6.17655">
        <ele>1648</ele>
        <time>2021-02-17T08:16:57Z</time>
      </trkpt>
      <trkpt lat="45.28005" lon="6.17654">
        <ele>1648.2</ele>
        <time>2021-02-17T08:16:58Z</time>
      </trkpt>
      <trkpt lat="45.28005" lon="6.17652">
        <ele>1648.4</ele>
        <time>2021-02-17T08:16:59Z</time>
      </trkpt>
      <trkpt lat="45.28005" lon="6.17651">
        <ele>1648.6</ele>
        <time>2021-02-17T08:17:00Z</time>
      </trkpt>
      <trkpt lat="45.28005" lon="6.1765">
        <ele>1648.8</ele>
        <time>2021-02-17T08:17:01Z</time>
      </trkpt>
      <trkpt lat="45.28006" lon="6.17649">
        <ele>1649</ele>
        <time>2021-02-17T08:17:02Z</time>
      </trkpt>
      <trkpt lat="45.28006" lon="6.17648">
        <ele>1649.2</ele>
        <time>2021-02-17T08:17:03Z</time>
      </trkpt>
      <trkpt lat="45.28006" lon="6.17647">
        <ele>1649.3</ele>
        <time>2021-02-17T08:17:04Z</time>
      </trkpt>
      <trkpt lat="45.28007" lon="6.17646">
        <ele>1649.5</ele>
        <time>2021-02-17T08:17:05Z</time>
      </trkpt>
      <trkpt lat="45.28007" lon="6.17645">
        <ele>1649.7</ele>
        <time>2021-02-17T08:17:06Z</time>
      </trkpt>
      <trkpt lat="45.28007" lon="6.17644">
        <ele>1649.8</ele>
        <time>2021-02-17T08:17:07Z</time>
      </trkpt>
      <trkpt lat="45.28007" lon="6.17643">
        <ele>1650</ele>
        <time>2021-02-17T08:17:08Z</time>
      </trkpt>
      <trkpt lat="45.28007" lon="6.17642">
        <ele>1650.2</ele>
        <time>2021-02-17T08:17:09Z</time>
      </trkpt>
      <trkpt lat="45.28007" lon="6.17642">
        <ele>1650.3</ele>
        <time>2021-02-17T08:17:10Z</time>
      </trkpt>
      <trkpt lat="45.28007" lon="6.17641">
        <ele>1650.4</ele>
        <time>2021-02-17T08:17:11Z</time>
      </trkpt>
      <trkpt lat="45.28008" lon="6.1764">
        <ele>1650.6</ele>
        <time>2021-02-17T08:17:12Z</time>
      </trkpt>
      <trkpt lat="45.28008" lon="6.17639">
        <ele>1650.7</ele>
        <time>2021-02-17T08:17:13Z</time>
      </trkpt>
      <trkpt lat="45.28008" lon="6.17639">
        <ele>1650.8</ele>
        <time>2021-02-17T08:17:14Z</time>
      </trkpt>
      <trkpt lat="45.28009" lon="6.17638">
        <ele>1651.1</ele>
        <time>2021-02-17T08:17:15Z</time>
      </trkpt>
      <trkpt lat="45.28009" lon="6.17637">
        <ele>1651.2</ele>
        <time>2021-02-17T08:17:16Z</time>
      </trkpt>
      <trkpt lat="45.2801" lon="6.17637">
        <ele>1651.3</ele>
        <time>2021-02-17T08:17:17Z</time>
      </trkpt>
      <trkpt lat="45.2801" lon="6.17636">
        <ele>1651.5</ele>
        <time>2021-02-17T08:17:18Z</time>
      </trkpt>
      <trkpt lat="45.28011" lon="6.17635">
        <ele>1651.7</ele>
        <time>2021-02-17T08:17:19Z</time>
      </trkpt>
      <trkpt lat="45.28011" lon="6.17633">
        <ele>1651.9</ele>
        <time>2021-02-17T08:17:20Z</time>
      </trkpt>
      <trkpt lat="45.28011" lon="6.17632">
        <ele>1652.1</ele>
        <time>2021-02-17T08:17:21Z</time>
      </trkpt>
      <trkpt lat="45.28011" lon="6.17631">
        <ele>1652.3</ele>
        <time>2021-02-17T08:17:22Z</time>
      </trkpt>
      <trkpt lat="45.2801" lon="6.1763">
        <ele>1652.5</ele>
        <time>2021-02-17T08:17:23Z</time>
      </trkpt>
      <trkpt lat="45.2801" lon="6.17628">
        <ele>1652.7</ele>
        <time>2021-02-17T08:17:24Z</time>
      </trkpt>
      <trkpt lat="45.28011" lon="6.17627">
        <ele>1652.8</ele>
        <time>2021-02-17T08:17:25Z</time>
      </trkpt>
      <trkpt lat="45.28011" lon="6.17627">
        <ele>1652.9</ele>
        <time>2021-02-17T08:17:26Z</time>
      </trkpt>
      <trkpt lat="45.28011" lon="6.17626">
        <ele>1653.1</ele>
        <time>2021-02-17T08:17:27Z</time>
      </trkpt>
      <trkpt lat="45.28012" lon="6.17625">
        <ele>1653.3</ele>
        <time>2021-02-17T08:17:28Z</time>
      </trkpt>
      <trkpt lat="45.28013" lon="6.17623">
        <ele>1653.5</ele>
        <time>2021-02-17T08:17:29Z</time>
      </trkpt>
      <trkpt lat="45.28013" lon="6.17622">
        <ele>1653.7</ele>
        <time>2021-02-17T08:17:30Z</time>
      </trkpt>
      <trkpt lat="45.28014" lon="6.17621">
        <ele>1653.9</ele>
        <time>2021-02-17T08:17:31Z</time>
      </trkpt>
      <trkpt lat="45.28015" lon="6.1762">
        <ele>1654.1</ele>
        <time>2021-02-17T08:17:32Z</time>
      </trkpt>
      <trkpt lat="45.28015" lon="6.17619">
        <ele>1654.2</ele>
        <time>2021-02-17T08:17:33Z</time>
      </trkpt>
      <trkpt lat="45.28015" lon="6.17618">
        <ele>1654.3</ele>
        <time>2021-02-17T08:17:34Z</time>
      </trkpt>
      <trkpt lat="45.28015" lon="6.17617">
        <ele>1654.4</ele>
        <time>2021-02-17T08:17:35Z</time>
      </trkpt>
      <trkpt lat="45.28015" lon="6.17617">
        <ele>1654.5</ele>
        <time>2021-02-17T08:17:36Z</time>
      </trkpt>
      <trkpt lat="45.28015" lon="6.17616">
        <ele>1654.5</ele>
        <time>2021-02-17T08:17:37Z</time>
      </trkpt>
      <trkpt lat="45.28015" lon="6.17616">
        <ele>1654.6</ele>
        <time>2021-02-17T08:17:38Z</time>
      </trkpt>
      <trkpt lat="45.28016" lon="6.17615">
        <ele>1654.7</ele>
        <time>2021-02-17T08:17:39Z</time>
      </trkpt>
      <trkpt lat="45.28016" lon="6.17614">
        <ele>1654.8</ele>
        <time>2021-02-17T08:17:40Z</time>
      </trkpt>
      <trkpt lat="45.28016" lon="6.17613">
        <ele>1654.9</ele>
        <time>2021-02-17T08:17:41Z</time>
      </trkpt>
      <trkpt lat="45.28016" lon="6.17611">
        <ele>1655</ele>
        <time>2021-02-17T08:17:42Z</time>
      </trkpt>
      <trkpt lat="45.28016" lon="6.1761">
        <ele>1655.2</ele>
        <time>2021-02-17T08:17:43Z</time>
      </trkpt>
      <trkpt lat="45.28016" lon="6.17609">
        <ele>1655.3</ele>
        <time>2021-02-17T08:17:44Z</time>
      </trkpt>
      <trkpt lat="45.28016" lon="6.17607">
        <ele>1655.5</ele>
        <time>2021-02-17T08:17:45Z</time>
      </trkpt>
      <trkpt lat="45.28017" lon="6.17606">
        <ele>1655.6</ele>
        <time>2021-02-17T08:17:46Z</time>
      </trkpt>
      <trkpt lat="45.28017" lon="6.17605">
        <ele>1655.7</ele>
        <time>2021-02-17T08:17:47Z</time>
      </trkpt>
      <trkpt lat="45.28017" lon="6.17603">
        <ele>1655.9</ele>
        <time>2021-02-17T08:17:48Z</time>
      </trkpt>
      <trkpt lat="45.28017" lon="6.17601">
        <ele>1656</ele>
        <time>2021-02-17T08:17:49Z</time>
      </trkpt>
      <trkpt lat="45.28017" lon="6.176">
        <ele>1656.2</ele>
        <time>2021-02-17T08:17:50Z</time>
      </trkpt>
      <trkpt lat="45.28017" lon="6.17599">
        <ele>1656.3</ele>
        <time>2021-02-17T08:17:51Z</time>
      </trkpt>
      <trkpt lat="45.28017" lon="6.17596">
        <ele>1656.5</ele>
        <time>2021-02-17T08:17:52Z</time>
      </trkpt>
      <trkpt lat="45.28017" lon="6.17595">
        <ele>1656.6</ele>
        <time>2021-02-17T08:17:53Z</time>
      </trkpt>
      <trkpt lat="45.28017" lon="6.17594">
        <ele>1656.7</ele>
        <time>2021-02-17T08:17:54Z</time>
      </trkpt>
      <trkpt lat="45.28017" lon="6.17593">
        <ele>1656.8</ele>
        <time>2021-02-17T08:17:55Z</time>
      </trkpt>
      <trkpt lat="45.28017" lon="6.17592">
        <ele>1656.9</ele>
        <time>2021-02-17T08:17:56Z</time>
      </trkpt>
      <trkpt lat="45.28017" lon="6.17591">
        <ele>1657</ele>
        <time>2021-02-17T08:17:57Z</time>
      </trkpt>
      <trkpt lat="45.28017" lon="6.1759">
        <ele>1657.1</ele>
        <time>2021-02-17T08:17:58Z</time>
      </trkpt>
      <trkpt lat="45.28017" lon="6.17588">
        <ele>1657.2</ele>
        <time>2021-02-17T08:17:59Z</time>
      </trkpt>
      <trkpt lat="45.28017" lon="6.17587">
        <ele>1657.3</ele>
        <time>2021-02-17T08:18:00Z</time>
      </trkpt>
      <trkpt lat="45.28018" lon="6.17586">
        <ele>1657.4</ele>
        <time>2021-02-17T08:18:01Z</time>
      </trkpt>
      <trkpt lat="45.28018" lon="6.17585">
        <ele>1657.5</ele>
        <time>2021-02-17T08:18:02Z</time>
      </trkpt>
      <trkpt lat="45.28018" lon="6.17584">
        <ele>1657.6</ele>
        <time>2021-02-17T08:18:03Z</time>
      </trkpt>
      <trkpt lat="45.28019" lon="6.17583">
        <ele>1657.7</ele>
        <time>2021-02-17T08:18:04Z</time>
      </trkpt>
      <trkpt lat="45.28019" lon="6.17582">
        <ele>1657.8</ele>
        <time>2021-02-17T08:18:05Z</time>
      </trkpt>
      <trkpt lat="45.28019" lon="6.17581">
        <ele>1657.8</ele>
        <time>2021-02-17T08:18:06Z</time>
      </trkpt>
      <trkpt lat="45.28019" lon="6.1758">
        <ele>1657.9</ele>
        <time>2021-02-17T08:18:07Z</time>
      </trkpt>
      <trkpt lat="45.28019" lon="6.17578">
        <ele>1658</ele>
        <time>2021-02-17T08:18:08Z</time>
      </trkpt>
      <trkpt lat="45.28019" lon="6.17577">
        <ele>1658.2</ele>
        <time>2021-02-17T08:18:09Z</time>
      </trkpt>
      <trkpt lat="45.2802" lon="6.17575">
        <ele>1658.3</ele>
        <time>2021-02-17T08:18:10Z</time>
      </trkpt>
      <trkpt lat="45.2802" lon="6.17574">
        <ele>1658.4</ele>
        <time>2021-02-17T08:18:11Z</time>
      </trkpt>
      <trkpt lat="45.2802" lon="6.17572">
        <ele>1658.5</ele>
        <time>2021-02-17T08:18:12Z</time>
      </trkpt>
      <trkpt lat="45.2802" lon="6.17571">
        <ele>1658.6</ele>
        <time>2021-02-17T08:18:13Z</time>
      </trkpt>
      <trkpt lat="45.2802" lon="6.1757">
        <ele>1658.7</ele>
        <time>2021-02-17T08:18:14Z</time>
      </trkpt>
      <trkpt lat="45.2802" lon="6.17568">
        <ele>1658.8</ele>
        <time>2021-02-17T08:18:15Z</time>
      </trkpt>
      <trkpt lat="45.2802" lon="6.17567">
        <ele>1658.9</ele>
        <time>2021-02-17T08:18:16Z</time>
      </trkpt>
      <trkpt lat="45.2802" lon="6.17565">
        <ele>1659.1</ele>
        <time>2021-02-17T08:18:17Z</time>
      </trkpt>
      <trkpt lat="45.2802" lon="6.17564">
        <ele>1659.2</ele>
        <time>2021-02-17T08:18:18Z</time>
      </trkpt>
      <trkpt lat="45.2802" lon="6.17562">
        <ele>1659.3</ele>
        <time>2021-02-17T08:18:19Z</time>
      </trkpt>
      <trkpt lat="45.2802" lon="6.17561">
        <ele>1659.4</ele>
        <time>2021-02-17T08:18:20Z</time>
      </trkpt>
      <trkpt lat="45.2802" lon="6.17561">
        <ele>1659.5</ele>
        <time>2021-02-17T08:18:21Z</time>
      </trkpt>
      <trkpt lat="45.2802" lon="6.17559">
        <ele>1659.6</ele>
        <time>2021-02-17T08:18:22Z</time>
      </trkpt>
      <trkpt lat="45.2802" lon="6.17558">
        <ele>1659.7</ele>
        <time>2021-02-17T08:18:23Z</time>
      </trkpt>
      <trkpt lat="45.2802" lon="6.17556">
        <ele>1659.9</ele>
        <time>2021-02-17T08:18:24Z</time>
      </trkpt>
      <trkpt lat="45.28021" lon="6.17554">
        <ele>1660.1</ele>
        <time>2021-02-17T08:18:25Z</time>
      </trkpt>
      <trkpt lat="45.28021" lon="6.17553">
        <ele>1660.2</ele>
        <time>2021-02-17T08:18:26Z</time>
      </trkpt>
      <trkpt lat="45.2802" lon="6.17552">
        <ele>1660.3</ele>
        <time>2021-02-17T08:18:27Z</time>
      </trkpt>
      <trkpt lat="45.2802" lon="6.17551">
        <ele>1660.4</ele>
        <time>2021-02-17T08:18:28Z</time>
      </trkpt>
      <trkpt lat="45.2802" lon="6.17549">
        <ele>1660.6</ele>
        <time>2021-02-17T08:18:29Z</time>
      </trkpt>
      <trkpt lat="45.2802" lon="6.17548">
        <ele>1660.7</ele>
        <time>2021-02-17T08:18:30Z</time>
      </trkpt>
      <trkpt lat="45.2802" lon="6.17547">
        <ele>1660.9</ele>
        <time>2021-02-17T08:18:31Z</time>
      </trkpt>
      <trkpt lat="45.2802" lon="6.17545">
        <ele>1661</ele>
        <time>2021-02-17T08:18:32Z</time>
      </trkpt>
      <trkpt lat="45.2802" lon="6.17544">
        <ele>1661.1</ele>
        <time>2021-02-17T08:18:33Z</time>
      </trkpt>
      <trkpt lat="45.28019" lon="6.17543">
        <ele>1661.3</ele>
        <time>2021-02-17T08:18:34Z</time>
      </trkpt>
      <trkpt lat="45.28019" lon="6.17541">
        <ele>1661.5</ele>
        <time>2021-02-17T08:18:35Z</time>
      </trkpt>
      <trkpt lat="45.28019" lon="6.1754">
        <ele>1661.7</ele>
        <time>2021-02-17T08:18:36Z</time>
      </trkpt>
      <trkpt lat="45.28019" lon="6.17538">
        <ele>1661.9</ele>
        <time>2021-02-17T08:18:37Z</time>
      </trkpt>
      <trkpt lat="45.28019" lon="6.17536">
        <ele>1662.1</ele>
        <time>2021-02-17T08:18:38Z</time>
      </trkpt>
      <trkpt lat="45.28019" lon="6.17535">
        <ele>1662.3</ele>
        <time>2021-02-17T08:18:39Z</time>
      </trkpt>
      <trkpt lat="45.28019" lon="6.17534">
        <ele>1662.4</ele>
        <time>2021-02-17T08:18:40Z</time>
      </trkpt>
      <trkpt lat="45.28019" lon="6.17534">
        <ele>1662.5</ele>
        <time>2021-02-17T08:18:41Z</time>
      </trkpt>
      <trkpt lat="45.28019" lon="6.17532">
        <ele>1662.6</ele>
        <time>2021-02-17T08:18:42Z</time>
      </trkpt>
      <trkpt lat="45.28019" lon="6.17532">
        <ele>1662.8</ele>
        <time>2021-02-17T08:18:43Z</time>
      </trkpt>
      <trkpt lat="45.28019" lon="6.17531">
        <ele>1662.9</ele>
        <time>2021-02-17T08:18:44Z</time>
      </trkpt>
      <trkpt lat="45.28019" lon="6.17529">
        <ele>1663.1</ele>
        <time>2021-02-17T08:18:45Z</time>
      </trkpt>
      <trkpt lat="45.28019" lon="6.17528">
        <ele>1663.3</ele>
        <time>2021-02-17T08:18:46Z</time>
      </trkpt>
      <trkpt lat="45.28019" lon="6.17527">
        <ele>1663.5</ele>
        <time>2021-02-17T08:18:47Z</time>
      </trkpt>
      <trkpt lat="45.28019" lon="6.17526">
        <ele>1663.6</ele>
        <time>2021-02-17T08:18:48Z</time>
      </trkpt>
      <trkpt lat="45.28019" lon="6.17525">
        <ele>1663.8</ele>
        <time>2021-02-17T08:18:49Z</time>
      </trkpt>
      <trkpt lat="45.28019" lon="6.17523">
        <ele>1664</ele>
        <time>2021-02-17T08:18:50Z</time>
      </trkpt>
      <trkpt lat="45.28019" lon="6.17522">
        <ele>1664.1</ele>
        <time>2021-02-17T08:18:51Z</time>
      </trkpt>
      <trkpt lat="45.28019" lon="6.17521">
        <ele>1664.3</ele>
        <time>2021-02-17T08:18:52Z</time>
      </trkpt>
      <trkpt lat="45.28019" lon="6.1752">
        <ele>1664.5</ele>
        <time>2021-02-17T08:18:53Z</time>
      </trkpt>
      <trkpt lat="45.28019" lon="6.17519">
        <ele>1664.7</ele>
        <time>2021-02-17T08:18:54Z</time>
      </trkpt>
      <trkpt lat="45.28019" lon="6.17517">
        <ele>1664.9</ele>
        <time>2021-02-17T08:18:55Z</time>
      </trkpt>
      <trkpt lat="45.2802" lon="6.17516">
        <ele>1665.1</ele>
        <time>2021-02-17T08:18:56Z</time>
      </trkpt>
      <trkpt lat="45.2802" lon="6.17515">
        <ele>1665.3</ele>
        <time>2021-02-17T08:18:57Z</time>
      </trkpt>
      <trkpt lat="45.2802" lon="6.17513">
        <ele>1665.4</ele>
        <time>2021-02-17T08:18:58Z</time>
      </trkpt>
      <trkpt lat="45.2802" lon="6.17512">
        <ele>1665.6</ele>
        <time>2021-02-17T08:18:59Z</time>
      </trkpt>
      <trkpt lat="45.28021" lon="6.17511">
        <ele>1665.8</ele>
        <time>2021-02-17T08:19:00Z</time>
      </trkpt>
      <trkpt lat="45.28021" lon="6.1751">
        <ele>1666</ele>
        <time>2021-02-17T08:19:01Z</time>
      </trkpt>
      <trkpt lat="45.28021" lon="6.17508">
        <ele>1666.2</ele>
        <time>2021-02-17T08:19:02Z</time>
      </trkpt>
      <trkpt lat="45.28021" lon="6.17507">
        <ele>1666.4</ele>
        <time>2021-02-17T08:19:03Z</time>
      </trkpt>
      <trkpt lat="45.28021" lon="6.17506">
        <ele>1666.5</ele>
        <time>2021-02-17T08:19:04Z</time>
      </trkpt>
      <trkpt lat="45.28021" lon="6.17505">
        <ele>1666.7</ele>
        <time>2021-02-17T08:19:05Z</time>
      </trkpt>
      <trkpt lat="45.28021" lon="6.17504">
        <ele>1666.8</ele>
        <time>2021-02-17T08:19:06Z</time>
      </trkpt>
      <trkpt lat="45.28021" lon="6.17503">
        <ele>1666.9</ele>
        <time>2021-02-17T08:19:07Z</time>
      </trkpt>
      <trkpt lat="45.28021" lon="6.17501">
        <ele>1667.1</ele>
        <time>2021-02-17T08:19:08Z</time>
      </trkpt>
      <trkpt lat="45.28021" lon="6.175">
        <ele>1667.2</ele>
        <time>2021-02-17T08:19:09Z</time>
      </trkpt>
      <trkpt lat="45.28021" lon="6.17499">
        <ele>1667.4</ele>
        <time>2021-02-17T08:19:10Z</time>
      </trkpt>
      <trkpt lat="45.28021" lon="6.17498">
        <ele>1667.5</ele>
        <time>2021-02-17T08:19:11Z</time>
      </trkpt>
      <trkpt lat="45.28022" lon="6.17498">
        <ele>1667.6</ele>
        <time>2021-02-17T08:19:12Z</time>
      </trkpt>
      <trkpt lat="45.28022" lon="6.17496">
        <ele>1667.7</ele>
        <time>2021-02-17T08:19:13Z</time>
      </trkpt>
      <trkpt lat="45.28022" lon="6.17495">
        <ele>1667.8</ele>
        <time>2021-02-17T08:19:14Z</time>
      </trkpt>
      <trkpt lat="45.28022" lon="6.17494">
        <ele>1667.9</ele>
        <time>2021-02-17T08:19:15Z</time>
      </trkpt>
      <trkpt lat="45.28022" lon="6.17494">
        <ele>1668</ele>
        <time>2021-02-17T08:19:16Z</time>
      </trkpt>
      <trkpt lat="45.28022" lon="6.17493">
        <ele>1668.1</ele>
        <time>2021-02-17T08:19:17Z</time>
      </trkpt>
      <trkpt lat="45.28022" lon="6.17492">
        <ele>1668.2</ele>
        <time>2021-02-17T08:19:18Z</time>
      </trkpt>
      <trkpt lat="45.28021" lon="6.1749">
        <ele>1668.4</ele>
        <time>2021-02-17T08:19:19Z</time>
      </trkpt>
      <trkpt lat="45.28021" lon="6.17488">
        <ele>1668.6</ele>
        <time>2021-02-17T08:19:20Z</time>
      </trkpt>
      <trkpt lat="45.28021" lon="6.17488">
        <ele>1668.6</ele>
        <time>2021-02-17T08:19:21Z</time>
      </trkpt>
      <trkpt lat="45.28021" lon="6.17487">
        <ele>1668.7</ele>
        <time>2021-02-17T08:19:22Z</time>
      </trkpt>
      <trkpt lat="45.28021" lon="6.17486">
        <ele>1668.8</ele>
        <time>2021-02-17T08:19:23Z</time>
      </trkpt>
      <trkpt lat="45.28021" lon="6.17485">
        <ele>1668.9</ele>
        <time>2021-02-17T08:19:24Z</time>
      </trkpt>
      <trkpt lat="45.28022" lon="6.17484">
        <ele>1669</ele>
        <time>2021-02-17T08:19:25Z</time>
      </trkpt>
      <trkpt lat="45.28022" lon="6.17483">
        <ele>1669.1</ele>
        <time>2021-02-17T08:19:26Z</time>
      </trkpt>
      <trkpt lat="45.28022" lon="6.17482">
        <ele>1669.2</ele>
        <time>2021-02-17T08:19:27Z</time>
      </trkpt>
      <trkpt lat="45.28022" lon="6.17482">
        <ele>1669.3</ele>
        <time>2021-02-17T08:19:28Z</time>
      </trkpt>
      <trkpt lat="45.28022" lon="6.17481">
        <ele>1669.3</ele>
        <time>2021-02-17T08:19:29Z</time>
      </trkpt>
      <trkpt lat="45.28022" lon="6.17474">
        <ele>1670</ele>
        <time>2021-02-17T08:19:37Z</time>
      </trkpt>
      <trkpt lat="45.28022" lon="6.17472">
        <ele>1670.2</ele>
        <time>2021-02-17T08:19:38Z</time>
      </trkpt>
      <trkpt lat="45.28022" lon="6.1747">
        <ele>1670.4</ele>
        <time>2021-02-17T08:19:39Z</time>
      </trkpt>
      <trkpt lat="45.28021" lon="6.17468">
        <ele>1670.7</ele>
        <time>2021-02-17T08:19:40Z</time>
      </trkpt>
      <trkpt lat="45.28021" lon="6.17466">
        <ele>1670.8</ele>
        <time>2021-02-17T08:19:41Z</time>
      </trkpt>
      <trkpt lat="45.28021" lon="6.17465">
        <ele>1670.9</ele>
        <time>2021-02-17T08:19:42Z</time>
      </trkpt>
      <trkpt lat="45.28021" lon="6.17464">
        <ele>1671.1</ele>
        <time>2021-02-17T08:19:43Z</time>
      </trkpt>
      <trkpt lat="45.2802" lon="6.17462">
        <ele>1671.3</ele>
        <time>2021-02-17T08:19:44Z</time>
      </trkpt>
      <trkpt lat="45.2802" lon="6.17461">
        <ele>1671.5</ele>
        <time>2021-02-17T08:19:45Z</time>
      </trkpt>
      <trkpt lat="45.2802" lon="6.17459">
        <ele>1671.7</ele>
        <time>2021-02-17T08:19:46Z</time>
      </trkpt>
      <trkpt lat="45.28019" lon="6.17457">
        <ele>1671.9</ele>
        <time>2021-02-17T08:19:47Z</time>
      </trkpt>
      <trkpt lat="45.28019" lon="6.17456">
        <ele>1672.1</ele>
        <time>2021-02-17T08:19:48Z</time>
      </trkpt>
      <trkpt lat="45.28019" lon="6.17454">
        <ele>1672.3</ele>
        <time>2021-02-17T08:19:49Z</time>
      </trkpt>
      <trkpt lat="45.28019" lon="6.17452">
        <ele>1672.4</ele>
        <time>2021-02-17T08:19:50Z</time>
      </trkpt>
      <trkpt lat="45.28019" lon="6.17451">
        <ele>1672.6</ele>
        <time>2021-02-17T08:19:51Z</time>
      </trkpt>
      <trkpt lat="45.28018" lon="6.1745">
        <ele>1672.7</ele>
        <time>2021-02-17T08:19:52Z</time>
      </trkpt>
      <trkpt lat="45.28018" lon="6.17448">
        <ele>1672.9</ele>
        <time>2021-02-17T08:19:53Z</time>
      </trkpt>
      <trkpt lat="45.28018" lon="6.17447">
        <ele>1673.1</ele>
        <time>2021-02-17T08:19:54Z</time>
      </trkpt>
      <trkpt lat="45.28019" lon="6.17445">
        <ele>1673.3</ele>
        <time>2021-02-17T08:19:55Z</time>
      </trkpt>
      <trkpt lat="45.28019" lon="6.17444">
        <ele>1673.4</ele>
        <time>2021-02-17T08:19:56Z</time>
      </trkpt>
      <trkpt lat="45.28019" lon="6.17443">
        <ele>1673.5</ele>
        <time>2021-02-17T08:19:57Z</time>
      </trkpt>
      <trkpt lat="45.28019" lon="6.17442">
        <ele>1673.6</ele>
        <time>2021-02-17T08:19:58Z</time>
      </trkpt>
      <trkpt lat="45.28019" lon="6.17441">
        <ele>1673.7</ele>
        <time>2021-02-17T08:19:59Z</time>
      </trkpt>
      <trkpt lat="45.28019" lon="6.17439">
        <ele>1673.9</ele>
        <time>2021-02-17T08:20:00Z</time>
      </trkpt>
      <trkpt lat="45.28019" lon="6.17438">
        <ele>1674</ele>
        <time>2021-02-17T08:20:01Z</time>
      </trkpt>
      <trkpt lat="45.28019" lon="6.17437">
        <ele>1674.1</ele>
        <time>2021-02-17T08:20:02Z</time>
      </trkpt>
      <trkpt lat="45.28019" lon="6.17435">
        <ele>1674.3</ele>
        <time>2021-02-17T08:20:03Z</time>
      </trkpt>
      <trkpt lat="45.2802" lon="6.17434">
        <ele>1674.4</ele>
        <time>2021-02-17T08:20:04Z</time>
      </trkpt>
      <trkpt lat="45.2802" lon="6.17433">
        <ele>1674.5</ele>
        <time>2021-02-17T08:20:05Z</time>
      </trkpt>
      <trkpt lat="45.2802" lon="6.17432">
        <ele>1674.6</ele>
        <time>2021-02-17T08:20:06Z</time>
      </trkpt>
      <trkpt lat="45.2802" lon="6.17431">
        <ele>1674.7</ele>
        <time>2021-02-17T08:20:07Z</time>
      </trkpt>
      <trkpt lat="45.28019" lon="6.17429">
        <ele>1674.9</ele>
        <time>2021-02-17T08:20:08Z</time>
      </trkpt>
      <trkpt lat="45.28019" lon="6.17428">
        <ele>1675</ele>
        <time>2021-02-17T08:20:09Z</time>
      </trkpt>
      <trkpt lat="45.28019" lon="6.17425">
        <ele>1675.3</ele>
        <time>2021-02-17T08:20:10Z</time>
      </trkpt>
      <trkpt lat="45.28018" lon="6.17424">
        <ele>1675.4</ele>
        <time>2021-02-17T08:20:11Z</time>
      </trkpt>
      <trkpt lat="45.28018" lon="6.17423">
        <ele>1675.5</ele>
        <time>2021-02-17T08:20:12Z</time>
      </trkpt>
      <trkpt lat="45.28018" lon="6.17421">
        <ele>1675.7</ele>
        <time>2021-02-17T08:20:13Z</time>
      </trkpt>
      <trkpt lat="45.28018" lon="6.1742">
        <ele>1675.8</ele>
        <time>2021-02-17T08:20:14Z</time>
      </trkpt>
      <trkpt lat="45.28019" lon="6.17418">
        <ele>1676</ele>
        <time>2021-02-17T08:20:15Z</time>
      </trkpt>
      <trkpt lat="45.28018" lon="6.17417">
        <ele>1676.1</ele>
        <time>2021-02-17T08:20:16Z</time>
      </trkpt>
      <trkpt lat="45.28018" lon="6.17416">
        <ele>1676.2</ele>
        <time>2021-02-17T08:20:17Z</time>
      </trkpt>
      <trkpt lat="45.28018" lon="6.17415">
        <ele>1676.3</ele>
        <time>2021-02-17T08:20:18Z</time>
      </trkpt>
      <trkpt lat="45.28018" lon="6.17414">
        <ele>1676.4</ele>
        <time>2021-02-17T08:20:19Z</time>
      </trkpt>
      <trkpt lat="45.28018" lon="6.17413">
        <ele>1676.5</ele>
        <time>2021-02-17T08:20:20Z</time>
      </trkpt>
      <trkpt lat="45.28018" lon="6.17411">
        <ele>1676.7</ele>
        <time>2021-02-17T08:20:21Z</time>
      </trkpt>
      <trkpt lat="45.28017" lon="6.1741">
        <ele>1676.8</ele>
        <time>2021-02-17T08:20:22Z</time>
      </trkpt>
      <trkpt lat="45.28017" lon="6.17409">
        <ele>1676.9</ele>
        <time>2021-02-17T08:20:23Z</time>
      </trkpt>
      <trkpt lat="45.28017" lon="6.17407">
        <ele>1677.1</ele>
        <time>2021-02-17T08:20:24Z</time>
      </trkpt>
      <trkpt lat="45.28017" lon="6.17406">
        <ele>1677.2</ele>
        <time>2021-02-17T08:20:25Z</time>
      </trkpt>
      <trkpt lat="45.28016" lon="6.17405">
        <ele>1677.4</ele>
        <time>2021-02-17T08:20:26Z</time>
      </trkpt>
      <trkpt lat="45.28016" lon="6.17404">
        <ele>1677.5</ele>
        <time>2021-02-17T08:20:27Z</time>
      </trkpt>
      <trkpt lat="45.28016" lon="6.17403">
        <ele>1677.6</ele>
        <time>2021-02-17T08:20:28Z</time>
      </trkpt>
      <trkpt lat="45.28016" lon="6.17402">
        <ele>1677.7</ele>
        <time>2021-02-17T08:20:29Z</time>
      </trkpt>
      <trkpt lat="45.28016" lon="6.174">
        <ele>1677.9</ele>
        <time>2021-02-17T08:20:30Z</time>
      </trkpt>
      <trkpt lat="45.28015" lon="6.17399">
        <ele>1678</ele>
        <time>2021-02-17T08:20:31Z</time>
      </trkpt>
      <trkpt lat="45.28015" lon="6.17399">
        <ele>1678.1</ele>
        <time>2021-02-17T08:20:32Z</time>
      </trkpt>
      <trkpt lat="45.28015" lon="6.17398">
        <ele>1678.2</ele>
        <time>2021-02-17T08:20:33Z</time>
      </trkpt>
      <trkpt lat="45.28015" lon="6.17397">
        <ele>1678.3</ele>
        <time>2021-02-17T08:20:34Z</time>
      </trkpt>
      <trkpt lat="45.28015" lon="6.17397">
        <ele>1678.4</ele>
        <time>2021-02-17T08:20:35Z</time>
      </trkpt>
      <trkpt lat="45.28014" lon="6.17395">
        <ele>1678.5</ele>
        <time>2021-02-17T08:20:36Z</time>
      </trkpt>
      <trkpt lat="45.28014" lon="6.17394">
        <ele>1678.7</ele>
        <time>2021-02-17T08:20:37Z</time>
      </trkpt>
      <trkpt lat="45.28013" lon="6.17393">
        <ele>1678.9</ele>
        <time>2021-02-17T08:20:38Z</time>
      </trkpt>
      <trkpt lat="45.28013" lon="6.17391">
        <ele>1679.1</ele>
        <time>2021-02-17T08:20:39Z</time>
      </trkpt>
      <trkpt lat="45.28013" lon="6.1739">
        <ele>1679.4</ele>
        <time>2021-02-17T08:20:40Z</time>
      </trkpt>
      <trkpt lat="45.28012" lon="6.17388">
        <ele>1679.6</ele>
        <time>2021-02-17T08:20:41Z</time>
      </trkpt>
      <trkpt lat="45.28012" lon="6.17387">
        <ele>1679.8</ele>
        <time>2021-02-17T08:20:42Z</time>
      </trkpt>
      <trkpt lat="45.28012" lon="6.17385">
        <ele>1680</ele>
        <time>2021-02-17T08:20:43Z</time>
      </trkpt>
      <trkpt lat="45.28012" lon="6.17384">
        <ele>1680.2</ele>
        <time>2021-02-17T08:20:44Z</time>
      </trkpt>
      <trkpt lat="45.28011" lon="6.17383">
        <ele>1680.4</ele>
        <time>2021-02-17T08:20:45Z</time>
      </trkpt>
      <trkpt lat="45.28011" lon="6.17382">
        <ele>1680.6</ele>
        <time>2021-02-17T08:20:46Z</time>
      </trkpt>
      <trkpt lat="45.28011" lon="6.17381">
        <ele>1680.8</ele>
        <time>2021-02-17T08:20:47Z</time>
      </trkpt>
      <trkpt lat="45.2801" lon="6.1738">
        <ele>1681</ele>
        <time>2021-02-17T08:20:48Z</time>
      </trkpt>
      <trkpt lat="45.2801" lon="6.17378">
        <ele>1681.2</ele>
        <time>2021-02-17T08:20:49Z</time>
      </trkpt>
      <trkpt lat="45.28009" lon="6.17377">
        <ele>1681.5</ele>
        <time>2021-02-17T08:20:50Z</time>
      </trkpt>
      <trkpt lat="45.28009" lon="6.17376">
        <ele>1681.7</ele>
        <time>2021-02-17T08:20:51Z</time>
      </trkpt>
      <trkpt lat="45.28008" lon="6.17375">
        <ele>1681.9</ele>
        <time>2021-02-17T08:20:52Z</time>
      </trkpt>
      <trkpt lat="45.28008" lon="6.17374">
        <ele>1682.1</ele>
        <time>2021-02-17T08:20:53Z</time>
      </trkpt>
      <trkpt lat="45.28008" lon="6.17373">
        <ele>1682.3</ele>
        <time>2021-02-17T08:20:54Z</time>
      </trkpt>
      <trkpt lat="45.28007" lon="6.17372">
        <ele>1682.5</ele>
        <time>2021-02-17T08:20:55Z</time>
      </trkpt>
      <trkpt lat="45.28007" lon="6.17371">
        <ele>1682.7</ele>
        <time>2021-02-17T08:20:56Z</time>
      </trkpt>
      <trkpt lat="45.28007" lon="6.17371">
        <ele>1682.9</ele>
        <time>2021-02-17T08:20:57Z</time>
      </trkpt>
      <trkpt lat="45.28007" lon="6.1737">
        <ele>1683</ele>
        <time>2021-02-17T08:20:58Z</time>
      </trkpt>
      <trkpt lat="45.28006" lon="6.17369">
        <ele>1683.2</ele>
        <time>2021-02-17T08:20:59Z</time>
      </trkpt>
      <trkpt lat="45.28006" lon="6.17368">
        <ele>1683.4</ele>
        <time>2021-02-17T08:21:00Z</time>
      </trkpt>
      <trkpt lat="45.28006" lon="6.17367">
        <ele>1683.7</ele>
        <time>2021-02-17T08:21:01Z</time>
      </trkpt>
      <trkpt lat="45.28006" lon="6.17366">
        <ele>1683.9</ele>
        <time>2021-02-17T08:21:02Z</time>
      </trkpt>
      <trkpt lat="45.28005" lon="6.17365">
        <ele>1684</ele>
        <time>2021-02-17T08:21:03Z</time>
      </trkpt>
      <trkpt lat="45.28005" lon="6.17364">
        <ele>1684.1</ele>
        <time>2021-02-17T08:21:04Z</time>
      </trkpt>
      <trkpt lat="45.28005" lon="6.17363">
        <ele>1684.3</ele>
        <time>2021-02-17T08:21:05Z</time>
      </trkpt>
      <trkpt lat="45.28005" lon="6.17362">
        <ele>1684.5</ele>
        <time>2021-02-17T08:21:06Z</time>
      </trkpt>
      <trkpt lat="45.28005" lon="6.17361">
        <ele>1684.7</ele>
        <time>2021-02-17T08:21:07Z</time>
      </trkpt>
      <trkpt lat="45.28005" lon="6.17361">
        <ele>1684.8</ele>
        <time>2021-02-17T08:21:08Z</time>
      </trkpt>
      <trkpt lat="45.28005" lon="6.1736">
        <ele>1685</ele>
        <time>2021-02-17T08:21:09Z</time>
      </trkpt>
      <trkpt lat="45.28005" lon="6.17359">
        <ele>1685.2</ele>
        <time>2021-02-17T08:21:10Z</time>
      </trkpt>
      <trkpt lat="45.28005" lon="6.17358">
        <ele>1685.5</ele>
        <time>2021-02-17T08:21:11Z</time>
      </trkpt>
      <trkpt lat="45.28004" lon="6.17357">
        <ele>1685.6</ele>
        <time>2021-02-17T08:21:12Z</time>
      </trkpt>
      <trkpt lat="45.28004" lon="6.17356">
        <ele>1685.8</ele>
        <time>2021-02-17T08:21:13Z</time>
      </trkpt>
      <trkpt lat="45.28004" lon="6.17355">
        <ele>1686</ele>
        <time>2021-02-17T08:21:14Z</time>
      </trkpt>
      <trkpt lat="45.28004" lon="6.17354">
        <ele>1686.1</ele>
        <time>2021-02-17T08:21:15Z</time>
      </trkpt>
      <trkpt lat="45.28004" lon="6.17353">
        <ele>1686.3</ele>
        <time>2021-02-17T08:21:16Z</time>
      </trkpt>
      <trkpt lat="45.28004" lon="6.17353">
        <ele>1686.4</ele>
        <time>2021-02-17T08:21:17Z</time>
      </trkpt>
      <trkpt lat="45.28004" lon="6.17352">
        <ele>1686.5</ele>
        <time>2021-02-17T08:21:18Z</time>
      </trkpt>
      <trkpt lat="45.28004" lon="6.17351">
        <ele>1686.7</ele>
        <time>2021-02-17T08:21:19Z</time>
      </trkpt>
      <trkpt lat="45.28004" lon="6.17351">
        <ele>1686.8</ele>
        <time>2021-02-17T08:21:20Z</time>
      </trkpt>
      <trkpt lat="45.28004" lon="6.1735">
        <ele>1686.8</ele>
        <time>2021-02-17T08:21:21Z</time>
      </trkpt>
      <trkpt lat="45.28004" lon="6.1735">
        <ele>1687</ele>
        <time>2021-02-17T08:21:22Z</time>
      </trkpt>
      <trkpt lat="45.28004" lon="6.17349">
        <ele>1687.2</ele>
        <time>2021-02-17T08:21:23Z</time>
      </trkpt>
      <trkpt lat="45.28003" lon="6.17348">
        <ele>1687.4</ele>
        <time>2021-02-17T08:21:24Z</time>
      </trkpt>
      <trkpt lat="45.28003" lon="6.17346">
        <ele>1687.6</ele>
        <time>2021-02-17T08:21:25Z</time>
      </trkpt>
      <trkpt lat="45.28003" lon="6.17346">
        <ele>1687.7</ele>
        <time>2021-02-17T08:21:26Z</time>
      </trkpt>
      <trkpt lat="45.28003" lon="6.17345">
        <ele>1687.9</ele>
        <time>2021-02-17T08:21:27Z</time>
      </trkpt>
      <trkpt lat="45.28002" lon="6.17344">
        <ele>1688.1</ele>
        <time>2021-02-17T08:21:28Z</time>
      </trkpt>
      <trkpt lat="45.28002" lon="6.17343">
        <ele>1688.2</ele>
        <time>2021-02-17T08:21:29Z</time>
      </trkpt>
      <trkpt lat="45.28001" lon="6.17342">
        <ele>1688.4</ele>
        <time>2021-02-17T08:21:30Z</time>
      </trkpt>
      <trkpt lat="45.28001" lon="6.17341">
        <ele>1688.6</ele>
        <time>2021-02-17T08:21:31Z</time>
      </trkpt>
      <trkpt lat="45.28" lon="6.1734">
        <ele>1688.9</ele>
        <time>2021-02-17T08:21:32Z</time>
      </trkpt>
      <trkpt lat="45.28" lon="6.17338">
        <ele>1689.1</ele>
        <time>2021-02-17T08:21:33Z</time>
      </trkpt>
      <trkpt lat="45.28" lon="6.17338">
        <ele>1689.2</ele>
        <time>2021-02-17T08:21:34Z</time>
      </trkpt>
      <trkpt lat="45.28" lon="6.17337">
        <ele>1689.4</ele>
        <time>2021-02-17T08:21:35Z</time>
      </trkpt>
      <trkpt lat="45.28" lon="6.17336">
        <ele>1689.5</ele>
        <time>2021-02-17T08:21:36Z</time>
      </trkpt>
      <trkpt lat="45.28" lon="6.17335">
        <ele>1689.6</ele>
        <time>2021-02-17T08:21:37Z</time>
      </trkpt>
      <trkpt lat="45.28" lon="6.17334">
        <ele>1689.8</ele>
        <time>2021-02-17T08:21:38Z</time>
      </trkpt>
      <trkpt lat="45.28" lon="6.17333">
        <ele>1690</ele>
        <time>2021-02-17T08:21:39Z</time>
      </trkpt>
      <trkpt lat="45.28" lon="6.17332">
        <ele>1690.1</ele>
        <time>2021-02-17T08:21:40Z</time>
      </trkpt>
      <trkpt lat="45.28" lon="6.17331">
        <ele>1690.3</ele>
        <time>2021-02-17T08:21:41Z</time>
      </trkpt>
      <trkpt lat="45.28" lon="6.17329">
        <ele>1690.5</ele>
        <time>2021-02-17T08:21:42Z</time>
      </trkpt>
      <trkpt lat="45.28" lon="6.17328">
        <ele>1690.7</ele>
        <time>2021-02-17T08:21:43Z</time>
      </trkpt>
      <trkpt lat="45.27999" lon="6.17327">
        <ele>1690.9</ele>
        <time>2021-02-17T08:21:44Z</time>
      </trkpt>
      <trkpt lat="45.27999" lon="6.17325">
        <ele>1691.1</ele>
        <time>2021-02-17T08:21:45Z</time>
      </trkpt>
      <trkpt lat="45.27999" lon="6.17324">
        <ele>1691.3</ele>
        <time>2021-02-17T08:21:46Z</time>
      </trkpt>
      <trkpt lat="45.27999" lon="6.17323">
        <ele>1691.5</ele>
        <time>2021-02-17T08:21:47Z</time>
      </trkpt>
      <trkpt lat="45.27999" lon="6.17322">
        <ele>1691.6</ele>
        <time>2021-02-17T08:21:48Z</time>
      </trkpt>
      <trkpt lat="45.27999" lon="6.17321">
        <ele>1691.7</ele>
        <time>2021-02-17T08:21:49Z</time>
      </trkpt>
      <trkpt lat="45.27999" lon="6.17321">
        <ele>1691.8</ele>
        <time>2021-02-17T08:21:50Z</time>
      </trkpt>
      <trkpt lat="45.27999" lon="6.1732">
        <ele>1692</ele>
        <time>2021-02-17T08:21:51Z</time>
      </trkpt>
      <trkpt lat="45.27999" lon="6.17319">
        <ele>1692.1</ele>
        <time>2021-02-17T08:21:52Z</time>
      </trkpt>
      <trkpt lat="45.28" lon="6.17318">
        <ele>1692.2</ele>
        <time>2021-02-17T08:21:53Z</time>
      </trkpt>
      <trkpt lat="45.28" lon="6.17317">
        <ele>1692.3</ele>
        <time>2021-02-17T08:21:54Z</time>
      </trkpt>
      <trkpt lat="45.28" lon="6.17317">
        <ele>1692.4</ele>
        <time>2021-02-17T08:21:55Z</time>
      </trkpt>
      <trkpt lat="45.28" lon="6.17316">
        <ele>1692.5</ele>
        <time>2021-02-17T08:21:56Z</time>
      </trkpt>
      <trkpt lat="45.28" lon="6.17315">
        <ele>1692.7</ele>
        <time>2021-02-17T08:21:57Z</time>
      </trkpt>
      <trkpt lat="45.28" lon="6.17314">
        <ele>1692.8</ele>
        <time>2021-02-17T08:21:58Z</time>
      </trkpt>
      <trkpt lat="45.28" lon="6.17314">
        <ele>1692.8</ele>
        <time>2021-02-17T08:21:59Z</time>
      </trkpt>
      <trkpt lat="45.28" lon="6.17314">
        <ele>1692.9</ele>
        <time>2021-02-17T08:22:00Z</time>
      </trkpt>
      <trkpt lat="45.28" lon="6.17313">
        <ele>1693</ele>
        <time>2021-02-17T08:22:01Z</time>
      </trkpt>
      <trkpt lat="45.28" lon="6.17312">
        <ele>1693.2</ele>
        <time>2021-02-17T08:22:02Z</time>
      </trkpt>
      <trkpt lat="45.28" lon="6.17311">
        <ele>1693.3</ele>
        <time>2021-02-17T08:22:03Z</time>
      </trkpt>
      <trkpt lat="45.28" lon="6.1731">
        <ele>1693.4</ele>
        <time>2021-02-17T08:22:04Z</time>
      </trkpt>
      <trkpt lat="45.28" lon="6.1731">
        <ele>1693.5</ele>
        <time>2021-02-17T08:22:05Z</time>
      </trkpt>
      <trkpt lat="45.28" lon="6.17309">
        <ele>1693.7</ele>
        <time>2021-02-17T08:22:06Z</time>
      </trkpt>
      <trkpt lat="45.28" lon="6.17308">
        <ele>1693.8</ele>
        <time>2021-02-17T08:22:07Z</time>
      </trkpt>
      <trkpt lat="45.28001" lon="6.17308">
        <ele>1693.9</ele>
        <time>2021-02-17T08:22:08Z</time>
      </trkpt>
      <trkpt lat="45.28001" lon="6.17307">
        <ele>1694</ele>
        <time>2021-02-17T08:22:09Z</time>
      </trkpt>
      <trkpt lat="45.28001" lon="6.17306">
        <ele>1694.1</ele>
        <time>2021-02-17T08:22:10Z</time>
      </trkpt>
      <trkpt lat="45.28001" lon="6.17305">
        <ele>1694.3</ele>
        <time>2021-02-17T08:22:11Z</time>
      </trkpt>
      <trkpt lat="45.28001" lon="6.17304">
        <ele>1694.5</ele>
        <time>2021-02-17T08:22:12Z</time>
      </trkpt>
      <trkpt lat="45.28001" lon="6.17303">
        <ele>1694.7</ele>
        <time>2021-02-17T08:22:13Z</time>
      </trkpt>
      <trkpt lat="45.28001" lon="6.17302">
        <ele>1694.9</ele>
        <time>2021-02-17T08:22:14Z</time>
      </trkpt>
      <trkpt lat="45.27999" lon="6.17291">
        <ele>1696.7</ele>
        <time>2021-02-17T08:22:29Z</time>
      </trkpt>
      <trkpt lat="45.27999" lon="6.1729">
        <ele>1696.9</ele>
        <time>2021-02-17T08:22:30Z</time>
      </trkpt>
      <trkpt lat="45.27999" lon="6.1729">
        <ele>1697</ele>
        <time>2021-02-17T08:22:31Z</time>
      </trkpt>
      <trkpt lat="45.27999" lon="6.17289">
        <ele>1697.2</ele>
        <time>2021-02-17T08:22:32Z</time>
      </trkpt>
      <trkpt lat="45.27999" lon="6.17288">
        <ele>1697.4</ele>
        <time>2021-02-17T08:22:33Z</time>
      </trkpt>
      <trkpt lat="45.27999" lon="6.17286">
        <ele>1697.6</ele>
        <time>2021-02-17T08:22:34Z</time>
      </trkpt>
      <trkpt lat="45.27999" lon="6.17285">
        <ele>1697.7</ele>
        <time>2021-02-17T08:22:35Z</time>
      </trkpt>
      <trkpt lat="45.27999" lon="6.17285">
        <ele>1697.9</ele>
        <time>2021-02-17T08:22:36Z</time>
      </trkpt>
      <trkpt lat="45.28" lon="6.17284">
        <ele>1698</ele>
        <time>2021-02-17T08:22:37Z</time>
      </trkpt>
      <trkpt lat="45.28" lon="6.17283">
        <ele>1698.1</ele>
        <time>2021-02-17T08:22:38Z</time>
      </trkpt>
      <trkpt lat="45.28" lon="6.17282">
        <ele>1698.3</ele>
        <time>2021-02-17T08:22:39Z</time>
      </trkpt>
      <trkpt lat="45.28" lon="6.17281">
        <ele>1698.5</ele>
        <time>2021-02-17T08:22:40Z</time>
      </trkpt>
      <trkpt lat="45.28" lon="6.1728">
        <ele>1698.7</ele>
        <time>2021-02-17T08:22:41Z</time>
      </trkpt>
      <trkpt lat="45.28" lon="6.17278">
        <ele>1698.9</ele>
        <time>2021-02-17T08:22:42Z</time>
      </trkpt>
      <trkpt lat="45.28" lon="6.17277">
        <ele>1699.1</ele>
        <time>2021-02-17T08:22:43Z</time>
      </trkpt>
      <trkpt lat="45.28" lon="6.17276">
        <ele>1699.3</ele>
        <time>2021-02-17T08:22:44Z</time>
      </trkpt>
      <trkpt lat="45.28" lon="6.17275">
        <ele>1699.4</ele>
        <time>2021-02-17T08:22:45Z</time>
      </trkpt>
      <trkpt lat="45.28" lon="6.17274">
        <ele>1699.5</ele>
        <time>2021-02-17T08:22:46Z</time>
      </trkpt>
      <trkpt lat="45.28" lon="6.17273">
        <ele>1699.7</ele>
        <time>2021-02-17T08:22:47Z</time>
      </trkpt>
      <trkpt lat="45.28" lon="6.17272">
        <ele>1699.8</ele>
        <time>2021-02-17T08:22:48Z</time>
      </trkpt>
      <trkpt lat="45.28" lon="6.17271">
        <ele>1700</ele>
        <time>2021-02-17T08:22:49Z</time>
      </trkpt>
      <trkpt lat="45.28001" lon="6.1727">
        <ele>1700.1</ele>
        <time>2021-02-17T08:22:50Z</time>
      </trkpt>
      <trkpt lat="45.28001" lon="6.17269">
        <ele>1700.3</ele>
        <time>2021-02-17T08:22:51Z</time>
      </trkpt>
      <trkpt lat="45.28001" lon="6.17268">
        <ele>1700.4</ele>
        <time>2021-02-17T08:22:52Z</time>
      </trkpt>
      <trkpt lat="45.28001" lon="6.17267">
        <ele>1700.6</ele>
        <time>2021-02-17T08:22:53Z</time>
      </trkpt>
      <trkpt lat="45.28002" lon="6.17266">
        <ele>1700.7</ele>
        <time>2021-02-17T08:22:54Z</time>
      </trkpt>
      <trkpt lat="45.28002" lon="6.17265">
        <ele>1700.8</ele>
        <time>2021-02-17T08:22:55Z</time>
      </trkpt>
      <trkpt lat="45.28002" lon="6.17264">
        <ele>1701</ele>
        <time>2021-02-17T08:22:56Z</time>
      </trkpt>
      <trkpt lat="45.28002" lon="6.17263">
        <ele>1701.2</ele>
        <time>2021-02-17T08:22:57Z</time>
      </trkpt>
      <trkpt lat="45.28003" lon="6.17261">
        <ele>1701.4</ele>
        <time>2021-02-17T08:22:58Z</time>
      </trkpt>
      <trkpt lat="45.28003" lon="6.1726">
        <ele>1701.7</ele>
        <time>2021-02-17T08:22:59Z</time>
      </trkpt>
      <trkpt lat="45.28003" lon="6.17258">
        <ele>1702</ele>
        <time>2021-02-17T08:23:00Z</time>
      </trkpt>
      <trkpt lat="45.28004" lon="6.17257">
        <ele>1702.1</ele>
        <time>2021-02-17T08:23:01Z</time>
      </trkpt>
      <trkpt lat="45.28004" lon="6.17256">
        <ele>1702.2</ele>
        <time>2021-02-17T08:23:02Z</time>
      </trkpt>
      <trkpt lat="45.28004" lon="6.17255">
        <ele>1702.4</ele>
        <time>2021-02-17T08:23:03Z</time>
      </trkpt>
      <trkpt lat="45.28004" lon="6.17253">
        <ele>1702.6</ele>
        <time>2021-02-17T08:23:04Z</time>
      </trkpt>
      <trkpt lat="45.28004" lon="6.17252">
        <ele>1702.8</ele>
        <time>2021-02-17T08:23:05Z</time>
      </trkpt>
      <trkpt lat="45.28004" lon="6.17251">
        <ele>1702.9</ele>
        <time>2021-02-17T08:23:06Z</time>
      </trkpt>
      <trkpt lat="45.28005" lon="6.1725">
        <ele>1703.1</ele>
        <time>2021-02-17T08:23:07Z</time>
      </trkpt>
      <trkpt lat="45.28005" lon="6.17249">
        <ele>1703.2</ele>
        <time>2021-02-17T08:23:08Z</time>
      </trkpt>
      <trkpt lat="45.28005" lon="6.17248">
        <ele>1703.4</ele>
        <time>2021-02-17T08:23:09Z</time>
      </trkpt>
      <trkpt lat="45.28005" lon="6.17247">
        <ele>1703.6</ele>
        <time>2021-02-17T08:23:10Z</time>
      </trkpt>
      <trkpt lat="45.28006" lon="6.17245">
        <ele>1703.7</ele>
        <time>2021-02-17T08:23:11Z</time>
      </trkpt>
      <trkpt lat="45.28006" lon="6.17244">
        <ele>1703.8</ele>
        <time>2021-02-17T08:23:12Z</time>
      </trkpt>
      <trkpt lat="45.28006" lon="6.17243">
        <ele>1704</ele>
        <time>2021-02-17T08:23:13Z</time>
      </trkpt>
      <trkpt lat="45.28006" lon="6.17242">
        <ele>1704.2</ele>
        <time>2021-02-17T08:23:14Z</time>
      </trkpt>
      <trkpt lat="45.28006" lon="6.17241">
        <ele>1704.3</ele>
        <time>2021-02-17T08:23:15Z</time>
      </trkpt>
      <trkpt lat="45.28006" lon="6.1724">
        <ele>1704.4</ele>
        <time>2021-02-17T08:23:16Z</time>
      </trkpt>
      <trkpt lat="45.28006" lon="6.1724">
        <ele>1704.4</ele>
        <time>2021-02-17T08:23:17Z</time>
      </trkpt>
      <trkpt lat="45.28006" lon="6.17239">
        <ele>1704.5</ele>
        <time>2021-02-17T08:23:18Z</time>
      </trkpt>
      <trkpt lat="45.28006" lon="6.17238">
        <ele>1704.7</ele>
        <time>2021-02-17T08:23:19Z</time>
      </trkpt>
      <trkpt lat="45.28006" lon="6.17238">
        <ele>1704.8</ele>
        <time>2021-02-17T08:23:20Z</time>
      </trkpt>
      <trkpt lat="45.28007" lon="6.17237">
        <ele>1704.9</ele>
        <time>2021-02-17T08:23:21Z</time>
      </trkpt>
      <trkpt lat="45.28007" lon="6.17236">
        <ele>1705</ele>
        <time>2021-02-17T08:23:22Z</time>
      </trkpt>
      <trkpt lat="45.28007" lon="6.17235">
        <ele>1705.1</ele>
        <time>2021-02-17T08:23:23Z</time>
      </trkpt>
      <trkpt lat="45.28008" lon="6.17235">
        <ele>1705.2</ele>
        <time>2021-02-17T08:23:24Z</time>
      </trkpt>
      <trkpt lat="45.28008" lon="6.17234">
        <ele>1705.3</ele>
        <time>2021-02-17T08:23:25Z</time>
      </trkpt>
      <trkpt lat="45.28008" lon="6.17233">
        <ele>1705.4</ele>
        <time>2021-02-17T08:23:26Z</time>
      </trkpt>
      <trkpt lat="45.28008" lon="6.17232">
        <ele>1705.5</ele>
        <time>2021-02-17T08:23:27Z</time>
      </trkpt>
      <trkpt lat="45.28008" lon="6.17231">
        <ele>1705.6</ele>
        <time>2021-02-17T08:23:28Z</time>
      </trkpt>
      <trkpt lat="45.28008" lon="6.17231">
        <ele>1705.7</ele>
        <time>2021-02-17T08:23:29Z</time>
      </trkpt>
      <trkpt lat="45.28008" lon="6.1723">
        <ele>1705.7</ele>
        <time>2021-02-17T08:23:30Z</time>
      </trkpt>
      <trkpt lat="45.28008" lon="6.1723">
        <ele>1705.7</ele>
        <time>2021-02-17T08:23:31Z</time>
      </trkpt>
      <trkpt lat="45.28008" lon="6.1723">
        <ele>1705.7</ele>
        <time>2021-02-17T08:23:32Z</time>
      </trkpt>
      <trkpt lat="45.28008" lon="6.1723">
        <ele>1705.7</ele>
        <time>2021-02-17T08:23:33Z</time>
      </trkpt>
      <trkpt lat="45.28008" lon="6.1723">
        <ele>1705.7</ele>
        <time>2021-02-17T08:23:34Z</time>
      </trkpt>
      <trkpt lat="45.28008" lon="6.1723">
        <ele>1705.7</ele>
        <time>2021-02-17T08:23:35Z</time>
      </trkpt>
      <trkpt lat="45.28008" lon="6.1723">
        <ele>1705.7</ele>
        <time>2021-02-17T08:23:36Z</time>
      </trkpt>
      <trkpt lat="45.28008" lon="6.1723">
        <ele>1705.7</ele>
        <time>2021-02-17T08:23:37Z</time>
      </trkpt>
      <trkpt lat="45.28014" lon="6.17219">
        <ele>1707.1</ele>
        <time>2021-02-17T08:29:21Z</time>
      </trkpt>
      <trkpt lat="45.28014" lon="6.17218">
        <ele>1707.2</ele>
        <time>2021-02-17T08:29:22Z</time>
      </trkpt>
      <trkpt lat="45.28014" lon="6.17217">
        <ele>1707.3</ele>
        <time>2021-02-17T08:29:23Z</time>
      </trkpt>
      <trkpt lat="45.28014" lon="6.17216">
        <ele>1707.3</ele>
        <time>2021-02-17T08:29:24Z</time>
      </trkpt>
      <trkpt lat="45.28014" lon="6.17215">
        <ele>1707.4</ele>
        <time>2021-02-17T08:29:25Z</time>
      </trkpt>
      <trkpt lat="45.28014" lon="6.17214">
        <ele>1707.5</ele>
        <time>2021-02-17T08:29:26Z</time>
      </trkpt>
      <trkpt lat="45.28014" lon="6.17213">
        <ele>1707.6</ele>
        <time>2021-02-17T08:29:27Z</time>
      </trkpt>
      <trkpt lat="45.28014" lon="6.17211">
        <ele>1707.8</ele>
        <time>2021-02-17T08:29:28Z</time>
      </trkpt>
      <trkpt lat="45.28014" lon="6.17209">
        <ele>1708</ele>
        <time>2021-02-17T08:29:29Z</time>
      </trkpt>
      <trkpt lat="45.28014" lon="6.17208">
        <ele>1708.1</ele>
        <time>2021-02-17T08:29:30Z</time>
      </trkpt>
      <trkpt lat="45.28014" lon="6.17207">
        <ele>1708.1</ele>
        <time>2021-02-17T08:29:31Z</time>
      </trkpt>
      <trkpt lat="45.28014" lon="6.17206">
        <ele>1708.2</ele>
        <time>2021-02-17T08:29:32Z</time>
      </trkpt>
      <trkpt lat="45.28013" lon="6.17203">
        <ele>1708.5</ele>
        <time>2021-02-17T08:29:33Z</time>
      </trkpt>
      <trkpt lat="45.28013" lon="6.17202">
        <ele>1708.6</ele>
        <time>2021-02-17T08:29:34Z</time>
      </trkpt>
      <trkpt lat="45.28013" lon="6.17201">
        <ele>1708.7</ele>
        <time>2021-02-17T08:29:35Z</time>
      </trkpt>
      <trkpt lat="45.28013" lon="6.172">
        <ele>1708.8</ele>
        <time>2021-02-17T08:29:36Z</time>
      </trkpt>
      <trkpt lat="45.28013" lon="6.17198">
        <ele>1709</ele>
        <time>2021-02-17T08:29:37Z</time>
      </trkpt>
      <trkpt lat="45.28013" lon="6.17197">
        <ele>1709.1</ele>
        <time>2021-02-17T08:29:38Z</time>
      </trkpt>
      <trkpt lat="45.28014" lon="6.17196">
        <ele>1709.1</ele>
        <time>2021-02-17T08:29:39Z</time>
      </trkpt>
      <trkpt lat="45.28014" lon="6.17196">
        <ele>1709.2</ele>
        <time>2021-02-17T08:29:40Z</time>
      </trkpt>
      <trkpt lat="45.28014" lon="6.17195">
        <ele>1709.3</ele>
        <time>2021-02-17T08:29:41Z</time>
      </trkpt>
      <trkpt lat="45.28014" lon="6.17193">
        <ele>1709.4</ele>
        <time>2021-02-17T08:29:42Z</time>
      </trkpt>
      <trkpt lat="45.28014" lon="6.17192">
        <ele>1709.6</ele>
        <time>2021-02-17T08:29:43Z</time>
      </trkpt>
      <trkpt lat="45.28014" lon="6.1719">
        <ele>1709.8</ele>
        <time>2021-02-17T08:29:44Z</time>
      </trkpt>
      <trkpt lat="45.28014" lon="6.17189">
        <ele>1709.9</ele>
        <time>2021-02-17T08:29:45Z</time>
      </trkpt>
      <trkpt lat="45.28014" lon="6.17188">
        <ele>1709.9</ele>
        <time>2021-02-17T08:29:46Z</time>
      </trkpt>
      <trkpt lat="45.28014" lon="6.17187">
        <ele>1710</ele>
        <time>2021-02-17T08:29:47Z</time>
      </trkpt>
      <trkpt lat="45.28014" lon="6.17186">
        <ele>1710.1</ele>
        <time>2021-02-17T08:29:48Z</time>
      </trkpt>
      <trkpt lat="45.28014" lon="6.17186">
        <ele>1710.2</ele>
        <time>2021-02-17T08:29:49Z</time>
      </trkpt>
      <trkpt lat="45.28014" lon="6.17185">
        <ele>1710.2</ele>
        <time>2021-02-17T08:29:50Z</time>
      </trkpt>
      <trkpt lat="45.28014" lon="6.17185">
        <ele>1710.3</ele>
        <time>2021-02-17T08:29:51Z</time>
      </trkpt>
      <trkpt lat="45.28014" lon="6.17184">
        <ele>1710.4</ele>
        <time>2021-02-17T08:29:52Z</time>
      </trkpt>
      <trkpt lat="45.28014" lon="6.17184">
        <ele>1710.4</ele>
        <time>2021-02-17T08:29:53Z</time>
      </trkpt>
      <trkpt lat="45.28014" lon="6.17183">
        <ele>1710.5</ele>
        <time>2021-02-17T08:29:54Z</time>
      </trkpt>
      <trkpt lat="45.28014" lon="6.17181">
        <ele>1710.7</ele>
        <time>2021-02-17T08:29:55Z</time>
      </trkpt>
      <trkpt lat="45.28015" lon="6.1718">
        <ele>1710.8</ele>
        <time>2021-02-17T08:29:56Z</time>
      </trkpt>
      <trkpt lat="45.28015" lon="6.17179">
        <ele>1710.9</ele>
        <time>2021-02-17T08:29:57Z</time>
      </trkpt>
      <trkpt lat="45.28015" lon="6.17178">
        <ele>1711</ele>
        <time>2021-02-17T08:29:58Z</time>
      </trkpt>
      <trkpt lat="45.28015" lon="6.17177">
        <ele>1711.1</ele>
        <time>2021-02-17T08:29:59Z</time>
      </trkpt>
      <trkpt lat="45.28015" lon="6.17176">
        <ele>1711.3</ele>
        <time>2021-02-17T08:30:00Z</time>
      </trkpt>
      <trkpt lat="45.28015" lon="6.17175">
        <ele>1711.4</ele>
        <time>2021-02-17T08:30:01Z</time>
      </trkpt>
      <trkpt lat="45.28015" lon="6.17174">
        <ele>1711.5</ele>
        <time>2021-02-17T08:30:02Z</time>
      </trkpt>
      <trkpt lat="45.28015" lon="6.17173">
        <ele>1711.6</ele>
        <time>2021-02-17T08:30:03Z</time>
      </trkpt>
      <trkpt lat="45.28015" lon="6.17171">
        <ele>1711.7</ele>
        <time>2021-02-17T08:30:04Z</time>
      </trkpt>
      <trkpt lat="45.28016" lon="6.1717">
        <ele>1711.8</ele>
        <time>2021-02-17T08:30:05Z</time>
      </trkpt>
      <trkpt lat="45.28016" lon="6.17169">
        <ele>1712</ele>
        <time>2021-02-17T08:30:06Z</time>
      </trkpt>
      <trkpt lat="45.28016" lon="6.17168">
        <ele>1712.1</ele>
        <time>2021-02-17T08:30:07Z</time>
      </trkpt>
      <trkpt lat="45.28016" lon="6.17166">
        <ele>1712.2</ele>
        <time>2021-02-17T08:30:08Z</time>
      </trkpt>
      <trkpt lat="45.28016" lon="6.17165">
        <ele>1712.4</ele>
        <time>2021-02-17T08:30:09Z</time>
      </trkpt>
      <trkpt lat="45.28016" lon="6.17164">
        <ele>1712.5</ele>
        <time>2021-02-17T08:30:10Z</time>
      </trkpt>
      <trkpt lat="45.28016" lon="6.17163">
        <ele>1712.6</ele>
        <time>2021-02-17T08:30:11Z</time>
      </trkpt>
      <trkpt lat="45.28016" lon="6.17162">
        <ele>1712.7</ele>
        <time>2021-02-17T08:30:12Z</time>
      </trkpt>
      <trkpt lat="45.28016" lon="6.17159">
        <ele>1713</ele>
        <time>2021-02-17T08:30:13Z</time>
      </trkpt>
      <trkpt lat="45.28016" lon="6.17157">
        <ele>1713.1</ele>
        <time>2021-02-17T08:30:14Z</time>
      </trkpt>
      <trkpt lat="45.28016" lon="6.17156">
        <ele>1713.3</ele>
        <time>2021-02-17T08:30:15Z</time>
      </trkpt>
      <trkpt lat="45.28017" lon="6.17155">
        <ele>1713.4</ele>
        <time>2021-02-17T08:30:16Z</time>
      </trkpt>
      <trkpt lat="45.28017" lon="6.17153">
        <ele>1713.5</ele>
        <time>2021-02-17T08:30:17Z</time>
      </trkpt>
      <trkpt lat="45.28017" lon="6.17152">
        <ele>1713.7</ele>
        <time>2021-02-17T08:30:18Z</time>
      </trkpt>
      <trkpt lat="45.28017" lon="6.17151">
        <ele>1713.8</ele>
        <time>2021-02-17T08:30:19Z</time>
      </trkpt>
      <trkpt lat="45.28018" lon="6.1715">
        <ele>1713.9</ele>
        <time>2021-02-17T08:30:20Z</time>
      </trkpt>
      <trkpt lat="45.28018" lon="6.17149">
        <ele>1714</ele>
        <time>2021-02-17T08:30:21Z</time>
      </trkpt>
      <trkpt lat="45.28018" lon="6.17148">
        <ele>1714.1</ele>
        <time>2021-02-17T08:30:22Z</time>
      </trkpt>
      <trkpt lat="45.28019" lon="6.17147">
        <ele>1714.2</ele>
        <time>2021-02-17T08:30:23Z</time>
      </trkpt>
      <trkpt lat="45.28019" lon="6.17146">
        <ele>1714.3</ele>
        <time>2021-02-17T08:30:24Z</time>
      </trkpt>
      <trkpt lat="45.28019" lon="6.17145">
        <ele>1714.4</ele>
        <time>2021-02-17T08:30:25Z</time>
      </trkpt>
      <trkpt lat="45.2802" lon="6.17144">
        <ele>1714.6</ele>
        <time>2021-02-17T08:30:26Z</time>
      </trkpt>
      <trkpt lat="45.2802" lon="6.17143">
        <ele>1714.7</ele>
        <time>2021-02-17T08:30:27Z</time>
      </trkpt>
      <trkpt lat="45.2802" lon="6.17141">
        <ele>1714.8</ele>
        <time>2021-02-17T08:30:28Z</time>
      </trkpt>
      <trkpt lat="45.28021" lon="6.17141">
        <ele>1714.9</ele>
        <time>2021-02-17T08:30:29Z</time>
      </trkpt>
      <trkpt lat="45.28021" lon="6.1714">
        <ele>1715</ele>
        <time>2021-02-17T08:30:30Z</time>
      </trkpt>
      <trkpt lat="45.28021" lon="6.17139">
        <ele>1715.1</ele>
        <time>2021-02-17T08:30:31Z</time>
      </trkpt>
      <trkpt lat="45.28021" lon="6.17138">
        <ele>1715.1</ele>
        <time>2021-02-17T08:30:32Z</time>
      </trkpt>
      <trkpt lat="45.28022" lon="6.17137">
        <ele>1715.2</ele>
        <time>2021-02-17T08:30:33Z</time>
      </trkpt>
      <trkpt lat="45.28022" lon="6.17137">
        <ele>1715.3</ele>
        <time>2021-02-17T08:30:34Z</time>
      </trkpt>
      <trkpt lat="45.28022" lon="6.17136">
        <ele>1715.3</ele>
        <time>2021-02-17T08:30:35Z</time>
      </trkpt>
      <trkpt lat="45.28023" lon="6.17135">
        <ele>1715.4</ele>
        <time>2021-02-17T08:30:36Z</time>
      </trkpt>
      <trkpt lat="45.28023" lon="6.17135">
        <ele>1715.5</ele>
        <time>2021-02-17T08:30:37Z</time>
      </trkpt>
      <trkpt lat="45.28023" lon="6.17134">
        <ele>1715.6</ele>
        <time>2021-02-17T08:30:38Z</time>
      </trkpt>
      <trkpt lat="45.28023" lon="6.17133">
        <ele>1715.6</ele>
        <time>2021-02-17T08:30:39Z</time>
      </trkpt>
      <trkpt lat="45.28024" lon="6.17132">
        <ele>1715.7</ele>
        <time>2021-02-17T08:30:40Z</time>
      </trkpt>
      <trkpt lat="45.28024" lon="6.17132">
        <ele>1715.8</ele>
        <time>2021-02-17T08:30:41Z</time>
      </trkpt>
      <trkpt lat="45.28024" lon="6.17131">
        <ele>1715.9</ele>
        <time>2021-02-17T08:30:42Z</time>
      </trkpt>
      <trkpt lat="45.28024" lon="6.1713">
        <ele>1715.9</ele>
        <time>2021-02-17T08:30:43Z</time>
      </trkpt>
      <trkpt lat="45.28024" lon="6.17129">
        <ele>1716</ele>
        <time>2021-02-17T08:30:44Z</time>
      </trkpt>
      <trkpt lat="45.28024" lon="6.17128">
        <ele>1716</ele>
        <time>2021-02-17T08:30:45Z</time>
      </trkpt>
      <trkpt lat="45.28024" lon="6.17127">
        <ele>1716.1</ele>
        <time>2021-02-17T08:30:46Z</time>
      </trkpt>
      <trkpt lat="45.28024" lon="6.17126">
        <ele>1716.2</ele>
        <time>2021-02-17T08:30:47Z</time>
      </trkpt>
      <trkpt lat="45.28024" lon="6.17125">
        <ele>1716.3</ele>
        <time>2021-02-17T08:30:48Z</time>
      </trkpt>
      <trkpt lat="45.28024" lon="6.17123">
        <ele>1716.4</ele>
        <time>2021-02-17T08:30:49Z</time>
      </trkpt>
      <trkpt lat="45.28024" lon="6.17121">
        <ele>1716.5</ele>
        <time>2021-02-17T08:30:50Z</time>
      </trkpt>
      <trkpt lat="45.28024" lon="6.17119">
        <ele>1716.7</ele>
        <time>2021-02-17T08:30:51Z</time>
      </trkpt>
      <trkpt lat="45.28024" lon="6.17118">
        <ele>1716.8</ele>
        <time>2021-02-17T08:30:52Z</time>
      </trkpt>
      <trkpt lat="45.28024" lon="6.17116">
        <ele>1716.9</ele>
        <time>2021-02-17T08:30:53Z</time>
      </trkpt>
      <trkpt lat="45.28024" lon="6.17115">
        <ele>1717</ele>
        <time>2021-02-17T08:30:54Z</time>
      </trkpt>
      <trkpt lat="45.28023" lon="6.17114">
        <ele>1717.1</ele>
        <time>2021-02-17T08:30:55Z</time>
      </trkpt>
      <trkpt lat="45.28023" lon="6.17114">
        <ele>1717.1</ele>
        <time>2021-02-17T08:30:56Z</time>
      </trkpt>
      <trkpt lat="45.28023" lon="6.17114">
        <ele>1717.1</ele>
        <time>2021-02-17T08:30:57Z</time>
      </trkpt>
      <trkpt lat="45.28023" lon="6.17113">
        <ele>1717.2</ele>
        <time>2021-02-17T08:30:58Z</time>
      </trkpt>
      <trkpt lat="45.28023" lon="6.17112">
        <ele>1717.3</ele>
        <time>2021-02-17T08:30:59Z</time>
      </trkpt>
      <trkpt lat="45.28023" lon="6.1711">
        <ele>1717.4</ele>
        <time>2021-02-17T08:31:00Z</time>
      </trkpt>
      <trkpt lat="45.28023" lon="6.17109">
        <ele>1717.4</ele>
        <time>2021-02-17T08:31:01Z</time>
      </trkpt>
      <trkpt lat="45.28023" lon="6.17109">
        <ele>1717.5</ele>
        <time>2021-02-17T08:31:02Z</time>
      </trkpt>
      <trkpt lat="45.28023" lon="6.17108">
        <ele>1717.6</ele>
        <time>2021-02-17T08:31:03Z</time>
      </trkpt>
      <trkpt lat="45.28023" lon="6.17107">
        <ele>1717.6</ele>
        <time>2021-02-17T08:31:04Z</time>
      </trkpt>
      <trkpt lat="45.28023" lon="6.17106">
        <ele>1717.7</ele>
        <time>2021-02-17T08:31:05Z</time>
      </trkpt>
      <trkpt lat="45.28023" lon="6.17106">
        <ele>1717.7</ele>
        <time>2021-02-17T08:31:06Z</time>
      </trkpt>
      <trkpt lat="45.28023" lon="6.17106">
        <ele>1717.7</ele>
        <time>2021-02-17T08:31:07Z</time>
      </trkpt>
      <trkpt lat="45.28023" lon="6.17106">
        <ele>1717.8</ele>
        <time>2021-02-17T08:31:08Z</time>
      </trkpt>
      <trkpt lat="45.28023" lon="6.17105">
        <ele>1717.8</ele>
        <time>2021-02-17T08:31:09Z</time>
      </trkpt>
      <trkpt lat="45.28023" lon="6.17104">
        <ele>1717.9</ele>
        <time>2021-02-17T08:31:10Z</time>
      </trkpt>
      <trkpt lat="45.28024" lon="6.17104">
        <ele>1718</ele>
        <time>2021-02-17T08:31:11Z</time>
      </trkpt>
      <trkpt lat="45.28024" lon="6.17103">
        <ele>1718.1</ele>
        <time>2021-02-17T08:31:12Z</time>
      </trkpt>
      <trkpt lat="45.28024" lon="6.17103">
        <ele>1718.2</ele>
        <time>2021-02-17T08:31:13Z</time>
      </trkpt>
      <trkpt lat="45.28024" lon="6.17102">
        <ele>1718.3</ele>
        <time>2021-02-17T08:31:14Z</time>
      </trkpt>
      <trkpt lat="45.28025" lon="6.17101">
        <ele>1718.4</ele>
        <time>2021-02-17T08:31:15Z</time>
      </trkpt>
      <trkpt lat="45.28029" lon="6.1709">
        <ele>1719.8</ele>
        <time>2021-02-17T08:31:30Z</time>
      </trkpt>
      <trkpt lat="45.28029" lon="6.17089">
        <ele>1720</ele>
        <time>2021-02-17T08:31:31Z</time>
      </trkpt>
      <trkpt lat="45.28029" lon="6.17088">
        <ele>1720.1</ele>
        <time>2021-02-17T08:31:32Z</time>
      </trkpt>
      <trkpt lat="45.28029" lon="6.17087">
        <ele>1720.2</ele>
        <time>2021-02-17T08:31:33Z</time>
      </trkpt>
      <trkpt lat="45.28029" lon="6.17086">
        <ele>1720.3</ele>
        <time>2021-02-17T08:31:34Z</time>
      </trkpt>
      <trkpt lat="45.28029" lon="6.17085">
        <ele>1720.5</ele>
        <time>2021-02-17T08:31:35Z</time>
      </trkpt>
      <trkpt lat="45.28028" lon="6.17083">
        <ele>1720.7</ele>
        <time>2021-02-17T08:31:36Z</time>
      </trkpt>
      <trkpt lat="45.28028" lon="6.17081">
        <ele>1721</ele>
        <time>2021-02-17T08:31:37Z</time>
      </trkpt>
      <trkpt lat="45.28027" lon="6.17079">
        <ele>1721.1</ele>
        <time>2021-02-17T08:31:38Z</time>
      </trkpt>
      <trkpt lat="45.28027" lon="6.17077">
        <ele>1721.4</ele>
        <time>2021-02-17T08:31:39Z</time>
      </trkpt>
      <trkpt lat="45.28026" lon="6.17075">
        <ele>1721.6</ele>
        <time>2021-02-17T08:31:40Z</time>
      </trkpt>
      <trkpt lat="45.28026" lon="6.17074">
        <ele>1721.8</ele>
        <time>2021-02-17T08:31:41Z</time>
      </trkpt>
      <trkpt lat="45.28025" lon="6.17072">
        <ele>1722.1</ele>
        <time>2021-02-17T08:31:42Z</time>
      </trkpt>
      <trkpt lat="45.28025" lon="6.1707">
        <ele>1722.3</ele>
        <time>2021-02-17T08:31:43Z</time>
      </trkpt>
      <trkpt lat="45.28025" lon="6.17068">
        <ele>1722.5</ele>
        <time>2021-02-17T08:31:44Z</time>
      </trkpt>
      <trkpt lat="45.28025" lon="6.17066">
        <ele>1722.7</ele>
        <time>2021-02-17T08:31:45Z</time>
      </trkpt>
      <trkpt lat="45.28025" lon="6.17065">
        <ele>1723</ele>
        <time>2021-02-17T08:31:46Z</time>
      </trkpt>
      <trkpt lat="45.28024" lon="6.17063">
        <ele>1723.2</ele>
        <time>2021-02-17T08:31:47Z</time>
      </trkpt>
      <trkpt lat="45.28024" lon="6.17061">
        <ele>1723.4</ele>
        <time>2021-02-17T08:31:48Z</time>
      </trkpt>
      <trkpt lat="45.28024" lon="6.1706">
        <ele>1723.5</ele>
        <time>2021-02-17T08:31:49Z</time>
      </trkpt>
      <trkpt lat="45.28024" lon="6.17059">
        <ele>1723.7</ele>
        <time>2021-02-17T08:31:50Z</time>
      </trkpt>
      <trkpt lat="45.28024" lon="6.17057">
        <ele>1723.8</ele>
        <time>2021-02-17T08:31:51Z</time>
      </trkpt>
      <trkpt lat="45.28024" lon="6.17056">
        <ele>1724</ele>
        <time>2021-02-17T08:31:52Z</time>
      </trkpt>
      <trkpt lat="45.28024" lon="6.17055">
        <ele>1724.2</ele>
        <time>2021-02-17T08:31:53Z</time>
      </trkpt>
      <trkpt lat="45.28024" lon="6.17054">
        <ele>1724.3</ele>
        <time>2021-02-17T08:31:54Z</time>
      </trkpt>
      <trkpt lat="45.28024" lon="6.17052">
        <ele>1724.4</ele>
        <time>2021-02-17T08:31:55Z</time>
      </trkpt>
      <trkpt lat="45.28023" lon="6.17051">
        <ele>1724.6</ele>
        <time>2021-02-17T08:31:56Z</time>
      </trkpt>
      <trkpt lat="45.28023" lon="6.1705">
        <ele>1724.7</ele>
        <time>2021-02-17T08:31:57Z</time>
      </trkpt>
      <trkpt lat="45.28023" lon="6.17049">
        <ele>1724.8</ele>
        <time>2021-02-17T08:31:58Z</time>
      </trkpt>
      <trkpt lat="45.28023" lon="6.17048">
        <ele>1725</ele>
        <time>2021-02-17T08:31:59Z</time>
      </trkpt>
      <trkpt lat="45.28023" lon="6.17047">
        <ele>1725.1</ele>
        <time>2021-02-17T08:32:00Z</time>
      </trkpt>
      <trkpt lat="45.28023" lon="6.17046">
        <ele>1725.2</ele>
        <time>2021-02-17T08:32:01Z</time>
      </trkpt>
      <trkpt lat="45.28023" lon="6.17045">
        <ele>1725.3</ele>
        <time>2021-02-17T08:32:02Z</time>
      </trkpt>
      <trkpt lat="45.28022" lon="6.17044">
        <ele>1725.5</ele>
        <time>2021-02-17T08:32:03Z</time>
      </trkpt>
      <trkpt lat="45.28022" lon="6.17043">
        <ele>1725.6</ele>
        <time>2021-02-17T08:32:04Z</time>
      </trkpt>
      <trkpt lat="45.28022" lon="6.17042">
        <ele>1725.7</ele>
        <time>2021-02-17T08:32:05Z</time>
      </trkpt>
      <trkpt lat="45.28022" lon="6.17042">
        <ele>1725.8</ele>
        <time>2021-02-17T08:32:06Z</time>
      </trkpt>
      <trkpt lat="45.28023" lon="6.17041">
        <ele>1725.8</ele>
        <time>2021-02-17T08:32:07Z</time>
      </trkpt>
      <trkpt lat="45.28023" lon="6.17041">
        <ele>1725.9</ele>
        <time>2021-02-17T08:32:08Z</time>
      </trkpt>
      <trkpt lat="45.28024" lon="6.17041">
        <ele>1726</ele>
        <time>2021-02-17T08:32:09Z</time>
      </trkpt>
      <trkpt lat="45.28024" lon="6.1704">
        <ele>1726.1</ele>
        <time>2021-02-17T08:32:10Z</time>
      </trkpt>
      <trkpt lat="45.28024" lon="6.17039">
        <ele>1726.2</ele>
        <time>2021-02-17T08:32:11Z</time>
      </trkpt>
      <trkpt lat="45.28025" lon="6.17038">
        <ele>1726.4</ele>
        <time>2021-02-17T08:32:12Z</time>
      </trkpt>
      <trkpt lat="45.28025" lon="6.17037">
        <ele>1726.6</ele>
        <time>2021-02-17T08:32:13Z</time>
      </trkpt>
      <trkpt lat="45.28025" lon="6.17035">
        <ele>1726.7</ele>
        <time>2021-02-17T08:32:14Z</time>
      </trkpt>
      <trkpt lat="45.28026" lon="6.17034">
        <ele>1726.9</ele>
        <time>2021-02-17T08:32:15Z</time>
      </trkpt>
      <trkpt lat="45.28026" lon="6.17033">
        <ele>1727</ele>
        <time>2021-02-17T08:32:16Z</time>
      </trkpt>
      <trkpt lat="45.28026" lon="6.17032">
        <ele>1727.1</ele>
        <time>2021-02-17T08:32:17Z</time>
      </trkpt>
      <trkpt lat="45.28027" lon="6.17031">
        <ele>1727.3</ele>
        <time>2021-02-17T08:32:18Z</time>
      </trkpt>
      <trkpt lat="45.28028" lon="6.17031">
        <ele>1727.4</ele>
        <time>2021-02-17T08:32:19Z</time>
      </trkpt>
      <trkpt lat="45.28028" lon="6.1703">
        <ele>1727.6</ele>
        <time>2021-02-17T08:32:20Z</time>
      </trkpt>
      <trkpt lat="45.28029" lon="6.17029">
        <ele>1727.7</ele>
        <time>2021-02-17T08:32:21Z</time>
      </trkpt>
      <trkpt lat="45.28029" lon="6.17028">
        <ele>1727.8</ele>
        <time>2021-02-17T08:32:22Z</time>
      </trkpt>
      <trkpt lat="45.28029" lon="6.17028">
        <ele>1727.9</ele>
        <time>2021-02-17T08:32:23Z</time>
      </trkpt>
      <trkpt lat="45.2803" lon="6.17027">
        <ele>1728</ele>
        <time>2021-02-17T08:32:24Z</time>
      </trkpt>
      <trkpt lat="45.2803" lon="6.17026">
        <ele>1728.1</ele>
        <time>2021-02-17T08:32:25Z</time>
      </trkpt>
      <trkpt lat="45.2803" lon="6.17025">
        <ele>1728.2</ele>
        <time>2021-02-17T08:32:26Z</time>
      </trkpt>
      <trkpt lat="45.28031" lon="6.17024">
        <ele>1728.4</ele>
        <time>2021-02-17T08:32:27Z</time>
      </trkpt>
      <trkpt lat="45.28032" lon="6.17023">
        <ele>1728.6</ele>
        <time>2021-02-17T08:32:28Z</time>
      </trkpt>
      <trkpt lat="45.28032" lon="6.17023">
        <ele>1728.7</ele>
        <time>2021-02-17T08:32:29Z</time>
      </trkpt>
      <trkpt lat="45.28033" lon="6.17022">
        <ele>1728.8</ele>
        <time>2021-02-17T08:32:30Z</time>
      </trkpt>
      <trkpt lat="45.28033" lon="6.17021">
        <ele>1728.9</ele>
        <time>2021-02-17T08:32:31Z</time>
      </trkpt>
      <trkpt lat="45.28033" lon="6.1702">
        <ele>1729.1</ele>
        <time>2021-02-17T08:32:32Z</time>
      </trkpt>
      <trkpt lat="45.28033" lon="6.17019">
        <ele>1729.2</ele>
        <time>2021-02-17T08:32:33Z</time>
      </trkpt>
      <trkpt lat="45.28033" lon="6.17019">
        <ele>1729.2</ele>
        <time>2021-02-17T08:32:34Z</time>
      </trkpt>
      <trkpt lat="45.28034" lon="6.17019">
        <ele>1729.3</ele>
        <time>2021-02-17T08:32:35Z</time>
      </trkpt>
      <trkpt lat="45.28034" lon="6.17019">
        <ele>1729.4</ele>
        <time>2021-02-17T08:32:36Z</time>
      </trkpt>
      <trkpt lat="45.28035" lon="6.17018">
        <ele>1729.6</ele>
        <time>2021-02-17T08:32:37Z</time>
      </trkpt>
      <trkpt lat="45.28036" lon="6.17018">
        <ele>1729.8</ele>
        <time>2021-02-17T08:32:38Z</time>
      </trkpt>
      <trkpt lat="45.28037" lon="6.17018">
        <ele>1729.9</ele>
        <time>2021-02-17T08:32:39Z</time>
      </trkpt>
      <trkpt lat="45.28037" lon="6.17017">
        <ele>1729.9</ele>
        <time>2021-02-17T08:32:40Z</time>
      </trkpt>
      <trkpt lat="45.28037" lon="6.17017">
        <ele>1730</ele>
        <time>2021-02-17T08:32:41Z</time>
      </trkpt>
      <trkpt lat="45.28037" lon="6.17016">
        <ele>1730.1</ele>
        <time>2021-02-17T08:32:42Z</time>
      </trkpt>
      <trkpt lat="45.28037" lon="6.17016">
        <ele>1730.2</ele>
        <time>2021-02-17T08:32:43Z</time>
      </trkpt>
      <trkpt lat="45.28037" lon="6.17015">
        <ele>1730.3</ele>
        <time>2021-02-17T08:32:44Z</time>
      </trkpt>
      <trkpt lat="45.28037" lon="6.17014">
        <ele>1730.4</ele>
        <time>2021-02-17T08:32:45Z</time>
      </trkpt>
      <trkpt lat="45.28037" lon="6.17013">
        <ele>1730.5</ele>
        <time>2021-02-17T08:32:46Z</time>
      </trkpt>
      <trkpt lat="45.28037" lon="6.17012">
        <ele>1730.6</ele>
        <time>2021-02-17T08:32:47Z</time>
      </trkpt>
      <trkpt lat="45.28037" lon="6.17012">
        <ele>1730.7</ele>
        <time>2021-02-17T08:32:48Z</time>
      </trkpt>
      <trkpt lat="45.28037" lon="6.17011">
        <ele>1730.8</ele>
        <time>2021-02-17T08:32:49Z</time>
      </trkpt>
      <trkpt lat="45.28037" lon="6.1701">
        <ele>1730.8</ele>
        <time>2021-02-17T08:32:50Z</time>
      </trkpt>
      <trkpt lat="45.28037" lon="6.1701">
        <ele>1730.9</ele>
        <time>2021-02-17T08:32:51Z</time>
      </trkpt>
      <trkpt lat="45.28036" lon="6.17009">
        <ele>1731</ele>
        <time>2021-02-17T08:32:52Z</time>
      </trkpt>
      <trkpt lat="45.28036" lon="6.17009">
        <ele>1731</ele>
        <time>2021-02-17T08:32:53Z</time>
      </trkpt>
      <trkpt lat="45.28036" lon="6.17007">
        <ele>1731.2</ele>
        <time>2021-02-17T08:32:54Z</time>
      </trkpt>
      <trkpt lat="45.28036" lon="6.17006">
        <ele>1731.3</ele>
        <time>2021-02-17T08:32:55Z</time>
      </trkpt>
      <trkpt lat="45.28036" lon="6.17005">
        <ele>1731.4</ele>
        <time>2021-02-17T08:32:56Z</time>
      </trkpt>
      <trkpt lat="45.28036" lon="6.17005">
        <ele>1731.5</ele>
        <time>2021-02-17T08:32:57Z</time>
      </trkpt>
      <trkpt lat="45.28036" lon="6.17003">
        <ele>1731.6</ele>
        <time>2021-02-17T08:32:58Z</time>
      </trkpt>
      <trkpt lat="45.28036" lon="6.17002">
        <ele>1731.8</ele>
        <time>2021-02-17T08:32:59Z</time>
      </trkpt>
      <trkpt lat="45.28036" lon="6.17001">
        <ele>1731.9</ele>
        <time>2021-02-17T08:33:00Z</time>
      </trkpt>
      <trkpt lat="45.28036" lon="6.17001">
        <ele>1732</ele>
        <time>2021-02-17T08:33:01Z</time>
      </trkpt>
      <trkpt lat="45.28036" lon="6.17">
        <ele>1732</ele>
        <time>2021-02-17T08:33:02Z</time>
      </trkpt>
      <trkpt lat="45.28036" lon="6.16999">
        <ele>1732.1</ele>
        <time>2021-02-17T08:33:03Z</time>
      </trkpt>
      <trkpt lat="45.28036" lon="6.16999">
        <ele>1732.2</ele>
        <time>2021-02-17T08:33:04Z</time>
      </trkpt>
      <trkpt lat="45.28036" lon="6.16998">
        <ele>1732.3</ele>
        <time>2021-02-17T08:33:05Z</time>
      </trkpt>
      <trkpt lat="45.28036" lon="6.16997">
        <ele>1732.4</ele>
        <time>2021-02-17T08:33:06Z</time>
      </trkpt>
      <trkpt lat="45.28036" lon="6.16996">
        <ele>1732.5</ele>
        <time>2021-02-17T08:33:07Z</time>
      </trkpt>
      <trkpt lat="45.28037" lon="6.16996">
        <ele>1732.5</ele>
        <time>2021-02-17T08:33:08Z</time>
      </trkpt>
      <trkpt lat="45.28037" lon="6.16997">
        <ele>1732.6</ele>
        <time>2021-02-17T08:33:09Z</time>
      </trkpt>
      <trkpt lat="45.28042" lon="6.16964">
        <ele>1736.7</ele>
        <time>2021-02-17T08:33:56Z</time>
      </trkpt>
      <trkpt lat="45.28042" lon="6.16963">
        <ele>1736.9</ele>
        <time>2021-02-17T08:33:57Z</time>
      </trkpt>
      <trkpt lat="45.28042" lon="6.16962">
        <ele>1737</ele>
        <time>2021-02-17T08:33:58Z</time>
      </trkpt>
      <trkpt lat="45.28042" lon="6.1696">
        <ele>1737.2</ele>
        <time>2021-02-17T08:33:59Z</time>
      </trkpt>
      <trkpt lat="45.28042" lon="6.16958">
        <ele>1737.5</ele>
        <time>2021-02-17T08:34:00Z</time>
      </trkpt>
      <trkpt lat="45.28042" lon="6.16956">
        <ele>1737.8</ele>
        <time>2021-02-17T08:34:01Z</time>
      </trkpt>
      <trkpt lat="45.28042" lon="6.16955">
        <ele>1738</ele>
        <time>2021-02-17T08:34:02Z</time>
      </trkpt>
      <trkpt lat="45.28042" lon="6.16953">
        <ele>1738.1</ele>
        <time>2021-02-17T08:34:03Z</time>
      </trkpt>
      <trkpt lat="45.28042" lon="6.16952">
        <ele>1738.4</ele>
        <time>2021-02-17T08:34:04Z</time>
      </trkpt>
      <trkpt lat="45.28042" lon="6.1695">
        <ele>1738.6</ele>
        <time>2021-02-17T08:34:05Z</time>
      </trkpt>
      <trkpt lat="45.28042" lon="6.16949">
        <ele>1738.8</ele>
        <time>2021-02-17T08:34:06Z</time>
      </trkpt>
      <trkpt lat="45.28042" lon="6.16948">
        <ele>1739</ele>
        <time>2021-02-17T08:34:07Z</time>
      </trkpt>
      <trkpt lat="45.28043" lon="6.16947">
        <ele>1739.2</ele>
        <time>2021-02-17T08:34:08Z</time>
      </trkpt>
      <trkpt lat="45.28044" lon="6.16946">
        <ele>1739.4</ele>
        <time>2021-02-17T08:34:09Z</time>
      </trkpt>
      <trkpt lat="45.28045" lon="6.16945">
        <ele>1739.5</ele>
        <time>2021-02-17T08:34:10Z</time>
      </trkpt>
      <trkpt lat="45.28045" lon="6.16944">
        <ele>1739.7</ele>
        <time>2021-02-17T08:34:11Z</time>
      </trkpt>
      <trkpt lat="45.28046" lon="6.16943">
        <ele>1739.9</ele>
        <time>2021-02-17T08:34:12Z</time>
      </trkpt>
      <trkpt lat="45.28046" lon="6.16942">
        <ele>1740.1</ele>
        <time>2021-02-17T08:34:13Z</time>
      </trkpt>
      <trkpt lat="45.28046" lon="6.1694">
        <ele>1740.3</ele>
        <time>2021-02-17T08:34:14Z</time>
      </trkpt>
      <trkpt lat="45.28046" lon="6.16939">
        <ele>1740.5</ele>
        <time>2021-02-17T08:34:15Z</time>
      </trkpt>
      <trkpt lat="45.28046" lon="6.16938">
        <ele>1740.7</ele>
        <time>2021-02-17T08:34:16Z</time>
      </trkpt>
      <trkpt lat="45.28047" lon="6.16936">
        <ele>1741</ele>
        <time>2021-02-17T08:34:17Z</time>
      </trkpt>
      <trkpt lat="45.28047" lon="6.16936">
        <ele>1741.1</ele>
        <time>2021-02-17T08:34:18Z</time>
      </trkpt>
      <trkpt lat="45.28047" lon="6.16935">
        <ele>1741.2</ele>
        <time>2021-02-17T08:34:19Z</time>
      </trkpt>
      <trkpt lat="45.28047" lon="6.16934">
        <ele>1741.4</ele>
        <time>2021-02-17T08:34:20Z</time>
      </trkpt>
      <trkpt lat="45.28047" lon="6.16933">
        <ele>1741.5</ele>
        <time>2021-02-17T08:34:21Z</time>
      </trkpt>
      <trkpt lat="45.28047" lon="6.16933">
        <ele>1741.6</ele>
        <time>2021-02-17T08:34:22Z</time>
      </trkpt>
      <trkpt lat="45.28047" lon="6.16932">
        <ele>1741.7</ele>
        <time>2021-02-17T08:34:23Z</time>
      </trkpt>
      <trkpt lat="45.28047" lon="6.16931">
        <ele>1741.8</ele>
        <time>2021-02-17T08:34:24Z</time>
      </trkpt>
      <trkpt lat="45.28047" lon="6.16931">
        <ele>1741.9</ele>
        <time>2021-02-17T08:34:25Z</time>
      </trkpt>
      <trkpt lat="45.28047" lon="6.1693">
        <ele>1742</ele>
        <time>2021-02-17T08:34:26Z</time>
      </trkpt>
      <trkpt lat="45.28047" lon="6.1693">
        <ele>1742.1</ele>
        <time>2021-02-17T08:34:27Z</time>
      </trkpt>
      <trkpt lat="45.28048" lon="6.16915">
        <ele>1744.3</ele>
        <time>2021-02-17T08:34:43Z</time>
      </trkpt>
      <trkpt lat="45.28049" lon="6.16914">
        <ele>1744.4</ele>
        <time>2021-02-17T08:34:44Z</time>
      </trkpt>
      <trkpt lat="45.28049" lon="6.16914">
        <ele>1744.6</ele>
        <time>2021-02-17T08:34:45Z</time>
      </trkpt>
      <trkpt lat="45.2805" lon="6.16913">
        <ele>1744.7</ele>
        <time>2021-02-17T08:34:46Z</time>
      </trkpt>
      <trkpt lat="45.2805" lon="6.16912">
        <ele>1744.9</ele>
        <time>2021-02-17T08:34:47Z</time>
      </trkpt>
      <trkpt lat="45.28051" lon="6.16912">
        <ele>1745.1</ele>
        <time>2021-02-17T08:34:48Z</time>
      </trkpt>
      <trkpt lat="45.28052" lon="6.16911">
        <ele>1745.3</ele>
        <time>2021-02-17T08:34:49Z</time>
      </trkpt>
      <trkpt lat="45.28053" lon="6.1691">
        <ele>1745.4</ele>
        <time>2021-02-17T08:34:50Z</time>
      </trkpt>
      <trkpt lat="45.28053" lon="6.16909">
        <ele>1745.6</ele>
        <time>2021-02-17T08:34:51Z</time>
      </trkpt>
      <trkpt lat="45.28054" lon="6.16908">
        <ele>1745.8</ele>
        <time>2021-02-17T08:34:52Z</time>
      </trkpt>
      <trkpt lat="45.28054" lon="6.16907">
        <ele>1746</ele>
        <time>2021-02-17T08:34:53Z</time>
      </trkpt>
      <trkpt lat="45.28054" lon="6.16906">
        <ele>1746.2</ele>
        <time>2021-02-17T08:34:54Z</time>
      </trkpt>
      <trkpt lat="45.28055" lon="6.16905">
        <ele>1746.3</ele>
        <time>2021-02-17T08:34:55Z</time>
      </trkpt>
      <trkpt lat="45.28055" lon="6.16904">
        <ele>1746.5</ele>
        <time>2021-02-17T08:34:56Z</time>
      </trkpt>
      <trkpt lat="45.28056" lon="6.16903">
        <ele>1746.6</ele>
        <time>2021-02-17T08:34:57Z</time>
      </trkpt>
      <trkpt lat="45.28056" lon="6.16903">
        <ele>1746.7</ele>
        <time>2021-02-17T08:34:58Z</time>
      </trkpt>
      <trkpt lat="45.28056" lon="6.16902">
        <ele>1746.8</ele>
        <time>2021-02-17T08:34:59Z</time>
      </trkpt>
      <trkpt lat="45.28057" lon="6.16901">
        <ele>1747</ele>
        <time>2021-02-17T08:35:00Z</time>
      </trkpt>
      <trkpt lat="45.28057" lon="6.169">
        <ele>1747.1</ele>
        <time>2021-02-17T08:35:01Z</time>
      </trkpt>
      <trkpt lat="45.28057" lon="6.169">
        <ele>1747.2</ele>
        <time>2021-02-17T08:35:02Z</time>
      </trkpt>
      <trkpt lat="45.28057" lon="6.16899">
        <ele>1747.3</ele>
        <time>2021-02-17T08:35:03Z</time>
      </trkpt>
      <trkpt lat="45.28058" lon="6.16898">
        <ele>1747.5</ele>
        <time>2021-02-17T08:35:04Z</time>
      </trkpt>
      <trkpt lat="45.28058" lon="6.16897">
        <ele>1747.6</ele>
        <time>2021-02-17T08:35:05Z</time>
      </trkpt>
      <trkpt lat="45.28058" lon="6.16896">
        <ele>1747.8</ele>
        <time>2021-02-17T08:35:06Z</time>
      </trkpt>
      <trkpt lat="45.28058" lon="6.16895">
        <ele>1748</ele>
        <time>2021-02-17T08:35:07Z</time>
      </trkpt>
      <trkpt lat="45.28058" lon="6.16894">
        <ele>1748.1</ele>
        <time>2021-02-17T08:35:08Z</time>
      </trkpt>
      <trkpt lat="45.28058" lon="6.16893">
        <ele>1748.2</ele>
        <time>2021-02-17T08:35:09Z</time>
      </trkpt>
      <trkpt lat="45.28058" lon="6.16891">
        <ele>1748.4</ele>
        <time>2021-02-17T08:35:10Z</time>
      </trkpt>
      <trkpt lat="45.28058" lon="6.1689">
        <ele>1748.6</ele>
        <time>2021-02-17T08:35:11Z</time>
      </trkpt>
      <trkpt lat="45.28058" lon="6.16889">
        <ele>1748.7</ele>
        <time>2021-02-17T08:35:12Z</time>
      </trkpt>
      <trkpt lat="45.28058" lon="6.16888">
        <ele>1748.9</ele>
        <time>2021-02-17T08:35:13Z</time>
      </trkpt>
      <trkpt lat="45.28058" lon="6.16887">
        <ele>1749</ele>
        <time>2021-02-17T08:35:14Z</time>
      </trkpt>
      <trkpt lat="45.28059" lon="6.16887">
        <ele>1749.1</ele>
        <time>2021-02-17T08:35:15Z</time>
      </trkpt>
      <trkpt lat="45.28059" lon="6.16886">
        <ele>1749.3</ele>
        <time>2021-02-17T08:35:16Z</time>
      </trkpt>
      <trkpt lat="45.28059" lon="6.16885">
        <ele>1749.4</ele>
        <time>2021-02-17T08:35:17Z</time>
      </trkpt>
      <trkpt lat="45.28059" lon="6.16884">
        <ele>1749.5</ele>
        <time>2021-02-17T08:35:18Z</time>
      </trkpt>
      <trkpt lat="45.28059" lon="6.16883">
        <ele>1749.7</ele>
        <time>2021-02-17T08:35:19Z</time>
      </trkpt>
      <trkpt lat="45.2806" lon="6.16881">
        <ele>1749.9</ele>
        <time>2021-02-17T08:35:20Z</time>
      </trkpt>
      <trkpt lat="45.2806" lon="6.1688">
        <ele>1750.2</ele>
        <time>2021-02-17T08:35:21Z</time>
      </trkpt>
      <trkpt lat="45.28061" lon="6.16879">
        <ele>1750.3</ele>
        <time>2021-02-17T08:35:22Z</time>
      </trkpt>
      <trkpt lat="45.28061" lon="6.16879">
        <ele>1750.4</ele>
        <time>2021-02-17T08:35:23Z</time>
      </trkpt>
      <trkpt lat="45.28061" lon="6.16878">
        <ele>1750.6</ele>
        <time>2021-02-17T08:35:24Z</time>
      </trkpt>
      <trkpt lat="45.28061" lon="6.16877">
        <ele>1750.7</ele>
        <time>2021-02-17T08:35:25Z</time>
      </trkpt>
      <trkpt lat="45.28061" lon="6.16876">
        <ele>1750.8</ele>
        <time>2021-02-17T08:35:26Z</time>
      </trkpt>
      <trkpt lat="45.28061" lon="6.16876">
        <ele>1750.9</ele>
        <time>2021-02-17T08:35:27Z</time>
      </trkpt>
      <trkpt lat="45.28062" lon="6.16875">
        <ele>1751</ele>
        <time>2021-02-17T08:35:28Z</time>
      </trkpt>
      <trkpt lat="45.28062" lon="6.16874">
        <ele>1751.2</ele>
        <time>2021-02-17T08:35:29Z</time>
      </trkpt>
      <trkpt lat="45.28062" lon="6.16873">
        <ele>1751.3</ele>
        <time>2021-02-17T08:35:30Z</time>
      </trkpt>
      <trkpt lat="45.28063" lon="6.16872">
        <ele>1751.5</ele>
        <time>2021-02-17T08:35:31Z</time>
      </trkpt>
      <trkpt lat="45.28063" lon="6.16871">
        <ele>1751.6</ele>
        <time>2021-02-17T08:35:32Z</time>
      </trkpt>
      <trkpt lat="45.28063" lon="6.1687">
        <ele>1751.8</ele>
        <time>2021-02-17T08:35:33Z</time>
      </trkpt>
      <trkpt lat="45.28063" lon="6.16869">
        <ele>1752.1</ele>
        <time>2021-02-17T08:35:34Z</time>
      </trkpt>
      <trkpt lat="45.28063" lon="6.16867">
        <ele>1752.3</ele>
        <time>2021-02-17T08:35:35Z</time>
      </trkpt>
      <trkpt lat="45.28063" lon="6.16866">
        <ele>1752.4</ele>
        <time>2021-02-17T08:35:36Z</time>
      </trkpt>
      <trkpt lat="45.28063" lon="6.16866">
        <ele>1752.6</ele>
        <time>2021-02-17T08:35:37Z</time>
      </trkpt>
      <trkpt lat="45.28064" lon="6.16865">
        <ele>1752.8</ele>
        <time>2021-02-17T08:35:38Z</time>
      </trkpt>
      <trkpt lat="45.28064" lon="6.16864">
        <ele>1752.9</ele>
        <time>2021-02-17T08:35:39Z</time>
      </trkpt>
      <trkpt lat="45.28064" lon="6.16863">
        <ele>1753</ele>
        <time>2021-02-17T08:35:40Z</time>
      </trkpt>
      <trkpt lat="45.28064" lon="6.16862">
        <ele>1753.2</ele>
        <time>2021-02-17T08:35:41Z</time>
      </trkpt>
      <trkpt lat="45.28064" lon="6.16861">
        <ele>1753.3</ele>
        <time>2021-02-17T08:35:42Z</time>
      </trkpt>
      <trkpt lat="45.28064" lon="6.1686">
        <ele>1753.5</ele>
        <time>2021-02-17T08:35:43Z</time>
      </trkpt>
      <trkpt lat="45.28064" lon="6.16859">
        <ele>1753.6</ele>
        <time>2021-02-17T08:35:44Z</time>
      </trkpt>
      <trkpt lat="45.28064" lon="6.16859">
        <ele>1753.7</ele>
        <time>2021-02-17T08:35:45Z</time>
      </trkpt>
      <trkpt lat="45.28065" lon="6.16858">
        <ele>1753.9</ele>
        <time>2021-02-17T08:35:46Z</time>
      </trkpt>
      <trkpt lat="45.28065" lon="6.16858">
        <ele>1754</ele>
        <time>2021-02-17T08:35:47Z</time>
      </trkpt>
      <trkpt lat="45.28065" lon="6.16857">
        <ele>1754.1</ele>
        <time>2021-02-17T08:35:48Z</time>
      </trkpt>
      <trkpt lat="45.28065" lon="6.16856">
        <ele>1754.2</ele>
        <time>2021-02-17T08:35:49Z</time>
      </trkpt>
      <trkpt lat="45.28065" lon="6.16855">
        <ele>1754.4</ele>
        <time>2021-02-17T08:35:50Z</time>
      </trkpt>
      <trkpt lat="45.28066" lon="6.16854">
        <ele>1754.6</ele>
        <time>2021-02-17T08:35:51Z</time>
      </trkpt>
      <trkpt lat="45.28066" lon="6.16852">
        <ele>1754.8</ele>
        <time>2021-02-17T08:35:52Z</time>
      </trkpt>
      <trkpt lat="45.28066" lon="6.16849">
        <ele>1755.3</ele>
        <time>2021-02-17T08:35:53Z</time>
      </trkpt>
      <trkpt lat="45.28067" lon="6.16848">
        <ele>1755.5</ele>
        <time>2021-02-17T08:35:54Z</time>
      </trkpt>
      <trkpt lat="45.28067" lon="6.16847">
        <ele>1755.7</ele>
        <time>2021-02-17T08:35:55Z</time>
      </trkpt>
      <trkpt lat="45.28067" lon="6.16845">
        <ele>1755.9</ele>
        <time>2021-02-17T08:35:56Z</time>
      </trkpt>
      <trkpt lat="45.28067" lon="6.16844">
        <ele>1756.1</ele>
        <time>2021-02-17T08:35:57Z</time>
      </trkpt>
      <trkpt lat="45.28068" lon="6.16843">
        <ele>1756.3</ele>
        <time>2021-02-17T08:35:58Z</time>
      </trkpt>
      <trkpt lat="45.28068" lon="6.16842">
        <ele>1756.5</ele>
        <time>2021-02-17T08:35:59Z</time>
      </trkpt>
      <trkpt lat="45.28068" lon="6.16841">
        <ele>1756.6</ele>
        <time>2021-02-17T08:36:00Z</time>
      </trkpt>
      <trkpt lat="45.28068" lon="6.1684">
        <ele>1756.8</ele>
        <time>2021-02-17T08:36:01Z</time>
      </trkpt>
      <trkpt lat="45.28068" lon="6.16839">
        <ele>1756.9</ele>
        <time>2021-02-17T08:36:02Z</time>
      </trkpt>
      <trkpt lat="45.28068" lon="6.16838">
        <ele>1757.1</ele>
        <time>2021-02-17T08:36:03Z</time>
      </trkpt>
      <trkpt lat="45.28068" lon="6.16837">
        <ele>1757.3</ele>
        <time>2021-02-17T08:36:04Z</time>
      </trkpt>
      <trkpt lat="45.28068" lon="6.16835">
        <ele>1757.5</ele>
        <time>2021-02-17T08:36:05Z</time>
      </trkpt>
      <trkpt lat="45.28068" lon="6.16834">
        <ele>1757.7</ele>
        <time>2021-02-17T08:36:06Z</time>
      </trkpt>
      <trkpt lat="45.28069" lon="6.16833">
        <ele>1758</ele>
        <time>2021-02-17T08:36:07Z</time>
      </trkpt>
      <trkpt lat="45.2807" lon="6.16831">
        <ele>1758.2</ele>
        <time>2021-02-17T08:36:08Z</time>
      </trkpt>
      <trkpt lat="45.2807" lon="6.16831">
        <ele>1758.4</ele>
        <time>2021-02-17T08:36:09Z</time>
      </trkpt>
      <trkpt lat="45.2807" lon="6.1683">
        <ele>1758.4</ele>
        <time>2021-02-17T08:36:10Z</time>
      </trkpt>
      <trkpt lat="45.2807" lon="6.1683">
        <ele>1758.4</ele>
        <time>2021-02-17T08:36:11Z</time>
      </trkpt>
      <trkpt lat="45.28071" lon="6.16831">
        <ele>1758.6</ele>
        <time>2021-02-17T08:36:12Z</time>
      </trkpt>
      <trkpt lat="45.28072" lon="6.16831">
        <ele>1758.8</ele>
        <time>2021-02-17T08:36:13Z</time>
      </trkpt>
      <trkpt lat="45.28072" lon="6.16831">
        <ele>1758.9</ele>
        <time>2021-02-17T08:36:14Z</time>
      </trkpt>
      <trkpt lat="45.28073" lon="6.16832">
        <ele>1759</ele>
        <time>2021-02-17T08:36:15Z</time>
      </trkpt>
      <trkpt lat="45.28073" lon="6.16832">
        <ele>1759.2</ele>
        <time>2021-02-17T08:36:16Z</time>
      </trkpt>
      <trkpt lat="45.28074" lon="6.16833">
        <ele>1759.3</ele>
        <time>2021-02-17T08:36:17Z</time>
      </trkpt>
      <trkpt lat="45.28074" lon="6.16834">
        <ele>1759.4</ele>
        <time>2021-02-17T08:36:18Z</time>
      </trkpt>
      <trkpt lat="45.28074" lon="6.16834">
        <ele>1759.5</ele>
        <time>2021-02-17T08:36:19Z</time>
      </trkpt>
      <trkpt lat="45.28081" lon="6.16845">
        <ele>1761.8</ele>
        <time>2021-02-17T08:36:38Z</time>
      </trkpt>
      <trkpt lat="45.28081" lon="6.16846">
        <ele>1762</ele>
        <time>2021-02-17T08:36:39Z</time>
      </trkpt>
      <trkpt lat="45.28082" lon="6.16846">
        <ele>1762.1</ele>
        <time>2021-02-17T08:36:40Z</time>
      </trkpt>
      <trkpt lat="45.28082" lon="6.16846">
        <ele>1762.1</ele>
        <time>2021-02-17T08:36:41Z</time>
      </trkpt>
      <trkpt lat="45.28083" lon="6.16846">
        <ele>1762.3</ele>
        <time>2021-02-17T08:36:42Z</time>
      </trkpt>
      <trkpt lat="45.28083" lon="6.16847">
        <ele>1762.4</ele>
        <time>2021-02-17T08:36:43Z</time>
      </trkpt>
      <trkpt lat="45.28084" lon="6.16847">
        <ele>1762.6</ele>
        <time>2021-02-17T08:36:44Z</time>
      </trkpt>
      <trkpt lat="45.28084" lon="6.16848">
        <ele>1762.8</ele>
        <time>2021-02-17T08:36:45Z</time>
      </trkpt>
      <trkpt lat="45.28085" lon="6.16849">
        <ele>1762.9</ele>
        <time>2021-02-17T08:36:46Z</time>
      </trkpt>
      <trkpt lat="45.28085" lon="6.1685">
        <ele>1763.1</ele>
        <time>2021-02-17T08:36:47Z</time>
      </trkpt>
      <trkpt lat="45.28086" lon="6.1685">
        <ele>1763.3</ele>
        <time>2021-02-17T08:36:48Z</time>
      </trkpt>
      <trkpt lat="45.28086" lon="6.16851">
        <ele>1763.4</ele>
        <time>2021-02-17T08:36:49Z</time>
      </trkpt>
      <trkpt lat="45.28087" lon="6.16852">
        <ele>1763.6</ele>
        <time>2021-02-17T08:36:50Z</time>
      </trkpt>
      <trkpt lat="45.28087" lon="6.16852">
        <ele>1763.7</ele>
        <time>2021-02-17T08:36:51Z</time>
      </trkpt>
      <trkpt lat="45.28087" lon="6.16853">
        <ele>1763.9</ele>
        <time>2021-02-17T08:36:52Z</time>
      </trkpt>
      <trkpt lat="45.28088" lon="6.16854">
        <ele>1764.1</ele>
        <time>2021-02-17T08:36:53Z</time>
      </trkpt>
      <trkpt lat="45.28089" lon="6.16855">
        <ele>1764.2</ele>
        <time>2021-02-17T08:36:54Z</time>
      </trkpt>
      <trkpt lat="45.28089" lon="6.16855">
        <ele>1764.3</ele>
        <time>2021-02-17T08:36:55Z</time>
      </trkpt>
      <trkpt lat="45.28089" lon="6.16855">
        <ele>1764.3</ele>
        <time>2021-02-17T08:36:56Z</time>
      </trkpt>
      <trkpt lat="45.28089" lon="6.16855">
        <ele>1764.4</ele>
        <time>2021-02-17T08:36:57Z</time>
      </trkpt>
      <trkpt lat="45.2809" lon="6.16854">
        <ele>1764.6</ele>
        <time>2021-02-17T08:36:58Z</time>
      </trkpt>
      <trkpt lat="45.2809" lon="6.16853">
        <ele>1764.8</ele>
        <time>2021-02-17T08:36:59Z</time>
      </trkpt>
      <trkpt lat="45.28091" lon="6.16853">
        <ele>1764.9</ele>
        <time>2021-02-17T08:37:00Z</time>
      </trkpt>
      <trkpt lat="45.28091" lon="6.16853">
        <ele>1765</ele>
        <time>2021-02-17T08:37:01Z</time>
      </trkpt>
      <trkpt lat="45.28092" lon="6.16852">
        <ele>1765.1</ele>
        <time>2021-02-17T08:37:02Z</time>
      </trkpt>
      <trkpt lat="45.28092" lon="6.16851">
        <ele>1765.3</ele>
        <time>2021-02-17T08:37:03Z</time>
      </trkpt>
      <trkpt lat="45.28093" lon="6.16851">
        <ele>1765.4</ele>
        <time>2021-02-17T08:37:04Z</time>
      </trkpt>
      <trkpt lat="45.28093" lon="6.1685">
        <ele>1765.6</ele>
        <time>2021-02-17T08:37:05Z</time>
      </trkpt>
      <trkpt lat="45.28094" lon="6.16849">
        <ele>1765.8</ele>
        <time>2021-02-17T08:37:06Z</time>
      </trkpt>
      <trkpt lat="45.28094" lon="6.16848">
        <ele>1766</ele>
        <time>2021-02-17T08:37:07Z</time>
      </trkpt>
      <trkpt lat="45.28095" lon="6.16847">
        <ele>1766.2</ele>
        <time>2021-02-17T08:37:08Z</time>
      </trkpt>
      <trkpt lat="45.28095" lon="6.16846">
        <ele>1766.3</ele>
        <time>2021-02-17T08:37:09Z</time>
      </trkpt>
      <trkpt lat="45.28095" lon="6.16846">
        <ele>1766.4</ele>
        <time>2021-02-17T08:37:10Z</time>
      </trkpt>
      <trkpt lat="45.28096" lon="6.16845">
        <ele>1766.6</ele>
        <time>2021-02-17T08:37:11Z</time>
      </trkpt>
      <trkpt lat="45.28096" lon="6.16844">
        <ele>1766.7</ele>
        <time>2021-02-17T08:37:12Z</time>
      </trkpt>
      <trkpt lat="45.28097" lon="6.16843">
        <ele>1766.8</ele>
        <time>2021-02-17T08:37:13Z</time>
      </trkpt>
      <trkpt lat="45.28097" lon="6.16843">
        <ele>1767</ele>
        <time>2021-02-17T08:37:14Z</time>
      </trkpt>
      <trkpt lat="45.28097" lon="6.16842">
        <ele>1767.1</ele>
        <time>2021-02-17T08:37:15Z</time>
      </trkpt>
      <trkpt lat="45.28098" lon="6.16842">
        <ele>1767.2</ele>
        <time>2021-02-17T08:37:16Z</time>
      </trkpt>
      <trkpt lat="45.28098" lon="6.16842">
        <ele>1767.2</ele>
        <time>2021-02-17T08:37:17Z</time>
      </trkpt>
      <trkpt lat="45.28098" lon="6.16841">
        <ele>1767.3</ele>
        <time>2021-02-17T08:37:18Z</time>
      </trkpt>
      <trkpt lat="45.28098" lon="6.1684">
        <ele>1767.4</ele>
        <time>2021-02-17T08:37:19Z</time>
      </trkpt>
      <trkpt lat="45.28099" lon="6.16839">
        <ele>1767.6</ele>
        <time>2021-02-17T08:37:20Z</time>
      </trkpt>
      <trkpt lat="45.281" lon="6.16839">
        <ele>1767.7</ele>
        <time>2021-02-17T08:37:21Z</time>
      </trkpt>
      <trkpt lat="45.281" lon="6.16838">
        <ele>1767.9</ele>
        <time>2021-02-17T08:37:22Z</time>
      </trkpt>
      <trkpt lat="45.28101" lon="6.16838">
        <ele>1768.1</ele>
        <time>2021-02-17T08:37:23Z</time>
      </trkpt>
      <trkpt lat="45.28102" lon="6.16837">
        <ele>1768.2</ele>
        <time>2021-02-17T08:37:24Z</time>
      </trkpt>
      <trkpt lat="45.28103" lon="6.16836">
        <ele>1768.5</ele>
        <time>2021-02-17T08:37:25Z</time>
      </trkpt>
      <trkpt lat="45.28103" lon="6.16835">
        <ele>1768.6</ele>
        <time>2021-02-17T08:37:26Z</time>
      </trkpt>
      <trkpt lat="45.28104" lon="6.16835">
        <ele>1768.7</ele>
        <time>2021-02-17T08:37:27Z</time>
      </trkpt>
      <trkpt lat="45.28104" lon="6.16834">
        <ele>1768.8</ele>
        <time>2021-02-17T08:37:28Z</time>
      </trkpt>
      <trkpt lat="45.28104" lon="6.16833">
        <ele>1769</ele>
        <time>2021-02-17T08:37:29Z</time>
      </trkpt>
      <trkpt lat="45.28104" lon="6.16832">
        <ele>1769.1</ele>
        <time>2021-02-17T08:37:30Z</time>
      </trkpt>
      <trkpt lat="45.28104" lon="6.16831">
        <ele>1769.2</ele>
        <time>2021-02-17T08:37:31Z</time>
      </trkpt>
      <trkpt lat="45.28104" lon="6.16831">
        <ele>1769.3</ele>
        <time>2021-02-17T08:37:32Z</time>
      </trkpt>
      <trkpt lat="45.28105" lon="6.1683">
        <ele>1769.4</ele>
        <time>2021-02-17T08:37:33Z</time>
      </trkpt>
      <trkpt lat="45.28105" lon="6.16829">
        <ele>1769.6</ele>
        <time>2021-02-17T08:37:34Z</time>
      </trkpt>
      <trkpt lat="45.28105" lon="6.16828">
        <ele>1769.7</ele>
        <time>2021-02-17T08:37:35Z</time>
      </trkpt>
      <trkpt lat="45.28105" lon="6.16827">
        <ele>1769.9</ele>
        <time>2021-02-17T08:37:36Z</time>
      </trkpt>
      <trkpt lat="45.28105" lon="6.16827">
        <ele>1770</ele>
        <time>2021-02-17T08:37:37Z</time>
      </trkpt>
      <trkpt lat="45.28105" lon="6.16826">
        <ele>1770.1</ele>
        <time>2021-02-17T08:37:38Z</time>
      </trkpt>
      <trkpt lat="45.28105" lon="6.16825">
        <ele>1770.2</ele>
        <time>2021-02-17T08:37:39Z</time>
      </trkpt>
      <trkpt lat="45.28105" lon="6.16825">
        <ele>1770.3</ele>
        <time>2021-02-17T08:37:40Z</time>
      </trkpt>
      <trkpt lat="45.28105" lon="6.16824">
        <ele>1770.4</ele>
        <time>2021-02-17T08:37:41Z</time>
      </trkpt>
      <trkpt lat="45.28105" lon="6.16824">
        <ele>1770.6</ele>
        <time>2021-02-17T08:37:42Z</time>
      </trkpt>
      <trkpt lat="45.28105" lon="6.16823">
        <ele>1770.7</ele>
        <time>2021-02-17T08:37:43Z</time>
      </trkpt>
      <trkpt lat="45.28105" lon="6.16822">
        <ele>1770.9</ele>
        <time>2021-02-17T08:37:44Z</time>
      </trkpt>
      <trkpt lat="45.28105" lon="6.16821">
        <ele>1771</ele>
        <time>2021-02-17T08:37:45Z</time>
      </trkpt>
      <trkpt lat="45.28107" lon="6.16818">
        <ele>1771.9</ele>
        <time>2021-02-17T08:37:50Z</time>
      </trkpt>
      <trkpt lat="45.28108" lon="6.16818">
        <ele>1772</ele>
        <time>2021-02-17T08:37:51Z</time>
      </trkpt>
      <trkpt lat="45.28108" lon="6.16818">
        <ele>1772.1</ele>
        <time>2021-02-17T08:37:52Z</time>
      </trkpt>
      <trkpt lat="45.28108" lon="6.16817">
        <ele>1772.2</ele>
        <time>2021-02-17T08:37:53Z</time>
      </trkpt>
      <trkpt lat="45.28108" lon="6.16816">
        <ele>1772.4</ele>
        <time>2021-02-17T08:37:54Z</time>
      </trkpt>
      <trkpt lat="45.28108" lon="6.16816">
        <ele>1772.4</ele>
        <time>2021-02-17T08:37:55Z</time>
      </trkpt>
      <trkpt lat="45.28109" lon="6.16816">
        <ele>1772.5</ele>
        <time>2021-02-17T08:37:56Z</time>
      </trkpt>
      <trkpt lat="45.28109" lon="6.16815">
        <ele>1772.7</ele>
        <time>2021-02-17T08:37:57Z</time>
      </trkpt>
      <trkpt lat="45.2811" lon="6.16814">
        <ele>1772.9</ele>
        <time>2021-02-17T08:37:58Z</time>
      </trkpt>
      <trkpt lat="45.2811" lon="6.16814">
        <ele>1773</ele>
        <time>2021-02-17T08:37:59Z</time>
      </trkpt>
      <trkpt lat="45.28114" lon="6.16808">
        <ele>1774.3</ele>
        <time>2021-02-17T08:38:08Z</time>
      </trkpt>
      <trkpt lat="45.28114" lon="6.16808">
        <ele>1774.5</ele>
        <time>2021-02-17T08:38:09Z</time>
      </trkpt>
      <trkpt lat="45.28115" lon="6.16807">
        <ele>1774.6</ele>
        <time>2021-02-17T08:38:10Z</time>
      </trkpt>
      <trkpt lat="45.28115" lon="6.16807">
        <ele>1774.7</ele>
        <time>2021-02-17T08:38:11Z</time>
      </trkpt>
      <trkpt lat="45.28115" lon="6.16807">
        <ele>1774.9</ele>
        <time>2021-02-17T08:38:12Z</time>
      </trkpt>
      <trkpt lat="45.28115" lon="6.16807">
        <ele>1774.9</ele>
        <time>2021-02-17T08:38:13Z</time>
      </trkpt>
      <trkpt lat="45.28115" lon="6.16806">
        <ele>1775</ele>
        <time>2021-02-17T08:38:14Z</time>
      </trkpt>
      <trkpt lat="45.28116" lon="6.16805">
        <ele>1775.1</ele>
        <time>2021-02-17T08:38:15Z</time>
      </trkpt>
      <trkpt lat="45.28116" lon="6.16805">
        <ele>1775.1</ele>
        <time>2021-02-17T08:38:16Z</time>
      </trkpt>
      <trkpt lat="45.28116" lon="6.16804">
        <ele>1775.2</ele>
        <time>2021-02-17T08:38:17Z</time>
      </trkpt>
      <trkpt lat="45.28116" lon="6.16804">
        <ele>1775.3</ele>
        <time>2021-02-17T08:38:18Z</time>
      </trkpt>
      <trkpt lat="45.28116" lon="6.16804">
        <ele>1775.4</ele>
        <time>2021-02-17T08:38:19Z</time>
      </trkpt>
      <trkpt lat="45.28117" lon="6.16804">
        <ele>1775.5</ele>
        <time>2021-02-17T08:38:20Z</time>
      </trkpt>
      <trkpt lat="45.28117" lon="6.16804">
        <ele>1775.5</ele>
        <time>2021-02-17T08:38:21Z</time>
      </trkpt>
      <trkpt lat="45.28119" lon="6.16799">
        <ele>1776.5</ele>
        <time>2021-02-17T08:38:29Z</time>
      </trkpt>
      <trkpt lat="45.28119" lon="6.16798">
        <ele>1776.6</ele>
        <time>2021-02-17T08:38:30Z</time>
      </trkpt>
      <trkpt lat="45.28119" lon="6.16797">
        <ele>1776.8</ele>
        <time>2021-02-17T08:38:31Z</time>
      </trkpt>
      <trkpt lat="45.28119" lon="6.16796">
        <ele>1777</ele>
        <time>2021-02-17T08:38:32Z</time>
      </trkpt>
      <trkpt lat="45.28119" lon="6.16796">
        <ele>1777.1</ele>
        <time>2021-02-17T08:38:33Z</time>
      </trkpt>
      <trkpt lat="45.28119" lon="6.16795">
        <ele>1777.3</ele>
        <time>2021-02-17T08:38:34Z</time>
      </trkpt>
      <trkpt lat="45.28119" lon="6.16793">
        <ele>1777.5</ele>
        <time>2021-02-17T08:38:35Z</time>
      </trkpt>
      <trkpt lat="45.28119" lon="6.16792">
        <ele>1777.8</ele>
        <time>2021-02-17T08:38:36Z</time>
      </trkpt>
      <trkpt lat="45.28118" lon="6.16791">
        <ele>1777.9</ele>
        <time>2021-02-17T08:38:37Z</time>
      </trkpt>
      <trkpt lat="45.28118" lon="6.1679">
        <ele>1778.1</ele>
        <time>2021-02-17T08:38:38Z</time>
      </trkpt>
      <trkpt lat="45.28118" lon="6.1679">
        <ele>1778.2</ele>
        <time>2021-02-17T08:38:39Z</time>
      </trkpt>
      <trkpt lat="45.28118" lon="6.16789">
        <ele>1778.4</ele>
        <time>2021-02-17T08:38:40Z</time>
      </trkpt>
      <trkpt lat="45.28118" lon="6.16788">
        <ele>1778.4</ele>
        <time>2021-02-17T08:38:41Z</time>
      </trkpt>
      <trkpt lat="45.28117" lon="6.16788">
        <ele>1778.5</ele>
        <time>2021-02-17T08:38:42Z</time>
      </trkpt>
      <trkpt lat="45.28117" lon="6.16788">
        <ele>1778.6</ele>
        <time>2021-02-17T08:38:43Z</time>
      </trkpt>
      <trkpt lat="45.28117" lon="6.16787">
        <ele>1778.6</ele>
        <time>2021-02-17T08:38:44Z</time>
      </trkpt>
      <trkpt lat="45.28117" lon="6.16787">
        <ele>1778.8</ele>
        <time>2021-02-17T08:38:45Z</time>
      </trkpt>
      <trkpt lat="45.28117" lon="6.16786">
        <ele>1778.9</ele>
        <time>2021-02-17T08:38:46Z</time>
      </trkpt>
      <trkpt lat="45.28117" lon="6.16785">
        <ele>1779</ele>
        <time>2021-02-17T08:38:47Z</time>
      </trkpt>
      <trkpt lat="45.28117" lon="6.16785">
        <ele>1779.1</ele>
        <time>2021-02-17T08:38:48Z</time>
      </trkpt>
      <trkpt lat="45.28117" lon="6.16784">
        <ele>1779.2</ele>
        <time>2021-02-17T08:38:49Z</time>
      </trkpt>
      <trkpt lat="45.28117" lon="6.16783">
        <ele>1779.3</ele>
        <time>2021-02-17T08:38:50Z</time>
      </trkpt>
      <trkpt lat="45.28115" lon="6.16778">
        <ele>1780.2</ele>
        <time>2021-02-17T08:38:55Z</time>
      </trkpt>
      <trkpt lat="45.28115" lon="6.16777">
        <ele>1780.5</ele>
        <time>2021-02-17T08:38:56Z</time>
      </trkpt>
      <trkpt lat="45.28115" lon="6.16776">
        <ele>1780.6</ele>
        <time>2021-02-17T08:38:57Z</time>
      </trkpt>
      <trkpt lat="45.28115" lon="6.16774">
        <ele>1780.8</ele>
        <time>2021-02-17T08:38:58Z</time>
      </trkpt>
      <trkpt lat="45.28114" lon="6.16773">
        <ele>1781</ele>
        <time>2021-02-17T08:38:59Z</time>
      </trkpt>
      <trkpt lat="45.28114" lon="6.16772">
        <ele>1781.2</ele>
        <time>2021-02-17T08:39:00Z</time>
      </trkpt>
      <trkpt lat="45.28114" lon="6.1677">
        <ele>1781.5</ele>
        <time>2021-02-17T08:39:01Z</time>
      </trkpt>
      <trkpt lat="45.28113" lon="6.16768">
        <ele>1781.8</ele>
        <time>2021-02-17T08:39:02Z</time>
      </trkpt>
      <trkpt lat="45.28113" lon="6.16765">
        <ele>1782.2</ele>
        <time>2021-02-17T08:39:03Z</time>
      </trkpt>
      <trkpt lat="45.28113" lon="6.16764">
        <ele>1782.3</ele>
        <time>2021-02-17T08:39:04Z</time>
      </trkpt>
      <trkpt lat="45.28113" lon="6.16763">
        <ele>1782.5</ele>
        <time>2021-02-17T08:39:05Z</time>
      </trkpt>
      <trkpt lat="45.28113" lon="6.16761">
        <ele>1782.7</ele>
        <time>2021-02-17T08:39:06Z</time>
      </trkpt>
      <trkpt lat="45.28112" lon="6.1676">
        <ele>1782.8</ele>
        <time>2021-02-17T08:39:07Z</time>
      </trkpt>
      <trkpt lat="45.28112" lon="6.16759">
        <ele>1783</ele>
        <time>2021-02-17T08:39:08Z</time>
      </trkpt>
      <trkpt lat="45.28112" lon="6.16758">
        <ele>1783.1</ele>
        <time>2021-02-17T08:39:09Z</time>
      </trkpt>
      <trkpt lat="45.28112" lon="6.16758">
        <ele>1783.2</ele>
        <time>2021-02-17T08:39:10Z</time>
      </trkpt>
      <trkpt lat="45.28112" lon="6.16757">
        <ele>1783.3</ele>
        <time>2021-02-17T08:39:11Z</time>
      </trkpt>
      <trkpt lat="45.28112" lon="6.16757">
        <ele>1783.3</ele>
        <time>2021-02-17T08:39:12Z</time>
      </trkpt>
      <trkpt lat="45.28112" lon="6.16756">
        <ele>1783.4</ele>
        <time>2021-02-17T08:39:13Z</time>
      </trkpt>
      <trkpt lat="45.28112" lon="6.16756">
        <ele>1783.4</ele>
        <time>2021-02-17T08:39:14Z</time>
      </trkpt>
      <trkpt lat="45.28111" lon="6.16755">
        <ele>1783.5</ele>
        <time>2021-02-17T08:39:15Z</time>
      </trkpt>
      <trkpt lat="45.28111" lon="6.16754">
        <ele>1783.7</ele>
        <time>2021-02-17T08:39:16Z</time>
      </trkpt>
      <trkpt lat="45.28111" lon="6.16753">
        <ele>1783.8</ele>
        <time>2021-02-17T08:39:17Z</time>
      </trkpt>
      <trkpt lat="45.28111" lon="6.16752">
        <ele>1783.9</ele>
        <time>2021-02-17T08:39:18Z</time>
      </trkpt>
      <trkpt lat="45.28111" lon="6.16751">
        <ele>1784</ele>
        <time>2021-02-17T08:39:19Z</time>
      </trkpt>
      <trkpt lat="45.2811" lon="6.1675">
        <ele>1784.1</ele>
        <time>2021-02-17T08:39:20Z</time>
      </trkpt>
      <trkpt lat="45.2811" lon="6.16749">
        <ele>1784.2</ele>
        <time>2021-02-17T08:39:21Z</time>
      </trkpt>
      <trkpt lat="45.2811" lon="6.16748">
        <ele>1784.3</ele>
        <time>2021-02-17T08:39:22Z</time>
      </trkpt>
      <trkpt lat="45.2811" lon="6.16748">
        <ele>1784.4</ele>
        <time>2021-02-17T08:39:23Z</time>
      </trkpt>
      <trkpt lat="45.2811" lon="6.16746">
        <ele>1784.6</ele>
        <time>2021-02-17T08:39:24Z</time>
      </trkpt>
      <trkpt lat="45.2811" lon="6.16745">
        <ele>1784.7</ele>
        <time>2021-02-17T08:39:25Z</time>
      </trkpt>
      <trkpt lat="45.2811" lon="6.16744">
        <ele>1784.8</ele>
        <time>2021-02-17T08:39:26Z</time>
      </trkpt>
      <trkpt lat="45.2811" lon="6.16743">
        <ele>1784.9</ele>
        <time>2021-02-17T08:39:27Z</time>
      </trkpt>
      <trkpt lat="45.2811" lon="6.16742">
        <ele>1785.1</ele>
        <time>2021-02-17T08:39:28Z</time>
      </trkpt>
      <trkpt lat="45.2811" lon="6.16741">
        <ele>1785.2</ele>
        <time>2021-02-17T08:39:29Z</time>
      </trkpt>
      <trkpt lat="45.2811" lon="6.1674">
        <ele>1785.3</ele>
        <time>2021-02-17T08:39:30Z</time>
      </trkpt>
      <trkpt lat="45.2811" lon="6.16739">
        <ele>1785.3</ele>
        <time>2021-02-17T08:39:31Z</time>
      </trkpt>
      <trkpt lat="45.2811" lon="6.16739">
        <ele>1785.4</ele>
        <time>2021-02-17T08:39:32Z</time>
      </trkpt>
      <trkpt lat="45.2811" lon="6.16738">
        <ele>1785.5</ele>
        <time>2021-02-17T08:39:33Z</time>
      </trkpt>
      <trkpt lat="45.2811" lon="6.16737">
        <ele>1785.6</ele>
        <time>2021-02-17T08:39:34Z</time>
      </trkpt>
      <trkpt lat="45.2811" lon="6.16736">
        <ele>1785.7</ele>
        <time>2021-02-17T08:39:35Z</time>
      </trkpt>
      <trkpt lat="45.2811" lon="6.16735">
        <ele>1785.8</ele>
        <time>2021-02-17T08:39:36Z</time>
      </trkpt>
      <trkpt lat="45.2811" lon="6.16735">
        <ele>1785.9</ele>
        <time>2021-02-17T08:39:37Z</time>
      </trkpt>
      <trkpt lat="45.2811" lon="6.16734">
        <ele>1785.9</ele>
        <time>2021-02-17T08:39:38Z</time>
      </trkpt>
      <trkpt lat="45.2811" lon="6.16734">
        <ele>1785.9</ele>
        <time>2021-02-17T08:39:39Z</time>
      </trkpt>
      <trkpt lat="45.2811" lon="6.16733">
        <ele>1786</ele>
        <time>2021-02-17T08:39:40Z</time>
      </trkpt>
      <trkpt lat="45.2811" lon="6.16733">
        <ele>1786.1</ele>
        <time>2021-02-17T08:39:41Z</time>
      </trkpt>
      <trkpt lat="45.28109" lon="6.16732">
        <ele>1786.1</ele>
        <time>2021-02-17T08:39:42Z</time>
      </trkpt>
      <trkpt lat="45.28109" lon="6.16731">
        <ele>1786.2</ele>
        <time>2021-02-17T08:39:43Z</time>
      </trkpt>
      <trkpt lat="45.28109" lon="6.16731">
        <ele>1786.3</ele>
        <time>2021-02-17T08:39:44Z</time>
      </trkpt>
      <trkpt lat="45.28108" lon="6.16729">
        <ele>1786.4</ele>
        <time>2021-02-17T08:39:45Z</time>
      </trkpt>
      <trkpt lat="45.28108" lon="6.16728">
        <ele>1786.6</ele>
        <time>2021-02-17T08:39:46Z</time>
      </trkpt>
      <trkpt lat="45.28108" lon="6.16727">
        <ele>1786.7</ele>
        <time>2021-02-17T08:39:47Z</time>
      </trkpt>
      <trkpt lat="45.28107" lon="6.16726">
        <ele>1786.8</ele>
        <time>2021-02-17T08:39:48Z</time>
      </trkpt>
      <trkpt lat="45.28107" lon="6.16725">
        <ele>1786.9</ele>
        <time>2021-02-17T08:39:49Z</time>
      </trkpt>
      <trkpt lat="45.28107" lon="6.16725">
        <ele>1787</ele>
        <time>2021-02-17T08:39:50Z</time>
      </trkpt>
      <trkpt lat="45.28106" lon="6.16724">
        <ele>1787.1</ele>
        <time>2021-02-17T08:39:51Z</time>
      </trkpt>
      <trkpt lat="45.28106" lon="6.16723">
        <ele>1787.2</ele>
        <time>2021-02-17T08:39:52Z</time>
      </trkpt>
      <trkpt lat="45.28106" lon="6.16721">
        <ele>1787.3</ele>
        <time>2021-02-17T08:39:53Z</time>
      </trkpt>
      <trkpt lat="45.28105" lon="6.1672">
        <ele>1787.5</ele>
        <time>2021-02-17T08:39:54Z</time>
      </trkpt>
      <trkpt lat="45.28105" lon="6.16719">
        <ele>1787.6</ele>
        <time>2021-02-17T08:39:55Z</time>
      </trkpt>
      <trkpt lat="45.28105" lon="6.16717">
        <ele>1787.8</ele>
        <time>2021-02-17T08:39:56Z</time>
      </trkpt>
      <trkpt lat="45.28105" lon="6.16716">
        <ele>1787.9</ele>
        <time>2021-02-17T08:39:57Z</time>
      </trkpt>
      <trkpt lat="45.28105" lon="6.16715">
        <ele>1788</ele>
        <time>2021-02-17T08:39:58Z</time>
      </trkpt>
      <trkpt lat="45.28105" lon="6.16714">
        <ele>1788.1</ele>
        <time>2021-02-17T08:39:59Z</time>
      </trkpt>
      <trkpt lat="45.28105" lon="6.16713">
        <ele>1788.3</ele>
        <time>2021-02-17T08:40:00Z</time>
      </trkpt>
      <trkpt lat="45.28105" lon="6.16712">
        <ele>1788.4</ele>
        <time>2021-02-17T08:40:01Z</time>
      </trkpt>
      <trkpt lat="45.28105" lon="6.16711">
        <ele>1788.5</ele>
        <time>2021-02-17T08:40:02Z</time>
      </trkpt>
      <trkpt lat="45.28104" lon="6.1671">
        <ele>1788.6</ele>
        <time>2021-02-17T08:40:03Z</time>
      </trkpt>
      <trkpt lat="45.28104" lon="6.16709">
        <ele>1788.7</ele>
        <time>2021-02-17T08:40:04Z</time>
      </trkpt>
      <trkpt lat="45.28104" lon="6.16709">
        <ele>1788.8</ele>
        <time>2021-02-17T08:40:05Z</time>
      </trkpt>
      <trkpt lat="45.28104" lon="6.16708">
        <ele>1788.9</ele>
        <time>2021-02-17T08:40:06Z</time>
      </trkpt>
      <trkpt lat="45.28104" lon="6.16707">
        <ele>1789</ele>
        <time>2021-02-17T08:40:07Z</time>
      </trkpt>
      <trkpt lat="45.28104" lon="6.16706">
        <ele>1789</ele>
        <time>2021-02-17T08:40:08Z</time>
      </trkpt>
      <trkpt lat="45.28104" lon="6.16705">
        <ele>1789.1</ele>
        <time>2021-02-17T08:40:09Z</time>
      </trkpt>
      <trkpt lat="45.28104" lon="6.16704">
        <ele>1789.2</ele>
        <time>2021-02-17T08:40:10Z</time>
      </trkpt>
      <trkpt lat="45.28104" lon="6.16703">
        <ele>1789.3</ele>
        <time>2021-02-17T08:40:11Z</time>
      </trkpt>
      <trkpt lat="45.28104" lon="6.16702">
        <ele>1789.5</ele>
        <time>2021-02-17T08:40:12Z</time>
      </trkpt>
      <trkpt lat="45.28104" lon="6.16701">
        <ele>1789.5</ele>
        <time>2021-02-17T08:40:13Z</time>
      </trkpt>
      <trkpt lat="45.28104" lon="6.167">
        <ele>1789.6</ele>
        <time>2021-02-17T08:40:14Z</time>
      </trkpt>
      <trkpt lat="45.28104" lon="6.16699">
        <ele>1789.7</ele>
        <time>2021-02-17T08:40:15Z</time>
      </trkpt>
      <trkpt lat="45.28104" lon="6.16698">
        <ele>1789.8</ele>
        <time>2021-02-17T08:40:16Z</time>
      </trkpt>
      <trkpt lat="45.28103" lon="6.16697">
        <ele>1789.9</ele>
        <time>2021-02-17T08:40:17Z</time>
      </trkpt>
      <trkpt lat="45.28103" lon="6.16696">
        <ele>1790</ele>
        <time>2021-02-17T08:40:18Z</time>
      </trkpt>
      <trkpt lat="45.28103" lon="6.16695">
        <ele>1790.1</ele>
        <time>2021-02-17T08:40:19Z</time>
      </trkpt>
      <trkpt lat="45.28103" lon="6.16694">
        <ele>1790.2</ele>
        <time>2021-02-17T08:40:20Z</time>
      </trkpt>
      <trkpt lat="45.28102" lon="6.16692">
        <ele>1790.3</ele>
        <time>2021-02-17T08:40:21Z</time>
      </trkpt>
      <trkpt lat="45.28102" lon="6.16692">
        <ele>1790.4</ele>
        <time>2021-02-17T08:40:22Z</time>
      </trkpt>
      <trkpt lat="45.28101" lon="6.16691">
        <ele>1790.5</ele>
        <time>2021-02-17T08:40:23Z</time>
      </trkpt>
      <trkpt lat="45.28101" lon="6.1669">
        <ele>1790.6</ele>
        <time>2021-02-17T08:40:24Z</time>
      </trkpt>
      <trkpt lat="45.28101" lon="6.16689">
        <ele>1790.7</ele>
        <time>2021-02-17T08:40:25Z</time>
      </trkpt>
      <trkpt lat="45.28101" lon="6.16688">
        <ele>1790.8</ele>
        <time>2021-02-17T08:40:26Z</time>
      </trkpt>
      <trkpt lat="45.28101" lon="6.16687">
        <ele>1790.9</ele>
        <time>2021-02-17T08:40:27Z</time>
      </trkpt>
      <trkpt lat="45.28101" lon="6.16686">
        <ele>1791</ele>
        <time>2021-02-17T08:40:28Z</time>
      </trkpt>
      <trkpt lat="45.28101" lon="6.16685">
        <ele>1791.1</ele>
        <time>2021-02-17T08:40:29Z</time>
      </trkpt>
      <trkpt lat="45.28101" lon="6.16684">
        <ele>1791.2</ele>
        <time>2021-02-17T08:40:30Z</time>
      </trkpt>
      <trkpt lat="45.28101" lon="6.16682">
        <ele>1791.3</ele>
        <time>2021-02-17T08:40:31Z</time>
      </trkpt>
      <trkpt lat="45.281" lon="6.16681">
        <ele>1791.5</ele>
        <time>2021-02-17T08:40:32Z</time>
      </trkpt>
      <trkpt lat="45.281" lon="6.1668">
        <ele>1791.6</ele>
        <time>2021-02-17T08:40:33Z</time>
      </trkpt>
      <trkpt lat="45.281" lon="6.16678">
        <ele>1791.8</ele>
        <time>2021-02-17T08:40:34Z</time>
      </trkpt>
      <trkpt lat="45.281" lon="6.16677">
        <ele>1791.9</ele>
        <time>2021-02-17T08:40:35Z</time>
      </trkpt>
      <trkpt lat="45.28099" lon="6.16676">
        <ele>1792.1</ele>
        <time>2021-02-17T08:40:36Z</time>
      </trkpt>
      <trkpt lat="45.28099" lon="6.16675">
        <ele>1792.2</ele>
        <time>2021-02-17T08:40:37Z</time>
      </trkpt>
      <trkpt lat="45.28099" lon="6.16674">
        <ele>1792.3</ele>
        <time>2021-02-17T08:40:38Z</time>
      </trkpt>
      <trkpt lat="45.28099" lon="6.16673">
        <ele>1792.4</ele>
        <time>2021-02-17T08:40:39Z</time>
      </trkpt>
      <trkpt lat="45.28099" lon="6.16672">
        <ele>1792.5</ele>
        <time>2021-02-17T08:40:40Z</time>
      </trkpt>
      <trkpt lat="45.28098" lon="6.16671">
        <ele>1792.6</ele>
        <time>2021-02-17T08:40:41Z</time>
      </trkpt>
      <trkpt lat="45.28098" lon="6.16671">
        <ele>1792.7</ele>
        <time>2021-02-17T08:40:42Z</time>
      </trkpt>
      <trkpt lat="45.28098" lon="6.1667">
        <ele>1792.8</ele>
        <time>2021-02-17T08:40:43Z</time>
      </trkpt>
      <trkpt lat="45.28098" lon="6.16669">
        <ele>1792.9</ele>
        <time>2021-02-17T08:40:44Z</time>
      </trkpt>
      <trkpt lat="45.28098" lon="6.16668">
        <ele>1793.1</ele>
        <time>2021-02-17T08:40:45Z</time>
      </trkpt>
      <trkpt lat="45.28098" lon="6.16667">
        <ele>1793.2</ele>
        <time>2021-02-17T08:40:46Z</time>
      </trkpt>
      <trkpt lat="45.28098" lon="6.16667">
        <ele>1793.3</ele>
        <time>2021-02-17T08:40:47Z</time>
      </trkpt>
      <trkpt lat="45.28098" lon="6.16666">
        <ele>1793.4</ele>
        <time>2021-02-17T08:40:48Z</time>
      </trkpt>
      <trkpt lat="45.28098" lon="6.16666">
        <ele>1793.4</ele>
        <time>2021-02-17T08:40:49Z</time>
      </trkpt>
      <trkpt lat="45.28097" lon="6.16665">
        <ele>1793.5</ele>
        <time>2021-02-17T08:40:50Z</time>
      </trkpt>
      <trkpt lat="45.28097" lon="6.16665">
        <ele>1793.6</ele>
        <time>2021-02-17T08:40:51Z</time>
      </trkpt>
      <trkpt lat="45.28097" lon="6.16664">
        <ele>1793.7</ele>
        <time>2021-02-17T08:40:52Z</time>
      </trkpt>
      <trkpt lat="45.28097" lon="6.16663">
        <ele>1793.8</ele>
        <time>2021-02-17T08:40:53Z</time>
      </trkpt>
      <trkpt lat="45.28097" lon="6.16662">
        <ele>1794</ele>
        <time>2021-02-17T08:40:54Z</time>
      </trkpt>
      <trkpt lat="45.28096" lon="6.16661">
        <ele>1794.1</ele>
        <time>2021-02-17T08:40:55Z</time>
      </trkpt>
      <trkpt lat="45.28097" lon="6.1666">
        <ele>1794.3</ele>
        <time>2021-02-17T08:40:56Z</time>
      </trkpt>
      <trkpt lat="45.28097" lon="6.16659">
        <ele>1794.4</ele>
        <time>2021-02-17T08:40:57Z</time>
      </trkpt>
      <trkpt lat="45.28097" lon="6.16658">
        <ele>1794.6</ele>
        <time>2021-02-17T08:40:58Z</time>
      </trkpt>
      <trkpt lat="45.28097" lon="6.16658">
        <ele>1794.7</ele>
        <time>2021-02-17T08:40:59Z</time>
      </trkpt>
      <trkpt lat="45.28097" lon="6.16657">
        <ele>1794.8</ele>
        <time>2021-02-17T08:41:00Z</time>
      </trkpt>
      <trkpt lat="45.28098" lon="6.16656">
        <ele>1794.9</ele>
        <time>2021-02-17T08:41:01Z</time>
      </trkpt>
      <trkpt lat="45.28098" lon="6.16656">
        <ele>1795</ele>
        <time>2021-02-17T08:41:02Z</time>
      </trkpt>
      <trkpt lat="45.28098" lon="6.16655">
        <ele>1795.2</ele>
        <time>2021-02-17T08:41:03Z</time>
      </trkpt>
      <trkpt lat="45.28098" lon="6.16653">
        <ele>1795.3</ele>
        <time>2021-02-17T08:41:04Z</time>
      </trkpt>
      <trkpt lat="45.28098" lon="6.16653">
        <ele>1795.5</ele>
        <time>2021-02-17T08:41:05Z</time>
      </trkpt>
      <trkpt lat="45.28098" lon="6.16652">
        <ele>1795.6</ele>
        <time>2021-02-17T08:41:06Z</time>
      </trkpt>
      <trkpt lat="45.28098" lon="6.16651">
        <ele>1795.8</ele>
        <time>2021-02-17T08:41:07Z</time>
      </trkpt>
      <trkpt lat="45.28098" lon="6.1665">
        <ele>1795.9</ele>
        <time>2021-02-17T08:41:08Z</time>
      </trkpt>
      <trkpt lat="45.28098" lon="6.16649">
        <ele>1796.1</ele>
        <time>2021-02-17T08:41:09Z</time>
      </trkpt>
      <trkpt lat="45.28098" lon="6.16647">
        <ele>1796.3</ele>
        <time>2021-02-17T08:41:10Z</time>
      </trkpt>
      <trkpt lat="45.28098" lon="6.16646">
        <ele>1796.5</ele>
        <time>2021-02-17T08:41:11Z</time>
      </trkpt>
      <trkpt lat="45.28098" lon="6.16644">
        <ele>1796.7</ele>
        <time>2021-02-17T08:41:12Z</time>
      </trkpt>
      <trkpt lat="45.28098" lon="6.16643">
        <ele>1796.8</ele>
        <time>2021-02-17T08:41:13Z</time>
      </trkpt>
      <trkpt lat="45.28098" lon="6.16642">
        <ele>1797</ele>
        <time>2021-02-17T08:41:14Z</time>
      </trkpt>
      <trkpt lat="45.28098" lon="6.16641">
        <ele>1797.1</ele>
        <time>2021-02-17T08:41:15Z</time>
      </trkpt>
      <trkpt lat="45.28098" lon="6.1664">
        <ele>1797.2</ele>
        <time>2021-02-17T08:41:16Z</time>
      </trkpt>
      <trkpt lat="45.28099" lon="6.16639">
        <ele>1797.3</ele>
        <time>2021-02-17T08:41:17Z</time>
      </trkpt>
      <trkpt lat="45.28098" lon="6.16639">
        <ele>1797.4</ele>
        <time>2021-02-17T08:41:18Z</time>
      </trkpt>
      <trkpt lat="45.28098" lon="6.16638">
        <ele>1797.4</ele>
        <time>2021-02-17T08:41:19Z</time>
      </trkpt>
      <trkpt lat="45.28098" lon="6.16637">
        <ele>1797.5</ele>
        <time>2021-02-17T08:41:20Z</time>
      </trkpt>
      <trkpt lat="45.28098" lon="6.16636">
        <ele>1797.7</ele>
        <time>2021-02-17T08:41:21Z</time>
      </trkpt>
      <trkpt lat="45.28098" lon="6.16635">
        <ele>1797.8</ele>
        <time>2021-02-17T08:41:22Z</time>
      </trkpt>
      <trkpt lat="45.28098" lon="6.16633">
        <ele>1798</ele>
        <time>2021-02-17T08:41:23Z</time>
      </trkpt>
      <trkpt lat="45.28098" lon="6.16632">
        <ele>1798.2</ele>
        <time>2021-02-17T08:41:24Z</time>
      </trkpt>
      <trkpt lat="45.28098" lon="6.1663">
        <ele>1798.3</ele>
        <time>2021-02-17T08:41:25Z</time>
      </trkpt>
      <trkpt lat="45.28097" lon="6.16629">
        <ele>1798.4</ele>
        <time>2021-02-17T08:41:26Z</time>
      </trkpt>
      <trkpt lat="45.28097" lon="6.16628">
        <ele>1798.5</ele>
        <time>2021-02-17T08:41:27Z</time>
      </trkpt>
      <trkpt lat="45.28097" lon="6.16627">
        <ele>1798.6</ele>
        <time>2021-02-17T08:41:28Z</time>
      </trkpt>
      <trkpt lat="45.28097" lon="6.16626">
        <ele>1798.7</ele>
        <time>2021-02-17T08:41:29Z</time>
      </trkpt>
      <trkpt lat="45.28097" lon="6.16625">
        <ele>1798.8</ele>
        <time>2021-02-17T08:41:30Z</time>
      </trkpt>
      <trkpt lat="45.28097" lon="6.16624">
        <ele>1798.9</ele>
        <time>2021-02-17T08:41:31Z</time>
      </trkpt>
      <trkpt lat="45.28097" lon="6.16623">
        <ele>1799</ele>
        <time>2021-02-17T08:41:32Z</time>
      </trkpt>
      <trkpt lat="45.28097" lon="6.1662">
        <ele>1799.2</ele>
        <time>2021-02-17T08:41:33Z</time>
      </trkpt>
      <trkpt lat="45.28097" lon="6.1662">
        <ele>1799.2</ele>
        <time>2021-02-17T08:41:34Z</time>
      </trkpt>
      <trkpt lat="45.28097" lon="6.16619">
        <ele>1799.3</ele>
        <time>2021-02-17T08:41:35Z</time>
      </trkpt>
      <trkpt lat="45.28097" lon="6.16618">
        <ele>1799.4</ele>
        <time>2021-02-17T08:41:36Z</time>
      </trkpt>
      <trkpt lat="45.28097" lon="6.16615">
        <ele>1799.6</ele>
        <time>2021-02-17T08:41:37Z</time>
      </trkpt>
      <trkpt lat="45.28097" lon="6.16613">
        <ele>1799.7</ele>
        <time>2021-02-17T08:41:38Z</time>
      </trkpt>
      <trkpt lat="45.28097" lon="6.16612">
        <ele>1799.7</ele>
        <time>2021-02-17T08:41:39Z</time>
      </trkpt>
      <trkpt lat="45.28097" lon="6.1661">
        <ele>1799.8</ele>
        <time>2021-02-17T08:41:40Z</time>
      </trkpt>
      <trkpt lat="45.28097" lon="6.16609">
        <ele>1800.2</ele>
        <time>2021-02-17T08:41:41Z</time>
      </trkpt>
      <trkpt lat="45.28097" lon="6.16607">
        <ele>1800.3</ele>
        <time>2021-02-17T08:41:42Z</time>
      </trkpt>
      <trkpt lat="45.28097" lon="6.16606">
        <ele>1800.5</ele>
        <time>2021-02-17T08:41:43Z</time>
      </trkpt>
      <trkpt lat="45.28097" lon="6.16604">
        <ele>1800.6</ele>
        <time>2021-02-17T08:41:44Z</time>
      </trkpt>
      <trkpt lat="45.28097" lon="6.16602">
        <ele>1800.8</ele>
        <time>2021-02-17T08:41:45Z</time>
      </trkpt>
      <trkpt lat="45.28097" lon="6.16601">
        <ele>1800.9</ele>
        <time>2021-02-17T08:41:46Z</time>
      </trkpt>
      <trkpt lat="45.28097" lon="6.16599">
        <ele>1801</ele>
        <time>2021-02-17T08:41:47Z</time>
      </trkpt>
      <trkpt lat="45.28097" lon="6.16598">
        <ele>1801.1</ele>
        <time>2021-02-17T08:41:48Z</time>
      </trkpt>
      <trkpt lat="45.28098" lon="6.16597">
        <ele>1801.2</ele>
        <time>2021-02-17T08:41:49Z</time>
      </trkpt>
      <trkpt lat="45.28098" lon="6.16597">
        <ele>1801.2</ele>
        <time>2021-02-17T08:41:50Z</time>
      </trkpt>
      <trkpt lat="45.28098" lon="6.16596">
        <ele>1801.3</ele>
        <time>2021-02-17T08:41:51Z</time>
      </trkpt>
      <trkpt lat="45.28098" lon="6.16595">
        <ele>1801.4</ele>
        <time>2021-02-17T08:41:52Z</time>
      </trkpt>
      <trkpt lat="45.28098" lon="6.16594">
        <ele>1801.5</ele>
        <time>2021-02-17T08:41:53Z</time>
      </trkpt>
      <trkpt lat="45.28099" lon="6.16593">
        <ele>1801.6</ele>
        <time>2021-02-17T08:41:54Z</time>
      </trkpt>
      <trkpt lat="45.28099" lon="6.16592">
        <ele>1801.6</ele>
        <time>2021-02-17T08:41:55Z</time>
      </trkpt>
      <trkpt lat="45.281" lon="6.16591">
        <ele>1801.7</ele>
        <time>2021-02-17T08:41:56Z</time>
      </trkpt>
      <trkpt lat="45.281" lon="6.1659">
        <ele>1801.8</ele>
        <time>2021-02-17T08:41:57Z</time>
      </trkpt>
      <trkpt lat="45.281" lon="6.16589">
        <ele>1801.8</ele>
        <time>2021-02-17T08:41:58Z</time>
      </trkpt>
      <trkpt lat="45.281" lon="6.16587">
        <ele>1801.9</ele>
        <time>2021-02-17T08:41:59Z</time>
      </trkpt>
      <trkpt lat="45.281" lon="6.16586">
        <ele>1802</ele>
        <time>2021-02-17T08:42:00Z</time>
      </trkpt>
      <trkpt lat="45.281" lon="6.16585">
        <ele>1802</ele>
        <time>2021-02-17T08:42:01Z</time>
      </trkpt>
      <trkpt lat="45.281" lon="6.16584">
        <ele>1802.1</ele>
        <time>2021-02-17T08:42:02Z</time>
      </trkpt>
      <trkpt lat="45.281" lon="6.16584">
        <ele>1802.1</ele>
        <time>2021-02-17T08:42:03Z</time>
      </trkpt>
      <trkpt lat="45.281" lon="6.16583">
        <ele>1802.2</ele>
        <time>2021-02-17T08:42:04Z</time>
      </trkpt>
      <trkpt lat="45.28099" lon="6.16582">
        <ele>1802.2</ele>
        <time>2021-02-17T08:42:05Z</time>
      </trkpt>
      <trkpt lat="45.28099" lon="6.1658">
        <ele>1802.3</ele>
        <time>2021-02-17T08:42:06Z</time>
      </trkpt>
      <trkpt lat="45.28099" lon="6.16579">
        <ele>1802.3</ele>
        <time>2021-02-17T08:42:07Z</time>
      </trkpt>
      <trkpt lat="45.28099" lon="6.16578">
        <ele>1802.4</ele>
        <time>2021-02-17T08:42:08Z</time>
      </trkpt>
      <trkpt lat="45.28099" lon="6.16577">
        <ele>1802.4</ele>
        <time>2021-02-17T08:42:09Z</time>
      </trkpt>
      <trkpt lat="45.281" lon="6.16576">
        <ele>1802.4</ele>
        <time>2021-02-17T08:42:10Z</time>
      </trkpt>
      <trkpt lat="45.281" lon="6.16574">
        <ele>1802.5</ele>
        <time>2021-02-17T08:42:11Z</time>
      </trkpt>
      <trkpt lat="45.281" lon="6.16573">
        <ele>1802.6</ele>
        <time>2021-02-17T08:42:12Z</time>
      </trkpt>
      <trkpt lat="45.281" lon="6.16571">
        <ele>1802.7</ele>
        <time>2021-02-17T08:42:13Z</time>
      </trkpt>
      <trkpt lat="45.281" lon="6.16569">
        <ele>1802.8</ele>
        <time>2021-02-17T08:42:14Z</time>
      </trkpt>
      <trkpt lat="45.28101" lon="6.16568">
        <ele>1802.9</ele>
        <time>2021-02-17T08:42:15Z</time>
      </trkpt>
      <trkpt lat="45.28101" lon="6.16566">
        <ele>1803</ele>
        <time>2021-02-17T08:42:16Z</time>
      </trkpt>
      <trkpt lat="45.28101" lon="6.16565">
        <ele>1803.1</ele>
        <time>2021-02-17T08:42:17Z</time>
      </trkpt>
      <trkpt lat="45.28101" lon="6.16563">
        <ele>1803.2</ele>
        <time>2021-02-17T08:42:18Z</time>
      </trkpt>
      <trkpt lat="45.28101" lon="6.16562">
        <ele>1803.2</ele>
        <time>2021-02-17T08:42:19Z</time>
      </trkpt>
      <trkpt lat="45.28101" lon="6.1656">
        <ele>1803.3</ele>
        <time>2021-02-17T08:42:20Z</time>
      </trkpt>
      <trkpt lat="45.28101" lon="6.16559">
        <ele>1803.4</ele>
        <time>2021-02-17T08:42:21Z</time>
      </trkpt>
      <trkpt lat="45.28101" lon="6.16557">
        <ele>1803.5</ele>
        <time>2021-02-17T08:42:22Z</time>
      </trkpt>
      <trkpt lat="45.28101" lon="6.16556">
        <ele>1803.6</ele>
        <time>2021-02-17T08:42:23Z</time>
      </trkpt>
      <trkpt lat="45.28101" lon="6.16554">
        <ele>1803.7</ele>
        <time>2021-02-17T08:42:24Z</time>
      </trkpt>
      <trkpt lat="45.28101" lon="6.16553">
        <ele>1803.7</ele>
        <time>2021-02-17T08:42:25Z</time>
      </trkpt>
      <trkpt lat="45.28101" lon="6.16552">
        <ele>1803.8</ele>
        <time>2021-02-17T08:42:26Z</time>
      </trkpt>
      <trkpt lat="45.28102" lon="6.1655">
        <ele>1803.9</ele>
        <time>2021-02-17T08:42:27Z</time>
      </trkpt>
      <trkpt lat="45.28102" lon="6.16549">
        <ele>1804.1</ele>
        <time>2021-02-17T08:42:28Z</time>
      </trkpt>
      <trkpt lat="45.28102" lon="6.16547">
        <ele>1804.1</ele>
        <time>2021-02-17T08:42:29Z</time>
      </trkpt>
      <trkpt lat="45.28102" lon="6.16546">
        <ele>1804.2</ele>
        <time>2021-02-17T08:42:30Z</time>
      </trkpt>
      <trkpt lat="45.28103" lon="6.16544">
        <ele>1804.4</ele>
        <time>2021-02-17T08:42:31Z</time>
      </trkpt>
      <trkpt lat="45.28103" lon="6.16543">
        <ele>1804.5</ele>
        <time>2021-02-17T08:42:32Z</time>
      </trkpt>
      <trkpt lat="45.28104" lon="6.16542">
        <ele>1804.6</ele>
        <time>2021-02-17T08:42:33Z</time>
      </trkpt>
      <trkpt lat="45.28104" lon="6.1654">
        <ele>1804.7</ele>
        <time>2021-02-17T08:42:34Z</time>
      </trkpt>
      <trkpt lat="45.28104" lon="6.16538">
        <ele>1804.8</ele>
        <time>2021-02-17T08:42:35Z</time>
      </trkpt>
      <trkpt lat="45.28105" lon="6.16537">
        <ele>1804.9</ele>
        <time>2021-02-17T08:42:36Z</time>
      </trkpt>
      <trkpt lat="45.28105" lon="6.16536">
        <ele>1805</ele>
        <time>2021-02-17T08:42:37Z</time>
      </trkpt>
      <trkpt lat="45.28105" lon="6.16535">
        <ele>1805</ele>
        <time>2021-02-17T08:42:38Z</time>
      </trkpt>
      <trkpt lat="45.28106" lon="6.16534">
        <ele>1805.2</ele>
        <time>2021-02-17T08:42:39Z</time>
      </trkpt>
      <trkpt lat="45.28106" lon="6.16533">
        <ele>1805.2</ele>
        <time>2021-02-17T08:42:40Z</time>
      </trkpt>
      <trkpt lat="45.28106" lon="6.16531">
        <ele>1805.3</ele>
        <time>2021-02-17T08:42:41Z</time>
      </trkpt>
      <trkpt lat="45.28106" lon="6.1653">
        <ele>1805.4</ele>
        <time>2021-02-17T08:42:42Z</time>
      </trkpt>
      <trkpt lat="45.28106" lon="6.16528">
        <ele>1805.5</ele>
        <time>2021-02-17T08:42:43Z</time>
      </trkpt>
      <trkpt lat="45.28106" lon="6.16527">
        <ele>1805.6</ele>
        <time>2021-02-17T08:42:44Z</time>
      </trkpt>
      <trkpt lat="45.28106" lon="6.16525">
        <ele>1805.7</ele>
        <time>2021-02-17T08:42:45Z</time>
      </trkpt>
      <trkpt lat="45.28106" lon="6.16524">
        <ele>1805.8</ele>
        <time>2021-02-17T08:42:46Z</time>
      </trkpt>
      <trkpt lat="45.28106" lon="6.16522">
        <ele>1805.9</ele>
        <time>2021-02-17T08:42:47Z</time>
      </trkpt>
      <trkpt lat="45.28106" lon="6.16521">
        <ele>1806.1</ele>
        <time>2021-02-17T08:42:48Z</time>
      </trkpt>
      <trkpt lat="45.28107" lon="6.16519">
        <ele>1806.2</ele>
        <time>2021-02-17T08:42:49Z</time>
      </trkpt>
      <trkpt lat="45.28107" lon="6.16518">
        <ele>1806.2</ele>
        <time>2021-02-17T08:42:50Z</time>
      </trkpt>
      <trkpt lat="45.28107" lon="6.16517">
        <ele>1806.3</ele>
        <time>2021-02-17T08:42:51Z</time>
      </trkpt>
      <trkpt lat="45.28107" lon="6.16516">
        <ele>1806.4</ele>
        <time>2021-02-17T08:42:52Z</time>
      </trkpt>
      <trkpt lat="45.28107" lon="6.16515">
        <ele>1806.5</ele>
        <time>2021-02-17T08:42:53Z</time>
      </trkpt>
      <trkpt lat="45.28108" lon="6.16514">
        <ele>1806.5</ele>
        <time>2021-02-17T08:42:54Z</time>
      </trkpt>
      <trkpt lat="45.28108" lon="6.16513">
        <ele>1806.6</ele>
        <time>2021-02-17T08:42:55Z</time>
      </trkpt>
      <trkpt lat="45.28108" lon="6.16512">
        <ele>1806.7</ele>
        <time>2021-02-17T08:42:56Z</time>
      </trkpt>
      <trkpt lat="45.28108" lon="6.16511">
        <ele>1806.7</ele>
        <time>2021-02-17T08:42:57Z</time>
      </trkpt>
      <trkpt lat="45.28108" lon="6.16509">
        <ele>1806.9</ele>
        <time>2021-02-17T08:42:58Z</time>
      </trkpt>
      <trkpt lat="45.28108" lon="6.16508">
        <ele>1806.9</ele>
        <time>2021-02-17T08:42:59Z</time>
      </trkpt>
      <trkpt lat="45.28108" lon="6.16507">
        <ele>1807.1</ele>
        <time>2021-02-17T08:43:00Z</time>
      </trkpt>
      <trkpt lat="45.28108" lon="6.16505">
        <ele>1807.1</ele>
        <time>2021-02-17T08:43:01Z</time>
      </trkpt>
      <trkpt lat="45.28108" lon="6.16504">
        <ele>1807.3</ele>
        <time>2021-02-17T08:43:02Z</time>
      </trkpt>
      <trkpt lat="45.28107" lon="6.16502">
        <ele>1807.3</ele>
        <time>2021-02-17T08:43:03Z</time>
      </trkpt>
      <trkpt lat="45.28107" lon="6.16501">
        <ele>1807.4</ele>
        <time>2021-02-17T08:43:04Z</time>
      </trkpt>
      <trkpt lat="45.28107" lon="6.165">
        <ele>1807.5</ele>
        <time>2021-02-17T08:43:05Z</time>
      </trkpt>
      <trkpt lat="45.28107" lon="6.16499">
        <ele>1807.6</ele>
        <time>2021-02-17T08:43:06Z</time>
      </trkpt>
      <trkpt lat="45.28107" lon="6.16497">
        <ele>1807.7</ele>
        <time>2021-02-17T08:43:07Z</time>
      </trkpt>
      <trkpt lat="45.28106" lon="6.16496">
        <ele>1807.8</ele>
        <time>2021-02-17T08:43:08Z</time>
      </trkpt>
      <trkpt lat="45.28106" lon="6.16495">
        <ele>1807.9</ele>
        <time>2021-02-17T08:43:09Z</time>
      </trkpt>
      <trkpt lat="45.28106" lon="6.16494">
        <ele>1808</ele>
        <time>2021-02-17T08:43:10Z</time>
      </trkpt>
      <trkpt lat="45.28106" lon="6.16493">
        <ele>1808.1</ele>
        <time>2021-02-17T08:43:11Z</time>
      </trkpt>
      <trkpt lat="45.28106" lon="6.16491">
        <ele>1808.2</ele>
        <time>2021-02-17T08:43:12Z</time>
      </trkpt>
      <trkpt lat="45.28106" lon="6.1649">
        <ele>1808.3</ele>
        <time>2021-02-17T08:43:13Z</time>
      </trkpt>
      <trkpt lat="45.28106" lon="6.16488">
        <ele>1808.4</ele>
        <time>2021-02-17T08:43:14Z</time>
      </trkpt>
      <trkpt lat="45.28106" lon="6.16487">
        <ele>1808.4</ele>
        <time>2021-02-17T08:43:15Z</time>
      </trkpt>
      <trkpt lat="45.28107" lon="6.16485">
        <ele>1808.6</ele>
        <time>2021-02-17T08:43:16Z</time>
      </trkpt>
      <trkpt lat="45.28107" lon="6.16484">
        <ele>1808.7</ele>
        <time>2021-02-17T08:43:17Z</time>
      </trkpt>
      <trkpt lat="45.28107" lon="6.16482">
        <ele>1808.8</ele>
        <time>2021-02-17T08:43:18Z</time>
      </trkpt>
      <trkpt lat="45.28107" lon="6.1648">
        <ele>1809</ele>
        <time>2021-02-17T08:43:19Z</time>
      </trkpt>
      <trkpt lat="45.28107" lon="6.16479">
        <ele>1809</ele>
        <time>2021-02-17T08:43:20Z</time>
      </trkpt>
      <trkpt lat="45.28107" lon="6.16478">
        <ele>1809.1</ele>
        <time>2021-02-17T08:43:21Z</time>
      </trkpt>
      <trkpt lat="45.28107" lon="6.16476">
        <ele>1809.3</ele>
        <time>2021-02-17T08:43:22Z</time>
      </trkpt>
      <trkpt lat="45.28107" lon="6.16475">
        <ele>1809.4</ele>
        <time>2021-02-17T08:43:23Z</time>
      </trkpt>
      <trkpt lat="45.28107" lon="6.16474">
        <ele>1809.4</ele>
        <time>2021-02-17T08:43:24Z</time>
      </trkpt>
      <trkpt lat="45.28107" lon="6.16472">
        <ele>1809.5</ele>
        <time>2021-02-17T08:43:25Z</time>
      </trkpt>
      <trkpt lat="45.28107" lon="6.16471">
        <ele>1809.7</ele>
        <time>2021-02-17T08:43:26Z</time>
      </trkpt>
      <trkpt lat="45.28107" lon="6.16469">
        <ele>1809.7</ele>
        <time>2021-02-17T08:43:27Z</time>
      </trkpt>
      <trkpt lat="45.28106" lon="6.16468">
        <ele>1809.9</ele>
        <time>2021-02-17T08:43:28Z</time>
      </trkpt>
      <trkpt lat="45.28106" lon="6.16466">
        <ele>1810.1</ele>
        <time>2021-02-17T08:43:29Z</time>
      </trkpt>
      <trkpt lat="45.28106" lon="6.16465">
        <ele>1810.1</ele>
        <time>2021-02-17T08:43:30Z</time>
      </trkpt>
      <trkpt lat="45.28106" lon="6.16463">
        <ele>1810.2</ele>
        <time>2021-02-17T08:43:31Z</time>
      </trkpt>
      <trkpt lat="45.28106" lon="6.16462">
        <ele>1810.3</ele>
        <time>2021-02-17T08:43:32Z</time>
      </trkpt>
      <trkpt lat="45.28106" lon="6.16461">
        <ele>1810.4</ele>
        <time>2021-02-17T08:43:33Z</time>
      </trkpt>
      <trkpt lat="45.28106" lon="6.1646">
        <ele>1810.5</ele>
        <time>2021-02-17T08:43:34Z</time>
      </trkpt>
      <trkpt lat="45.28106" lon="6.16459">
        <ele>1810.6</ele>
        <time>2021-02-17T08:43:35Z</time>
      </trkpt>
      <trkpt lat="45.28106" lon="6.16457">
        <ele>1810.8</ele>
        <time>2021-02-17T08:43:36Z</time>
      </trkpt>
      <trkpt lat="45.28106" lon="6.16456">
        <ele>1810.9</ele>
        <time>2021-02-17T08:43:37Z</time>
      </trkpt>
      <trkpt lat="45.28107" lon="6.16455">
        <ele>1811.1</ele>
        <time>2021-02-17T08:43:38Z</time>
      </trkpt>
      <trkpt lat="45.28107" lon="6.16454">
        <ele>1811.2</ele>
        <time>2021-02-17T08:43:39Z</time>
      </trkpt>
      <trkpt lat="45.28107" lon="6.16453">
        <ele>1811.4</ele>
        <time>2021-02-17T08:43:40Z</time>
      </trkpt>
      <trkpt lat="45.28108" lon="6.16452">
        <ele>1811.5</ele>
        <time>2021-02-17T08:43:41Z</time>
      </trkpt>
      <trkpt lat="45.28109" lon="6.1645">
        <ele>1811.7</ele>
        <time>2021-02-17T08:43:42Z</time>
      </trkpt>
      <trkpt lat="45.28109" lon="6.16449">
        <ele>1811.9</ele>
        <time>2021-02-17T08:43:43Z</time>
      </trkpt>
      <trkpt lat="45.2811" lon="6.16448">
        <ele>1812</ele>
        <time>2021-02-17T08:43:44Z</time>
      </trkpt>
      <trkpt lat="45.2811" lon="6.16446">
        <ele>1812.2</ele>
        <time>2021-02-17T08:43:45Z</time>
      </trkpt>
      <trkpt lat="45.2811" lon="6.16445">
        <ele>1812.4</ele>
        <time>2021-02-17T08:43:46Z</time>
      </trkpt>
      <trkpt lat="45.2811" lon="6.16443">
        <ele>1812.6</ele>
        <time>2021-02-17T08:43:47Z</time>
      </trkpt>
      <trkpt lat="45.2811" lon="6.16442">
        <ele>1812.8</ele>
        <time>2021-02-17T08:43:48Z</time>
      </trkpt>
      <trkpt lat="45.2811" lon="6.16441">
        <ele>1812.9</ele>
        <time>2021-02-17T08:43:49Z</time>
      </trkpt>
      <trkpt lat="45.2811" lon="6.1644">
        <ele>1813</ele>
        <time>2021-02-17T08:43:50Z</time>
      </trkpt>
      <trkpt lat="45.2811" lon="6.16437">
        <ele>1813.4</ele>
        <time>2021-02-17T08:43:51Z</time>
      </trkpt>
      <trkpt lat="45.2811" lon="6.16435">
        <ele>1813.5</ele>
        <time>2021-02-17T08:43:52Z</time>
      </trkpt>
      <trkpt lat="45.2811" lon="6.16434">
        <ele>1813.7</ele>
        <time>2021-02-17T08:43:53Z</time>
      </trkpt>
      <trkpt lat="45.2811" lon="6.16433">
        <ele>1813.9</ele>
        <time>2021-02-17T08:43:54Z</time>
      </trkpt>
      <trkpt lat="45.2811" lon="6.16431">
        <ele>1814.1</ele>
        <time>2021-02-17T08:43:55Z</time>
      </trkpt>
      <trkpt lat="45.2811" lon="6.1643">
        <ele>1814.3</ele>
        <time>2021-02-17T08:43:56Z</time>
      </trkpt>
      <trkpt lat="45.2811" lon="6.16429">
        <ele>1814.4</ele>
        <time>2021-02-17T08:43:57Z</time>
      </trkpt>
      <trkpt lat="45.28111" lon="6.16427">
        <ele>1814.6</ele>
        <time>2021-02-17T08:43:58Z</time>
      </trkpt>
      <trkpt lat="45.28111" lon="6.16426">
        <ele>1814.8</ele>
        <time>2021-02-17T08:43:59Z</time>
      </trkpt>
      <trkpt lat="45.28112" lon="6.16425">
        <ele>1815</ele>
        <time>2021-02-17T08:44:00Z</time>
      </trkpt>
      <trkpt lat="45.28112" lon="6.16423">
        <ele>1815.2</ele>
        <time>2021-02-17T08:44:01Z</time>
      </trkpt>
      <trkpt lat="45.28112" lon="6.16422">
        <ele>1815.4</ele>
        <time>2021-02-17T08:44:02Z</time>
      </trkpt>
      <trkpt lat="45.28113" lon="6.16421">
        <ele>1815.6</ele>
        <time>2021-02-17T08:44:03Z</time>
      </trkpt>
      <trkpt lat="45.28113" lon="6.16419">
        <ele>1815.9</ele>
        <time>2021-02-17T08:44:04Z</time>
      </trkpt>
      <trkpt lat="45.28113" lon="6.16417">
        <ele>1816.1</ele>
        <time>2021-02-17T08:44:05Z</time>
      </trkpt>
      <trkpt lat="45.28113" lon="6.16416">
        <ele>1816.3</ele>
        <time>2021-02-17T08:44:06Z</time>
      </trkpt>
      <trkpt lat="45.28113" lon="6.16415">
        <ele>1816.5</ele>
        <time>2021-02-17T08:44:07Z</time>
      </trkpt>
      <trkpt lat="45.28113" lon="6.16414">
        <ele>1816.6</ele>
        <time>2021-02-17T08:44:08Z</time>
      </trkpt>
      <trkpt lat="45.28113" lon="6.16414">
        <ele>1816.7</ele>
        <time>2021-02-17T08:44:09Z</time>
      </trkpt>
      <trkpt lat="45.28113" lon="6.16413">
        <ele>1816.8</ele>
        <time>2021-02-17T08:44:10Z</time>
      </trkpt>
      <trkpt lat="45.28114" lon="6.16412">
        <ele>1817</ele>
        <time>2021-02-17T08:44:11Z</time>
      </trkpt>
      <trkpt lat="45.28114" lon="6.16411">
        <ele>1817.2</ele>
        <time>2021-02-17T08:44:12Z</time>
      </trkpt>
      <trkpt lat="45.28114" lon="6.1641">
        <ele>1817.3</ele>
        <time>2021-02-17T08:44:13Z</time>
      </trkpt>
      <trkpt lat="45.28114" lon="6.16409">
        <ele>1817.4</ele>
        <time>2021-02-17T08:44:14Z</time>
      </trkpt>
      <trkpt lat="45.28115" lon="6.16407">
        <ele>1817.8</ele>
        <time>2021-02-17T08:44:15Z</time>
      </trkpt>
      <trkpt lat="45.28115" lon="6.16405">
        <ele>1818.1</ele>
        <time>2021-02-17T08:44:16Z</time>
      </trkpt>
      <trkpt lat="45.28115" lon="6.16404">
        <ele>1818.3</ele>
        <time>2021-02-17T08:44:17Z</time>
      </trkpt>
      <trkpt lat="45.28115" lon="6.16403">
        <ele>1818.4</ele>
        <time>2021-02-17T08:44:18Z</time>
      </trkpt>
      <trkpt lat="45.28115" lon="6.16402">
        <ele>1818.5</ele>
        <time>2021-02-17T08:44:19Z</time>
      </trkpt>
      <trkpt lat="45.28115" lon="6.16401">
        <ele>1818.7</ele>
        <time>2021-02-17T08:44:20Z</time>
      </trkpt>
      <trkpt lat="45.28115" lon="6.164">
        <ele>1818.8</ele>
        <time>2021-02-17T08:44:21Z</time>
      </trkpt>
      <trkpt lat="45.28116" lon="6.16399">
        <ele>1818.9</ele>
        <time>2021-02-17T08:44:22Z</time>
      </trkpt>
      <trkpt lat="45.28116" lon="6.16398">
        <ele>1819.1</ele>
        <time>2021-02-17T08:44:23Z</time>
      </trkpt>
      <trkpt lat="45.28117" lon="6.16397">
        <ele>1819.3</ele>
        <time>2021-02-17T08:44:24Z</time>
      </trkpt>
      <trkpt lat="45.28117" lon="6.16396">
        <ele>1819.5</ele>
        <time>2021-02-17T08:44:25Z</time>
      </trkpt>
      <trkpt lat="45.28117" lon="6.16395">
        <ele>1819.6</ele>
        <time>2021-02-17T08:44:26Z</time>
      </trkpt>
      <trkpt lat="45.28118" lon="6.16394">
        <ele>1819.7</ele>
        <time>2021-02-17T08:44:27Z</time>
      </trkpt>
      <trkpt lat="45.28118" lon="6.16394">
        <ele>1819.8</ele>
        <time>2021-02-17T08:44:28Z</time>
      </trkpt>
      <trkpt lat="45.28118" lon="6.16393">
        <ele>1820</ele>
        <time>2021-02-17T08:44:29Z</time>
      </trkpt>
      <trkpt lat="45.28119" lon="6.16392">
        <ele>1820.1</ele>
        <time>2021-02-17T08:44:30Z</time>
      </trkpt>
      <trkpt lat="45.28119" lon="6.16391">
        <ele>1820.3</ele>
        <time>2021-02-17T08:44:31Z</time>
      </trkpt>
      <trkpt lat="45.2812" lon="6.16391">
        <ele>1820.4</ele>
        <time>2021-02-17T08:44:32Z</time>
      </trkpt>
      <trkpt lat="45.28121" lon="6.1639">
        <ele>1820.6</ele>
        <time>2021-02-17T08:44:33Z</time>
      </trkpt>
      <trkpt lat="45.28122" lon="6.16389">
        <ele>1820.8</ele>
        <time>2021-02-17T08:44:34Z</time>
      </trkpt>
      <trkpt lat="45.28122" lon="6.16389">
        <ele>1821</ele>
        <time>2021-02-17T08:44:35Z</time>
      </trkpt>
      <trkpt lat="45.28123" lon="6.16388">
        <ele>1821.1</ele>
        <time>2021-02-17T08:44:36Z</time>
      </trkpt>
      <trkpt lat="45.28123" lon="6.16387">
        <ele>1821.2</ele>
        <time>2021-02-17T08:44:37Z</time>
      </trkpt>
      <trkpt lat="45.28124" lon="6.16387">
        <ele>1821.4</ele>
        <time>2021-02-17T08:44:38Z</time>
      </trkpt>
      <trkpt lat="45.28125" lon="6.16387">
        <ele>1821.5</ele>
        <time>2021-02-17T08:44:39Z</time>
      </trkpt>
      <trkpt lat="45.28125" lon="6.16386">
        <ele>1821.7</ele>
        <time>2021-02-17T08:44:40Z</time>
      </trkpt>
      <trkpt lat="45.28127" lon="6.16385">
        <ele>1822</ele>
        <time>2021-02-17T08:44:41Z</time>
      </trkpt>
      <trkpt lat="45.28128" lon="6.16384">
        <ele>1822.2</ele>
        <time>2021-02-17T08:44:42Z</time>
      </trkpt>
      <trkpt lat="45.28128" lon="6.16383">
        <ele>1822.4</ele>
        <time>2021-02-17T08:44:43Z</time>
      </trkpt>
      <trkpt lat="45.28129" lon="6.16382">
        <ele>1822.5</ele>
        <time>2021-02-17T08:44:44Z</time>
      </trkpt>
      <trkpt lat="45.28129" lon="6.16382">
        <ele>1822.6</ele>
        <time>2021-02-17T08:44:45Z</time>
      </trkpt>
      <trkpt lat="45.28129" lon="6.16381">
        <ele>1822.8</ele>
        <time>2021-02-17T08:44:46Z</time>
      </trkpt>
      <trkpt lat="45.2813" lon="6.1638">
        <ele>1822.9</ele>
        <time>2021-02-17T08:44:47Z</time>
      </trkpt>
      <trkpt lat="45.2813" lon="6.16379">
        <ele>1823.1</ele>
        <time>2021-02-17T08:44:48Z</time>
      </trkpt>
      <trkpt lat="45.2813" lon="6.16378">
        <ele>1823.2</ele>
        <time>2021-02-17T08:44:49Z</time>
      </trkpt>
      <trkpt lat="45.28131" lon="6.16377">
        <ele>1823.4</ele>
        <time>2021-02-17T08:44:50Z</time>
      </trkpt>
      <trkpt lat="45.28131" lon="6.16376">
        <ele>1823.5</ele>
        <time>2021-02-17T08:44:51Z</time>
      </trkpt>
      <trkpt lat="45.28131" lon="6.16375">
        <ele>1823.6</ele>
        <time>2021-02-17T08:44:52Z</time>
      </trkpt>
      <trkpt lat="45.2813" lon="6.16374">
        <ele>1823.8</ele>
        <time>2021-02-17T08:44:53Z</time>
      </trkpt>
      <trkpt lat="45.28131" lon="6.16372">
        <ele>1824</ele>
        <time>2021-02-17T08:44:54Z</time>
      </trkpt>
      <trkpt lat="45.28131" lon="6.16371">
        <ele>1824.1</ele>
        <time>2021-02-17T08:44:55Z</time>
      </trkpt>
      <trkpt lat="45.28131" lon="6.1637">
        <ele>1824.2</ele>
        <time>2021-02-17T08:44:56Z</time>
      </trkpt>
      <trkpt lat="45.28131" lon="6.1637">
        <ele>1824.3</ele>
        <time>2021-02-17T08:44:57Z</time>
      </trkpt>
      <trkpt lat="45.28132" lon="6.16369">
        <ele>1824.4</ele>
        <time>2021-02-17T08:44:58Z</time>
      </trkpt>
      <trkpt lat="45.28132" lon="6.16369">
        <ele>1824.5</ele>
        <time>2021-02-17T08:44:59Z</time>
      </trkpt>
      <trkpt lat="45.28132" lon="6.16368">
        <ele>1824.6</ele>
        <time>2021-02-17T08:45:00Z</time>
      </trkpt>
      <trkpt lat="45.28132" lon="6.16368">
        <ele>1824.6</ele>
        <time>2021-02-17T08:45:01Z</time>
      </trkpt>
      <trkpt lat="45.28132" lon="6.16367">
        <ele>1824.7</ele>
        <time>2021-02-17T08:45:02Z</time>
      </trkpt>
      <trkpt lat="45.28132" lon="6.16367">
        <ele>1824.8</ele>
        <time>2021-02-17T08:45:03Z</time>
      </trkpt>
      <trkpt lat="45.28133" lon="6.16366">
        <ele>1824.9</ele>
        <time>2021-02-17T08:45:04Z</time>
      </trkpt>
      <trkpt lat="45.28133" lon="6.16365">
        <ele>1825</ele>
        <time>2021-02-17T08:45:05Z</time>
      </trkpt>
      <trkpt lat="45.28133" lon="6.16364">
        <ele>1825.1</ele>
        <time>2021-02-17T08:45:06Z</time>
      </trkpt>
      <trkpt lat="45.28134" lon="6.16364">
        <ele>1825.3</ele>
        <time>2021-02-17T08:45:07Z</time>
      </trkpt>
      <trkpt lat="45.28134" lon="6.16363">
        <ele>1825.3</ele>
        <time>2021-02-17T08:45:08Z</time>
      </trkpt>
      <trkpt lat="45.28134" lon="6.16362">
        <ele>1825.5</ele>
        <time>2021-02-17T08:45:09Z</time>
      </trkpt>
      <trkpt lat="45.28135" lon="6.16361">
        <ele>1825.7</ele>
        <time>2021-02-17T08:45:10Z</time>
      </trkpt>
      <trkpt lat="45.28135" lon="6.16359">
        <ele>1825.9</ele>
        <time>2021-02-17T08:45:11Z</time>
      </trkpt>
      <trkpt lat="45.28135" lon="6.16358">
        <ele>1826</ele>
        <time>2021-02-17T08:45:12Z</time>
      </trkpt>
      <trkpt lat="45.28135" lon="6.16357">
        <ele>1826.1</ele>
        <time>2021-02-17T08:45:13Z</time>
      </trkpt>
      <trkpt lat="45.28134" lon="6.16356">
        <ele>1826.2</ele>
        <time>2021-02-17T08:45:14Z</time>
      </trkpt>
      <trkpt lat="45.28134" lon="6.16356">
        <ele>1826.3</ele>
        <time>2021-02-17T08:45:15Z</time>
      </trkpt>
      <trkpt lat="45.28134" lon="6.16355">
        <ele>1826.4</ele>
        <time>2021-02-17T08:45:16Z</time>
      </trkpt>
      <trkpt lat="45.28133" lon="6.16355">
        <ele>1826.5</ele>
        <time>2021-02-17T08:45:17Z</time>
      </trkpt>
      <trkpt lat="45.28133" lon="6.16354">
        <ele>1826.6</ele>
        <time>2021-02-17T08:45:18Z</time>
      </trkpt>
      <trkpt lat="45.28132" lon="6.16354">
        <ele>1826.7</ele>
        <time>2021-02-17T08:45:19Z</time>
      </trkpt>
      <trkpt lat="45.28131" lon="6.16354">
        <ele>1826.8</ele>
        <time>2021-02-17T08:45:20Z</time>
      </trkpt>
      <trkpt lat="45.28131" lon="6.16354">
        <ele>1826.9</ele>
        <time>2021-02-17T08:45:21Z</time>
      </trkpt>
      <trkpt lat="45.2813" lon="6.16353">
        <ele>1827</ele>
        <time>2021-02-17T08:45:22Z</time>
      </trkpt>
      <trkpt lat="45.2813" lon="6.16352">
        <ele>1827.1</ele>
        <time>2021-02-17T08:45:23Z</time>
      </trkpt>
      <trkpt lat="45.28129" lon="6.16352">
        <ele>1827.2</ele>
        <time>2021-02-17T08:45:24Z</time>
      </trkpt>
      <trkpt lat="45.28129" lon="6.16351">
        <ele>1827.3</ele>
        <time>2021-02-17T08:45:25Z</time>
      </trkpt>
      <trkpt lat="45.28128" lon="6.1635">
        <ele>1827.5</ele>
        <time>2021-02-17T08:45:26Z</time>
      </trkpt>
      <trkpt lat="45.28128" lon="6.16349">
        <ele>1827.6</ele>
        <time>2021-02-17T08:45:27Z</time>
      </trkpt>
      <trkpt lat="45.28128" lon="6.16348">
        <ele>1827.7</ele>
        <time>2021-02-17T08:45:28Z</time>
      </trkpt>
      <trkpt lat="45.28127" lon="6.16347">
        <ele>1827.8</ele>
        <time>2021-02-17T08:45:29Z</time>
      </trkpt>
      <trkpt lat="45.28127" lon="6.16346">
        <ele>1827.8</ele>
        <time>2021-02-17T08:45:30Z</time>
      </trkpt>
      <trkpt lat="45.28127" lon="6.16346">
        <ele>1827.9</ele>
        <time>2021-02-17T08:45:31Z</time>
      </trkpt>
      <trkpt lat="45.28127" lon="6.16345">
        <ele>1828</ele>
        <time>2021-02-17T08:45:32Z</time>
      </trkpt>
      <trkpt lat="45.28127" lon="6.16344">
        <ele>1828.1</ele>
        <time>2021-02-17T08:45:33Z</time>
      </trkpt>
      <trkpt lat="45.28127" lon="6.16344">
        <ele>1828.1</ele>
        <time>2021-02-17T08:45:34Z</time>
      </trkpt>
      <trkpt lat="45.28127" lon="6.16343">
        <ele>1828.2</ele>
        <time>2021-02-17T08:45:35Z</time>
      </trkpt>
      <trkpt lat="45.28127" lon="6.16342">
        <ele>1828.3</ele>
        <time>2021-02-17T08:45:36Z</time>
      </trkpt>
      <trkpt lat="45.28126" lon="6.16341">
        <ele>1828.4</ele>
        <time>2021-02-17T08:45:37Z</time>
      </trkpt>
      <trkpt lat="45.28126" lon="6.1634">
        <ele>1828.5</ele>
        <time>2021-02-17T08:45:38Z</time>
      </trkpt>
      <trkpt lat="45.28126" lon="6.16339">
        <ele>1828.7</ele>
        <time>2021-02-17T08:45:39Z</time>
      </trkpt>
      <trkpt lat="45.28126" lon="6.16337">
        <ele>1828.9</ele>
        <time>2021-02-17T08:45:40Z</time>
      </trkpt>
      <trkpt lat="45.28126" lon="6.16336">
        <ele>1829</ele>
        <time>2021-02-17T08:45:41Z</time>
      </trkpt>
      <trkpt lat="45.28126" lon="6.16334">
        <ele>1829.1</ele>
        <time>2021-02-17T08:45:42Z</time>
      </trkpt>
      <trkpt lat="45.28127" lon="6.16333">
        <ele>1829.3</ele>
        <time>2021-02-17T08:45:43Z</time>
      </trkpt>
      <trkpt lat="45.28127" lon="6.16332">
        <ele>1829.4</ele>
        <time>2021-02-17T08:45:44Z</time>
      </trkpt>
      <trkpt lat="45.28127" lon="6.1633">
        <ele>1829.6</ele>
        <time>2021-02-17T08:45:45Z</time>
      </trkpt>
      <trkpt lat="45.28127" lon="6.16329">
        <ele>1829.8</ele>
        <time>2021-02-17T08:45:46Z</time>
      </trkpt>
      <trkpt lat="45.28128" lon="6.16328">
        <ele>1829.9</ele>
        <time>2021-02-17T08:45:47Z</time>
      </trkpt>
      <trkpt lat="45.28128" lon="6.16327">
        <ele>1830.1</ele>
        <time>2021-02-17T08:45:48Z</time>
      </trkpt>
      <trkpt lat="45.28129" lon="6.16325">
        <ele>1830.2</ele>
        <time>2021-02-17T08:45:49Z</time>
      </trkpt>
      <trkpt lat="45.28129" lon="6.16324">
        <ele>1830.4</ele>
        <time>2021-02-17T08:45:50Z</time>
      </trkpt>
      <trkpt lat="45.2813" lon="6.16322">
        <ele>1830.7</ele>
        <time>2021-02-17T08:45:51Z</time>
      </trkpt>
      <trkpt lat="45.2813" lon="6.16321">
        <ele>1830.8</ele>
        <time>2021-02-17T08:45:52Z</time>
      </trkpt>
      <trkpt lat="45.2813" lon="6.1632">
        <ele>1831</ele>
        <time>2021-02-17T08:45:53Z</time>
      </trkpt>
      <trkpt lat="45.2813" lon="6.16319">
        <ele>1831.1</ele>
        <time>2021-02-17T08:45:54Z</time>
      </trkpt>
      <trkpt lat="45.2813" lon="6.16317">
        <ele>1831.3</ele>
        <time>2021-02-17T08:45:55Z</time>
      </trkpt>
      <trkpt lat="45.2813" lon="6.16316">
        <ele>1831.4</ele>
        <time>2021-02-17T08:45:56Z</time>
      </trkpt>
      <trkpt lat="45.2813" lon="6.16315">
        <ele>1831.5</ele>
        <time>2021-02-17T08:45:57Z</time>
      </trkpt>
      <trkpt lat="45.2813" lon="6.16315">
        <ele>1831.6</ele>
        <time>2021-02-17T08:45:58Z</time>
      </trkpt>
      <trkpt lat="45.28131" lon="6.16314">
        <ele>1831.7</ele>
        <time>2021-02-17T08:45:59Z</time>
      </trkpt>
      <trkpt lat="45.28131" lon="6.16313">
        <ele>1831.8</ele>
        <time>2021-02-17T08:46:00Z</time>
      </trkpt>
      <trkpt lat="45.2813" lon="6.16312">
        <ele>1832</ele>
        <time>2021-02-17T08:46:01Z</time>
      </trkpt>
      <trkpt lat="45.2813" lon="6.16311">
        <ele>1832.1</ele>
        <time>2021-02-17T08:46:02Z</time>
      </trkpt>
      <trkpt lat="45.28129" lon="6.1631">
        <ele>1832.2</ele>
        <time>2021-02-17T08:46:03Z</time>
      </trkpt>
      <trkpt lat="45.28129" lon="6.16309">
        <ele>1832.4</ele>
        <time>2021-02-17T08:46:04Z</time>
      </trkpt>
      <trkpt lat="45.28128" lon="6.16308">
        <ele>1832.6</ele>
        <time>2021-02-17T08:46:05Z</time>
      </trkpt>
      <trkpt lat="45.28128" lon="6.16307">
        <ele>1832.7</ele>
        <time>2021-02-17T08:46:06Z</time>
      </trkpt>
      <trkpt lat="45.28128" lon="6.16306">
        <ele>1832.9</ele>
        <time>2021-02-17T08:46:07Z</time>
      </trkpt>
      <trkpt lat="45.28127" lon="6.16305">
        <ele>1833</ele>
        <time>2021-02-17T08:46:08Z</time>
      </trkpt>
      <trkpt lat="45.28127" lon="6.16304">
        <ele>1833.1</ele>
        <time>2021-02-17T08:46:09Z</time>
      </trkpt>
      <trkpt lat="45.28127" lon="6.16303">
        <ele>1833.3</ele>
        <time>2021-02-17T08:46:10Z</time>
      </trkpt>
      <trkpt lat="45.28128" lon="6.16302">
        <ele>1833.4</ele>
        <time>2021-02-17T08:46:11Z</time>
      </trkpt>
      <trkpt lat="45.28128" lon="6.16301">
        <ele>1833.6</ele>
        <time>2021-02-17T08:46:12Z</time>
      </trkpt>
      <trkpt lat="45.28128" lon="6.163">
        <ele>1833.7</ele>
        <time>2021-02-17T08:46:13Z</time>
      </trkpt>
      <trkpt lat="45.28129" lon="6.16298">
        <ele>1833.9</ele>
        <time>2021-02-17T08:46:14Z</time>
      </trkpt>
      <trkpt lat="45.28129" lon="6.16297">
        <ele>1834</ele>
        <time>2021-02-17T08:46:15Z</time>
      </trkpt>
      <trkpt lat="45.28129" lon="6.16296">
        <ele>1834.1</ele>
        <time>2021-02-17T08:46:16Z</time>
      </trkpt>
      <trkpt lat="45.28129" lon="6.16296">
        <ele>1834.2</ele>
        <time>2021-02-17T08:46:17Z</time>
      </trkpt>
      <trkpt lat="45.2813" lon="6.16295">
        <ele>1834.3</ele>
        <time>2021-02-17T08:46:18Z</time>
      </trkpt>
      <trkpt lat="45.2813" lon="6.16294">
        <ele>1834.4</ele>
        <time>2021-02-17T08:46:19Z</time>
      </trkpt>
      <trkpt lat="45.2813" lon="6.16293">
        <ele>1834.6</ele>
        <time>2021-02-17T08:46:20Z</time>
      </trkpt>
      <trkpt lat="45.2813" lon="6.16292">
        <ele>1834.7</ele>
        <time>2021-02-17T08:46:21Z</time>
      </trkpt>
      <trkpt lat="45.2813" lon="6.16291">
        <ele>1834.8</ele>
        <time>2021-02-17T08:46:22Z</time>
      </trkpt>
      <trkpt lat="45.2813" lon="6.1629">
        <ele>1834.9</ele>
        <time>2021-02-17T08:46:23Z</time>
      </trkpt>
      <trkpt lat="45.2813" lon="6.1629">
        <ele>1834.9</ele>
        <time>2021-02-17T08:46:24Z</time>
      </trkpt>
      <trkpt lat="45.2813" lon="6.16289">
        <ele>1835.1</ele>
        <time>2021-02-17T08:46:25Z</time>
      </trkpt>
      <trkpt lat="45.2813" lon="6.16288">
        <ele>1835.2</ele>
        <time>2021-02-17T08:46:26Z</time>
      </trkpt>
      <trkpt lat="45.2813" lon="6.16287">
        <ele>1835.3</ele>
        <time>2021-02-17T08:46:27Z</time>
      </trkpt>
      <trkpt lat="45.2813" lon="6.16286">
        <ele>1835.3</ele>
        <time>2021-02-17T08:46:28Z</time>
      </trkpt>
      <trkpt lat="45.2813" lon="6.16286">
        <ele>1835.4</ele>
        <time>2021-02-17T08:46:29Z</time>
      </trkpt>
      <trkpt lat="45.28129" lon="6.16285">
        <ele>1835.5</ele>
        <time>2021-02-17T08:46:30Z</time>
      </trkpt>
      <trkpt lat="45.28129" lon="6.16284">
        <ele>1835.6</ele>
        <time>2021-02-17T08:46:31Z</time>
      </trkpt>
      <trkpt lat="45.28129" lon="6.16284">
        <ele>1835.7</ele>
        <time>2021-02-17T08:46:32Z</time>
      </trkpt>
      <trkpt lat="45.28129" lon="6.16283">
        <ele>1835.8</ele>
        <time>2021-02-17T08:46:33Z</time>
      </trkpt>
      <trkpt lat="45.28128" lon="6.16282">
        <ele>1835.9</ele>
        <time>2021-02-17T08:46:34Z</time>
      </trkpt>
      <trkpt lat="45.28128" lon="6.16281">
        <ele>1836</ele>
        <time>2021-02-17T08:46:35Z</time>
      </trkpt>
      <trkpt lat="45.28128" lon="6.1628">
        <ele>1836.2</ele>
        <time>2021-02-17T08:46:36Z</time>
      </trkpt>
      <trkpt lat="45.28128" lon="6.16279">
        <ele>1836.3</ele>
        <time>2021-02-17T08:46:37Z</time>
      </trkpt>
      <trkpt lat="45.28128" lon="6.16278">
        <ele>1836.4</ele>
        <time>2021-02-17T08:46:38Z</time>
      </trkpt>
      <trkpt lat="45.28128" lon="6.16277">
        <ele>1836.5</ele>
        <time>2021-02-17T08:46:39Z</time>
      </trkpt>
      <trkpt lat="45.28128" lon="6.16276">
        <ele>1836.7</ele>
        <time>2021-02-17T08:46:40Z</time>
      </trkpt>
      <trkpt lat="45.28128" lon="6.16275">
        <ele>1836.7</ele>
        <time>2021-02-17T08:46:41Z</time>
      </trkpt>
      <trkpt lat="45.28128" lon="6.16275">
        <ele>1836.8</ele>
        <time>2021-02-17T08:46:42Z</time>
      </trkpt>
      <trkpt lat="45.28127" lon="6.16274">
        <ele>1837</ele>
        <time>2021-02-17T08:46:43Z</time>
      </trkpt>
      <trkpt lat="45.28127" lon="6.16273">
        <ele>1837.1</ele>
        <time>2021-02-17T08:46:44Z</time>
      </trkpt>
      <trkpt lat="45.28127" lon="6.16272">
        <ele>1837.2</ele>
        <time>2021-02-17T08:46:45Z</time>
      </trkpt>
      <trkpt lat="45.28127" lon="6.16271">
        <ele>1837.3</ele>
        <time>2021-02-17T08:46:46Z</time>
      </trkpt>
      <trkpt lat="45.28127" lon="6.1627">
        <ele>1837.4</ele>
        <time>2021-02-17T08:46:47Z</time>
      </trkpt>
      <trkpt lat="45.28127" lon="6.16269">
        <ele>1837.5</ele>
        <time>2021-02-17T08:46:48Z</time>
      </trkpt>
      <trkpt lat="45.28127" lon="6.16268">
        <ele>1837.6</ele>
        <time>2021-02-17T08:46:49Z</time>
      </trkpt>
      <trkpt lat="45.28127" lon="6.16267">
        <ele>1837.7</ele>
        <time>2021-02-17T08:46:50Z</time>
      </trkpt>
      <trkpt lat="45.28127" lon="6.16266">
        <ele>1837.9</ele>
        <time>2021-02-17T08:46:51Z</time>
      </trkpt>
      <trkpt lat="45.28127" lon="6.16265">
        <ele>1838</ele>
        <time>2021-02-17T08:46:52Z</time>
      </trkpt>
      <trkpt lat="45.28127" lon="6.16264">
        <ele>1838.2</ele>
        <time>2021-02-17T08:46:53Z</time>
      </trkpt>
      <trkpt lat="45.28127" lon="6.16263">
        <ele>1838.3</ele>
        <time>2021-02-17T08:46:54Z</time>
      </trkpt>
      <trkpt lat="45.28127" lon="6.16262">
        <ele>1838.5</ele>
        <time>2021-02-17T08:46:55Z</time>
      </trkpt>
      <trkpt lat="45.28127" lon="6.16261">
        <ele>1838.6</ele>
        <time>2021-02-17T08:46:56Z</time>
      </trkpt>
      <trkpt lat="45.28128" lon="6.1626">
        <ele>1838.7</ele>
        <time>2021-02-17T08:46:57Z</time>
      </trkpt>
      <trkpt lat="45.28128" lon="6.16259">
        <ele>1838.9</ele>
        <time>2021-02-17T08:46:58Z</time>
      </trkpt>
      <trkpt lat="45.28129" lon="6.16258">
        <ele>1839</ele>
        <time>2021-02-17T08:46:59Z</time>
      </trkpt>
      <trkpt lat="45.28129" lon="6.16257">
        <ele>1839.2</ele>
        <time>2021-02-17T08:47:00Z</time>
      </trkpt>
      <trkpt lat="45.2813" lon="6.16257">
        <ele>1839.3</ele>
        <time>2021-02-17T08:47:01Z</time>
      </trkpt>
      <trkpt lat="45.2813" lon="6.16256">
        <ele>1839.5</ele>
        <time>2021-02-17T08:47:02Z</time>
      </trkpt>
      <trkpt lat="45.28131" lon="6.16255">
        <ele>1839.6</ele>
        <time>2021-02-17T08:47:03Z</time>
      </trkpt>
      <trkpt lat="45.28131" lon="6.16255">
        <ele>1839.7</ele>
        <time>2021-02-17T08:47:04Z</time>
      </trkpt>
      <trkpt lat="45.28131" lon="6.16254">
        <ele>1839.8</ele>
        <time>2021-02-17T08:47:05Z</time>
      </trkpt>
      <trkpt lat="45.28132" lon="6.16253">
        <ele>1839.9</ele>
        <time>2021-02-17T08:47:06Z</time>
      </trkpt>
      <trkpt lat="45.28132" lon="6.16252">
        <ele>1840.1</ele>
        <time>2021-02-17T08:47:07Z</time>
      </trkpt>
      <trkpt lat="45.28132" lon="6.16251">
        <ele>1840.2</ele>
        <time>2021-02-17T08:47:08Z</time>
      </trkpt>
      <trkpt lat="45.28132" lon="6.1625">
        <ele>1840.3</ele>
        <time>2021-02-17T08:47:09Z</time>
      </trkpt>
      <trkpt lat="45.28132" lon="6.16249">
        <ele>1840.5</ele>
        <time>2021-02-17T08:47:10Z</time>
      </trkpt>
      <trkpt lat="45.28132" lon="6.16248">
        <ele>1840.6</ele>
        <time>2021-02-17T08:47:11Z</time>
      </trkpt>
      <trkpt lat="45.28132" lon="6.16247">
        <ele>1840.8</ele>
        <time>2021-02-17T08:47:12Z</time>
      </trkpt>
      <trkpt lat="45.28132" lon="6.16247">
        <ele>1840.9</ele>
        <time>2021-02-17T08:47:13Z</time>
      </trkpt>
      <trkpt lat="45.28132" lon="6.16246">
        <ele>1841.1</ele>
        <time>2021-02-17T08:47:14Z</time>
      </trkpt>
      <trkpt lat="45.28133" lon="6.16245">
        <ele>1841.2</ele>
        <time>2021-02-17T08:47:15Z</time>
      </trkpt>
      <trkpt lat="45.28133" lon="6.16244">
        <ele>1841.4</ele>
        <time>2021-02-17T08:47:16Z</time>
      </trkpt>
      <trkpt lat="45.28133" lon="6.16243">
        <ele>1841.5</ele>
        <time>2021-02-17T08:47:17Z</time>
      </trkpt>
      <trkpt lat="45.28133" lon="6.16242">
        <ele>1841.7</ele>
        <time>2021-02-17T08:47:18Z</time>
      </trkpt>
      <trkpt lat="45.28133" lon="6.16241">
        <ele>1841.8</ele>
        <time>2021-02-17T08:47:19Z</time>
      </trkpt>
      <trkpt lat="45.28133" lon="6.1624">
        <ele>1841.9</ele>
        <time>2021-02-17T08:47:20Z</time>
      </trkpt>
      <trkpt lat="45.28133" lon="6.16239">
        <ele>1842.1</ele>
        <time>2021-02-17T08:47:21Z</time>
      </trkpt>
      <trkpt lat="45.28133" lon="6.16239">
        <ele>1842.2</ele>
        <time>2021-02-17T08:47:22Z</time>
      </trkpt>
      <trkpt lat="45.28133" lon="6.16238">
        <ele>1842.4</ele>
        <time>2021-02-17T08:47:23Z</time>
      </trkpt>
      <trkpt lat="45.28133" lon="6.16237">
        <ele>1842.5</ele>
        <time>2021-02-17T08:47:24Z</time>
      </trkpt>
      <trkpt lat="45.28133" lon="6.16237">
        <ele>1842.6</ele>
        <time>2021-02-17T08:47:25Z</time>
      </trkpt>
      <trkpt lat="45.28133" lon="6.16236">
        <ele>1842.7</ele>
        <time>2021-02-17T08:47:26Z</time>
      </trkpt>
      <trkpt lat="45.28133" lon="6.16235">
        <ele>1842.8</ele>
        <time>2021-02-17T08:47:27Z</time>
      </trkpt>
      <trkpt lat="45.28133" lon="6.16234">
        <ele>1843</ele>
        <time>2021-02-17T08:47:28Z</time>
      </trkpt>
      <trkpt lat="45.28133" lon="6.16234">
        <ele>1843.1</ele>
        <time>2021-02-17T08:47:29Z</time>
      </trkpt>
      <trkpt lat="45.28133" lon="6.16233">
        <ele>1843.3</ele>
        <time>2021-02-17T08:47:30Z</time>
      </trkpt>
      <trkpt lat="45.28133" lon="6.16232">
        <ele>1843.4</ele>
        <time>2021-02-17T08:47:31Z</time>
      </trkpt>
      <trkpt lat="45.28133" lon="6.16231">
        <ele>1843.5</ele>
        <time>2021-02-17T08:47:32Z</time>
      </trkpt>
      <trkpt lat="45.28133" lon="6.16231">
        <ele>1843.7</ele>
        <time>2021-02-17T08:47:33Z</time>
      </trkpt>
      <trkpt lat="45.28133" lon="6.1623">
        <ele>1843.8</ele>
        <time>2021-02-17T08:47:34Z</time>
      </trkpt>
      <trkpt lat="45.28133" lon="6.16229">
        <ele>1844</ele>
        <time>2021-02-17T08:47:35Z</time>
      </trkpt>
      <trkpt lat="45.28133" lon="6.16228">
        <ele>1844.1</ele>
        <time>2021-02-17T08:47:36Z</time>
      </trkpt>
      <trkpt lat="45.28133" lon="6.16228">
        <ele>1844.2</ele>
        <time>2021-02-17T08:47:37Z</time>
      </trkpt>
      <trkpt lat="45.28133" lon="6.16227">
        <ele>1844.4</ele>
        <time>2021-02-17T08:47:38Z</time>
      </trkpt>
      <trkpt lat="45.28133" lon="6.16226">
        <ele>1844.5</ele>
        <time>2021-02-17T08:47:39Z</time>
      </trkpt>
      <trkpt lat="45.28133" lon="6.16226">
        <ele>1844.6</ele>
        <time>2021-02-17T08:47:40Z</time>
      </trkpt>
      <trkpt lat="45.28133" lon="6.16225">
        <ele>1844.8</ele>
        <time>2021-02-17T08:47:41Z</time>
      </trkpt>
      <trkpt lat="45.28133" lon="6.16224">
        <ele>1844.9</ele>
        <time>2021-02-17T08:47:42Z</time>
      </trkpt>
      <trkpt lat="45.28133" lon="6.16223">
        <ele>1845.1</ele>
        <time>2021-02-17T08:47:43Z</time>
      </trkpt>
      <trkpt lat="45.28132" lon="6.1622">
        <ele>1845.9</ele>
        <time>2021-02-17T08:47:46Z</time>
      </trkpt>
      <trkpt lat="45.28132" lon="6.16219">
        <ele>1846</ele>
        <time>2021-02-17T08:47:47Z</time>
      </trkpt>
      <trkpt lat="45.28132" lon="6.16218">
        <ele>1846.2</ele>
        <time>2021-02-17T08:47:48Z</time>
      </trkpt>
      <trkpt lat="45.28132" lon="6.16218">
        <ele>1846.3</ele>
        <time>2021-02-17T08:47:49Z</time>
      </trkpt>
      <trkpt lat="45.28132" lon="6.16217">
        <ele>1846.5</ele>
        <time>2021-02-17T08:47:50Z</time>
      </trkpt>
      <trkpt lat="45.28132" lon="6.16216">
        <ele>1846.7</ele>
        <time>2021-02-17T08:47:51Z</time>
      </trkpt>
      <trkpt lat="45.28132" lon="6.16215">
        <ele>1846.9</ele>
        <time>2021-02-17T08:47:52Z</time>
      </trkpt>
      <trkpt lat="45.28132" lon="6.16214">
        <ele>1847.1</ele>
        <time>2021-02-17T08:47:53Z</time>
      </trkpt>
      <trkpt lat="45.28132" lon="6.16213">
        <ele>1847.3</ele>
        <time>2021-02-17T08:47:54Z</time>
      </trkpt>
      <trkpt lat="45.28132" lon="6.16212">
        <ele>1847.6</ele>
        <time>2021-02-17T08:47:55Z</time>
      </trkpt>
      <trkpt lat="45.28132" lon="6.16211">
        <ele>1847.8</ele>
        <time>2021-02-17T08:47:56Z</time>
      </trkpt>
      <trkpt lat="45.28132" lon="6.1621">
        <ele>1847.9</ele>
        <time>2021-02-17T08:47:57Z</time>
      </trkpt>
      <trkpt lat="45.28132" lon="6.1621">
        <ele>1848</ele>
        <time>2021-02-17T08:47:58Z</time>
      </trkpt>
      <trkpt lat="45.28131" lon="6.16209">
        <ele>1848.2</ele>
        <time>2021-02-17T08:47:59Z</time>
      </trkpt>
      <trkpt lat="45.28131" lon="6.16208">
        <ele>1848.4</ele>
        <time>2021-02-17T08:48:00Z</time>
      </trkpt>
      <trkpt lat="45.28131" lon="6.16207">
        <ele>1848.6</ele>
        <time>2021-02-17T08:48:01Z</time>
      </trkpt>
      <trkpt lat="45.28131" lon="6.16207">
        <ele>1848.7</ele>
        <time>2021-02-17T08:48:02Z</time>
      </trkpt>
      <trkpt lat="45.28131" lon="6.16206">
        <ele>1848.9</ele>
        <time>2021-02-17T08:48:03Z</time>
      </trkpt>
      <trkpt lat="45.28131" lon="6.16205">
        <ele>1849.1</ele>
        <time>2021-02-17T08:48:04Z</time>
      </trkpt>
      <trkpt lat="45.28131" lon="6.16204">
        <ele>1849.3</ele>
        <time>2021-02-17T08:48:05Z</time>
      </trkpt>
      <trkpt lat="45.28131" lon="6.16203">
        <ele>1849.5</ele>
        <time>2021-02-17T08:48:06Z</time>
      </trkpt>
      <trkpt lat="45.28131" lon="6.16202">
        <ele>1849.7</ele>
        <time>2021-02-17T08:48:07Z</time>
      </trkpt>
      <trkpt lat="45.28131" lon="6.16201">
        <ele>1850</ele>
        <time>2021-02-17T08:48:08Z</time>
      </trkpt>
      <trkpt lat="45.28131" lon="6.162">
        <ele>1850.2</ele>
        <time>2021-02-17T08:48:09Z</time>
      </trkpt>
      <trkpt lat="45.28131" lon="6.16199">
        <ele>1850.4</ele>
        <time>2021-02-17T08:48:10Z</time>
      </trkpt>
      <trkpt lat="45.28131" lon="6.16198">
        <ele>1850.6</ele>
        <time>2021-02-17T08:48:11Z</time>
      </trkpt>
      <trkpt lat="45.28131" lon="6.16197">
        <ele>1850.8</ele>
        <time>2021-02-17T08:48:12Z</time>
      </trkpt>
      <trkpt lat="45.28131" lon="6.16196">
        <ele>1851</ele>
        <time>2021-02-17T08:48:13Z</time>
      </trkpt>
      <trkpt lat="45.2813" lon="6.16195">
        <ele>1851.2</ele>
        <time>2021-02-17T08:48:14Z</time>
      </trkpt>
      <trkpt lat="45.2813" lon="6.16194">
        <ele>1851.4</ele>
        <time>2021-02-17T08:48:15Z</time>
      </trkpt>
      <trkpt lat="45.2813" lon="6.16193">
        <ele>1851.5</ele>
        <time>2021-02-17T08:48:16Z</time>
      </trkpt>
      <trkpt lat="45.2813" lon="6.16193">
        <ele>1851.6</ele>
        <time>2021-02-17T08:48:17Z</time>
      </trkpt>
      <trkpt lat="45.2813" lon="6.16192">
        <ele>1851.8</ele>
        <time>2021-02-17T08:48:18Z</time>
      </trkpt>
      <trkpt lat="45.2813" lon="6.16191">
        <ele>1852</ele>
        <time>2021-02-17T08:48:19Z</time>
      </trkpt>
      <trkpt lat="45.2813" lon="6.1619">
        <ele>1852.1</ele>
        <time>2021-02-17T08:48:20Z</time>
      </trkpt>
      <trkpt lat="45.2813" lon="6.1619">
        <ele>1852.2</ele>
        <time>2021-02-17T08:48:21Z</time>
      </trkpt>
      <trkpt lat="45.2813" lon="6.16189">
        <ele>1852.4</ele>
        <time>2021-02-17T08:48:22Z</time>
      </trkpt>
      <trkpt lat="45.28131" lon="6.16188">
        <ele>1852.5</ele>
        <time>2021-02-17T08:48:23Z</time>
      </trkpt>
      <trkpt lat="45.28131" lon="6.16187">
        <ele>1852.8</ele>
        <time>2021-02-17T08:48:24Z</time>
      </trkpt>
      <trkpt lat="45.28132" lon="6.16186">
        <ele>1853.1</ele>
        <time>2021-02-17T08:48:25Z</time>
      </trkpt>
      <trkpt lat="45.28132" lon="6.16185">
        <ele>1853.3</ele>
        <time>2021-02-17T08:48:26Z</time>
      </trkpt>
      <trkpt lat="45.28133" lon="6.16184">
        <ele>1853.5</ele>
        <time>2021-02-17T08:48:27Z</time>
      </trkpt>
      <trkpt lat="45.28133" lon="6.16183">
        <ele>1853.7</ele>
        <time>2021-02-17T08:48:28Z</time>
      </trkpt>
      <trkpt lat="45.28134" lon="6.16182">
        <ele>1853.9</ele>
        <time>2021-02-17T08:48:29Z</time>
      </trkpt>
      <trkpt lat="45.28135" lon="6.16182">
        <ele>1854.1</ele>
        <time>2021-02-17T08:48:30Z</time>
      </trkpt>
      <trkpt lat="45.28135" lon="6.16181">
        <ele>1854.2</ele>
        <time>2021-02-17T08:48:31Z</time>
      </trkpt>
      <trkpt lat="45.28136" lon="6.16181">
        <ele>1854.4</ele>
        <time>2021-02-17T08:48:32Z</time>
      </trkpt>
      <trkpt lat="45.28136" lon="6.16181">
        <ele>1854.5</ele>
        <time>2021-02-17T08:48:33Z</time>
      </trkpt>
      <trkpt lat="45.28137" lon="6.16181">
        <ele>1854.6</ele>
        <time>2021-02-17T08:48:34Z</time>
      </trkpt>
      <trkpt lat="45.28137" lon="6.16181">
        <ele>1854.6</ele>
        <time>2021-02-17T08:48:35Z</time>
      </trkpt>
      <trkpt lat="45.28137" lon="6.16181">
        <ele>1854.7</ele>
        <time>2021-02-17T08:48:36Z</time>
      </trkpt>
      <trkpt lat="45.28137" lon="6.16181">
        <ele>1854.8</ele>
        <time>2021-02-17T08:48:37Z</time>
      </trkpt>
      <trkpt lat="45.28138" lon="6.16182">
        <ele>1854.9</ele>
        <time>2021-02-17T08:48:38Z</time>
      </trkpt>
      <trkpt lat="45.28138" lon="6.16182">
        <ele>1855</ele>
        <time>2021-02-17T08:48:39Z</time>
      </trkpt>
      <trkpt lat="45.28138" lon="6.16183">
        <ele>1855.1</ele>
        <time>2021-02-17T08:48:40Z</time>
      </trkpt>
      <trkpt lat="45.28143" lon="6.16187">
        <ele>1856.6</ele>
        <time>2021-02-17T08:48:50Z</time>
      </trkpt>
      <trkpt lat="45.28144" lon="6.16188">
        <ele>1856.7</ele>
        <time>2021-02-17T08:48:51Z</time>
      </trkpt>
      <trkpt lat="45.28145" lon="6.16188">
        <ele>1857</ele>
        <time>2021-02-17T08:48:52Z</time>
      </trkpt>
      <trkpt lat="45.28145" lon="6.16189">
        <ele>1857.2</ele>
        <time>2021-02-17T08:48:53Z</time>
      </trkpt>
      <trkpt lat="45.28146" lon="6.1619">
        <ele>1857.4</ele>
        <time>2021-02-17T08:48:54Z</time>
      </trkpt>
      <trkpt lat="45.28147" lon="6.1619">
        <ele>1857.5</ele>
        <time>2021-02-17T08:48:55Z</time>
      </trkpt>
      <trkpt lat="45.28147" lon="6.1619">
        <ele>1857.6</ele>
        <time>2021-02-17T08:48:56Z</time>
      </trkpt>
      <trkpt lat="45.28147" lon="6.1619">
        <ele>1857.7</ele>
        <time>2021-02-17T08:48:57Z</time>
      </trkpt>
      <trkpt lat="45.28148" lon="6.16191">
        <ele>1857.8</ele>
        <time>2021-02-17T08:48:58Z</time>
      </trkpt>
      <trkpt lat="45.28148" lon="6.16191">
        <ele>1857.9</ele>
        <time>2021-02-17T08:48:59Z</time>
      </trkpt>
      <trkpt lat="45.28148" lon="6.16191">
        <ele>1858</ele>
        <time>2021-02-17T08:49:00Z</time>
      </trkpt>
      <trkpt lat="45.28149" lon="6.16191">
        <ele>1858.2</ele>
        <time>2021-02-17T08:49:01Z</time>
      </trkpt>
      <trkpt lat="45.2815" lon="6.16192">
        <ele>1858.3</ele>
        <time>2021-02-17T08:49:02Z</time>
      </trkpt>
      <trkpt lat="45.2815" lon="6.16192">
        <ele>1858.5</ele>
        <time>2021-02-17T08:49:03Z</time>
      </trkpt>
      <trkpt lat="45.28151" lon="6.16192">
        <ele>1858.7</ele>
        <time>2021-02-17T08:49:04Z</time>
      </trkpt>
      <trkpt lat="45.28152" lon="6.16192">
        <ele>1858.9</ele>
        <time>2021-02-17T08:49:05Z</time>
      </trkpt>
      <trkpt lat="45.28152" lon="6.16193">
        <ele>1859</ele>
        <time>2021-02-17T08:49:06Z</time>
      </trkpt>
      <trkpt lat="45.28153" lon="6.16193">
        <ele>1859.1</ele>
        <time>2021-02-17T08:49:07Z</time>
      </trkpt>
      <trkpt lat="45.28153" lon="6.16193">
        <ele>1859.3</ele>
        <time>2021-02-17T08:49:08Z</time>
      </trkpt>
      <trkpt lat="45.28154" lon="6.16193">
        <ele>1859.5</ele>
        <time>2021-02-17T08:49:09Z</time>
      </trkpt>
      <trkpt lat="45.28154" lon="6.16193">
        <ele>1859.6</ele>
        <time>2021-02-17T08:49:10Z</time>
      </trkpt>
      <trkpt lat="45.28155" lon="6.16193">
        <ele>1859.7</ele>
        <time>2021-02-17T08:49:11Z</time>
      </trkpt>
      <trkpt lat="45.28155" lon="6.16193">
        <ele>1859.8</ele>
        <time>2021-02-17T08:49:12Z</time>
      </trkpt>
      <trkpt lat="45.28156" lon="6.16193">
        <ele>1859.9</ele>
        <time>2021-02-17T08:49:13Z</time>
      </trkpt>
      <trkpt lat="45.28156" lon="6.16193">
        <ele>1860</ele>
        <time>2021-02-17T08:49:14Z</time>
      </trkpt>
      <trkpt lat="45.28156" lon="6.16194">
        <ele>1860.2</ele>
        <time>2021-02-17T08:49:15Z</time>
      </trkpt>
      <trkpt lat="45.28157" lon="6.16194">
        <ele>1860.3</ele>
        <time>2021-02-17T08:49:16Z</time>
      </trkpt>
      <trkpt lat="45.28158" lon="6.16195">
        <ele>1860.5</ele>
        <time>2021-02-17T08:49:17Z</time>
      </trkpt>
      <trkpt lat="45.28158" lon="6.16195">
        <ele>1860.6</ele>
        <time>2021-02-17T08:49:18Z</time>
      </trkpt>
      <trkpt lat="45.28159" lon="6.16195">
        <ele>1860.8</ele>
        <time>2021-02-17T08:49:19Z</time>
      </trkpt>
      <trkpt lat="45.28159" lon="6.16196">
        <ele>1861</ele>
        <time>2021-02-17T08:49:20Z</time>
      </trkpt>
      <trkpt lat="45.2816" lon="6.16196">
        <ele>1861.1</ele>
        <time>2021-02-17T08:49:21Z</time>
      </trkpt>
      <trkpt lat="45.28161" lon="6.16196">
        <ele>1861.3</ele>
        <time>2021-02-17T08:49:22Z</time>
      </trkpt>
      <trkpt lat="45.28161" lon="6.16197">
        <ele>1861.4</ele>
        <time>2021-02-17T08:49:23Z</time>
      </trkpt>
      <trkpt lat="45.28162" lon="6.16198">
        <ele>1861.6</ele>
        <time>2021-02-17T08:49:24Z</time>
      </trkpt>
      <trkpt lat="45.28162" lon="6.16198">
        <ele>1861.8</ele>
        <time>2021-02-17T08:49:25Z</time>
      </trkpt>
      <trkpt lat="45.28163" lon="6.16199">
        <ele>1861.9</ele>
        <time>2021-02-17T08:49:26Z</time>
      </trkpt>
      <trkpt lat="45.28163" lon="6.162">
        <ele>1862</ele>
        <time>2021-02-17T08:49:27Z</time>
      </trkpt>
      <trkpt lat="45.28163" lon="6.162">
        <ele>1862.2</ele>
        <time>2021-02-17T08:49:28Z</time>
      </trkpt>
      <trkpt lat="45.28164" lon="6.16201">
        <ele>1862.3</ele>
        <time>2021-02-17T08:49:29Z</time>
      </trkpt>
      <trkpt lat="45.28164" lon="6.16201">
        <ele>1862.4</ele>
        <time>2021-02-17T08:49:30Z</time>
      </trkpt>
      <trkpt lat="45.28165" lon="6.16201">
        <ele>1862.5</ele>
        <time>2021-02-17T08:49:31Z</time>
      </trkpt>
      <trkpt lat="45.28165" lon="6.16202">
        <ele>1862.6</ele>
        <time>2021-02-17T08:49:32Z</time>
      </trkpt>
      <trkpt lat="45.28166" lon="6.16202">
        <ele>1862.7</ele>
        <time>2021-02-17T08:49:33Z</time>
      </trkpt>
      <trkpt lat="45.28166" lon="6.16202">
        <ele>1862.8</ele>
        <time>2021-02-17T08:49:34Z</time>
      </trkpt>
      <trkpt lat="45.28167" lon="6.16202">
        <ele>1862.9</ele>
        <time>2021-02-17T08:49:35Z</time>
      </trkpt>
      <trkpt lat="45.28167" lon="6.16202">
        <ele>1863</ele>
        <time>2021-02-17T08:49:36Z</time>
      </trkpt>
      <trkpt lat="45.28167" lon="6.16202">
        <ele>1863.1</ele>
        <time>2021-02-17T08:49:37Z</time>
      </trkpt>
      <trkpt lat="45.28168" lon="6.16202">
        <ele>1863.2</ele>
        <time>2021-02-17T08:49:38Z</time>
      </trkpt>
      <trkpt lat="45.28168" lon="6.16203">
        <ele>1863.3</ele>
        <time>2021-02-17T08:49:39Z</time>
      </trkpt>
      <trkpt lat="45.28169" lon="6.16203">
        <ele>1863.4</ele>
        <time>2021-02-17T08:49:40Z</time>
      </trkpt>
      <trkpt lat="45.28169" lon="6.16204">
        <ele>1863.5</ele>
        <time>2021-02-17T08:49:41Z</time>
      </trkpt>
      <trkpt lat="45.2817" lon="6.16204">
        <ele>1863.6</ele>
        <time>2021-02-17T08:49:42Z</time>
      </trkpt>
      <trkpt lat="45.28171" lon="6.16205">
        <ele>1863.7</ele>
        <time>2021-02-17T08:49:43Z</time>
      </trkpt>
      <trkpt lat="45.28171" lon="6.16205">
        <ele>1863.8</ele>
        <time>2021-02-17T08:49:44Z</time>
      </trkpt>
      <trkpt lat="45.28171" lon="6.16205">
        <ele>1863.9</ele>
        <time>2021-02-17T08:49:45Z</time>
      </trkpt>
      <trkpt lat="45.28172" lon="6.16205">
        <ele>1863.9</ele>
        <time>2021-02-17T08:49:46Z</time>
      </trkpt>
      <trkpt lat="45.28172" lon="6.16206">
        <ele>1864</ele>
        <time>2021-02-17T08:49:47Z</time>
      </trkpt>
      <trkpt lat="45.28173" lon="6.16206">
        <ele>1864.2</ele>
        <time>2021-02-17T08:49:48Z</time>
      </trkpt>
      <trkpt lat="45.28173" lon="6.16206">
        <ele>1864.2</ele>
        <time>2021-02-17T08:49:49Z</time>
      </trkpt>
      <trkpt lat="45.28174" lon="6.16206">
        <ele>1864.3</ele>
        <time>2021-02-17T08:49:50Z</time>
      </trkpt>
      <trkpt lat="45.28174" lon="6.16206">
        <ele>1864.4</ele>
        <time>2021-02-17T08:49:51Z</time>
      </trkpt>
      <trkpt lat="45.28175" lon="6.16206">
        <ele>1864.6</ele>
        <time>2021-02-17T08:49:52Z</time>
      </trkpt>
      <trkpt lat="45.28176" lon="6.16206">
        <ele>1864.7</ele>
        <time>2021-02-17T08:49:53Z</time>
      </trkpt>
      <trkpt lat="45.28177" lon="6.16206">
        <ele>1864.9</ele>
        <time>2021-02-17T08:49:54Z</time>
      </trkpt>
      <trkpt lat="45.28178" lon="6.16206">
        <ele>1865.1</ele>
        <time>2021-02-17T08:49:55Z</time>
      </trkpt>
      <trkpt lat="45.28179" lon="6.16206">
        <ele>1865.3</ele>
        <time>2021-02-17T08:49:56Z</time>
      </trkpt>
      <trkpt lat="45.2818" lon="6.16206">
        <ele>1865.4</ele>
        <time>2021-02-17T08:49:57Z</time>
      </trkpt>
      <trkpt lat="45.28181" lon="6.16206">
        <ele>1865.5</ele>
        <time>2021-02-17T08:49:58Z</time>
      </trkpt>
      <trkpt lat="45.28181" lon="6.16206">
        <ele>1865.6</ele>
        <time>2021-02-17T08:49:59Z</time>
      </trkpt>
      <trkpt lat="45.28182" lon="6.16206">
        <ele>1865.6</ele>
        <time>2021-02-17T08:50:00Z</time>
      </trkpt>
      <trkpt lat="45.28182" lon="6.16206">
        <ele>1865.7</ele>
        <time>2021-02-17T08:50:01Z</time>
      </trkpt>
      <trkpt lat="45.28183" lon="6.16207">
        <ele>1865.9</ele>
        <time>2021-02-17T08:50:02Z</time>
      </trkpt>
      <trkpt lat="45.28184" lon="6.16207">
        <ele>1866</ele>
        <time>2021-02-17T08:50:03Z</time>
      </trkpt>
      <trkpt lat="45.28185" lon="6.16207">
        <ele>1866.3</ele>
        <time>2021-02-17T08:50:04Z</time>
      </trkpt>
      <trkpt lat="45.28186" lon="6.16207">
        <ele>1866.5</ele>
        <time>2021-02-17T08:50:05Z</time>
      </trkpt>
      <trkpt lat="45.28187" lon="6.16207">
        <ele>1866.8</ele>
        <time>2021-02-17T08:50:06Z</time>
      </trkpt>
      <trkpt lat="45.28189" lon="6.16207">
        <ele>1867</ele>
        <time>2021-02-17T08:50:07Z</time>
      </trkpt>
      <trkpt lat="45.2819" lon="6.16206">
        <ele>1867.3</ele>
        <time>2021-02-17T08:50:08Z</time>
      </trkpt>
      <trkpt lat="45.28191" lon="6.16206">
        <ele>1867.5</ele>
        <time>2021-02-17T08:50:09Z</time>
      </trkpt>
      <trkpt lat="45.28192" lon="6.16206">
        <ele>1867.7</ele>
        <time>2021-02-17T08:50:10Z</time>
      </trkpt>
      <trkpt lat="45.28192" lon="6.16206">
        <ele>1867.7</ele>
        <time>2021-02-17T08:50:11Z</time>
      </trkpt>
      <trkpt lat="45.28192" lon="6.16206">
        <ele>1867.8</ele>
        <time>2021-02-17T08:50:12Z</time>
      </trkpt>
      <trkpt lat="45.28193" lon="6.16206">
        <ele>1868</ele>
        <time>2021-02-17T08:50:13Z</time>
      </trkpt>
      <trkpt lat="45.28193" lon="6.16206">
        <ele>1868</ele>
        <time>2021-02-17T08:50:14Z</time>
      </trkpt>
      <trkpt lat="45.28194" lon="6.16205">
        <ele>1868.1</ele>
        <time>2021-02-17T08:50:15Z</time>
      </trkpt>
      <trkpt lat="45.28194" lon="6.16205">
        <ele>1868.2</ele>
        <time>2021-02-17T08:50:16Z</time>
      </trkpt>
      <trkpt lat="45.28194" lon="6.16205">
        <ele>1868.3</ele>
        <time>2021-02-17T08:50:17Z</time>
      </trkpt>
      <trkpt lat="45.28195" lon="6.16205">
        <ele>1868.4</ele>
        <time>2021-02-17T08:50:18Z</time>
      </trkpt>
      <trkpt lat="45.28196" lon="6.16205">
        <ele>1868.6</ele>
        <time>2021-02-17T08:50:19Z</time>
      </trkpt>
      <trkpt lat="45.28196" lon="6.16205">
        <ele>1868.7</ele>
        <time>2021-02-17T08:50:20Z</time>
      </trkpt>
      <trkpt lat="45.28196" lon="6.16205">
        <ele>1868.8</ele>
        <time>2021-02-17T08:50:21Z</time>
      </trkpt>
      <trkpt lat="45.28196" lon="6.16204">
        <ele>1868.8</ele>
        <time>2021-02-17T08:50:22Z</time>
      </trkpt>
      <trkpt lat="45.28196" lon="6.16204">
        <ele>1868.8</ele>
        <time>2021-02-17T08:50:23Z</time>
      </trkpt>
      <trkpt lat="45.28197" lon="6.16204">
        <ele>1868.9</ele>
        <time>2021-02-17T08:50:24Z</time>
      </trkpt>
      <trkpt lat="45.28197" lon="6.16205">
        <ele>1869</ele>
        <time>2021-02-17T08:50:25Z</time>
      </trkpt>
      <trkpt lat="45.28198" lon="6.16205">
        <ele>1869.1</ele>
        <time>2021-02-17T08:50:26Z</time>
      </trkpt>
      <trkpt lat="45.28198" lon="6.16205">
        <ele>1869.3</ele>
        <time>2021-02-17T08:50:27Z</time>
      </trkpt>
      <trkpt lat="45.28199" lon="6.16206">
        <ele>1869.5</ele>
        <time>2021-02-17T08:50:28Z</time>
      </trkpt>
      <trkpt lat="45.282" lon="6.16206">
        <ele>1869.7</ele>
        <time>2021-02-17T08:50:29Z</time>
      </trkpt>
      <trkpt lat="45.282" lon="6.16206">
        <ele>1869.9</ele>
        <time>2021-02-17T08:50:30Z</time>
      </trkpt>
      <trkpt lat="45.28201" lon="6.16206">
        <ele>1870.1</ele>
        <time>2021-02-17T08:50:31Z</time>
      </trkpt>
      <trkpt lat="45.28202" lon="6.16207">
        <ele>1870.4</ele>
        <time>2021-02-17T08:50:32Z</time>
      </trkpt>
      <trkpt lat="45.28203" lon="6.16207">
        <ele>1870.5</ele>
        <time>2021-02-17T08:50:33Z</time>
      </trkpt>
      <trkpt lat="45.28204" lon="6.16208">
        <ele>1870.7</ele>
        <time>2021-02-17T08:50:34Z</time>
      </trkpt>
      <trkpt lat="45.28205" lon="6.16208">
        <ele>1870.9</ele>
        <time>2021-02-17T08:50:35Z</time>
      </trkpt>
      <trkpt lat="45.28206" lon="6.16208">
        <ele>1871.2</ele>
        <time>2021-02-17T08:50:36Z</time>
      </trkpt>
      <trkpt lat="45.28207" lon="6.16208">
        <ele>1871.6</ele>
        <time>2021-02-17T08:50:37Z</time>
      </trkpt>
      <trkpt lat="45.28208" lon="6.16208">
        <ele>1871.8</ele>
        <time>2021-02-17T08:50:38Z</time>
      </trkpt>
      <trkpt lat="45.28209" lon="6.16208">
        <ele>1871.9</ele>
        <time>2021-02-17T08:50:39Z</time>
      </trkpt>
      <trkpt lat="45.2821" lon="6.16207">
        <ele>1872.2</ele>
        <time>2021-02-17T08:50:40Z</time>
      </trkpt>
      <trkpt lat="45.28211" lon="6.16207">
        <ele>1872.5</ele>
        <time>2021-02-17T08:50:41Z</time>
      </trkpt>
      <trkpt lat="45.28212" lon="6.16207">
        <ele>1872.9</ele>
        <time>2021-02-17T08:50:42Z</time>
      </trkpt>
      <trkpt lat="45.28214" lon="6.16207">
        <ele>1873.3</ele>
        <time>2021-02-17T08:50:43Z</time>
      </trkpt>
      <trkpt lat="45.28215" lon="6.16207">
        <ele>1873.7</ele>
        <time>2021-02-17T08:50:44Z</time>
      </trkpt>
      <trkpt lat="45.28216" lon="6.16207">
        <ele>1874</ele>
        <time>2021-02-17T08:50:45Z</time>
      </trkpt>
      <trkpt lat="45.28217" lon="6.16206">
        <ele>1874.3</ele>
        <time>2021-02-17T08:50:46Z</time>
      </trkpt>
      <trkpt lat="45.28218" lon="6.16206">
        <ele>1874.5</ele>
        <time>2021-02-17T08:50:47Z</time>
      </trkpt>
      <trkpt lat="45.28219" lon="6.16206">
        <ele>1874.8</ele>
        <time>2021-02-17T08:50:48Z</time>
      </trkpt>
      <trkpt lat="45.2822" lon="6.16206">
        <ele>1875</ele>
        <time>2021-02-17T08:50:49Z</time>
      </trkpt>
      <trkpt lat="45.2822" lon="6.16206">
        <ele>1875.1</ele>
        <time>2021-02-17T08:50:50Z</time>
      </trkpt>
      <trkpt lat="45.28221" lon="6.16206">
        <ele>1875.2</ele>
        <time>2021-02-17T08:50:51Z</time>
      </trkpt>
      <trkpt lat="45.28221" lon="6.16206">
        <ele>1875.3</ele>
        <time>2021-02-17T08:50:52Z</time>
      </trkpt>
      <trkpt lat="45.28222" lon="6.16206">
        <ele>1875.4</ele>
        <time>2021-02-17T08:50:53Z</time>
      </trkpt>
      <trkpt lat="45.28222" lon="6.16206">
        <ele>1875.6</ele>
        <time>2021-02-17T08:50:54Z</time>
      </trkpt>
      <trkpt lat="45.28223" lon="6.16205">
        <ele>1875.7</ele>
        <time>2021-02-17T08:50:55Z</time>
      </trkpt>
      <trkpt lat="45.28223" lon="6.16205">
        <ele>1875.9</ele>
        <time>2021-02-17T08:50:56Z</time>
      </trkpt>
      <trkpt lat="45.28224" lon="6.16205">
        <ele>1876</ele>
        <time>2021-02-17T08:50:57Z</time>
      </trkpt>
      <trkpt lat="45.28224" lon="6.16205">
        <ele>1876.1</ele>
        <time>2021-02-17T08:50:58Z</time>
      </trkpt>
      <trkpt lat="45.28224" lon="6.16204">
        <ele>1876.3</ele>
        <time>2021-02-17T08:50:59Z</time>
      </trkpt>
      <trkpt lat="45.28225" lon="6.16204">
        <ele>1876.4</ele>
        <time>2021-02-17T08:51:00Z</time>
      </trkpt>
      <trkpt lat="45.28225" lon="6.16203">
        <ele>1876.5</ele>
        <time>2021-02-17T08:51:01Z</time>
      </trkpt>
      <trkpt lat="45.28225" lon="6.16203">
        <ele>1876.6</ele>
        <time>2021-02-17T08:51:02Z</time>
      </trkpt>
      <trkpt lat="45.28225" lon="6.16202">
        <ele>1876.7</ele>
        <time>2021-02-17T08:51:03Z</time>
      </trkpt>
      <trkpt lat="45.28226" lon="6.16202">
        <ele>1876.9</ele>
        <time>2021-02-17T08:51:04Z</time>
      </trkpt>
      <trkpt lat="45.28227" lon="6.16201">
        <ele>1877</ele>
        <time>2021-02-17T08:51:05Z</time>
      </trkpt>
      <trkpt lat="45.28227" lon="6.16201">
        <ele>1877.1</ele>
        <time>2021-02-17T08:51:06Z</time>
      </trkpt>
      <trkpt lat="45.28227" lon="6.16201">
        <ele>1877.2</ele>
        <time>2021-02-17T08:51:07Z</time>
      </trkpt>
      <trkpt lat="45.28227" lon="6.162">
        <ele>1877.2</ele>
        <time>2021-02-17T08:51:08Z</time>
      </trkpt>
      <trkpt lat="45.28227" lon="6.16199">
        <ele>1877.4</ele>
        <time>2021-02-17T08:51:09Z</time>
      </trkpt>
      <trkpt lat="45.28228" lon="6.16198">
        <ele>1877.6</ele>
        <time>2021-02-17T08:51:10Z</time>
      </trkpt>
      <trkpt lat="45.28228" lon="6.16198">
        <ele>1877.7</ele>
        <time>2021-02-17T08:51:11Z</time>
      </trkpt>
      <trkpt lat="45.28229" lon="6.16197">
        <ele>1877.9</ele>
        <time>2021-02-17T08:51:12Z</time>
      </trkpt>
      <trkpt lat="45.28229" lon="6.16196">
        <ele>1878</ele>
        <time>2021-02-17T08:51:13Z</time>
      </trkpt>
      <trkpt lat="45.2823" lon="6.16195">
        <ele>1878.2</ele>
        <time>2021-02-17T08:51:14Z</time>
      </trkpt>
      <trkpt lat="45.2823" lon="6.16194">
        <ele>1878.4</ele>
        <time>2021-02-17T08:51:15Z</time>
      </trkpt>
      <trkpt lat="45.2823" lon="6.16193">
        <ele>1878.5</ele>
        <time>2021-02-17T08:51:16Z</time>
      </trkpt>
      <trkpt lat="45.2823" lon="6.16192">
        <ele>1878.7</ele>
        <time>2021-02-17T08:51:17Z</time>
      </trkpt>
      <trkpt lat="45.2823" lon="6.16191">
        <ele>1878.8</ele>
        <time>2021-02-17T08:51:18Z</time>
      </trkpt>
      <trkpt lat="45.2823" lon="6.1619">
        <ele>1878.9</ele>
        <time>2021-02-17T08:51:19Z</time>
      </trkpt>
      <trkpt lat="45.28231" lon="6.1619">
        <ele>1879</ele>
        <time>2021-02-17T08:51:20Z</time>
      </trkpt>
      <trkpt lat="45.28231" lon="6.16189">
        <ele>1879.1</ele>
        <time>2021-02-17T08:51:21Z</time>
      </trkpt>
      <trkpt lat="45.28231" lon="6.16188">
        <ele>1879.2</ele>
        <time>2021-02-17T08:51:22Z</time>
      </trkpt>
      <trkpt lat="45.28231" lon="6.16187">
        <ele>1879.3</ele>
        <time>2021-02-17T08:51:23Z</time>
      </trkpt>
      <trkpt lat="45.28231" lon="6.16187">
        <ele>1879.3</ele>
        <time>2021-02-17T08:51:24Z</time>
      </trkpt>
      <trkpt lat="45.28231" lon="6.16186">
        <ele>1879.4</ele>
        <time>2021-02-17T08:51:25Z</time>
      </trkpt>
      <trkpt lat="45.28231" lon="6.16186">
        <ele>1879.6</ele>
        <time>2021-02-17T08:51:26Z</time>
      </trkpt>
      <trkpt lat="45.28231" lon="6.16185">
        <ele>1879.7</ele>
        <time>2021-02-17T08:51:27Z</time>
      </trkpt>
      <trkpt lat="45.28232" lon="6.16184">
        <ele>1879.8</ele>
        <time>2021-02-17T08:51:28Z</time>
      </trkpt>
      <trkpt lat="45.28232" lon="6.16174">
        <ele>1881.2</ele>
        <time>2021-02-17T08:51:39Z</time>
      </trkpt>
      <trkpt lat="45.28232" lon="6.16173">
        <ele>1881.3</ele>
        <time>2021-02-17T08:51:40Z</time>
      </trkpt>
      <trkpt lat="45.28231" lon="6.16172">
        <ele>1881.4</ele>
        <time>2021-02-17T08:51:41Z</time>
      </trkpt>
      <trkpt lat="45.28231" lon="6.16172">
        <ele>1881.6</ele>
        <time>2021-02-17T08:51:42Z</time>
      </trkpt>
      <trkpt lat="45.28231" lon="6.16171">
        <ele>1881.7</ele>
        <time>2021-02-17T08:51:43Z</time>
      </trkpt>
      <trkpt lat="45.2823" lon="6.1617">
        <ele>1881.9</ele>
        <time>2021-02-17T08:51:44Z</time>
      </trkpt>
      <trkpt lat="45.2823" lon="6.16169">
        <ele>1882</ele>
        <time>2021-02-17T08:51:45Z</time>
      </trkpt>
      <trkpt lat="45.2823" lon="6.16168">
        <ele>1882.1</ele>
        <time>2021-02-17T08:51:46Z</time>
      </trkpt>
      <trkpt lat="45.28231" lon="6.16167">
        <ele>1882.3</ele>
        <time>2021-02-17T08:51:47Z</time>
      </trkpt>
      <trkpt lat="45.28231" lon="6.16166">
        <ele>1882.5</ele>
        <time>2021-02-17T08:51:48Z</time>
      </trkpt>
      <trkpt lat="45.28231" lon="6.16165">
        <ele>1882.6</ele>
        <time>2021-02-17T08:51:49Z</time>
      </trkpt>
      <trkpt lat="45.28231" lon="6.16165">
        <ele>1882.7</ele>
        <time>2021-02-17T08:51:50Z</time>
      </trkpt>
      <trkpt lat="45.28232" lon="6.16164">
        <ele>1882.8</ele>
        <time>2021-02-17T08:51:51Z</time>
      </trkpt>
      <trkpt lat="45.28232" lon="6.16164">
        <ele>1882.9</ele>
        <time>2021-02-17T08:51:52Z</time>
      </trkpt>
      <trkpt lat="45.28232" lon="6.16163">
        <ele>1883</ele>
        <time>2021-02-17T08:51:53Z</time>
      </trkpt>
      <trkpt lat="45.28232" lon="6.16162">
        <ele>1883.1</ele>
        <time>2021-02-17T08:51:54Z</time>
      </trkpt>
      <trkpt lat="45.28233" lon="6.16162">
        <ele>1883.3</ele>
        <time>2021-02-17T08:51:55Z</time>
      </trkpt>
      <trkpt lat="45.28233" lon="6.16161">
        <ele>1883.4</ele>
        <time>2021-02-17T08:51:56Z</time>
      </trkpt>
      <trkpt lat="45.28233" lon="6.1616">
        <ele>1883.5</ele>
        <time>2021-02-17T08:51:57Z</time>
      </trkpt>
      <trkpt lat="45.28233" lon="6.16159">
        <ele>1883.7</ele>
        <time>2021-02-17T08:51:58Z</time>
      </trkpt>
      <trkpt lat="45.28234" lon="6.16158">
        <ele>1883.9</ele>
        <time>2021-02-17T08:51:59Z</time>
      </trkpt>
      <trkpt lat="45.28234" lon="6.16157">
        <ele>1884</ele>
        <time>2021-02-17T08:52:00Z</time>
      </trkpt>
      <trkpt lat="45.28235" lon="6.16157">
        <ele>1884.2</ele>
        <time>2021-02-17T08:52:01Z</time>
      </trkpt>
      <trkpt lat="45.28235" lon="6.16156">
        <ele>1884.3</ele>
        <time>2021-02-17T08:52:02Z</time>
      </trkpt>
      <trkpt lat="45.28236" lon="6.16155">
        <ele>1884.5</ele>
        <time>2021-02-17T08:52:03Z</time>
      </trkpt>
      <trkpt lat="45.28236" lon="6.16154">
        <ele>1884.7</ele>
        <time>2021-02-17T08:52:04Z</time>
      </trkpt>
      <trkpt lat="45.28237" lon="6.16153">
        <ele>1884.9</ele>
        <time>2021-02-17T08:52:05Z</time>
      </trkpt>
      <trkpt lat="45.28237" lon="6.16152">
        <ele>1885.1</ele>
        <time>2021-02-17T08:52:06Z</time>
      </trkpt>
      <trkpt lat="45.28238" lon="6.16152">
        <ele>1885.2</ele>
        <time>2021-02-17T08:52:07Z</time>
      </trkpt>
      <trkpt lat="45.28238" lon="6.16151">
        <ele>1885.3</ele>
        <time>2021-02-17T08:52:08Z</time>
      </trkpt>
      <trkpt lat="45.28239" lon="6.1615">
        <ele>1885.5</ele>
        <time>2021-02-17T08:52:09Z</time>
      </trkpt>
      <trkpt lat="45.28239" lon="6.1615">
        <ele>1885.6</ele>
        <time>2021-02-17T08:52:10Z</time>
      </trkpt>
      <trkpt lat="45.2824" lon="6.16149">
        <ele>1885.8</ele>
        <time>2021-02-17T08:52:11Z</time>
      </trkpt>
      <trkpt lat="45.28241" lon="6.16149">
        <ele>1885.9</ele>
        <time>2021-02-17T08:52:12Z</time>
      </trkpt>
      <trkpt lat="45.28242" lon="6.16148">
        <ele>1886.2</ele>
        <time>2021-02-17T08:52:13Z</time>
      </trkpt>
      <trkpt lat="45.28243" lon="6.16148">
        <ele>1886.4</ele>
        <time>2021-02-17T08:52:14Z</time>
      </trkpt>
      <trkpt lat="45.28243" lon="6.16148">
        <ele>1886.6</ele>
        <time>2021-02-17T08:52:15Z</time>
      </trkpt>
      <trkpt lat="45.28244" lon="6.16147">
        <ele>1886.7</ele>
        <time>2021-02-17T08:52:16Z</time>
      </trkpt>
      <trkpt lat="45.28244" lon="6.16147">
        <ele>1886.8</ele>
        <time>2021-02-17T08:52:17Z</time>
      </trkpt>
      <trkpt lat="45.28245" lon="6.16147">
        <ele>1887</ele>
        <time>2021-02-17T08:52:18Z</time>
      </trkpt>
      <trkpt lat="45.28245" lon="6.16146">
        <ele>1887</ele>
        <time>2021-02-17T08:52:19Z</time>
      </trkpt>
      <trkpt lat="45.28245" lon="6.16146">
        <ele>1887.1</ele>
        <time>2021-02-17T08:52:20Z</time>
      </trkpt>
      <trkpt lat="45.28246" lon="6.16146">
        <ele>1887.2</ele>
        <time>2021-02-17T08:52:21Z</time>
      </trkpt>
      <trkpt lat="45.28247" lon="6.16145">
        <ele>1887.4</ele>
        <time>2021-02-17T08:52:22Z</time>
      </trkpt>
      <trkpt lat="45.28248" lon="6.16145">
        <ele>1887.6</ele>
        <time>2021-02-17T08:52:23Z</time>
      </trkpt>
      <trkpt lat="45.28248" lon="6.16144">
        <ele>1887.8</ele>
        <time>2021-02-17T08:52:24Z</time>
      </trkpt>
      <trkpt lat="45.28249" lon="6.16144">
        <ele>1887.9</ele>
        <time>2021-02-17T08:52:25Z</time>
      </trkpt>
      <trkpt lat="45.28249" lon="6.16144">
        <ele>1888</ele>
        <time>2021-02-17T08:52:26Z</time>
      </trkpt>
      <trkpt lat="45.28249" lon="6.16143">
        <ele>1888.1</ele>
        <time>2021-02-17T08:52:27Z</time>
      </trkpt>
      <trkpt lat="45.2825" lon="6.16143">
        <ele>1888.2</ele>
        <time>2021-02-17T08:52:28Z</time>
      </trkpt>
      <trkpt lat="45.2825" lon="6.16142">
        <ele>1888.3</ele>
        <time>2021-02-17T08:52:29Z</time>
      </trkpt>
      <trkpt lat="45.2825" lon="6.16142">
        <ele>1888.4</ele>
        <time>2021-02-17T08:52:30Z</time>
      </trkpt>
      <trkpt lat="45.2825" lon="6.16141">
        <ele>1888.5</ele>
        <time>2021-02-17T08:52:31Z</time>
      </trkpt>
      <trkpt lat="45.28251" lon="6.1614">
        <ele>1888.6</ele>
        <time>2021-02-17T08:52:32Z</time>
      </trkpt>
      <trkpt lat="45.28251" lon="6.1614">
        <ele>1888.7</ele>
        <time>2021-02-17T08:52:33Z</time>
      </trkpt>
      <trkpt lat="45.28251" lon="6.16139">
        <ele>1888.9</ele>
        <time>2021-02-17T08:52:34Z</time>
      </trkpt>
      <trkpt lat="45.28251" lon="6.16138">
        <ele>1889</ele>
        <time>2021-02-17T08:52:35Z</time>
      </trkpt>
      <trkpt lat="45.28251" lon="6.16137">
        <ele>1889.2</ele>
        <time>2021-02-17T08:52:36Z</time>
      </trkpt>
      <trkpt lat="45.28251" lon="6.16137">
        <ele>1889.3</ele>
        <time>2021-02-17T08:52:37Z</time>
      </trkpt>
      <trkpt lat="45.28251" lon="6.16136">
        <ele>1889.4</ele>
        <time>2021-02-17T08:52:38Z</time>
      </trkpt>
      <trkpt lat="45.28252" lon="6.16136">
        <ele>1889.6</ele>
        <time>2021-02-17T08:52:39Z</time>
      </trkpt>
      <trkpt lat="45.28252" lon="6.16135">
        <ele>1889.7</ele>
        <time>2021-02-17T08:52:40Z</time>
      </trkpt>
      <trkpt lat="45.28253" lon="6.16134">
        <ele>1889.9</ele>
        <time>2021-02-17T08:52:41Z</time>
      </trkpt>
      <trkpt lat="45.28253" lon="6.16134">
        <ele>1890</ele>
        <time>2021-02-17T08:52:42Z</time>
      </trkpt>
      <trkpt lat="45.28253" lon="6.16133">
        <ele>1890.1</ele>
        <time>2021-02-17T08:52:43Z</time>
      </trkpt>
      <trkpt lat="45.28253" lon="6.16133">
        <ele>1890.2</ele>
        <time>2021-02-17T08:52:44Z</time>
      </trkpt>
      <trkpt lat="45.28253" lon="6.16132">
        <ele>1890.4</ele>
        <time>2021-02-17T08:52:45Z</time>
      </trkpt>
      <trkpt lat="45.28253" lon="6.16131">
        <ele>1890.5</ele>
        <time>2021-02-17T08:52:46Z</time>
      </trkpt>
      <trkpt lat="45.28253" lon="6.1613">
        <ele>1890.7</ele>
        <time>2021-02-17T08:52:47Z</time>
      </trkpt>
      <trkpt lat="45.28253" lon="6.1613">
        <ele>1890.8</ele>
        <time>2021-02-17T08:52:48Z</time>
      </trkpt>
      <trkpt lat="45.28252" lon="6.16129">
        <ele>1891</ele>
        <time>2021-02-17T08:52:49Z</time>
      </trkpt>
      <trkpt lat="45.28252" lon="6.16128">
        <ele>1891.2</ele>
        <time>2021-02-17T08:52:50Z</time>
      </trkpt>
      <trkpt lat="45.28252" lon="6.16127">
        <ele>1891.4</ele>
        <time>2021-02-17T08:52:51Z</time>
      </trkpt>
      <trkpt lat="45.28258" lon="6.16118">
        <ele>1893.9</ele>
        <time>2021-02-17T08:53:04Z</time>
      </trkpt>
      <trkpt lat="45.28259" lon="6.16118">
        <ele>1894.2</ele>
        <time>2021-02-17T08:53:05Z</time>
      </trkpt>
      <trkpt lat="45.2826" lon="6.16117">
        <ele>1894.4</ele>
        <time>2021-02-17T08:53:06Z</time>
      </trkpt>
      <trkpt lat="45.28261" lon="6.16117">
        <ele>1894.6</ele>
        <time>2021-02-17T08:53:07Z</time>
      </trkpt>
      <trkpt lat="45.28262" lon="6.16117">
        <ele>1894.9</ele>
        <time>2021-02-17T08:53:08Z</time>
      </trkpt>
      <trkpt lat="45.28262" lon="6.16116">
        <ele>1895.1</ele>
        <time>2021-02-17T08:53:09Z</time>
      </trkpt>
      <trkpt lat="45.28262" lon="6.16115">
        <ele>1895.2</ele>
        <time>2021-02-17T08:53:10Z</time>
      </trkpt>
      <trkpt lat="45.28262" lon="6.16115">
        <ele>1895.3</ele>
        <time>2021-02-17T08:53:11Z</time>
      </trkpt>
      <trkpt lat="45.28263" lon="6.16114">
        <ele>1895.5</ele>
        <time>2021-02-17T08:53:12Z</time>
      </trkpt>
      <trkpt lat="45.28263" lon="6.16114">
        <ele>1895.7</ele>
        <time>2021-02-17T08:53:13Z</time>
      </trkpt>
      <trkpt lat="45.28264" lon="6.16113">
        <ele>1896</ele>
        <time>2021-02-17T08:53:14Z</time>
      </trkpt>
      <trkpt lat="45.28265" lon="6.16113">
        <ele>1896.3</ele>
        <time>2021-02-17T08:53:15Z</time>
      </trkpt>
      <trkpt lat="45.28266" lon="6.16112">
        <ele>1896.5</ele>
        <time>2021-02-17T08:53:16Z</time>
      </trkpt>
      <trkpt lat="45.28267" lon="6.16112">
        <ele>1896.7</ele>
        <time>2021-02-17T08:53:17Z</time>
      </trkpt>
      <trkpt lat="45.28267" lon="6.16112">
        <ele>1896.9</ele>
        <time>2021-02-17T08:53:18Z</time>
      </trkpt>
      <trkpt lat="45.28268" lon="6.16112">
        <ele>1897</ele>
        <time>2021-02-17T08:53:19Z</time>
      </trkpt>
      <trkpt lat="45.28269" lon="6.16113">
        <ele>1897.2</ele>
        <time>2021-02-17T08:53:20Z</time>
      </trkpt>
      <trkpt lat="45.28269" lon="6.16113">
        <ele>1897.3</ele>
        <time>2021-02-17T08:53:21Z</time>
      </trkpt>
      <trkpt lat="45.28269" lon="6.16114">
        <ele>1897.5</ele>
        <time>2021-02-17T08:53:22Z</time>
      </trkpt>
      <trkpt lat="45.28269" lon="6.16114">
        <ele>1897.6</ele>
        <time>2021-02-17T08:53:23Z</time>
      </trkpt>
      <trkpt lat="45.2827" lon="6.16115">
        <ele>1897.8</ele>
        <time>2021-02-17T08:53:24Z</time>
      </trkpt>
      <trkpt lat="45.2827" lon="6.16116">
        <ele>1898</ele>
        <time>2021-02-17T08:53:25Z</time>
      </trkpt>
      <trkpt lat="45.2827" lon="6.16117">
        <ele>1898.1</ele>
        <time>2021-02-17T08:53:26Z</time>
      </trkpt>
      <trkpt lat="45.2827" lon="6.16118">
        <ele>1898.3</ele>
        <time>2021-02-17T08:53:27Z</time>
      </trkpt>
      <trkpt lat="45.2827" lon="6.16118">
        <ele>1898.5</ele>
        <time>2021-02-17T08:53:28Z</time>
      </trkpt>
      <trkpt lat="45.28271" lon="6.16119">
        <ele>1898.6</ele>
        <time>2021-02-17T08:53:29Z</time>
      </trkpt>
      <trkpt lat="45.28271" lon="6.16119">
        <ele>1898.7</ele>
        <time>2021-02-17T08:53:30Z</time>
      </trkpt>
      <trkpt lat="45.28272" lon="6.1612">
        <ele>1898.8</ele>
        <time>2021-02-17T08:53:31Z</time>
      </trkpt>
      <trkpt lat="45.28272" lon="6.1612">
        <ele>1899</ele>
        <time>2021-02-17T08:53:32Z</time>
      </trkpt>
      <trkpt lat="45.28272" lon="6.16121">
        <ele>1899</ele>
        <time>2021-02-17T08:53:33Z</time>
      </trkpt>
      <trkpt lat="45.28272" lon="6.16121">
        <ele>1899.2</ele>
        <time>2021-02-17T08:53:34Z</time>
      </trkpt>
      <trkpt lat="45.28273" lon="6.16121">
        <ele>1899.3</ele>
        <time>2021-02-17T08:53:35Z</time>
      </trkpt>
      <trkpt lat="45.28273" lon="6.16122">
        <ele>1899.3</ele>
        <time>2021-02-17T08:53:36Z</time>
      </trkpt>
      <trkpt lat="45.28273" lon="6.16122">
        <ele>1899.4</ele>
        <time>2021-02-17T08:53:37Z</time>
      </trkpt>
      <trkpt lat="45.28273" lon="6.16122">
        <ele>1899.5</ele>
        <time>2021-02-17T08:53:38Z</time>
      </trkpt>
      <trkpt lat="45.28274" lon="6.16122">
        <ele>1899.6</ele>
        <time>2021-02-17T08:53:39Z</time>
      </trkpt>
      <trkpt lat="45.28274" lon="6.16123">
        <ele>1899.8</ele>
        <time>2021-02-17T08:53:40Z</time>
      </trkpt>
      <trkpt lat="45.28274" lon="6.16123">
        <ele>1899.8</ele>
        <time>2021-02-17T08:53:41Z</time>
      </trkpt>
      <trkpt lat="45.28275" lon="6.16123">
        <ele>1900</ele>
        <time>2021-02-17T08:53:42Z</time>
      </trkpt>
      <trkpt lat="45.28275" lon="6.16123">
        <ele>1900</ele>
        <time>2021-02-17T08:53:43Z</time>
      </trkpt>
      <trkpt lat="45.28275" lon="6.16123">
        <ele>1900.1</ele>
        <time>2021-02-17T08:53:44Z</time>
      </trkpt>
      <trkpt lat="45.28276" lon="6.16124">
        <ele>1900.3</ele>
        <time>2021-02-17T08:53:45Z</time>
      </trkpt>
      <trkpt lat="45.28276" lon="6.16124">
        <ele>1900.4</ele>
        <time>2021-02-17T08:53:46Z</time>
      </trkpt>
      <trkpt lat="45.28276" lon="6.16125">
        <ele>1900.5</ele>
        <time>2021-02-17T08:53:47Z</time>
      </trkpt>
      <trkpt lat="45.28277" lon="6.16125">
        <ele>1900.6</ele>
        <time>2021-02-17T08:53:48Z</time>
      </trkpt>
      <trkpt lat="45.28277" lon="6.16126">
        <ele>1900.7</ele>
        <time>2021-02-17T08:53:49Z</time>
      </trkpt>
      <trkpt lat="45.28277" lon="6.16126">
        <ele>1900.8</ele>
        <time>2021-02-17T08:53:50Z</time>
      </trkpt>
      <trkpt lat="45.28277" lon="6.16127">
        <ele>1901</ele>
        <time>2021-02-17T08:53:51Z</time>
      </trkpt>
      <trkpt lat="45.28277" lon="6.16129">
        <ele>1901.2</ele>
        <time>2021-02-17T08:53:52Z</time>
      </trkpt>
      <trkpt lat="45.28277" lon="6.16129">
        <ele>1901.4</ele>
        <time>2021-02-17T08:53:53Z</time>
      </trkpt>
      <trkpt lat="45.28278" lon="6.1613">
        <ele>1901.5</ele>
        <time>2021-02-17T08:53:54Z</time>
      </trkpt>
      <trkpt lat="45.28278" lon="6.16131">
        <ele>1901.6</ele>
        <time>2021-02-17T08:53:55Z</time>
      </trkpt>
      <trkpt lat="45.28278" lon="6.16131">
        <ele>1901.7</ele>
        <time>2021-02-17T08:53:56Z</time>
      </trkpt>
      <trkpt lat="45.28279" lon="6.16131">
        <ele>1901.9</ele>
        <time>2021-02-17T08:53:57Z</time>
      </trkpt>
      <trkpt lat="45.2828" lon="6.16131">
        <ele>1902</ele>
        <time>2021-02-17T08:53:58Z</time>
      </trkpt>
      <trkpt lat="45.2828" lon="6.1613">
        <ele>1902.2</ele>
        <time>2021-02-17T08:53:59Z</time>
      </trkpt>
      <trkpt lat="45.28281" lon="6.1613">
        <ele>1902.3</ele>
        <time>2021-02-17T08:54:00Z</time>
      </trkpt>
      <trkpt lat="45.28281" lon="6.16129">
        <ele>1902.5</ele>
        <time>2021-02-17T08:54:01Z</time>
      </trkpt>
      <trkpt lat="45.28282" lon="6.16129">
        <ele>1902.6</ele>
        <time>2021-02-17T08:54:02Z</time>
      </trkpt>
      <trkpt lat="45.28283" lon="6.16128">
        <ele>1902.8</ele>
        <time>2021-02-17T08:54:03Z</time>
      </trkpt>
      <trkpt lat="45.28283" lon="6.16128">
        <ele>1903</ele>
        <time>2021-02-17T08:54:04Z</time>
      </trkpt>
      <trkpt lat="45.28283" lon="6.16127">
        <ele>1903.1</ele>
        <time>2021-02-17T08:54:05Z</time>
      </trkpt>
      <trkpt lat="45.2829" lon="6.16121">
        <ele>1904.8</ele>
        <time>2021-02-17T08:54:15Z</time>
      </trkpt>
      <trkpt lat="45.2829" lon="6.1612">
        <ele>1905</ele>
        <time>2021-02-17T08:54:16Z</time>
      </trkpt>
      <trkpt lat="45.28291" lon="6.1612">
        <ele>1905.1</ele>
        <time>2021-02-17T08:54:17Z</time>
      </trkpt>
      <trkpt lat="45.28291" lon="6.16119">
        <ele>1905.3</ele>
        <time>2021-02-17T08:54:18Z</time>
      </trkpt>
      <trkpt lat="45.28291" lon="6.16119">
        <ele>1905.4</ele>
        <time>2021-02-17T08:54:19Z</time>
      </trkpt>
      <trkpt lat="45.28292" lon="6.16118">
        <ele>1905.5</ele>
        <time>2021-02-17T08:54:20Z</time>
      </trkpt>
      <trkpt lat="45.28292" lon="6.16117">
        <ele>1905.6</ele>
        <time>2021-02-17T08:54:21Z</time>
      </trkpt>
      <trkpt lat="45.28292" lon="6.16116">
        <ele>1905.8</ele>
        <time>2021-02-17T08:54:22Z</time>
      </trkpt>
      <trkpt lat="45.28292" lon="6.16115">
        <ele>1906</ele>
        <time>2021-02-17T08:54:23Z</time>
      </trkpt>
      <trkpt lat="45.28293" lon="6.16115">
        <ele>1906.2</ele>
        <time>2021-02-17T08:54:24Z</time>
      </trkpt>
      <trkpt lat="45.28293" lon="6.16114">
        <ele>1906.3</ele>
        <time>2021-02-17T08:54:25Z</time>
      </trkpt>
      <trkpt lat="45.28294" lon="6.16113">
        <ele>1906.5</ele>
        <time>2021-02-17T08:54:26Z</time>
      </trkpt>
      <trkpt lat="45.28294" lon="6.16112">
        <ele>1906.6</ele>
        <time>2021-02-17T08:54:27Z</time>
      </trkpt>
      <trkpt lat="45.28294" lon="6.16111">
        <ele>1906.8</ele>
        <time>2021-02-17T08:54:28Z</time>
      </trkpt>
      <trkpt lat="45.28294" lon="6.1611">
        <ele>1906.9</ele>
        <time>2021-02-17T08:54:29Z</time>
      </trkpt>
      <trkpt lat="45.28295" lon="6.1611">
        <ele>1907</ele>
        <time>2021-02-17T08:54:30Z</time>
      </trkpt>
      <trkpt lat="45.28295" lon="6.1611">
        <ele>1907</ele>
        <time>2021-02-17T08:54:31Z</time>
      </trkpt>
      <trkpt lat="45.28295" lon="6.1611">
        <ele>1907.1</ele>
        <time>2021-02-17T08:54:32Z</time>
      </trkpt>
      <trkpt lat="45.28295" lon="6.16109">
        <ele>1907.2</ele>
        <time>2021-02-17T08:54:33Z</time>
      </trkpt>
      <trkpt lat="45.28295" lon="6.16109">
        <ele>1907.2</ele>
        <time>2021-02-17T08:54:34Z</time>
      </trkpt>
      <trkpt lat="45.28295" lon="6.16108">
        <ele>1907.3</ele>
        <time>2021-02-17T08:54:35Z</time>
      </trkpt>
      <trkpt lat="45.28295" lon="6.16108">
        <ele>1907.4</ele>
        <time>2021-02-17T08:54:36Z</time>
      </trkpt>
      <trkpt lat="45.28295" lon="6.16107">
        <ele>1907.5</ele>
        <time>2021-02-17T08:54:37Z</time>
      </trkpt>
      <trkpt lat="45.28296" lon="6.16106">
        <ele>1907.7</ele>
        <time>2021-02-17T08:54:38Z</time>
      </trkpt>
      <trkpt lat="45.28296" lon="6.16103">
        <ele>1908.3</ele>
        <time>2021-02-17T08:54:42Z</time>
      </trkpt>
      <trkpt lat="45.28296" lon="6.16102">
        <ele>1908.4</ele>
        <time>2021-02-17T08:54:43Z</time>
      </trkpt>
      <trkpt lat="45.28296" lon="6.16101">
        <ele>1908.5</ele>
        <time>2021-02-17T08:54:44Z</time>
      </trkpt>
      <trkpt lat="45.28296" lon="6.16101">
        <ele>1908.6</ele>
        <time>2021-02-17T08:54:45Z</time>
      </trkpt>
      <trkpt lat="45.28296" lon="6.161">
        <ele>1908.8</ele>
        <time>2021-02-17T08:54:46Z</time>
      </trkpt>
      <trkpt lat="45.28295" lon="6.161">
        <ele>1909</ele>
        <time>2021-02-17T08:54:47Z</time>
      </trkpt>
      <trkpt lat="45.28294" lon="6.16099">
        <ele>1909.1</ele>
        <time>2021-02-17T08:54:48Z</time>
      </trkpt>
      <trkpt lat="45.28294" lon="6.16099">
        <ele>1909.3</ele>
        <time>2021-02-17T08:54:49Z</time>
      </trkpt>
      <trkpt lat="45.28294" lon="6.16098">
        <ele>1909.4</ele>
        <time>2021-02-17T08:54:50Z</time>
      </trkpt>
      <trkpt lat="45.28294" lon="6.16097">
        <ele>1909.5</ele>
        <time>2021-02-17T08:54:51Z</time>
      </trkpt>
      <trkpt lat="45.28294" lon="6.16097">
        <ele>1909.6</ele>
        <time>2021-02-17T08:54:52Z</time>
      </trkpt>
      <trkpt lat="45.28294" lon="6.16096">
        <ele>1909.8</ele>
        <time>2021-02-17T08:54:53Z</time>
      </trkpt>
      <trkpt lat="45.28294" lon="6.16095">
        <ele>1909.9</ele>
        <time>2021-02-17T08:54:54Z</time>
      </trkpt>
      <trkpt lat="45.28294" lon="6.16095">
        <ele>1910.1</ele>
        <time>2021-02-17T08:54:55Z</time>
      </trkpt>
      <trkpt lat="45.28294" lon="6.16091">
        <ele>1910.7</ele>
        <time>2021-02-17T08:54:58Z</time>
      </trkpt>
      <trkpt lat="45.28294" lon="6.1609">
        <ele>1910.9</ele>
        <time>2021-02-17T08:54:59Z</time>
      </trkpt>
      <trkpt lat="45.28294" lon="6.16088">
        <ele>1911.2</ele>
        <time>2021-02-17T08:55:00Z</time>
      </trkpt>
      <trkpt lat="45.28295" lon="6.16087">
        <ele>1911.4</ele>
        <time>2021-02-17T08:55:01Z</time>
      </trkpt>
      <trkpt lat="45.28295" lon="6.16086">
        <ele>1911.7</ele>
        <time>2021-02-17T08:55:02Z</time>
      </trkpt>
      <trkpt lat="45.28295" lon="6.16085">
        <ele>1911.9</ele>
        <time>2021-02-17T08:55:03Z</time>
      </trkpt>
      <trkpt lat="45.28296" lon="6.16084">
        <ele>1912.1</ele>
        <time>2021-02-17T08:55:04Z</time>
      </trkpt>
      <trkpt lat="45.28296" lon="6.16083">
        <ele>1912.2</ele>
        <time>2021-02-17T08:55:05Z</time>
      </trkpt>
      <trkpt lat="45.28296" lon="6.16083">
        <ele>1912.3</ele>
        <time>2021-02-17T08:55:06Z</time>
      </trkpt>
      <trkpt lat="45.28296" lon="6.16082">
        <ele>1912.5</ele>
        <time>2021-02-17T08:55:07Z</time>
      </trkpt>
      <trkpt lat="45.28297" lon="6.16082">
        <ele>1912.6</ele>
        <time>2021-02-17T08:55:08Z</time>
      </trkpt>
      <trkpt lat="45.28297" lon="6.16081">
        <ele>1912.7</ele>
        <time>2021-02-17T08:55:09Z</time>
      </trkpt>
      <trkpt lat="45.28297" lon="6.16081">
        <ele>1912.9</ele>
        <time>2021-02-17T08:55:10Z</time>
      </trkpt>
      <trkpt lat="45.28298" lon="6.1608">
        <ele>1913</ele>
        <time>2021-02-17T08:55:11Z</time>
      </trkpt>
      <trkpt lat="45.28298" lon="6.1608">
        <ele>1913.1</ele>
        <time>2021-02-17T08:55:12Z</time>
      </trkpt>
      <trkpt lat="45.28299" lon="6.1608">
        <ele>1913.2</ele>
        <time>2021-02-17T08:55:13Z</time>
      </trkpt>
      <trkpt lat="45.28299" lon="6.16072">
        <ele>1914.6</ele>
        <time>2021-02-17T08:55:23Z</time>
      </trkpt>
      <trkpt lat="45.28299" lon="6.16071">
        <ele>1914.7</ele>
        <time>2021-02-17T08:55:24Z</time>
      </trkpt>
      <trkpt lat="45.28299" lon="6.16071">
        <ele>1914.8</ele>
        <time>2021-02-17T08:55:25Z</time>
      </trkpt>
      <trkpt lat="45.28299" lon="6.16071">
        <ele>1914.8</ele>
        <time>2021-02-17T08:55:26Z</time>
      </trkpt>
      <trkpt lat="45.283" lon="6.16071">
        <ele>1914.9</ele>
        <time>2021-02-17T08:55:27Z</time>
      </trkpt>
      <trkpt lat="45.283" lon="6.16071">
        <ele>1915.1</ele>
        <time>2021-02-17T08:55:28Z</time>
      </trkpt>
      <trkpt lat="45.28301" lon="6.16072">
        <ele>1915.3</ele>
        <time>2021-02-17T08:55:29Z</time>
      </trkpt>
      <trkpt lat="45.28302" lon="6.16072">
        <ele>1915.6</ele>
        <time>2021-02-17T08:55:30Z</time>
      </trkpt>
      <trkpt lat="45.28303" lon="6.16071">
        <ele>1915.9</ele>
        <time>2021-02-17T08:55:31Z</time>
      </trkpt>
      <trkpt lat="45.28304" lon="6.16071">
        <ele>1916.1</ele>
        <time>2021-02-17T08:55:32Z</time>
      </trkpt>
      <trkpt lat="45.28305" lon="6.16071">
        <ele>1916.4</ele>
        <time>2021-02-17T08:55:33Z</time>
      </trkpt>
      <trkpt lat="45.28306" lon="6.1607">
        <ele>1916.7</ele>
        <time>2021-02-17T08:55:34Z</time>
      </trkpt>
      <trkpt lat="45.28307" lon="6.1607">
        <ele>1916.9</ele>
        <time>2021-02-17T08:55:35Z</time>
      </trkpt>
      <trkpt lat="45.28308" lon="6.1607">
        <ele>1917.2</ele>
        <time>2021-02-17T08:55:36Z</time>
      </trkpt>
      <trkpt lat="45.2831" lon="6.1607">
        <ele>1917.6</ele>
        <time>2021-02-17T08:55:37Z</time>
      </trkpt>
      <trkpt lat="45.28311" lon="6.16069">
        <ele>1917.8</ele>
        <time>2021-02-17T08:55:38Z</time>
      </trkpt>
      <trkpt lat="45.28312" lon="6.16069">
        <ele>1918.1</ele>
        <time>2021-02-17T08:55:39Z</time>
      </trkpt>
      <trkpt lat="45.28313" lon="6.16068">
        <ele>1918.4</ele>
        <time>2021-02-17T08:55:40Z</time>
      </trkpt>
      <trkpt lat="45.28314" lon="6.16068">
        <ele>1918.7</ele>
        <time>2021-02-17T08:55:41Z</time>
      </trkpt>
      <trkpt lat="45.28314" lon="6.16067">
        <ele>1918.9</ele>
        <time>2021-02-17T08:55:42Z</time>
      </trkpt>
      <trkpt lat="45.28315" lon="6.16066">
        <ele>1919.2</ele>
        <time>2021-02-17T08:55:43Z</time>
      </trkpt>
      <trkpt lat="45.28315" lon="6.16065">
        <ele>1919.3</ele>
        <time>2021-02-17T08:55:44Z</time>
      </trkpt>
      <trkpt lat="45.28315" lon="6.16064">
        <ele>1919.4</ele>
        <time>2021-02-17T08:55:45Z</time>
      </trkpt>
      <trkpt lat="45.28315" lon="6.16063">
        <ele>1919.6</ele>
        <time>2021-02-17T08:55:46Z</time>
      </trkpt>
      <trkpt lat="45.28315" lon="6.16062">
        <ele>1919.8</ele>
        <time>2021-02-17T08:55:47Z</time>
      </trkpt>
      <trkpt lat="45.28315" lon="6.16061">
        <ele>1920.1</ele>
        <time>2021-02-17T08:55:48Z</time>
      </trkpt>
      <trkpt lat="45.28315" lon="6.1606">
        <ele>1920.3</ele>
        <time>2021-02-17T08:55:49Z</time>
      </trkpt>
      <trkpt lat="45.28315" lon="6.16059">
        <ele>1920.5</ele>
        <time>2021-02-17T08:55:50Z</time>
      </trkpt>
      <trkpt lat="45.28315" lon="6.16058">
        <ele>1920.7</ele>
        <time>2021-02-17T08:55:51Z</time>
      </trkpt>
      <trkpt lat="45.28315" lon="6.16057">
        <ele>1920.8</ele>
        <time>2021-02-17T08:55:52Z</time>
      </trkpt>
      <trkpt lat="45.28315" lon="6.16056">
        <ele>1921</ele>
        <time>2021-02-17T08:55:53Z</time>
      </trkpt>
      <trkpt lat="45.28315" lon="6.16055">
        <ele>1921.2</ele>
        <time>2021-02-17T08:55:54Z</time>
      </trkpt>
      <trkpt lat="45.28316" lon="6.16055">
        <ele>1921.3</ele>
        <time>2021-02-17T08:55:55Z</time>
      </trkpt>
      <trkpt lat="45.28316" lon="6.16054">
        <ele>1921.4</ele>
        <time>2021-02-17T08:55:56Z</time>
      </trkpt>
      <trkpt lat="45.28316" lon="6.16054">
        <ele>1921.5</ele>
        <time>2021-02-17T08:55:57Z</time>
      </trkpt>
      <trkpt lat="45.28316" lon="6.16053">
        <ele>1921.6</ele>
        <time>2021-02-17T08:55:58Z</time>
      </trkpt>
      <trkpt lat="45.28316" lon="6.16053">
        <ele>1921.7</ele>
        <time>2021-02-17T08:55:59Z</time>
      </trkpt>
      <trkpt lat="45.28317" lon="6.16052">
        <ele>1921.9</ele>
        <time>2021-02-17T08:56:00Z</time>
      </trkpt>
      <trkpt lat="45.28317" lon="6.16052">
        <ele>1922.1</ele>
        <time>2021-02-17T08:56:01Z</time>
      </trkpt>
      <trkpt lat="45.28318" lon="6.16052">
        <ele>1922.2</ele>
        <time>2021-02-17T08:56:02Z</time>
      </trkpt>
      <trkpt lat="45.28318" lon="6.16052">
        <ele>1922.2</ele>
        <time>2021-02-17T08:56:03Z</time>
      </trkpt>
      <trkpt lat="45.2832" lon="6.16047">
        <ele>1923.3</ele>
        <time>2021-02-17T08:56:08Z</time>
      </trkpt>
      <trkpt lat="45.28321" lon="6.16046">
        <ele>1923.6</ele>
        <time>2021-02-17T08:56:09Z</time>
      </trkpt>
      <trkpt lat="45.28322" lon="6.16045">
        <ele>1923.8</ele>
        <time>2021-02-17T08:56:10Z</time>
      </trkpt>
      <trkpt lat="45.28322" lon="6.16045">
        <ele>1924</ele>
        <time>2021-02-17T08:56:11Z</time>
      </trkpt>
      <trkpt lat="45.28323" lon="6.16044">
        <ele>1924.2</ele>
        <time>2021-02-17T08:56:12Z</time>
      </trkpt>
      <trkpt lat="45.28323" lon="6.16044">
        <ele>1924.3</ele>
        <time>2021-02-17T08:56:13Z</time>
      </trkpt>
      <trkpt lat="45.28324" lon="6.16043">
        <ele>1924.4</ele>
        <time>2021-02-17T08:56:14Z</time>
      </trkpt>
      <trkpt lat="45.28324" lon="6.16043">
        <ele>1924.6</ele>
        <time>2021-02-17T08:56:15Z</time>
      </trkpt>
      <trkpt lat="45.28325" lon="6.16043">
        <ele>1924.7</ele>
        <time>2021-02-17T08:56:16Z</time>
      </trkpt>
      <trkpt lat="45.28325" lon="6.16043">
        <ele>1924.9</ele>
        <time>2021-02-17T08:56:17Z</time>
      </trkpt>
      <trkpt lat="45.28326" lon="6.16043">
        <ele>1925.1</ele>
        <time>2021-02-17T08:56:18Z</time>
      </trkpt>
      <trkpt lat="45.28327" lon="6.16042">
        <ele>1925.3</ele>
        <time>2021-02-17T08:56:19Z</time>
      </trkpt>
      <trkpt lat="45.28328" lon="6.16042">
        <ele>1925.6</ele>
        <time>2021-02-17T08:56:20Z</time>
      </trkpt>
      <trkpt lat="45.28329" lon="6.16042">
        <ele>1925.8</ele>
        <time>2021-02-17T08:56:21Z</time>
      </trkpt>
      <trkpt lat="45.2833" lon="6.16042">
        <ele>1926</ele>
        <time>2021-02-17T08:56:22Z</time>
      </trkpt>
      <trkpt lat="45.2833" lon="6.16041">
        <ele>1926.2</ele>
        <time>2021-02-17T08:56:23Z</time>
      </trkpt>
      <trkpt lat="45.28331" lon="6.16041">
        <ele>1926.4</ele>
        <time>2021-02-17T08:56:24Z</time>
      </trkpt>
      <trkpt lat="45.28332" lon="6.16041">
        <ele>1926.6</ele>
        <time>2021-02-17T08:56:25Z</time>
      </trkpt>
      <trkpt lat="45.28332" lon="6.1604">
        <ele>1926.7</ele>
        <time>2021-02-17T08:56:26Z</time>
      </trkpt>
      <trkpt lat="45.28333" lon="6.1604">
        <ele>1926.8</ele>
        <time>2021-02-17T08:56:27Z</time>
      </trkpt>
      <trkpt lat="45.28333" lon="6.1604">
        <ele>1926.9</ele>
        <time>2021-02-17T08:56:28Z</time>
      </trkpt>
      <trkpt lat="45.28333" lon="6.1604">
        <ele>1926.9</ele>
        <time>2021-02-17T08:56:29Z</time>
      </trkpt>
      <trkpt lat="45.28333" lon="6.1604">
        <ele>1926.9</ele>
        <time>2021-02-17T08:56:30Z</time>
      </trkpt>
      <trkpt lat="45.28337" lon="6.16039">
        <ele>1927.9</ele>
        <time>2021-02-17T08:56:37Z</time>
      </trkpt>
      <trkpt lat="45.28337" lon="6.16039">
        <ele>1928</ele>
        <time>2021-02-17T08:56:38Z</time>
      </trkpt>
      <trkpt lat="45.28338" lon="6.16039">
        <ele>1928.2</ele>
        <time>2021-02-17T08:56:39Z</time>
      </trkpt>
      <trkpt lat="45.28339" lon="6.16039">
        <ele>1928.4</ele>
        <time>2021-02-17T08:56:40Z</time>
      </trkpt>
      <trkpt lat="45.28339" lon="6.16039">
        <ele>1928.4</ele>
        <time>2021-02-17T08:56:41Z</time>
      </trkpt>
      <trkpt lat="45.28338" lon="6.16038">
        <ele>1928.7</ele>
        <time>2021-02-17T08:56:42Z</time>
      </trkpt>
      <trkpt lat="45.28338" lon="6.16037">
        <ele>1928.8</ele>
        <time>2021-02-17T08:56:43Z</time>
      </trkpt>
      <trkpt lat="45.28338" lon="6.16037">
        <ele>1928.9</ele>
        <time>2021-02-17T08:56:44Z</time>
      </trkpt>
      <trkpt lat="45.28338" lon="6.16036">
        <ele>1929</ele>
        <time>2021-02-17T08:56:45Z</time>
      </trkpt>
      <trkpt lat="45.28339" lon="6.16036">
        <ele>1929.1</ele>
        <time>2021-02-17T08:56:46Z</time>
      </trkpt>
      <trkpt lat="45.28339" lon="6.16036">
        <ele>1929.3</ele>
        <time>2021-02-17T08:56:47Z</time>
      </trkpt>
      <trkpt lat="45.2834" lon="6.16036">
        <ele>1929.4</ele>
        <time>2021-02-17T08:56:48Z</time>
      </trkpt>
      <trkpt lat="45.2834" lon="6.16036">
        <ele>1929.5</ele>
        <time>2021-02-17T08:56:49Z</time>
      </trkpt>
      <trkpt lat="45.28341" lon="6.16036">
        <ele>1929.7</ele>
        <time>2021-02-17T08:56:50Z</time>
      </trkpt>
      <trkpt lat="45.28342" lon="6.16035">
        <ele>1930</ele>
        <time>2021-02-17T08:56:51Z</time>
      </trkpt>
      <trkpt lat="45.28342" lon="6.16035">
        <ele>1930.2</ele>
        <time>2021-02-17T08:56:52Z</time>
      </trkpt>
      <trkpt lat="45.28343" lon="6.16035">
        <ele>1930.4</ele>
        <time>2021-02-17T08:56:53Z</time>
      </trkpt>
      <trkpt lat="45.28343" lon="6.16034">
        <ele>1930.5</ele>
        <time>2021-02-17T08:56:54Z</time>
      </trkpt>
      <trkpt lat="45.28344" lon="6.16034">
        <ele>1930.7</ele>
        <time>2021-02-17T08:56:55Z</time>
      </trkpt>
      <trkpt lat="45.28345" lon="6.16033">
        <ele>1930.9</ele>
        <time>2021-02-17T08:56:56Z</time>
      </trkpt>
      <trkpt lat="45.28345" lon="6.16033">
        <ele>1931</ele>
        <time>2021-02-17T08:56:57Z</time>
      </trkpt>
      <trkpt lat="45.28345" lon="6.16032">
        <ele>1931.1</ele>
        <time>2021-02-17T08:56:58Z</time>
      </trkpt>
      <trkpt lat="45.28345" lon="6.16031">
        <ele>1931.3</ele>
        <time>2021-02-17T08:56:59Z</time>
      </trkpt>
      <trkpt lat="45.28346" lon="6.1603">
        <ele>1931.5</ele>
        <time>2021-02-17T08:57:00Z</time>
      </trkpt>
      <trkpt lat="45.28346" lon="6.16029">
        <ele>1931.7</ele>
        <time>2021-02-17T08:57:01Z</time>
      </trkpt>
      <trkpt lat="45.28346" lon="6.16028">
        <ele>1931.9</ele>
        <time>2021-02-17T08:57:02Z</time>
      </trkpt>
      <trkpt lat="45.28345" lon="6.16028">
        <ele>1932</ele>
        <time>2021-02-17T08:57:03Z</time>
      </trkpt>
      <trkpt lat="45.28345" lon="6.16027">
        <ele>1932.2</ele>
        <time>2021-02-17T08:57:04Z</time>
      </trkpt>
      <trkpt lat="45.28345" lon="6.16026">
        <ele>1932.4</ele>
        <time>2021-02-17T08:57:05Z</time>
      </trkpt>
      <trkpt lat="45.28344" lon="6.16025">
        <ele>1932.6</ele>
        <time>2021-02-17T08:57:06Z</time>
      </trkpt>
      <trkpt lat="45.28343" lon="6.16024">
        <ele>1932.9</ele>
        <time>2021-02-17T08:57:07Z</time>
      </trkpt>
      <trkpt lat="45.28343" lon="6.16023">
        <ele>1933.1</ele>
        <time>2021-02-17T08:57:08Z</time>
      </trkpt>
      <trkpt lat="45.28342" lon="6.16022">
        <ele>1933.3</ele>
        <time>2021-02-17T08:57:09Z</time>
      </trkpt>
      <trkpt lat="45.28342" lon="6.16022">
        <ele>1933.5</ele>
        <time>2021-02-17T08:57:10Z</time>
      </trkpt>
      <trkpt lat="45.28341" lon="6.16022">
        <ele>1933.6</ele>
        <time>2021-02-17T08:57:11Z</time>
      </trkpt>
      <trkpt lat="45.28341" lon="6.16022">
        <ele>1933.6</ele>
        <time>2021-02-17T08:57:12Z</time>
      </trkpt>
      <trkpt lat="45.28341" lon="6.16022">
        <ele>1933.7</ele>
        <time>2021-02-17T08:57:13Z</time>
      </trkpt>
      <trkpt lat="45.2834" lon="6.16021">
        <ele>1933.9</ele>
        <time>2021-02-17T08:57:14Z</time>
      </trkpt>
      <trkpt lat="45.2834" lon="6.1602">
        <ele>1934</ele>
        <time>2021-02-17T08:57:15Z</time>
      </trkpt>
      <trkpt lat="45.28339" lon="6.1602">
        <ele>1934.1</ele>
        <time>2021-02-17T08:57:16Z</time>
      </trkpt>
      <trkpt lat="45.28339" lon="6.1602">
        <ele>1934.2</ele>
        <time>2021-02-17T08:57:17Z</time>
      </trkpt>
      <trkpt lat="45.28339" lon="6.1602">
        <ele>1934.3</ele>
        <time>2021-02-17T08:57:18Z</time>
      </trkpt>
      <trkpt lat="45.28338" lon="6.16019">
        <ele>1934.5</ele>
        <time>2021-02-17T08:57:19Z</time>
      </trkpt>
      <trkpt lat="45.28338" lon="6.16017">
        <ele>1934.8</ele>
        <time>2021-02-17T08:57:20Z</time>
      </trkpt>
      <trkpt lat="45.28337" lon="6.16016">
        <ele>1935</ele>
        <time>2021-02-17T08:57:21Z</time>
      </trkpt>
      <trkpt lat="45.28337" lon="6.16015">
        <ele>1935.1</ele>
        <time>2021-02-17T08:57:22Z</time>
      </trkpt>
      <trkpt lat="45.28337" lon="6.16014">
        <ele>1935.3</ele>
        <time>2021-02-17T08:57:23Z</time>
      </trkpt>
      <trkpt lat="45.28336" lon="6.16013">
        <ele>1935.5</ele>
        <time>2021-02-17T08:57:24Z</time>
      </trkpt>
      <trkpt lat="45.28336" lon="6.16012">
        <ele>1935.7</ele>
        <time>2021-02-17T08:57:25Z</time>
      </trkpt>
      <trkpt lat="45.28336" lon="6.16011">
        <ele>1935.8</ele>
        <time>2021-02-17T08:57:26Z</time>
      </trkpt>
      <trkpt lat="45.28336" lon="6.16011">
        <ele>1935.9</ele>
        <time>2021-02-17T08:57:27Z</time>
      </trkpt>
      <trkpt lat="45.28336" lon="6.1601">
        <ele>1936</ele>
        <time>2021-02-17T08:57:28Z</time>
      </trkpt>
      <trkpt lat="45.28336" lon="6.16009">
        <ele>1936.1</ele>
        <time>2021-02-17T08:57:29Z</time>
      </trkpt>
      <trkpt lat="45.28336" lon="6.16009">
        <ele>1936.1</ele>
        <time>2021-02-17T08:57:30Z</time>
      </trkpt>
      <trkpt lat="45.28336" lon="6.16009">
        <ele>1936.1</ele>
        <time>2021-02-17T08:57:31Z</time>
      </trkpt>
      <trkpt lat="45.28336" lon="6.16009">
        <ele>1936.1</ele>
        <time>2021-02-17T08:57:32Z</time>
      </trkpt>
      <trkpt lat="45.28342" lon="6.16003">
        <ele>1937.6</ele>
        <time>2021-02-17T08:57:44Z</time>
      </trkpt>
      <trkpt lat="45.28342" lon="6.16002">
        <ele>1937.7</ele>
        <time>2021-02-17T08:57:45Z</time>
      </trkpt>
      <trkpt lat="45.28343" lon="6.16002">
        <ele>1937.9</ele>
        <time>2021-02-17T08:57:46Z</time>
      </trkpt>
      <trkpt lat="45.28343" lon="6.16001">
        <ele>1938</ele>
        <time>2021-02-17T08:57:47Z</time>
      </trkpt>
      <trkpt lat="45.28344" lon="6.16001">
        <ele>1938.2</ele>
        <time>2021-02-17T08:57:48Z</time>
      </trkpt>
      <trkpt lat="45.28345" lon="6.16">
        <ele>1938.4</ele>
        <time>2021-02-17T08:57:49Z</time>
      </trkpt>
      <trkpt lat="45.28346" lon="6.16">
        <ele>1938.6</ele>
        <time>2021-02-17T08:57:50Z</time>
      </trkpt>
      <trkpt lat="45.28347" lon="6.15999">
        <ele>1938.8</ele>
        <time>2021-02-17T08:57:51Z</time>
      </trkpt>
      <trkpt lat="45.28348" lon="6.15999">
        <ele>1938.9</ele>
        <time>2021-02-17T08:57:52Z</time>
      </trkpt>
      <trkpt lat="45.28348" lon="6.15998">
        <ele>1939.1</ele>
        <time>2021-02-17T08:57:53Z</time>
      </trkpt>
      <trkpt lat="45.28349" lon="6.15997">
        <ele>1939.2</ele>
        <time>2021-02-17T08:57:54Z</time>
      </trkpt>
      <trkpt lat="45.28349" lon="6.15996">
        <ele>1939.4</ele>
        <time>2021-02-17T08:57:55Z</time>
      </trkpt>
      <trkpt lat="45.28349" lon="6.15995">
        <ele>1939.5</ele>
        <time>2021-02-17T08:57:56Z</time>
      </trkpt>
      <trkpt lat="45.28349" lon="6.15994">
        <ele>1939.7</ele>
        <time>2021-02-17T08:57:57Z</time>
      </trkpt>
      <trkpt lat="45.2835" lon="6.15993">
        <ele>1939.9</ele>
        <time>2021-02-17T08:57:58Z</time>
      </trkpt>
      <trkpt lat="45.2835" lon="6.15992">
        <ele>1940</ele>
        <time>2021-02-17T08:57:59Z</time>
      </trkpt>
      <trkpt lat="45.2835" lon="6.15991">
        <ele>1940.2</ele>
        <time>2021-02-17T08:58:00Z</time>
      </trkpt>
      <trkpt lat="45.28351" lon="6.15989">
        <ele>1940.3</ele>
        <time>2021-02-17T08:58:01Z</time>
      </trkpt>
      <trkpt lat="45.28351" lon="6.15988">
        <ele>1940.5</ele>
        <time>2021-02-17T08:58:02Z</time>
      </trkpt>
      <trkpt lat="45.28351" lon="6.15988">
        <ele>1940.6</ele>
        <time>2021-02-17T08:58:03Z</time>
      </trkpt>
      <trkpt lat="45.28351" lon="6.15987">
        <ele>1940.7</ele>
        <time>2021-02-17T08:58:04Z</time>
      </trkpt>
      <trkpt lat="45.28351" lon="6.15986">
        <ele>1940.8</ele>
        <time>2021-02-17T08:58:05Z</time>
      </trkpt>
      <trkpt lat="45.28352" lon="6.15985">
        <ele>1940.9</ele>
        <time>2021-02-17T08:58:06Z</time>
      </trkpt>
      <trkpt lat="45.28352" lon="6.15985">
        <ele>1941</ele>
        <time>2021-02-17T08:58:07Z</time>
      </trkpt>
      <trkpt lat="45.28352" lon="6.15984">
        <ele>1941.2</ele>
        <time>2021-02-17T08:58:08Z</time>
      </trkpt>
      <trkpt lat="45.28352" lon="6.15983">
        <ele>1941.3</ele>
        <time>2021-02-17T08:58:09Z</time>
      </trkpt>
      <trkpt lat="45.28352" lon="6.15983">
        <ele>1941.4</ele>
        <time>2021-02-17T08:58:10Z</time>
      </trkpt>
      <trkpt lat="45.28353" lon="6.15982">
        <ele>1941.4</ele>
        <time>2021-02-17T08:58:11Z</time>
      </trkpt>
      <trkpt lat="45.28352" lon="6.15982">
        <ele>1941.5</ele>
        <time>2021-02-17T08:58:12Z</time>
      </trkpt>
      <trkpt lat="45.28352" lon="6.15982">
        <ele>1941.6</ele>
        <time>2021-02-17T08:58:13Z</time>
      </trkpt>
      <trkpt lat="45.28351" lon="6.15982">
        <ele>1941.7</ele>
        <time>2021-02-17T08:58:14Z</time>
      </trkpt>
      <trkpt lat="45.2835" lon="6.15981">
        <ele>1942</ele>
        <time>2021-02-17T08:58:15Z</time>
      </trkpt>
      <trkpt lat="45.28349" lon="6.15981">
        <ele>1942.1</ele>
        <time>2021-02-17T08:58:16Z</time>
      </trkpt>
      <trkpt lat="45.28349" lon="6.15981">
        <ele>1942.3</ele>
        <time>2021-02-17T08:58:17Z</time>
      </trkpt>
      <trkpt lat="45.28348" lon="6.1598">
        <ele>1942.4</ele>
        <time>2021-02-17T08:58:18Z</time>
      </trkpt>
      <trkpt lat="45.28348" lon="6.1598">
        <ele>1942.5</ele>
        <time>2021-02-17T08:58:19Z</time>
      </trkpt>
      <trkpt lat="45.28348" lon="6.15978">
        <ele>1942.7</ele>
        <time>2021-02-17T08:58:20Z</time>
      </trkpt>
      <trkpt lat="45.28348" lon="6.15977">
        <ele>1942.8</ele>
        <time>2021-02-17T08:58:21Z</time>
      </trkpt>
      <trkpt lat="45.28348" lon="6.15976">
        <ele>1943</ele>
        <time>2021-02-17T08:58:22Z</time>
      </trkpt>
      <trkpt lat="45.28348" lon="6.15975">
        <ele>1943.1</ele>
        <time>2021-02-17T08:58:23Z</time>
      </trkpt>
      <trkpt lat="45.28348" lon="6.15975">
        <ele>1943.2</ele>
        <time>2021-02-17T08:58:24Z</time>
      </trkpt>
      <trkpt lat="45.28348" lon="6.15974">
        <ele>1943.3</ele>
        <time>2021-02-17T08:58:25Z</time>
      </trkpt>
      <trkpt lat="45.28348" lon="6.15973">
        <ele>1943.5</ele>
        <time>2021-02-17T08:58:26Z</time>
      </trkpt>
      <trkpt lat="45.28348" lon="6.15972">
        <ele>1943.6</ele>
        <time>2021-02-17T08:58:27Z</time>
      </trkpt>
      <trkpt lat="45.28348" lon="6.15971">
        <ele>1943.8</ele>
        <time>2021-02-17T08:58:28Z</time>
      </trkpt>
      <trkpt lat="45.28348" lon="6.1597">
        <ele>1944</ele>
        <time>2021-02-17T08:58:29Z</time>
      </trkpt>
      <trkpt lat="45.28348" lon="6.15968">
        <ele>1944.3</ele>
        <time>2021-02-17T08:58:30Z</time>
      </trkpt>
      <trkpt lat="45.28348" lon="6.15967">
        <ele>1944.5</ele>
        <time>2021-02-17T08:58:31Z</time>
      </trkpt>
      <trkpt lat="45.28349" lon="6.15966">
        <ele>1944.7</ele>
        <time>2021-02-17T08:58:32Z</time>
      </trkpt>
      <trkpt lat="45.28349" lon="6.15965">
        <ele>1944.9</ele>
        <time>2021-02-17T08:58:33Z</time>
      </trkpt>
      <trkpt lat="45.28349" lon="6.15965">
        <ele>1945</ele>
        <time>2021-02-17T08:58:34Z</time>
      </trkpt>
      <trkpt lat="45.2835" lon="6.15964">
        <ele>1945.2</ele>
        <time>2021-02-17T08:58:35Z</time>
      </trkpt>
      <trkpt lat="45.2835" lon="6.15963">
        <ele>1945.3</ele>
        <time>2021-02-17T08:58:36Z</time>
      </trkpt>
      <trkpt lat="45.2835" lon="6.15962">
        <ele>1945.5</ele>
        <time>2021-02-17T08:58:37Z</time>
      </trkpt>
      <trkpt lat="45.28351" lon="6.15961">
        <ele>1945.7</ele>
        <time>2021-02-17T08:58:38Z</time>
      </trkpt>
      <trkpt lat="45.28351" lon="6.15961">
        <ele>1945.8</ele>
        <time>2021-02-17T08:58:39Z</time>
      </trkpt>
      <trkpt lat="45.28351" lon="6.1596">
        <ele>1946</ele>
        <time>2021-02-17T08:58:40Z</time>
      </trkpt>
      <trkpt lat="45.28352" lon="6.15959">
        <ele>1946.2</ele>
        <time>2021-02-17T08:58:41Z</time>
      </trkpt>
      <trkpt lat="45.28352" lon="6.15958">
        <ele>1946.4</ele>
        <time>2021-02-17T08:58:42Z</time>
      </trkpt>
      <trkpt lat="45.28353" lon="6.15957">
        <ele>1946.6</ele>
        <time>2021-02-17T08:58:43Z</time>
      </trkpt>
      <trkpt lat="45.28353" lon="6.15956">
        <ele>1946.8</ele>
        <time>2021-02-17T08:58:44Z</time>
      </trkpt>
      <trkpt lat="45.28354" lon="6.15955">
        <ele>1947.1</ele>
        <time>2021-02-17T08:58:45Z</time>
      </trkpt>
      <trkpt lat="45.28354" lon="6.15953">
        <ele>1947.3</ele>
        <time>2021-02-17T08:58:46Z</time>
      </trkpt>
      <trkpt lat="45.28354" lon="6.15953">
        <ele>1947.4</ele>
        <time>2021-02-17T08:58:47Z</time>
      </trkpt>
      <trkpt lat="45.28354" lon="6.15952">
        <ele>1947.6</ele>
        <time>2021-02-17T08:58:48Z</time>
      </trkpt>
      <trkpt lat="45.28354" lon="6.15952">
        <ele>1947.6</ele>
        <time>2021-02-17T08:58:49Z</time>
      </trkpt>
      <trkpt lat="45.28353" lon="6.15952">
        <ele>1947.7</ele>
        <time>2021-02-17T08:58:50Z</time>
      </trkpt>
      <trkpt lat="45.28353" lon="6.15952">
        <ele>1947.7</ele>
        <time>2021-02-17T08:58:51Z</time>
      </trkpt>
      <trkpt lat="45.28353" lon="6.15951">
        <ele>1947.9</ele>
        <time>2021-02-17T08:58:52Z</time>
      </trkpt>
      <trkpt lat="45.28352" lon="6.1595">
        <ele>1948.1</ele>
        <time>2021-02-17T08:58:53Z</time>
      </trkpt>
      <trkpt lat="45.28351" lon="6.15949">
        <ele>1948.4</ele>
        <time>2021-02-17T08:58:54Z</time>
      </trkpt>
      <trkpt lat="45.28351" lon="6.15947">
        <ele>1948.8</ele>
        <time>2021-02-17T08:58:55Z</time>
      </trkpt>
      <trkpt lat="45.2835" lon="6.15946">
        <ele>1949</ele>
        <time>2021-02-17T08:58:56Z</time>
      </trkpt>
      <trkpt lat="45.2835" lon="6.15945">
        <ele>1949.1</ele>
        <time>2021-02-17T08:58:57Z</time>
      </trkpt>
      <trkpt lat="45.2835" lon="6.15945">
        <ele>1949.2</ele>
        <time>2021-02-17T08:58:58Z</time>
      </trkpt>
      <trkpt lat="45.2835" lon="6.15945">
        <ele>1949.2</ele>
        <time>2021-02-17T08:58:59Z</time>
      </trkpt>
      <trkpt lat="45.2835" lon="6.15945">
        <ele>1949.2</ele>
        <time>2021-02-17T08:59:00Z</time>
      </trkpt>
      <trkpt lat="45.2835" lon="6.15945">
        <ele>1949.3</ele>
        <time>2021-02-17T08:59:01Z</time>
      </trkpt>
      <trkpt lat="45.2835" lon="6.15945">
        <ele>1949.3</ele>
        <time>2021-02-17T08:59:02Z</time>
      </trkpt>
      <trkpt lat="45.2835" lon="6.15944">
        <ele>1949.3</ele>
        <time>2021-02-17T08:59:03Z</time>
      </trkpt>
      <trkpt lat="45.2835" lon="6.15944">
        <ele>1949.4</ele>
        <time>2021-02-17T08:59:04Z</time>
      </trkpt>
      <trkpt lat="45.2835" lon="6.15943">
        <ele>1949.5</ele>
        <time>2021-02-17T08:59:05Z</time>
      </trkpt>
      <trkpt lat="45.28354" lon="6.15903">
        <ele>1955.9</ele>
        <time>2021-02-17T08:59:52Z</time>
      </trkpt>
      <trkpt lat="45.28354" lon="6.15902">
        <ele>1956</ele>
        <time>2021-02-17T08:59:53Z</time>
      </trkpt>
      <trkpt lat="45.28354" lon="6.15901">
        <ele>1956.2</ele>
        <time>2021-02-17T08:59:54Z</time>
      </trkpt>
      <trkpt lat="45.28354" lon="6.159">
        <ele>1956.3</ele>
        <time>2021-02-17T08:59:55Z</time>
      </trkpt>
      <trkpt lat="45.28354" lon="6.15899">
        <ele>1956.4</ele>
        <time>2021-02-17T08:59:56Z</time>
      </trkpt>
      <trkpt lat="45.28354" lon="6.15898">
        <ele>1956.6</ele>
        <time>2021-02-17T08:59:57Z</time>
      </trkpt>
      <trkpt lat="45.28355" lon="6.15897">
        <ele>1956.8</ele>
        <time>2021-02-17T08:59:58Z</time>
      </trkpt>
      <trkpt lat="45.28355" lon="6.15896">
        <ele>1956.9</ele>
        <time>2021-02-17T08:59:59Z</time>
      </trkpt>
      <trkpt lat="45.28356" lon="6.15896">
        <ele>1957</ele>
        <time>2021-02-17T09:00:00Z</time>
      </trkpt>
      <trkpt lat="45.28356" lon="6.15895">
        <ele>1957.1</ele>
        <time>2021-02-17T09:00:01Z</time>
      </trkpt>
      <trkpt lat="45.28357" lon="6.15895">
        <ele>1957.2</ele>
        <time>2021-02-17T09:00:02Z</time>
      </trkpt>
      <trkpt lat="45.28358" lon="6.15894">
        <ele>1957.4</ele>
        <time>2021-02-17T09:00:03Z</time>
      </trkpt>
      <trkpt lat="45.28358" lon="6.15894">
        <ele>1957.5</ele>
        <time>2021-02-17T09:00:04Z</time>
      </trkpt>
      <trkpt lat="45.28359" lon="6.15893">
        <ele>1957.6</ele>
        <time>2021-02-17T09:00:05Z</time>
      </trkpt>
      <trkpt lat="45.28359" lon="6.15893">
        <ele>1957.8</ele>
        <time>2021-02-17T09:00:06Z</time>
      </trkpt>
      <trkpt lat="45.2836" lon="6.15893">
        <ele>1957.9</ele>
        <time>2021-02-17T09:00:07Z</time>
      </trkpt>
      <trkpt lat="45.2836" lon="6.15892">
        <ele>1958</ele>
        <time>2021-02-17T09:00:08Z</time>
      </trkpt>
      <trkpt lat="45.28361" lon="6.15892">
        <ele>1958.1</ele>
        <time>2021-02-17T09:00:09Z</time>
      </trkpt>
      <trkpt lat="45.28362" lon="6.15892">
        <ele>1958.3</ele>
        <time>2021-02-17T09:00:10Z</time>
      </trkpt>
      <trkpt lat="45.28363" lon="6.15891">
        <ele>1958.4</ele>
        <time>2021-02-17T09:00:11Z</time>
      </trkpt>
      <trkpt lat="45.28363" lon="6.15891">
        <ele>1958.6</ele>
        <time>2021-02-17T09:00:12Z</time>
      </trkpt>
      <trkpt lat="45.28364" lon="6.15891">
        <ele>1958.7</ele>
        <time>2021-02-17T09:00:13Z</time>
      </trkpt>
      <trkpt lat="45.28365" lon="6.1589">
        <ele>1958.9</ele>
        <time>2021-02-17T09:00:14Z</time>
      </trkpt>
      <trkpt lat="45.28365" lon="6.1589">
        <ele>1959</ele>
        <time>2021-02-17T09:00:15Z</time>
      </trkpt>
      <trkpt lat="45.28366" lon="6.15889">
        <ele>1959.2</ele>
        <time>2021-02-17T09:00:16Z</time>
      </trkpt>
      <trkpt lat="45.28366" lon="6.15889">
        <ele>1959.2</ele>
        <time>2021-02-17T09:00:17Z</time>
      </trkpt>
      <trkpt lat="45.28366" lon="6.15888">
        <ele>1959.3</ele>
        <time>2021-02-17T09:00:18Z</time>
      </trkpt>
      <trkpt lat="45.28366" lon="6.15888">
        <ele>1959.3</ele>
        <time>2021-02-17T09:00:19Z</time>
      </trkpt>
      <trkpt lat="45.28367" lon="6.15888">
        <ele>1959.4</ele>
        <time>2021-02-17T09:00:20Z</time>
      </trkpt>
      <trkpt lat="45.28367" lon="6.15887">
        <ele>1959.5</ele>
        <time>2021-02-17T09:00:21Z</time>
      </trkpt>
      <trkpt lat="45.28367" lon="6.15887">
        <ele>1959.6</ele>
        <time>2021-02-17T09:00:22Z</time>
      </trkpt>
      <trkpt lat="45.28367" lon="6.15886">
        <ele>1959.8</ele>
        <time>2021-02-17T09:00:23Z</time>
      </trkpt>
      <trkpt lat="45.28368" lon="6.15885">
        <ele>1959.9</ele>
        <time>2021-02-17T09:00:24Z</time>
      </trkpt>
      <trkpt lat="45.28368" lon="6.15885">
        <ele>1960</ele>
        <time>2021-02-17T09:00:25Z</time>
      </trkpt>
      <trkpt lat="45.28369" lon="6.15884">
        <ele>1960.2</ele>
        <time>2021-02-17T09:00:26Z</time>
      </trkpt>
      <trkpt lat="45.2837" lon="6.15883">
        <ele>1960.5</ele>
        <time>2021-02-17T09:00:27Z</time>
      </trkpt>
      <trkpt lat="45.2837" lon="6.15882">
        <ele>1960.7</ele>
        <time>2021-02-17T09:00:28Z</time>
      </trkpt>
      <trkpt lat="45.2837" lon="6.15881">
        <ele>1960.8</ele>
        <time>2021-02-17T09:00:29Z</time>
      </trkpt>
      <trkpt lat="45.2837" lon="6.1588">
        <ele>1961</ele>
        <time>2021-02-17T09:00:30Z</time>
      </trkpt>
      <trkpt lat="45.2837" lon="6.15879">
        <ele>1961.2</ele>
        <time>2021-02-17T09:00:31Z</time>
      </trkpt>
      <trkpt lat="45.2837" lon="6.15878">
        <ele>1961.3</ele>
        <time>2021-02-17T09:00:32Z</time>
      </trkpt>
      <trkpt lat="45.28369" lon="6.15878">
        <ele>1961.5</ele>
        <time>2021-02-17T09:00:33Z</time>
      </trkpt>
      <trkpt lat="45.28369" lon="6.15877">
        <ele>1961.6</ele>
        <time>2021-02-17T09:00:34Z</time>
      </trkpt>
      <trkpt lat="45.28369" lon="6.15876">
        <ele>1961.7</ele>
        <time>2021-02-17T09:00:35Z</time>
      </trkpt>
      <trkpt lat="45.2837" lon="6.15876">
        <ele>1961.9</ele>
        <time>2021-02-17T09:00:36Z</time>
      </trkpt>
      <trkpt lat="45.2837" lon="6.15875">
        <ele>1962</ele>
        <time>2021-02-17T09:00:37Z</time>
      </trkpt>
      <trkpt lat="45.2837" lon="6.15874">
        <ele>1962.2</ele>
        <time>2021-02-17T09:00:38Z</time>
      </trkpt>
      <trkpt lat="45.2837" lon="6.15873">
        <ele>1962.3</ele>
        <time>2021-02-17T09:00:39Z</time>
      </trkpt>
      <trkpt lat="45.2837" lon="6.15873">
        <ele>1962.5</ele>
        <time>2021-02-17T09:00:40Z</time>
      </trkpt>
      <trkpt lat="45.2837" lon="6.15872">
        <ele>1962.7</ele>
        <time>2021-02-17T09:00:41Z</time>
      </trkpt>
      <trkpt lat="45.2837" lon="6.15871">
        <ele>1962.8</ele>
        <time>2021-02-17T09:00:42Z</time>
      </trkpt>
      <trkpt lat="45.2837" lon="6.15871">
        <ele>1962.9</ele>
        <time>2021-02-17T09:00:43Z</time>
      </trkpt>
      <trkpt lat="45.2837" lon="6.1587">
        <ele>1963</ele>
        <time>2021-02-17T09:00:44Z</time>
      </trkpt>
      <trkpt lat="45.2837" lon="6.15869">
        <ele>1963.1</ele>
        <time>2021-02-17T09:00:45Z</time>
      </trkpt>
      <trkpt lat="45.2837" lon="6.15869">
        <ele>1963.3</ele>
        <time>2021-02-17T09:00:46Z</time>
      </trkpt>
      <trkpt lat="45.2837" lon="6.15868">
        <ele>1963.4</ele>
        <time>2021-02-17T09:00:47Z</time>
      </trkpt>
      <trkpt lat="45.2837" lon="6.15867">
        <ele>1963.6</ele>
        <time>2021-02-17T09:00:48Z</time>
      </trkpt>
      <trkpt lat="45.28371" lon="6.15866">
        <ele>1963.8</ele>
        <time>2021-02-17T09:00:49Z</time>
      </trkpt>
      <trkpt lat="45.28371" lon="6.15866">
        <ele>1964</ele>
        <time>2021-02-17T09:00:50Z</time>
      </trkpt>
      <trkpt lat="45.28372" lon="6.15865">
        <ele>1964.2</ele>
        <time>2021-02-17T09:00:51Z</time>
      </trkpt>
      <trkpt lat="45.28373" lon="6.15864">
        <ele>1964.5</ele>
        <time>2021-02-17T09:00:52Z</time>
      </trkpt>
      <trkpt lat="45.28373" lon="6.15863">
        <ele>1964.8</ele>
        <time>2021-02-17T09:00:53Z</time>
      </trkpt>
      <trkpt lat="45.28374" lon="6.15863">
        <ele>1965</ele>
        <time>2021-02-17T09:00:54Z</time>
      </trkpt>
      <trkpt lat="45.28374" lon="6.15862">
        <ele>1965.1</ele>
        <time>2021-02-17T09:00:55Z</time>
      </trkpt>
      <trkpt lat="45.28375" lon="6.15862">
        <ele>1965.3</ele>
        <time>2021-02-17T09:00:56Z</time>
      </trkpt>
      <trkpt lat="45.28376" lon="6.15862">
        <ele>1965.5</ele>
        <time>2021-02-17T09:00:57Z</time>
      </trkpt>
      <trkpt lat="45.28377" lon="6.15862">
        <ele>1965.7</ele>
        <time>2021-02-17T09:00:58Z</time>
      </trkpt>
      <trkpt lat="45.28377" lon="6.15862">
        <ele>1965.8</ele>
        <time>2021-02-17T09:00:59Z</time>
      </trkpt>
      <trkpt lat="45.28377" lon="6.15862">
        <ele>1965.9</ele>
        <time>2021-02-17T09:01:00Z</time>
      </trkpt>
      <trkpt lat="45.28378" lon="6.15861">
        <ele>1966.1</ele>
        <time>2021-02-17T09:01:01Z</time>
      </trkpt>
      <trkpt lat="45.28379" lon="6.15861">
        <ele>1966.3</ele>
        <time>2021-02-17T09:01:02Z</time>
      </trkpt>
      <trkpt lat="45.2838" lon="6.15861">
        <ele>1966.5</ele>
        <time>2021-02-17T09:01:03Z</time>
      </trkpt>
      <trkpt lat="45.2838" lon="6.1586">
        <ele>1966.7</ele>
        <time>2021-02-17T09:01:04Z</time>
      </trkpt>
      <trkpt lat="45.2838" lon="6.1586">
        <ele>1966.8</ele>
        <time>2021-02-17T09:01:05Z</time>
      </trkpt>
      <trkpt lat="45.28381" lon="6.15859">
        <ele>1966.9</ele>
        <time>2021-02-17T09:01:06Z</time>
      </trkpt>
      <trkpt lat="45.28381" lon="6.15859">
        <ele>1967.1</ele>
        <time>2021-02-17T09:01:07Z</time>
      </trkpt>
      <trkpt lat="45.28381" lon="6.15858">
        <ele>1967.2</ele>
        <time>2021-02-17T09:01:08Z</time>
      </trkpt>
      <trkpt lat="45.28382" lon="6.15858">
        <ele>1967.3</ele>
        <time>2021-02-17T09:01:09Z</time>
      </trkpt>
      <trkpt lat="45.28382" lon="6.15857">
        <ele>1967.4</ele>
        <time>2021-02-17T09:01:10Z</time>
      </trkpt>
      <trkpt lat="45.28382" lon="6.15856">
        <ele>1967.5</ele>
        <time>2021-02-17T09:01:11Z</time>
      </trkpt>
      <trkpt lat="45.28382" lon="6.15856">
        <ele>1967.6</ele>
        <time>2021-02-17T09:01:12Z</time>
      </trkpt>
      <trkpt lat="45.28382" lon="6.15856">
        <ele>1967.7</ele>
        <time>2021-02-17T09:01:13Z</time>
      </trkpt>
      <trkpt lat="45.28383" lon="6.15855">
        <ele>1967.8</ele>
        <time>2021-02-17T09:01:14Z</time>
      </trkpt>
      <trkpt lat="45.28383" lon="6.15855">
        <ele>1968</ele>
        <time>2021-02-17T09:01:15Z</time>
      </trkpt>
      <trkpt lat="45.28384" lon="6.15854">
        <ele>1968.1</ele>
        <time>2021-02-17T09:01:16Z</time>
      </trkpt>
      <trkpt lat="45.28385" lon="6.15854">
        <ele>1968.3</ele>
        <time>2021-02-17T09:01:17Z</time>
      </trkpt>
      <trkpt lat="45.28385" lon="6.15853">
        <ele>1968.5</ele>
        <time>2021-02-17T09:01:18Z</time>
      </trkpt>
      <trkpt lat="45.28385" lon="6.15852">
        <ele>1968.6</ele>
        <time>2021-02-17T09:01:19Z</time>
      </trkpt>
      <trkpt lat="45.28386" lon="6.15852">
        <ele>1968.8</ele>
        <time>2021-02-17T09:01:20Z</time>
      </trkpt>
      <trkpt lat="45.28386" lon="6.15851">
        <ele>1968.9</ele>
        <time>2021-02-17T09:01:21Z</time>
      </trkpt>
      <trkpt lat="45.28387" lon="6.1585">
        <ele>1969</ele>
        <time>2021-02-17T09:01:22Z</time>
      </trkpt>
      <trkpt lat="45.28387" lon="6.15849">
        <ele>1969.2</ele>
        <time>2021-02-17T09:01:23Z</time>
      </trkpt>
      <trkpt lat="45.28387" lon="6.15848">
        <ele>1969.4</ele>
        <time>2021-02-17T09:01:24Z</time>
      </trkpt>
      <trkpt lat="45.28387" lon="6.15847">
        <ele>1969.6</ele>
        <time>2021-02-17T09:01:25Z</time>
      </trkpt>
      <trkpt lat="45.28388" lon="6.15845">
        <ele>1969.8</ele>
        <time>2021-02-17T09:01:26Z</time>
      </trkpt>
      <trkpt lat="45.28388" lon="6.15845">
        <ele>1970</ele>
        <time>2021-02-17T09:01:27Z</time>
      </trkpt>
      <trkpt lat="45.28388" lon="6.15844">
        <ele>1970.1</ele>
        <time>2021-02-17T09:01:28Z</time>
      </trkpt>
      <trkpt lat="45.28389" lon="6.15843">
        <ele>1970.3</ele>
        <time>2021-02-17T09:01:29Z</time>
      </trkpt>
      <trkpt lat="45.28389" lon="6.15842">
        <ele>1970.4</ele>
        <time>2021-02-17T09:01:30Z</time>
      </trkpt>
      <trkpt lat="45.28389" lon="6.15841">
        <ele>1970.6</ele>
        <time>2021-02-17T09:01:31Z</time>
      </trkpt>
      <trkpt lat="45.2839" lon="6.1584">
        <ele>1970.7</ele>
        <time>2021-02-17T09:01:32Z</time>
      </trkpt>
      <trkpt lat="45.2839" lon="6.15839">
        <ele>1970.9</ele>
        <time>2021-02-17T09:01:33Z</time>
      </trkpt>
      <trkpt lat="45.2839" lon="6.15839">
        <ele>1971</ele>
        <time>2021-02-17T09:01:34Z</time>
      </trkpt>
      <trkpt lat="45.2839" lon="6.15838">
        <ele>1971.1</ele>
        <time>2021-02-17T09:01:35Z</time>
      </trkpt>
      <trkpt lat="45.2839" lon="6.15837">
        <ele>1971.3</ele>
        <time>2021-02-17T09:01:36Z</time>
      </trkpt>
      <trkpt lat="45.2839" lon="6.15836">
        <ele>1971.4</ele>
        <time>2021-02-17T09:01:37Z</time>
      </trkpt>
      <trkpt lat="45.2839" lon="6.15835">
        <ele>1971.6</ele>
        <time>2021-02-17T09:01:38Z</time>
      </trkpt>
      <trkpt lat="45.2839" lon="6.15834">
        <ele>1971.7</ele>
        <time>2021-02-17T09:01:39Z</time>
      </trkpt>
      <trkpt lat="45.28391" lon="6.15833">
        <ele>1971.9</ele>
        <time>2021-02-17T09:01:40Z</time>
      </trkpt>
      <trkpt lat="45.28391" lon="6.15832">
        <ele>1972.1</ele>
        <time>2021-02-17T09:01:41Z</time>
      </trkpt>
      <trkpt lat="45.28391" lon="6.15831">
        <ele>1972.2</ele>
        <time>2021-02-17T09:01:42Z</time>
      </trkpt>
      <trkpt lat="45.28392" lon="6.1583">
        <ele>1972.4</ele>
        <time>2021-02-17T09:01:43Z</time>
      </trkpt>
      <trkpt lat="45.28392" lon="6.15829">
        <ele>1972.6</ele>
        <time>2021-02-17T09:01:44Z</time>
      </trkpt>
      <trkpt lat="45.28392" lon="6.15828">
        <ele>1972.8</ele>
        <time>2021-02-17T09:01:45Z</time>
      </trkpt>
      <trkpt lat="45.28392" lon="6.15827">
        <ele>1972.9</ele>
        <time>2021-02-17T09:01:46Z</time>
      </trkpt>
      <trkpt lat="45.28393" lon="6.15826">
        <ele>1973.1</ele>
        <time>2021-02-17T09:01:47Z</time>
      </trkpt>
      <trkpt lat="45.28393" lon="6.15826">
        <ele>1973.2</ele>
        <time>2021-02-17T09:01:48Z</time>
      </trkpt>
      <trkpt lat="45.28393" lon="6.15825">
        <ele>1973.4</ele>
        <time>2021-02-17T09:01:49Z</time>
      </trkpt>
      <trkpt lat="45.28394" lon="6.15824">
        <ele>1973.6</ele>
        <time>2021-02-17T09:01:50Z</time>
      </trkpt>
      <trkpt lat="45.28394" lon="6.15823">
        <ele>1973.7</ele>
        <time>2021-02-17T09:01:51Z</time>
      </trkpt>
      <trkpt lat="45.28395" lon="6.15823">
        <ele>1973.9</ele>
        <time>2021-02-17T09:01:52Z</time>
      </trkpt>
      <trkpt lat="45.28396" lon="6.15822">
        <ele>1974.1</ele>
        <time>2021-02-17T09:01:53Z</time>
      </trkpt>
      <trkpt lat="45.28396" lon="6.15822">
        <ele>1974.3</ele>
        <time>2021-02-17T09:01:54Z</time>
      </trkpt>
      <trkpt lat="45.28397" lon="6.15821">
        <ele>1974.4</ele>
        <time>2021-02-17T09:01:55Z</time>
      </trkpt>
      <trkpt lat="45.28397" lon="6.15821">
        <ele>1974.5</ele>
        <time>2021-02-17T09:01:56Z</time>
      </trkpt>
      <trkpt lat="45.28397" lon="6.15821">
        <ele>1974.6</ele>
        <time>2021-02-17T09:01:57Z</time>
      </trkpt>
      <trkpt lat="45.28398" lon="6.1582">
        <ele>1974.8</ele>
        <time>2021-02-17T09:01:58Z</time>
      </trkpt>
      <trkpt lat="45.28398" lon="6.1582">
        <ele>1975</ele>
        <time>2021-02-17T09:01:59Z</time>
      </trkpt>
      <trkpt lat="45.28399" lon="6.15819">
        <ele>1975.1</ele>
        <time>2021-02-17T09:02:00Z</time>
      </trkpt>
      <trkpt lat="45.28399" lon="6.15819">
        <ele>1975.2</ele>
        <time>2021-02-17T09:02:01Z</time>
      </trkpt>
      <trkpt lat="45.28399" lon="6.15818">
        <ele>1975.4</ele>
        <time>2021-02-17T09:02:02Z</time>
      </trkpt>
      <trkpt lat="45.284" lon="6.15818">
        <ele>1975.6</ele>
        <time>2021-02-17T09:02:03Z</time>
      </trkpt>
      <trkpt lat="45.28401" lon="6.15818">
        <ele>1975.8</ele>
        <time>2021-02-17T09:02:04Z</time>
      </trkpt>
      <trkpt lat="45.28401" lon="6.15817">
        <ele>1976</ele>
        <time>2021-02-17T09:02:05Z</time>
      </trkpt>
      <trkpt lat="45.28401" lon="6.15817">
        <ele>1976</ele>
        <time>2021-02-17T09:02:06Z</time>
      </trkpt>
      <trkpt lat="45.28402" lon="6.15817">
        <ele>1976.2</ele>
        <time>2021-02-17T09:02:07Z</time>
      </trkpt>
      <trkpt lat="45.28403" lon="6.15817">
        <ele>1976.4</ele>
        <time>2021-02-17T09:02:08Z</time>
      </trkpt>
      <trkpt lat="45.28403" lon="6.15816">
        <ele>1976.6</ele>
        <time>2021-02-17T09:02:09Z</time>
      </trkpt>
      <trkpt lat="45.28404" lon="6.15816">
        <ele>1976.9</ele>
        <time>2021-02-17T09:02:10Z</time>
      </trkpt>
      <trkpt lat="45.28406" lon="6.15815">
        <ele>1977.4</ele>
        <time>2021-02-17T09:02:11Z</time>
      </trkpt>
      <trkpt lat="45.28407" lon="6.15815">
        <ele>1977.7</ele>
        <time>2021-02-17T09:02:12Z</time>
      </trkpt>
      <trkpt lat="45.28408" lon="6.15814">
        <ele>1977.9</ele>
        <time>2021-02-17T09:02:13Z</time>
      </trkpt>
      <trkpt lat="45.28408" lon="6.15814">
        <ele>1978.1</ele>
        <time>2021-02-17T09:02:14Z</time>
      </trkpt>
      <trkpt lat="45.28409" lon="6.15813">
        <ele>1978.3</ele>
        <time>2021-02-17T09:02:15Z</time>
      </trkpt>
      <trkpt lat="45.28409" lon="6.15813">
        <ele>1978.4</ele>
        <time>2021-02-17T09:02:16Z</time>
      </trkpt>
      <trkpt lat="45.28409" lon="6.15812">
        <ele>1978.5</ele>
        <time>2021-02-17T09:02:17Z</time>
      </trkpt>
      <trkpt lat="45.2841" lon="6.15812">
        <ele>1978.6</ele>
        <time>2021-02-17T09:02:18Z</time>
      </trkpt>
      <trkpt lat="45.2841" lon="6.15812">
        <ele>1978.7</ele>
        <time>2021-02-17T09:02:19Z</time>
      </trkpt>
      <trkpt lat="45.2841" lon="6.15812">
        <ele>1978.8</ele>
        <time>2021-02-17T09:02:20Z</time>
      </trkpt>
      <trkpt lat="45.28411" lon="6.15811">
        <ele>1979</ele>
        <time>2021-02-17T09:02:21Z</time>
      </trkpt>
      <trkpt lat="45.28411" lon="6.15811">
        <ele>1979.1</ele>
        <time>2021-02-17T09:02:22Z</time>
      </trkpt>
      <trkpt lat="45.28412" lon="6.15811">
        <ele>1979.4</ele>
        <time>2021-02-17T09:02:23Z</time>
      </trkpt>
      <trkpt lat="45.28413" lon="6.15811">
        <ele>1979.5</ele>
        <time>2021-02-17T09:02:24Z</time>
      </trkpt>
      <trkpt lat="45.28413" lon="6.15811">
        <ele>1979.7</ele>
        <time>2021-02-17T09:02:25Z</time>
      </trkpt>
      <trkpt lat="45.28414" lon="6.15811">
        <ele>1979.8</ele>
        <time>2021-02-17T09:02:26Z</time>
      </trkpt>
      <trkpt lat="45.28414" lon="6.1581">
        <ele>1979.9</ele>
        <time>2021-02-17T09:02:27Z</time>
      </trkpt>
      <trkpt lat="45.28414" lon="6.1581">
        <ele>1979.9</ele>
        <time>2021-02-17T09:02:28Z</time>
      </trkpt>
      <trkpt lat="45.28414" lon="6.15809">
        <ele>1980</ele>
        <time>2021-02-17T09:02:29Z</time>
      </trkpt>
      <trkpt lat="45.28414" lon="6.15809">
        <ele>1980.2</ele>
        <time>2021-02-17T09:02:30Z</time>
      </trkpt>
      <trkpt lat="45.28415" lon="6.15808">
        <ele>1980.4</ele>
        <time>2021-02-17T09:02:31Z</time>
      </trkpt>
      <trkpt lat="45.28415" lon="6.15807">
        <ele>1980.5</ele>
        <time>2021-02-17T09:02:32Z</time>
      </trkpt>
      <trkpt lat="45.28415" lon="6.15807">
        <ele>1980.6</ele>
        <time>2021-02-17T09:02:33Z</time>
      </trkpt>
      <trkpt lat="45.28416" lon="6.15807">
        <ele>1980.7</ele>
        <time>2021-02-17T09:02:34Z</time>
      </trkpt>
      <trkpt lat="45.28416" lon="6.15807">
        <ele>1980.8</ele>
        <time>2021-02-17T09:02:35Z</time>
      </trkpt>
      <trkpt lat="45.28416" lon="6.15807">
        <ele>1980.8</ele>
        <time>2021-02-17T09:02:36Z</time>
      </trkpt>
      <trkpt lat="45.28417" lon="6.15807">
        <ele>1981</ele>
        <time>2021-02-17T09:02:37Z</time>
      </trkpt>
      <trkpt lat="45.28417" lon="6.15807">
        <ele>1981</ele>
        <time>2021-02-17T09:02:38Z</time>
      </trkpt>
      <trkpt lat="45.28417" lon="6.15806">
        <ele>1981.2</ele>
        <time>2021-02-17T09:02:39Z</time>
      </trkpt>
      <trkpt lat="45.28417" lon="6.15806">
        <ele>1981.2</ele>
        <time>2021-02-17T09:02:40Z</time>
      </trkpt>
      <trkpt lat="45.28418" lon="6.15806">
        <ele>1981.2</ele>
        <time>2021-02-17T09:02:41Z</time>
      </trkpt>
      <trkpt lat="45.28418" lon="6.15806">
        <ele>1981.3</ele>
        <time>2021-02-17T09:02:42Z</time>
      </trkpt>
      <trkpt lat="45.28418" lon="6.15807">
        <ele>1981.5</ele>
        <time>2021-02-17T09:02:43Z</time>
      </trkpt>
      <trkpt lat="45.28419" lon="6.15806">
        <ele>1981.6</ele>
        <time>2021-02-17T09:02:44Z</time>
      </trkpt>
      <trkpt lat="45.28419" lon="6.15806">
        <ele>1981.6</ele>
        <time>2021-02-17T09:02:45Z</time>
      </trkpt>
      <trkpt lat="45.28419" lon="6.15806">
        <ele>1981.7</ele>
        <time>2021-02-17T09:02:46Z</time>
      </trkpt>
      <trkpt lat="45.2842" lon="6.15806">
        <ele>1981.8</ele>
        <time>2021-02-17T09:02:47Z</time>
      </trkpt>
      <trkpt lat="45.2842" lon="6.15806">
        <ele>1981.9</ele>
        <time>2021-02-17T09:02:48Z</time>
      </trkpt>
      <trkpt lat="45.2842" lon="6.15806">
        <ele>1982</ele>
        <time>2021-02-17T09:02:49Z</time>
      </trkpt>
      <trkpt lat="45.28421" lon="6.15806">
        <ele>1982.1</ele>
        <time>2021-02-17T09:02:50Z</time>
      </trkpt>
      <trkpt lat="45.28422" lon="6.15806">
        <ele>1982.3</ele>
        <time>2021-02-17T09:02:51Z</time>
      </trkpt>
      <trkpt lat="45.28422" lon="6.15806">
        <ele>1982.4</ele>
        <time>2021-02-17T09:02:52Z</time>
      </trkpt>
      <trkpt lat="45.28422" lon="6.15806">
        <ele>1982.5</ele>
        <time>2021-02-17T09:02:53Z</time>
      </trkpt>
      <trkpt lat="45.28423" lon="6.15806">
        <ele>1982.6</ele>
        <time>2021-02-17T09:02:54Z</time>
      </trkpt>
      <trkpt lat="45.28423" lon="6.15806">
        <ele>1982.7</ele>
        <time>2021-02-17T09:02:55Z</time>
      </trkpt>
      <trkpt lat="45.28424" lon="6.15806">
        <ele>1982.8</ele>
        <time>2021-02-17T09:02:56Z</time>
      </trkpt>
      <trkpt lat="45.28424" lon="6.15806">
        <ele>1983</ele>
        <time>2021-02-17T09:02:57Z</time>
      </trkpt>
      <trkpt lat="45.28428" lon="6.15803">
        <ele>1985.9</ele>
        <time>2021-02-17T09:03:02Z</time>
      </trkpt>
      <trkpt lat="45.28429" lon="6.15803">
        <ele>1986.3</ele>
        <time>2021-02-17T09:03:03Z</time>
      </trkpt>
      <trkpt lat="45.2843" lon="6.15802">
        <ele>1986.6</ele>
        <time>2021-02-17T09:03:04Z</time>
      </trkpt>
      <trkpt lat="45.2843" lon="6.15801">
        <ele>1987</ele>
        <time>2021-02-17T09:03:05Z</time>
      </trkpt>
      <trkpt lat="45.28431" lon="6.158">
        <ele>1987.4</ele>
        <time>2021-02-17T09:03:06Z</time>
      </trkpt>
      <trkpt lat="45.28432" lon="6.158">
        <ele>1987.9</ele>
        <time>2021-02-17T09:03:07Z</time>
      </trkpt>
      <trkpt lat="45.28433" lon="6.15799">
        <ele>1988.3</ele>
        <time>2021-02-17T09:03:08Z</time>
      </trkpt>
      <trkpt lat="45.28434" lon="6.15798">
        <ele>1988.7</ele>
        <time>2021-02-17T09:03:09Z</time>
      </trkpt>
      <trkpt lat="45.28434" lon="6.15797">
        <ele>1989</ele>
        <time>2021-02-17T09:03:10Z</time>
      </trkpt>
      <trkpt lat="45.28435" lon="6.15796">
        <ele>1989.3</ele>
        <time>2021-02-17T09:03:11Z</time>
      </trkpt>
      <trkpt lat="45.28435" lon="6.15795">
        <ele>1989.7</ele>
        <time>2021-02-17T09:03:12Z</time>
      </trkpt>
      <trkpt lat="45.28436" lon="6.15794">
        <ele>1990</ele>
        <time>2021-02-17T09:03:13Z</time>
      </trkpt>
      <trkpt lat="45.28436" lon="6.15794">
        <ele>1990.2</ele>
        <time>2021-02-17T09:03:14Z</time>
      </trkpt>
      <trkpt lat="45.28436" lon="6.15793">
        <ele>1990.5</ele>
        <time>2021-02-17T09:03:15Z</time>
      </trkpt>
      <trkpt lat="45.28436" lon="6.15792">
        <ele>1990.6</ele>
        <time>2021-02-17T09:03:16Z</time>
      </trkpt>
      <trkpt lat="45.28437" lon="6.15792">
        <ele>1990.9</ele>
        <time>2021-02-17T09:03:17Z</time>
      </trkpt>
      <trkpt lat="45.28437" lon="6.15791">
        <ele>1991.2</ele>
        <time>2021-02-17T09:03:18Z</time>
      </trkpt>
      <trkpt lat="45.28438" lon="6.1579">
        <ele>1991.6</ele>
        <time>2021-02-17T09:03:19Z</time>
      </trkpt>
      <trkpt lat="45.28438" lon="6.15789">
        <ele>1991.9</ele>
        <time>2021-02-17T09:03:20Z</time>
      </trkpt>
      <trkpt lat="45.28439" lon="6.15788">
        <ele>1991.9</ele>
        <time>2021-02-17T09:03:21Z</time>
      </trkpt>
      <trkpt lat="45.28439" lon="6.15787">
        <ele>1992.6</ele>
        <time>2021-02-17T09:03:22Z</time>
      </trkpt>
      <trkpt lat="45.28439" lon="6.15786">
        <ele>1992.6</ele>
        <time>2021-02-17T09:03:23Z</time>
      </trkpt>
      <trkpt lat="45.28439" lon="6.15786">
        <ele>1992.6</ele>
        <time>2021-02-17T09:03:24Z</time>
      </trkpt>
      <trkpt lat="45.28439" lon="6.15785">
        <ele>1992.6</ele>
        <time>2021-02-17T09:03:25Z</time>
      </trkpt>
      <trkpt lat="45.28439" lon="6.15784">
        <ele>1992.6</ele>
        <time>2021-02-17T09:03:26Z</time>
      </trkpt>
      <trkpt lat="45.28438" lon="6.15783">
        <ele>1993.4</ele>
        <time>2021-02-17T09:03:27Z</time>
      </trkpt>
      <trkpt lat="45.28438" lon="6.15783">
        <ele>1993.4</ele>
        <time>2021-02-17T09:03:28Z</time>
      </trkpt>
      <trkpt lat="45.28438" lon="6.15782">
        <ele>1993.4</ele>
        <time>2021-02-17T09:03:29Z</time>
      </trkpt>
      <trkpt lat="45.28438" lon="6.15781">
        <ele>1993.4</ele>
        <time>2021-02-17T09:03:30Z</time>
      </trkpt>
      <trkpt lat="45.28438" lon="6.1578">
        <ele>1993.4</ele>
        <time>2021-02-17T09:03:31Z</time>
      </trkpt>
      <trkpt lat="45.28437" lon="6.15779">
        <ele>1994.2</ele>
        <time>2021-02-17T09:03:32Z</time>
      </trkpt>
      <trkpt lat="45.28437" lon="6.15778">
        <ele>1994.2</ele>
        <time>2021-02-17T09:03:33Z</time>
      </trkpt>
      <trkpt lat="45.28437" lon="6.15777">
        <ele>1993.2</ele>
        <time>2021-02-17T09:03:34Z</time>
      </trkpt>
      <trkpt lat="45.28436" lon="6.15776">
        <ele>1993.2</ele>
        <time>2021-02-17T09:03:35Z</time>
      </trkpt>
      <trkpt lat="45.28436" lon="6.15775">
        <ele>1993.2</ele>
        <time>2021-02-17T09:03:36Z</time>
      </trkpt>
      <trkpt lat="45.28436" lon="6.15775">
        <ele>1994</ele>
        <time>2021-02-17T09:03:37Z</time>
      </trkpt>
      <trkpt lat="45.28436" lon="6.15774">
        <ele>1994</ele>
        <time>2021-02-17T09:03:38Z</time>
      </trkpt>
      <trkpt lat="45.28435" lon="6.15774">
        <ele>1994</ele>
        <time>2021-02-17T09:03:39Z</time>
      </trkpt>
      <trkpt lat="45.28435" lon="6.15773">
        <ele>1994</ele>
        <time>2021-02-17T09:03:40Z</time>
      </trkpt>
      <trkpt lat="45.28435" lon="6.15773">
        <ele>1994</ele>
        <time>2021-02-17T09:03:41Z</time>
      </trkpt>
      <trkpt lat="45.28435" lon="6.15773">
        <ele>1994</ele>
        <time>2021-02-17T09:03:42Z</time>
      </trkpt>
      <trkpt lat="45.28435" lon="6.15774">
        <ele>1994</ele>
        <time>2021-02-17T09:03:43Z</time>
      </trkpt>
      <trkpt lat="45.28435" lon="6.15774">
        <ele>1994</ele>
        <time>2021-02-17T09:03:44Z</time>
      </trkpt>
      <trkpt lat="45.28435" lon="6.15774">
        <ele>1994</ele>
        <time>2021-02-17T09:03:45Z</time>
      </trkpt>
      <trkpt lat="45.28434" lon="6.15775">
        <ele>1994</ele>
        <time>2021-02-17T09:03:46Z</time>
      </trkpt>
      <trkpt lat="45.28434" lon="6.15775">
        <ele>1994</ele>
        <time>2021-02-17T09:03:47Z</time>
      </trkpt>
      <trkpt lat="45.2843" lon="6.15764">
        <ele>1994.1</ele>
        <time>2021-02-17T09:04:04Z</time>
      </trkpt>
      <trkpt lat="45.28429" lon="6.15764">
        <ele>1994.1</ele>
        <time>2021-02-17T09:04:05Z</time>
      </trkpt>
      <trkpt lat="45.28429" lon="6.15763">
        <ele>1994.1</ele>
        <time>2021-02-17T09:04:06Z</time>
      </trkpt>
      <trkpt lat="45.28429" lon="6.15762">
        <ele>1994.1</ele>
        <time>2021-02-17T09:04:07Z</time>
      </trkpt>
      <trkpt lat="45.28428" lon="6.15761">
        <ele>1995.1</ele>
        <time>2021-02-17T09:04:08Z</time>
      </trkpt>
      <trkpt lat="45.28428" lon="6.15759">
        <ele>1994.4</ele>
        <time>2021-02-17T09:04:09Z</time>
      </trkpt>
      <trkpt lat="45.28427" lon="6.15758">
        <ele>1994.4</ele>
        <time>2021-02-17T09:04:10Z</time>
      </trkpt>
      <trkpt lat="45.28427" lon="6.15757">
        <ele>1995.5</ele>
        <time>2021-02-17T09:04:11Z</time>
      </trkpt>
      <trkpt lat="45.28427" lon="6.15756">
        <ele>1995.5</ele>
        <time>2021-02-17T09:04:12Z</time>
      </trkpt>
      <trkpt lat="45.28427" lon="6.15756">
        <ele>1995.5</ele>
        <time>2021-02-17T09:04:13Z</time>
      </trkpt>
      <trkpt lat="45.28427" lon="6.15755">
        <ele>1995.5</ele>
        <time>2021-02-17T09:04:14Z</time>
      </trkpt>
      <trkpt lat="45.28427" lon="6.15755">
        <ele>1995.5</ele>
        <time>2021-02-17T09:04:15Z</time>
      </trkpt>
      <trkpt lat="45.28427" lon="6.15755">
        <ele>1995.5</ele>
        <time>2021-02-17T09:04:16Z</time>
      </trkpt>
      <trkpt lat="45.28426" lon="6.15755">
        <ele>1995.5</ele>
        <time>2021-02-17T09:04:17Z</time>
      </trkpt>
      <trkpt lat="45.28426" lon="6.15755">
        <ele>1995.5</ele>
        <time>2021-02-17T09:04:18Z</time>
      </trkpt>
      <trkpt lat="45.28426" lon="6.15753">
        <ele>1996.7</ele>
        <time>2021-02-17T09:04:19Z</time>
      </trkpt>
      <trkpt lat="45.28425" lon="6.15751">
        <ele>1996.7</ele>
        <time>2021-02-17T09:04:20Z</time>
      </trkpt>
      <trkpt lat="45.28425" lon="6.15739">
        <ele>2000.6</ele>
        <time>2021-02-17T09:04:31Z</time>
      </trkpt>
      <trkpt lat="45.28425" lon="6.15738">
        <ele>2000.6</ele>
        <time>2021-02-17T09:04:32Z</time>
      </trkpt>
      <trkpt lat="45.28425" lon="6.15737">
        <ele>2000.6</ele>
        <time>2021-02-17T09:04:33Z</time>
      </trkpt>
      <trkpt lat="45.28425" lon="6.15736">
        <ele>2001.9</ele>
        <time>2021-02-17T09:04:34Z</time>
      </trkpt>
      <trkpt lat="45.28425" lon="6.15735">
        <ele>2001.9</ele>
        <time>2021-02-17T09:04:35Z</time>
      </trkpt>
      <trkpt lat="45.28425" lon="6.15733">
        <ele>2001.9</ele>
        <time>2021-02-17T09:04:36Z</time>
      </trkpt>
      <trkpt lat="45.28425" lon="6.15732">
        <ele>2003.2</ele>
        <time>2021-02-17T09:04:37Z</time>
      </trkpt>
      <trkpt lat="45.28425" lon="6.1573">
        <ele>2003.2</ele>
        <time>2021-02-17T09:04:38Z</time>
      </trkpt>
      <trkpt lat="45.28426" lon="6.15729">
        <ele>2003.2</ele>
        <time>2021-02-17T09:04:39Z</time>
      </trkpt>
      <trkpt lat="45.28426" lon="6.15728">
        <ele>2004.6</ele>
        <time>2021-02-17T09:04:40Z</time>
      </trkpt>
      <trkpt lat="45.28427" lon="6.15725">
        <ele>2004.6</ele>
        <time>2021-02-17T09:04:41Z</time>
      </trkpt>
      <trkpt lat="45.28428" lon="6.15724">
        <ele>2005</ele>
        <time>2021-02-17T09:04:42Z</time>
      </trkpt>
      <trkpt lat="45.28429" lon="6.15724">
        <ele>2006.4</ele>
        <time>2021-02-17T09:04:43Z</time>
      </trkpt>
      <trkpt lat="45.28429" lon="6.15722">
        <ele>2006.4</ele>
        <time>2021-02-17T09:04:44Z</time>
      </trkpt>
      <trkpt lat="45.2843" lon="6.15721">
        <ele>2006.4</ele>
        <time>2021-02-17T09:04:45Z</time>
      </trkpt>
      <trkpt lat="45.2843" lon="6.1572">
        <ele>2006.4</ele>
        <time>2021-02-17T09:04:46Z</time>
      </trkpt>
      <trkpt lat="45.28431" lon="6.15719">
        <ele>2007.8</ele>
        <time>2021-02-17T09:04:47Z</time>
      </trkpt>
      <trkpt lat="45.28431" lon="6.15718">
        <ele>2008.2</ele>
        <time>2021-02-17T09:04:48Z</time>
      </trkpt>
      <trkpt lat="45.28432" lon="6.15717">
        <ele>2008.2</ele>
        <time>2021-02-17T09:04:49Z</time>
      </trkpt>
      <trkpt lat="45.28433" lon="6.15716">
        <ele>2008.2</ele>
        <time>2021-02-17T09:04:50Z</time>
      </trkpt>
      <trkpt lat="45.28433" lon="6.15715">
        <ele>2009.6</ele>
        <time>2021-02-17T09:04:51Z</time>
      </trkpt>
      <trkpt lat="45.28434" lon="6.15714">
        <ele>2009.6</ele>
        <time>2021-02-17T09:04:52Z</time>
      </trkpt>
      <trkpt lat="45.28434" lon="6.15713">
        <ele>2009.6</ele>
        <time>2021-02-17T09:04:53Z</time>
      </trkpt>
      <trkpt lat="45.28434" lon="6.15713">
        <ele>2010</ele>
        <time>2021-02-17T09:04:54Z</time>
      </trkpt>
      <trkpt lat="45.28434" lon="6.15712">
        <ele>2010</ele>
        <time>2021-02-17T09:04:55Z</time>
      </trkpt>
      <trkpt lat="45.28435" lon="6.15712">
        <ele>2010</ele>
        <time>2021-02-17T09:04:56Z</time>
      </trkpt>
      <trkpt lat="45.28435" lon="6.15711">
        <ele>2010</ele>
        <time>2021-02-17T09:04:57Z</time>
      </trkpt>
      <trkpt lat="45.28436" lon="6.15711">
        <ele>2010</ele>
        <time>2021-02-17T09:04:58Z</time>
      </trkpt>
      <trkpt lat="45.28436" lon="6.15711">
        <ele>2011.3</ele>
        <time>2021-02-17T09:04:59Z</time>
      </trkpt>
      <trkpt lat="45.28436" lon="6.1571">
        <ele>2011.3</ele>
        <time>2021-02-17T09:05:00Z</time>
      </trkpt>
      <trkpt lat="45.28437" lon="6.15709">
        <ele>2011.3</ele>
        <time>2021-02-17T09:05:01Z</time>
      </trkpt>
      <trkpt lat="45.28437" lon="6.15709">
        <ele>2011.8</ele>
        <time>2021-02-17T09:05:02Z</time>
      </trkpt>
      <trkpt lat="45.28437" lon="6.15708">
        <ele>2011.8</ele>
        <time>2021-02-17T09:05:03Z</time>
      </trkpt>
      <trkpt lat="45.28438" lon="6.15708">
        <ele>2011.8</ele>
        <time>2021-02-17T09:05:04Z</time>
      </trkpt>
      <trkpt lat="45.28438" lon="6.15707">
        <ele>2011.8</ele>
        <time>2021-02-17T09:05:05Z</time>
      </trkpt>
      <trkpt lat="45.28439" lon="6.15707">
        <ele>2011.8</ele>
        <time>2021-02-17T09:05:06Z</time>
      </trkpt>
      <trkpt lat="45.28439" lon="6.15706">
        <ele>2013.1</ele>
        <time>2021-02-17T09:05:07Z</time>
      </trkpt>
      <trkpt lat="45.2844" lon="6.15706">
        <ele>2013.1</ele>
        <time>2021-02-17T09:05:08Z</time>
      </trkpt>
      <trkpt lat="45.28441" lon="6.15706">
        <ele>2013.6</ele>
        <time>2021-02-17T09:05:09Z</time>
      </trkpt>
      <trkpt lat="45.28441" lon="6.15706">
        <ele>2013.6</ele>
        <time>2021-02-17T09:05:10Z</time>
      </trkpt>
      <trkpt lat="45.28442" lon="6.15706">
        <ele>2013.6</ele>
        <time>2021-02-17T09:05:11Z</time>
      </trkpt>
      <trkpt lat="45.28442" lon="6.15705">
        <ele>2013.6</ele>
        <time>2021-02-17T09:05:12Z</time>
      </trkpt>
      <trkpt lat="45.28442" lon="6.15705">
        <ele>2013.6</ele>
        <time>2021-02-17T09:05:13Z</time>
      </trkpt>
      <trkpt lat="45.28442" lon="6.15705">
        <ele>2013.6</ele>
        <time>2021-02-17T09:05:14Z</time>
      </trkpt>
      <trkpt lat="45.28443" lon="6.15705">
        <ele>2013.6</ele>
        <time>2021-02-17T09:05:15Z</time>
      </trkpt>
      <trkpt lat="45.28444" lon="6.15704">
        <ele>2014</ele>
        <time>2021-02-17T09:05:16Z</time>
      </trkpt>
      <trkpt lat="45.28444" lon="6.15704">
        <ele>2014</ele>
        <time>2021-02-17T09:05:17Z</time>
      </trkpt>
      <trkpt lat="45.28445" lon="6.15704">
        <ele>2014</ele>
        <time>2021-02-17T09:05:18Z</time>
      </trkpt>
      <trkpt lat="45.28446" lon="6.15704">
        <ele>2014</ele>
        <time>2021-02-17T09:05:19Z</time>
      </trkpt>
      <trkpt lat="45.28447" lon="6.15704">
        <ele>2014.5</ele>
        <time>2021-02-17T09:05:20Z</time>
      </trkpt>
      <trkpt lat="45.28448" lon="6.15704">
        <ele>2014.5</ele>
        <time>2021-02-17T09:05:21Z</time>
      </trkpt>
      <trkpt lat="45.28448" lon="6.15704">
        <ele>2014.5</ele>
        <time>2021-02-17T09:05:22Z</time>
      </trkpt>
      <trkpt lat="45.28451" lon="6.15699">
        <ele>2016.2</ele>
        <time>2021-02-17T09:05:49Z</time>
      </trkpt>
      <trkpt lat="45.28451" lon="6.15697">
        <ele>2017.5</ele>
        <time>2021-02-17T09:05:50Z</time>
      </trkpt>
      <trkpt lat="45.28451" lon="6.15696">
        <ele>2017.5</ele>
        <time>2021-02-17T09:05:51Z</time>
      </trkpt>
      <trkpt lat="45.28451" lon="6.15695">
        <ele>2017.5</ele>
        <time>2021-02-17T09:05:52Z</time>
      </trkpt>
      <trkpt lat="45.28451" lon="6.15694">
        <ele>2017.5</ele>
        <time>2021-02-17T09:05:53Z</time>
      </trkpt>
      <trkpt lat="45.28451" lon="6.15694">
        <ele>2017.5</ele>
        <time>2021-02-17T09:05:54Z</time>
      </trkpt>
      <trkpt lat="45.28451" lon="6.15693">
        <ele>2018.8</ele>
        <time>2021-02-17T09:05:55Z</time>
      </trkpt>
      <trkpt lat="45.28451" lon="6.15692">
        <ele>2018.8</ele>
        <time>2021-02-17T09:05:56Z</time>
      </trkpt>
      <trkpt lat="45.2845" lon="6.15691">
        <ele>2018.8</ele>
        <time>2021-02-17T09:05:57Z</time>
      </trkpt>
      <trkpt lat="45.2845" lon="6.15689">
        <ele>2020</ele>
        <time>2021-02-17T09:05:58Z</time>
      </trkpt>
      <trkpt lat="45.2845" lon="6.15688">
        <ele>2020</ele>
        <time>2021-02-17T09:05:59Z</time>
      </trkpt>
      <trkpt lat="45.2845" lon="6.15687">
        <ele>2020</ele>
        <time>2021-02-17T09:06:00Z</time>
      </trkpt>
      <trkpt lat="45.2845" lon="6.15686">
        <ele>2020</ele>
        <time>2021-02-17T09:06:01Z</time>
      </trkpt>
      <trkpt lat="45.2845" lon="6.15686">
        <ele>2020</ele>
        <time>2021-02-17T09:06:02Z</time>
      </trkpt>
      <trkpt lat="45.2845" lon="6.15686">
        <ele>2020</ele>
        <time>2021-02-17T09:06:03Z</time>
      </trkpt>
      <trkpt lat="45.28449" lon="6.15685">
        <ele>2021.1</ele>
        <time>2021-02-17T09:06:04Z</time>
      </trkpt>
      <trkpt lat="45.28449" lon="6.15684">
        <ele>2021.1</ele>
        <time>2021-02-17T09:06:05Z</time>
      </trkpt>
      <trkpt lat="45.28449" lon="6.15683">
        <ele>2021.1</ele>
        <time>2021-02-17T09:06:06Z</time>
      </trkpt>
      <trkpt lat="45.28449" lon="6.15683">
        <ele>2020.7</ele>
        <time>2021-02-17T09:06:07Z</time>
      </trkpt>
      <trkpt lat="45.28449" lon="6.15682">
        <ele>2020.7</ele>
        <time>2021-02-17T09:06:08Z</time>
      </trkpt>
      <trkpt lat="45.28449" lon="6.15681">
        <ele>2020.7</ele>
        <time>2021-02-17T09:06:09Z</time>
      </trkpt>
      <trkpt lat="45.28449" lon="6.15681">
        <ele>2021.7</ele>
        <time>2021-02-17T09:06:10Z</time>
      </trkpt>
      <trkpt lat="45.28449" lon="6.1568">
        <ele>2021.7</ele>
        <time>2021-02-17T09:06:11Z</time>
      </trkpt>
      <trkpt lat="45.28449" lon="6.1568">
        <ele>2021.7</ele>
        <time>2021-02-17T09:06:12Z</time>
      </trkpt>
      <trkpt lat="45.28448" lon="6.15679">
        <ele>2021.7</ele>
        <time>2021-02-17T09:06:13Z</time>
      </trkpt>
      <trkpt lat="45.28448" lon="6.15677">
        <ele>2021.7</ele>
        <time>2021-02-17T09:06:14Z</time>
      </trkpt>
      <trkpt lat="45.28447" lon="6.15676">
        <ele>2022.8</ele>
        <time>2021-02-17T09:06:15Z</time>
      </trkpt>
      <trkpt lat="45.28447" lon="6.15675">
        <ele>2022.8</ele>
        <time>2021-02-17T09:06:16Z</time>
      </trkpt>
      <trkpt lat="45.28446" lon="6.15674">
        <ele>2022.8</ele>
        <time>2021-02-17T09:06:17Z</time>
      </trkpt>
      <trkpt lat="45.28446" lon="6.15673">
        <ele>2022.8</ele>
        <time>2021-02-17T09:06:18Z</time>
      </trkpt>
      <trkpt lat="45.28446" lon="6.15672">
        <ele>2022.3</ele>
        <time>2021-02-17T09:06:19Z</time>
      </trkpt>
      <trkpt lat="45.28446" lon="6.15672">
        <ele>2022.3</ele>
        <time>2021-02-17T09:06:20Z</time>
      </trkpt>
      <trkpt lat="45.28446" lon="6.15672">
        <ele>2023.4</ele>
        <time>2021-02-17T09:06:21Z</time>
      </trkpt>
      <trkpt lat="45.28445" lon="6.15671">
        <ele>2023.4</ele>
        <time>2021-02-17T09:06:22Z</time>
      </trkpt>
      <trkpt lat="45.28445" lon="6.1567">
        <ele>2023.4</ele>
        <time>2021-02-17T09:06:23Z</time>
      </trkpt>
      <trkpt lat="45.28445" lon="6.1567">
        <ele>2023.4</ele>
        <time>2021-02-17T09:06:24Z</time>
      </trkpt>
      <trkpt lat="45.28445" lon="6.15668">
        <ele>2023.4</ele>
        <time>2021-02-17T09:06:25Z</time>
      </trkpt>
      <trkpt lat="45.28444" lon="6.15667">
        <ele>2024.5</ele>
        <time>2021-02-17T09:06:26Z</time>
      </trkpt>
      <trkpt lat="45.28444" lon="6.15667">
        <ele>2024.5</ele>
        <time>2021-02-17T09:06:27Z</time>
      </trkpt>
      <trkpt lat="45.28444" lon="6.15667">
        <ele>2024.5</ele>
        <time>2021-02-17T09:06:28Z</time>
      </trkpt>
      <trkpt lat="45.28444" lon="6.15668">
        <ele>2024.5</ele>
        <time>2021-02-17T09:06:29Z</time>
      </trkpt>
      <trkpt lat="45.28443" lon="6.15668">
        <ele>2024.5</ele>
        <time>2021-02-17T09:06:30Z</time>
      </trkpt>
      <trkpt lat="45.28443" lon="6.15667">
        <ele>2024.5</ele>
        <time>2021-02-17T09:06:31Z</time>
      </trkpt>
      <trkpt lat="45.28443" lon="6.15666">
        <ele>2024.1</ele>
        <time>2021-02-17T09:06:32Z</time>
      </trkpt>
      <trkpt lat="45.28442" lon="6.15666">
        <ele>2024.1</ele>
        <time>2021-02-17T09:06:33Z</time>
      </trkpt>
      <trkpt lat="45.28441" lon="6.15663">
        <ele>2025.2</ele>
        <time>2021-02-17T09:06:34Z</time>
      </trkpt>
      <trkpt lat="45.28441" lon="6.15661">
        <ele>2025.2</ele>
        <time>2021-02-17T09:06:35Z</time>
      </trkpt>
      <trkpt lat="45.2844" lon="6.15659">
        <ele>2026.4</ele>
        <time>2021-02-17T09:06:36Z</time>
      </trkpt>
      <trkpt lat="45.2844" lon="6.15657">
        <ele>2026.4</ele>
        <time>2021-02-17T09:06:37Z</time>
      </trkpt>
      <trkpt lat="45.2844" lon="6.15655">
        <ele>2025.9</ele>
        <time>2021-02-17T09:06:44Z</time>
      </trkpt>
      <trkpt lat="45.28439" lon="6.15654">
        <ele>2027</ele>
        <time>2021-02-17T09:06:45Z</time>
      </trkpt>
      <trkpt lat="45.28439" lon="6.15652">
        <ele>2027</ele>
        <time>2021-02-17T09:06:46Z</time>
      </trkpt>
      <trkpt lat="45.28439" lon="6.15651">
        <ele>2027</ele>
        <time>2021-02-17T09:06:47Z</time>
      </trkpt>
      <trkpt lat="45.28438" lon="6.1565">
        <ele>2028.1</ele>
        <time>2021-02-17T09:06:48Z</time>
      </trkpt>
      <trkpt lat="45.28438" lon="6.1565">
        <ele>2028.1</ele>
        <time>2021-02-17T09:06:49Z</time>
      </trkpt>
      <trkpt lat="45.28438" lon="6.1565">
        <ele>2028.1</ele>
        <time>2021-02-17T09:06:50Z</time>
      </trkpt>
      <trkpt lat="45.28438" lon="6.15649">
        <ele>2028.1</ele>
        <time>2021-02-17T09:06:51Z</time>
      </trkpt>
      <trkpt lat="45.28438" lon="6.15647">
        <ele>2028.1</ele>
        <time>2021-02-17T09:06:52Z</time>
      </trkpt>
      <trkpt lat="45.28438" lon="6.15646">
        <ele>2028.1</ele>
        <time>2021-02-17T09:06:53Z</time>
      </trkpt>
      <trkpt lat="45.28438" lon="6.15645">
        <ele>2029.2</ele>
        <time>2021-02-17T09:06:54Z</time>
      </trkpt>
      <trkpt lat="45.28438" lon="6.15644">
        <ele>2029.2</ele>
        <time>2021-02-17T09:06:55Z</time>
      </trkpt>
      <trkpt lat="45.28437" lon="6.15644">
        <ele>2029.2</ele>
        <time>2021-02-17T09:06:56Z</time>
      </trkpt>
      <trkpt lat="45.28437" lon="6.15643">
        <ele>2029.2</ele>
        <time>2021-02-17T09:06:57Z</time>
      </trkpt>
      <trkpt lat="45.28437" lon="6.15643">
        <ele>2029.2</ele>
        <time>2021-02-17T09:06:58Z</time>
      </trkpt>
      <trkpt lat="45.28437" lon="6.15642">
        <ele>2028.7</ele>
        <time>2021-02-17T09:06:59Z</time>
      </trkpt>
      <trkpt lat="45.28436" lon="6.15642">
        <ele>2029.8</ele>
        <time>2021-02-17T09:07:00Z</time>
      </trkpt>
      <trkpt lat="45.28436" lon="6.15642">
        <ele>2029.8</ele>
        <time>2021-02-17T09:07:01Z</time>
      </trkpt>
      <trkpt lat="45.28436" lon="6.15641">
        <ele>2029.8</ele>
        <time>2021-02-17T09:07:02Z</time>
      </trkpt>
      <trkpt lat="45.28436" lon="6.1564">
        <ele>2029.8</ele>
        <time>2021-02-17T09:07:03Z</time>
      </trkpt>
      <trkpt lat="45.28435" lon="6.1564">
        <ele>2029.8</ele>
        <time>2021-02-17T09:07:04Z</time>
      </trkpt>
      <trkpt lat="45.28435" lon="6.15639">
        <ele>2029.8</ele>
        <time>2021-02-17T09:07:05Z</time>
      </trkpt>
      <trkpt lat="45.28435" lon="6.15638">
        <ele>2029.8</ele>
        <time>2021-02-17T09:07:06Z</time>
      </trkpt>
      <trkpt lat="45.28433" lon="6.15636">
        <ele>2030.4</ele>
        <time>2021-02-17T09:07:11Z</time>
      </trkpt>
      <trkpt lat="45.28432" lon="6.15637">
        <ele>2030.4</ele>
        <time>2021-02-17T09:07:12Z</time>
      </trkpt>
      <trkpt lat="45.28432" lon="6.15637">
        <ele>2030.4</ele>
        <time>2021-02-17T09:07:13Z</time>
      </trkpt>
      <trkpt lat="45.28431" lon="6.15637">
        <ele>2030.4</ele>
        <time>2021-02-17T09:07:14Z</time>
      </trkpt>
      <trkpt lat="45.28431" lon="6.15637">
        <ele>2030.1</ele>
        <time>2021-02-17T09:07:15Z</time>
      </trkpt>
      <trkpt lat="45.2843" lon="6.15637">
        <ele>2030.1</ele>
        <time>2021-02-17T09:07:16Z</time>
      </trkpt>
      <trkpt lat="45.2843" lon="6.15637">
        <ele>2030.1</ele>
        <time>2021-02-17T09:07:17Z</time>
      </trkpt>
      <trkpt lat="45.28429" lon="6.15637">
        <ele>2030.1</ele>
        <time>2021-02-17T09:07:18Z</time>
      </trkpt>
      <trkpt lat="45.28429" lon="6.15637">
        <ele>2030.1</ele>
        <time>2021-02-17T09:07:19Z</time>
      </trkpt>
      <trkpt lat="45.28428" lon="6.15637">
        <ele>2030.1</ele>
        <time>2021-02-17T09:07:20Z</time>
      </trkpt>
      <trkpt lat="45.28428" lon="6.15638">
        <ele>2029.8</ele>
        <time>2021-02-17T09:07:21Z</time>
      </trkpt>
      <trkpt lat="45.28427" lon="6.15637">
        <ele>2029.8</ele>
        <time>2021-02-17T09:07:22Z</time>
      </trkpt>
      <trkpt lat="45.28426" lon="6.15637">
        <ele>2029.8</ele>
        <time>2021-02-17T09:07:23Z</time>
      </trkpt>
      <trkpt lat="45.28426" lon="6.15637">
        <ele>2029.8</ele>
        <time>2021-02-17T09:07:24Z</time>
      </trkpt>
      <trkpt lat="45.28425" lon="6.15637">
        <ele>2029.8</ele>
        <time>2021-02-17T09:07:25Z</time>
      </trkpt>
      <trkpt lat="45.28425" lon="6.15637">
        <ele>2029.8</ele>
        <time>2021-02-17T09:07:26Z</time>
      </trkpt>
      <trkpt lat="45.28425" lon="6.15636">
        <ele>2029.4</ele>
        <time>2021-02-17T09:07:27Z</time>
      </trkpt>
      <trkpt lat="45.28424" lon="6.15635">
        <ele>2029.4</ele>
        <time>2021-02-17T09:07:28Z</time>
      </trkpt>
      <trkpt lat="45.28424" lon="6.15634">
        <ele>2029.4</ele>
        <time>2021-02-17T09:07:29Z</time>
      </trkpt>
      <trkpt lat="45.28423" lon="6.15634">
        <ele>2029.4</ele>
        <time>2021-02-17T09:07:30Z</time>
      </trkpt>
      <trkpt lat="45.28423" lon="6.15633">
        <ele>2030.5</ele>
        <time>2021-02-17T09:07:31Z</time>
      </trkpt>
      <trkpt lat="45.28422" lon="6.15632">
        <ele>2030.5</ele>
        <time>2021-02-17T09:07:32Z</time>
      </trkpt>
      <trkpt lat="45.28421" lon="6.15631">
        <ele>2030.1</ele>
        <time>2021-02-17T09:07:33Z</time>
      </trkpt>
      <trkpt lat="45.28421" lon="6.1563">
        <ele>2030.1</ele>
        <time>2021-02-17T09:07:34Z</time>
      </trkpt>
      <trkpt lat="45.28421" lon="6.1563">
        <ele>2030.1</ele>
        <time>2021-02-17T09:07:35Z</time>
      </trkpt>
      <trkpt lat="45.28421" lon="6.15629">
        <ele>2031.2</ele>
        <time>2021-02-17T09:07:36Z</time>
      </trkpt>
      <trkpt lat="45.28421" lon="6.15628">
        <ele>2031.2</ele>
        <time>2021-02-17T09:07:37Z</time>
      </trkpt>
      <trkpt lat="45.2842" lon="6.15627">
        <ele>2031.2</ele>
        <time>2021-02-17T09:07:38Z</time>
      </trkpt>
      <trkpt lat="45.2842" lon="6.15627">
        <ele>2031.2</ele>
        <time>2021-02-17T09:07:39Z</time>
      </trkpt>
      <trkpt lat="45.2842" lon="6.15626">
        <ele>2031.2</ele>
        <time>2021-02-17T09:07:40Z</time>
      </trkpt>
      <trkpt lat="45.2842" lon="6.15626">
        <ele>2031.2</ele>
        <time>2021-02-17T09:07:41Z</time>
      </trkpt>
      <trkpt lat="45.28419" lon="6.15624">
        <ele>2032.3</ele>
        <time>2021-02-17T09:07:42Z</time>
      </trkpt>
      <trkpt lat="45.28419" lon="6.15623">
        <ele>2032</ele>
        <time>2021-02-17T09:07:43Z</time>
      </trkpt>
      <trkpt lat="45.28418" lon="6.15623">
        <ele>2032</ele>
        <time>2021-02-17T09:07:44Z</time>
      </trkpt>
      <trkpt lat="45.28418" lon="6.15622">
        <ele>2032</ele>
        <time>2021-02-17T09:07:45Z</time>
      </trkpt>
      <trkpt lat="45.28418" lon="6.15623">
        <ele>2032</ele>
        <time>2021-02-17T09:07:46Z</time>
      </trkpt>
      <trkpt lat="45.28417" lon="6.15623">
        <ele>2032</ele>
        <time>2021-02-17T09:07:47Z</time>
      </trkpt>
      <trkpt lat="45.28417" lon="6.15622">
        <ele>2032</ele>
        <time>2021-02-17T09:07:48Z</time>
      </trkpt>
      <trkpt lat="45.28416" lon="6.15622">
        <ele>2032</ele>
        <time>2021-02-17T09:07:49Z</time>
      </trkpt>
      <trkpt lat="45.28416" lon="6.15621">
        <ele>2031.7</ele>
        <time>2021-02-17T09:07:50Z</time>
      </trkpt>
      <trkpt lat="45.28415" lon="6.1562">
        <ele>2032.9</ele>
        <time>2021-02-17T09:07:51Z</time>
      </trkpt>
      <trkpt lat="45.28414" lon="6.15619">
        <ele>2032.9</ele>
        <time>2021-02-17T09:07:52Z</time>
      </trkpt>
      <trkpt lat="45.28414" lon="6.15617">
        <ele>2032.9</ele>
        <time>2021-02-17T09:07:53Z</time>
      </trkpt>
      <trkpt lat="45.28413" lon="6.15616">
        <ele>2034.1</ele>
        <time>2021-02-17T09:07:54Z</time>
      </trkpt>
      <trkpt lat="45.28412" lon="6.15614">
        <ele>2033.9</ele>
        <time>2021-02-17T09:07:55Z</time>
      </trkpt>
      <trkpt lat="45.28412" lon="6.15613">
        <ele>2033.9</ele>
        <time>2021-02-17T09:07:56Z</time>
      </trkpt>
      <trkpt lat="45.28412" lon="6.15612">
        <ele>2035.2</ele>
        <time>2021-02-17T09:07:57Z</time>
      </trkpt>
      <trkpt lat="45.28411" lon="6.15611">
        <ele>2035.2</ele>
        <time>2021-02-17T09:07:58Z</time>
      </trkpt>
      <trkpt lat="45.28411" lon="6.15611">
        <ele>2035.2</ele>
        <time>2021-02-17T09:07:59Z</time>
      </trkpt>
      <trkpt lat="45.28411" lon="6.15611">
        <ele>2035.2</ele>
        <time>2021-02-17T09:08:00Z</time>
      </trkpt>
      <trkpt lat="45.2841" lon="6.15611">
        <ele>2035.2</ele>
        <time>2021-02-17T09:08:01Z</time>
      </trkpt>
      <trkpt lat="45.2841" lon="6.15609">
        <ele>2035</ele>
        <time>2021-02-17T09:08:02Z</time>
      </trkpt>
      <trkpt lat="45.28409" lon="6.15608">
        <ele>2035</ele>
        <time>2021-02-17T09:08:03Z</time>
      </trkpt>
      <trkpt lat="45.28409" lon="6.15608">
        <ele>2035</ele>
        <time>2021-02-17T09:08:04Z</time>
      </trkpt>
      <trkpt lat="45.28409" lon="6.15608">
        <ele>2036.3</ele>
        <time>2021-02-17T09:08:05Z</time>
      </trkpt>
      <trkpt lat="45.28409" lon="6.15608">
        <ele>2036.3</ele>
        <time>2021-02-17T09:08:06Z</time>
      </trkpt>
      <trkpt lat="45.28409" lon="6.15607">
        <ele>2036.3</ele>
        <time>2021-02-17T09:08:07Z</time>
      </trkpt>
      <trkpt lat="45.28409" lon="6.15606">
        <ele>2036.3</ele>
        <time>2021-02-17T09:08:08Z</time>
      </trkpt>
      <trkpt lat="45.28409" lon="6.15605">
        <ele>2036.3</ele>
        <time>2021-02-17T09:08:09Z</time>
      </trkpt>
      <trkpt lat="45.28409" lon="6.15603">
        <ele>2037.5</ele>
        <time>2021-02-17T09:08:10Z</time>
      </trkpt>
      <trkpt lat="45.28408" lon="6.15602">
        <ele>2037.5</ele>
        <time>2021-02-17T09:08:11Z</time>
      </trkpt>
      <trkpt lat="45.28408" lon="6.15601">
        <ele>2037.5</ele>
        <time>2021-02-17T09:08:12Z</time>
      </trkpt>
      <trkpt lat="45.28408" lon="6.156">
        <ele>2037.5</ele>
        <time>2021-02-17T09:08:13Z</time>
      </trkpt>
      <trkpt lat="45.28408" lon="6.15599">
        <ele>2038.7</ele>
        <time>2021-02-17T09:08:14Z</time>
      </trkpt>
      <trkpt lat="45.28408" lon="6.15598">
        <ele>2038.7</ele>
        <time>2021-02-17T09:08:15Z</time>
      </trkpt>
      <trkpt lat="45.28408" lon="6.15597">
        <ele>2038.7</ele>
        <time>2021-02-17T09:08:16Z</time>
      </trkpt>
      <trkpt lat="45.28408" lon="6.15597">
        <ele>2038.7</ele>
        <time>2021-02-17T09:08:17Z</time>
      </trkpt>
      <trkpt lat="45.28409" lon="6.15596">
        <ele>2038.7</ele>
        <time>2021-02-17T09:08:18Z</time>
      </trkpt>
      <trkpt lat="45.28409" lon="6.15596">
        <ele>2038.7</ele>
        <time>2021-02-17T09:08:19Z</time>
      </trkpt>
      <trkpt lat="45.28409" lon="6.15595">
        <ele>2038.7</ele>
        <time>2021-02-17T09:08:20Z</time>
      </trkpt>
      <trkpt lat="45.28409" lon="6.15594">
        <ele>2039.8</ele>
        <time>2021-02-17T09:08:21Z</time>
      </trkpt>
      <trkpt lat="45.28409" lon="6.15593">
        <ele>2039.8</ele>
        <time>2021-02-17T09:08:22Z</time>
      </trkpt>
      <trkpt lat="45.28409" lon="6.15593">
        <ele>2039.8</ele>
        <time>2021-02-17T09:08:23Z</time>
      </trkpt>
      <trkpt lat="45.28409" lon="6.15592">
        <ele>2039.8</ele>
        <time>2021-02-17T09:08:24Z</time>
      </trkpt>
      <trkpt lat="45.28409" lon="6.15591">
        <ele>2039.8</ele>
        <time>2021-02-17T09:08:25Z</time>
      </trkpt>
      <trkpt lat="45.28409" lon="6.1559">
        <ele>2041</ele>
        <time>2021-02-17T09:08:26Z</time>
      </trkpt>
      <trkpt lat="45.28409" lon="6.15589">
        <ele>2041</ele>
        <time>2021-02-17T09:08:27Z</time>
      </trkpt>
      <trkpt lat="45.28409" lon="6.15588">
        <ele>2041</ele>
        <time>2021-02-17T09:08:28Z</time>
      </trkpt>
      <trkpt lat="45.28409" lon="6.15588">
        <ele>2041</ele>
        <time>2021-02-17T09:08:29Z</time>
      </trkpt>
      <trkpt lat="45.2841" lon="6.15587">
        <ele>2041.2</ele>
        <time>2021-02-17T09:08:30Z</time>
      </trkpt>
      <trkpt lat="45.2841" lon="6.15586">
        <ele>2041.2</ele>
        <time>2021-02-17T09:08:31Z</time>
      </trkpt>
      <trkpt lat="45.2841" lon="6.15586">
        <ele>2042.4</ele>
        <time>2021-02-17T09:08:32Z</time>
      </trkpt>
      <trkpt lat="45.28411" lon="6.15585">
        <ele>2042.4</ele>
        <time>2021-02-17T09:08:33Z</time>
      </trkpt>
      <trkpt lat="45.28411" lon="6.15584">
        <ele>2042.4</ele>
        <time>2021-02-17T09:08:34Z</time>
      </trkpt>
      <trkpt lat="45.28411" lon="6.15583">
        <ele>2042.4</ele>
        <time>2021-02-17T09:08:35Z</time>
      </trkpt>
      <trkpt lat="45.28412" lon="6.15582">
        <ele>2043.7</ele>
        <time>2021-02-17T09:08:36Z</time>
      </trkpt>
      <trkpt lat="45.28412" lon="6.15576">
        <ele>2045</ele>
        <time>2021-02-17T09:08:42Z</time>
      </trkpt>
      <trkpt lat="45.28412" lon="6.15575">
        <ele>2045</ele>
        <time>2021-02-17T09:08:43Z</time>
      </trkpt>
      <trkpt lat="45.28412" lon="6.15574">
        <ele>2045</ele>
        <time>2021-02-17T09:08:44Z</time>
      </trkpt>
      <trkpt lat="45.28412" lon="6.15574">
        <ele>2045</ele>
        <time>2021-02-17T09:08:45Z</time>
      </trkpt>
      <trkpt lat="45.28412" lon="6.15573">
        <ele>2046.3</ele>
        <time>2021-02-17T09:08:46Z</time>
      </trkpt>
      <trkpt lat="45.28412" lon="6.15572">
        <ele>2046.3</ele>
        <time>2021-02-17T09:08:47Z</time>
      </trkpt>
      <trkpt lat="45.28412" lon="6.15572">
        <ele>2046.3</ele>
        <time>2021-02-17T09:08:48Z</time>
      </trkpt>
      <trkpt lat="45.28413" lon="6.15571">
        <ele>2046.3</ele>
        <time>2021-02-17T09:08:49Z</time>
      </trkpt>
      <trkpt lat="45.28413" lon="6.1557">
        <ele>2046.3</ele>
        <time>2021-02-17T09:08:50Z</time>
      </trkpt>
      <trkpt lat="45.28413" lon="6.1557">
        <ele>2046.3</ele>
        <time>2021-02-17T09:08:51Z</time>
      </trkpt>
      <trkpt lat="45.28422" lon="6.15565">
        <ele>2048.5</ele>
        <time>2021-02-17T09:09:21Z</time>
      </trkpt>
      <trkpt lat="45.28423" lon="6.15565">
        <ele>2048.5</ele>
        <time>2021-02-17T09:09:22Z</time>
      </trkpt>
      <trkpt lat="45.28424" lon="6.15565">
        <ele>2048.5</ele>
        <time>2021-02-17T09:09:23Z</time>
      </trkpt>
      <trkpt lat="45.28424" lon="6.15565">
        <ele>2048.5</ele>
        <time>2021-02-17T09:09:24Z</time>
      </trkpt>
      <trkpt lat="45.28425" lon="6.15565">
        <ele>2048.7</ele>
        <time>2021-02-17T09:09:25Z</time>
      </trkpt>
      <trkpt lat="45.28426" lon="6.15565">
        <ele>2048.7</ele>
        <time>2021-02-17T09:09:26Z</time>
      </trkpt>
      <trkpt lat="45.28427" lon="6.15565">
        <ele>2048.7</ele>
        <time>2021-02-17T09:09:27Z</time>
      </trkpt>
      <trkpt lat="45.28428" lon="6.15565">
        <ele>2048.9</ele>
        <time>2021-02-17T09:09:28Z</time>
      </trkpt>
      <trkpt lat="45.28429" lon="6.15565">
        <ele>2048.9</ele>
        <time>2021-02-17T09:09:29Z</time>
      </trkpt>
      <trkpt lat="45.28429" lon="6.15565">
        <ele>2050.1</ele>
        <time>2021-02-17T09:09:30Z</time>
      </trkpt>
      <trkpt lat="45.2843" lon="6.15565">
        <ele>2050.1</ele>
        <time>2021-02-17T09:09:31Z</time>
      </trkpt>
      <trkpt lat="45.28431" lon="6.15564">
        <ele>2050.1</ele>
        <time>2021-02-17T09:09:32Z</time>
      </trkpt>
      <trkpt lat="45.28431" lon="6.15564">
        <ele>2050.3</ele>
        <time>2021-02-17T09:09:33Z</time>
      </trkpt>
      <trkpt lat="45.28432" lon="6.15563">
        <ele>2050.3</ele>
        <time>2021-02-17T09:09:34Z</time>
      </trkpt>
      <trkpt lat="45.28432" lon="6.15563">
        <ele>2050.3</ele>
        <time>2021-02-17T09:09:35Z</time>
      </trkpt>
      <trkpt lat="45.28433" lon="6.15562">
        <ele>2050.3</ele>
        <time>2021-02-17T09:09:36Z</time>
      </trkpt>
      <trkpt lat="45.28433" lon="6.15561">
        <ele>2050.3</ele>
        <time>2021-02-17T09:09:37Z</time>
      </trkpt>
      <trkpt lat="45.28434" lon="6.15561">
        <ele>2050.3</ele>
        <time>2021-02-17T09:09:38Z</time>
      </trkpt>
      <trkpt lat="45.28434" lon="6.1556">
        <ele>2051.6</ele>
        <time>2021-02-17T09:09:39Z</time>
      </trkpt>
      <trkpt lat="45.28435" lon="6.15559">
        <ele>2051.6</ele>
        <time>2021-02-17T09:09:40Z</time>
      </trkpt>
      <trkpt lat="45.28436" lon="6.15559">
        <ele>2051.6</ele>
        <time>2021-02-17T09:09:41Z</time>
      </trkpt>
      <trkpt lat="45.28436" lon="6.15558">
        <ele>2051.6</ele>
        <time>2021-02-17T09:09:42Z</time>
      </trkpt>
      <trkpt lat="45.28436" lon="6.15557">
        <ele>2051.6</ele>
        <time>2021-02-17T09:09:43Z</time>
      </trkpt>
      <trkpt lat="45.28436" lon="6.15556">
        <ele>2052.8</ele>
        <time>2021-02-17T09:09:44Z</time>
      </trkpt>
      <trkpt lat="45.28437" lon="6.15555">
        <ele>2052.8</ele>
        <time>2021-02-17T09:09:45Z</time>
      </trkpt>
      <trkpt lat="45.28437" lon="6.15555">
        <ele>2052.8</ele>
        <time>2021-02-17T09:09:46Z</time>
      </trkpt>
      <trkpt lat="45.28437" lon="6.15554">
        <ele>2052.8</ele>
        <time>2021-02-17T09:09:47Z</time>
      </trkpt>
      <trkpt lat="45.28436" lon="6.15553">
        <ele>2052.8</ele>
        <time>2021-02-17T09:09:48Z</time>
      </trkpt>
      <trkpt lat="45.28436" lon="6.15552">
        <ele>2052.8</ele>
        <time>2021-02-17T09:09:49Z</time>
      </trkpt>
      <trkpt lat="45.28435" lon="6.15552">
        <ele>2052.8</ele>
        <time>2021-02-17T09:09:50Z</time>
      </trkpt>
      <trkpt lat="45.28435" lon="6.15552">
        <ele>2052.8</ele>
        <time>2021-02-17T09:09:51Z</time>
      </trkpt>
      <trkpt lat="45.28435" lon="6.15552">
        <ele>2053.9</ele>
        <time>2021-02-17T09:09:52Z</time>
      </trkpt>
      <trkpt lat="45.28434" lon="6.15551">
        <ele>2053.9</ele>
        <time>2021-02-17T09:09:53Z</time>
      </trkpt>
      <trkpt lat="45.28434" lon="6.15551">
        <ele>2053.9</ele>
        <time>2021-02-17T09:09:54Z</time>
      </trkpt>
      <trkpt lat="45.28433" lon="6.15548">
        <ele>2053.8</ele>
        <time>2021-02-17T09:09:57Z</time>
      </trkpt>
      <trkpt lat="45.28432" lon="6.15547">
        <ele>2054.8</ele>
        <time>2021-02-17T09:09:58Z</time>
      </trkpt>
      <trkpt lat="45.28432" lon="6.15546">
        <ele>2054.8</ele>
        <time>2021-02-17T09:09:59Z</time>
      </trkpt>
      <trkpt lat="45.28431" lon="6.15546">
        <ele>2054.8</ele>
        <time>2021-02-17T09:10:00Z</time>
      </trkpt>
      <trkpt lat="45.28431" lon="6.15545">
        <ele>2054.8</ele>
        <time>2021-02-17T09:10:01Z</time>
      </trkpt>
      <trkpt lat="45.2843" lon="6.15544">
        <ele>2054.8</ele>
        <time>2021-02-17T09:10:02Z</time>
      </trkpt>
      <trkpt lat="45.2843" lon="6.15544">
        <ele>2054.8</ele>
        <time>2021-02-17T09:10:03Z</time>
      </trkpt>
      <trkpt lat="45.2843" lon="6.15544">
        <ele>2054.8</ele>
        <time>2021-02-17T09:10:04Z</time>
      </trkpt>
      <trkpt lat="45.28431" lon="6.15544">
        <ele>2054.8</ele>
        <time>2021-02-17T09:10:05Z</time>
      </trkpt>
      <trkpt lat="45.28431" lon="6.15543">
        <ele>2054.8</ele>
        <time>2021-02-17T09:10:06Z</time>
      </trkpt>
      <trkpt lat="45.28431" lon="6.15543">
        <ele>2055.8</ele>
        <time>2021-02-17T09:10:07Z</time>
      </trkpt>
      <trkpt lat="45.28431" lon="6.15542">
        <ele>2055.9</ele>
        <time>2021-02-17T09:10:08Z</time>
      </trkpt>
      <trkpt lat="45.28431" lon="6.15541">
        <ele>2055.8</ele>
        <time>2021-02-17T09:10:09Z</time>
      </trkpt>
      <trkpt lat="45.28433" lon="6.15524">
        <ele>2060.3</ele>
        <time>2021-02-17T09:10:30Z</time>
      </trkpt>
      <trkpt lat="45.28433" lon="6.15523">
        <ele>2060.3</ele>
        <time>2021-02-17T09:10:31Z</time>
      </trkpt>
      <trkpt lat="45.28434" lon="6.15522">
        <ele>2060.3</ele>
        <time>2021-02-17T09:10:32Z</time>
      </trkpt>
      <trkpt lat="45.28434" lon="6.15521">
        <ele>2061.6</ele>
        <time>2021-02-17T09:10:33Z</time>
      </trkpt>
      <trkpt lat="45.28434" lon="6.15521">
        <ele>2061.6</ele>
        <time>2021-02-17T09:10:34Z</time>
      </trkpt>
      <trkpt lat="45.28435" lon="6.1552">
        <ele>2061.6</ele>
        <time>2021-02-17T09:10:35Z</time>
      </trkpt>
      <trkpt lat="45.28435" lon="6.15519">
        <ele>2061.6</ele>
        <time>2021-02-17T09:10:36Z</time>
      </trkpt>
      <trkpt lat="45.28436" lon="6.15518">
        <ele>2061.6</ele>
        <time>2021-02-17T09:10:37Z</time>
      </trkpt>
      <trkpt lat="45.28436" lon="6.15517">
        <ele>2062.6</ele>
        <time>2021-02-17T09:10:38Z</time>
      </trkpt>
      <trkpt lat="45.28437" lon="6.15515">
        <ele>2062.6</ele>
        <time>2021-02-17T09:10:39Z</time>
      </trkpt>
      <trkpt lat="45.28437" lon="6.15514">
        <ele>2062.9</ele>
        <time>2021-02-17T09:10:40Z</time>
      </trkpt>
      <trkpt lat="45.28438" lon="6.15513">
        <ele>2063.9</ele>
        <time>2021-02-17T09:10:41Z</time>
      </trkpt>
      <trkpt lat="45.28438" lon="6.15512">
        <ele>2063.9</ele>
        <time>2021-02-17T09:10:42Z</time>
      </trkpt>
      <trkpt lat="45.28439" lon="6.15511">
        <ele>2063.9</ele>
        <time>2021-02-17T09:10:43Z</time>
      </trkpt>
      <trkpt lat="45.28439" lon="6.1551">
        <ele>2063.9</ele>
        <time>2021-02-17T09:10:44Z</time>
      </trkpt>
      <trkpt lat="45.2844" lon="6.1551">
        <ele>2064.2</ele>
        <time>2021-02-17T09:10:45Z</time>
      </trkpt>
      <trkpt lat="45.28441" lon="6.15509">
        <ele>2065.2</ele>
        <time>2021-02-17T09:10:46Z</time>
      </trkpt>
      <trkpt lat="45.28441" lon="6.15508">
        <ele>2065.2</ele>
        <time>2021-02-17T09:10:47Z</time>
      </trkpt>
      <trkpt lat="45.28441" lon="6.15508">
        <ele>2065.2</ele>
        <time>2021-02-17T09:10:48Z</time>
      </trkpt>
      <trkpt lat="45.28442" lon="6.15508">
        <ele>2065.2</ele>
        <time>2021-02-17T09:10:49Z</time>
      </trkpt>
      <trkpt lat="45.28442" lon="6.15508">
        <ele>2065.2</ele>
        <time>2021-02-17T09:10:50Z</time>
      </trkpt>
      <trkpt lat="45.28443" lon="6.15508">
        <ele>2065.6</ele>
        <time>2021-02-17T09:10:51Z</time>
      </trkpt>
      <trkpt lat="45.28445" lon="6.15508">
        <ele>2065.6</ele>
        <time>2021-02-17T09:10:52Z</time>
      </trkpt>
      <trkpt lat="45.28445" lon="6.15508">
        <ele>2065.6</ele>
        <time>2021-02-17T09:10:53Z</time>
      </trkpt>
      <trkpt lat="45.28446" lon="6.15508">
        <ele>2066</ele>
        <time>2021-02-17T09:10:54Z</time>
      </trkpt>
      <trkpt lat="45.28447" lon="6.15508">
        <ele>2066</ele>
        <time>2021-02-17T09:10:55Z</time>
      </trkpt>
      <trkpt lat="45.28448" lon="6.15508">
        <ele>2066</ele>
        <time>2021-02-17T09:10:56Z</time>
      </trkpt>
      <trkpt lat="45.28448" lon="6.15508">
        <ele>2066</ele>
        <time>2021-02-17T09:10:57Z</time>
      </trkpt>
      <trkpt lat="45.28449" lon="6.15507">
        <ele>2066.4</ele>
        <time>2021-02-17T09:10:58Z</time>
      </trkpt>
      <trkpt lat="45.2845" lon="6.15507">
        <ele>2066.4</ele>
        <time>2021-02-17T09:10:59Z</time>
      </trkpt>
      <trkpt lat="45.2845" lon="6.15507">
        <ele>2066.4</ele>
        <time>2021-02-17T09:11:00Z</time>
      </trkpt>
      <trkpt lat="45.28451" lon="6.15507">
        <ele>2066.4</ele>
        <time>2021-02-17T09:11:01Z</time>
      </trkpt>
      <trkpt lat="45.28451" lon="6.15506">
        <ele>2066.4</ele>
        <time>2021-02-17T09:11:02Z</time>
      </trkpt>
      <trkpt lat="45.28452" lon="6.15505">
        <ele>2066.4</ele>
        <time>2021-02-17T09:11:03Z</time>
      </trkpt>
      <trkpt lat="45.28453" lon="6.15505">
        <ele>2066.9</ele>
        <time>2021-02-17T09:11:04Z</time>
      </trkpt>
      <trkpt lat="45.28453" lon="6.15504">
        <ele>2067.9</ele>
        <time>2021-02-17T09:11:05Z</time>
      </trkpt>
      <trkpt lat="45.28453" lon="6.15503">
        <ele>2067.9</ele>
        <time>2021-02-17T09:11:06Z</time>
      </trkpt>
      <trkpt lat="45.28453" lon="6.15503">
        <ele>2067.9</ele>
        <time>2021-02-17T09:11:07Z</time>
      </trkpt>
      <trkpt lat="45.28454" lon="6.15502">
        <ele>2067.9</ele>
        <time>2021-02-17T09:11:08Z</time>
      </trkpt>
      <trkpt lat="45.28454" lon="6.15501">
        <ele>2067.9</ele>
        <time>2021-02-17T09:11:09Z</time>
      </trkpt>
      <trkpt lat="45.28454" lon="6.15501">
        <ele>2067.9</ele>
        <time>2021-02-17T09:11:10Z</time>
      </trkpt>
      <trkpt lat="45.28455" lon="6.15501">
        <ele>2067.9</ele>
        <time>2021-02-17T09:11:11Z</time>
      </trkpt>
      <trkpt lat="45.28455" lon="6.155">
        <ele>2069.3</ele>
        <time>2021-02-17T09:11:12Z</time>
      </trkpt>
      <trkpt lat="45.28456" lon="6.155">
        <ele>2069.3</ele>
        <time>2021-02-17T09:11:13Z</time>
      </trkpt>
      <trkpt lat="45.28456" lon="6.155">
        <ele>2069.3</ele>
        <time>2021-02-17T09:11:14Z</time>
      </trkpt>
      <trkpt lat="45.28457" lon="6.155">
        <ele>2069.3</ele>
        <time>2021-02-17T09:11:15Z</time>
      </trkpt>
      <trkpt lat="45.28458" lon="6.155">
        <ele>2069.3</ele>
        <time>2021-02-17T09:11:16Z</time>
      </trkpt>
      <trkpt lat="45.28458" lon="6.155">
        <ele>2069.3</ele>
        <time>2021-02-17T09:11:17Z</time>
      </trkpt>
      <trkpt lat="45.2846" lon="6.15501">
        <ele>2068.9</ele>
        <time>2021-02-17T09:11:22Z</time>
      </trkpt>
      <trkpt lat="45.2846" lon="6.15501">
        <ele>2068.9</ele>
        <time>2021-02-17T09:11:23Z</time>
      </trkpt>
      <trkpt lat="45.2846" lon="6.15501">
        <ele>2068.9</ele>
        <time>2021-02-17T09:11:24Z</time>
      </trkpt>
      <trkpt lat="45.2846" lon="6.15501">
        <ele>2068.9</ele>
        <time>2021-02-17T09:11:25Z</time>
      </trkpt>
      <trkpt lat="45.2846" lon="6.15502">
        <ele>2068.9</ele>
        <time>2021-02-17T09:11:26Z</time>
      </trkpt>
      <trkpt lat="45.2846" lon="6.15502">
        <ele>2068.9</ele>
        <time>2021-02-17T09:11:27Z</time>
      </trkpt>
      <trkpt lat="45.2846" lon="6.15502">
        <ele>2068.9</ele>
        <time>2021-02-17T09:11:28Z</time>
      </trkpt>
      <trkpt lat="45.2846" lon="6.15502">
        <ele>2068.9</ele>
        <time>2021-02-17T09:11:29Z</time>
      </trkpt>
      <trkpt lat="45.28461" lon="6.15503">
        <ele>2068.9</ele>
        <time>2021-02-17T09:11:30Z</time>
      </trkpt>
      <trkpt lat="45.28461" lon="6.15503">
        <ele>2069.6</ele>
        <time>2021-02-17T09:11:31Z</time>
      </trkpt>
      <trkpt lat="45.2846" lon="6.155">
        <ele>2069.9</ele>
        <time>2021-02-17T09:11:46Z</time>
      </trkpt>
      <trkpt lat="45.2846" lon="6.15498">
        <ele>2069.9</ele>
        <time>2021-02-17T09:11:47Z</time>
      </trkpt>
      <trkpt lat="45.28459" lon="6.15498">
        <ele>2069.9</ele>
        <time>2021-02-17T09:11:48Z</time>
      </trkpt>
      <trkpt lat="45.28459" lon="6.15496">
        <ele>2069.9</ele>
        <time>2021-02-17T09:11:49Z</time>
      </trkpt>
      <trkpt lat="45.28459" lon="6.15495">
        <ele>2070.8</ele>
        <time>2021-02-17T09:11:50Z</time>
      </trkpt>
      <trkpt lat="45.28459" lon="6.15494">
        <ele>2070.8</ele>
        <time>2021-02-17T09:11:51Z</time>
      </trkpt>
      <trkpt lat="45.28459" lon="6.15493">
        <ele>2070.8</ele>
        <time>2021-02-17T09:11:52Z</time>
      </trkpt>
      <trkpt lat="45.28459" lon="6.15491">
        <ele>2071.7</ele>
        <time>2021-02-17T09:11:53Z</time>
      </trkpt>
      <trkpt lat="45.28459" lon="6.1549">
        <ele>2071.7</ele>
        <time>2021-02-17T09:11:54Z</time>
      </trkpt>
      <trkpt lat="45.28459" lon="6.15489">
        <ele>2071.7</ele>
        <time>2021-02-17T09:11:55Z</time>
      </trkpt>
      <trkpt lat="45.28459" lon="6.15489">
        <ele>2071.7</ele>
        <time>2021-02-17T09:11:56Z</time>
      </trkpt>
      <trkpt lat="45.28459" lon="6.15488">
        <ele>2071.7</ele>
        <time>2021-02-17T09:11:57Z</time>
      </trkpt>
      <trkpt lat="45.28459" lon="6.15487">
        <ele>2072.7</ele>
        <time>2021-02-17T09:11:58Z</time>
      </trkpt>
      <trkpt lat="45.28459" lon="6.15487">
        <ele>2072.7</ele>
        <time>2021-02-17T09:11:59Z</time>
      </trkpt>
      <trkpt lat="45.28459" lon="6.15485">
        <ele>2072.7</ele>
        <time>2021-02-17T09:12:00Z</time>
      </trkpt>
      <trkpt lat="45.28459" lon="6.15484">
        <ele>2072.7</ele>
        <time>2021-02-17T09:12:01Z</time>
      </trkpt>
      <trkpt lat="45.28459" lon="6.15484">
        <ele>2072.7</ele>
        <time>2021-02-17T09:12:02Z</time>
      </trkpt>
      <trkpt lat="45.28458" lon="6.15477">
        <ele>2073.9</ele>
        <time>2021-02-17T09:12:13Z</time>
      </trkpt>
      <trkpt lat="45.28458" lon="6.15476">
        <ele>2073.9</ele>
        <time>2021-02-17T09:12:14Z</time>
      </trkpt>
      <trkpt lat="45.28458" lon="6.15475">
        <ele>2073.9</ele>
        <time>2021-02-17T09:12:15Z</time>
      </trkpt>
      <trkpt lat="45.28458" lon="6.15475">
        <ele>2073.9</ele>
        <time>2021-02-17T09:12:16Z</time>
      </trkpt>
      <trkpt lat="45.28458" lon="6.15474">
        <ele>2074.9</ele>
        <time>2021-02-17T09:12:17Z</time>
      </trkpt>
      <trkpt lat="45.28458" lon="6.15474">
        <ele>2075.5</ele>
        <time>2021-02-17T09:12:18Z</time>
      </trkpt>
      <trkpt lat="45.28458" lon="6.15473">
        <ele>2075.5</ele>
        <time>2021-02-17T09:12:19Z</time>
      </trkpt>
      <trkpt lat="45.28459" lon="6.15472">
        <ele>2075.5</ele>
        <time>2021-02-17T09:12:20Z</time>
      </trkpt>
      <trkpt lat="45.28459" lon="6.15471">
        <ele>2075.5</ele>
        <time>2021-02-17T09:12:21Z</time>
      </trkpt>
      <trkpt lat="45.28459" lon="6.1547">
        <ele>2076.4</ele>
        <time>2021-02-17T09:12:22Z</time>
      </trkpt>
      <trkpt lat="45.28459" lon="6.15469">
        <ele>2076.4</ele>
        <time>2021-02-17T09:12:23Z</time>
      </trkpt>
      <trkpt lat="45.28459" lon="6.15468">
        <ele>2076.4</ele>
        <time>2021-02-17T09:12:24Z</time>
      </trkpt>
      <trkpt lat="45.28459" lon="6.15467">
        <ele>2076.4</ele>
        <time>2021-02-17T09:12:25Z</time>
      </trkpt>
      <trkpt lat="45.28459" lon="6.15466">
        <ele>2076.4</ele>
        <time>2021-02-17T09:12:26Z</time>
      </trkpt>
      <trkpt lat="45.28459" lon="6.15467">
        <ele>2076.4</ele>
        <time>2021-02-17T09:12:27Z</time>
      </trkpt>
      <trkpt lat="45.28459" lon="6.15467">
        <ele>2076.4</ele>
        <time>2021-02-17T09:12:28Z</time>
      </trkpt>
      <trkpt lat="45.2846" lon="6.15467">
        <ele>2076.4</ele>
        <time>2021-02-17T09:12:29Z</time>
      </trkpt>
      <trkpt lat="45.2846" lon="6.15467">
        <ele>2076.4</ele>
        <time>2021-02-17T09:12:30Z</time>
      </trkpt>
      <trkpt lat="45.2846" lon="6.15467">
        <ele>2076.4</ele>
        <time>2021-02-17T09:12:31Z</time>
      </trkpt>
      <trkpt lat="45.28461" lon="6.15468">
        <ele>2076.4</ele>
        <time>2021-02-17T09:12:32Z</time>
      </trkpt>
      <trkpt lat="45.28461" lon="6.15469">
        <ele>2076.4</ele>
        <time>2021-02-17T09:12:33Z</time>
      </trkpt>
      <trkpt lat="45.28459" lon="6.15462">
        <ele>2077.3</ele>
        <time>2021-02-17T09:12:37Z</time>
      </trkpt>
      <trkpt lat="45.28458" lon="6.15461">
        <ele>2078.1</ele>
        <time>2021-02-17T09:12:38Z</time>
      </trkpt>
      <trkpt lat="45.28458" lon="6.1546">
        <ele>2077.3</ele>
        <time>2021-02-17T09:12:39Z</time>
      </trkpt>
      <trkpt lat="45.28458" lon="6.15459">
        <ele>2077.3</ele>
        <time>2021-02-17T09:12:40Z</time>
      </trkpt>
      <trkpt lat="45.28457" lon="6.15459">
        <ele>2077.3</ele>
        <time>2021-02-17T09:12:41Z</time>
      </trkpt>
      <trkpt lat="45.28457" lon="6.15458">
        <ele>2077.3</ele>
        <time>2021-02-17T09:12:42Z</time>
      </trkpt>
      <trkpt lat="45.28457" lon="6.15457">
        <ele>2078</ele>
        <time>2021-02-17T09:12:43Z</time>
      </trkpt>
      <trkpt lat="45.28456" lon="6.15455">
        <ele>2078</ele>
        <time>2021-02-17T09:12:44Z</time>
      </trkpt>
      <trkpt lat="45.28456" lon="6.15454">
        <ele>2078</ele>
        <time>2021-02-17T09:12:45Z</time>
      </trkpt>
      <trkpt lat="45.28456" lon="6.15454">
        <ele>2078</ele>
        <time>2021-02-17T09:12:46Z</time>
      </trkpt>
      <trkpt lat="45.28456" lon="6.15454">
        <ele>2078</ele>
        <time>2021-02-17T09:12:47Z</time>
      </trkpt>
      <trkpt lat="45.28456" lon="6.15453">
        <ele>2078.8</ele>
        <time>2021-02-17T09:12:48Z</time>
      </trkpt>
      <trkpt lat="45.28455" lon="6.15452">
        <ele>2078.8</ele>
        <time>2021-02-17T09:12:49Z</time>
      </trkpt>
      <trkpt lat="45.28455" lon="6.15451">
        <ele>2078.8</ele>
        <time>2021-02-17T09:12:50Z</time>
      </trkpt>
      <trkpt lat="45.28455" lon="6.15451">
        <ele>2078.1</ele>
        <time>2021-02-17T09:12:51Z</time>
      </trkpt>
      <trkpt lat="45.28454" lon="6.1545">
        <ele>2078.1</ele>
        <time>2021-02-17T09:12:52Z</time>
      </trkpt>
      <trkpt lat="45.28454" lon="6.15449">
        <ele>2078.8</ele>
        <time>2021-02-17T09:12:53Z</time>
      </trkpt>
      <trkpt lat="45.28453" lon="6.15446">
        <ele>2078.8</ele>
        <time>2021-02-17T09:12:54Z</time>
      </trkpt>
      <trkpt lat="45.28452" lon="6.15445">
        <ele>2078.8</ele>
        <time>2021-02-17T09:12:55Z</time>
      </trkpt>
      <trkpt lat="45.28452" lon="6.15444">
        <ele>2079</ele>
        <time>2021-02-17T09:12:56Z</time>
      </trkpt>
      <trkpt lat="45.28452" lon="6.15442">
        <ele>2079</ele>
        <time>2021-02-17T09:12:57Z</time>
      </trkpt>
      <trkpt lat="45.28451" lon="6.15441">
        <ele>2079</ele>
        <time>2021-02-17T09:12:58Z</time>
      </trkpt>
      <trkpt lat="45.28452" lon="6.1544">
        <ele>2079.8</ele>
        <time>2021-02-17T09:12:59Z</time>
      </trkpt>
      <trkpt lat="45.28452" lon="6.1544">
        <ele>2079.8</ele>
        <time>2021-02-17T09:13:00Z</time>
      </trkpt>
      <trkpt lat="45.28452" lon="6.15438">
        <ele>2079.8</ele>
        <time>2021-02-17T09:13:01Z</time>
      </trkpt>
      <trkpt lat="45.28452" lon="6.15437">
        <ele>2079.8</ele>
        <time>2021-02-17T09:13:02Z</time>
      </trkpt>
      <trkpt lat="45.28452" lon="6.15436">
        <ele>2081.3</ele>
        <time>2021-02-17T09:13:03Z</time>
      </trkpt>
      <trkpt lat="45.28453" lon="6.15436">
        <ele>2081.3</ele>
        <time>2021-02-17T09:13:04Z</time>
      </trkpt>
      <trkpt lat="45.28454" lon="6.15435">
        <ele>2081.3</ele>
        <time>2021-02-17T09:13:05Z</time>
      </trkpt>
      <trkpt lat="45.28454" lon="6.15435">
        <ele>2081.3</ele>
        <time>2021-02-17T09:13:06Z</time>
      </trkpt>
      <trkpt lat="45.28455" lon="6.15435">
        <ele>2081.3</ele>
        <time>2021-02-17T09:13:07Z</time>
      </trkpt>
      <trkpt lat="45.28456" lon="6.15434">
        <ele>2082</ele>
        <time>2021-02-17T09:13:08Z</time>
      </trkpt>
      <trkpt lat="45.28457" lon="6.15434">
        <ele>2082</ele>
        <time>2021-02-17T09:13:09Z</time>
      </trkpt>
      <trkpt lat="45.28458" lon="6.15434">
        <ele>2082.8</ele>
        <time>2021-02-17T09:13:10Z</time>
      </trkpt>
      <trkpt lat="45.28459" lon="6.15433">
        <ele>2082.8</ele>
        <time>2021-02-17T09:13:11Z</time>
      </trkpt>
      <trkpt lat="45.28459" lon="6.15433">
        <ele>2082.8</ele>
        <time>2021-02-17T09:13:12Z</time>
      </trkpt>
      <trkpt lat="45.2846" lon="6.15432">
        <ele>2082.8</ele>
        <time>2021-02-17T09:13:13Z</time>
      </trkpt>
      <trkpt lat="45.2846" lon="6.15432">
        <ele>2082.8</ele>
        <time>2021-02-17T09:13:14Z</time>
      </trkpt>
      <trkpt lat="45.28461" lon="6.15431">
        <ele>2083.6</ele>
        <time>2021-02-17T09:13:15Z</time>
      </trkpt>
      <trkpt lat="45.28461" lon="6.15431">
        <ele>2083.6</ele>
        <time>2021-02-17T09:13:16Z</time>
      </trkpt>
      <trkpt lat="45.28461" lon="6.1543">
        <ele>2083.6</ele>
        <time>2021-02-17T09:13:17Z</time>
      </trkpt>
      <trkpt lat="45.28461" lon="6.15429">
        <ele>2084.5</ele>
        <time>2021-02-17T09:13:18Z</time>
      </trkpt>
      <trkpt lat="45.28461" lon="6.15429">
        <ele>2084.5</ele>
        <time>2021-02-17T09:13:19Z</time>
      </trkpt>
      <trkpt lat="45.28462" lon="6.15428">
        <ele>2084.5</ele>
        <time>2021-02-17T09:13:20Z</time>
      </trkpt>
      <trkpt lat="45.28462" lon="6.15427">
        <ele>2085.4</ele>
        <time>2021-02-17T09:13:21Z</time>
      </trkpt>
      <trkpt lat="45.28463" lon="6.15427">
        <ele>2085.4</ele>
        <time>2021-02-17T09:13:22Z</time>
      </trkpt>
      <trkpt lat="45.28464" lon="6.15426">
        <ele>2085.4</ele>
        <time>2021-02-17T09:13:23Z</time>
      </trkpt>
      <trkpt lat="45.28464" lon="6.15426">
        <ele>2086.3</ele>
        <time>2021-02-17T09:13:24Z</time>
      </trkpt>
      <trkpt lat="45.28465" lon="6.15425">
        <ele>2086.3</ele>
        <time>2021-02-17T09:13:25Z</time>
      </trkpt>
      <trkpt lat="45.28466" lon="6.15425">
        <ele>2086.3</ele>
        <time>2021-02-17T09:13:26Z</time>
      </trkpt>
      <trkpt lat="45.28467" lon="6.15425">
        <ele>2086.3</ele>
        <time>2021-02-17T09:13:27Z</time>
      </trkpt>
      <trkpt lat="45.28467" lon="6.15424">
        <ele>2087.4</ele>
        <time>2021-02-17T09:13:28Z</time>
      </trkpt>
      <trkpt lat="45.28468" lon="6.15423">
        <ele>2088.2</ele>
        <time>2021-02-17T09:13:29Z</time>
      </trkpt>
      <trkpt lat="45.28468" lon="6.15423">
        <ele>2088.2</ele>
        <time>2021-02-17T09:13:30Z</time>
      </trkpt>
      <trkpt lat="45.28468" lon="6.15423">
        <ele>2088.2</ele>
        <time>2021-02-17T09:13:31Z</time>
      </trkpt>
      <trkpt lat="45.28468" lon="6.15422">
        <ele>2088.2</ele>
        <time>2021-02-17T09:13:32Z</time>
      </trkpt>
      <trkpt lat="45.28468" lon="6.15421">
        <ele>2088.2</ele>
        <time>2021-02-17T09:13:33Z</time>
      </trkpt>
      <trkpt lat="45.28468" lon="6.1542">
        <ele>2088.2</ele>
        <time>2021-02-17T09:13:34Z</time>
      </trkpt>
      <trkpt lat="45.28468" lon="6.15419">
        <ele>2089.1</ele>
        <time>2021-02-17T09:13:35Z</time>
      </trkpt>
      <trkpt lat="45.28468" lon="6.15418">
        <ele>2089.1</ele>
        <time>2021-02-17T09:13:36Z</time>
      </trkpt>
      <trkpt lat="45.28468" lon="6.15417">
        <ele>2089.1</ele>
        <time>2021-02-17T09:13:37Z</time>
      </trkpt>
      <trkpt lat="45.28468" lon="6.15417">
        <ele>2089.1</ele>
        <time>2021-02-17T09:13:38Z</time>
      </trkpt>
      <trkpt lat="45.28469" lon="6.15416">
        <ele>2089.1</ele>
        <time>2021-02-17T09:13:39Z</time>
      </trkpt>
      <trkpt lat="45.28468" lon="6.15415">
        <ele>2089.1</ele>
        <time>2021-02-17T09:13:40Z</time>
      </trkpt>
      <trkpt lat="45.28468" lon="6.15414">
        <ele>2090</ele>
        <time>2021-02-17T09:13:41Z</time>
      </trkpt>
      <trkpt lat="45.28468" lon="6.15412">
        <ele>2090</ele>
        <time>2021-02-17T09:13:42Z</time>
      </trkpt>
      <trkpt lat="45.28467" lon="6.15411">
        <ele>2090</ele>
        <time>2021-02-17T09:13:43Z</time>
      </trkpt>
      <trkpt lat="45.28467" lon="6.1541">
        <ele>2089.8</ele>
        <time>2021-02-17T09:13:44Z</time>
      </trkpt>
      <trkpt lat="45.28467" lon="6.1541">
        <ele>2089.8</ele>
        <time>2021-02-17T09:13:45Z</time>
      </trkpt>
      <trkpt lat="45.28466" lon="6.15409">
        <ele>2089.8</ele>
        <time>2021-02-17T09:13:46Z</time>
      </trkpt>
      <trkpt lat="45.28466" lon="6.15409">
        <ele>2089.8</ele>
        <time>2021-02-17T09:13:47Z</time>
      </trkpt>
      <trkpt lat="45.28465" lon="6.15409">
        <ele>2089.8</ele>
        <time>2021-02-17T09:13:48Z</time>
      </trkpt>
      <trkpt lat="45.28464" lon="6.15409">
        <ele>2089.8</ele>
        <time>2021-02-17T09:13:49Z</time>
      </trkpt>
      <trkpt lat="45.28464" lon="6.15408">
        <ele>2088.8</ele>
        <time>2021-02-17T09:13:50Z</time>
      </trkpt>
      <trkpt lat="45.28463" lon="6.15408">
        <ele>2088.8</ele>
        <time>2021-02-17T09:13:51Z</time>
      </trkpt>
      <trkpt lat="45.28463" lon="6.15408">
        <ele>2088.8</ele>
        <time>2021-02-17T09:13:52Z</time>
      </trkpt>
      <trkpt lat="45.28463" lon="6.15409">
        <ele>2088.8</ele>
        <time>2021-02-17T09:13:53Z</time>
      </trkpt>
      <trkpt lat="45.28463" lon="6.15409">
        <ele>2088.8</ele>
        <time>2021-02-17T09:13:54Z</time>
      </trkpt>
      <trkpt lat="45.28462" lon="6.15409">
        <ele>2088.8</ele>
        <time>2021-02-17T09:13:55Z</time>
      </trkpt>
      <trkpt lat="45.28461" lon="6.15408">
        <ele>2088.8</ele>
        <time>2021-02-17T09:13:56Z</time>
      </trkpt>
      <trkpt lat="45.28461" lon="6.15407">
        <ele>2088</ele>
        <time>2021-02-17T09:13:57Z</time>
      </trkpt>
      <trkpt lat="45.28461" lon="6.15407">
        <ele>2088</ele>
        <time>2021-02-17T09:13:58Z</time>
      </trkpt>
      <trkpt lat="45.2846" lon="6.15406">
        <ele>2088.8</ele>
        <time>2021-02-17T09:13:59Z</time>
      </trkpt>
      <trkpt lat="45.2846" lon="6.15405">
        <ele>2088.8</ele>
        <time>2021-02-17T09:14:00Z</time>
      </trkpt>
      <trkpt lat="45.28459" lon="6.15405">
        <ele>2088.8</ele>
        <time>2021-02-17T09:14:01Z</time>
      </trkpt>
      <trkpt lat="45.28459" lon="6.15405">
        <ele>2088.8</ele>
        <time>2021-02-17T09:14:02Z</time>
      </trkpt>
      <trkpt lat="45.28458" lon="6.15404">
        <ele>2088.8</ele>
        <time>2021-02-17T09:14:03Z</time>
      </trkpt>
      <trkpt lat="45.28458" lon="6.15403">
        <ele>2088.1</ele>
        <time>2021-02-17T09:14:04Z</time>
      </trkpt>
      <trkpt lat="45.28457" lon="6.15403">
        <ele>2088.1</ele>
        <time>2021-02-17T09:14:05Z</time>
      </trkpt>
      <trkpt lat="45.28457" lon="6.15403">
        <ele>2088.1</ele>
        <time>2021-02-17T09:14:06Z</time>
      </trkpt>
      <trkpt lat="45.28457" lon="6.15404">
        <ele>2088.1</ele>
        <time>2021-02-17T09:14:07Z</time>
      </trkpt>
      <trkpt lat="45.28457" lon="6.15403">
        <ele>2088.1</ele>
        <time>2021-02-17T09:14:08Z</time>
      </trkpt>
      <trkpt lat="45.28456" lon="6.15403">
        <ele>2088.1</ele>
        <time>2021-02-17T09:14:09Z</time>
      </trkpt>
      <trkpt lat="45.28456" lon="6.15403">
        <ele>2088.1</ele>
        <time>2021-02-17T09:14:10Z</time>
      </trkpt>
      <trkpt lat="45.28456" lon="6.15402">
        <ele>2088.1</ele>
        <time>2021-02-17T09:14:11Z</time>
      </trkpt>
      <trkpt lat="45.28456" lon="6.154">
        <ele>2089</ele>
        <time>2021-02-17T09:14:12Z</time>
      </trkpt>
      <trkpt lat="45.28456" lon="6.15399">
        <ele>2089</ele>
        <time>2021-02-17T09:14:13Z</time>
      </trkpt>
      <trkpt lat="45.28457" lon="6.15398">
        <ele>2089</ele>
        <time>2021-02-17T09:14:14Z</time>
      </trkpt>
      <trkpt lat="45.28457" lon="6.15397">
        <ele>2089.9</ele>
        <time>2021-02-17T09:14:15Z</time>
      </trkpt>
      <trkpt lat="45.28457" lon="6.15395">
        <ele>2089.9</ele>
        <time>2021-02-17T09:14:16Z</time>
      </trkpt>
      <trkpt lat="45.28458" lon="6.15394">
        <ele>2090.7</ele>
        <time>2021-02-17T09:14:17Z</time>
      </trkpt>
      <trkpt lat="45.28458" lon="6.15393">
        <ele>2091.7</ele>
        <time>2021-02-17T09:14:18Z</time>
      </trkpt>
      <trkpt lat="45.28459" lon="6.15392">
        <ele>2091.7</ele>
        <time>2021-02-17T09:14:19Z</time>
      </trkpt>
      <trkpt lat="45.2846" lon="6.15391">
        <ele>2091.7</ele>
        <time>2021-02-17T09:14:20Z</time>
      </trkpt>
      <trkpt lat="45.2846" lon="6.15391">
        <ele>2091.7</ele>
        <time>2021-02-17T09:14:21Z</time>
      </trkpt>
      <trkpt lat="45.2846" lon="6.1539">
        <ele>2091.7</ele>
        <time>2021-02-17T09:14:22Z</time>
      </trkpt>
      <trkpt lat="45.28461" lon="6.15389">
        <ele>2091.7</ele>
        <time>2021-02-17T09:14:23Z</time>
      </trkpt>
      <trkpt lat="45.28461" lon="6.15389">
        <ele>2092.7</ele>
        <time>2021-02-17T09:14:24Z</time>
      </trkpt>
      <trkpt lat="45.28461" lon="6.15388">
        <ele>2093.5</ele>
        <time>2021-02-17T09:14:25Z</time>
      </trkpt>
      <trkpt lat="45.28462" lon="6.15387">
        <ele>2093.5</ele>
        <time>2021-02-17T09:14:26Z</time>
      </trkpt>
      <trkpt lat="45.28463" lon="6.15387">
        <ele>2093.5</ele>
        <time>2021-02-17T09:14:27Z</time>
      </trkpt>
      <trkpt lat="45.28463" lon="6.15386">
        <ele>2093.5</ele>
        <time>2021-02-17T09:14:28Z</time>
      </trkpt>
      <trkpt lat="45.28464" lon="6.15386">
        <ele>2093.5</ele>
        <time>2021-02-17T09:14:29Z</time>
      </trkpt>
      <trkpt lat="45.28464" lon="6.15386">
        <ele>2094.5</ele>
        <time>2021-02-17T09:14:30Z</time>
      </trkpt>
      <trkpt lat="45.28465" lon="6.15386">
        <ele>2094.5</ele>
        <time>2021-02-17T09:14:31Z</time>
      </trkpt>
      <trkpt lat="45.28465" lon="6.15385">
        <ele>2094.5</ele>
        <time>2021-02-17T09:14:32Z</time>
      </trkpt>
      <trkpt lat="45.28466" lon="6.15385">
        <ele>2094.5</ele>
        <time>2021-02-17T09:14:33Z</time>
      </trkpt>
      <trkpt lat="45.28467" lon="6.15384">
        <ele>2095.5</ele>
        <time>2021-02-17T09:14:34Z</time>
      </trkpt>
      <trkpt lat="45.28467" lon="6.15384">
        <ele>2096.5</ele>
        <time>2021-02-17T09:14:35Z</time>
      </trkpt>
      <trkpt lat="45.28468" lon="6.15383">
        <ele>2096.5</ele>
        <time>2021-02-17T09:14:36Z</time>
      </trkpt>
      <trkpt lat="45.28469" lon="6.15383">
        <ele>2096.5</ele>
        <time>2021-02-17T09:14:37Z</time>
      </trkpt>
      <trkpt lat="45.28469" lon="6.15382">
        <ele>2096.5</ele>
        <time>2021-02-17T09:14:38Z</time>
      </trkpt>
      <trkpt lat="45.2847" lon="6.15382">
        <ele>2096.5</ele>
        <time>2021-02-17T09:14:39Z</time>
      </trkpt>
      <trkpt lat="45.2847" lon="6.15381">
        <ele>2096.5</ele>
        <time>2021-02-17T09:14:40Z</time>
      </trkpt>
      <trkpt lat="45.2847" lon="6.15381">
        <ele>2096.5</ele>
        <time>2021-02-17T09:14:41Z</time>
      </trkpt>
      <trkpt lat="45.2847" lon="6.1538">
        <ele>2097.4</ele>
        <time>2021-02-17T09:14:42Z</time>
      </trkpt>
      <trkpt lat="45.2847" lon="6.15379">
        <ele>2097.4</ele>
        <time>2021-02-17T09:14:43Z</time>
      </trkpt>
      <trkpt lat="45.2847" lon="6.15378">
        <ele>2097.4</ele>
        <time>2021-02-17T09:14:44Z</time>
      </trkpt>
      <trkpt lat="45.2847" lon="6.15377">
        <ele>2097.4</ele>
        <time>2021-02-17T09:14:45Z</time>
      </trkpt>
      <trkpt lat="45.2847" lon="6.15376">
        <ele>2098.5</ele>
        <time>2021-02-17T09:14:46Z</time>
      </trkpt>
      <trkpt lat="45.2847" lon="6.15375">
        <ele>2099.5</ele>
        <time>2021-02-17T09:14:47Z</time>
      </trkpt>
      <trkpt lat="45.28471" lon="6.15374">
        <ele>2099.5</ele>
        <time>2021-02-17T09:14:48Z</time>
      </trkpt>
      <trkpt lat="45.28471" lon="6.15373">
        <ele>2099.5</ele>
        <time>2021-02-17T09:14:49Z</time>
      </trkpt>
      <trkpt lat="45.28471" lon="6.15372">
        <ele>2099.5</ele>
        <time>2021-02-17T09:14:50Z</time>
      </trkpt>
      <trkpt lat="45.28471" lon="6.15371">
        <ele>2100.4</ele>
        <time>2021-02-17T09:14:51Z</time>
      </trkpt>
      <trkpt lat="45.28471" lon="6.15371">
        <ele>2100.4</ele>
        <time>2021-02-17T09:14:52Z</time>
      </trkpt>
      <trkpt lat="45.28471" lon="6.1537">
        <ele>2100.4</ele>
        <time>2021-02-17T09:14:53Z</time>
      </trkpt>
      <trkpt lat="45.28472" lon="6.15369">
        <ele>2100.4</ele>
        <time>2021-02-17T09:14:54Z</time>
      </trkpt>
      <trkpt lat="45.28472" lon="6.15368">
        <ele>2100.4</ele>
        <time>2021-02-17T09:14:55Z</time>
      </trkpt>
      <trkpt lat="45.28472" lon="6.15367">
        <ele>2101.3</ele>
        <time>2021-02-17T09:14:56Z</time>
      </trkpt>
      <trkpt lat="45.28472" lon="6.15366">
        <ele>2101.3</ele>
        <time>2021-02-17T09:14:57Z</time>
      </trkpt>
      <trkpt lat="45.28472" lon="6.15366">
        <ele>2101.3</ele>
        <time>2021-02-17T09:14:58Z</time>
      </trkpt>
      <trkpt lat="45.28472" lon="6.15365">
        <ele>2101.3</ele>
        <time>2021-02-17T09:14:59Z</time>
      </trkpt>
      <trkpt lat="45.28472" lon="6.15364">
        <ele>2101.3</ele>
        <time>2021-02-17T09:15:00Z</time>
      </trkpt>
      <trkpt lat="45.28472" lon="6.15363">
        <ele>2102.2</ele>
        <time>2021-02-17T09:15:01Z</time>
      </trkpt>
      <trkpt lat="45.28472" lon="6.15363">
        <ele>2102.2</ele>
        <time>2021-02-17T09:15:02Z</time>
      </trkpt>
      <trkpt lat="45.28472" lon="6.15362">
        <ele>2102.2</ele>
        <time>2021-02-17T09:15:03Z</time>
      </trkpt>
      <trkpt lat="45.28473" lon="6.15362">
        <ele>2102.2</ele>
        <time>2021-02-17T09:15:04Z</time>
      </trkpt>
      <trkpt lat="45.28473" lon="6.15361">
        <ele>2102.2</ele>
        <time>2021-02-17T09:15:05Z</time>
      </trkpt>
      <trkpt lat="45.28473" lon="6.1536">
        <ele>2102.2</ele>
        <time>2021-02-17T09:15:06Z</time>
      </trkpt>
      <trkpt lat="45.28473" lon="6.1536">
        <ele>2102.2</ele>
        <time>2021-02-17T09:15:07Z</time>
      </trkpt>
      <trkpt lat="45.28473" lon="6.15359">
        <ele>2102.2</ele>
        <time>2021-02-17T09:15:08Z</time>
      </trkpt>
      <trkpt lat="45.28473" lon="6.15358">
        <ele>2103.2</ele>
        <time>2021-02-17T09:15:09Z</time>
      </trkpt>
      <trkpt lat="45.28473" lon="6.15357">
        <ele>2104.3</ele>
        <time>2021-02-17T09:15:10Z</time>
      </trkpt>
      <trkpt lat="45.28473" lon="6.15356">
        <ele>2104.3</ele>
        <time>2021-02-17T09:15:11Z</time>
      </trkpt>
      <trkpt lat="45.28474" lon="6.15355">
        <ele>2104.3</ele>
        <time>2021-02-17T09:15:12Z</time>
      </trkpt>
      <trkpt lat="45.28474" lon="6.15354">
        <ele>2105.2</ele>
        <time>2021-02-17T09:15:13Z</time>
      </trkpt>
      <trkpt lat="45.28474" lon="6.15354">
        <ele>2105.2</ele>
        <time>2021-02-17T09:15:14Z</time>
      </trkpt>
      <trkpt lat="45.28474" lon="6.15353">
        <ele>2105.2</ele>
        <time>2021-02-17T09:15:15Z</time>
      </trkpt>
      <trkpt lat="45.28474" lon="6.15353">
        <ele>2105.2</ele>
        <time>2021-02-17T09:15:16Z</time>
      </trkpt>
      <trkpt lat="45.28474" lon="6.15352">
        <ele>2105.2</ele>
        <time>2021-02-17T09:15:17Z</time>
      </trkpt>
      <trkpt lat="45.28474" lon="6.15351">
        <ele>2105.2</ele>
        <time>2021-02-17T09:15:18Z</time>
      </trkpt>
      <trkpt lat="45.28474" lon="6.1535">
        <ele>2106.2</ele>
        <time>2021-02-17T09:15:19Z</time>
      </trkpt>
      <trkpt lat="45.28474" lon="6.15349">
        <ele>2106.2</ele>
        <time>2021-02-17T09:15:20Z</time>
      </trkpt>
      <trkpt lat="45.28474" lon="6.15348">
        <ele>2106.2</ele>
        <time>2021-02-17T09:15:21Z</time>
      </trkpt>
      <trkpt lat="45.28474" lon="6.15348">
        <ele>2106.2</ele>
        <time>2021-02-17T09:15:22Z</time>
      </trkpt>
      <trkpt lat="45.28474" lon="6.15347">
        <ele>2106.2</ele>
        <time>2021-02-17T09:15:23Z</time>
      </trkpt>
      <trkpt lat="45.28474" lon="6.15347">
        <ele>2106.2</ele>
        <time>2021-02-17T09:15:24Z</time>
      </trkpt>
      <trkpt lat="45.28475" lon="6.15347">
        <ele>2106.2</ele>
        <time>2021-02-17T09:15:25Z</time>
      </trkpt>
      <trkpt lat="45.28475" lon="6.15346">
        <ele>2106.2</ele>
        <time>2021-02-17T09:15:26Z</time>
      </trkpt>
      <trkpt lat="45.28476" lon="6.15346">
        <ele>2107.3</ele>
        <time>2021-02-17T09:15:27Z</time>
      </trkpt>
      <trkpt lat="45.28476" lon="6.15345">
        <ele>2107.3</ele>
        <time>2021-02-17T09:15:28Z</time>
      </trkpt>
      <trkpt lat="45.28476" lon="6.15345">
        <ele>2108.4</ele>
        <time>2021-02-17T09:15:29Z</time>
      </trkpt>
      <trkpt lat="45.28483" lon="6.15334">
        <ele>2112.6</ele>
        <time>2021-02-17T09:16:00Z</time>
      </trkpt>
      <trkpt lat="45.28483" lon="6.15334">
        <ele>2112.6</ele>
        <time>2021-02-17T09:16:01Z</time>
      </trkpt>
      <trkpt lat="45.28484" lon="6.15334">
        <ele>2112.6</ele>
        <time>2021-02-17T09:16:02Z</time>
      </trkpt>
      <trkpt lat="45.28484" lon="6.15334">
        <ele>2112.6</ele>
        <time>2021-02-17T09:16:03Z</time>
      </trkpt>
      <trkpt lat="45.28484" lon="6.15334">
        <ele>2112.6</ele>
        <time>2021-02-17T09:16:04Z</time>
      </trkpt>
      <trkpt lat="45.28485" lon="6.15334">
        <ele>2112.6</ele>
        <time>2021-02-17T09:16:05Z</time>
      </trkpt>
      <trkpt lat="45.28485" lon="6.15333">
        <ele>2112.6</ele>
        <time>2021-02-17T09:16:06Z</time>
      </trkpt>
      <trkpt lat="45.28485" lon="6.15333">
        <ele>2113.8</ele>
        <time>2021-02-17T09:16:07Z</time>
      </trkpt>
      <trkpt lat="45.28486" lon="6.15333">
        <ele>2114.8</ele>
        <time>2021-02-17T09:16:08Z</time>
      </trkpt>
      <trkpt lat="45.28486" lon="6.15332">
        <ele>2114.8</ele>
        <time>2021-02-17T09:16:09Z</time>
      </trkpt>
      <trkpt lat="45.28485" lon="6.15311">
        <ele>2119.1</ele>
        <time>2021-02-17T09:16:47Z</time>
      </trkpt>
      <trkpt lat="45.28486" lon="6.15311">
        <ele>2119.1</ele>
        <time>2021-02-17T09:16:48Z</time>
      </trkpt>
      <trkpt lat="45.28486" lon="6.15311">
        <ele>2119.1</ele>
        <time>2021-02-17T09:16:49Z</time>
      </trkpt>
      <trkpt lat="45.28487" lon="6.1531">
        <ele>2119.1</ele>
        <time>2021-02-17T09:16:50Z</time>
      </trkpt>
      <trkpt lat="45.28487" lon="6.15309">
        <ele>2119.1</ele>
        <time>2021-02-17T09:16:51Z</time>
      </trkpt>
      <trkpt lat="45.28487" lon="6.15308">
        <ele>2119.1</ele>
        <time>2021-02-17T09:16:52Z</time>
      </trkpt>
      <trkpt lat="45.28488" lon="6.15307">
        <ele>2120</ele>
        <time>2021-02-17T09:16:53Z</time>
      </trkpt>
      <trkpt lat="45.28488" lon="6.15306">
        <ele>2120</ele>
        <time>2021-02-17T09:16:54Z</time>
      </trkpt>
      <trkpt lat="45.28488" lon="6.15306">
        <ele>2121.1</ele>
        <time>2021-02-17T09:16:55Z</time>
      </trkpt>
      <trkpt lat="45.28489" lon="6.15305">
        <ele>2121.1</ele>
        <time>2021-02-17T09:16:56Z</time>
      </trkpt>
      <trkpt lat="45.28489" lon="6.15305">
        <ele>2121.1</ele>
        <time>2021-02-17T09:16:57Z</time>
      </trkpt>
      <trkpt lat="45.2849" lon="6.15304">
        <ele>2121.1</ele>
        <time>2021-02-17T09:16:58Z</time>
      </trkpt>
      <trkpt lat="45.2849" lon="6.15304">
        <ele>2121.1</ele>
        <time>2021-02-17T09:16:59Z</time>
      </trkpt>
      <trkpt lat="45.28491" lon="6.15304">
        <ele>2121.1</ele>
        <time>2021-02-17T09:17:00Z</time>
      </trkpt>
      <trkpt lat="45.28491" lon="6.15304">
        <ele>2122.3</ele>
        <time>2021-02-17T09:17:01Z</time>
      </trkpt>
      <trkpt lat="45.28492" lon="6.15304">
        <ele>2122.3</ele>
        <time>2021-02-17T09:17:02Z</time>
      </trkpt>
      <trkpt lat="45.28492" lon="6.15303">
        <ele>2122.3</ele>
        <time>2021-02-17T09:17:03Z</time>
      </trkpt>
      <trkpt lat="45.28492" lon="6.15303">
        <ele>2122.3</ele>
        <time>2021-02-17T09:17:04Z</time>
      </trkpt>
      <trkpt lat="45.28493" lon="6.15303">
        <ele>2122.3</ele>
        <time>2021-02-17T09:17:05Z</time>
      </trkpt>
      <trkpt lat="45.28493" lon="6.15303">
        <ele>2122.3</ele>
        <time>2021-02-17T09:17:06Z</time>
      </trkpt>
      <trkpt lat="45.28494" lon="6.15303">
        <ele>2122.3</ele>
        <time>2021-02-17T09:17:07Z</time>
      </trkpt>
      <trkpt lat="45.28495" lon="6.15304">
        <ele>2123.5</ele>
        <time>2021-02-17T09:17:08Z</time>
      </trkpt>
      <trkpt lat="45.28495" lon="6.15304">
        <ele>2123.5</ele>
        <time>2021-02-17T09:17:09Z</time>
      </trkpt>
      <trkpt lat="45.28495" lon="6.15304">
        <ele>2123.5</ele>
        <time>2021-02-17T09:17:10Z</time>
      </trkpt>
      <trkpt lat="45.28496" lon="6.15304">
        <ele>2123.5</ele>
        <time>2021-02-17T09:17:11Z</time>
      </trkpt>
      <trkpt lat="45.28496" lon="6.15304">
        <ele>2123.5</ele>
        <time>2021-02-17T09:17:12Z</time>
      </trkpt>
      <trkpt lat="45.28497" lon="6.15304">
        <ele>2123.5</ele>
        <time>2021-02-17T09:17:13Z</time>
      </trkpt>
      <trkpt lat="45.28498" lon="6.15304">
        <ele>2124.8</ele>
        <time>2021-02-17T09:17:14Z</time>
      </trkpt>
      <trkpt lat="45.28498" lon="6.15304">
        <ele>2124.8</ele>
        <time>2021-02-17T09:17:15Z</time>
      </trkpt>
      <trkpt lat="45.28499" lon="6.15305">
        <ele>2124.8</ele>
        <time>2021-02-17T09:17:16Z</time>
      </trkpt>
      <trkpt lat="45.285" lon="6.15305">
        <ele>2124.8</ele>
        <time>2021-02-17T09:17:17Z</time>
      </trkpt>
      <trkpt lat="45.28501" lon="6.15305">
        <ele>2126.2</ele>
        <time>2021-02-17T09:17:18Z</time>
      </trkpt>
      <trkpt lat="45.28501" lon="6.15306">
        <ele>2126.2</ele>
        <time>2021-02-17T09:17:19Z</time>
      </trkpt>
      <trkpt lat="45.28501" lon="6.15306">
        <ele>2126.2</ele>
        <time>2021-02-17T09:17:20Z</time>
      </trkpt>
      <trkpt lat="45.28501" lon="6.15306">
        <ele>2126.2</ele>
        <time>2021-02-17T09:17:21Z</time>
      </trkpt>
      <trkpt lat="45.28501" lon="6.15307">
        <ele>2126.2</ele>
        <time>2021-02-17T09:17:22Z</time>
      </trkpt>
      <trkpt lat="45.28502" lon="6.15307">
        <ele>2126.2</ele>
        <time>2021-02-17T09:17:23Z</time>
      </trkpt>
      <trkpt lat="45.28502" lon="6.15307">
        <ele>2126.2</ele>
        <time>2021-02-17T09:17:24Z</time>
      </trkpt>
      <trkpt lat="45.28502" lon="6.15307">
        <ele>2126.2</ele>
        <time>2021-02-17T09:17:25Z</time>
      </trkpt>
      <trkpt lat="45.28501" lon="6.15307">
        <ele>2126.2</ele>
        <time>2021-02-17T09:17:26Z</time>
      </trkpt>
      <trkpt lat="45.28501" lon="6.15307">
        <ele>2126.2</ele>
        <time>2021-02-17T09:17:27Z</time>
      </trkpt>
      <trkpt lat="45.28504" lon="6.15301">
        <ele>2128.3</ele>
        <time>2021-02-17T09:17:34Z</time>
      </trkpt>
      <trkpt lat="45.28504" lon="6.153">
        <ele>2128.3</ele>
        <time>2021-02-17T09:17:35Z</time>
      </trkpt>
      <trkpt lat="45.28504" lon="6.15299">
        <ele>2128.3</ele>
        <time>2021-02-17T09:17:36Z</time>
      </trkpt>
      <trkpt lat="45.28504" lon="6.15298">
        <ele>2129.1</ele>
        <time>2021-02-17T09:17:37Z</time>
      </trkpt>
      <trkpt lat="45.28504" lon="6.15297">
        <ele>2129.1</ele>
        <time>2021-02-17T09:17:38Z</time>
      </trkpt>
      <trkpt lat="45.28504" lon="6.15297">
        <ele>2129.1</ele>
        <time>2021-02-17T09:17:39Z</time>
      </trkpt>
      <trkpt lat="45.28504" lon="6.15296">
        <ele>2129.1</ele>
        <time>2021-02-17T09:17:40Z</time>
      </trkpt>
      <trkpt lat="45.28504" lon="6.15295">
        <ele>2129.1</ele>
        <time>2021-02-17T09:17:41Z</time>
      </trkpt>
      <trkpt lat="45.28504" lon="6.15294">
        <ele>2129.8</ele>
        <time>2021-02-17T09:17:42Z</time>
      </trkpt>
      <trkpt lat="45.28504" lon="6.15293">
        <ele>2129.8</ele>
        <time>2021-02-17T09:17:43Z</time>
      </trkpt>
      <trkpt lat="45.28504" lon="6.15292">
        <ele>2129.8</ele>
        <time>2021-02-17T09:17:44Z</time>
      </trkpt>
      <trkpt lat="45.28505" lon="6.15291">
        <ele>2129.8</ele>
        <time>2021-02-17T09:17:45Z</time>
      </trkpt>
      <trkpt lat="45.28505" lon="6.15291">
        <ele>2129.8</ele>
        <time>2021-02-17T09:17:46Z</time>
      </trkpt>
      <trkpt lat="45.28505" lon="6.1529">
        <ele>2129.8</ele>
        <time>2021-02-17T09:17:47Z</time>
      </trkpt>
      <trkpt lat="45.28506" lon="6.1529">
        <ele>2130.5</ele>
        <time>2021-02-17T09:17:48Z</time>
      </trkpt>
      <trkpt lat="45.28506" lon="6.15289">
        <ele>2130.5</ele>
        <time>2021-02-17T09:17:49Z</time>
      </trkpt>
      <trkpt lat="45.28506" lon="6.15289">
        <ele>2131.8</ele>
        <time>2021-02-17T09:17:50Z</time>
      </trkpt>
      <trkpt lat="45.28507" lon="6.15289">
        <ele>2131.8</ele>
        <time>2021-02-17T09:17:51Z</time>
      </trkpt>
      <trkpt lat="45.28507" lon="6.15289">
        <ele>2131.8</ele>
        <time>2021-02-17T09:17:52Z</time>
      </trkpt>
      <trkpt lat="45.28507" lon="6.15289">
        <ele>2131.8</ele>
        <time>2021-02-17T09:17:53Z</time>
      </trkpt>
      <trkpt lat="45.28507" lon="6.15289">
        <ele>2131.8</ele>
        <time>2021-02-17T09:17:54Z</time>
      </trkpt>
      <trkpt lat="45.28507" lon="6.15287">
        <ele>2131.8</ele>
        <time>2021-02-17T09:17:55Z</time>
      </trkpt>
      <trkpt lat="45.28507" lon="6.15286">
        <ele>2131.8</ele>
        <time>2021-02-17T09:17:56Z</time>
      </trkpt>
      <trkpt lat="45.28507" lon="6.15284">
        <ele>2132.4</ele>
        <time>2021-02-17T09:17:57Z</time>
      </trkpt>
      <trkpt lat="45.28507" lon="6.15282">
        <ele>2132.4</ele>
        <time>2021-02-17T09:17:58Z</time>
      </trkpt>
      <trkpt lat="45.28506" lon="6.15281">
        <ele>2132</ele>
        <time>2021-02-17T09:17:59Z</time>
      </trkpt>
      <trkpt lat="45.28506" lon="6.15279">
        <ele>2132</ele>
        <time>2021-02-17T09:18:00Z</time>
      </trkpt>
      <trkpt lat="45.28505" lon="6.15278">
        <ele>2132</ele>
        <time>2021-02-17T09:18:01Z</time>
      </trkpt>
      <trkpt lat="45.28505" lon="6.15278">
        <ele>2132</ele>
        <time>2021-02-17T09:18:02Z</time>
      </trkpt>
      <trkpt lat="45.28504" lon="6.15277">
        <ele>2132.7</ele>
        <time>2021-02-17T09:18:03Z</time>
      </trkpt>
      <trkpt lat="45.28504" lon="6.15275">
        <ele>2132.7</ele>
        <time>2021-02-17T09:18:04Z</time>
      </trkpt>
      <trkpt lat="45.28504" lon="6.15274">
        <ele>2132.7</ele>
        <time>2021-02-17T09:18:05Z</time>
      </trkpt>
      <trkpt lat="45.28504" lon="6.15274">
        <ele>2132.7</ele>
        <time>2021-02-17T09:18:06Z</time>
      </trkpt>
      <trkpt lat="45.28504" lon="6.15274">
        <ele>2132.7</ele>
        <time>2021-02-17T09:18:07Z</time>
      </trkpt>
      <trkpt lat="45.28504" lon="6.15274">
        <ele>2132.7</ele>
        <time>2021-02-17T09:18:08Z</time>
      </trkpt>
      <trkpt lat="45.28504" lon="6.15274">
        <ele>2132.7</ele>
        <time>2021-02-17T09:18:09Z</time>
      </trkpt>
      <trkpt lat="45.28509" lon="6.15273">
        <ele>2134.6</ele>
        <time>2021-02-17T09:21:38Z</time>
      </trkpt>
      <trkpt lat="45.28509" lon="6.15273">
        <ele>2133.8</ele>
        <time>2021-02-17T09:21:39Z</time>
      </trkpt>
      <trkpt lat="45.2851" lon="6.15274">
        <ele>2134.9</ele>
        <time>2021-02-17T09:21:40Z</time>
      </trkpt>
      <trkpt lat="45.2851" lon="6.15274">
        <ele>2134.9</ele>
        <time>2021-02-17T09:21:41Z</time>
      </trkpt>
      <trkpt lat="45.28511" lon="6.15274">
        <ele>2134.9</ele>
        <time>2021-02-17T09:21:42Z</time>
      </trkpt>
      <trkpt lat="45.28511" lon="6.15274">
        <ele>2134.9</ele>
        <time>2021-02-17T09:21:43Z</time>
      </trkpt>
      <trkpt lat="45.28512" lon="6.15274">
        <ele>2134.9</ele>
        <time>2021-02-17T09:21:44Z</time>
      </trkpt>
      <trkpt lat="45.28513" lon="6.15274">
        <ele>2136</ele>
        <time>2021-02-17T09:21:45Z</time>
      </trkpt>
      <trkpt lat="45.28514" lon="6.15274">
        <ele>2136</ele>
        <time>2021-02-17T09:21:46Z</time>
      </trkpt>
      <trkpt lat="45.28515" lon="6.15274">
        <ele>2136</ele>
        <time>2021-02-17T09:21:47Z</time>
      </trkpt>
      <trkpt lat="45.28515" lon="6.15274">
        <ele>2137</ele>
        <time>2021-02-17T09:21:48Z</time>
      </trkpt>
      <trkpt lat="45.28516" lon="6.15274">
        <ele>2137</ele>
        <time>2021-02-17T09:21:49Z</time>
      </trkpt>
      <trkpt lat="45.28516" lon="6.15274">
        <ele>2137</ele>
        <time>2021-02-17T09:21:50Z</time>
      </trkpt>
      <trkpt lat="45.28516" lon="6.15274">
        <ele>2137</ele>
        <time>2021-02-17T09:21:51Z</time>
      </trkpt>
      <trkpt lat="45.28517" lon="6.15275">
        <ele>2137</ele>
        <time>2021-02-17T09:21:52Z</time>
      </trkpt>
      <trkpt lat="45.28517" lon="6.15275">
        <ele>2137</ele>
        <time>2021-02-17T09:21:53Z</time>
      </trkpt>
      <trkpt lat="45.28518" lon="6.15276">
        <ele>2137</ele>
        <time>2021-02-17T09:21:54Z</time>
      </trkpt>
      <trkpt lat="45.28518" lon="6.15276">
        <ele>2137</ele>
        <time>2021-02-17T09:21:55Z</time>
      </trkpt>
      <trkpt lat="45.28518" lon="6.15277">
        <ele>2138.2</ele>
        <time>2021-02-17T09:21:56Z</time>
      </trkpt>
      <trkpt lat="45.28519" lon="6.15277">
        <ele>2138.2</ele>
        <time>2021-02-17T09:21:57Z</time>
      </trkpt>
      <trkpt lat="45.28519" lon="6.15277">
        <ele>2138.2</ele>
        <time>2021-02-17T09:21:58Z</time>
      </trkpt>
      <trkpt lat="45.2852" lon="6.15277">
        <ele>2138.2</ele>
        <time>2021-02-17T09:21:59Z</time>
      </trkpt>
      <trkpt lat="45.2852" lon="6.15277">
        <ele>2138.2</ele>
        <time>2021-02-17T09:22:00Z</time>
      </trkpt>
      <trkpt lat="45.2852" lon="6.15276">
        <ele>2138.2</ele>
        <time>2021-02-17T09:22:01Z</time>
      </trkpt>
      <trkpt lat="45.2852" lon="6.15276">
        <ele>2138.2</ele>
        <time>2021-02-17T09:22:02Z</time>
      </trkpt>
      <trkpt lat="45.2852" lon="6.15275">
        <ele>2138.2</ele>
        <time>2021-02-17T09:22:03Z</time>
      </trkpt>
      <trkpt lat="45.2852" lon="6.15274">
        <ele>2138.2</ele>
        <time>2021-02-17T09:22:04Z</time>
      </trkpt>
      <trkpt lat="45.2852" lon="6.15274">
        <ele>2138.2</ele>
        <time>2021-02-17T09:22:05Z</time>
      </trkpt>
      <trkpt lat="45.28522" lon="6.15268">
        <ele>2140.7</ele>
        <time>2021-02-17T09:22:11Z</time>
      </trkpt>
      <trkpt lat="45.28522" lon="6.15267">
        <ele>2140.7</ele>
        <time>2021-02-17T09:22:12Z</time>
      </trkpt>
      <trkpt lat="45.28522" lon="6.15266">
        <ele>2140.7</ele>
        <time>2021-02-17T09:22:13Z</time>
      </trkpt>
      <trkpt lat="45.28522" lon="6.15265">
        <ele>2140.7</ele>
        <time>2021-02-17T09:22:14Z</time>
      </trkpt>
      <trkpt lat="45.28522" lon="6.15264">
        <ele>2141.5</ele>
        <time>2021-02-17T09:22:15Z</time>
      </trkpt>
      <trkpt lat="45.28521" lon="6.15263">
        <ele>2141.5</ele>
        <time>2021-02-17T09:22:16Z</time>
      </trkpt>
      <trkpt lat="45.28521" lon="6.15262">
        <ele>2140.3</ele>
        <time>2021-02-17T09:22:17Z</time>
      </trkpt>
      <trkpt lat="45.28521" lon="6.15261">
        <ele>2140.3</ele>
        <time>2021-02-17T09:22:18Z</time>
      </trkpt>
      <trkpt lat="45.28521" lon="6.1526">
        <ele>2141.1</ele>
        <time>2021-02-17T09:22:19Z</time>
      </trkpt>
      <trkpt lat="45.28522" lon="6.15258">
        <ele>2142.3</ele>
        <time>2021-02-17T09:22:20Z</time>
      </trkpt>
      <trkpt lat="45.28522" lon="6.15257">
        <ele>2142.3</ele>
        <time>2021-02-17T09:22:21Z</time>
      </trkpt>
      <trkpt lat="45.28522" lon="6.15256">
        <ele>2143.2</ele>
        <time>2021-02-17T09:22:22Z</time>
      </trkpt>
      <trkpt lat="45.28522" lon="6.15255">
        <ele>2143.2</ele>
        <time>2021-02-17T09:22:23Z</time>
      </trkpt>
      <trkpt lat="45.28522" lon="6.15254">
        <ele>2143.2</ele>
        <time>2021-02-17T09:22:24Z</time>
      </trkpt>
      <trkpt lat="45.28522" lon="6.15254">
        <ele>2143.2</ele>
        <time>2021-02-17T09:22:25Z</time>
      </trkpt>
      <trkpt lat="45.28522" lon="6.15253">
        <ele>2143.2</ele>
        <time>2021-02-17T09:22:26Z</time>
      </trkpt>
      <trkpt lat="45.28522" lon="6.15252">
        <ele>2143.2</ele>
        <time>2021-02-17T09:22:27Z</time>
      </trkpt>
      <trkpt lat="45.28522" lon="6.15251">
        <ele>2144.2</ele>
        <time>2021-02-17T09:22:28Z</time>
      </trkpt>
      <trkpt lat="45.28522" lon="6.1525">
        <ele>2144.2</ele>
        <time>2021-02-17T09:22:29Z</time>
      </trkpt>
      <trkpt lat="45.28522" lon="6.15249">
        <ele>2144.2</ele>
        <time>2021-02-17T09:22:30Z</time>
      </trkpt>
      <trkpt lat="45.28522" lon="6.15247">
        <ele>2144.2</ele>
        <time>2021-02-17T09:22:31Z</time>
      </trkpt>
      <trkpt lat="45.28522" lon="6.15247">
        <ele>2145.2</ele>
        <time>2021-02-17T09:22:32Z</time>
      </trkpt>
      <trkpt lat="45.28522" lon="6.15246">
        <ele>2145.2</ele>
        <time>2021-02-17T09:22:33Z</time>
      </trkpt>
      <trkpt lat="45.28523" lon="6.15245">
        <ele>2145.2</ele>
        <time>2021-02-17T09:22:34Z</time>
      </trkpt>
      <trkpt lat="45.28523" lon="6.15244">
        <ele>2145.2</ele>
        <time>2021-02-17T09:22:35Z</time>
      </trkpt>
      <trkpt lat="45.28523" lon="6.15244">
        <ele>2145.2</ele>
        <time>2021-02-17T09:22:36Z</time>
      </trkpt>
      <trkpt lat="45.28524" lon="6.15244">
        <ele>2145.2</ele>
        <time>2021-02-17T09:22:37Z</time>
      </trkpt>
      <trkpt lat="45.28524" lon="6.15244">
        <ele>2145.2</ele>
        <time>2021-02-17T09:22:38Z</time>
      </trkpt>
      <trkpt lat="45.28525" lon="6.15244">
        <ele>2146.4</ele>
        <time>2021-02-17T09:22:39Z</time>
      </trkpt>
      <trkpt lat="45.28525" lon="6.15244">
        <ele>2146.4</ele>
        <time>2021-02-17T09:22:40Z</time>
      </trkpt>
      <trkpt lat="45.28526" lon="6.15245">
        <ele>2146.4</ele>
        <time>2021-02-17T09:22:41Z</time>
      </trkpt>
      <trkpt lat="45.28526" lon="6.15245">
        <ele>2146.4</ele>
        <time>2021-02-17T09:22:42Z</time>
      </trkpt>
      <trkpt lat="45.28527" lon="6.15245">
        <ele>2146.4</ele>
        <time>2021-02-17T09:22:43Z</time>
      </trkpt>
      <trkpt lat="45.28528" lon="6.15245">
        <ele>2147.6</ele>
        <time>2021-02-17T09:22:44Z</time>
      </trkpt>
      <trkpt lat="45.28528" lon="6.15245">
        <ele>2147.6</ele>
        <time>2021-02-17T09:22:45Z</time>
      </trkpt>
      <trkpt lat="45.28529" lon="6.15246">
        <ele>2147.6</ele>
        <time>2021-02-17T09:22:46Z</time>
      </trkpt>
      <trkpt lat="45.2853" lon="6.15246">
        <ele>2147.6</ele>
        <time>2021-02-17T09:22:47Z</time>
      </trkpt>
      <trkpt lat="45.28531" lon="6.15247">
        <ele>2148.8</ele>
        <time>2021-02-17T09:22:48Z</time>
      </trkpt>
      <trkpt lat="45.28532" lon="6.15247">
        <ele>2148.8</ele>
        <time>2021-02-17T09:22:49Z</time>
      </trkpt>
      <trkpt lat="45.28532" lon="6.15248">
        <ele>2147.9</ele>
        <time>2021-02-17T09:22:50Z</time>
      </trkpt>
      <trkpt lat="45.28535" lon="6.15251">
        <ele>2149.2</ele>
        <time>2021-02-17T09:22:54Z</time>
      </trkpt>
      <trkpt lat="45.28535" lon="6.15251">
        <ele>2149.2</ele>
        <time>2021-02-17T09:22:55Z</time>
      </trkpt>
      <trkpt lat="45.28536" lon="6.15252">
        <ele>2148.3</ele>
        <time>2021-02-17T09:22:56Z</time>
      </trkpt>
      <trkpt lat="45.28536" lon="6.15253">
        <ele>2148.3</ele>
        <time>2021-02-17T09:22:57Z</time>
      </trkpt>
      <trkpt lat="45.28536" lon="6.15254">
        <ele>2148.3</ele>
        <time>2021-02-17T09:22:58Z</time>
      </trkpt>
      <trkpt lat="45.28536" lon="6.15255">
        <ele>2148.3</ele>
        <time>2021-02-17T09:22:59Z</time>
      </trkpt>
      <trkpt lat="45.28536" lon="6.15255">
        <ele>2148.3</ele>
        <time>2021-02-17T09:23:00Z</time>
      </trkpt>
      <trkpt lat="45.28537" lon="6.15256">
        <ele>2148.7</ele>
        <time>2021-02-17T09:23:01Z</time>
      </trkpt>
      <trkpt lat="45.28537" lon="6.15257">
        <ele>2148.7</ele>
        <time>2021-02-17T09:23:02Z</time>
      </trkpt>
      <trkpt lat="45.28537" lon="6.15258">
        <ele>2148.7</ele>
        <time>2021-02-17T09:23:03Z</time>
      </trkpt>
      <trkpt lat="45.28537" lon="6.15259">
        <ele>2148.7</ele>
        <time>2021-02-17T09:23:04Z</time>
      </trkpt>
      <trkpt lat="45.28537" lon="6.1526">
        <ele>2148.7</ele>
        <time>2021-02-17T09:23:05Z</time>
      </trkpt>
      <trkpt lat="45.28537" lon="6.1526">
        <ele>2148</ele>
        <time>2021-02-17T09:23:06Z</time>
      </trkpt>
      <trkpt lat="45.28537" lon="6.15261">
        <ele>2148</ele>
        <time>2021-02-17T09:23:07Z</time>
      </trkpt>
      <trkpt lat="45.28538" lon="6.15262">
        <ele>2148</ele>
        <time>2021-02-17T09:23:08Z</time>
      </trkpt>
      <trkpt lat="45.28538" lon="6.15263">
        <ele>2148</ele>
        <time>2021-02-17T09:23:09Z</time>
      </trkpt>
      <trkpt lat="45.28538" lon="6.15263">
        <ele>2148</ele>
        <time>2021-02-17T09:23:10Z</time>
      </trkpt>
      <trkpt lat="45.28539" lon="6.15264">
        <ele>2148</ele>
        <time>2021-02-17T09:23:11Z</time>
      </trkpt>
      <trkpt lat="45.28539" lon="6.15265">
        <ele>2147.4</ele>
        <time>2021-02-17T09:23:12Z</time>
      </trkpt>
      <trkpt lat="45.28539" lon="6.15265">
        <ele>2147.4</ele>
        <time>2021-02-17T09:23:13Z</time>
      </trkpt>
      <trkpt lat="45.2854" lon="6.15266">
        <ele>2148.6</ele>
        <time>2021-02-17T09:23:14Z</time>
      </trkpt>
      <trkpt lat="45.2854" lon="6.15266">
        <ele>2148.6</ele>
        <time>2021-02-17T09:23:15Z</time>
      </trkpt>
      <trkpt lat="45.2854" lon="6.15266">
        <ele>2148.6</ele>
        <time>2021-02-17T09:23:16Z</time>
      </trkpt>
      <trkpt lat="45.28545" lon="6.15269">
        <ele>2149.9</ele>
        <time>2021-02-17T09:24:24Z</time>
      </trkpt>
      <trkpt lat="45.28546" lon="6.15269">
        <ele>2150.6</ele>
        <time>2021-02-17T09:24:25Z</time>
      </trkpt>
      <trkpt lat="45.28547" lon="6.1527">
        <ele>2150.6</ele>
        <time>2021-02-17T09:24:26Z</time>
      </trkpt>
      <trkpt lat="45.28548" lon="6.1527">
        <ele>2150.6</ele>
        <time>2021-02-17T09:24:27Z</time>
      </trkpt>
      <trkpt lat="45.28548" lon="6.1527">
        <ele>2150.6</ele>
        <time>2021-02-17T09:24:28Z</time>
      </trkpt>
      <trkpt lat="45.28549" lon="6.15271">
        <ele>2152</ele>
        <time>2021-02-17T09:24:29Z</time>
      </trkpt>
      <trkpt lat="45.2855" lon="6.15271">
        <ele>2152</ele>
        <time>2021-02-17T09:24:30Z</time>
      </trkpt>
      <trkpt lat="45.2855" lon="6.15271">
        <ele>2152</ele>
        <time>2021-02-17T09:24:31Z</time>
      </trkpt>
      <trkpt lat="45.28551" lon="6.15272">
        <ele>2152</ele>
        <time>2021-02-17T09:24:32Z</time>
      </trkpt>
      <trkpt lat="45.28551" lon="6.15272">
        <ele>2152</ele>
        <time>2021-02-17T09:24:33Z</time>
      </trkpt>
      <trkpt lat="45.28552" lon="6.15272">
        <ele>2153.4</ele>
        <time>2021-02-17T09:24:34Z</time>
      </trkpt>
      <trkpt lat="45.28552" lon="6.15272">
        <ele>2153.4</ele>
        <time>2021-02-17T09:24:35Z</time>
      </trkpt>
      <trkpt lat="45.28553" lon="6.15273">
        <ele>2153.4</ele>
        <time>2021-02-17T09:24:36Z</time>
      </trkpt>
      <trkpt lat="45.28554" lon="6.15273">
        <ele>2153.4</ele>
        <time>2021-02-17T09:24:37Z</time>
      </trkpt>
      <trkpt lat="45.28554" lon="6.15273">
        <ele>2152.9</ele>
        <time>2021-02-17T09:24:38Z</time>
      </trkpt>
      <trkpt lat="45.28555" lon="6.15274">
        <ele>2154.3</ele>
        <time>2021-02-17T09:24:39Z</time>
      </trkpt>
      <trkpt lat="45.28555" lon="6.15274">
        <ele>2154.3</ele>
        <time>2021-02-17T09:24:40Z</time>
      </trkpt>
      <trkpt lat="45.28556" lon="6.15275">
        <ele>2154.3</ele>
        <time>2021-02-17T09:24:41Z</time>
      </trkpt>
      <trkpt lat="45.28557" lon="6.15276">
        <ele>2154.3</ele>
        <time>2021-02-17T09:24:42Z</time>
      </trkpt>
      <trkpt lat="45.28557" lon="6.15276">
        <ele>2154.3</ele>
        <time>2021-02-17T09:24:43Z</time>
      </trkpt>
      <trkpt lat="45.28558" lon="6.15277">
        <ele>2155.6</ele>
        <time>2021-02-17T09:24:44Z</time>
      </trkpt>
      <trkpt lat="45.28559" lon="6.15278">
        <ele>2155.1</ele>
        <time>2021-02-17T09:24:45Z</time>
      </trkpt>
      <trkpt lat="45.28559" lon="6.15278">
        <ele>2155.1</ele>
        <time>2021-02-17T09:24:46Z</time>
      </trkpt>
      <trkpt lat="45.28559" lon="6.1528">
        <ele>2155.1</ele>
        <time>2021-02-17T09:24:47Z</time>
      </trkpt>
      <trkpt lat="45.2856" lon="6.15281">
        <ele>2155.1</ele>
        <time>2021-02-17T09:24:48Z</time>
      </trkpt>
      <trkpt lat="45.2856" lon="6.15282">
        <ele>2154.5</ele>
        <time>2021-02-17T09:24:49Z</time>
      </trkpt>
      <trkpt lat="45.2856" lon="6.15282">
        <ele>2154.5</ele>
        <time>2021-02-17T09:24:50Z</time>
      </trkpt>
      <trkpt lat="45.28561" lon="6.15283">
        <ele>2155.7</ele>
        <time>2021-02-17T09:24:51Z</time>
      </trkpt>
      <trkpt lat="45.28562" lon="6.15284">
        <ele>2155.7</ele>
        <time>2021-02-17T09:24:52Z</time>
      </trkpt>
      <trkpt lat="45.28563" lon="6.15285">
        <ele>2155.7</ele>
        <time>2021-02-17T09:24:53Z</time>
      </trkpt>
      <trkpt lat="45.28563" lon="6.15286">
        <ele>2155.1</ele>
        <time>2021-02-17T09:24:54Z</time>
      </trkpt>
      <trkpt lat="45.28563" lon="6.15287">
        <ele>2155.1</ele>
        <time>2021-02-17T09:24:55Z</time>
      </trkpt>
      <trkpt lat="45.28564" lon="6.15288">
        <ele>2156.3</ele>
        <time>2021-02-17T09:24:56Z</time>
      </trkpt>
      <trkpt lat="45.28564" lon="6.15289">
        <ele>2156.3</ele>
        <time>2021-02-17T09:24:57Z</time>
      </trkpt>
      <trkpt lat="45.28564" lon="6.15289">
        <ele>2156.3</ele>
        <time>2021-02-17T09:24:58Z</time>
      </trkpt>
      <trkpt lat="45.28565" lon="6.1529">
        <ele>2156.3</ele>
        <time>2021-02-17T09:24:59Z</time>
      </trkpt>
      <trkpt lat="45.28565" lon="6.15291">
        <ele>2155.7</ele>
        <time>2021-02-17T09:25:00Z</time>
      </trkpt>
      <trkpt lat="45.28565" lon="6.15291">
        <ele>2155.7</ele>
        <time>2021-02-17T09:25:01Z</time>
      </trkpt>
      <trkpt lat="45.28566" lon="6.15292">
        <ele>2155.7</ele>
        <time>2021-02-17T09:25:02Z</time>
      </trkpt>
      <trkpt lat="45.28566" lon="6.15292">
        <ele>2155.7</ele>
        <time>2021-02-17T09:25:03Z</time>
      </trkpt>
      <trkpt lat="45.28567" lon="6.15293">
        <ele>2156.8</ele>
        <time>2021-02-17T09:25:04Z</time>
      </trkpt>
      <trkpt lat="45.28567" lon="6.15294">
        <ele>2156.8</ele>
        <time>2021-02-17T09:25:05Z</time>
      </trkpt>
      <trkpt lat="45.28567" lon="6.15295">
        <ele>2156.2</ele>
        <time>2021-02-17T09:25:06Z</time>
      </trkpt>
      <trkpt lat="45.28567" lon="6.15295">
        <ele>2156.2</ele>
        <time>2021-02-17T09:25:07Z</time>
      </trkpt>
      <trkpt lat="45.28568" lon="6.15296">
        <ele>2156.2</ele>
        <time>2021-02-17T09:25:08Z</time>
      </trkpt>
      <trkpt lat="45.28568" lon="6.15296">
        <ele>2156.2</ele>
        <time>2021-02-17T09:25:09Z</time>
      </trkpt>
      <trkpt lat="45.28568" lon="6.15297">
        <ele>2156.2</ele>
        <time>2021-02-17T09:25:10Z</time>
      </trkpt>
      <trkpt lat="45.28569" lon="6.15298">
        <ele>2156.2</ele>
        <time>2021-02-17T09:25:11Z</time>
      </trkpt>
      <trkpt lat="45.28569" lon="6.15298">
        <ele>2156.2</ele>
        <time>2021-02-17T09:25:12Z</time>
      </trkpt>
      <trkpt lat="45.2857" lon="6.15299">
        <ele>2155.6</ele>
        <time>2021-02-17T09:25:13Z</time>
      </trkpt>
      <trkpt lat="45.2857" lon="6.153">
        <ele>2156.7</ele>
        <time>2021-02-17T09:25:14Z</time>
      </trkpt>
      <trkpt lat="45.2857" lon="6.15301">
        <ele>2156.7</ele>
        <time>2021-02-17T09:25:15Z</time>
      </trkpt>
      <trkpt lat="45.28571" lon="6.15302">
        <ele>2156.7</ele>
        <time>2021-02-17T09:25:16Z</time>
      </trkpt>
      <trkpt lat="45.28571" lon="6.15302">
        <ele>2156.7</ele>
        <time>2021-02-17T09:25:17Z</time>
      </trkpt>
      <trkpt lat="45.28571" lon="6.15302">
        <ele>2156.7</ele>
        <time>2021-02-17T09:25:18Z</time>
      </trkpt>
      <trkpt lat="45.28571" lon="6.15301">
        <ele>2156.7</ele>
        <time>2021-02-17T09:25:19Z</time>
      </trkpt>
      <trkpt lat="45.28572" lon="6.153">
        <ele>2156.7</ele>
        <time>2021-02-17T09:25:20Z</time>
      </trkpt>
      <trkpt lat="45.28572" lon="6.153">
        <ele>2156.7</ele>
        <time>2021-02-17T09:25:21Z</time>
      </trkpt>
      <trkpt lat="45.28573" lon="6.15299">
        <ele>2157.8</ele>
        <time>2021-02-17T09:25:22Z</time>
      </trkpt>
      <trkpt lat="45.28573" lon="6.15299">
        <ele>2158.4</ele>
        <time>2021-02-17T09:25:23Z</time>
      </trkpt>
      <trkpt lat="45.28574" lon="6.15298">
        <ele>2158.4</ele>
        <time>2021-02-17T09:25:24Z</time>
      </trkpt>
      <trkpt lat="45.28574" lon="6.15298">
        <ele>2158.4</ele>
        <time>2021-02-17T09:25:25Z</time>
      </trkpt>
      <trkpt lat="45.28574" lon="6.15297">
        <ele>2158.4</ele>
        <time>2021-02-17T09:25:26Z</time>
      </trkpt>
      <trkpt lat="45.28574" lon="6.15297">
        <ele>2158.4</ele>
        <time>2021-02-17T09:25:27Z</time>
      </trkpt>
      <trkpt lat="45.28574" lon="6.15297">
        <ele>2158.4</ele>
        <time>2021-02-17T09:25:28Z</time>
      </trkpt>
      <trkpt lat="45.28575" lon="6.15297">
        <ele>2158.4</ele>
        <time>2021-02-17T09:25:29Z</time>
      </trkpt>
      <trkpt lat="45.28575" lon="6.15297">
        <ele>2158.4</ele>
        <time>2021-02-17T09:25:30Z</time>
      </trkpt>
      <trkpt lat="45.28575" lon="6.15296">
        <ele>2158.4</ele>
        <time>2021-02-17T09:25:31Z</time>
      </trkpt>
      <trkpt lat="45.28575" lon="6.15296">
        <ele>2158.4</ele>
        <time>2021-02-17T09:25:32Z</time>
      </trkpt>
      <trkpt lat="45.28575" lon="6.15295">
        <ele>2158.4</ele>
        <time>2021-02-17T09:25:33Z</time>
      </trkpt>
      <trkpt lat="45.28578" lon="6.15293">
        <ele>2160.1</ele>
        <time>2021-02-17T09:25:37Z</time>
      </trkpt>
      <trkpt lat="45.28578" lon="6.15292">
        <ele>2160.1</ele>
        <time>2021-02-17T09:25:38Z</time>
      </trkpt>
      <trkpt lat="45.28579" lon="6.15293">
        <ele>2161.1</ele>
        <time>2021-02-17T09:25:39Z</time>
      </trkpt>
      <trkpt lat="45.2858" lon="6.15293">
        <ele>2161.1</ele>
        <time>2021-02-17T09:25:40Z</time>
      </trkpt>
      <trkpt lat="45.2858" lon="6.15293">
        <ele>2161.1</ele>
        <time>2021-02-17T09:25:41Z</time>
      </trkpt>
      <trkpt lat="45.28581" lon="6.15294">
        <ele>2161.1</ele>
        <time>2021-02-17T09:25:42Z</time>
      </trkpt>
      <trkpt lat="45.28581" lon="6.15294">
        <ele>2161.1</ele>
        <time>2021-02-17T09:25:43Z</time>
      </trkpt>
      <trkpt lat="45.28582" lon="6.15295">
        <ele>2161.5</ele>
        <time>2021-02-17T09:25:44Z</time>
      </trkpt>
      <trkpt lat="45.28582" lon="6.15295">
        <ele>2161.5</ele>
        <time>2021-02-17T09:25:45Z</time>
      </trkpt>
      <trkpt lat="45.28583" lon="6.15295">
        <ele>2161.5</ele>
        <time>2021-02-17T09:25:46Z</time>
      </trkpt>
      <trkpt lat="45.28583" lon="6.15295">
        <ele>2161.5</ele>
        <time>2021-02-17T09:25:47Z</time>
      </trkpt>
      <trkpt lat="45.28583" lon="6.15296">
        <ele>2161.5</ele>
        <time>2021-02-17T09:25:48Z</time>
      </trkpt>
      <trkpt lat="45.28584" lon="6.15296">
        <ele>2161.5</ele>
        <time>2021-02-17T09:25:49Z</time>
      </trkpt>
      <trkpt lat="45.28584" lon="6.15297">
        <ele>2161.5</ele>
        <time>2021-02-17T09:25:50Z</time>
      </trkpt>
      <trkpt lat="45.28585" lon="6.15297">
        <ele>2162.5</ele>
        <time>2021-02-17T09:25:51Z</time>
      </trkpt>
      <trkpt lat="45.28585" lon="6.15298">
        <ele>2162.5</ele>
        <time>2021-02-17T09:25:52Z</time>
      </trkpt>
      <trkpt lat="45.28586" lon="6.15299">
        <ele>2161.9</ele>
        <time>2021-02-17T09:25:53Z</time>
      </trkpt>
      <trkpt lat="45.28587" lon="6.153">
        <ele>2161.9</ele>
        <time>2021-02-17T09:25:54Z</time>
      </trkpt>
      <trkpt lat="45.28587" lon="6.15301">
        <ele>2161.9</ele>
        <time>2021-02-17T09:25:55Z</time>
      </trkpt>
      <trkpt lat="45.28587" lon="6.15302">
        <ele>2161.9</ele>
        <time>2021-02-17T09:25:56Z</time>
      </trkpt>
      <trkpt lat="45.28588" lon="6.15302">
        <ele>2161.9</ele>
        <time>2021-02-17T09:25:57Z</time>
      </trkpt>
      <trkpt lat="45.28588" lon="6.15303">
        <ele>2162.3</ele>
        <time>2021-02-17T09:25:58Z</time>
      </trkpt>
      <trkpt lat="45.28589" lon="6.15304">
        <ele>2162.3</ele>
        <time>2021-02-17T09:25:59Z</time>
      </trkpt>
      <trkpt lat="45.28589" lon="6.15305">
        <ele>2162.3</ele>
        <time>2021-02-17T09:26:00Z</time>
      </trkpt>
      <trkpt lat="45.2859" lon="6.15305">
        <ele>2162.3</ele>
        <time>2021-02-17T09:26:01Z</time>
      </trkpt>
      <trkpt lat="45.2859" lon="6.15306">
        <ele>2162.3</ele>
        <time>2021-02-17T09:26:02Z</time>
      </trkpt>
      <trkpt lat="45.28591" lon="6.15307">
        <ele>2162.3</ele>
        <time>2021-02-17T09:26:03Z</time>
      </trkpt>
      <trkpt lat="45.28591" lon="6.15307">
        <ele>2162.3</ele>
        <time>2021-02-17T09:26:04Z</time>
      </trkpt>
      <trkpt lat="45.28591" lon="6.15308">
        <ele>2161.8</ele>
        <time>2021-02-17T09:26:05Z</time>
      </trkpt>
      <trkpt lat="45.28591" lon="6.15309">
        <ele>2161.8</ele>
        <time>2021-02-17T09:26:06Z</time>
      </trkpt>
      <trkpt lat="45.28591" lon="6.15309">
        <ele>2162.7</ele>
        <time>2021-02-17T09:26:07Z</time>
      </trkpt>
      <trkpt lat="45.28591" lon="6.1531">
        <ele>2162.7</ele>
        <time>2021-02-17T09:26:08Z</time>
      </trkpt>
      <trkpt lat="45.28591" lon="6.1531">
        <ele>2162.7</ele>
        <time>2021-02-17T09:26:09Z</time>
      </trkpt>
      <trkpt lat="45.28592" lon="6.1531">
        <ele>2162.7</ele>
        <time>2021-02-17T09:26:10Z</time>
      </trkpt>
      <trkpt lat="45.28593" lon="6.1531">
        <ele>2162.7</ele>
        <time>2021-02-17T09:26:11Z</time>
      </trkpt>
      <trkpt lat="45.28593" lon="6.1531">
        <ele>2162.7</ele>
        <time>2021-02-17T09:26:12Z</time>
      </trkpt>
      <trkpt lat="45.28594" lon="6.1531">
        <ele>2162.7</ele>
        <time>2021-02-17T09:26:13Z</time>
      </trkpt>
      <trkpt lat="45.28594" lon="6.1531">
        <ele>2162.7</ele>
        <time>2021-02-17T09:26:14Z</time>
      </trkpt>
      <trkpt lat="45.28594" lon="6.1531">
        <ele>2163.5</ele>
        <time>2021-02-17T09:26:15Z</time>
      </trkpt>
      <trkpt lat="45.28595" lon="6.1531">
        <ele>2163.5</ele>
        <time>2021-02-17T09:26:16Z</time>
      </trkpt>
      <trkpt lat="45.28595" lon="6.15309">
        <ele>2163.5</ele>
        <time>2021-02-17T09:26:17Z</time>
      </trkpt>
      <trkpt lat="45.28595" lon="6.15309">
        <ele>2163.5</ele>
        <time>2021-02-17T09:26:18Z</time>
      </trkpt>
      <trkpt lat="45.286" lon="6.15305">
        <ele>2165.4</ele>
        <time>2021-02-17T09:26:26Z</time>
      </trkpt>
      <trkpt lat="45.286" lon="6.15305">
        <ele>2165.4</ele>
        <time>2021-02-17T09:26:27Z</time>
      </trkpt>
      <trkpt lat="45.286" lon="6.15304">
        <ele>2165.4</ele>
        <time>2021-02-17T09:26:28Z</time>
      </trkpt>
      <trkpt lat="45.286" lon="6.15303">
        <ele>2165.4</ele>
        <time>2021-02-17T09:26:29Z</time>
      </trkpt>
      <trkpt lat="45.28601" lon="6.15303">
        <ele>2166</ele>
        <time>2021-02-17T09:26:30Z</time>
      </trkpt>
      <trkpt lat="45.28601" lon="6.15302">
        <ele>2166</ele>
        <time>2021-02-17T09:26:31Z</time>
      </trkpt>
      <trkpt lat="45.28601" lon="6.15302">
        <ele>2166</ele>
        <time>2021-02-17T09:26:32Z</time>
      </trkpt>
      <trkpt lat="45.28602" lon="6.15301">
        <ele>2166</ele>
        <time>2021-02-17T09:26:33Z</time>
      </trkpt>
      <trkpt lat="45.28603" lon="6.153">
        <ele>2166</ele>
        <time>2021-02-17T09:26:34Z</time>
      </trkpt>
      <trkpt lat="45.28603" lon="6.153">
        <ele>2166.6</ele>
        <time>2021-02-17T09:26:35Z</time>
      </trkpt>
      <trkpt lat="45.28604" lon="6.15299">
        <ele>2166.6</ele>
        <time>2021-02-17T09:26:36Z</time>
      </trkpt>
      <trkpt lat="45.28604" lon="6.15299">
        <ele>2166.6</ele>
        <time>2021-02-17T09:26:37Z</time>
      </trkpt>
      <trkpt lat="45.28605" lon="6.15299">
        <ele>2167.2</ele>
        <time>2021-02-17T09:26:38Z</time>
      </trkpt>
      <trkpt lat="45.28605" lon="6.15298">
        <ele>2167.2</ele>
        <time>2021-02-17T09:26:39Z</time>
      </trkpt>
      <trkpt lat="45.28606" lon="6.15298">
        <ele>2167.2</ele>
        <time>2021-02-17T09:26:40Z</time>
      </trkpt>
      <trkpt lat="45.28608" lon="6.15297">
        <ele>2168</ele>
        <time>2021-02-17T09:26:41Z</time>
      </trkpt>
      <trkpt lat="45.28609" lon="6.15296">
        <ele>2168</ele>
        <time>2021-02-17T09:26:42Z</time>
      </trkpt>
      <trkpt lat="45.2861" lon="6.15296">
        <ele>2168.7</ele>
        <time>2021-02-17T09:26:43Z</time>
      </trkpt>
      <trkpt lat="45.28611" lon="6.15296">
        <ele>2168.7</ele>
        <time>2021-02-17T09:26:44Z</time>
      </trkpt>
      <trkpt lat="45.28612" lon="6.15295">
        <ele>2169.4</ele>
        <time>2021-02-17T09:26:45Z</time>
      </trkpt>
      <trkpt lat="45.28613" lon="6.15295">
        <ele>2169.4</ele>
        <time>2021-02-17T09:26:46Z</time>
      </trkpt>
      <trkpt lat="45.28614" lon="6.15295">
        <ele>2169.4</ele>
        <time>2021-02-17T09:26:47Z</time>
      </trkpt>
      <trkpt lat="45.28614" lon="6.15295">
        <ele>2169.4</ele>
        <time>2021-02-17T09:26:48Z</time>
      </trkpt>
      <trkpt lat="45.28614" lon="6.15295">
        <ele>2169.4</ele>
        <time>2021-02-17T09:26:49Z</time>
      </trkpt>
      <trkpt lat="45.28615" lon="6.15295">
        <ele>2169.4</ele>
        <time>2021-02-17T09:26:50Z</time>
      </trkpt>
      <trkpt lat="45.28616" lon="6.15295">
        <ele>2170.1</ele>
        <time>2021-02-17T09:26:51Z</time>
      </trkpt>
      <trkpt lat="45.28616" lon="6.15295">
        <ele>2170.1</ele>
        <time>2021-02-17T09:26:52Z</time>
      </trkpt>
      <trkpt lat="45.28617" lon="6.15294">
        <ele>2170.8</ele>
        <time>2021-02-17T09:26:53Z</time>
      </trkpt>
      <trkpt lat="45.28618" lon="6.15294">
        <ele>2170.8</ele>
        <time>2021-02-17T09:26:54Z</time>
      </trkpt>
      <trkpt lat="45.28618" lon="6.15293">
        <ele>2171.4</ele>
        <time>2021-02-17T09:26:55Z</time>
      </trkpt>
      <trkpt lat="45.28618" lon="6.15293">
        <ele>2171.4</ele>
        <time>2021-02-17T09:26:56Z</time>
      </trkpt>
      <trkpt lat="45.28619" lon="6.15292">
        <ele>2171.4</ele>
        <time>2021-02-17T09:26:57Z</time>
      </trkpt>
      <trkpt lat="45.2862" lon="6.15292">
        <ele>2171.4</ele>
        <time>2021-02-17T09:26:58Z</time>
      </trkpt>
      <trkpt lat="45.2862" lon="6.15291">
        <ele>2171.4</ele>
        <time>2021-02-17T09:26:59Z</time>
      </trkpt>
      <trkpt lat="45.2862" lon="6.1529">
        <ele>2171.4</ele>
        <time>2021-02-17T09:27:00Z</time>
      </trkpt>
      <trkpt lat="45.28621" lon="6.15289">
        <ele>2172.2</ele>
        <time>2021-02-17T09:27:01Z</time>
      </trkpt>
      <trkpt lat="45.28621" lon="6.15288">
        <ele>2172.2</ele>
        <time>2021-02-17T09:27:02Z</time>
      </trkpt>
      <trkpt lat="45.28621" lon="6.15287">
        <ele>2172.2</ele>
        <time>2021-02-17T09:27:03Z</time>
      </trkpt>
      <trkpt lat="45.2862" lon="6.15287">
        <ele>2172.2</ele>
        <time>2021-02-17T09:27:04Z</time>
      </trkpt>
      <trkpt lat="45.2862" lon="6.15287">
        <ele>2172.2</ele>
        <time>2021-02-17T09:27:05Z</time>
      </trkpt>
      <trkpt lat="45.28619" lon="6.15286">
        <ele>2172.9</ele>
        <time>2021-02-17T09:27:06Z</time>
      </trkpt>
      <trkpt lat="45.28618" lon="6.15285">
        <ele>2172.9</ele>
        <time>2021-02-17T09:27:07Z</time>
      </trkpt>
      <trkpt lat="45.28618" lon="6.15284">
        <ele>2172.3</ele>
        <time>2021-02-17T09:27:08Z</time>
      </trkpt>
      <trkpt lat="45.28618" lon="6.15283">
        <ele>2172.3</ele>
        <time>2021-02-17T09:27:09Z</time>
      </trkpt>
      <trkpt lat="45.28618" lon="6.15282">
        <ele>2172.3</ele>
        <time>2021-02-17T09:27:10Z</time>
      </trkpt>
      <trkpt lat="45.28618" lon="6.15281">
        <ele>2173.6</ele>
        <time>2021-02-17T09:27:11Z</time>
      </trkpt>
      <trkpt lat="45.28618" lon="6.15281">
        <ele>2173.6</ele>
        <time>2021-02-17T09:27:12Z</time>
      </trkpt>
      <trkpt lat="45.28618" lon="6.1528">
        <ele>2173.6</ele>
        <time>2021-02-17T09:27:13Z</time>
      </trkpt>
      <trkpt lat="45.28618" lon="6.15279">
        <ele>2173.6</ele>
        <time>2021-02-17T09:27:14Z</time>
      </trkpt>
      <trkpt lat="45.28618" lon="6.15278">
        <ele>2173</ele>
        <time>2021-02-17T09:27:15Z</time>
      </trkpt>
      <trkpt lat="45.28618" lon="6.15277">
        <ele>2173</ele>
        <time>2021-02-17T09:27:16Z</time>
      </trkpt>
      <trkpt lat="45.28618" lon="6.15277">
        <ele>2173.7</ele>
        <time>2021-02-17T09:27:17Z</time>
      </trkpt>
      <trkpt lat="45.28618" lon="6.15276">
        <ele>2173.7</ele>
        <time>2021-02-17T09:27:18Z</time>
      </trkpt>
      <trkpt lat="45.28618" lon="6.15276">
        <ele>2173.7</ele>
        <time>2021-02-17T09:27:19Z</time>
      </trkpt>
      <trkpt lat="45.28618" lon="6.15275">
        <ele>2173.7</ele>
        <time>2021-02-17T09:27:20Z</time>
      </trkpt>
      <trkpt lat="45.28618" lon="6.15276">
        <ele>2173.7</ele>
        <time>2021-02-17T09:27:21Z</time>
      </trkpt>
      <trkpt lat="45.28618" lon="6.15276">
        <ele>2174.3</ele>
        <time>2021-02-17T09:27:22Z</time>
      </trkpt>
      <trkpt lat="45.28618" lon="6.15276">
        <ele>2174.3</ele>
        <time>2021-02-17T09:27:23Z</time>
      </trkpt>
      <trkpt lat="45.28618" lon="6.15276">
        <ele>2174.3</ele>
        <time>2021-02-17T09:27:24Z</time>
      </trkpt>
      <trkpt lat="45.28618" lon="6.15276">
        <ele>2174.3</ele>
        <time>2021-02-17T09:27:25Z</time>
      </trkpt>
      <trkpt lat="45.2862" lon="6.15277">
        <ele>2174.3</ele>
        <time>2021-02-17T09:39:32Z</time>
      </trkpt>
      <trkpt lat="45.2862" lon="6.15275">
        <ele>2174.3</ele>
        <time>2021-02-17T09:39:33Z</time>
      </trkpt>
      <trkpt lat="45.28621" lon="6.15273">
        <ele>2174.3</ele>
        <time>2021-02-17T09:39:34Z</time>
      </trkpt>
      <trkpt lat="45.28622" lon="6.15272">
        <ele>2175.5</ele>
        <time>2021-02-17T09:39:35Z</time>
      </trkpt>
      <trkpt lat="45.28622" lon="6.15271">
        <ele>2175.5</ele>
        <time>2021-02-17T09:39:36Z</time>
      </trkpt>
      <trkpt lat="45.28623" lon="6.1527">
        <ele>2175.5</ele>
        <time>2021-02-17T09:39:37Z</time>
      </trkpt>
      <trkpt lat="45.28624" lon="6.15268">
        <ele>2176.2</ele>
        <time>2021-02-17T09:39:38Z</time>
      </trkpt>
      <trkpt lat="45.28624" lon="6.15267">
        <ele>2176.6</ele>
        <time>2021-02-17T09:39:39Z</time>
      </trkpt>
      <trkpt lat="45.28626" lon="6.15265">
        <ele>2176.6</ele>
        <time>2021-02-17T09:39:40Z</time>
      </trkpt>
      <trkpt lat="45.28626" lon="6.15264">
        <ele>2177.3</ele>
        <time>2021-02-17T09:39:41Z</time>
      </trkpt>
      <trkpt lat="45.28627" lon="6.15263">
        <ele>2177.3</ele>
        <time>2021-02-17T09:39:42Z</time>
      </trkpt>
      <trkpt lat="45.28628" lon="6.15263">
        <ele>2177.7</ele>
        <time>2021-02-17T09:39:43Z</time>
      </trkpt>
      <trkpt lat="45.28628" lon="6.15262">
        <ele>2177.7</ele>
        <time>2021-02-17T09:39:44Z</time>
      </trkpt>
      <trkpt lat="45.28629" lon="6.15262">
        <ele>2177.7</ele>
        <time>2021-02-17T09:39:45Z</time>
      </trkpt>
      <trkpt lat="45.2863" lon="6.15262">
        <ele>2178.1</ele>
        <time>2021-02-17T09:39:46Z</time>
      </trkpt>
      <trkpt lat="45.28631" lon="6.15262">
        <ele>2178.1</ele>
        <time>2021-02-17T09:39:47Z</time>
      </trkpt>
      <trkpt lat="45.28632" lon="6.15262">
        <ele>2178.1</ele>
        <time>2021-02-17T09:39:48Z</time>
      </trkpt>
      <trkpt lat="45.28633" lon="6.15262">
        <ele>2178.1</ele>
        <time>2021-02-17T09:39:49Z</time>
      </trkpt>
      <trkpt lat="45.28634" lon="6.15261">
        <ele>2178.5</ele>
        <time>2021-02-17T09:39:50Z</time>
      </trkpt>
      <trkpt lat="45.28635" lon="6.15261">
        <ele>2178.5</ele>
        <time>2021-02-17T09:39:51Z</time>
      </trkpt>
      <trkpt lat="45.28635" lon="6.15261">
        <ele>2178.5</ele>
        <time>2021-02-17T09:39:52Z</time>
      </trkpt>
      <trkpt lat="45.28636" lon="6.15261">
        <ele>2178.5</ele>
        <time>2021-02-17T09:39:53Z</time>
      </trkpt>
      <trkpt lat="45.28636" lon="6.15261">
        <ele>2179</ele>
        <time>2021-02-17T09:39:54Z</time>
      </trkpt>
      <trkpt lat="45.28637" lon="6.15262">
        <ele>2179</ele>
        <time>2021-02-17T09:39:55Z</time>
      </trkpt>
      <trkpt lat="45.28637" lon="6.15262">
        <ele>2179</ele>
        <time>2021-02-17T09:39:56Z</time>
      </trkpt>
      <trkpt lat="45.28637" lon="6.15262">
        <ele>2179</ele>
        <time>2021-02-17T09:39:57Z</time>
      </trkpt>
      <trkpt lat="45.28638" lon="6.15262">
        <ele>2179</ele>
        <time>2021-02-17T09:39:58Z</time>
      </trkpt>
      <trkpt lat="45.28639" lon="6.15263">
        <ele>2179</ele>
        <time>2021-02-17T09:39:59Z</time>
      </trkpt>
      <trkpt lat="45.2864" lon="6.15263">
        <ele>2179.4</ele>
        <time>2021-02-17T09:40:00Z</time>
      </trkpt>
      <trkpt lat="45.2864" lon="6.15263">
        <ele>2179.4</ele>
        <time>2021-02-17T09:40:01Z</time>
      </trkpt>
      <trkpt lat="45.28641" lon="6.15262">
        <ele>2179.4</ele>
        <time>2021-02-17T09:40:02Z</time>
      </trkpt>
      <trkpt lat="45.28642" lon="6.15262">
        <ele>2179.4</ele>
        <time>2021-02-17T09:40:03Z</time>
      </trkpt>
      <trkpt lat="45.28642" lon="6.15262">
        <ele>2179.7</ele>
        <time>2021-02-17T09:40:04Z</time>
      </trkpt>
      <trkpt lat="45.28643" lon="6.15261">
        <ele>2179.7</ele>
        <time>2021-02-17T09:40:05Z</time>
      </trkpt>
      <trkpt lat="45.28644" lon="6.15261">
        <ele>2179.7</ele>
        <time>2021-02-17T09:40:06Z</time>
      </trkpt>
      <trkpt lat="45.28645" lon="6.1526">
        <ele>2179.7</ele>
        <time>2021-02-17T09:40:07Z</time>
      </trkpt>
      <trkpt lat="45.28646" lon="6.1526">
        <ele>2180.8</ele>
        <time>2021-02-17T09:40:08Z</time>
      </trkpt>
      <trkpt lat="45.28646" lon="6.1526">
        <ele>2180.8</ele>
        <time>2021-02-17T09:40:09Z</time>
      </trkpt>
      <trkpt lat="45.28646" lon="6.1526">
        <ele>2180.8</ele>
        <time>2021-02-17T09:40:10Z</time>
      </trkpt>
      <trkpt lat="45.28646" lon="6.1526">
        <ele>2180.8</ele>
        <time>2021-02-17T09:40:11Z</time>
      </trkpt>
      <trkpt lat="45.28646" lon="6.1526">
        <ele>2180.8</ele>
        <time>2021-02-17T09:40:12Z</time>
      </trkpt>
      <trkpt lat="45.28647" lon="6.15261">
        <ele>2180</ele>
        <time>2021-02-17T09:40:13Z</time>
      </trkpt>
      <trkpt lat="45.28647" lon="6.1526">
        <ele>2180</ele>
        <time>2021-02-17T09:40:14Z</time>
      </trkpt>
      <trkpt lat="45.28648" lon="6.1526">
        <ele>2180.8</ele>
        <time>2021-02-17T09:40:15Z</time>
      </trkpt>
      <trkpt lat="45.28649" lon="6.15259">
        <ele>2181.1</ele>
        <time>2021-02-17T09:40:16Z</time>
      </trkpt>
      <trkpt lat="45.28649" lon="6.15258">
        <ele>2181.1</ele>
        <time>2021-02-17T09:40:17Z</time>
      </trkpt>
      <trkpt lat="45.2865" lon="6.15257">
        <ele>2181.1</ele>
        <time>2021-02-17T09:40:18Z</time>
      </trkpt>
      <trkpt lat="45.2865" lon="6.15256">
        <ele>2181.9</ele>
        <time>2021-02-17T09:40:19Z</time>
      </trkpt>
      <trkpt lat="45.2865" lon="6.15255">
        <ele>2181.9</ele>
        <time>2021-02-17T09:40:20Z</time>
      </trkpt>
      <trkpt lat="45.2865" lon="6.15253">
        <ele>2181.9</ele>
        <time>2021-02-17T09:40:21Z</time>
      </trkpt>
      <trkpt lat="45.28651" lon="6.15252">
        <ele>2181.9</ele>
        <time>2021-02-17T09:40:22Z</time>
      </trkpt>
      <trkpt lat="45.28651" lon="6.15251">
        <ele>2182.8</ele>
        <time>2021-02-17T09:40:23Z</time>
      </trkpt>
      <trkpt lat="45.28651" lon="6.1525">
        <ele>2182.8</ele>
        <time>2021-02-17T09:40:24Z</time>
      </trkpt>
      <trkpt lat="45.28652" lon="6.15248">
        <ele>2183.2</ele>
        <time>2021-02-17T09:40:25Z</time>
      </trkpt>
      <trkpt lat="45.28652" lon="6.15247">
        <ele>2184.1</ele>
        <time>2021-02-17T09:40:26Z</time>
      </trkpt>
      <trkpt lat="45.28653" lon="6.15244">
        <ele>2184.1</ele>
        <time>2021-02-17T09:40:27Z</time>
      </trkpt>
      <trkpt lat="45.28653" lon="6.15243">
        <ele>2184.1</ele>
        <time>2021-02-17T09:40:28Z</time>
      </trkpt>
      <trkpt lat="45.28654" lon="6.15242">
        <ele>2185.1</ele>
        <time>2021-02-17T09:40:29Z</time>
      </trkpt>
      <trkpt lat="45.28654" lon="6.1524">
        <ele>2185.1</ele>
        <time>2021-02-17T09:40:30Z</time>
      </trkpt>
      <trkpt lat="45.28654" lon="6.15239">
        <ele>2185.4</ele>
        <time>2021-02-17T09:40:31Z</time>
      </trkpt>
      <trkpt lat="45.28655" lon="6.15238">
        <ele>2186.4</ele>
        <time>2021-02-17T09:40:32Z</time>
      </trkpt>
      <trkpt lat="45.28656" lon="6.15236">
        <ele>2186.4</ele>
        <time>2021-02-17T09:40:33Z</time>
      </trkpt>
      <trkpt lat="45.28656" lon="6.15235">
        <ele>2186.4</ele>
        <time>2021-02-17T09:40:34Z</time>
      </trkpt>
      <trkpt lat="45.28657" lon="6.15234">
        <ele>2187.8</ele>
        <time>2021-02-17T09:40:35Z</time>
      </trkpt>
      <trkpt lat="45.28658" lon="6.15231">
        <ele>2188.2</ele>
        <time>2021-02-17T09:40:36Z</time>
      </trkpt>
      <trkpt lat="45.28658" lon="6.1523">
        <ele>2189.2</ele>
        <time>2021-02-17T09:40:37Z</time>
      </trkpt>
      <trkpt lat="45.28659" lon="6.15228">
        <ele>2189.2</ele>
        <time>2021-02-17T09:40:38Z</time>
      </trkpt>
      <trkpt lat="45.28659" lon="6.15227">
        <ele>2189.2</ele>
        <time>2021-02-17T09:40:39Z</time>
      </trkpt>
      <trkpt lat="45.28659" lon="6.15226">
        <ele>2189.2</ele>
        <time>2021-02-17T09:40:40Z</time>
      </trkpt>
      <trkpt lat="45.2866" lon="6.15226">
        <ele>2190.2</ele>
        <time>2021-02-17T09:40:41Z</time>
      </trkpt>
      <trkpt lat="45.2866" lon="6.15225">
        <ele>2190.6</ele>
        <time>2021-02-17T09:40:42Z</time>
      </trkpt>
      <trkpt lat="45.28661" lon="6.15225">
        <ele>2190.6</ele>
        <time>2021-02-17T09:40:43Z</time>
      </trkpt>
      <trkpt lat="45.28661" lon="6.15225">
        <ele>2190.6</ele>
        <time>2021-02-17T09:40:44Z</time>
      </trkpt>
      <trkpt lat="45.28662" lon="6.15225">
        <ele>2190.6</ele>
        <time>2021-02-17T09:40:45Z</time>
      </trkpt>
      <trkpt lat="45.28663" lon="6.15225">
        <ele>2190.6</ele>
        <time>2021-02-17T09:40:46Z</time>
      </trkpt>
      <trkpt lat="45.28663" lon="6.15224">
        <ele>2191</ele>
        <time>2021-02-17T09:40:47Z</time>
      </trkpt>
      <trkpt lat="45.28664" lon="6.15224">
        <ele>2191</ele>
        <time>2021-02-17T09:40:48Z</time>
      </trkpt>
      <trkpt lat="45.28665" lon="6.15224">
        <ele>2191</ele>
        <time>2021-02-17T09:40:49Z</time>
      </trkpt>
      <trkpt lat="45.28666" lon="6.15223">
        <ele>2191</ele>
        <time>2021-02-17T09:40:50Z</time>
      </trkpt>
      <trkpt lat="45.28667" lon="6.15223">
        <ele>2191.4</ele>
        <time>2021-02-17T09:40:51Z</time>
      </trkpt>
      <trkpt lat="45.28668" lon="6.15223">
        <ele>2191.4</ele>
        <time>2021-02-17T09:40:52Z</time>
      </trkpt>
      <trkpt lat="45.28668" lon="6.15223">
        <ele>2191.4</ele>
        <time>2021-02-17T09:40:53Z</time>
      </trkpt>
      <trkpt lat="45.28669" lon="6.15223">
        <ele>2191.4</ele>
        <time>2021-02-17T09:40:54Z</time>
      </trkpt>
      <trkpt lat="45.2867" lon="6.15222">
        <ele>2191.7</ele>
        <time>2021-02-17T09:40:55Z</time>
      </trkpt>
      <trkpt lat="45.28671" lon="6.15222">
        <ele>2192.7</ele>
        <time>2021-02-17T09:40:56Z</time>
      </trkpt>
      <trkpt lat="45.28672" lon="6.15221">
        <ele>2192.7</ele>
        <time>2021-02-17T09:40:57Z</time>
      </trkpt>
      <trkpt lat="45.28673" lon="6.1522">
        <ele>2193</ele>
        <time>2021-02-17T09:40:58Z</time>
      </trkpt>
      <trkpt lat="45.28674" lon="6.15219">
        <ele>2193</ele>
        <time>2021-02-17T09:40:59Z</time>
      </trkpt>
      <trkpt lat="45.28674" lon="6.15218">
        <ele>2193</ele>
        <time>2021-02-17T09:41:00Z</time>
      </trkpt>
      <trkpt lat="45.28675" lon="6.15218">
        <ele>2193</ele>
        <time>2021-02-17T09:41:01Z</time>
      </trkpt>
      <trkpt lat="45.28676" lon="6.15217">
        <ele>2194.3</ele>
        <time>2021-02-17T09:41:02Z</time>
      </trkpt>
      <trkpt lat="45.28677" lon="6.15216">
        <ele>2194.3</ele>
        <time>2021-02-17T09:41:03Z</time>
      </trkpt>
      <trkpt lat="45.28677" lon="6.15216">
        <ele>2194.3</ele>
        <time>2021-02-17T09:41:04Z</time>
      </trkpt>
      <trkpt lat="45.28678" lon="6.15215">
        <ele>2194.3</ele>
        <time>2021-02-17T09:41:05Z</time>
      </trkpt>
      <trkpt lat="45.28678" lon="6.15214">
        <ele>2194.3</ele>
        <time>2021-02-17T09:41:06Z</time>
      </trkpt>
      <trkpt lat="45.28679" lon="6.15213">
        <ele>2194.5</ele>
        <time>2021-02-17T09:41:07Z</time>
      </trkpt>
      <trkpt lat="45.28679" lon="6.15212">
        <ele>2195.4</ele>
        <time>2021-02-17T09:41:08Z</time>
      </trkpt>
      <trkpt lat="45.2868" lon="6.15212">
        <ele>2195.4</ele>
        <time>2021-02-17T09:41:09Z</time>
      </trkpt>
      <trkpt lat="45.2868" lon="6.15211">
        <ele>2195.4</ele>
        <time>2021-02-17T09:41:10Z</time>
      </trkpt>
      <trkpt lat="45.2868" lon="6.1521">
        <ele>2195.4</ele>
        <time>2021-02-17T09:41:11Z</time>
      </trkpt>
      <trkpt lat="45.28681" lon="6.15209">
        <ele>2196.4</ele>
        <time>2021-02-17T09:41:12Z</time>
      </trkpt>
      <trkpt lat="45.28681" lon="6.15208">
        <ele>2196.4</ele>
        <time>2021-02-17T09:41:13Z</time>
      </trkpt>
      <trkpt lat="45.28681" lon="6.15206">
        <ele>2196.4</ele>
        <time>2021-02-17T09:41:14Z</time>
      </trkpt>
      <trkpt lat="45.28681" lon="6.15205">
        <ele>2196.4</ele>
        <time>2021-02-17T09:41:15Z</time>
      </trkpt>
      <trkpt lat="45.28682" lon="6.15204">
        <ele>2197.5</ele>
        <time>2021-02-17T09:41:16Z</time>
      </trkpt>
      <trkpt lat="45.28682" lon="6.15203">
        <ele>2197.5</ele>
        <time>2021-02-17T09:41:17Z</time>
      </trkpt>
      <trkpt lat="45.28682" lon="6.15202">
        <ele>2197.5</ele>
        <time>2021-02-17T09:41:18Z</time>
      </trkpt>
      <trkpt lat="45.28682" lon="6.15201">
        <ele>2197.5</ele>
        <time>2021-02-17T09:41:19Z</time>
      </trkpt>
      <trkpt lat="45.28682" lon="6.152">
        <ele>2197.5</ele>
        <time>2021-02-17T09:41:20Z</time>
      </trkpt>
      <trkpt lat="45.28682" lon="6.15199">
        <ele>2198.3</ele>
        <time>2021-02-17T09:41:21Z</time>
      </trkpt>
      <trkpt lat="45.28683" lon="6.15198">
        <ele>2198.3</ele>
        <time>2021-02-17T09:41:22Z</time>
      </trkpt>
      <trkpt lat="45.28683" lon="6.15197">
        <ele>2198.3</ele>
        <time>2021-02-17T09:41:23Z</time>
      </trkpt>
      <trkpt lat="45.28683" lon="6.15196">
        <ele>2199.1</ele>
        <time>2021-02-17T09:41:24Z</time>
      </trkpt>
      <trkpt lat="45.28683" lon="6.15195">
        <ele>2199.1</ele>
        <time>2021-02-17T09:41:25Z</time>
      </trkpt>
      <trkpt lat="45.28683" lon="6.15194">
        <ele>2199.1</ele>
        <time>2021-02-17T09:41:26Z</time>
      </trkpt>
      <trkpt lat="45.28683" lon="6.15193">
        <ele>2199.1</ele>
        <time>2021-02-17T09:41:27Z</time>
      </trkpt>
      <trkpt lat="45.28683" lon="6.15192">
        <ele>2199.1</ele>
        <time>2021-02-17T09:41:28Z</time>
      </trkpt>
      <trkpt lat="45.28683" lon="6.15191">
        <ele>2199.9</ele>
        <time>2021-02-17T09:41:29Z</time>
      </trkpt>
      <trkpt lat="45.28682" lon="6.1519">
        <ele>2199.9</ele>
        <time>2021-02-17T09:41:30Z</time>
      </trkpt>
      <trkpt lat="45.28682" lon="6.15189">
        <ele>2199.9</ele>
        <time>2021-02-17T09:41:31Z</time>
      </trkpt>
      <trkpt lat="45.28682" lon="6.15188">
        <ele>2199.9</ele>
        <time>2021-02-17T09:41:32Z</time>
      </trkpt>
      <trkpt lat="45.28682" lon="6.15187">
        <ele>2200.7</ele>
        <time>2021-02-17T09:41:33Z</time>
      </trkpt>
      <trkpt lat="45.28682" lon="6.15186">
        <ele>2200.7</ele>
        <time>2021-02-17T09:41:34Z</time>
      </trkpt>
      <trkpt lat="45.28681" lon="6.15185">
        <ele>2200.5</ele>
        <time>2021-02-17T09:41:35Z</time>
      </trkpt>
      <trkpt lat="45.28682" lon="6.15184">
        <ele>2200.7</ele>
        <time>2021-02-17T09:41:36Z</time>
      </trkpt>
      <trkpt lat="45.28682" lon="6.15183">
        <ele>2200.7</ele>
        <time>2021-02-17T09:41:37Z</time>
      </trkpt>
      <trkpt lat="45.28682" lon="6.15183">
        <ele>2201.5</ele>
        <time>2021-02-17T09:41:38Z</time>
      </trkpt>
      <trkpt lat="45.28682" lon="6.15182">
        <ele>2201.5</ele>
        <time>2021-02-17T09:41:39Z</time>
      </trkpt>
      <trkpt lat="45.28682" lon="6.15181">
        <ele>2201.5</ele>
        <time>2021-02-17T09:41:40Z</time>
      </trkpt>
      <trkpt lat="45.28683" lon="6.15179">
        <ele>2201.5</ele>
        <time>2021-02-17T09:41:41Z</time>
      </trkpt>
      <trkpt lat="45.28683" lon="6.15178">
        <ele>2202.3</ele>
        <time>2021-02-17T09:41:42Z</time>
      </trkpt>
      <trkpt lat="45.28683" lon="6.15177">
        <ele>2202.3</ele>
        <time>2021-02-17T09:41:43Z</time>
      </trkpt>
      <trkpt lat="45.28684" lon="6.15176">
        <ele>2202.3</ele>
        <time>2021-02-17T09:41:44Z</time>
      </trkpt>
      <trkpt lat="45.28684" lon="6.15175">
        <ele>2202.3</ele>
        <time>2021-02-17T09:41:45Z</time>
      </trkpt>
      <trkpt lat="45.28684" lon="6.15175">
        <ele>2202.3</ele>
        <time>2021-02-17T09:41:46Z</time>
      </trkpt>
      <trkpt lat="45.28684" lon="6.15173">
        <ele>2203.2</ele>
        <time>2021-02-17T09:41:47Z</time>
      </trkpt>
      <trkpt lat="45.28684" lon="6.15172">
        <ele>2203.2</ele>
        <time>2021-02-17T09:41:48Z</time>
      </trkpt>
      <trkpt lat="45.28685" lon="6.15171">
        <ele>2203.4</ele>
        <time>2021-02-17T09:41:49Z</time>
      </trkpt>
      <trkpt lat="45.28685" lon="6.1517">
        <ele>2204.3</ele>
        <time>2021-02-17T09:41:50Z</time>
      </trkpt>
      <trkpt lat="45.28685" lon="6.15169">
        <ele>2204.3</ele>
        <time>2021-02-17T09:41:51Z</time>
      </trkpt>
      <trkpt lat="45.28686" lon="6.15168">
        <ele>2204.3</ele>
        <time>2021-02-17T09:41:52Z</time>
      </trkpt>
      <trkpt lat="45.28687" lon="6.15167">
        <ele>2204.3</ele>
        <time>2021-02-17T09:41:53Z</time>
      </trkpt>
      <trkpt lat="45.28687" lon="6.15165">
        <ele>2205.3</ele>
        <time>2021-02-17T09:41:54Z</time>
      </trkpt>
      <trkpt lat="45.28687" lon="6.15164">
        <ele>2205.3</ele>
        <time>2021-02-17T09:41:55Z</time>
      </trkpt>
      <trkpt lat="45.28688" lon="6.15163">
        <ele>2205.6</ele>
        <time>2021-02-17T09:41:56Z</time>
      </trkpt>
      <trkpt lat="45.28688" lon="6.15162">
        <ele>2205.6</ele>
        <time>2021-02-17T09:41:57Z</time>
      </trkpt>
      <trkpt lat="45.28688" lon="6.15161">
        <ele>2206.6</ele>
        <time>2021-02-17T09:41:58Z</time>
      </trkpt>
      <trkpt lat="45.28689" lon="6.15159">
        <ele>2206.6</ele>
        <time>2021-02-17T09:41:59Z</time>
      </trkpt>
      <trkpt lat="45.28689" lon="6.15158">
        <ele>2206.6</ele>
        <time>2021-02-17T09:42:00Z</time>
      </trkpt>
      <trkpt lat="45.28689" lon="6.15157">
        <ele>2207.5</ele>
        <time>2021-02-17T09:42:01Z</time>
      </trkpt>
      <trkpt lat="45.28689" lon="6.15156">
        <ele>2207.5</ele>
        <time>2021-02-17T09:42:02Z</time>
      </trkpt>
      <trkpt lat="45.28689" lon="6.15155">
        <ele>2207.5</ele>
        <time>2021-02-17T09:42:03Z</time>
      </trkpt>
      <trkpt lat="45.2869" lon="6.15154">
        <ele>2207.5</ele>
        <time>2021-02-17T09:42:04Z</time>
      </trkpt>
      <trkpt lat="45.2869" lon="6.15152">
        <ele>2208.4</ele>
        <time>2021-02-17T09:42:05Z</time>
      </trkpt>
      <trkpt lat="45.28691" lon="6.1515">
        <ele>2208.8</ele>
        <time>2021-02-17T09:42:06Z</time>
      </trkpt>
      <trkpt lat="45.28691" lon="6.15148">
        <ele>2209.7</ele>
        <time>2021-02-17T09:42:07Z</time>
      </trkpt>
      <trkpt lat="45.28692" lon="6.15146">
        <ele>2209.7</ele>
        <time>2021-02-17T09:42:08Z</time>
      </trkpt>
      <trkpt lat="45.28692" lon="6.15145">
        <ele>2209.7</ele>
        <time>2021-02-17T09:42:09Z</time>
      </trkpt>
      <trkpt lat="45.28692" lon="6.15144">
        <ele>2210.6</ele>
        <time>2021-02-17T09:42:10Z</time>
      </trkpt>
      <trkpt lat="45.28692" lon="6.15142">
        <ele>2210.6</ele>
        <time>2021-02-17T09:42:11Z</time>
      </trkpt>
      <trkpt lat="45.28693" lon="6.15142">
        <ele>2210.6</ele>
        <time>2021-02-17T09:42:12Z</time>
      </trkpt>
      <trkpt lat="45.28693" lon="6.15141">
        <ele>2210.6</ele>
        <time>2021-02-17T09:42:13Z</time>
      </trkpt>
      <trkpt lat="45.28693" lon="6.1514">
        <ele>2210.6</ele>
        <time>2021-02-17T09:42:14Z</time>
      </trkpt>
      <trkpt lat="45.28694" lon="6.1514">
        <ele>2211.9</ele>
        <time>2021-02-17T09:42:15Z</time>
      </trkpt>
      <trkpt lat="45.28694" lon="6.15139">
        <ele>2211.9</ele>
        <time>2021-02-17T09:42:16Z</time>
      </trkpt>
      <trkpt lat="45.28694" lon="6.15138">
        <ele>2211.9</ele>
        <time>2021-02-17T09:42:17Z</time>
      </trkpt>
      <trkpt lat="45.28694" lon="6.15136">
        <ele>2211.9</ele>
        <time>2021-02-17T09:42:18Z</time>
      </trkpt>
      <trkpt lat="45.28694" lon="6.15135">
        <ele>2212.8</ele>
        <time>2021-02-17T09:42:19Z</time>
      </trkpt>
      <trkpt lat="45.28695" lon="6.15134">
        <ele>2212.8</ele>
        <time>2021-02-17T09:42:20Z</time>
      </trkpt>
      <trkpt lat="45.28695" lon="6.15133">
        <ele>2212.8</ele>
        <time>2021-02-17T09:42:21Z</time>
      </trkpt>
      <trkpt lat="45.28695" lon="6.15131">
        <ele>2213.7</ele>
        <time>2021-02-17T09:42:22Z</time>
      </trkpt>
      <trkpt lat="45.28696" lon="6.1513">
        <ele>2213.7</ele>
        <time>2021-02-17T09:42:23Z</time>
      </trkpt>
      <trkpt lat="45.28696" lon="6.15129">
        <ele>2213.7</ele>
        <time>2021-02-17T09:42:24Z</time>
      </trkpt>
      <trkpt lat="45.28697" lon="6.15128">
        <ele>2214.2</ele>
        <time>2021-02-17T09:42:25Z</time>
      </trkpt>
      <trkpt lat="45.28697" lon="6.15128">
        <ele>2214.2</ele>
        <time>2021-02-17T09:42:26Z</time>
      </trkpt>
      <trkpt lat="45.28697" lon="6.15127">
        <ele>2215.2</ele>
        <time>2021-02-17T09:42:27Z</time>
      </trkpt>
      <trkpt lat="45.28697" lon="6.15126">
        <ele>2215.2</ele>
        <time>2021-02-17T09:42:28Z</time>
      </trkpt>
      <trkpt lat="45.28697" lon="6.15125">
        <ele>2215.2</ele>
        <time>2021-02-17T09:42:29Z</time>
      </trkpt>
      <trkpt lat="45.28697" lon="6.15124">
        <ele>2215.2</ele>
        <time>2021-02-17T09:42:30Z</time>
      </trkpt>
      <trkpt lat="45.28697" lon="6.15124">
        <ele>2214.7</ele>
        <time>2021-02-17T09:42:31Z</time>
      </trkpt>
      <trkpt lat="45.28696" lon="6.15124">
        <ele>2214.7</ele>
        <time>2021-02-17T09:42:32Z</time>
      </trkpt>
      <trkpt lat="45.28696" lon="6.15123">
        <ele>2214.7</ele>
        <time>2021-02-17T09:42:33Z</time>
      </trkpt>
      <trkpt lat="45.28696" lon="6.15123">
        <ele>2214.7</ele>
        <time>2021-02-17T09:42:34Z</time>
      </trkpt>
      <trkpt lat="45.28696" lon="6.15123">
        <ele>2214.7</ele>
        <time>2021-02-17T09:42:35Z</time>
      </trkpt>
      <trkpt lat="45.28696" lon="6.15124">
        <ele>2214.7</ele>
        <time>2021-02-17T09:42:36Z</time>
      </trkpt>
      <trkpt lat="45.28696" lon="6.15123">
        <ele>2214.7</ele>
        <time>2021-02-17T09:42:37Z</time>
      </trkpt>
      <trkpt lat="45.28696" lon="6.15123">
        <ele>2215.8</ele>
        <time>2021-02-17T09:42:38Z</time>
      </trkpt>
      <trkpt lat="45.28696" lon="6.15122">
        <ele>2215.8</ele>
        <time>2021-02-17T09:42:39Z</time>
      </trkpt>
      <trkpt lat="45.28696" lon="6.15121">
        <ele>2215.8</ele>
        <time>2021-02-17T09:42:40Z</time>
      </trkpt>
      <trkpt lat="45.28696" lon="6.1512">
        <ele>2215.8</ele>
        <time>2021-02-17T09:42:41Z</time>
      </trkpt>
      <trkpt lat="45.28695" lon="6.15119">
        <ele>2215.8</ele>
        <time>2021-02-17T09:42:42Z</time>
      </trkpt>
      <trkpt lat="45.28695" lon="6.15117">
        <ele>2216.9</ele>
        <time>2021-02-17T09:42:43Z</time>
      </trkpt>
      <trkpt lat="45.28695" lon="6.15116">
        <ele>2216.9</ele>
        <time>2021-02-17T09:42:44Z</time>
      </trkpt>
      <trkpt lat="45.28695" lon="6.15116">
        <ele>2216.9</ele>
        <time>2021-02-17T09:42:45Z</time>
      </trkpt>
      <trkpt lat="45.28695" lon="6.15116">
        <ele>2216.9</ele>
        <time>2021-02-17T09:42:46Z</time>
      </trkpt>
      <trkpt lat="45.28695" lon="6.15115">
        <ele>2216.9</ele>
        <time>2021-02-17T09:42:47Z</time>
      </trkpt>
      <trkpt lat="45.28695" lon="6.15114">
        <ele>2218</ele>
        <time>2021-02-17T09:42:48Z</time>
      </trkpt>
      <trkpt lat="45.28694" lon="6.15113">
        <ele>2218</ele>
        <time>2021-02-17T09:42:49Z</time>
      </trkpt>
      <trkpt lat="45.28694" lon="6.15112">
        <ele>2218</ele>
        <time>2021-02-17T09:42:50Z</time>
      </trkpt>
      <trkpt lat="45.28694" lon="6.15111">
        <ele>2218</ele>
        <time>2021-02-17T09:42:51Z</time>
      </trkpt>
      <trkpt lat="45.28694" lon="6.15111">
        <ele>2218</ele>
        <time>2021-02-17T09:42:52Z</time>
      </trkpt>
      <trkpt lat="45.28693" lon="6.1511">
        <ele>2218.6</ele>
        <time>2021-02-17T09:42:53Z</time>
      </trkpt>
      <trkpt lat="45.28693" lon="6.15109">
        <ele>2218.6</ele>
        <time>2021-02-17T09:42:54Z</time>
      </trkpt>
      <trkpt lat="45.28693" lon="6.15108">
        <ele>2218.6</ele>
        <time>2021-02-17T09:42:55Z</time>
      </trkpt>
      <trkpt lat="45.28693" lon="6.15106">
        <ele>2218.6</ele>
        <time>2021-02-17T09:42:56Z</time>
      </trkpt>
      <trkpt lat="45.28693" lon="6.15105">
        <ele>2219.6</ele>
        <time>2021-02-17T09:42:57Z</time>
      </trkpt>
      <trkpt lat="45.28692" lon="6.15104">
        <ele>2219.6</ele>
        <time>2021-02-17T09:42:58Z</time>
      </trkpt>
      <trkpt lat="45.28692" lon="6.15103">
        <ele>2219.6</ele>
        <time>2021-02-17T09:42:59Z</time>
      </trkpt>
      <trkpt lat="45.28692" lon="6.15102">
        <ele>2219.6</ele>
        <time>2021-02-17T09:43:00Z</time>
      </trkpt>
      <trkpt lat="45.28692" lon="6.15101">
        <ele>2220.6</ele>
        <time>2021-02-17T09:43:01Z</time>
      </trkpt>
      <trkpt lat="45.28692" lon="6.151">
        <ele>2220.6</ele>
        <time>2021-02-17T09:43:02Z</time>
      </trkpt>
      <trkpt lat="45.28692" lon="6.15099">
        <ele>2220.6</ele>
        <time>2021-02-17T09:43:03Z</time>
      </trkpt>
      <trkpt lat="45.28692" lon="6.15099">
        <ele>2220.6</ele>
        <time>2021-02-17T09:43:04Z</time>
      </trkpt>
      <trkpt lat="45.28692" lon="6.15099">
        <ele>2220.6</ele>
        <time>2021-02-17T09:43:05Z</time>
      </trkpt>
      <trkpt lat="45.28692" lon="6.15099">
        <ele>2220.6</ele>
        <time>2021-02-17T09:43:06Z</time>
      </trkpt>
      <trkpt lat="45.28691" lon="6.15098">
        <ele>2220.6</ele>
        <time>2021-02-17T09:43:07Z</time>
      </trkpt>
      <trkpt lat="45.28691" lon="6.15097">
        <ele>2220.6</ele>
        <time>2021-02-17T09:43:08Z</time>
      </trkpt>
      <trkpt lat="45.28691" lon="6.15096">
        <ele>2221.6</ele>
        <time>2021-02-17T09:43:09Z</time>
      </trkpt>
      <trkpt lat="45.28691" lon="6.15096">
        <ele>2221.6</ele>
        <time>2021-02-17T09:43:10Z</time>
      </trkpt>
      <trkpt lat="45.28691" lon="6.15096">
        <ele>2221.6</ele>
        <time>2021-02-17T09:43:11Z</time>
      </trkpt>
      <trkpt lat="45.28692" lon="6.15088">
        <ele>2223.9</ele>
        <time>2021-02-17T09:43:47Z</time>
      </trkpt>
      <trkpt lat="45.28693" lon="6.15089">
        <ele>2222.7</ele>
        <time>2021-02-17T09:43:48Z</time>
      </trkpt>
      <trkpt lat="45.28694" lon="6.15089">
        <ele>2223.3</ele>
        <time>2021-02-17T09:43:49Z</time>
      </trkpt>
      <trkpt lat="45.28695" lon="6.15089">
        <ele>2223.3</ele>
        <time>2021-02-17T09:43:50Z</time>
      </trkpt>
      <trkpt lat="45.28695" lon="6.15088">
        <ele>2224.5</ele>
        <time>2021-02-17T09:43:51Z</time>
      </trkpt>
      <trkpt lat="45.28696" lon="6.15088">
        <ele>2224.5</ele>
        <time>2021-02-17T09:43:52Z</time>
      </trkpt>
      <trkpt lat="45.28696" lon="6.15088">
        <ele>2224.5</ele>
        <time>2021-02-17T09:43:53Z</time>
      </trkpt>
      <trkpt lat="45.28697" lon="6.15088">
        <ele>2225.2</ele>
        <time>2021-02-17T09:43:54Z</time>
      </trkpt>
      <trkpt lat="45.28698" lon="6.15088">
        <ele>2225.2</ele>
        <time>2021-02-17T09:43:55Z</time>
      </trkpt>
      <trkpt lat="45.28698" lon="6.15089">
        <ele>2223.9</ele>
        <time>2021-02-17T09:43:56Z</time>
      </trkpt>
      <trkpt lat="45.28699" lon="6.15089">
        <ele>2223.9</ele>
        <time>2021-02-17T09:43:57Z</time>
      </trkpt>
      <trkpt lat="45.287" lon="6.15089">
        <ele>2224.6</ele>
        <time>2021-02-17T09:43:58Z</time>
      </trkpt>
      <trkpt lat="45.28701" lon="6.15089">
        <ele>2224.6</ele>
        <time>2021-02-17T09:43:59Z</time>
      </trkpt>
      <trkpt lat="45.28702" lon="6.1509">
        <ele>2224.6</ele>
        <time>2021-02-17T09:44:00Z</time>
      </trkpt>
      <trkpt lat="45.28703" lon="6.1509">
        <ele>2225.3</ele>
        <time>2021-02-17T09:44:01Z</time>
      </trkpt>
      <trkpt lat="45.28704" lon="6.15091">
        <ele>2225.3</ele>
        <time>2021-02-17T09:44:02Z</time>
      </trkpt>
      <trkpt lat="45.28705" lon="6.15091">
        <ele>2225.3</ele>
        <time>2021-02-17T09:44:03Z</time>
      </trkpt>
      <trkpt lat="45.28706" lon="6.15092">
        <ele>2225.3</ele>
        <time>2021-02-17T09:44:04Z</time>
      </trkpt>
      <trkpt lat="45.28707" lon="6.15092">
        <ele>2225.8</ele>
        <time>2021-02-17T09:44:05Z</time>
      </trkpt>
      <trkpt lat="45.28708" lon="6.15092">
        <ele>2225.8</ele>
        <time>2021-02-17T09:44:06Z</time>
      </trkpt>
      <trkpt lat="45.28709" lon="6.15092">
        <ele>2226.4</ele>
        <time>2021-02-17T09:44:07Z</time>
      </trkpt>
      <trkpt lat="45.2871" lon="6.15093">
        <ele>2226.4</ele>
        <time>2021-02-17T09:44:08Z</time>
      </trkpt>
      <trkpt lat="45.28711" lon="6.15093">
        <ele>2226.5</ele>
        <time>2021-02-17T09:44:09Z</time>
      </trkpt>
      <trkpt lat="45.28711" lon="6.15093">
        <ele>2226.5</ele>
        <time>2021-02-17T09:44:10Z</time>
      </trkpt>
      <trkpt lat="45.28712" lon="6.15093">
        <ele>2226.5</ele>
        <time>2021-02-17T09:44:11Z</time>
      </trkpt>
      <trkpt lat="45.28712" lon="6.15093">
        <ele>2227.2</ele>
        <time>2021-02-17T09:44:12Z</time>
      </trkpt>
      <trkpt lat="45.28712" lon="6.15093">
        <ele>2227.2</ele>
        <time>2021-02-17T09:44:13Z</time>
      </trkpt>
      <trkpt lat="45.28712" lon="6.15093">
        <ele>2225.9</ele>
        <time>2021-02-17T09:44:14Z</time>
      </trkpt>
      <trkpt lat="45.28711" lon="6.15093">
        <ele>2225.3</ele>
        <time>2021-02-17T09:44:15Z</time>
      </trkpt>
      <trkpt lat="45.28711" lon="6.15094">
        <ele>2225.3</ele>
        <time>2021-02-17T09:44:16Z</time>
      </trkpt>
      <trkpt lat="45.28711" lon="6.15094">
        <ele>2225.3</ele>
        <time>2021-02-17T09:44:17Z</time>
      </trkpt>
      <trkpt lat="45.28712" lon="6.15094">
        <ele>2225.9</ele>
        <time>2021-02-17T09:44:18Z</time>
      </trkpt>
      <trkpt lat="45.28712" lon="6.15094">
        <ele>2225.9</ele>
        <time>2021-02-17T09:44:19Z</time>
      </trkpt>
      <trkpt lat="45.28726" lon="6.15083">
        <ele>2233.2</ele>
        <time>2021-02-17T09:45:06Z</time>
      </trkpt>
      <trkpt lat="45.28726" lon="6.15082">
        <ele>2233.2</ele>
        <time>2021-02-17T09:45:07Z</time>
      </trkpt>
      <trkpt lat="45.28725" lon="6.15081">
        <ele>2233.3</ele>
        <time>2021-02-17T09:45:08Z</time>
      </trkpt>
      <trkpt lat="45.28725" lon="6.1508">
        <ele>2233.3</ele>
        <time>2021-02-17T09:45:09Z</time>
      </trkpt>
      <trkpt lat="45.28725" lon="6.1508">
        <ele>2234.9</ele>
        <time>2021-02-17T09:45:10Z</time>
      </trkpt>
      <trkpt lat="45.28724" lon="6.15079">
        <ele>2234.9</ele>
        <time>2021-02-17T09:45:11Z</time>
      </trkpt>
      <trkpt lat="45.28724" lon="6.15078">
        <ele>2235</ele>
        <time>2021-02-17T09:45:12Z</time>
      </trkpt>
      <trkpt lat="45.28724" lon="6.15077">
        <ele>2235</ele>
        <time>2021-02-17T09:45:13Z</time>
      </trkpt>
      <trkpt lat="45.28723" lon="6.15076">
        <ele>2234.1</ele>
        <time>2021-02-17T09:45:14Z</time>
      </trkpt>
      <trkpt lat="45.28723" lon="6.15075">
        <ele>2235.8</ele>
        <time>2021-02-17T09:45:15Z</time>
      </trkpt>
      <trkpt lat="45.28723" lon="6.15075">
        <ele>2235.8</ele>
        <time>2021-02-17T09:45:16Z</time>
      </trkpt>
      <trkpt lat="45.28722" lon="6.15074">
        <ele>2235.8</ele>
        <time>2021-02-17T09:45:17Z</time>
      </trkpt>
      <trkpt lat="45.28722" lon="6.15073">
        <ele>2235.8</ele>
        <time>2021-02-17T09:45:18Z</time>
      </trkpt>
      <trkpt lat="45.28721" lon="6.15073">
        <ele>2235.8</ele>
        <time>2021-02-17T09:45:19Z</time>
      </trkpt>
      <trkpt lat="45.28721" lon="6.15072">
        <ele>2235.8</ele>
        <time>2021-02-17T09:45:20Z</time>
      </trkpt>
      <trkpt lat="45.28721" lon="6.15072">
        <ele>2234.9</ele>
        <time>2021-02-17T09:45:21Z</time>
      </trkpt>
      <trkpt lat="45.2872" lon="6.15071">
        <ele>2236.5</ele>
        <time>2021-02-17T09:45:22Z</time>
      </trkpt>
      <trkpt lat="45.2872" lon="6.15071">
        <ele>2236.5</ele>
        <time>2021-02-17T09:45:23Z</time>
      </trkpt>
      <trkpt lat="45.2872" lon="6.1507">
        <ele>2236.5</ele>
        <time>2021-02-17T09:45:24Z</time>
      </trkpt>
      <trkpt lat="45.28719" lon="6.1507">
        <ele>2236.5</ele>
        <time>2021-02-17T09:45:25Z</time>
      </trkpt>
      <trkpt lat="45.28719" lon="6.15069">
        <ele>2236.6</ele>
        <time>2021-02-17T09:45:26Z</time>
      </trkpt>
      <trkpt lat="45.28719" lon="6.15069">
        <ele>2236.6</ele>
        <time>2021-02-17T09:45:27Z</time>
      </trkpt>
      <trkpt lat="45.28718" lon="6.15068">
        <ele>2236.6</ele>
        <time>2021-02-17T09:45:28Z</time>
      </trkpt>
      <trkpt lat="45.28718" lon="6.15068">
        <ele>2236.6</ele>
        <time>2021-02-17T09:45:29Z</time>
      </trkpt>
      <trkpt lat="45.28717" lon="6.15067">
        <ele>2235.8</ele>
        <time>2021-02-17T09:45:30Z</time>
      </trkpt>
      <trkpt lat="45.28725" lon="6.15041">
        <ele>2248</ele>
        <time>2021-02-17T09:46:44Z</time>
      </trkpt>
      <trkpt lat="45.28726" lon="6.15041">
        <ele>2249.7</ele>
        <time>2021-02-17T09:46:45Z</time>
      </trkpt>
      <trkpt lat="45.28727" lon="6.15041">
        <ele>2249.8</ele>
        <time>2021-02-17T09:46:46Z</time>
      </trkpt>
      <trkpt lat="45.28727" lon="6.1504">
        <ele>2250.7</ele>
        <time>2021-02-17T09:46:47Z</time>
      </trkpt>
      <trkpt lat="45.28728" lon="6.1504">
        <ele>2250.7</ele>
        <time>2021-02-17T09:46:48Z</time>
      </trkpt>
      <trkpt lat="45.28728" lon="6.1504">
        <ele>2250.7</ele>
        <time>2021-02-17T09:46:49Z</time>
      </trkpt>
      <trkpt lat="45.28728" lon="6.1504">
        <ele>2250.7</ele>
        <time>2021-02-17T09:46:50Z</time>
      </trkpt>
      <trkpt lat="45.28729" lon="6.1504">
        <ele>2250.7</ele>
        <time>2021-02-17T09:46:51Z</time>
      </trkpt>
      <trkpt lat="45.28729" lon="6.1504">
        <ele>2250.7</ele>
        <time>2021-02-17T09:46:52Z</time>
      </trkpt>
      <trkpt lat="45.28729" lon="6.1504">
        <ele>2250.7</ele>
        <time>2021-02-17T09:46:53Z</time>
      </trkpt>
      <trkpt lat="45.2873" lon="6.1504">
        <ele>2250.8</ele>
        <time>2021-02-17T09:46:54Z</time>
      </trkpt>
      <trkpt lat="45.2873" lon="6.1504">
        <ele>2251.7</ele>
        <time>2021-02-17T09:46:55Z</time>
      </trkpt>
      <trkpt lat="45.2873" lon="6.1504">
        <ele>2251.7</ele>
        <time>2021-02-17T09:46:56Z</time>
      </trkpt>
      <trkpt lat="45.28731" lon="6.1504">
        <ele>2251.7</ele>
        <time>2021-02-17T09:46:57Z</time>
      </trkpt>
      <trkpt lat="45.28718" lon="6.15031">
        <ele>2251.8</ele>
        <time>2021-02-17T09:47:37Z</time>
      </trkpt>
      <trkpt lat="45.28718" lon="6.15031">
        <ele>2251.8</ele>
        <time>2021-02-17T09:47:38Z</time>
      </trkpt>
      <trkpt lat="45.28717" lon="6.1503">
        <ele>2250.8</ele>
        <time>2021-02-17T09:47:39Z</time>
      </trkpt>
      <trkpt lat="45.28717" lon="6.1503">
        <ele>2250.8</ele>
        <time>2021-02-17T09:47:40Z</time>
      </trkpt>
      <trkpt lat="45.28717" lon="6.15029">
        <ele>2250.8</ele>
        <time>2021-02-17T09:47:41Z</time>
      </trkpt>
      <trkpt lat="45.28716" lon="6.15028">
        <ele>2250.8</ele>
        <time>2021-02-17T09:47:42Z</time>
      </trkpt>
      <trkpt lat="45.28716" lon="6.15028">
        <ele>2252.9</ele>
        <time>2021-02-17T09:47:43Z</time>
      </trkpt>
      <trkpt lat="45.28715" lon="6.15028">
        <ele>2252.9</ele>
        <time>2021-02-17T09:47:44Z</time>
      </trkpt>
      <trkpt lat="45.28715" lon="6.15027">
        <ele>2252.9</ele>
        <time>2021-02-17T09:47:45Z</time>
      </trkpt>
      <trkpt lat="45.28715" lon="6.15027">
        <ele>2252.9</ele>
        <time>2021-02-17T09:47:46Z</time>
      </trkpt>
      <trkpt lat="45.28715" lon="6.15027">
        <ele>2252.1</ele>
        <time>2021-02-17T09:47:47Z</time>
      </trkpt>
      <trkpt lat="45.28714" lon="6.15026">
        <ele>2252.1</ele>
        <time>2021-02-17T09:47:48Z</time>
      </trkpt>
      <trkpt lat="45.28714" lon="6.15026">
        <ele>2252.1</ele>
        <time>2021-02-17T09:47:49Z</time>
      </trkpt>
      <trkpt lat="45.28714" lon="6.15026">
        <ele>2252.1</ele>
        <time>2021-02-17T09:47:50Z</time>
      </trkpt>
      <trkpt lat="45.28713" lon="6.15026">
        <ele>2252.1</ele>
        <time>2021-02-17T09:47:51Z</time>
      </trkpt>
      <trkpt lat="45.28713" lon="6.15025">
        <ele>2252.1</ele>
        <time>2021-02-17T09:47:52Z</time>
      </trkpt>
      <trkpt lat="45.28709" lon="6.15007">
        <ele>2261.2</ele>
        <time>2021-02-17T09:48:11Z</time>
      </trkpt>
      <trkpt lat="45.28709" lon="6.15005">
        <ele>2261.2</ele>
        <time>2021-02-17T09:48:12Z</time>
      </trkpt>
      <trkpt lat="45.28709" lon="6.15004">
        <ele>2260.5</ele>
        <time>2021-02-17T09:48:13Z</time>
      </trkpt>
      <trkpt lat="45.28708" lon="6.15004">
        <ele>2260.5</ele>
        <time>2021-02-17T09:48:14Z</time>
      </trkpt>
      <trkpt lat="45.28708" lon="6.15004">
        <ele>2260.5</ele>
        <time>2021-02-17T09:48:15Z</time>
      </trkpt>
      <trkpt lat="45.28708" lon="6.15003">
        <ele>2260.5</ele>
        <time>2021-02-17T09:48:16Z</time>
      </trkpt>
      <trkpt lat="45.28707" lon="6.15002">
        <ele>2262.5</ele>
        <time>2021-02-17T09:48:17Z</time>
      </trkpt>
      <trkpt lat="45.28707" lon="6.15002">
        <ele>2262.5</ele>
        <time>2021-02-17T09:48:18Z</time>
      </trkpt>
      <trkpt lat="45.28707" lon="6.15001">
        <ele>2262.6</ele>
        <time>2021-02-17T09:48:19Z</time>
      </trkpt>
      <trkpt lat="45.28706" lon="6.15">
        <ele>2262.6</ele>
        <time>2021-02-17T09:48:20Z</time>
      </trkpt>
      <trkpt lat="45.28706" lon="6.14999">
        <ele>2262.6</ele>
        <time>2021-02-17T09:48:21Z</time>
      </trkpt>
      <trkpt lat="45.28705" lon="6.14999">
        <ele>2261.9</ele>
        <time>2021-02-17T09:48:22Z</time>
      </trkpt>
      <trkpt lat="45.28705" lon="6.14997">
        <ele>2264</ele>
        <time>2021-02-17T09:48:24Z</time>
      </trkpt>
      <trkpt lat="45.28705" lon="6.14996">
        <ele>2264</ele>
        <time>2021-02-17T09:48:25Z</time>
      </trkpt>
      <trkpt lat="45.28705" lon="6.14996">
        <ele>2264</ele>
        <time>2021-02-17T09:48:26Z</time>
      </trkpt>
      <trkpt lat="45.28705" lon="6.14995">
        <ele>2264</ele>
        <time>2021-02-17T09:48:27Z</time>
      </trkpt>
      <trkpt lat="45.28705" lon="6.14995">
        <ele>2264</ele>
        <time>2021-02-17T09:48:28Z</time>
      </trkpt>
      <trkpt lat="45.28704" lon="6.14994">
        <ele>2264</ele>
        <time>2021-02-17T09:48:29Z</time>
      </trkpt>
      <trkpt lat="45.28704" lon="6.14994">
        <ele>2266.1</ele>
        <time>2021-02-17T09:48:30Z</time>
      </trkpt>
      <trkpt lat="45.28704" lon="6.14993">
        <ele>2266.1</ele>
        <time>2021-02-17T09:48:31Z</time>
      </trkpt>
      <trkpt lat="45.28704" lon="6.14993">
        <ele>2266.1</ele>
        <time>2021-02-17T09:48:32Z</time>
      </trkpt>
      <trkpt lat="45.28704" lon="6.14993">
        <ele>2266.1</ele>
        <time>2021-02-17T09:48:33Z</time>
      </trkpt>
      <trkpt lat="45.28704" lon="6.14993">
        <ele>2266.1</ele>
        <time>2021-02-17T09:48:34Z</time>
      </trkpt>
      <trkpt lat="45.28704" lon="6.14993">
        <ele>2266.1</ele>
        <time>2021-02-17T09:48:35Z</time>
      </trkpt>
      <trkpt lat="45.28704" lon="6.14993">
        <ele>2266.1</ele>
        <time>2021-02-17T09:48:36Z</time>
      </trkpt>
      <trkpt lat="45.28704" lon="6.14993">
        <ele>2266.1</ele>
        <time>2021-02-17T09:48:37Z</time>
      </trkpt>
      <trkpt lat="45.28704" lon="6.14994">
        <ele>2264</ele>
        <time>2021-02-17T09:48:38Z</time>
      </trkpt>
      <trkpt lat="45.28704" lon="6.14994">
        <ele>2264</ele>
        <time>2021-02-17T09:48:39Z</time>
      </trkpt>
      <trkpt lat="45.2871" lon="6.14998">
        <ele>2263.4</ele>
        <time>2021-02-17T09:48:56Z</time>
      </trkpt>
      <trkpt lat="45.28711" lon="6.14999">
        <ele>2263.4</ele>
        <time>2021-02-17T09:48:57Z</time>
      </trkpt>
      <trkpt lat="45.28711" lon="6.14999">
        <ele>2263.4</ele>
        <time>2021-02-17T09:48:58Z</time>
      </trkpt>
      <trkpt lat="45.28712" lon="6.14999">
        <ele>2264.2</ele>
        <time>2021-02-17T09:48:59Z</time>
      </trkpt>
      <trkpt lat="45.28713" lon="6.15">
        <ele>2264.2</ele>
        <time>2021-02-17T09:49:00Z</time>
      </trkpt>
      <trkpt lat="45.28713" lon="6.15">
        <ele>2264.2</ele>
        <time>2021-02-17T09:49:01Z</time>
      </trkpt>
      <trkpt lat="45.28714" lon="6.15001">
        <ele>2264.2</ele>
        <time>2021-02-17T09:49:02Z</time>
      </trkpt>
      <trkpt lat="45.28714" lon="6.15001">
        <ele>2264.2</ele>
        <time>2021-02-17T09:49:03Z</time>
      </trkpt>
      <trkpt lat="45.28715" lon="6.15002">
        <ele>2265</ele>
        <time>2021-02-17T09:49:04Z</time>
      </trkpt>
      <trkpt lat="45.28716" lon="6.15003">
        <ele>2265</ele>
        <time>2021-02-17T09:49:05Z</time>
      </trkpt>
      <trkpt lat="45.28716" lon="6.15003">
        <ele>2263</ele>
        <time>2021-02-17T09:49:06Z</time>
      </trkpt>
      <trkpt lat="45.28717" lon="6.15003">
        <ele>2263</ele>
        <time>2021-02-17T09:49:07Z</time>
      </trkpt>
      <trkpt lat="45.28718" lon="6.15003">
        <ele>2263</ele>
        <time>2021-02-17T09:49:08Z</time>
      </trkpt>
      <trkpt lat="45.28718" lon="6.15003">
        <ele>2263.9</ele>
        <time>2021-02-17T09:49:09Z</time>
      </trkpt>
      <trkpt lat="45.28719" lon="6.15003">
        <ele>2263.9</ele>
        <time>2021-02-17T09:49:10Z</time>
      </trkpt>
      <trkpt lat="45.2872" lon="6.15003">
        <ele>2263.9</ele>
        <time>2021-02-17T09:49:11Z</time>
      </trkpt>
      <trkpt lat="45.28721" lon="6.15004">
        <ele>2264.9</ele>
        <time>2021-02-17T09:49:12Z</time>
      </trkpt>
      <trkpt lat="45.28721" lon="6.15004">
        <ele>2264.9</ele>
        <time>2021-02-17T09:49:13Z</time>
      </trkpt>
      <trkpt lat="45.28722" lon="6.15004">
        <ele>2264.9</ele>
        <time>2021-02-17T09:49:14Z</time>
      </trkpt>
      <trkpt lat="45.28723" lon="6.15004">
        <ele>2264.9</ele>
        <time>2021-02-17T09:49:15Z</time>
      </trkpt>
      <trkpt lat="45.28724" lon="6.15004">
        <ele>2265.9</ele>
        <time>2021-02-17T09:49:16Z</time>
      </trkpt>
      <trkpt lat="45.28725" lon="6.15004">
        <ele>2265.9</ele>
        <time>2021-02-17T09:49:17Z</time>
      </trkpt>
      <trkpt lat="45.28726" lon="6.15004">
        <ele>2265.9</ele>
        <time>2021-02-17T09:49:18Z</time>
      </trkpt>
      <trkpt lat="45.28726" lon="6.15004">
        <ele>2265.9</ele>
        <time>2021-02-17T09:49:19Z</time>
      </trkpt>
      <trkpt lat="45.28727" lon="6.15004">
        <ele>2266.8</ele>
        <time>2021-02-17T09:49:20Z</time>
      </trkpt>
      <trkpt lat="45.28728" lon="6.15004">
        <ele>2266.8</ele>
        <time>2021-02-17T09:49:21Z</time>
      </trkpt>
      <trkpt lat="45.28729" lon="6.15004">
        <ele>2266.8</ele>
        <time>2021-02-17T09:49:22Z</time>
      </trkpt>
      <trkpt lat="45.2873" lon="6.15004">
        <ele>2266.8</ele>
        <time>2021-02-17T09:49:23Z</time>
      </trkpt>
      <trkpt lat="45.2873" lon="6.15004">
        <ele>2267.7</ele>
        <time>2021-02-17T09:49:24Z</time>
      </trkpt>
      <trkpt lat="45.28731" lon="6.15005">
        <ele>2267.7</ele>
        <time>2021-02-17T09:49:25Z</time>
      </trkpt>
      <trkpt lat="45.28731" lon="6.15005">
        <ele>2267.7</ele>
        <time>2021-02-17T09:49:26Z</time>
      </trkpt>
      <trkpt lat="45.28731" lon="6.15005">
        <ele>2267.7</ele>
        <time>2021-02-17T09:49:27Z</time>
      </trkpt>
      <trkpt lat="45.28732" lon="6.15005">
        <ele>2267.7</ele>
        <time>2021-02-17T09:49:28Z</time>
      </trkpt>
      <trkpt lat="45.28732" lon="6.15005">
        <ele>2267.7</ele>
        <time>2021-02-17T09:49:29Z</time>
      </trkpt>
      <trkpt lat="45.28732" lon="6.15005">
        <ele>2267.7</ele>
        <time>2021-02-17T09:49:30Z</time>
      </trkpt>
      <trkpt lat="45.28731" lon="6.15006">
        <ele>2267.7</ele>
        <time>2021-02-17T09:49:31Z</time>
      </trkpt>
      <trkpt lat="45.28731" lon="6.15006">
        <ele>2267.7</ele>
        <time>2021-02-17T09:49:32Z</time>
      </trkpt>
      <trkpt lat="45.2873" lon="6.15005">
        <ele>2267.7</ele>
        <time>2021-02-17T09:49:33Z</time>
      </trkpt>
      <trkpt lat="45.2873" lon="6.15005">
        <ele>2267.7</ele>
        <time>2021-02-17T09:49:34Z</time>
      </trkpt>
      <trkpt lat="45.28726" lon="6.14997">
        <ele>2270.1</ele>
        <time>2021-02-17T09:49:46Z</time>
      </trkpt>
      <trkpt lat="45.28725" lon="6.14996">
        <ele>2270.1</ele>
        <time>2021-02-17T09:49:47Z</time>
      </trkpt>
      <trkpt lat="45.28725" lon="6.14995">
        <ele>2270.1</ele>
        <time>2021-02-17T09:49:48Z</time>
      </trkpt>
      <trkpt lat="45.28725" lon="6.14994">
        <ele>2272.3</ele>
        <time>2021-02-17T09:49:49Z</time>
      </trkpt>
      <trkpt lat="45.28725" lon="6.14993">
        <ele>2272.3</ele>
        <time>2021-02-17T09:49:50Z</time>
      </trkpt>
      <trkpt lat="45.28724" lon="6.14991">
        <ele>2272.3</ele>
        <time>2021-02-17T09:49:51Z</time>
      </trkpt>
      <trkpt lat="45.28724" lon="6.1499">
        <ele>2272.3</ele>
        <time>2021-02-17T09:49:52Z</time>
      </trkpt>
      <trkpt lat="45.28724" lon="6.14989">
        <ele>2274.5</ele>
        <time>2021-02-17T09:49:53Z</time>
      </trkpt>
      <trkpt lat="45.28723" lon="6.14988">
        <ele>2273.5</ele>
        <time>2021-02-17T09:49:54Z</time>
      </trkpt>
      <trkpt lat="45.28723" lon="6.14987">
        <ele>2273.5</ele>
        <time>2021-02-17T09:49:55Z</time>
      </trkpt>
      <trkpt lat="45.28723" lon="6.14986">
        <ele>2273.5</ele>
        <time>2021-02-17T09:49:56Z</time>
      </trkpt>
      <trkpt lat="45.28723" lon="6.14986">
        <ele>2273.5</ele>
        <time>2021-02-17T09:49:57Z</time>
      </trkpt>
      <trkpt lat="45.28722" lon="6.14985">
        <ele>2275.7</ele>
        <time>2021-02-17T09:49:58Z</time>
      </trkpt>
      <trkpt lat="45.28722" lon="6.14984">
        <ele>2275.7</ele>
        <time>2021-02-17T09:49:59Z</time>
      </trkpt>
      <trkpt lat="45.28722" lon="6.14983">
        <ele>2275.7</ele>
        <time>2021-02-17T09:50:00Z</time>
      </trkpt>
      <trkpt lat="45.28721" lon="6.14982">
        <ele>2275.7</ele>
        <time>2021-02-17T09:50:01Z</time>
      </trkpt>
      <trkpt lat="45.28721" lon="6.14982">
        <ele>2275.7</ele>
        <time>2021-02-17T09:50:02Z</time>
      </trkpt>
      <trkpt lat="45.28721" lon="6.14981">
        <ele>2277</ele>
        <time>2021-02-17T09:50:03Z</time>
      </trkpt>
      <trkpt lat="45.2872" lon="6.1498">
        <ele>2277</ele>
        <time>2021-02-17T09:50:04Z</time>
      </trkpt>
      <trkpt lat="45.2872" lon="6.14979">
        <ele>2277</ele>
        <time>2021-02-17T09:50:05Z</time>
      </trkpt>
      <trkpt lat="45.2872" lon="6.14978">
        <ele>2277</ele>
        <time>2021-02-17T09:50:06Z</time>
      </trkpt>
      <trkpt lat="45.2872" lon="6.14977">
        <ele>2279.2</ele>
        <time>2021-02-17T09:50:07Z</time>
      </trkpt>
      <trkpt lat="45.2872" lon="6.14976">
        <ele>2279.2</ele>
        <time>2021-02-17T09:50:08Z</time>
      </trkpt>
      <trkpt lat="45.2872" lon="6.14976">
        <ele>2279.2</ele>
        <time>2021-02-17T09:50:09Z</time>
      </trkpt>
      <trkpt lat="45.28719" lon="6.14975">
        <ele>2279.2</ele>
        <time>2021-02-17T09:50:10Z</time>
      </trkpt>
      <trkpt lat="45.28719" lon="6.14975">
        <ele>2279.2</ele>
        <time>2021-02-17T09:50:11Z</time>
      </trkpt>
      <trkpt lat="45.28719" lon="6.14975">
        <ele>2279.2</ele>
        <time>2021-02-17T09:50:12Z</time>
      </trkpt>
      <trkpt lat="45.28719" lon="6.14975">
        <ele>2279.2</ele>
        <time>2021-02-17T09:50:13Z</time>
      </trkpt>
      <trkpt lat="45.28719" lon="6.14975">
        <ele>2279.2</ele>
        <time>2021-02-17T09:50:14Z</time>
      </trkpt>
      <trkpt lat="45.28719" lon="6.14975">
        <ele>2279.2</ele>
        <time>2021-02-17T09:50:15Z</time>
      </trkpt>
      <trkpt lat="45.28719" lon="6.14974">
        <ele>2279.2</ele>
        <time>2021-02-17T09:50:16Z</time>
      </trkpt>
      <trkpt lat="45.28719" lon="6.14974">
        <ele>2279.2</ele>
        <time>2021-02-17T09:50:17Z</time>
      </trkpt>
      <trkpt lat="45.2872" lon="6.14974">
        <ele>2279.2</ele>
        <time>2021-02-17T09:50:18Z</time>
      </trkpt>
      <trkpt lat="45.2872" lon="6.14973">
        <ele>2279.2</ele>
        <time>2021-02-17T09:50:19Z</time>
      </trkpt>
      <trkpt lat="45.28721" lon="6.14973">
        <ele>2280.2</ele>
        <time>2021-02-17T09:50:20Z</time>
      </trkpt>
      <trkpt lat="45.28722" lon="6.14973">
        <ele>2280.2</ele>
        <time>2021-02-17T09:50:21Z</time>
      </trkpt>
      <trkpt lat="45.28723" lon="6.14974">
        <ele>2280.2</ele>
        <time>2021-02-17T09:50:22Z</time>
      </trkpt>
      <trkpt lat="45.28723" lon="6.14974">
        <ele>2280.2</ele>
        <time>2021-02-17T09:50:23Z</time>
      </trkpt>
      <trkpt lat="45.28724" lon="6.14975">
        <ele>2281.2</ele>
        <time>2021-02-17T09:50:24Z</time>
      </trkpt>
      <trkpt lat="45.28725" lon="6.14976">
        <ele>2281.2</ele>
        <time>2021-02-17T09:50:25Z</time>
      </trkpt>
      <trkpt lat="45.28725" lon="6.14976">
        <ele>2281.2</ele>
        <time>2021-02-17T09:50:26Z</time>
      </trkpt>
      <trkpt lat="45.28726" lon="6.14977">
        <ele>2281.2</ele>
        <time>2021-02-17T09:50:27Z</time>
      </trkpt>
      <trkpt lat="45.28727" lon="6.14977">
        <ele>2280</ele>
        <time>2021-02-17T09:50:28Z</time>
      </trkpt>
      <trkpt lat="45.28727" lon="6.14977">
        <ele>2280</ele>
        <time>2021-02-17T09:50:29Z</time>
      </trkpt>
      <trkpt lat="45.28727" lon="6.14978">
        <ele>2280</ele>
        <time>2021-02-17T09:50:30Z</time>
      </trkpt>
      <trkpt lat="45.28727" lon="6.14978">
        <ele>2279</ele>
        <time>2021-02-17T09:50:31Z</time>
      </trkpt>
      <trkpt lat="45.28726" lon="6.14978">
        <ele>2279</ele>
        <time>2021-02-17T09:50:32Z</time>
      </trkpt>
      <trkpt lat="45.28726" lon="6.14978">
        <ele>2279</ele>
        <time>2021-02-17T09:50:33Z</time>
      </trkpt>
      <trkpt lat="45.28727" lon="6.14979">
        <ele>2280</ele>
        <time>2021-02-17T09:50:34Z</time>
      </trkpt>
      <trkpt lat="45.28728" lon="6.14979">
        <ele>2280</ele>
        <time>2021-02-17T09:50:35Z</time>
      </trkpt>
      <trkpt lat="45.28729" lon="6.1498">
        <ele>2280</ele>
        <time>2021-02-17T09:50:36Z</time>
      </trkpt>
      <trkpt lat="45.2873" lon="6.1498">
        <ele>2280</ele>
        <time>2021-02-17T09:50:37Z</time>
      </trkpt>
      <trkpt lat="45.2873" lon="6.14981">
        <ele>2280.9</ele>
        <time>2021-02-17T09:50:38Z</time>
      </trkpt>
      <trkpt lat="45.28731" lon="6.14981">
        <ele>2280.9</ele>
        <time>2021-02-17T09:50:39Z</time>
      </trkpt>
      <trkpt lat="45.28732" lon="6.14982">
        <ele>2278.6</ele>
        <time>2021-02-17T09:50:40Z</time>
      </trkpt>
      <trkpt lat="45.28732" lon="6.14982">
        <ele>2278.6</ele>
        <time>2021-02-17T09:50:41Z</time>
      </trkpt>
      <trkpt lat="45.28732" lon="6.14983">
        <ele>2278.6</ele>
        <time>2021-02-17T09:50:42Z</time>
      </trkpt>
      <trkpt lat="45.28733" lon="6.14983">
        <ele>2278.6</ele>
        <time>2021-02-17T09:50:43Z</time>
      </trkpt>
      <trkpt lat="45.28733" lon="6.14983">
        <ele>2278.6</ele>
        <time>2021-02-17T09:50:44Z</time>
      </trkpt>
      <trkpt lat="45.28733" lon="6.14983">
        <ele>2279.6</ele>
        <time>2021-02-17T09:50:45Z</time>
      </trkpt>
      <trkpt lat="45.28734" lon="6.14984">
        <ele>2279.6</ele>
        <time>2021-02-17T09:50:46Z</time>
      </trkpt>
      <trkpt lat="45.28734" lon="6.14984">
        <ele>2279.6</ele>
        <time>2021-02-17T09:50:47Z</time>
      </trkpt>
      <trkpt lat="45.28734" lon="6.14984">
        <ele>2279.6</ele>
        <time>2021-02-17T09:50:48Z</time>
      </trkpt>
      <trkpt lat="45.28735" lon="6.14983">
        <ele>2279.6</ele>
        <time>2021-02-17T09:50:49Z</time>
      </trkpt>
      <trkpt lat="45.28735" lon="6.14983">
        <ele>2279.6</ele>
        <time>2021-02-17T09:50:50Z</time>
      </trkpt>
      <trkpt lat="45.28733" lon="6.14979">
        <ele>2281.8</ele>
        <time>2021-02-17T09:50:57Z</time>
      </trkpt>
      <trkpt lat="45.28733" lon="6.14978">
        <ele>2281.8</ele>
        <time>2021-02-17T09:50:58Z</time>
      </trkpt>
      <trkpt lat="45.28733" lon="6.14977">
        <ele>2281.8</ele>
        <time>2021-02-17T09:50:59Z</time>
      </trkpt>
      <trkpt lat="45.28733" lon="6.14976">
        <ele>2284.1</ele>
        <time>2021-02-17T09:51:00Z</time>
      </trkpt>
      <trkpt lat="45.28733" lon="6.14976">
        <ele>2284.1</ele>
        <time>2021-02-17T09:51:01Z</time>
      </trkpt>
      <trkpt lat="45.28733" lon="6.14975">
        <ele>2283.1</ele>
        <time>2021-02-17T09:51:02Z</time>
      </trkpt>
      <trkpt lat="45.28732" lon="6.14974">
        <ele>2283.1</ele>
        <time>2021-02-17T09:51:03Z</time>
      </trkpt>
      <trkpt lat="45.28732" lon="6.14974">
        <ele>2283.1</ele>
        <time>2021-02-17T09:51:04Z</time>
      </trkpt>
      <trkpt lat="45.28732" lon="6.14973">
        <ele>2283.1</ele>
        <time>2021-02-17T09:51:05Z</time>
      </trkpt>
      <trkpt lat="45.28732" lon="6.14972">
        <ele>2285.3</ele>
        <time>2021-02-17T09:51:06Z</time>
      </trkpt>
      <trkpt lat="45.28732" lon="6.14971">
        <ele>2285.3</ele>
        <time>2021-02-17T09:51:07Z</time>
      </trkpt>
      <trkpt lat="45.28732" lon="6.1497">
        <ele>2285.3</ele>
        <time>2021-02-17T09:51:08Z</time>
      </trkpt>
      <trkpt lat="45.28732" lon="6.14969">
        <ele>2285.3</ele>
        <time>2021-02-17T09:51:09Z</time>
      </trkpt>
      <trkpt lat="45.28732" lon="6.14968">
        <ele>2287.4</ele>
        <time>2021-02-17T09:51:10Z</time>
      </trkpt>
      <trkpt lat="45.28732" lon="6.14967">
        <ele>2287.4</ele>
        <time>2021-02-17T09:51:11Z</time>
      </trkpt>
      <trkpt lat="45.28732" lon="6.14967">
        <ele>2287.4</ele>
        <time>2021-02-17T09:51:12Z</time>
      </trkpt>
      <trkpt lat="45.28732" lon="6.14966">
        <ele>2287.4</ele>
        <time>2021-02-17T09:51:13Z</time>
      </trkpt>
      <trkpt lat="45.28732" lon="6.14965">
        <ele>2287.4</ele>
        <time>2021-02-17T09:51:14Z</time>
      </trkpt>
      <trkpt lat="45.28732" lon="6.14964">
        <ele>2289.5</ele>
        <time>2021-02-17T09:51:15Z</time>
      </trkpt>
      <trkpt lat="45.28733" lon="6.14963">
        <ele>2289.5</ele>
        <time>2021-02-17T09:51:16Z</time>
      </trkpt>
      <trkpt lat="45.28733" lon="6.14962">
        <ele>2289.5</ele>
        <time>2021-02-17T09:51:17Z</time>
      </trkpt>
      <trkpt lat="45.28733" lon="6.14961">
        <ele>2290.5</ele>
        <time>2021-02-17T09:51:18Z</time>
      </trkpt>
      <trkpt lat="45.28733" lon="6.14961">
        <ele>2290.5</ele>
        <time>2021-02-17T09:51:19Z</time>
      </trkpt>
      <trkpt lat="45.28733" lon="6.1496">
        <ele>2290.5</ele>
        <time>2021-02-17T09:51:20Z</time>
      </trkpt>
      <trkpt lat="45.28733" lon="6.14959">
        <ele>2292.5</ele>
        <time>2021-02-17T09:51:21Z</time>
      </trkpt>
      <trkpt lat="45.28733" lon="6.14959">
        <ele>2292.5</ele>
        <time>2021-02-17T09:51:22Z</time>
      </trkpt>
      <trkpt lat="45.28733" lon="6.14958">
        <ele>2291.6</ele>
        <time>2021-02-17T09:51:23Z</time>
      </trkpt>
      <trkpt lat="45.28732" lon="6.14958">
        <ele>2291.6</ele>
        <time>2021-02-17T09:51:24Z</time>
      </trkpt>
      <trkpt lat="45.28732" lon="6.14957">
        <ele>2291.6</ele>
        <time>2021-02-17T09:51:25Z</time>
      </trkpt>
      <trkpt lat="45.28732" lon="6.14956">
        <ele>2291.6</ele>
        <time>2021-02-17T09:51:26Z</time>
      </trkpt>
      <trkpt lat="45.28732" lon="6.14956">
        <ele>2291.6</ele>
        <time>2021-02-17T09:51:27Z</time>
      </trkpt>
      <trkpt lat="45.28731" lon="6.14955">
        <ele>2293.7</ele>
        <time>2021-02-17T09:51:28Z</time>
      </trkpt>
      <trkpt lat="45.28731" lon="6.14955">
        <ele>2293.7</ele>
        <time>2021-02-17T09:51:29Z</time>
      </trkpt>
      <trkpt lat="45.28731" lon="6.14954">
        <ele>2293.7</ele>
        <time>2021-02-17T09:51:30Z</time>
      </trkpt>
      <trkpt lat="45.2873" lon="6.14953">
        <ele>2293.7</ele>
        <time>2021-02-17T09:51:31Z</time>
      </trkpt>
      <trkpt lat="45.2873" lon="6.14953">
        <ele>2293.7</ele>
        <time>2021-02-17T09:51:32Z</time>
      </trkpt>
      <trkpt lat="45.2873" lon="6.14953">
        <ele>2293.7</ele>
        <time>2021-02-17T09:51:33Z</time>
      </trkpt>
      <trkpt lat="45.2873" lon="6.14953">
        <ele>2293.7</ele>
        <time>2021-02-17T09:51:34Z</time>
      </trkpt>
      <trkpt lat="45.2873" lon="6.14953">
        <ele>2293.7</ele>
        <time>2021-02-17T09:51:35Z</time>
      </trkpt>
      <trkpt lat="45.2873" lon="6.14953">
        <ele>2293.7</ele>
        <time>2021-02-17T09:51:36Z</time>
      </trkpt>
      <trkpt lat="45.2873" lon="6.14953">
        <ele>2293.7</ele>
        <time>2021-02-17T09:51:37Z</time>
      </trkpt>
      <trkpt lat="45.28731" lon="6.14953">
        <ele>2293.7</ele>
        <time>2021-02-17T09:51:38Z</time>
      </trkpt>
      <trkpt lat="45.28734" lon="6.14953">
        <ele>2294.7</ele>
        <time>2021-02-17T09:51:44Z</time>
      </trkpt>
      <trkpt lat="45.28735" lon="6.14954">
        <ele>2294.7</ele>
        <time>2021-02-17T09:51:45Z</time>
      </trkpt>
      <trkpt lat="45.28735" lon="6.14954">
        <ele>2294.7</ele>
        <time>2021-02-17T09:51:46Z</time>
      </trkpt>
      <trkpt lat="45.28736" lon="6.14954">
        <ele>2295.7</ele>
        <time>2021-02-17T09:51:47Z</time>
      </trkpt>
      <trkpt lat="45.28736" lon="6.14955">
        <ele>2295.7</ele>
        <time>2021-02-17T09:51:48Z</time>
      </trkpt>
      <trkpt lat="45.28737" lon="6.14955">
        <ele>2295.7</ele>
        <time>2021-02-17T09:51:49Z</time>
      </trkpt>
      <trkpt lat="45.28738" lon="6.14956">
        <ele>2293.5</ele>
        <time>2021-02-17T09:51:50Z</time>
      </trkpt>
      <trkpt lat="45.28738" lon="6.14956">
        <ele>2293.5</ele>
        <time>2021-02-17T09:51:51Z</time>
      </trkpt>
      <trkpt lat="45.28739" lon="6.14957">
        <ele>2294.5</ele>
        <time>2021-02-17T09:51:52Z</time>
      </trkpt>
      <trkpt lat="45.28739" lon="6.14958">
        <ele>2294.5</ele>
        <time>2021-02-17T09:51:53Z</time>
      </trkpt>
      <trkpt lat="45.2874" lon="6.14958">
        <ele>2294.5</ele>
        <time>2021-02-17T09:51:54Z</time>
      </trkpt>
      <trkpt lat="45.2874" lon="6.14959">
        <ele>2294.5</ele>
        <time>2021-02-17T09:51:55Z</time>
      </trkpt>
      <trkpt lat="45.2874" lon="6.14959">
        <ele>2294.5</ele>
        <time>2021-02-17T09:51:56Z</time>
      </trkpt>
      <trkpt lat="45.28741" lon="6.14959">
        <ele>2294.5</ele>
        <time>2021-02-17T09:51:57Z</time>
      </trkpt>
      <trkpt lat="45.28741" lon="6.1496">
        <ele>2294.5</ele>
        <time>2021-02-17T09:51:58Z</time>
      </trkpt>
      <trkpt lat="45.28742" lon="6.1496">
        <ele>2295.6</ele>
        <time>2021-02-17T09:51:59Z</time>
      </trkpt>
      <trkpt lat="45.28743" lon="6.1496">
        <ele>2293.5</ele>
        <time>2021-02-17T09:52:00Z</time>
      </trkpt>
      <trkpt lat="45.28744" lon="6.1496">
        <ele>2293.5</ele>
        <time>2021-02-17T09:52:01Z</time>
      </trkpt>
      <trkpt lat="45.28745" lon="6.1496">
        <ele>2293.5</ele>
        <time>2021-02-17T09:52:02Z</time>
      </trkpt>
      <trkpt lat="45.28746" lon="6.1496">
        <ele>2294.6</ele>
        <time>2021-02-17T09:52:03Z</time>
      </trkpt>
      <trkpt lat="45.28747" lon="6.1496">
        <ele>2296.7</ele>
        <time>2021-02-17T09:52:04Z</time>
      </trkpt>
      <trkpt lat="45.28747" lon="6.1496">
        <ele>2296.7</ele>
        <time>2021-02-17T09:52:05Z</time>
      </trkpt>
      <trkpt lat="45.28748" lon="6.1496">
        <ele>2297.8</ele>
        <time>2021-02-17T09:52:06Z</time>
      </trkpt>
      <trkpt lat="45.28749" lon="6.1496">
        <ele>2297.8</ele>
        <time>2021-02-17T09:52:07Z</time>
      </trkpt>
      <trkpt lat="45.2875" lon="6.14959">
        <ele>2297.8</ele>
        <time>2021-02-17T09:52:08Z</time>
      </trkpt>
      <trkpt lat="45.28751" lon="6.1496">
        <ele>2297.8</ele>
        <time>2021-02-17T09:52:09Z</time>
      </trkpt>
      <trkpt lat="45.28751" lon="6.14959">
        <ele>2298.9</ele>
        <time>2021-02-17T09:52:10Z</time>
      </trkpt>
      <trkpt lat="45.28752" lon="6.14959">
        <ele>2298.9</ele>
        <time>2021-02-17T09:52:11Z</time>
      </trkpt>
      <trkpt lat="45.28753" lon="6.14959">
        <ele>2298.9</ele>
        <time>2021-02-17T09:52:12Z</time>
      </trkpt>
      <trkpt lat="45.28754" lon="6.14959">
        <ele>2298.9</ele>
        <time>2021-02-17T09:52:13Z</time>
      </trkpt>
      <trkpt lat="45.28754" lon="6.14958">
        <ele>2299.9</ele>
        <time>2021-02-17T09:52:14Z</time>
      </trkpt>
      <trkpt lat="45.28755" lon="6.14958">
        <ele>2299.9</ele>
        <time>2021-02-17T09:52:15Z</time>
      </trkpt>
      <trkpt lat="45.28755" lon="6.14958">
        <ele>2299.9</ele>
        <time>2021-02-17T09:52:16Z</time>
      </trkpt>
      <trkpt lat="45.28756" lon="6.14957">
        <ele>2299.9</ele>
        <time>2021-02-17T09:52:17Z</time>
      </trkpt>
      <trkpt lat="45.28757" lon="6.14957">
        <ele>2300.9</ele>
        <time>2021-02-17T09:52:18Z</time>
      </trkpt>
      <trkpt lat="45.28758" lon="6.14957">
        <ele>2300.9</ele>
        <time>2021-02-17T09:52:19Z</time>
      </trkpt>
      <trkpt lat="45.28758" lon="6.14956">
        <ele>2300.9</ele>
        <time>2021-02-17T09:52:20Z</time>
      </trkpt>
      <trkpt lat="45.28758" lon="6.14956">
        <ele>2300.9</ele>
        <time>2021-02-17T09:52:21Z</time>
      </trkpt>
      <trkpt lat="45.28758" lon="6.14956">
        <ele>2300.9</ele>
        <time>2021-02-17T09:52:22Z</time>
      </trkpt>
      <trkpt lat="45.28758" lon="6.14956">
        <ele>2300.9</ele>
        <time>2021-02-17T09:52:23Z</time>
      </trkpt>
      <trkpt lat="45.28757" lon="6.14956">
        <ele>2300.9</ele>
        <time>2021-02-17T09:52:24Z</time>
      </trkpt>
      <trkpt lat="45.28757" lon="6.14956">
        <ele>2299.9</ele>
        <time>2021-02-17T09:52:25Z</time>
      </trkpt>
      <trkpt lat="45.28756" lon="6.14956">
        <ele>2299.9</ele>
        <time>2021-02-17T09:52:26Z</time>
      </trkpt>
      <trkpt lat="45.28755" lon="6.14956">
        <ele>2299.9</ele>
        <time>2021-02-17T09:52:27Z</time>
      </trkpt>
      <trkpt lat="45.28754" lon="6.14955">
        <ele>2302</ele>
        <time>2021-02-17T09:52:28Z</time>
      </trkpt>
      <trkpt lat="45.28753" lon="6.14955">
        <ele>2301</ele>
        <time>2021-02-17T09:52:29Z</time>
      </trkpt>
      <trkpt lat="45.28753" lon="6.14954">
        <ele>2301</ele>
        <time>2021-02-17T09:52:30Z</time>
      </trkpt>
      <trkpt lat="45.28752" lon="6.14954">
        <ele>2301</ele>
        <time>2021-02-17T09:52:31Z</time>
      </trkpt>
      <trkpt lat="45.28752" lon="6.14954">
        <ele>2301</ele>
        <time>2021-02-17T09:52:32Z</time>
      </trkpt>
      <trkpt lat="45.28751" lon="6.14953">
        <ele>2301</ele>
        <time>2021-02-17T09:52:33Z</time>
      </trkpt>
      <trkpt lat="45.28751" lon="6.14952">
        <ele>2299.9</ele>
        <time>2021-02-17T09:52:34Z</time>
      </trkpt>
      <trkpt lat="45.2875" lon="6.14952">
        <ele>2299.9</ele>
        <time>2021-02-17T09:52:35Z</time>
      </trkpt>
      <trkpt lat="45.2875" lon="6.14951">
        <ele>2302.2</ele>
        <time>2021-02-17T09:52:36Z</time>
      </trkpt>
      <trkpt lat="45.28749" lon="6.1495">
        <ele>2302.2</ele>
        <time>2021-02-17T09:52:37Z</time>
      </trkpt>
      <trkpt lat="45.28749" lon="6.14949">
        <ele>2302.2</ele>
        <time>2021-02-17T09:52:38Z</time>
      </trkpt>
      <trkpt lat="45.28749" lon="6.14949">
        <ele>2302.2</ele>
        <time>2021-02-17T09:52:39Z</time>
      </trkpt>
      <trkpt lat="45.28748" lon="6.14948">
        <ele>2302.2</ele>
        <time>2021-02-17T09:52:40Z</time>
      </trkpt>
      <trkpt lat="45.28748" lon="6.14947">
        <ele>2302.2</ele>
        <time>2021-02-17T09:52:41Z</time>
      </trkpt>
      <trkpt lat="45.28748" lon="6.14946">
        <ele>2303.4</ele>
        <time>2021-02-17T09:52:42Z</time>
      </trkpt>
      <trkpt lat="45.28747" lon="6.14945">
        <ele>2303.4</ele>
        <time>2021-02-17T09:52:43Z</time>
      </trkpt>
      <trkpt lat="45.28747" lon="6.14944">
        <ele>2303.4</ele>
        <time>2021-02-17T09:52:44Z</time>
      </trkpt>
      <trkpt lat="45.28747" lon="6.14943">
        <ele>2303.4</ele>
        <time>2021-02-17T09:52:45Z</time>
      </trkpt>
      <trkpt lat="45.28747" lon="6.14942">
        <ele>2305.8</ele>
        <time>2021-02-17T09:52:46Z</time>
      </trkpt>
      <trkpt lat="45.28746" lon="6.14942">
        <ele>2305.8</ele>
        <time>2021-02-17T09:52:47Z</time>
      </trkpt>
      <trkpt lat="45.28746" lon="6.14941">
        <ele>2305.8</ele>
        <time>2021-02-17T09:52:48Z</time>
      </trkpt>
      <trkpt lat="45.28746" lon="6.1494">
        <ele>2305.8</ele>
        <time>2021-02-17T09:52:49Z</time>
      </trkpt>
      <trkpt lat="45.28746" lon="6.1494">
        <ele>2305.8</ele>
        <time>2021-02-17T09:52:50Z</time>
      </trkpt>
      <trkpt lat="45.28745" lon="6.14939">
        <ele>2305.8</ele>
        <time>2021-02-17T09:52:51Z</time>
      </trkpt>
      <trkpt lat="45.28745" lon="6.14938">
        <ele>2305.8</ele>
        <time>2021-02-17T09:52:52Z</time>
      </trkpt>
      <trkpt lat="45.28745" lon="6.14938">
        <ele>2307</ele>
        <time>2021-02-17T09:52:53Z</time>
      </trkpt>
      <trkpt lat="45.28744" lon="6.14937">
        <ele>2307</ele>
        <time>2021-02-17T09:52:54Z</time>
      </trkpt>
      <trkpt lat="45.28744" lon="6.14937">
        <ele>2307</ele>
        <time>2021-02-17T09:52:55Z</time>
      </trkpt>
      <trkpt lat="45.28744" lon="6.14937">
        <ele>2307</ele>
        <time>2021-02-17T09:52:56Z</time>
      </trkpt>
      <trkpt lat="45.28744" lon="6.14937">
        <ele>2307</ele>
        <time>2021-02-17T09:52:57Z</time>
      </trkpt>
      <trkpt lat="45.28745" lon="6.14937">
        <ele>2308.1</ele>
        <time>2021-02-17T09:52:58Z</time>
      </trkpt>
      <trkpt lat="45.28745" lon="6.14938">
        <ele>2308.1</ele>
        <time>2021-02-17T09:52:59Z</time>
      </trkpt>
      <trkpt lat="45.28745" lon="6.14938">
        <ele>2308.1</ele>
        <time>2021-02-17T09:53:00Z</time>
      </trkpt>
      <trkpt lat="45.28746" lon="6.14938">
        <ele>2308.1</ele>
        <time>2021-02-17T09:53:01Z</time>
      </trkpt>
      <trkpt lat="45.28746" lon="6.14939">
        <ele>2305.8</ele>
        <time>2021-02-17T09:53:02Z</time>
      </trkpt>
      <trkpt lat="45.28747" lon="6.14939">
        <ele>2305.8</ele>
        <time>2021-02-17T09:53:03Z</time>
      </trkpt>
      <trkpt lat="45.28748" lon="6.14939">
        <ele>2305.8</ele>
        <time>2021-02-17T09:53:04Z</time>
      </trkpt>
      <trkpt lat="45.28748" lon="6.14939">
        <ele>2306.8</ele>
        <time>2021-02-17T09:53:05Z</time>
      </trkpt>
      <trkpt lat="45.28749" lon="6.14939">
        <ele>2306.8</ele>
        <time>2021-02-17T09:53:06Z</time>
      </trkpt>
      <trkpt lat="45.28749" lon="6.14939">
        <ele>2306.8</ele>
        <time>2021-02-17T09:53:07Z</time>
      </trkpt>
      <trkpt lat="45.28749" lon="6.14939">
        <ele>2306.8</ele>
        <time>2021-02-17T09:53:08Z</time>
      </trkpt>
      <trkpt lat="45.2875" lon="6.14939">
        <ele>2306.8</ele>
        <time>2021-02-17T09:53:09Z</time>
      </trkpt>
      <trkpt lat="45.28751" lon="6.14939">
        <ele>2306.8</ele>
        <time>2021-02-17T09:53:10Z</time>
      </trkpt>
      <trkpt lat="45.28751" lon="6.14939">
        <ele>2307.9</ele>
        <time>2021-02-17T09:53:11Z</time>
      </trkpt>
      <trkpt lat="45.28752" lon="6.14939">
        <ele>2307.9</ele>
        <time>2021-02-17T09:53:12Z</time>
      </trkpt>
      <trkpt lat="45.28753" lon="6.14939">
        <ele>2307.9</ele>
        <time>2021-02-17T09:53:13Z</time>
      </trkpt>
      <trkpt lat="45.28753" lon="6.14939">
        <ele>2307.9</ele>
        <time>2021-02-17T09:53:14Z</time>
      </trkpt>
      <trkpt lat="45.28754" lon="6.14939">
        <ele>2307.9</ele>
        <time>2021-02-17T09:53:15Z</time>
      </trkpt>
      <trkpt lat="45.28755" lon="6.14939">
        <ele>2308.8</ele>
        <time>2021-02-17T09:53:16Z</time>
      </trkpt>
      <trkpt lat="45.28756" lon="6.14939">
        <ele>2308.8</ele>
        <time>2021-02-17T09:53:17Z</time>
      </trkpt>
      <trkpt lat="45.28757" lon="6.14939">
        <ele>2308.8</ele>
        <time>2021-02-17T09:53:18Z</time>
      </trkpt>
      <trkpt lat="45.28759" lon="6.14939">
        <ele>2309.8</ele>
        <time>2021-02-17T09:53:19Z</time>
      </trkpt>
      <trkpt lat="45.2876" lon="6.14938">
        <ele>2309.8</ele>
        <time>2021-02-17T09:53:20Z</time>
      </trkpt>
      <trkpt lat="45.2876" lon="6.14938">
        <ele>2310.7</ele>
        <time>2021-02-17T09:53:21Z</time>
      </trkpt>
      <trkpt lat="45.28761" lon="6.14938">
        <ele>2310.7</ele>
        <time>2021-02-17T09:53:22Z</time>
      </trkpt>
      <trkpt lat="45.28762" lon="6.14939">
        <ele>2310.7</ele>
        <time>2021-02-17T09:53:23Z</time>
      </trkpt>
      <trkpt lat="45.28762" lon="6.14939">
        <ele>2310.7</ele>
        <time>2021-02-17T09:53:24Z</time>
      </trkpt>
      <trkpt lat="45.28763" lon="6.14938">
        <ele>2310.7</ele>
        <time>2021-02-17T09:53:25Z</time>
      </trkpt>
      <trkpt lat="45.28764" lon="6.14938">
        <ele>2311.5</ele>
        <time>2021-02-17T09:53:26Z</time>
      </trkpt>
      <trkpt lat="45.28764" lon="6.14938">
        <ele>2313.7</ele>
        <time>2021-02-17T09:53:27Z</time>
      </trkpt>
      <trkpt lat="45.28765" lon="6.14938">
        <ele>2313.7</ele>
        <time>2021-02-17T09:53:28Z</time>
      </trkpt>
      <trkpt lat="45.28766" lon="6.14938">
        <ele>2313.7</ele>
        <time>2021-02-17T09:53:29Z</time>
      </trkpt>
      <trkpt lat="45.28767" lon="6.14938">
        <ele>2314.5</ele>
        <time>2021-02-17T09:53:30Z</time>
      </trkpt>
      <trkpt lat="45.28767" lon="6.14938">
        <ele>2314.5</ele>
        <time>2021-02-17T09:53:31Z</time>
      </trkpt>
      <trkpt lat="45.28768" lon="6.14938">
        <ele>2314.5</ele>
        <time>2021-02-17T09:53:32Z</time>
      </trkpt>
      <trkpt lat="45.28768" lon="6.14938">
        <ele>2314.5</ele>
        <time>2021-02-17T09:53:33Z</time>
      </trkpt>
      <trkpt lat="45.28768" lon="6.14938">
        <ele>2314.5</ele>
        <time>2021-02-17T09:53:34Z</time>
      </trkpt>
      <trkpt lat="45.28769" lon="6.14937">
        <ele>2314.5</ele>
        <time>2021-02-17T09:53:35Z</time>
      </trkpt>
      <trkpt lat="45.28768" lon="6.14937">
        <ele>2314.5</ele>
        <time>2021-02-17T09:53:36Z</time>
      </trkpt>
      <trkpt lat="45.28767" lon="6.14937">
        <ele>2314.5</ele>
        <time>2021-02-17T09:53:37Z</time>
      </trkpt>
      <trkpt lat="45.28767" lon="6.14936">
        <ele>2314.5</ele>
        <time>2021-02-17T09:53:38Z</time>
      </trkpt>
      <trkpt lat="45.28765" lon="6.14936">
        <ele>2313.7</ele>
        <time>2021-02-17T09:53:39Z</time>
      </trkpt>
      <trkpt lat="45.28764" lon="6.14936">
        <ele>2313.7</ele>
        <time>2021-02-17T09:53:40Z</time>
      </trkpt>
      <trkpt lat="45.28764" lon="6.14935">
        <ele>2313.7</ele>
        <time>2021-02-17T09:53:41Z</time>
      </trkpt>
      <trkpt lat="45.28763" lon="6.14935">
        <ele>2313.7</ele>
        <time>2021-02-17T09:53:42Z</time>
      </trkpt>
      <trkpt lat="45.28763" lon="6.14934">
        <ele>2312.9</ele>
        <time>2021-02-17T09:53:43Z</time>
      </trkpt>
      <trkpt lat="45.28762" lon="6.14934">
        <ele>2315.1</ele>
        <time>2021-02-17T09:53:44Z</time>
      </trkpt>
      <trkpt lat="45.28762" lon="6.14933">
        <ele>2315.1</ele>
        <time>2021-02-17T09:53:45Z</time>
      </trkpt>
      <trkpt lat="45.28761" lon="6.14933">
        <ele>2315.1</ele>
        <time>2021-02-17T09:53:46Z</time>
      </trkpt>
      <trkpt lat="45.28761" lon="6.14932">
        <ele>2315.1</ele>
        <time>2021-02-17T09:53:47Z</time>
      </trkpt>
      <trkpt lat="45.2876" lon="6.14932">
        <ele>2315.1</ele>
        <time>2021-02-17T09:53:48Z</time>
      </trkpt>
      <trkpt lat="45.2876" lon="6.14931">
        <ele>2314.2</ele>
        <time>2021-02-17T09:53:49Z</time>
      </trkpt>
      <trkpt lat="45.28759" lon="6.1493">
        <ele>2314.2</ele>
        <time>2021-02-17T09:53:50Z</time>
      </trkpt>
      <trkpt lat="45.28759" lon="6.14929">
        <ele>2316.3</ele>
        <time>2021-02-17T09:53:51Z</time>
      </trkpt>
      <trkpt lat="45.28759" lon="6.14929">
        <ele>2316.3</ele>
        <time>2021-02-17T09:53:52Z</time>
      </trkpt>
      <trkpt lat="45.28759" lon="6.14928">
        <ele>2316.3</ele>
        <time>2021-02-17T09:53:53Z</time>
      </trkpt>
      <trkpt lat="45.28758" lon="6.14927">
        <ele>2316.3</ele>
        <time>2021-02-17T09:53:54Z</time>
      </trkpt>
      <trkpt lat="45.28758" lon="6.14927">
        <ele>2316.3</ele>
        <time>2021-02-17T09:53:55Z</time>
      </trkpt>
      <trkpt lat="45.28758" lon="6.14926">
        <ele>2316.3</ele>
        <time>2021-02-17T09:53:56Z</time>
      </trkpt>
      <trkpt lat="45.28758" lon="6.14926">
        <ele>2316.3</ele>
        <time>2021-02-17T09:53:57Z</time>
      </trkpt>
      <trkpt lat="45.28757" lon="6.14925">
        <ele>2318.3</ele>
        <time>2021-02-17T09:53:58Z</time>
      </trkpt>
      <trkpt lat="45.28757" lon="6.14924">
        <ele>2318.3</ele>
        <time>2021-02-17T09:53:59Z</time>
      </trkpt>
      <trkpt lat="45.28757" lon="6.14923">
        <ele>2318.3</ele>
        <time>2021-02-17T09:54:00Z</time>
      </trkpt>
      <trkpt lat="45.28757" lon="6.14922">
        <ele>2317.4</ele>
        <time>2021-02-17T09:54:01Z</time>
      </trkpt>
      <trkpt lat="45.28757" lon="6.14921">
        <ele>2317.4</ele>
        <time>2021-02-17T09:54:02Z</time>
      </trkpt>
      <trkpt lat="45.28756" lon="6.1492">
        <ele>2319.3</ele>
        <time>2021-02-17T09:54:03Z</time>
      </trkpt>
      <trkpt lat="45.28756" lon="6.1492">
        <ele>2319.3</ele>
        <time>2021-02-17T09:54:04Z</time>
      </trkpt>
      <trkpt lat="45.28756" lon="6.14919">
        <ele>2319.3</ele>
        <time>2021-02-17T09:54:05Z</time>
      </trkpt>
      <trkpt lat="45.28756" lon="6.14918">
        <ele>2319.3</ele>
        <time>2021-02-17T09:54:06Z</time>
      </trkpt>
      <trkpt lat="45.28755" lon="6.14917">
        <ele>2319.3</ele>
        <time>2021-02-17T09:54:07Z</time>
      </trkpt>
      <trkpt lat="45.28755" lon="6.14916">
        <ele>2321.2</ele>
        <time>2021-02-17T09:54:08Z</time>
      </trkpt>
      <trkpt lat="45.28755" lon="6.14916">
        <ele>2321.2</ele>
        <time>2021-02-17T09:54:09Z</time>
      </trkpt>
      <trkpt lat="45.28754" lon="6.14915">
        <ele>2321.2</ele>
        <time>2021-02-17T09:54:10Z</time>
      </trkpt>
      <trkpt lat="45.28754" lon="6.14915">
        <ele>2320.3</ele>
        <time>2021-02-17T09:54:11Z</time>
      </trkpt>
      <trkpt lat="45.28753" lon="6.14915">
        <ele>2320.3</ele>
        <time>2021-02-17T09:54:12Z</time>
      </trkpt>
      <trkpt lat="45.28752" lon="6.14914">
        <ele>2320.3</ele>
        <time>2021-02-17T09:54:13Z</time>
      </trkpt>
      <trkpt lat="45.28752" lon="6.14914">
        <ele>2320.3</ele>
        <time>2021-02-17T09:54:14Z</time>
      </trkpt>
      <trkpt lat="45.28751" lon="6.14913">
        <ele>2320.3</ele>
        <time>2021-02-17T09:54:15Z</time>
      </trkpt>
      <trkpt lat="45.28751" lon="6.14913">
        <ele>2321.1</ele>
        <time>2021-02-17T09:54:16Z</time>
      </trkpt>
      <trkpt lat="45.2875" lon="6.14912">
        <ele>2321.1</ele>
        <time>2021-02-17T09:54:17Z</time>
      </trkpt>
      <trkpt lat="45.2875" lon="6.14911">
        <ele>2321.1</ele>
        <time>2021-02-17T09:54:18Z</time>
      </trkpt>
      <trkpt lat="45.2875" lon="6.14911">
        <ele>2321.1</ele>
        <time>2021-02-17T09:54:19Z</time>
      </trkpt>
      <trkpt lat="45.2875" lon="6.14911">
        <ele>2321.1</ele>
        <time>2021-02-17T09:54:20Z</time>
      </trkpt>
      <trkpt lat="45.2875" lon="6.14911">
        <ele>2321.1</ele>
        <time>2021-02-17T09:54:21Z</time>
      </trkpt>
      <trkpt lat="45.2875" lon="6.14911">
        <ele>2321.1</ele>
        <time>2021-02-17T09:54:22Z</time>
      </trkpt>
      <trkpt lat="45.28751" lon="6.14911">
        <ele>2321.1</ele>
        <time>2021-02-17T09:54:23Z</time>
      </trkpt>
      <trkpt lat="45.28751" lon="6.14911">
        <ele>2322.1</ele>
        <time>2021-02-17T09:54:24Z</time>
      </trkpt>
      <trkpt lat="45.28752" lon="6.14911">
        <ele>2322.1</ele>
        <time>2021-02-17T09:54:25Z</time>
      </trkpt>
      <trkpt lat="45.28752" lon="6.14911">
        <ele>2322.1</ele>
        <time>2021-02-17T09:54:26Z</time>
      </trkpt>
      <trkpt lat="45.28753" lon="6.14911">
        <ele>2322.1</ele>
        <time>2021-02-17T09:54:27Z</time>
      </trkpt>
      <trkpt lat="45.28754" lon="6.1491">
        <ele>2323.1</ele>
        <time>2021-02-17T09:54:28Z</time>
      </trkpt>
      <trkpt lat="45.28755" lon="6.1491">
        <ele>2323.1</ele>
        <time>2021-02-17T09:54:29Z</time>
      </trkpt>
      <trkpt lat="45.28756" lon="6.1491">
        <ele>2323.1</ele>
        <time>2021-02-17T09:54:30Z</time>
      </trkpt>
      <trkpt lat="45.28756" lon="6.1491">
        <ele>2323.1</ele>
        <time>2021-02-17T09:54:31Z</time>
      </trkpt>
      <trkpt lat="45.28757" lon="6.1491">
        <ele>2323.1</ele>
        <time>2021-02-17T09:54:32Z</time>
      </trkpt>
      <trkpt lat="45.28757" lon="6.1491">
        <ele>2324</ele>
        <time>2021-02-17T09:54:33Z</time>
      </trkpt>
      <trkpt lat="45.28759" lon="6.1491">
        <ele>2324</ele>
        <time>2021-02-17T09:54:34Z</time>
      </trkpt>
      <trkpt lat="45.28759" lon="6.1491">
        <ele>2324</ele>
        <time>2021-02-17T09:54:35Z</time>
      </trkpt>
      <trkpt lat="45.2876" lon="6.1491">
        <ele>2324.9</ele>
        <time>2021-02-17T09:54:36Z</time>
      </trkpt>
      <trkpt lat="45.28761" lon="6.1491">
        <ele>2324.9</ele>
        <time>2021-02-17T09:54:37Z</time>
      </trkpt>
      <trkpt lat="45.28761" lon="6.1491">
        <ele>2324.9</ele>
        <time>2021-02-17T09:54:38Z</time>
      </trkpt>
      <trkpt lat="45.28762" lon="6.14911">
        <ele>2324.9</ele>
        <time>2021-02-17T09:54:39Z</time>
      </trkpt>
      <trkpt lat="45.28762" lon="6.14911">
        <ele>2324.9</ele>
        <time>2021-02-17T09:54:40Z</time>
      </trkpt>
      <trkpt lat="45.28763" lon="6.14911">
        <ele>2325.7</ele>
        <time>2021-02-17T09:54:41Z</time>
      </trkpt>
      <trkpt lat="45.28764" lon="6.14911">
        <ele>2325.7</ele>
        <time>2021-02-17T09:54:42Z</time>
      </trkpt>
      <trkpt lat="45.28764" lon="6.14911">
        <ele>2325.7</ele>
        <time>2021-02-17T09:54:43Z</time>
      </trkpt>
      <trkpt lat="45.28764" lon="6.14911">
        <ele>2325.7</ele>
        <time>2021-02-17T09:54:44Z</time>
      </trkpt>
      <trkpt lat="45.28764" lon="6.1491">
        <ele>2325.7</ele>
        <time>2021-02-17T09:54:45Z</time>
      </trkpt>
      <trkpt lat="45.28765" lon="6.1491">
        <ele>2325.7</ele>
        <time>2021-02-17T09:54:46Z</time>
      </trkpt>
      <trkpt lat="45.28766" lon="6.1491">
        <ele>2325.7</ele>
        <time>2021-02-17T09:54:47Z</time>
      </trkpt>
      <trkpt lat="45.28767" lon="6.1491">
        <ele>2326.5</ele>
        <time>2021-02-17T09:54:48Z</time>
      </trkpt>
      <trkpt lat="45.28768" lon="6.1491">
        <ele>2326.5</ele>
        <time>2021-02-17T09:54:49Z</time>
      </trkpt>
      <trkpt lat="45.28768" lon="6.1491">
        <ele>2326.5</ele>
        <time>2021-02-17T09:54:50Z</time>
      </trkpt>
      <trkpt lat="45.28769" lon="6.1491">
        <ele>2327.3</ele>
        <time>2021-02-17T09:54:51Z</time>
      </trkpt>
      <trkpt lat="45.2877" lon="6.1491">
        <ele>2327.3</ele>
        <time>2021-02-17T09:54:52Z</time>
      </trkpt>
      <trkpt lat="45.2877" lon="6.1491">
        <ele>2327.3</ele>
        <time>2021-02-17T09:54:53Z</time>
      </trkpt>
      <trkpt lat="45.28771" lon="6.1491">
        <ele>2327.3</ele>
        <time>2021-02-17T09:54:54Z</time>
      </trkpt>
      <trkpt lat="45.28772" lon="6.14911">
        <ele>2327.3</ele>
        <time>2021-02-17T09:54:55Z</time>
      </trkpt>
      <trkpt lat="45.28773" lon="6.14911">
        <ele>2328.1</ele>
        <time>2021-02-17T09:54:56Z</time>
      </trkpt>
      <trkpt lat="45.28773" lon="6.14911">
        <ele>2328.1</ele>
        <time>2021-02-17T09:54:57Z</time>
      </trkpt>
      <trkpt lat="45.28774" lon="6.14911">
        <ele>2328.1</ele>
        <time>2021-02-17T09:54:58Z</time>
      </trkpt>
      <trkpt lat="45.28774" lon="6.14911">
        <ele>2328.1</ele>
        <time>2021-02-17T09:54:59Z</time>
      </trkpt>
      <trkpt lat="45.28775" lon="6.14911">
        <ele>2328.9</ele>
        <time>2021-02-17T09:55:00Z</time>
      </trkpt>
      <trkpt lat="45.28776" lon="6.14912">
        <ele>2328.9</ele>
        <time>2021-02-17T09:55:01Z</time>
      </trkpt>
      <trkpt lat="45.28777" lon="6.14912">
        <ele>2328.9</ele>
        <time>2021-02-17T09:55:02Z</time>
      </trkpt>
      <trkpt lat="45.28778" lon="6.14912">
        <ele>2328.9</ele>
        <time>2021-02-17T09:55:03Z</time>
      </trkpt>
      <trkpt lat="45.28778" lon="6.14913">
        <ele>2327.8</ele>
        <time>2021-02-17T09:55:04Z</time>
      </trkpt>
      <trkpt lat="45.28779" lon="6.14913">
        <ele>2327.8</ele>
        <time>2021-02-17T09:55:05Z</time>
      </trkpt>
      <trkpt lat="45.28779" lon="6.14913">
        <ele>2327.8</ele>
        <time>2021-02-17T09:55:06Z</time>
      </trkpt>
      <trkpt lat="45.2878" lon="6.14913">
        <ele>2327.8</ele>
        <time>2021-02-17T09:55:07Z</time>
      </trkpt>
      <trkpt lat="45.28781" lon="6.14913">
        <ele>2327.8</ele>
        <time>2021-02-17T09:55:08Z</time>
      </trkpt>
      <trkpt lat="45.28781" lon="6.14913">
        <ele>2328.6</ele>
        <time>2021-02-17T09:55:09Z</time>
      </trkpt>
      <trkpt lat="45.28782" lon="6.14913">
        <ele>2328.6</ele>
        <time>2021-02-17T09:55:10Z</time>
      </trkpt>
      <trkpt lat="45.28783" lon="6.14912">
        <ele>2330.5</ele>
        <time>2021-02-17T09:55:11Z</time>
      </trkpt>
      <trkpt lat="45.28783" lon="6.14912">
        <ele>2330.5</ele>
        <time>2021-02-17T09:55:12Z</time>
      </trkpt>
      <trkpt lat="45.28784" lon="6.14912">
        <ele>2330.5</ele>
        <time>2021-02-17T09:55:13Z</time>
      </trkpt>
      <trkpt lat="45.28784" lon="6.14912">
        <ele>2331.3</ele>
        <time>2021-02-17T09:55:14Z</time>
      </trkpt>
      <trkpt lat="45.28785" lon="6.14912">
        <ele>2331.3</ele>
        <time>2021-02-17T09:55:15Z</time>
      </trkpt>
      <trkpt lat="45.28785" lon="6.14912">
        <ele>2331.3</ele>
        <time>2021-02-17T09:55:16Z</time>
      </trkpt>
      <trkpt lat="45.28786" lon="6.14911">
        <ele>2331.3</ele>
        <time>2021-02-17T09:55:17Z</time>
      </trkpt>
      <trkpt lat="45.28786" lon="6.14912">
        <ele>2331.3</ele>
        <time>2021-02-17T09:55:18Z</time>
      </trkpt>
      <trkpt lat="45.28792" lon="6.14908">
        <ele>2334.6</ele>
        <time>2021-02-17T09:55:57Z</time>
      </trkpt>
      <trkpt lat="45.28792" lon="6.14907">
        <ele>2334.6</ele>
        <time>2021-02-17T09:55:58Z</time>
      </trkpt>
      <trkpt lat="45.28792" lon="6.14906">
        <ele>2334.6</ele>
        <time>2021-02-17T09:55:59Z</time>
      </trkpt>
      <trkpt lat="45.28792" lon="6.14905">
        <ele>2334.6</ele>
        <time>2021-02-17T09:56:00Z</time>
      </trkpt>
      <trkpt lat="45.28792" lon="6.14904">
        <ele>2334.6</ele>
        <time>2021-02-17T09:56:01Z</time>
      </trkpt>
      <trkpt lat="45.28792" lon="6.14904">
        <ele>2336.6</ele>
        <time>2021-02-17T09:56:02Z</time>
      </trkpt>
      <trkpt lat="45.28792" lon="6.14903">
        <ele>2336.6</ele>
        <time>2021-02-17T09:56:03Z</time>
      </trkpt>
      <trkpt lat="45.28792" lon="6.14902">
        <ele>2336.6</ele>
        <time>2021-02-17T09:56:04Z</time>
      </trkpt>
      <trkpt lat="45.28792" lon="6.14901">
        <ele>2336.6</ele>
        <time>2021-02-17T09:56:05Z</time>
      </trkpt>
      <trkpt lat="45.28792" lon="6.14901">
        <ele>2336.6</ele>
        <time>2021-02-17T09:56:06Z</time>
      </trkpt>
      <trkpt lat="45.28792" lon="6.149">
        <ele>2336.6</ele>
        <time>2021-02-17T09:56:07Z</time>
      </trkpt>
      <trkpt lat="45.28791" lon="6.14899">
        <ele>2338.7</ele>
        <time>2021-02-17T09:56:08Z</time>
      </trkpt>
      <trkpt lat="45.28791" lon="6.14899">
        <ele>2338.7</ele>
        <time>2021-02-17T09:56:09Z</time>
      </trkpt>
      <trkpt lat="45.2879" lon="6.14899">
        <ele>2338.7</ele>
        <time>2021-02-17T09:56:10Z</time>
      </trkpt>
      <trkpt lat="45.2879" lon="6.14898">
        <ele>2338</ele>
        <time>2021-02-17T09:56:11Z</time>
      </trkpt>
      <trkpt lat="45.2879" lon="6.14898">
        <ele>2338</ele>
        <time>2021-02-17T09:56:12Z</time>
      </trkpt>
      <trkpt lat="45.2879" lon="6.14897">
        <ele>2338</ele>
        <time>2021-02-17T09:56:13Z</time>
      </trkpt>
      <trkpt lat="45.28789" lon="6.14897">
        <ele>2338</ele>
        <time>2021-02-17T09:56:14Z</time>
      </trkpt>
      <trkpt lat="45.28789" lon="6.14896">
        <ele>2338</ele>
        <time>2021-02-17T09:56:15Z</time>
      </trkpt>
      <trkpt lat="45.28789" lon="6.14895">
        <ele>2338</ele>
        <time>2021-02-17T09:56:16Z</time>
      </trkpt>
      <trkpt lat="45.28789" lon="6.14895">
        <ele>2340.1</ele>
        <time>2021-02-17T09:56:17Z</time>
      </trkpt>
      <trkpt lat="45.28789" lon="6.14894">
        <ele>2340.1</ele>
        <time>2021-02-17T09:56:18Z</time>
      </trkpt>
      <trkpt lat="45.28789" lon="6.14894">
        <ele>2340.1</ele>
        <time>2021-02-17T09:56:19Z</time>
      </trkpt>
      <trkpt lat="45.28788" lon="6.14893">
        <ele>2340.1</ele>
        <time>2021-02-17T09:56:20Z</time>
      </trkpt>
      <trkpt lat="45.28788" lon="6.14893">
        <ele>2340.1</ele>
        <time>2021-02-17T09:56:21Z</time>
      </trkpt>
      <trkpt lat="45.28787" lon="6.14892">
        <ele>2340.1</ele>
        <time>2021-02-17T09:56:22Z</time>
      </trkpt>
      <trkpt lat="45.28787" lon="6.14891">
        <ele>2342.2</ele>
        <time>2021-02-17T09:56:23Z</time>
      </trkpt>
      <trkpt lat="45.28787" lon="6.1489">
        <ele>2341.4</ele>
        <time>2021-02-17T09:56:24Z</time>
      </trkpt>
      <trkpt lat="45.28786" lon="6.14889">
        <ele>2341.4</ele>
        <time>2021-02-17T09:56:25Z</time>
      </trkpt>
      <trkpt lat="45.28786" lon="6.14888">
        <ele>2341.4</ele>
        <time>2021-02-17T09:56:26Z</time>
      </trkpt>
      <trkpt lat="45.28786" lon="6.14887">
        <ele>2341.4</ele>
        <time>2021-02-17T09:56:27Z</time>
      </trkpt>
      <trkpt lat="45.28785" lon="6.14886">
        <ele>2343.4</ele>
        <time>2021-02-17T09:56:28Z</time>
      </trkpt>
      <trkpt lat="45.28785" lon="6.14885">
        <ele>2343.4</ele>
        <time>2021-02-17T09:56:29Z</time>
      </trkpt>
      <trkpt lat="45.28785" lon="6.14884">
        <ele>2343.4</ele>
        <time>2021-02-17T09:56:30Z</time>
      </trkpt>
      <trkpt lat="45.28785" lon="6.14883">
        <ele>2343.4</ele>
        <time>2021-02-17T09:56:31Z</time>
      </trkpt>
      <trkpt lat="45.28785" lon="6.14882">
        <ele>2345.2</ele>
        <time>2021-02-17T09:56:32Z</time>
      </trkpt>
      <trkpt lat="45.28784" lon="6.14881">
        <ele>2345.2</ele>
        <time>2021-02-17T09:56:33Z</time>
      </trkpt>
      <trkpt lat="45.28784" lon="6.1488">
        <ele>2344.4</ele>
        <time>2021-02-17T09:56:34Z</time>
      </trkpt>
      <trkpt lat="45.28784" lon="6.14879">
        <ele>2344.4</ele>
        <time>2021-02-17T09:56:35Z</time>
      </trkpt>
      <trkpt lat="45.28783" lon="6.14877">
        <ele>2346.1</ele>
        <time>2021-02-17T09:56:36Z</time>
      </trkpt>
      <trkpt lat="45.28783" lon="6.14876">
        <ele>2346.1</ele>
        <time>2021-02-17T09:56:37Z</time>
      </trkpt>
      <trkpt lat="45.28783" lon="6.14875">
        <ele>2346.1</ele>
        <time>2021-02-17T09:56:38Z</time>
      </trkpt>
      <trkpt lat="45.28783" lon="6.14874">
        <ele>2346.1</ele>
        <time>2021-02-17T09:56:39Z</time>
      </trkpt>
      <trkpt lat="45.28782" lon="6.14873">
        <ele>2347.7</ele>
        <time>2021-02-17T09:56:40Z</time>
      </trkpt>
      <trkpt lat="45.28782" lon="6.14872">
        <ele>2347.7</ele>
        <time>2021-02-17T09:56:41Z</time>
      </trkpt>
      <trkpt lat="45.28782" lon="6.14871">
        <ele>2347.7</ele>
        <time>2021-02-17T09:56:42Z</time>
      </trkpt>
      <trkpt lat="45.28782" lon="6.1487">
        <ele>2347.7</ele>
        <time>2021-02-17T09:56:43Z</time>
      </trkpt>
      <trkpt lat="45.28782" lon="6.14869">
        <ele>2349.3</ele>
        <time>2021-02-17T09:56:44Z</time>
      </trkpt>
      <trkpt lat="45.28781" lon="6.14868">
        <ele>2349.3</ele>
        <time>2021-02-17T09:56:45Z</time>
      </trkpt>
      <trkpt lat="45.28781" lon="6.14866">
        <ele>2349.3</ele>
        <time>2021-02-17T09:56:46Z</time>
      </trkpt>
      <trkpt lat="45.28781" lon="6.14865">
        <ele>2350.1</ele>
        <time>2021-02-17T09:56:47Z</time>
      </trkpt>
      <trkpt lat="45.28781" lon="6.14864">
        <ele>2350.1</ele>
        <time>2021-02-17T09:56:48Z</time>
      </trkpt>
      <trkpt lat="45.28781" lon="6.14863">
        <ele>2350.1</ele>
        <time>2021-02-17T09:56:49Z</time>
      </trkpt>
      <trkpt lat="45.28781" lon="6.14862">
        <ele>2350.1</ele>
        <time>2021-02-17T09:56:50Z</time>
      </trkpt>
      <trkpt lat="45.28781" lon="6.14862">
        <ele>2350.1</ele>
        <time>2021-02-17T09:56:51Z</time>
      </trkpt>
      <trkpt lat="45.28781" lon="6.14861">
        <ele>2351.7</ele>
        <time>2021-02-17T09:56:52Z</time>
      </trkpt>
      <trkpt lat="45.28781" lon="6.1486">
        <ele>2351.7</ele>
        <time>2021-02-17T09:56:53Z</time>
      </trkpt>
      <trkpt lat="45.28781" lon="6.14859">
        <ele>2351.7</ele>
        <time>2021-02-17T09:56:54Z</time>
      </trkpt>
      <trkpt lat="45.28781" lon="6.14858">
        <ele>2351.7</ele>
        <time>2021-02-17T09:56:55Z</time>
      </trkpt>
      <trkpt lat="45.28781" lon="6.14857">
        <ele>2351.7</ele>
        <time>2021-02-17T09:56:56Z</time>
      </trkpt>
      <trkpt lat="45.28781" lon="6.14856">
        <ele>2353.4</ele>
        <time>2021-02-17T09:56:57Z</time>
      </trkpt>
      <trkpt lat="45.28781" lon="6.14855">
        <ele>2353.4</ele>
        <time>2021-02-17T09:56:58Z</time>
      </trkpt>
      <trkpt lat="45.28781" lon="6.14855">
        <ele>2353.4</ele>
        <time>2021-02-17T09:56:59Z</time>
      </trkpt>
      <trkpt lat="45.28781" lon="6.14854">
        <ele>2353.4</ele>
        <time>2021-02-17T09:57:00Z</time>
      </trkpt>
      <trkpt lat="45.2878" lon="6.14853">
        <ele>2353.4</ele>
        <time>2021-02-17T09:57:01Z</time>
      </trkpt>
      <trkpt lat="45.2878" lon="6.14852">
        <ele>2355</ele>
        <time>2021-02-17T09:57:02Z</time>
      </trkpt>
      <trkpt lat="45.2878" lon="6.14851">
        <ele>2355</ele>
        <time>2021-02-17T09:57:03Z</time>
      </trkpt>
      <trkpt lat="45.2878" lon="6.1485">
        <ele>2355</ele>
        <time>2021-02-17T09:57:04Z</time>
      </trkpt>
      <trkpt lat="45.2878" lon="6.1485">
        <ele>2355</ele>
        <time>2021-02-17T09:57:05Z</time>
      </trkpt>
      <trkpt lat="45.28779" lon="6.14849">
        <ele>2355</ele>
        <time>2021-02-17T09:57:06Z</time>
      </trkpt>
      <trkpt lat="45.28779" lon="6.14849">
        <ele>2355</ele>
        <time>2021-02-17T09:57:07Z</time>
      </trkpt>
      <trkpt lat="45.28779" lon="6.14848">
        <ele>2356.5</ele>
        <time>2021-02-17T09:57:08Z</time>
      </trkpt>
      <trkpt lat="45.28779" lon="6.14847">
        <ele>2356.5</ele>
        <time>2021-02-17T09:57:09Z</time>
      </trkpt>
      <trkpt lat="45.28779" lon="6.14846">
        <ele>2356.5</ele>
        <time>2021-02-17T09:57:10Z</time>
      </trkpt>
      <trkpt lat="45.28779" lon="6.14845">
        <ele>2356.5</ele>
        <time>2021-02-17T09:57:11Z</time>
      </trkpt>
      <trkpt lat="45.28779" lon="6.14844">
        <ele>2356.5</ele>
        <time>2021-02-17T09:57:12Z</time>
      </trkpt>
      <trkpt lat="45.28779" lon="6.14843">
        <ele>2358</ele>
        <time>2021-02-17T09:57:13Z</time>
      </trkpt>
      <trkpt lat="45.28779" lon="6.14842">
        <ele>2358</ele>
        <time>2021-02-17T09:57:14Z</time>
      </trkpt>
      <trkpt lat="45.28779" lon="6.14842">
        <ele>2358</ele>
        <time>2021-02-17T09:57:15Z</time>
      </trkpt>
      <trkpt lat="45.28779" lon="6.14841">
        <ele>2358</ele>
        <time>2021-02-17T09:57:16Z</time>
      </trkpt>
      <trkpt lat="45.28779" lon="6.14841">
        <ele>2358</ele>
        <time>2021-02-17T09:57:17Z</time>
      </trkpt>
      <trkpt lat="45.28779" lon="6.1484">
        <ele>2358</ele>
        <time>2021-02-17T09:57:18Z</time>
      </trkpt>
      <trkpt lat="45.28779" lon="6.1484">
        <ele>2359.3</ele>
        <time>2021-02-17T09:57:19Z</time>
      </trkpt>
      <trkpt lat="45.28779" lon="6.14839">
        <ele>2359.3</ele>
        <time>2021-02-17T09:57:20Z</time>
      </trkpt>
      <trkpt lat="45.28779" lon="6.14838">
        <ele>2359.3</ele>
        <time>2021-02-17T09:57:21Z</time>
      </trkpt>
      <trkpt lat="45.28778" lon="6.14838">
        <ele>2359.3</ele>
        <time>2021-02-17T09:57:22Z</time>
      </trkpt>
      <trkpt lat="45.28778" lon="6.14837">
        <ele>2359.3</ele>
        <time>2021-02-17T09:57:23Z</time>
      </trkpt>
      <trkpt lat="45.28778" lon="6.14836">
        <ele>2358.3</ele>
        <time>2021-02-17T09:57:24Z</time>
      </trkpt>
      <trkpt lat="45.28778" lon="6.14835">
        <ele>2358.3</ele>
        <time>2021-02-17T09:57:25Z</time>
      </trkpt>
      <trkpt lat="45.28777" lon="6.14835">
        <ele>2359.5</ele>
        <time>2021-02-17T09:57:26Z</time>
      </trkpt>
      <trkpt lat="45.28777" lon="6.14834">
        <ele>2359.5</ele>
        <time>2021-02-17T09:57:27Z</time>
      </trkpt>
      <trkpt lat="45.28777" lon="6.14833">
        <ele>2359.5</ele>
        <time>2021-02-17T09:57:28Z</time>
      </trkpt>
      <trkpt lat="45.28777" lon="6.14833">
        <ele>2359.5</ele>
        <time>2021-02-17T09:57:29Z</time>
      </trkpt>
      <trkpt lat="45.28777" lon="6.14832">
        <ele>2359.5</ele>
        <time>2021-02-17T09:57:30Z</time>
      </trkpt>
      <trkpt lat="45.28777" lon="6.14831">
        <ele>2359.5</ele>
        <time>2021-02-17T09:57:31Z</time>
      </trkpt>
      <trkpt lat="45.28778" lon="6.14829">
        <ele>2361.8</ele>
        <time>2021-02-17T09:57:33Z</time>
      </trkpt>
      <trkpt lat="45.28779" lon="6.14828">
        <ele>2361.8</ele>
        <time>2021-02-17T09:57:34Z</time>
      </trkpt>
      <trkpt lat="45.2878" lon="6.14827">
        <ele>2361.8</ele>
        <time>2021-02-17T09:57:35Z</time>
      </trkpt>
      <trkpt lat="45.2878" lon="6.14827">
        <ele>2361.8</ele>
        <time>2021-02-17T09:57:36Z</time>
      </trkpt>
      <trkpt lat="45.28781" lon="6.14826">
        <ele>2362.9</ele>
        <time>2021-02-17T09:57:37Z</time>
      </trkpt>
      <trkpt lat="45.28782" lon="6.14826">
        <ele>2364</ele>
        <time>2021-02-17T09:57:38Z</time>
      </trkpt>
      <trkpt lat="45.28783" lon="6.14825">
        <ele>2364</ele>
        <time>2021-02-17T09:57:39Z</time>
      </trkpt>
      <trkpt lat="45.28784" lon="6.14824">
        <ele>2364</ele>
        <time>2021-02-17T09:57:40Z</time>
      </trkpt>
      <trkpt lat="45.28784" lon="6.14824">
        <ele>2365</ele>
        <time>2021-02-17T09:57:41Z</time>
      </trkpt>
      <trkpt lat="45.28785" lon="6.14823">
        <ele>2365</ele>
        <time>2021-02-17T09:57:42Z</time>
      </trkpt>
      <trkpt lat="45.28786" lon="6.14823">
        <ele>2365</ele>
        <time>2021-02-17T09:57:43Z</time>
      </trkpt>
      <trkpt lat="45.28786" lon="6.14822">
        <ele>2366.1</ele>
        <time>2021-02-17T09:57:44Z</time>
      </trkpt>
      <trkpt lat="45.28787" lon="6.14822">
        <ele>2366.1</ele>
        <time>2021-02-17T09:57:45Z</time>
      </trkpt>
      <trkpt lat="45.28788" lon="6.14822">
        <ele>2367</ele>
        <time>2021-02-17T09:57:46Z</time>
      </trkpt>
      <trkpt lat="45.28788" lon="6.14822">
        <ele>2367</ele>
        <time>2021-02-17T09:57:47Z</time>
      </trkpt>
      <trkpt lat="45.28789" lon="6.14822">
        <ele>2367</ele>
        <time>2021-02-17T09:57:48Z</time>
      </trkpt>
      <trkpt lat="45.2879" lon="6.14822">
        <ele>2367</ele>
        <time>2021-02-17T09:57:49Z</time>
      </trkpt>
      <trkpt lat="45.28791" lon="6.14822">
        <ele>2366.7</ele>
        <time>2021-02-17T09:57:50Z</time>
      </trkpt>
      <trkpt lat="45.28791" lon="6.14823">
        <ele>2366.7</ele>
        <time>2021-02-17T09:57:51Z</time>
      </trkpt>
      <trkpt lat="45.28791" lon="6.14823">
        <ele>2366.7</ele>
        <time>2021-02-17T09:57:52Z</time>
      </trkpt>
      <trkpt lat="45.28792" lon="6.14823">
        <ele>2366.7</ele>
        <time>2021-02-17T09:57:53Z</time>
      </trkpt>
      <trkpt lat="45.28792" lon="6.14824">
        <ele>2366.7</ele>
        <time>2021-02-17T09:57:54Z</time>
      </trkpt>
      <trkpt lat="45.28792" lon="6.14824">
        <ele>2366.7</ele>
        <time>2021-02-17T09:57:55Z</time>
      </trkpt>
      <trkpt lat="45.28793" lon="6.14824">
        <ele>2366.7</ele>
        <time>2021-02-17T09:57:56Z</time>
      </trkpt>
      <trkpt lat="45.28793" lon="6.14824">
        <ele>2366.7</ele>
        <time>2021-02-17T09:57:57Z</time>
      </trkpt>
      <trkpt lat="45.28793" lon="6.14825">
        <ele>2367.5</ele>
        <time>2021-02-17T09:57:58Z</time>
      </trkpt>
      <trkpt lat="45.28794" lon="6.14825">
        <ele>2367.5</ele>
        <time>2021-02-17T09:57:59Z</time>
      </trkpt>
      <trkpt lat="45.28794" lon="6.14826">
        <ele>2367.5</ele>
        <time>2021-02-17T09:58:00Z</time>
      </trkpt>
      <trkpt lat="45.28795" lon="6.14826">
        <ele>2367.5</ele>
        <time>2021-02-17T09:58:01Z</time>
      </trkpt>
      <trkpt lat="45.28795" lon="6.14826">
        <ele>2367.5</ele>
        <time>2021-02-17T09:58:02Z</time>
      </trkpt>
      <trkpt lat="45.28795" lon="6.14827">
        <ele>2367.5</ele>
        <time>2021-02-17T09:58:03Z</time>
      </trkpt>
      <trkpt lat="45.28795" lon="6.14827">
        <ele>2366.2</ele>
        <time>2021-02-17T09:58:04Z</time>
      </trkpt>
      <trkpt lat="45.28796" lon="6.14828">
        <ele>2366.2</ele>
        <time>2021-02-17T09:58:05Z</time>
      </trkpt>
      <trkpt lat="45.28796" lon="6.14829">
        <ele>2366.2</ele>
        <time>2021-02-17T09:58:06Z</time>
      </trkpt>
      <trkpt lat="45.28797" lon="6.14829">
        <ele>2367</ele>
        <time>2021-02-17T09:58:07Z</time>
      </trkpt>
      <trkpt lat="45.28797" lon="6.14829">
        <ele>2367</ele>
        <time>2021-02-17T09:58:08Z</time>
      </trkpt>
      <trkpt lat="45.28798" lon="6.1483">
        <ele>2367</ele>
        <time>2021-02-17T09:58:09Z</time>
      </trkpt>
      <trkpt lat="45.28798" lon="6.1483">
        <ele>2367</ele>
        <time>2021-02-17T09:58:10Z</time>
      </trkpt>
      <trkpt lat="45.28798" lon="6.14831">
        <ele>2365.7</ele>
        <time>2021-02-17T09:58:11Z</time>
      </trkpt>
      <trkpt lat="45.28799" lon="6.14832">
        <ele>2365.7</ele>
        <time>2021-02-17T09:58:12Z</time>
      </trkpt>
      <trkpt lat="45.28799" lon="6.14832">
        <ele>2365.7</ele>
        <time>2021-02-17T09:58:13Z</time>
      </trkpt>
      <trkpt lat="45.28799" lon="6.14832">
        <ele>2366.4</ele>
        <time>2021-02-17T09:58:14Z</time>
      </trkpt>
      <trkpt lat="45.288" lon="6.14833">
        <ele>2366.4</ele>
        <time>2021-02-17T09:58:15Z</time>
      </trkpt>
      <trkpt lat="45.288" lon="6.14833">
        <ele>2366.4</ele>
        <time>2021-02-17T09:58:16Z</time>
      </trkpt>
      <trkpt lat="45.288" lon="6.14834">
        <ele>2366.4</ele>
        <time>2021-02-17T09:58:17Z</time>
      </trkpt>
      <trkpt lat="45.288" lon="6.14834">
        <ele>2366.4</ele>
        <time>2021-02-17T09:58:18Z</time>
      </trkpt>
      <trkpt lat="45.28801" lon="6.14834">
        <ele>2366.4</ele>
        <time>2021-02-17T09:58:19Z</time>
      </trkpt>
      <trkpt lat="45.28801" lon="6.14834">
        <ele>2366.4</ele>
        <time>2021-02-17T09:58:20Z</time>
      </trkpt>
      <trkpt lat="45.28802" lon="6.14835">
        <ele>2366.4</ele>
        <time>2021-02-17T09:58:21Z</time>
      </trkpt>
      <trkpt lat="45.28803" lon="6.14835">
        <ele>2367.3</ele>
        <time>2021-02-17T09:58:22Z</time>
      </trkpt>
      <trkpt lat="45.28803" lon="6.14836">
        <ele>2365.8</ele>
        <time>2021-02-17T09:58:23Z</time>
      </trkpt>
      <trkpt lat="45.28804" lon="6.14836">
        <ele>2365.8</ele>
        <time>2021-02-17T09:58:24Z</time>
      </trkpt>
      <trkpt lat="45.28804" lon="6.14836">
        <ele>2365.8</ele>
        <time>2021-02-17T09:58:25Z</time>
      </trkpt>
      <trkpt lat="45.28805" lon="6.14837">
        <ele>2365.8</ele>
        <time>2021-02-17T09:58:26Z</time>
      </trkpt>
      <trkpt lat="45.28806" lon="6.14837">
        <ele>2366.6</ele>
        <time>2021-02-17T09:58:27Z</time>
      </trkpt>
      <trkpt lat="45.28807" lon="6.14838">
        <ele>2366.6</ele>
        <time>2021-02-17T09:58:28Z</time>
      </trkpt>
      <trkpt lat="45.28807" lon="6.14838">
        <ele>2366.6</ele>
        <time>2021-02-17T09:58:29Z</time>
      </trkpt>
      <trkpt lat="45.28808" lon="6.14838">
        <ele>2366.6</ele>
        <time>2021-02-17T09:58:30Z</time>
      </trkpt>
      <trkpt lat="45.28808" lon="6.14839">
        <ele>2366.6</ele>
        <time>2021-02-17T09:58:31Z</time>
      </trkpt>
      <trkpt lat="45.28809" lon="6.14839">
        <ele>2367.4</ele>
        <time>2021-02-17T09:58:32Z</time>
      </trkpt>
      <trkpt lat="45.28809" lon="6.14839">
        <ele>2367.4</ele>
        <time>2021-02-17T09:58:33Z</time>
      </trkpt>
      <trkpt lat="45.2881" lon="6.14839">
        <ele>2367.4</ele>
        <time>2021-02-17T09:58:34Z</time>
      </trkpt>
      <trkpt lat="45.2881" lon="6.14839">
        <ele>2367.4</ele>
        <time>2021-02-17T09:58:35Z</time>
      </trkpt>
      <trkpt lat="45.28811" lon="6.1484">
        <ele>2367.4</ele>
        <time>2021-02-17T09:58:36Z</time>
      </trkpt>
      <trkpt lat="45.28812" lon="6.1484">
        <ele>2366.6</ele>
        <time>2021-02-17T09:58:37Z</time>
      </trkpt>
      <trkpt lat="45.28812" lon="6.1484">
        <ele>2366.6</ele>
        <time>2021-02-17T09:58:38Z</time>
      </trkpt>
      <trkpt lat="45.28813" lon="6.1484">
        <ele>2366.6</ele>
        <time>2021-02-17T09:58:39Z</time>
      </trkpt>
      <trkpt lat="45.28813" lon="6.14841">
        <ele>2366.6</ele>
        <time>2021-02-17T09:58:40Z</time>
      </trkpt>
      <trkpt lat="45.28814" lon="6.14841">
        <ele>2366.6</ele>
        <time>2021-02-17T09:58:41Z</time>
      </trkpt>
      <trkpt lat="45.28814" lon="6.14841">
        <ele>2367.2</ele>
        <time>2021-02-17T09:58:42Z</time>
      </trkpt>
      <trkpt lat="45.28815" lon="6.14842">
        <ele>2367.2</ele>
        <time>2021-02-17T09:58:43Z</time>
      </trkpt>
      <trkpt lat="45.28815" lon="6.14842">
        <ele>2367.2</ele>
        <time>2021-02-17T09:58:44Z</time>
      </trkpt>
      <trkpt lat="45.28815" lon="6.14842">
        <ele>2367.2</ele>
        <time>2021-02-17T09:58:45Z</time>
      </trkpt>
      <trkpt lat="45.28815" lon="6.14842">
        <ele>2367.2</ele>
        <time>2021-02-17T09:58:46Z</time>
      </trkpt>
      <trkpt lat="45.28815" lon="6.14842">
        <ele>2367.2</ele>
        <time>2021-02-17T09:58:47Z</time>
      </trkpt>
      <trkpt lat="45.28815" lon="6.14842">
        <ele>2367.2</ele>
        <time>2021-02-17T09:58:48Z</time>
      </trkpt>
      <trkpt lat="45.28815" lon="6.14842">
        <ele>2367.2</ele>
        <time>2021-02-17T09:58:49Z</time>
      </trkpt>
      <trkpt lat="45.28815" lon="6.14842">
        <ele>2367.2</ele>
        <time>2021-02-17T09:58:50Z</time>
      </trkpt>
      <trkpt lat="45.28815" lon="6.14842">
        <ele>2367.2</ele>
        <time>2021-02-17T09:58:51Z</time>
      </trkpt>
      <trkpt lat="45.28815" lon="6.14842">
        <ele>2367.2</ele>
        <time>2021-02-17T09:58:52Z</time>
      </trkpt>
      <trkpt lat="45.28818" lon="6.14843">
        <ele>2367.8</ele>
        <time>2021-02-17T09:58:58Z</time>
      </trkpt>
      <trkpt lat="45.28819" lon="6.14844">
        <ele>2367.8</ele>
        <time>2021-02-17T09:58:59Z</time>
      </trkpt>
      <trkpt lat="45.28819" lon="6.14844">
        <ele>2366.1</ele>
        <time>2021-02-17T09:59:00Z</time>
      </trkpt>
      <trkpt lat="45.2882" lon="6.14845">
        <ele>2366.1</ele>
        <time>2021-02-17T09:59:01Z</time>
      </trkpt>
      <trkpt lat="45.28821" lon="6.14845">
        <ele>2366.7</ele>
        <time>2021-02-17T09:59:02Z</time>
      </trkpt>
      <trkpt lat="45.28822" lon="6.14845">
        <ele>2366.7</ele>
        <time>2021-02-17T09:59:03Z</time>
      </trkpt>
      <trkpt lat="45.28822" lon="6.14846">
        <ele>2366.7</ele>
        <time>2021-02-17T09:59:04Z</time>
      </trkpt>
      <trkpt lat="45.28823" lon="6.14846">
        <ele>2366.7</ele>
        <time>2021-02-17T09:59:05Z</time>
      </trkpt>
      <trkpt lat="45.28823" lon="6.14847">
        <ele>2366.7</ele>
        <time>2021-02-17T09:59:06Z</time>
      </trkpt>
      <trkpt lat="45.28824" lon="6.14847">
        <ele>2367.4</ele>
        <time>2021-02-17T09:59:07Z</time>
      </trkpt>
      <trkpt lat="45.28825" lon="6.14848">
        <ele>2367.4</ele>
        <time>2021-02-17T09:59:08Z</time>
      </trkpt>
      <trkpt lat="45.28825" lon="6.14848">
        <ele>2365.6</ele>
        <time>2021-02-17T09:59:09Z</time>
      </trkpt>
      <trkpt lat="45.28826" lon="6.14849">
        <ele>2365.6</ele>
        <time>2021-02-17T09:59:10Z</time>
      </trkpt>
      <trkpt lat="45.28826" lon="6.14849">
        <ele>2366.3</ele>
        <time>2021-02-17T09:59:11Z</time>
      </trkpt>
      <trkpt lat="45.28827" lon="6.14848">
        <ele>2366.3</ele>
        <time>2021-02-17T09:59:12Z</time>
      </trkpt>
      <trkpt lat="45.28827" lon="6.14848">
        <ele>2368.1</ele>
        <time>2021-02-17T09:59:13Z</time>
      </trkpt>
      <trkpt lat="45.28827" lon="6.14847">
        <ele>2368.1</ele>
        <time>2021-02-17T09:59:14Z</time>
      </trkpt>
      <trkpt lat="45.28827" lon="6.14847">
        <ele>2368.1</ele>
        <time>2021-02-17T09:59:15Z</time>
      </trkpt>
      <trkpt lat="45.28827" lon="6.14846">
        <ele>2368.1</ele>
        <time>2021-02-17T09:59:16Z</time>
      </trkpt>
      <trkpt lat="45.28827" lon="6.14845">
        <ele>2368.1</ele>
        <time>2021-02-17T09:59:17Z</time>
      </trkpt>
      <trkpt lat="45.28827" lon="6.14845">
        <ele>2368.1</ele>
        <time>2021-02-17T09:59:18Z</time>
      </trkpt>
      <trkpt lat="45.28827" lon="6.14844">
        <ele>2368.1</ele>
        <time>2021-02-17T09:59:19Z</time>
      </trkpt>
      <trkpt lat="45.28827" lon="6.14843">
        <ele>2369.8</ele>
        <time>2021-02-17T09:59:20Z</time>
      </trkpt>
      <trkpt lat="45.28827" lon="6.14843">
        <ele>2369.8</ele>
        <time>2021-02-17T09:59:21Z</time>
      </trkpt>
      <trkpt lat="45.28827" lon="6.14842">
        <ele>2369.8</ele>
        <time>2021-02-17T09:59:22Z</time>
      </trkpt>
      <trkpt lat="45.28828" lon="6.14842">
        <ele>2369.8</ele>
        <time>2021-02-17T09:59:33Z</time>
      </trkpt>
      <trkpt lat="45.28828" lon="6.14841">
        <ele>2369.8</ele>
        <time>2021-02-17T09:59:34Z</time>
      </trkpt>
      <trkpt lat="45.28828" lon="6.1484">
        <ele>2369.8</ele>
        <time>2021-02-17T09:59:35Z</time>
      </trkpt>
      <trkpt lat="45.28828" lon="6.1484">
        <ele>2369.8</ele>
        <time>2021-02-17T09:59:36Z</time>
      </trkpt>
      <trkpt lat="45.28828" lon="6.14839">
        <ele>2371.4</ele>
        <time>2021-02-17T09:59:37Z</time>
      </trkpt>
      <trkpt lat="45.28828" lon="6.14839">
        <ele>2371.4</ele>
        <time>2021-02-17T09:59:38Z</time>
      </trkpt>
      <trkpt lat="45.28828" lon="6.14838">
        <ele>2371.4</ele>
        <time>2021-02-17T09:59:39Z</time>
      </trkpt>
      <trkpt lat="45.28828" lon="6.14837">
        <ele>2371.4</ele>
        <time>2021-02-17T09:59:40Z</time>
      </trkpt>
      <trkpt lat="45.28828" lon="6.14837">
        <ele>2371.4</ele>
        <time>2021-02-17T09:59:41Z</time>
      </trkpt>
      <trkpt lat="45.28828" lon="6.14836">
        <ele>2371.4</ele>
        <time>2021-02-17T09:59:42Z</time>
      </trkpt>
      <trkpt lat="45.28828" lon="6.14835">
        <ele>2371.4</ele>
        <time>2021-02-17T10:00:06Z</time>
      </trkpt>
      <trkpt lat="45.28829" lon="6.14835">
        <ele>2373</ele>
        <time>2021-02-17T10:00:07Z</time>
      </trkpt>
      <trkpt lat="45.28829" lon="6.14834">
        <ele>2373</ele>
        <time>2021-02-17T10:00:08Z</time>
      </trkpt>
      <trkpt lat="45.28829" lon="6.14834">
        <ele>2373</ele>
        <time>2021-02-17T10:00:09Z</time>
      </trkpt>
      <trkpt lat="45.28829" lon="6.14833">
        <ele>2373</ele>
        <time>2021-02-17T10:00:10Z</time>
      </trkpt>
      <trkpt lat="45.28829" lon="6.14832">
        <ele>2373</ele>
        <time>2021-02-17T10:00:11Z</time>
      </trkpt>
      <trkpt lat="45.28829" lon="6.14831">
        <ele>2374.5</ele>
        <time>2021-02-17T10:00:12Z</time>
      </trkpt>
      <trkpt lat="45.28829" lon="6.1483">
        <ele>2374.5</ele>
        <time>2021-02-17T10:00:13Z</time>
      </trkpt>
      <trkpt lat="45.28828" lon="6.14829">
        <ele>2374.5</ele>
        <time>2021-02-17T10:00:14Z</time>
      </trkpt>
      <trkpt lat="45.28828" lon="6.14827">
        <ele>2374.5</ele>
        <time>2021-02-17T10:00:15Z</time>
      </trkpt>
      <trkpt lat="45.28828" lon="6.14827">
        <ele>2376</ele>
        <time>2021-02-17T10:00:16Z</time>
      </trkpt>
      <trkpt lat="45.28828" lon="6.14825">
        <ele>2376</ele>
        <time>2021-02-17T10:00:17Z</time>
      </trkpt>
      <trkpt lat="45.28828" lon="6.14824">
        <ele>2376</ele>
        <time>2021-02-17T10:00:18Z</time>
      </trkpt>
      <trkpt lat="45.28827" lon="6.14823">
        <ele>2376</ele>
        <time>2021-02-17T10:00:19Z</time>
      </trkpt>
      <trkpt lat="45.28827" lon="6.14822">
        <ele>2377.4</ele>
        <time>2021-02-17T10:00:20Z</time>
      </trkpt>
      <trkpt lat="45.28827" lon="6.14821">
        <ele>2377.4</ele>
        <time>2021-02-17T10:00:21Z</time>
      </trkpt>
      <trkpt lat="45.28827" lon="6.1482">
        <ele>2377.4</ele>
        <time>2021-02-17T10:00:22Z</time>
      </trkpt>
      <trkpt lat="45.28827" lon="6.14819">
        <ele>2377.4</ele>
        <time>2021-02-17T10:00:23Z</time>
      </trkpt>
      <trkpt lat="45.28826" lon="6.14818">
        <ele>2376.7</ele>
        <time>2021-02-17T10:00:24Z</time>
      </trkpt>
      <trkpt lat="45.28826" lon="6.14817">
        <ele>2378.1</ele>
        <time>2021-02-17T10:00:25Z</time>
      </trkpt>
      <trkpt lat="45.28826" lon="6.14816">
        <ele>2378.1</ele>
        <time>2021-02-17T10:00:26Z</time>
      </trkpt>
      <trkpt lat="45.28825" lon="6.14816">
        <ele>2378.1</ele>
        <time>2021-02-17T10:00:27Z</time>
      </trkpt>
      <trkpt lat="45.28825" lon="6.14815">
        <ele>2378.1</ele>
        <time>2021-02-17T10:00:28Z</time>
      </trkpt>
      <trkpt lat="45.28825" lon="6.14815">
        <ele>2378.1</ele>
        <time>2021-02-17T10:00:29Z</time>
      </trkpt>
      <trkpt lat="45.28825" lon="6.14814">
        <ele>2378.1</ele>
        <time>2021-02-17T10:00:30Z</time>
      </trkpt>
      <trkpt lat="45.28825" lon="6.14814">
        <ele>2379.6</ele>
        <time>2021-02-17T10:00:31Z</time>
      </trkpt>
      <trkpt lat="45.28825" lon="6.14813">
        <ele>2379.6</ele>
        <time>2021-02-17T10:00:32Z</time>
      </trkpt>
      <trkpt lat="45.28825" lon="6.14813">
        <ele>2379.6</ele>
        <time>2021-02-17T10:00:33Z</time>
      </trkpt>
      <trkpt lat="45.28825" lon="6.14813">
        <ele>2379.6</ele>
        <time>2021-02-17T10:00:34Z</time>
      </trkpt>
      <trkpt lat="45.28825" lon="6.14813">
        <ele>2379.6</ele>
        <time>2021-02-17T10:00:35Z</time>
      </trkpt>
      <trkpt lat="45.28824" lon="6.14807">
        <ele>2381.2</ele>
        <time>2021-02-17T10:00:42Z</time>
      </trkpt>
      <trkpt lat="45.28824" lon="6.14806">
        <ele>2381.2</ele>
        <time>2021-02-17T10:00:43Z</time>
      </trkpt>
      <trkpt lat="45.28824" lon="6.14805">
        <ele>2382.7</ele>
        <time>2021-02-17T10:00:44Z</time>
      </trkpt>
      <trkpt lat="45.28824" lon="6.14803">
        <ele>2382.7</ele>
        <time>2021-02-17T10:00:45Z</time>
      </trkpt>
      <trkpt lat="45.28824" lon="6.14802">
        <ele>2382.7</ele>
        <time>2021-02-17T10:00:46Z</time>
      </trkpt>
      <trkpt lat="45.28824" lon="6.14801">
        <ele>2382.7</ele>
        <time>2021-02-17T10:00:47Z</time>
      </trkpt>
      <trkpt lat="45.28824" lon="6.14801">
        <ele>2382.7</ele>
        <time>2021-02-17T10:00:48Z</time>
      </trkpt>
      <trkpt lat="45.28824" lon="6.14801">
        <ele>2382.7</ele>
        <time>2021-02-17T10:00:49Z</time>
      </trkpt>
      <trkpt lat="45.28824" lon="6.14801">
        <ele>2382.7</ele>
        <time>2021-02-17T10:00:50Z</time>
      </trkpt>
      <trkpt lat="45.28824" lon="6.14799">
        <ele>2384.1</ele>
        <time>2021-02-17T10:00:51Z</time>
      </trkpt>
      <trkpt lat="45.28824" lon="6.14799">
        <ele>2384.1</ele>
        <time>2021-02-17T10:00:52Z</time>
      </trkpt>
      <trkpt lat="45.28824" lon="6.14798">
        <ele>2384.1</ele>
        <time>2021-02-17T10:00:53Z</time>
      </trkpt>
      <trkpt lat="45.28823" lon="6.14797">
        <ele>2383.3</ele>
        <time>2021-02-17T10:00:54Z</time>
      </trkpt>
      <trkpt lat="45.28823" lon="6.14797">
        <ele>2384.6</ele>
        <time>2021-02-17T10:00:55Z</time>
      </trkpt>
      <trkpt lat="45.28826" lon="6.14795">
        <ele>2385.4</ele>
        <time>2021-02-17T10:01:24Z</time>
      </trkpt>
      <trkpt lat="45.28826" lon="6.14795">
        <ele>2385.4</ele>
        <time>2021-02-17T10:01:25Z</time>
      </trkpt>
      <trkpt lat="45.28827" lon="6.14795">
        <ele>2386.2</ele>
        <time>2021-02-17T10:01:26Z</time>
      </trkpt>
      <trkpt lat="45.28827" lon="6.14796">
        <ele>2386.2</ele>
        <time>2021-02-17T10:01:27Z</time>
      </trkpt>
      <trkpt lat="45.28827" lon="6.14796">
        <ele>2386.2</ele>
        <time>2021-02-17T10:01:28Z</time>
      </trkpt>
      <trkpt lat="45.28828" lon="6.14797">
        <ele>2386.2</ele>
        <time>2021-02-17T10:01:29Z</time>
      </trkpt>
      <trkpt lat="45.28829" lon="6.14797">
        <ele>2384.9</ele>
        <time>2021-02-17T10:01:30Z</time>
      </trkpt>
      <trkpt lat="45.2883" lon="6.14797">
        <ele>2385.7</ele>
        <time>2021-02-17T10:01:31Z</time>
      </trkpt>
      <trkpt lat="45.2883" lon="6.14798">
        <ele>2385.7</ele>
        <time>2021-02-17T10:01:32Z</time>
      </trkpt>
      <trkpt lat="45.28831" lon="6.14798">
        <ele>2385.7</ele>
        <time>2021-02-17T10:01:33Z</time>
      </trkpt>
      <trkpt lat="45.28831" lon="6.14798">
        <ele>2385.7</ele>
        <time>2021-02-17T10:01:34Z</time>
      </trkpt>
      <trkpt lat="45.28832" lon="6.14799">
        <ele>2385.7</ele>
        <time>2021-02-17T10:01:35Z</time>
      </trkpt>
      <trkpt lat="45.28833" lon="6.14799">
        <ele>2386.5</ele>
        <time>2021-02-17T10:01:36Z</time>
      </trkpt>
      <trkpt lat="45.28833" lon="6.14799">
        <ele>2386.5</ele>
        <time>2021-02-17T10:01:37Z</time>
      </trkpt>
      <trkpt lat="45.28834" lon="6.14799">
        <ele>2386.5</ele>
        <time>2021-02-17T10:01:38Z</time>
      </trkpt>
      <trkpt lat="45.28835" lon="6.14799">
        <ele>2386.5</ele>
        <time>2021-02-17T10:01:39Z</time>
      </trkpt>
      <trkpt lat="45.28835" lon="6.148">
        <ele>2386.5</ele>
        <time>2021-02-17T10:01:40Z</time>
      </trkpt>
      <trkpt lat="45.28836" lon="6.148">
        <ele>2387.3</ele>
        <time>2021-02-17T10:01:41Z</time>
      </trkpt>
      <trkpt lat="45.28836" lon="6.14801">
        <ele>2387.3</ele>
        <time>2021-02-17T10:01:42Z</time>
      </trkpt>
      <trkpt lat="45.28837" lon="6.14801">
        <ele>2387.3</ele>
        <time>2021-02-17T10:01:43Z</time>
      </trkpt>
      <trkpt lat="45.28837" lon="6.14801">
        <ele>2385.8</ele>
        <time>2021-02-17T10:01:44Z</time>
      </trkpt>
      <trkpt lat="45.28838" lon="6.14802">
        <ele>2385.8</ele>
        <time>2021-02-17T10:01:45Z</time>
      </trkpt>
      <trkpt lat="45.28838" lon="6.14802">
        <ele>2385.8</ele>
        <time>2021-02-17T10:01:46Z</time>
      </trkpt>
      <trkpt lat="45.28839" lon="6.14802">
        <ele>2386.6</ele>
        <time>2021-02-17T10:01:47Z</time>
      </trkpt>
      <trkpt lat="45.2884" lon="6.14803">
        <ele>2386.6</ele>
        <time>2021-02-17T10:01:48Z</time>
      </trkpt>
      <trkpt lat="45.28841" lon="6.14803">
        <ele>2386.6</ele>
        <time>2021-02-17T10:01:49Z</time>
      </trkpt>
      <trkpt lat="45.28841" lon="6.14804">
        <ele>2386.6</ele>
        <time>2021-02-17T10:01:50Z</time>
      </trkpt>
      <trkpt lat="45.28842" lon="6.14804">
        <ele>2387.3</ele>
        <time>2021-02-17T10:01:51Z</time>
      </trkpt>
      <trkpt lat="45.28842" lon="6.14804">
        <ele>2387.3</ele>
        <time>2021-02-17T10:01:52Z</time>
      </trkpt>
      <trkpt lat="45.28843" lon="6.14804">
        <ele>2387.3</ele>
        <time>2021-02-17T10:01:53Z</time>
      </trkpt>
      <trkpt lat="45.28843" lon="6.14804">
        <ele>2387.3</ele>
        <time>2021-02-17T10:01:54Z</time>
      </trkpt>
      <trkpt lat="45.28844" lon="6.14805">
        <ele>2387.3</ele>
        <time>2021-02-17T10:01:55Z</time>
      </trkpt>
      <trkpt lat="45.28844" lon="6.14805">
        <ele>2387.3</ele>
        <time>2021-02-17T10:01:56Z</time>
      </trkpt>
      <trkpt lat="45.28845" lon="6.14805">
        <ele>2388.1</ele>
        <time>2021-02-17T10:01:57Z</time>
      </trkpt>
      <trkpt lat="45.28846" lon="6.14805">
        <ele>2386.5</ele>
        <time>2021-02-17T10:01:58Z</time>
      </trkpt>
      <trkpt lat="45.28846" lon="6.14806">
        <ele>2386.5</ele>
        <time>2021-02-17T10:01:59Z</time>
      </trkpt>
      <trkpt lat="45.28847" lon="6.14806">
        <ele>2386.5</ele>
        <time>2021-02-17T10:02:00Z</time>
      </trkpt>
      <trkpt lat="45.28848" lon="6.14806">
        <ele>2387.3</ele>
        <time>2021-02-17T10:02:01Z</time>
      </trkpt>
      <trkpt lat="45.28848" lon="6.14807">
        <ele>2387.3</ele>
        <time>2021-02-17T10:02:02Z</time>
      </trkpt>
      <trkpt lat="45.28849" lon="6.14807">
        <ele>2387.3</ele>
        <time>2021-02-17T10:02:03Z</time>
      </trkpt>
      <trkpt lat="45.28849" lon="6.14807">
        <ele>2387.3</ele>
        <time>2021-02-17T10:02:04Z</time>
      </trkpt>
      <trkpt lat="45.2885" lon="6.14808">
        <ele>2387.3</ele>
        <time>2021-02-17T10:02:05Z</time>
      </trkpt>
      <trkpt lat="45.28851" lon="6.14808">
        <ele>2388.2</ele>
        <time>2021-02-17T10:02:06Z</time>
      </trkpt>
      <trkpt lat="45.28852" lon="6.14808">
        <ele>2388.2</ele>
        <time>2021-02-17T10:02:07Z</time>
      </trkpt>
      <trkpt lat="45.28852" lon="6.14808">
        <ele>2388.2</ele>
        <time>2021-02-17T10:02:08Z</time>
      </trkpt>
      <trkpt lat="45.28853" lon="6.14808">
        <ele>2388.2</ele>
        <time>2021-02-17T10:02:09Z</time>
      </trkpt>
      <trkpt lat="45.28853" lon="6.14807">
        <ele>2388.2</ele>
        <time>2021-02-17T10:02:10Z</time>
      </trkpt>
      <trkpt lat="45.28854" lon="6.14807">
        <ele>2389.1</ele>
        <time>2021-02-17T10:02:11Z</time>
      </trkpt>
      <trkpt lat="45.28854" lon="6.14807">
        <ele>2389.1</ele>
        <time>2021-02-17T10:02:12Z</time>
      </trkpt>
      <trkpt lat="45.28854" lon="6.14808">
        <ele>2389.1</ele>
        <time>2021-02-17T10:02:13Z</time>
      </trkpt>
      <trkpt lat="45.28855" lon="6.14808">
        <ele>2389.1</ele>
        <time>2021-02-17T10:02:14Z</time>
      </trkpt>
      <trkpt lat="45.28855" lon="6.14808">
        <ele>2389.1</ele>
        <time>2021-02-17T10:02:15Z</time>
      </trkpt>
      <trkpt lat="45.28856" lon="6.14808">
        <ele>2389.1</ele>
        <time>2021-02-17T10:02:16Z</time>
      </trkpt>
      <trkpt lat="45.28857" lon="6.14808">
        <ele>2390</ele>
        <time>2021-02-17T10:02:17Z</time>
      </trkpt>
      <trkpt lat="45.28857" lon="6.14808">
        <ele>2390</ele>
        <time>2021-02-17T10:02:18Z</time>
      </trkpt>
      <trkpt lat="45.28858" lon="6.14807">
        <ele>2390</ele>
        <time>2021-02-17T10:02:19Z</time>
      </trkpt>
      <trkpt lat="45.28859" lon="6.14807">
        <ele>2390</ele>
        <time>2021-02-17T10:02:20Z</time>
      </trkpt>
      <trkpt lat="45.28859" lon="6.14806">
        <ele>2390</ele>
        <time>2021-02-17T10:02:21Z</time>
      </trkpt>
      <trkpt lat="45.2886" lon="6.14806">
        <ele>2391</ele>
        <time>2021-02-17T10:02:22Z</time>
      </trkpt>
      <trkpt lat="45.28861" lon="6.14805">
        <ele>2391</ele>
        <time>2021-02-17T10:02:23Z</time>
      </trkpt>
      <trkpt lat="45.28861" lon="6.14805">
        <ele>2392.8</ele>
        <time>2021-02-17T10:02:24Z</time>
      </trkpt>
      <trkpt lat="45.28862" lon="6.14804">
        <ele>2392.8</ele>
        <time>2021-02-17T10:02:25Z</time>
      </trkpt>
      <trkpt lat="45.28862" lon="6.14803">
        <ele>2392.8</ele>
        <time>2021-02-17T10:02:26Z</time>
      </trkpt>
      <trkpt lat="45.28862" lon="6.14803">
        <ele>2392.8</ele>
        <time>2021-02-17T10:02:27Z</time>
      </trkpt>
      <trkpt lat="45.28862" lon="6.14802">
        <ele>2392.8</ele>
        <time>2021-02-17T10:02:28Z</time>
      </trkpt>
      <trkpt lat="45.28862" lon="6.14802">
        <ele>2392.8</ele>
        <time>2021-02-17T10:02:29Z</time>
      </trkpt>
      <trkpt lat="45.28862" lon="6.14801">
        <ele>2392.8</ele>
        <time>2021-02-17T10:02:30Z</time>
      </trkpt>
      <trkpt lat="45.28862" lon="6.14801">
        <ele>2394.5</ele>
        <time>2021-02-17T10:02:31Z</time>
      </trkpt>
      <trkpt lat="45.28862" lon="6.148">
        <ele>2394.5</ele>
        <time>2021-02-17T10:02:32Z</time>
      </trkpt>
      <trkpt lat="45.28862" lon="6.14799">
        <ele>2394.5</ele>
        <time>2021-02-17T10:02:33Z</time>
      </trkpt>
      <trkpt lat="45.28862" lon="6.14798">
        <ele>2394.5</ele>
        <time>2021-02-17T10:02:34Z</time>
      </trkpt>
      <trkpt lat="45.28862" lon="6.14798">
        <ele>2394.5</ele>
        <time>2021-02-17T10:02:35Z</time>
      </trkpt>
      <trkpt lat="45.28862" lon="6.14798">
        <ele>2394.5</ele>
        <time>2021-02-17T10:02:36Z</time>
      </trkpt>
      <trkpt lat="45.28862" lon="6.14797">
        <ele>2394.5</ele>
        <time>2021-02-17T10:02:37Z</time>
      </trkpt>
      <trkpt lat="45.28862" lon="6.14796">
        <ele>2396</ele>
        <time>2021-02-17T10:02:38Z</time>
      </trkpt>
      <trkpt lat="45.28862" lon="6.14795">
        <ele>2396</ele>
        <time>2021-02-17T10:02:39Z</time>
      </trkpt>
      <trkpt lat="45.28862" lon="6.14794">
        <ele>2396</ele>
        <time>2021-02-17T10:02:40Z</time>
      </trkpt>
      <trkpt lat="45.28862" lon="6.14793">
        <ele>2396</ele>
        <time>2021-02-17T10:02:41Z</time>
      </trkpt>
      <trkpt lat="45.28863" lon="6.14792">
        <ele>2398.7</ele>
        <time>2021-02-17T10:02:42Z</time>
      </trkpt>
      <trkpt lat="45.28863" lon="6.14792">
        <ele>2398.7</ele>
        <time>2021-02-17T10:02:43Z</time>
      </trkpt>
      <trkpt lat="45.28863" lon="6.14791">
        <ele>2398.7</ele>
        <time>2021-02-17T10:02:44Z</time>
      </trkpt>
      <trkpt lat="45.28863" lon="6.1479">
        <ele>2397.5</ele>
        <time>2021-02-17T10:02:45Z</time>
      </trkpt>
      <trkpt lat="45.28863" lon="6.14789">
        <ele>2397.5</ele>
        <time>2021-02-17T10:02:46Z</time>
      </trkpt>
      <trkpt lat="45.28863" lon="6.14788">
        <ele>2397.5</ele>
        <time>2021-02-17T10:02:47Z</time>
      </trkpt>
      <trkpt lat="45.28863" lon="6.14787">
        <ele>2398.8</ele>
        <time>2021-02-17T10:02:48Z</time>
      </trkpt>
      <trkpt lat="45.28863" lon="6.14787">
        <ele>2400</ele>
        <time>2021-02-17T10:02:49Z</time>
      </trkpt>
      <trkpt lat="45.28863" lon="6.14786">
        <ele>2398.8</ele>
        <time>2021-02-17T10:02:50Z</time>
      </trkpt>
      <trkpt lat="45.28863" lon="6.14786">
        <ele>2398.8</ele>
        <time>2021-02-17T10:02:51Z</time>
      </trkpt>
      <trkpt lat="45.28863" lon="6.14785">
        <ele>2398.8</ele>
        <time>2021-02-17T10:02:52Z</time>
      </trkpt>
      <trkpt lat="45.28863" lon="6.14785">
        <ele>2400</ele>
        <time>2021-02-17T10:02:53Z</time>
      </trkpt>
      <trkpt lat="45.28863" lon="6.14784">
        <ele>2400</ele>
        <time>2021-02-17T10:02:54Z</time>
      </trkpt>
      <trkpt lat="45.28862" lon="6.14783">
        <ele>2400.1</ele>
        <time>2021-02-17T10:02:55Z</time>
      </trkpt>
      <trkpt lat="45.28862" lon="6.14783">
        <ele>2400.1</ele>
        <time>2021-02-17T10:02:56Z</time>
      </trkpt>
      <trkpt lat="45.28862" lon="6.14782">
        <ele>2400.1</ele>
        <time>2021-02-17T10:02:57Z</time>
      </trkpt>
      <trkpt lat="45.28862" lon="6.14781">
        <ele>2400.1</ele>
        <time>2021-02-17T10:02:58Z</time>
      </trkpt>
      <trkpt lat="45.28862" lon="6.14781">
        <ele>2400.1</ele>
        <time>2021-02-17T10:02:59Z</time>
      </trkpt>
      <trkpt lat="45.28861" lon="6.1478">
        <ele>2400.1</ele>
        <time>2021-02-17T10:03:00Z</time>
      </trkpt>
      <trkpt lat="45.28861" lon="6.1478">
        <ele>2400.1</ele>
        <time>2021-02-17T10:03:01Z</time>
      </trkpt>
      <trkpt lat="45.28861" lon="6.1478">
        <ele>2400.1</ele>
        <time>2021-02-17T10:03:02Z</time>
      </trkpt>
      <trkpt lat="45.28861" lon="6.14779">
        <ele>2401.4</ele>
        <time>2021-02-17T10:03:03Z</time>
      </trkpt>
      <trkpt lat="45.2886" lon="6.14779">
        <ele>2401.4</ele>
        <time>2021-02-17T10:03:04Z</time>
      </trkpt>
      <trkpt lat="45.2886" lon="6.14778">
        <ele>2401.4</ele>
        <time>2021-02-17T10:03:05Z</time>
      </trkpt>
      <trkpt lat="45.2886" lon="6.14778">
        <ele>2401.4</ele>
        <time>2021-02-17T10:03:06Z</time>
      </trkpt>
      <trkpt lat="45.2886" lon="6.14777">
        <ele>2401.4</ele>
        <time>2021-02-17T10:03:07Z</time>
      </trkpt>
      <trkpt lat="45.28859" lon="6.14776">
        <ele>2400.2</ele>
        <time>2021-02-17T10:03:08Z</time>
      </trkpt>
      <trkpt lat="45.28859" lon="6.14776">
        <ele>2400.2</ele>
        <time>2021-02-17T10:03:09Z</time>
      </trkpt>
      <trkpt lat="45.28858" lon="6.14775">
        <ele>2401.4</ele>
        <time>2021-02-17T10:03:10Z</time>
      </trkpt>
      <trkpt lat="45.28858" lon="6.14774">
        <ele>2401.4</ele>
        <time>2021-02-17T10:03:11Z</time>
      </trkpt>
      <trkpt lat="45.28858" lon="6.14773">
        <ele>2401.4</ele>
        <time>2021-02-17T10:03:12Z</time>
      </trkpt>
      <trkpt lat="45.28857" lon="6.14772">
        <ele>2401.4</ele>
        <time>2021-02-17T10:03:13Z</time>
      </trkpt>
      <trkpt lat="45.28857" lon="6.1477">
        <ele>2402.6</ele>
        <time>2021-02-17T10:03:14Z</time>
      </trkpt>
      <trkpt lat="45.28856" lon="6.14769">
        <ele>2401.5</ele>
        <time>2021-02-17T10:03:15Z</time>
      </trkpt>
      <trkpt lat="45.28856" lon="6.14768">
        <ele>2401.5</ele>
        <time>2021-02-17T10:03:16Z</time>
      </trkpt>
      <trkpt lat="45.28855" lon="6.14767">
        <ele>2401.5</ele>
        <time>2021-02-17T10:03:17Z</time>
      </trkpt>
      <trkpt lat="45.28854" lon="6.14766">
        <ele>2402.7</ele>
        <time>2021-02-17T10:03:18Z</time>
      </trkpt>
      <trkpt lat="45.28854" lon="6.14765">
        <ele>2402.7</ele>
        <time>2021-02-17T10:03:19Z</time>
      </trkpt>
      <trkpt lat="45.28854" lon="6.14765">
        <ele>2401.6</ele>
        <time>2021-02-17T10:03:20Z</time>
      </trkpt>
      <trkpt lat="45.28853" lon="6.14764">
        <ele>2401.6</ele>
        <time>2021-02-17T10:03:21Z</time>
      </trkpt>
      <trkpt lat="45.28853" lon="6.14763">
        <ele>2401.6</ele>
        <time>2021-02-17T10:03:22Z</time>
      </trkpt>
      <trkpt lat="45.28853" lon="6.14763">
        <ele>2401.6</ele>
        <time>2021-02-17T10:03:23Z</time>
      </trkpt>
      <trkpt lat="45.28853" lon="6.14763">
        <ele>2401.6</ele>
        <time>2021-02-17T10:03:24Z</time>
      </trkpt>
      <trkpt lat="45.28853" lon="6.14762">
        <ele>2402.7</ele>
        <time>2021-02-17T10:03:25Z</time>
      </trkpt>
      <trkpt lat="45.28853" lon="6.14762">
        <ele>2402.7</ele>
        <time>2021-02-17T10:03:26Z</time>
      </trkpt>
      <trkpt lat="45.28853" lon="6.14761">
        <ele>2402.7</ele>
        <time>2021-02-17T10:03:27Z</time>
      </trkpt>
      <trkpt lat="45.28853" lon="6.1476">
        <ele>2402.7</ele>
        <time>2021-02-17T10:03:28Z</time>
      </trkpt>
      <trkpt lat="45.28848" lon="6.14753">
        <ele>2403.7</ele>
        <time>2021-02-17T10:04:28Z</time>
      </trkpt>
      <trkpt lat="45.28848" lon="6.14752">
        <ele>2403.7</ele>
        <time>2021-02-17T10:04:29Z</time>
      </trkpt>
      <trkpt lat="45.28848" lon="6.14751">
        <ele>2403.7</ele>
        <time>2021-02-17T10:04:30Z</time>
      </trkpt>
      <trkpt lat="45.28848" lon="6.14751">
        <ele>2403.7</ele>
        <time>2021-02-17T10:04:31Z</time>
      </trkpt>
      <trkpt lat="45.28848" lon="6.1475">
        <ele>2403.7</ele>
        <time>2021-02-17T10:04:32Z</time>
      </trkpt>
      <trkpt lat="45.28849" lon="6.1475">
        <ele>2403.7</ele>
        <time>2021-02-17T10:04:33Z</time>
      </trkpt>
      <trkpt lat="45.2885" lon="6.1475">
        <ele>2403.7</ele>
        <time>2021-02-17T10:04:34Z</time>
      </trkpt>
      <trkpt lat="45.28851" lon="6.1475">
        <ele>2404.8</ele>
        <time>2021-02-17T10:04:35Z</time>
      </trkpt>
      <trkpt lat="45.28852" lon="6.1475">
        <ele>2404.8</ele>
        <time>2021-02-17T10:04:36Z</time>
      </trkpt>
      <trkpt lat="45.28853" lon="6.1475">
        <ele>2404.8</ele>
        <time>2021-02-17T10:04:37Z</time>
      </trkpt>
      <trkpt lat="45.28854" lon="6.14749">
        <ele>2406.9</ele>
        <time>2021-02-17T10:04:38Z</time>
      </trkpt>
      <trkpt lat="45.28855" lon="6.14749">
        <ele>2406.9</ele>
        <time>2021-02-17T10:04:39Z</time>
      </trkpt>
      <trkpt lat="45.28855" lon="6.14749">
        <ele>2406.9</ele>
        <time>2021-02-17T10:04:40Z</time>
      </trkpt>
      <trkpt lat="45.28856" lon="6.14749">
        <ele>2406.9</ele>
        <time>2021-02-17T10:04:41Z</time>
      </trkpt>
      <trkpt lat="45.28857" lon="6.14749">
        <ele>2408.1</ele>
        <time>2021-02-17T10:04:42Z</time>
      </trkpt>
      <trkpt lat="45.28858" lon="6.14749">
        <ele>2408.1</ele>
        <time>2021-02-17T10:04:43Z</time>
      </trkpt>
      <trkpt lat="45.28859" lon="6.14749">
        <ele>2408.1</ele>
        <time>2021-02-17T10:04:44Z</time>
      </trkpt>
      <trkpt lat="45.2886" lon="6.14749">
        <ele>2408.1</ele>
        <time>2021-02-17T10:04:45Z</time>
      </trkpt>
      <trkpt lat="45.2886" lon="6.14749">
        <ele>2409.5</ele>
        <time>2021-02-17T10:04:46Z</time>
      </trkpt>
      <trkpt lat="45.28861" lon="6.1475">
        <ele>2408.5</ele>
        <time>2021-02-17T10:04:47Z</time>
      </trkpt>
      <trkpt lat="45.28862" lon="6.14749">
        <ele>2409.5</ele>
        <time>2021-02-17T10:04:48Z</time>
      </trkpt>
      <trkpt lat="45.28863" lon="6.1475">
        <ele>2409.9</ele>
        <time>2021-02-17T10:04:49Z</time>
      </trkpt>
      <trkpt lat="45.28864" lon="6.1475">
        <ele>2409.9</ele>
        <time>2021-02-17T10:04:50Z</time>
      </trkpt>
      <trkpt lat="45.28864" lon="6.1475">
        <ele>2409.9</ele>
        <time>2021-02-17T10:04:51Z</time>
      </trkpt>
      <trkpt lat="45.28864" lon="6.1475">
        <ele>2409.9</ele>
        <time>2021-02-17T10:04:52Z</time>
      </trkpt>
      <trkpt lat="45.28864" lon="6.1475">
        <ele>2409.9</ele>
        <time>2021-02-17T10:04:53Z</time>
      </trkpt>
      <trkpt lat="45.28865" lon="6.1475">
        <ele>2409.9</ele>
        <time>2021-02-17T10:04:54Z</time>
      </trkpt>
      <trkpt lat="45.28865" lon="6.1475">
        <ele>2409.9</ele>
        <time>2021-02-17T10:04:55Z</time>
      </trkpt>
      <trkpt lat="45.28866" lon="6.14751">
        <ele>2409.9</ele>
        <time>2021-02-17T10:04:56Z</time>
      </trkpt>
      <trkpt lat="45.28866" lon="6.14751">
        <ele>2411.3</ele>
        <time>2021-02-17T10:04:57Z</time>
      </trkpt>
      <trkpt lat="45.28867" lon="6.14751">
        <ele>2411.3</ele>
        <time>2021-02-17T10:04:58Z</time>
      </trkpt>
      <trkpt lat="45.28868" lon="6.14751">
        <ele>2411.3</ele>
        <time>2021-02-17T10:04:59Z</time>
      </trkpt>
      <trkpt lat="45.28868" lon="6.14751">
        <ele>2411.3</ele>
        <time>2021-02-17T10:05:00Z</time>
      </trkpt>
      <trkpt lat="45.28869" lon="6.14751">
        <ele>2412.7</ele>
        <time>2021-02-17T10:05:01Z</time>
      </trkpt>
      <trkpt lat="45.28869" lon="6.14752">
        <ele>2412.7</ele>
        <time>2021-02-17T10:05:02Z</time>
      </trkpt>
      <trkpt lat="45.2887" lon="6.14752">
        <ele>2412.7</ele>
        <time>2021-02-17T10:05:03Z</time>
      </trkpt>
      <trkpt lat="45.28871" lon="6.14752">
        <ele>2412.7</ele>
        <time>2021-02-17T10:05:04Z</time>
      </trkpt>
      <trkpt lat="45.28872" lon="6.14753">
        <ele>2414.1</ele>
        <time>2021-02-17T10:05:05Z</time>
      </trkpt>
      <trkpt lat="45.28872" lon="6.14753">
        <ele>2414.1</ele>
        <time>2021-02-17T10:05:06Z</time>
      </trkpt>
      <trkpt lat="45.28872" lon="6.14753">
        <ele>2414.1</ele>
        <time>2021-02-17T10:05:07Z</time>
      </trkpt>
      <trkpt lat="45.28873" lon="6.14754">
        <ele>2412.9</ele>
        <time>2021-02-17T10:05:08Z</time>
      </trkpt>
      <trkpt lat="45.28873" lon="6.14754">
        <ele>2412.9</ele>
        <time>2021-02-17T10:05:09Z</time>
      </trkpt>
      <trkpt lat="45.28873" lon="6.14754">
        <ele>2412.9</ele>
        <time>2021-02-17T10:05:10Z</time>
      </trkpt>
      <trkpt lat="45.28874" lon="6.14754">
        <ele>2412.9</ele>
        <time>2021-02-17T10:05:11Z</time>
      </trkpt>
      <trkpt lat="45.28875" lon="6.14754">
        <ele>2412.9</ele>
        <time>2021-02-17T10:05:12Z</time>
      </trkpt>
      <trkpt lat="45.28875" lon="6.14754">
        <ele>2414.2</ele>
        <time>2021-02-17T10:05:13Z</time>
      </trkpt>
      <trkpt lat="45.28875" lon="6.14754">
        <ele>2414.2</ele>
        <time>2021-02-17T10:05:14Z</time>
      </trkpt>
      <trkpt lat="45.28875" lon="6.14754">
        <ele>2414.2</ele>
        <time>2021-02-17T10:05:15Z</time>
      </trkpt>
      <trkpt lat="45.28875" lon="6.14754">
        <ele>2414.2</ele>
        <time>2021-02-17T10:05:16Z</time>
      </trkpt>
      <trkpt lat="45.28875" lon="6.14754">
        <ele>2414.2</ele>
        <time>2021-02-17T10:05:17Z</time>
      </trkpt>
      <trkpt lat="45.28875" lon="6.14754">
        <ele>2414.2</ele>
        <time>2021-02-17T10:05:18Z</time>
      </trkpt>
      <trkpt lat="45.28875" lon="6.14754">
        <ele>2414.2</ele>
        <time>2021-02-17T10:05:19Z</time>
      </trkpt>
      <trkpt lat="45.28875" lon="6.14754">
        <ele>2414.2</ele>
        <time>2021-02-17T10:05:20Z</time>
      </trkpt>
      <trkpt lat="45.28875" lon="6.14754">
        <ele>2414.2</ele>
        <time>2021-02-17T10:05:21Z</time>
      </trkpt>
      <trkpt lat="45.28875" lon="6.14754">
        <ele>2414.2</ele>
        <time>2021-02-17T10:05:22Z</time>
      </trkpt>
      <trkpt lat="45.28884" lon="6.14753">
        <ele>2419.6</ele>
        <time>2021-02-17T10:05:52Z</time>
      </trkpt>
      <trkpt lat="45.28885" lon="6.14752">
        <ele>2419.6</ele>
        <time>2021-02-17T10:05:53Z</time>
      </trkpt>
      <trkpt lat="45.28885" lon="6.14752">
        <ele>2419.6</ele>
        <time>2021-02-17T10:05:54Z</time>
      </trkpt>
      <trkpt lat="45.28885" lon="6.14752">
        <ele>2419.6</ele>
        <time>2021-02-17T10:05:55Z</time>
      </trkpt>
      <trkpt lat="45.28885" lon="6.14752">
        <ele>2419.6</ele>
        <time>2021-02-17T10:05:56Z</time>
      </trkpt>
      <trkpt lat="45.28885" lon="6.14752">
        <ele>2419.6</ele>
        <time>2021-02-17T10:05:57Z</time>
      </trkpt>
      <trkpt lat="45.28885" lon="6.14752">
        <ele>2419.6</ele>
        <time>2021-02-17T10:05:58Z</time>
      </trkpt>
      <trkpt lat="45.28885" lon="6.14752">
        <ele>2419.6</ele>
        <time>2021-02-17T10:05:59Z</time>
      </trkpt>
      <trkpt lat="45.28885" lon="6.14752">
        <ele>2419.6</ele>
        <time>2021-02-17T10:06:00Z</time>
      </trkpt>
      <trkpt lat="45.28885" lon="6.14752">
        <ele>2419.6</ele>
        <time>2021-02-17T10:06:01Z</time>
      </trkpt>
      <trkpt lat="45.28885" lon="6.14752">
        <ele>2419.6</ele>
        <time>2021-02-17T10:06:02Z</time>
      </trkpt>
      <trkpt lat="45.28885" lon="6.14752">
        <ele>2419.6</ele>
        <time>2021-02-17T10:06:03Z</time>
      </trkpt>
      <trkpt lat="45.28888" lon="6.14739">
        <ele>2424.8</ele>
        <time>2021-02-17T10:07:03Z</time>
      </trkpt>
      <trkpt lat="45.28888" lon="6.14739">
        <ele>2424.8</ele>
        <time>2021-02-17T10:07:04Z</time>
      </trkpt>
      <trkpt lat="45.28887" lon="6.14738">
        <ele>2424.8</ele>
        <time>2021-02-17T10:07:05Z</time>
      </trkpt>
      <trkpt lat="45.28887" lon="6.14737">
        <ele>2423.2</ele>
        <time>2021-02-17T10:07:06Z</time>
      </trkpt>
      <trkpt lat="45.28886" lon="6.14736">
        <ele>2424.1</ele>
        <time>2021-02-17T10:07:07Z</time>
      </trkpt>
      <trkpt lat="45.28886" lon="6.14734">
        <ele>2424.1</ele>
        <time>2021-02-17T10:07:08Z</time>
      </trkpt>
      <trkpt lat="45.28886" lon="6.14733">
        <ele>2424.1</ele>
        <time>2021-02-17T10:07:09Z</time>
      </trkpt>
      <trkpt lat="45.28885" lon="6.14731">
        <ele>2425</ele>
        <time>2021-02-17T10:07:10Z</time>
      </trkpt>
      <trkpt lat="45.28885" lon="6.1473">
        <ele>2425</ele>
        <time>2021-02-17T10:07:11Z</time>
      </trkpt>
      <trkpt lat="45.28884" lon="6.14729">
        <ele>2425</ele>
        <time>2021-02-17T10:07:12Z</time>
      </trkpt>
      <trkpt lat="45.28884" lon="6.14728">
        <ele>2425</ele>
        <time>2021-02-17T10:07:13Z</time>
      </trkpt>
      <trkpt lat="45.28884" lon="6.14728">
        <ele>2424.2</ele>
        <time>2021-02-17T10:07:14Z</time>
      </trkpt>
      <trkpt lat="45.28883" lon="6.14727">
        <ele>2424.2</ele>
        <time>2021-02-17T10:07:15Z</time>
      </trkpt>
      <trkpt lat="45.28883" lon="6.14726">
        <ele>2424.2</ele>
        <time>2021-02-17T10:07:16Z</time>
      </trkpt>
      <trkpt lat="45.28883" lon="6.14726">
        <ele>2424.2</ele>
        <time>2021-02-17T10:07:17Z</time>
      </trkpt>
      <trkpt lat="45.28882" lon="6.14726">
        <ele>2424.2</ele>
        <time>2021-02-17T10:07:18Z</time>
      </trkpt>
      <trkpt lat="45.28882" lon="6.14725">
        <ele>2424.2</ele>
        <time>2021-02-17T10:07:19Z</time>
      </trkpt>
      <trkpt lat="45.28881" lon="6.14725">
        <ele>2424.2</ele>
        <time>2021-02-17T10:07:20Z</time>
      </trkpt>
      <trkpt lat="45.28881" lon="6.14724">
        <ele>2424.2</ele>
        <time>2021-02-17T10:07:21Z</time>
      </trkpt>
      <trkpt lat="45.28881" lon="6.14724">
        <ele>2422.6</ele>
        <time>2021-02-17T10:07:22Z</time>
      </trkpt>
      <trkpt lat="45.2888" lon="6.14723">
        <ele>2423.4</ele>
        <time>2021-02-17T10:07:23Z</time>
      </trkpt>
      <trkpt lat="45.2888" lon="6.14723">
        <ele>2423.4</ele>
        <time>2021-02-17T10:07:24Z</time>
      </trkpt>
      <trkpt lat="45.2888" lon="6.14722">
        <ele>2423.4</ele>
        <time>2021-02-17T10:07:25Z</time>
      </trkpt>
      <trkpt lat="45.28879" lon="6.14721">
        <ele>2423.4</ele>
        <time>2021-02-17T10:07:26Z</time>
      </trkpt>
      <trkpt lat="45.28879" lon="6.1472">
        <ele>2423.4</ele>
        <time>2021-02-17T10:07:27Z</time>
      </trkpt>
      <trkpt lat="45.28879" lon="6.1472">
        <ele>2423.4</ele>
        <time>2021-02-17T10:07:28Z</time>
      </trkpt>
      <trkpt lat="45.2888" lon="6.14719">
        <ele>2423.4</ele>
        <time>2021-02-17T10:07:29Z</time>
      </trkpt>
      <trkpt lat="45.28881" lon="6.14719">
        <ele>2424.1</ele>
        <time>2021-02-17T10:07:30Z</time>
      </trkpt>
      <trkpt lat="45.28881" lon="6.14718">
        <ele>2425.7</ele>
        <time>2021-02-17T10:07:31Z</time>
      </trkpt>
      <trkpt lat="45.28882" lon="6.14718">
        <ele>2425.7</ele>
        <time>2021-02-17T10:07:32Z</time>
      </trkpt>
      <trkpt lat="45.28883" lon="6.14717">
        <ele>2425.7</ele>
        <time>2021-02-17T10:07:33Z</time>
      </trkpt>
      <trkpt lat="45.28883" lon="6.14716">
        <ele>2425.7</ele>
        <time>2021-02-17T10:07:34Z</time>
      </trkpt>
      <trkpt lat="45.28884" lon="6.14715">
        <ele>2427.5</ele>
        <time>2021-02-17T10:07:35Z</time>
      </trkpt>
      <trkpt lat="45.28885" lon="6.14714">
        <ele>2428.2</ele>
        <time>2021-02-17T10:07:36Z</time>
      </trkpt>
      <trkpt lat="45.28886" lon="6.14714">
        <ele>2428.2</ele>
        <time>2021-02-17T10:07:37Z</time>
      </trkpt>
      <trkpt lat="45.28886" lon="6.14713">
        <ele>2428.2</ele>
        <time>2021-02-17T10:07:38Z</time>
      </trkpt>
      <trkpt lat="45.28887" lon="6.14712">
        <ele>2430.1</ele>
        <time>2021-02-17T10:07:39Z</time>
      </trkpt>
      <trkpt lat="45.28888" lon="6.14711">
        <ele>2430.1</ele>
        <time>2021-02-17T10:07:40Z</time>
      </trkpt>
      <trkpt lat="45.28888" lon="6.1471">
        <ele>2430.8</ele>
        <time>2021-02-17T10:07:41Z</time>
      </trkpt>
      <trkpt lat="45.28889" lon="6.1471">
        <ele>2430.8</ele>
        <time>2021-02-17T10:07:42Z</time>
      </trkpt>
      <trkpt lat="45.2889" lon="6.14709">
        <ele>2432.8</ele>
        <time>2021-02-17T10:07:43Z</time>
      </trkpt>
      <trkpt lat="45.28891" lon="6.14709">
        <ele>2432.8</ele>
        <time>2021-02-17T10:07:44Z</time>
      </trkpt>
      <trkpt lat="45.28892" lon="6.14708">
        <ele>2432.8</ele>
        <time>2021-02-17T10:07:45Z</time>
      </trkpt>
      <trkpt lat="45.28893" lon="6.14708">
        <ele>2434.7</ele>
        <time>2021-02-17T10:07:46Z</time>
      </trkpt>
      <trkpt lat="45.28894" lon="6.14708">
        <ele>2434.7</ele>
        <time>2021-02-17T10:07:47Z</time>
      </trkpt>
      <trkpt lat="45.28894" lon="6.14708">
        <ele>2434.7</ele>
        <time>2021-02-17T10:07:48Z</time>
      </trkpt>
      <trkpt lat="45.28895" lon="6.14707">
        <ele>2434.7</ele>
        <time>2021-02-17T10:07:49Z</time>
      </trkpt>
      <trkpt lat="45.28896" lon="6.14707">
        <ele>2436.5</ele>
        <time>2021-02-17T10:07:50Z</time>
      </trkpt>
      <trkpt lat="45.28897" lon="6.14707">
        <ele>2436.5</ele>
        <time>2021-02-17T10:07:51Z</time>
      </trkpt>
      <trkpt lat="45.28898" lon="6.14707">
        <ele>2436.5</ele>
        <time>2021-02-17T10:07:52Z</time>
      </trkpt>
      <trkpt lat="45.28898" lon="6.14707">
        <ele>2436.5</ele>
        <time>2021-02-17T10:07:53Z</time>
      </trkpt>
      <trkpt lat="45.28899" lon="6.14707">
        <ele>2438.2</ele>
        <time>2021-02-17T10:07:54Z</time>
      </trkpt>
      <trkpt lat="45.289" lon="6.14707">
        <ele>2438.2</ele>
        <time>2021-02-17T10:07:55Z</time>
      </trkpt>
      <trkpt lat="45.289" lon="6.14707">
        <ele>2438.2</ele>
        <time>2021-02-17T10:07:56Z</time>
      </trkpt>
      <trkpt lat="45.28901" lon="6.14707">
        <ele>2438.2</ele>
        <time>2021-02-17T10:07:57Z</time>
      </trkpt>
      <trkpt lat="45.28902" lon="6.14707">
        <ele>2438.2</ele>
        <time>2021-02-17T10:07:58Z</time>
      </trkpt>
      <trkpt lat="45.28902" lon="6.14707">
        <ele>2439.8</ele>
        <time>2021-02-17T10:07:59Z</time>
      </trkpt>
      <trkpt lat="45.28903" lon="6.14707">
        <ele>2439.8</ele>
        <time>2021-02-17T10:08:00Z</time>
      </trkpt>
      <trkpt lat="45.28904" lon="6.14707">
        <ele>2439.8</ele>
        <time>2021-02-17T10:08:01Z</time>
      </trkpt>
      <trkpt lat="45.28904" lon="6.14707">
        <ele>2439.8</ele>
        <time>2021-02-17T10:08:02Z</time>
      </trkpt>
      <trkpt lat="45.28905" lon="6.14707">
        <ele>2441.3</ele>
        <time>2021-02-17T10:08:03Z</time>
      </trkpt>
      <trkpt lat="45.28905" lon="6.14707">
        <ele>2441.3</ele>
        <time>2021-02-17T10:08:04Z</time>
      </trkpt>
      <trkpt lat="45.28906" lon="6.14707">
        <ele>2441.3</ele>
        <time>2021-02-17T10:08:05Z</time>
      </trkpt>
      <trkpt lat="45.28907" lon="6.14707">
        <ele>2441.3</ele>
        <time>2021-02-17T10:08:06Z</time>
      </trkpt>
      <trkpt lat="45.28907" lon="6.14707">
        <ele>2441.3</ele>
        <time>2021-02-17T10:08:07Z</time>
      </trkpt>
      <trkpt lat="45.28908" lon="6.14706">
        <ele>2442</ele>
        <time>2021-02-17T10:08:08Z</time>
      </trkpt>
      <trkpt lat="45.28908" lon="6.14707">
        <ele>2443.6</ele>
        <time>2021-02-17T10:08:09Z</time>
      </trkpt>
      <trkpt lat="45.28909" lon="6.14706">
        <ele>2443.6</ele>
        <time>2021-02-17T10:08:10Z</time>
      </trkpt>
      <trkpt lat="45.2891" lon="6.14706">
        <ele>2443.6</ele>
        <time>2021-02-17T10:08:11Z</time>
      </trkpt>
      <trkpt lat="45.28911" lon="6.14706">
        <ele>2445.3</ele>
        <time>2021-02-17T10:08:12Z</time>
      </trkpt>
      <trkpt lat="45.28912" lon="6.14706">
        <ele>2445.3</ele>
        <time>2021-02-17T10:08:13Z</time>
      </trkpt>
      <trkpt lat="45.28912" lon="6.14705">
        <ele>2445.3</ele>
        <time>2021-02-17T10:08:14Z</time>
      </trkpt>
      <trkpt lat="45.28913" lon="6.14705">
        <ele>2445.3</ele>
        <time>2021-02-17T10:08:15Z</time>
      </trkpt>
      <trkpt lat="45.28914" lon="6.14705">
        <ele>2445.3</ele>
        <time>2021-02-17T10:08:16Z</time>
      </trkpt>
      <trkpt lat="45.28914" lon="6.14705">
        <ele>2446.9</ele>
        <time>2021-02-17T10:08:17Z</time>
      </trkpt>
      <trkpt lat="45.28915" lon="6.14705">
        <ele>2446.9</ele>
        <time>2021-02-17T10:08:18Z</time>
      </trkpt>
      <trkpt lat="45.28916" lon="6.14705">
        <ele>2446.9</ele>
        <time>2021-02-17T10:08:19Z</time>
      </trkpt>
      <trkpt lat="45.28917" lon="6.14705">
        <ele>2446.9</ele>
        <time>2021-02-17T10:08:20Z</time>
      </trkpt>
      <trkpt lat="45.28917" lon="6.14705">
        <ele>2448.5</ele>
        <time>2021-02-17T10:08:21Z</time>
      </trkpt>
      <trkpt lat="45.28918" lon="6.14705">
        <ele>2448.5</ele>
        <time>2021-02-17T10:08:22Z</time>
      </trkpt>
      <trkpt lat="45.28919" lon="6.14705">
        <ele>2448.5</ele>
        <time>2021-02-17T10:08:23Z</time>
      </trkpt>
      <trkpt lat="45.28919" lon="6.14706">
        <ele>2448.5</ele>
        <time>2021-02-17T10:08:24Z</time>
      </trkpt>
      <trkpt lat="45.2892" lon="6.14706">
        <ele>2448.5</ele>
        <time>2021-02-17T10:08:25Z</time>
      </trkpt>
      <trkpt lat="45.2892" lon="6.14707">
        <ele>2447.6</ele>
        <time>2021-02-17T10:08:26Z</time>
      </trkpt>
      <trkpt lat="45.28921" lon="6.14707">
        <ele>2449</ele>
        <time>2021-02-17T10:08:27Z</time>
      </trkpt>
      <trkpt lat="45.28921" lon="6.14707">
        <ele>2449</ele>
        <time>2021-02-17T10:08:28Z</time>
      </trkpt>
      <trkpt lat="45.28921" lon="6.14708">
        <ele>2449</ele>
        <time>2021-02-17T10:08:29Z</time>
      </trkpt>
      <trkpt lat="45.28922" lon="6.14708">
        <ele>2449</ele>
        <time>2021-02-17T10:08:30Z</time>
      </trkpt>
      <trkpt lat="45.28923" lon="6.14709">
        <ele>2449</ele>
        <time>2021-02-17T10:08:31Z</time>
      </trkpt>
      <trkpt lat="45.28923" lon="6.14709">
        <ele>2450.1</ele>
        <time>2021-02-17T10:08:32Z</time>
      </trkpt>
      <trkpt lat="45.28924" lon="6.14709">
        <ele>2450.1</ele>
        <time>2021-02-17T10:08:33Z</time>
      </trkpt>
      <trkpt lat="45.28924" lon="6.14709">
        <ele>2450.1</ele>
        <time>2021-02-17T10:08:34Z</time>
      </trkpt>
      <trkpt lat="45.28925" lon="6.14709">
        <ele>2450.1</ele>
        <time>2021-02-17T10:08:35Z</time>
      </trkpt>
      <trkpt lat="45.28926" lon="6.1471">
        <ele>2450.1</ele>
        <time>2021-02-17T10:08:36Z</time>
      </trkpt>
      <trkpt lat="45.28927" lon="6.1471">
        <ele>2451.2</ele>
        <time>2021-02-17T10:08:37Z</time>
      </trkpt>
      <trkpt lat="45.28927" lon="6.1471">
        <ele>2451.2</ele>
        <time>2021-02-17T10:08:38Z</time>
      </trkpt>
      <trkpt lat="45.28928" lon="6.1471">
        <ele>2451.2</ele>
        <time>2021-02-17T10:08:39Z</time>
      </trkpt>
      <trkpt lat="45.28928" lon="6.14711">
        <ele>2451.2</ele>
        <time>2021-02-17T10:08:40Z</time>
      </trkpt>
      <trkpt lat="45.28929" lon="6.14711">
        <ele>2451.2</ele>
        <time>2021-02-17T10:08:41Z</time>
      </trkpt>
      <trkpt lat="45.28929" lon="6.14711">
        <ele>2451.2</ele>
        <time>2021-02-17T10:08:42Z</time>
      </trkpt>
      <trkpt lat="45.28928" lon="6.14711">
        <ele>2451.2</ele>
        <time>2021-02-17T10:08:43Z</time>
      </trkpt>
      <trkpt lat="45.28928" lon="6.1471">
        <ele>2451.2</ele>
        <time>2021-02-17T10:08:44Z</time>
      </trkpt>
      <trkpt lat="45.28927" lon="6.1471">
        <ele>2451.2</ele>
        <time>2021-02-17T10:08:45Z</time>
      </trkpt>
      <trkpt lat="45.28926" lon="6.14709">
        <ele>2451.2</ele>
        <time>2021-02-17T10:08:46Z</time>
      </trkpt>
      <trkpt lat="45.28926" lon="6.14709">
        <ele>2450.1</ele>
        <time>2021-02-17T10:08:47Z</time>
      </trkpt>
      <trkpt lat="45.28925" lon="6.14708">
        <ele>2450.1</ele>
        <time>2021-02-17T10:08:48Z</time>
      </trkpt>
      <trkpt lat="45.28925" lon="6.14707">
        <ele>2450.1</ele>
        <time>2021-02-17T10:08:49Z</time>
      </trkpt>
      <trkpt lat="45.28924" lon="6.14707">
        <ele>2450.1</ele>
        <time>2021-02-17T10:08:50Z</time>
      </trkpt>
      <trkpt lat="45.28924" lon="6.14706">
        <ele>2451.1</ele>
        <time>2021-02-17T10:08:51Z</time>
      </trkpt>
      <trkpt lat="45.28924" lon="6.14706">
        <ele>2451.1</ele>
        <time>2021-02-17T10:08:52Z</time>
      </trkpt>
      <trkpt lat="45.28923" lon="6.14705">
        <ele>2451.1</ele>
        <time>2021-02-17T10:08:53Z</time>
      </trkpt>
      <trkpt lat="45.28923" lon="6.14705">
        <ele>2451.1</ele>
        <time>2021-02-17T10:08:54Z</time>
      </trkpt>
      <trkpt lat="45.28923" lon="6.14704">
        <ele>2449.9</ele>
        <time>2021-02-17T10:08:55Z</time>
      </trkpt>
      <trkpt lat="45.28923" lon="6.14703">
        <ele>2449.9</ele>
        <time>2021-02-17T10:08:56Z</time>
      </trkpt>
      <trkpt lat="45.28922" lon="6.14702">
        <ele>2450.6</ele>
        <time>2021-02-17T10:08:57Z</time>
      </trkpt>
      <trkpt lat="45.28922" lon="6.14701">
        <ele>2450.6</ele>
        <time>2021-02-17T10:08:58Z</time>
      </trkpt>
      <trkpt lat="45.28921" lon="6.14701">
        <ele>2450.6</ele>
        <time>2021-02-17T10:08:59Z</time>
      </trkpt>
      <trkpt lat="45.28921" lon="6.14701">
        <ele>2450.6</ele>
        <time>2021-02-17T10:09:00Z</time>
      </trkpt>
      <trkpt lat="45.2892" lon="6.147">
        <ele>2450.6</ele>
        <time>2021-02-17T10:09:01Z</time>
      </trkpt>
      <trkpt lat="45.2892" lon="6.147">
        <ele>2449.2</ele>
        <time>2021-02-17T10:09:02Z</time>
      </trkpt>
      <trkpt lat="45.2892" lon="6.14699">
        <ele>2449.2</ele>
        <time>2021-02-17T10:09:03Z</time>
      </trkpt>
      <trkpt lat="45.28919" lon="6.14699">
        <ele>2449.2</ele>
        <time>2021-02-17T10:09:04Z</time>
      </trkpt>
      <trkpt lat="45.28919" lon="6.14698">
        <ele>2449.2</ele>
        <time>2021-02-17T10:09:05Z</time>
      </trkpt>
      <trkpt lat="45.28919" lon="6.14697">
        <ele>2449.8</ele>
        <time>2021-02-17T10:09:06Z</time>
      </trkpt>
      <trkpt lat="45.28919" lon="6.14697">
        <ele>2449.8</ele>
        <time>2021-02-17T10:09:07Z</time>
      </trkpt>
      <trkpt lat="45.28918" lon="6.14696">
        <ele>2449.8</ele>
        <time>2021-02-17T10:09:08Z</time>
      </trkpt>
      <trkpt lat="45.28918" lon="6.14695">
        <ele>2449.8</ele>
        <time>2021-02-17T10:09:09Z</time>
      </trkpt>
      <trkpt lat="45.28917" lon="6.14694">
        <ele>2449.8</ele>
        <time>2021-02-17T10:09:10Z</time>
      </trkpt>
      <trkpt lat="45.28916" lon="6.14693">
        <ele>2448.6</ele>
        <time>2021-02-17T10:09:11Z</time>
      </trkpt>
      <trkpt lat="45.28916" lon="6.14692">
        <ele>2448.6</ele>
        <time>2021-02-17T10:09:12Z</time>
      </trkpt>
      <trkpt lat="45.28915" lon="6.14692">
        <ele>2448.6</ele>
        <time>2021-02-17T10:09:13Z</time>
      </trkpt>
      <trkpt lat="45.28915" lon="6.14692">
        <ele>2448.6</ele>
        <time>2021-02-17T10:09:14Z</time>
      </trkpt>
      <trkpt lat="45.28914" lon="6.1469">
        <ele>2446.9</ele>
        <time>2021-02-17T10:09:15Z</time>
      </trkpt>
      <trkpt lat="45.28913" lon="6.14689">
        <ele>2447.3</ele>
        <time>2021-02-17T10:09:16Z</time>
      </trkpt>
      <trkpt lat="45.28912" lon="6.14688">
        <ele>2447.3</ele>
        <time>2021-02-17T10:09:17Z</time>
      </trkpt>
      <trkpt lat="45.28911" lon="6.14687">
        <ele>2447.3</ele>
        <time>2021-02-17T10:09:18Z</time>
      </trkpt>
      <trkpt lat="45.28911" lon="6.14686">
        <ele>2445.6</ele>
        <time>2021-02-17T10:09:19Z</time>
      </trkpt>
      <trkpt lat="45.2891" lon="6.14686">
        <ele>2445.6</ele>
        <time>2021-02-17T10:09:20Z</time>
      </trkpt>
      <trkpt lat="45.2891" lon="6.14686">
        <ele>2445.6</ele>
        <time>2021-02-17T10:09:21Z</time>
      </trkpt>
      <trkpt lat="45.28909" lon="6.14684">
        <ele>2445.9</ele>
        <time>2021-02-17T10:09:22Z</time>
      </trkpt>
      <trkpt lat="45.28908" lon="6.14684">
        <ele>2445.9</ele>
        <time>2021-02-17T10:09:23Z</time>
      </trkpt>
      <trkpt lat="45.28908" lon="6.14683">
        <ele>2444.2</ele>
        <time>2021-02-17T10:09:24Z</time>
      </trkpt>
      <trkpt lat="45.28907" lon="6.14682">
        <ele>2444.2</ele>
        <time>2021-02-17T10:09:25Z</time>
      </trkpt>
      <trkpt lat="45.28907" lon="6.14681">
        <ele>2444.2</ele>
        <time>2021-02-17T10:09:26Z</time>
      </trkpt>
      <trkpt lat="45.28907" lon="6.14681">
        <ele>2444.5</ele>
        <time>2021-02-17T10:09:27Z</time>
      </trkpt>
      <trkpt lat="45.28903" lon="6.14671">
        <ele>2443.6</ele>
        <time>2021-02-17T10:09:37Z</time>
      </trkpt>
      <trkpt lat="45.28903" lon="6.14671">
        <ele>2443.6</ele>
        <time>2021-02-17T10:09:38Z</time>
      </trkpt>
      <trkpt lat="45.28901" lon="6.1467">
        <ele>2442.1</ele>
        <time>2021-02-17T10:09:39Z</time>
      </trkpt>
      <trkpt lat="45.28901" lon="6.14669">
        <ele>2442.1</ele>
        <time>2021-02-17T10:09:40Z</time>
      </trkpt>
      <trkpt lat="45.289" lon="6.14668">
        <ele>2442.1</ele>
        <time>2021-02-17T10:09:41Z</time>
      </trkpt>
      <trkpt lat="45.28899" lon="6.14667">
        <ele>2442.4</ele>
        <time>2021-02-17T10:09:42Z</time>
      </trkpt>
      <trkpt lat="45.28899" lon="6.14667">
        <ele>2442.4</ele>
        <time>2021-02-17T10:09:43Z</time>
      </trkpt>
      <trkpt lat="45.28899" lon="6.14667">
        <ele>2442.4</ele>
        <time>2021-02-17T10:09:44Z</time>
      </trkpt>
      <trkpt lat="45.28899" lon="6.14666">
        <ele>2440.8</ele>
        <time>2021-02-17T10:09:45Z</time>
      </trkpt>
      <trkpt lat="45.28898" lon="6.14665">
        <ele>2440.8</ele>
        <time>2021-02-17T10:09:46Z</time>
      </trkpt>
      <trkpt lat="45.28898" lon="6.14664">
        <ele>2440.8</ele>
        <time>2021-02-17T10:09:47Z</time>
      </trkpt>
      <trkpt lat="45.28897" lon="6.14663">
        <ele>2441.1</ele>
        <time>2021-02-17T10:09:48Z</time>
      </trkpt>
      <trkpt lat="45.28897" lon="6.14661">
        <ele>2441.1</ele>
        <time>2021-02-17T10:09:49Z</time>
      </trkpt>
      <trkpt lat="45.28896" lon="6.1466">
        <ele>2441.1</ele>
        <time>2021-02-17T10:09:50Z</time>
      </trkpt>
      <trkpt lat="45.28896" lon="6.1466">
        <ele>2439.4</ele>
        <time>2021-02-17T10:09:51Z</time>
      </trkpt>
      <trkpt lat="45.28895" lon="6.14659">
        <ele>2439.7</ele>
        <time>2021-02-17T10:09:52Z</time>
      </trkpt>
      <trkpt lat="45.28902" lon="6.14656">
        <ele>2444.4</ele>
        <time>2021-02-17T10:10:08Z</time>
      </trkpt>
      <trkpt lat="45.28903" lon="6.14656">
        <ele>2444.4</ele>
        <time>2021-02-17T10:10:09Z</time>
      </trkpt>
      <trkpt lat="45.28904" lon="6.14656">
        <ele>2444.4</ele>
        <time>2021-02-17T10:10:10Z</time>
      </trkpt>
      <trkpt lat="45.28905" lon="6.14656">
        <ele>2444.4</ele>
        <time>2021-02-17T10:10:11Z</time>
      </trkpt>
      <trkpt lat="45.28905" lon="6.14656">
        <ele>2444.4</ele>
        <time>2021-02-17T10:10:12Z</time>
      </trkpt>
      <trkpt lat="45.28906" lon="6.14657">
        <ele>2445.9</ele>
        <time>2021-02-17T10:10:13Z</time>
      </trkpt>
      <trkpt lat="45.28907" lon="6.14657">
        <ele>2445.9</ele>
        <time>2021-02-17T10:10:14Z</time>
      </trkpt>
      <trkpt lat="45.28908" lon="6.14657">
        <ele>2445.9</ele>
        <time>2021-02-17T10:10:15Z</time>
      </trkpt>
      <trkpt lat="45.28909" lon="6.14657">
        <ele>2447.5</ele>
        <time>2021-02-17T10:10:16Z</time>
      </trkpt>
      <trkpt lat="45.2891" lon="6.14657">
        <ele>2447.5</ele>
        <time>2021-02-17T10:10:17Z</time>
      </trkpt>
      <trkpt lat="45.28911" lon="6.14657">
        <ele>2447.5</ele>
        <time>2021-02-17T10:10:18Z</time>
      </trkpt>
      <trkpt lat="45.28911" lon="6.14657">
        <ele>2449.2</ele>
        <time>2021-02-17T10:10:19Z</time>
      </trkpt>
      <trkpt lat="45.28912" lon="6.14657">
        <ele>2449.2</ele>
        <time>2021-02-17T10:10:20Z</time>
      </trkpt>
      <trkpt lat="45.28914" lon="6.14656">
        <ele>2451</ele>
        <time>2021-02-17T10:10:22Z</time>
      </trkpt>
      <trkpt lat="45.28915" lon="6.14656">
        <ele>2451</ele>
        <time>2021-02-17T10:10:23Z</time>
      </trkpt>
      <trkpt lat="45.28916" lon="6.14656">
        <ele>2451</ele>
        <time>2021-02-17T10:10:24Z</time>
      </trkpt>
      <trkpt lat="45.28916" lon="6.14656">
        <ele>2451</ele>
        <time>2021-02-17T10:10:25Z</time>
      </trkpt>
      <trkpt lat="45.28917" lon="6.14656">
        <ele>2452.8</ele>
        <time>2021-02-17T10:10:26Z</time>
      </trkpt>
      <trkpt lat="45.28918" lon="6.14656">
        <ele>2452.8</ele>
        <time>2021-02-17T10:10:27Z</time>
      </trkpt>
      <trkpt lat="45.28919" lon="6.14656">
        <ele>2452.8</ele>
        <time>2021-02-17T10:10:28Z</time>
      </trkpt>
      <trkpt lat="45.2892" lon="6.14657">
        <ele>2452.8</ele>
        <time>2021-02-17T10:10:29Z</time>
      </trkpt>
      <trkpt lat="45.28921" lon="6.14657">
        <ele>2454.4</ele>
        <time>2021-02-17T10:10:30Z</time>
      </trkpt>
      <trkpt lat="45.28922" lon="6.14657">
        <ele>2454.4</ele>
        <time>2021-02-17T10:10:31Z</time>
      </trkpt>
      <trkpt lat="45.28923" lon="6.14657">
        <ele>2454.4</ele>
        <time>2021-02-17T10:10:32Z</time>
      </trkpt>
      <trkpt lat="45.28924" lon="6.14658">
        <ele>2456</ele>
        <time>2021-02-17T10:10:33Z</time>
      </trkpt>
      <trkpt lat="45.28925" lon="6.14658">
        <ele>2456</ele>
        <time>2021-02-17T10:10:34Z</time>
      </trkpt>
      <trkpt lat="45.28926" lon="6.14658">
        <ele>2456</ele>
        <time>2021-02-17T10:10:35Z</time>
      </trkpt>
      <trkpt lat="45.28927" lon="6.14659">
        <ele>2457.4</ele>
        <time>2021-02-17T10:10:36Z</time>
      </trkpt>
      <trkpt lat="45.28927" lon="6.14659">
        <ele>2457.4</ele>
        <time>2021-02-17T10:10:37Z</time>
      </trkpt>
      <trkpt lat="45.28928" lon="6.14659">
        <ele>2457.4</ele>
        <time>2021-02-17T10:10:38Z</time>
      </trkpt>
      <trkpt lat="45.28929" lon="6.14659">
        <ele>2458.8</ele>
        <time>2021-02-17T10:10:39Z</time>
      </trkpt>
      <trkpt lat="45.2893" lon="6.14659">
        <ele>2458.8</ele>
        <time>2021-02-17T10:10:40Z</time>
      </trkpt>
      <trkpt lat="45.28931" lon="6.14659">
        <ele>2458.8</ele>
        <time>2021-02-17T10:10:41Z</time>
      </trkpt>
      <trkpt lat="45.28932" lon="6.14659">
        <ele>2458.8</ele>
        <time>2021-02-17T10:10:42Z</time>
      </trkpt>
      <trkpt lat="45.28932" lon="6.14659">
        <ele>2458.8</ele>
        <time>2021-02-17T10:10:43Z</time>
      </trkpt>
      <trkpt lat="45.28933" lon="6.14659">
        <ele>2460.3</ele>
        <time>2021-02-17T10:10:44Z</time>
      </trkpt>
      <trkpt lat="45.28933" lon="6.14658">
        <ele>2460.3</ele>
        <time>2021-02-17T10:10:45Z</time>
      </trkpt>
      <trkpt lat="45.28934" lon="6.14658">
        <ele>2460.3</ele>
        <time>2021-02-17T10:10:46Z</time>
      </trkpt>
      <trkpt lat="45.28935" lon="6.14658">
        <ele>2461.7</ele>
        <time>2021-02-17T10:10:47Z</time>
      </trkpt>
      <trkpt lat="45.28936" lon="6.14658">
        <ele>2461.7</ele>
        <time>2021-02-17T10:10:48Z</time>
      </trkpt>
      <trkpt lat="45.28937" lon="6.14658">
        <ele>2461.7</ele>
        <time>2021-02-17T10:10:49Z</time>
      </trkpt>
      <trkpt lat="45.28937" lon="6.14659">
        <ele>2461.7</ele>
        <time>2021-02-17T10:10:50Z</time>
      </trkpt>
      <trkpt lat="45.28938" lon="6.14659">
        <ele>2461.7</ele>
        <time>2021-02-17T10:10:51Z</time>
      </trkpt>
      <trkpt lat="45.28939" lon="6.14659">
        <ele>2463.2</ele>
        <time>2021-02-17T10:10:52Z</time>
      </trkpt>
      <trkpt lat="45.2894" lon="6.14659">
        <ele>2463.2</ele>
        <time>2021-02-17T10:10:53Z</time>
      </trkpt>
      <trkpt lat="45.28941" lon="6.14659">
        <ele>2463.2</ele>
        <time>2021-02-17T10:10:54Z</time>
      </trkpt>
      <trkpt lat="45.28942" lon="6.14659">
        <ele>2464.7</ele>
        <time>2021-02-17T10:10:55Z</time>
      </trkpt>
      <trkpt lat="45.28942" lon="6.14659">
        <ele>2464.7</ele>
        <time>2021-02-17T10:10:56Z</time>
      </trkpt>
      <trkpt lat="45.28943" lon="6.14658">
        <ele>2464.7</ele>
        <time>2021-02-17T10:10:57Z</time>
      </trkpt>
      <trkpt lat="45.28944" lon="6.14658">
        <ele>2464.7</ele>
        <time>2021-02-17T10:10:58Z</time>
      </trkpt>
      <trkpt lat="45.28945" lon="6.14659">
        <ele>2466.2</ele>
        <time>2021-02-17T10:10:59Z</time>
      </trkpt>
      <trkpt lat="45.28945" lon="6.14659">
        <ele>2466.2</ele>
        <time>2021-02-17T10:11:00Z</time>
      </trkpt>
      <trkpt lat="45.28945" lon="6.14659">
        <ele>2466.2</ele>
        <time>2021-02-17T10:11:01Z</time>
      </trkpt>
      <trkpt lat="45.28946" lon="6.14659">
        <ele>2466.2</ele>
        <time>2021-02-17T10:11:02Z</time>
      </trkpt>
      <trkpt lat="45.28946" lon="6.14659">
        <ele>2466.2</ele>
        <time>2021-02-17T10:11:03Z</time>
      </trkpt>
      <trkpt lat="45.28947" lon="6.14659">
        <ele>2466.2</ele>
        <time>2021-02-17T10:11:04Z</time>
      </trkpt>
      <trkpt lat="45.28947" lon="6.1466">
        <ele>2465.8</ele>
        <time>2021-02-17T10:11:05Z</time>
      </trkpt>
      <trkpt lat="45.28947" lon="6.1466">
        <ele>2467.3</ele>
        <time>2021-02-17T10:11:06Z</time>
      </trkpt>
      <trkpt lat="45.28948" lon="6.1466">
        <ele>2467.3</ele>
        <time>2021-02-17T10:11:07Z</time>
      </trkpt>
      <trkpt lat="45.28948" lon="6.1466">
        <ele>2467.3</ele>
        <time>2021-02-17T10:11:08Z</time>
      </trkpt>
      <trkpt lat="45.28949" lon="6.1466">
        <ele>2467.3</ele>
        <time>2021-02-17T10:11:09Z</time>
      </trkpt>
      <trkpt lat="45.28949" lon="6.1466">
        <ele>2467.3</ele>
        <time>2021-02-17T10:11:10Z</time>
      </trkpt>
      <trkpt lat="45.28949" lon="6.1466">
        <ele>2467.3</ele>
        <time>2021-02-17T10:11:11Z</time>
      </trkpt>
      <trkpt lat="45.28949" lon="6.1466">
        <ele>2467.3</ele>
        <time>2021-02-17T10:11:12Z</time>
      </trkpt>
      <trkpt lat="45.28949" lon="6.1466">
        <ele>2467.3</ele>
        <time>2021-02-17T10:11:13Z</time>
      </trkpt>
      <trkpt lat="45.28949" lon="6.14659">
        <ele>2467.7</ele>
        <time>2021-02-17T10:11:14Z</time>
      </trkpt>
      <trkpt lat="45.28949" lon="6.14659">
        <ele>2467.7</ele>
        <time>2021-02-17T10:11:15Z</time>
      </trkpt>
      <trkpt lat="45.28949" lon="6.14658">
        <ele>2467.7</ele>
        <time>2021-02-17T10:11:16Z</time>
      </trkpt>
      <trkpt lat="45.28949" lon="6.14657">
        <ele>2467.7</ele>
        <time>2021-02-17T10:11:17Z</time>
      </trkpt>
      <trkpt lat="45.28949" lon="6.14648">
        <ele>2468.3</ele>
        <time>2021-02-17T10:11:32Z</time>
      </trkpt>
      <trkpt lat="45.28949" lon="6.14647">
        <ele>2468.3</ele>
        <time>2021-02-17T10:11:33Z</time>
      </trkpt>
      <trkpt lat="45.28949" lon="6.14646">
        <ele>2468.5</ele>
        <time>2021-02-17T10:11:34Z</time>
      </trkpt>
      <trkpt lat="45.28948" lon="6.14645">
        <ele>2468.5</ele>
        <time>2021-02-17T10:11:35Z</time>
      </trkpt>
      <trkpt lat="45.28948" lon="6.14644">
        <ele>2468.5</ele>
        <time>2021-02-17T10:11:36Z</time>
      </trkpt>
      <trkpt lat="45.28948" lon="6.14643">
        <ele>2468.5</ele>
        <time>2021-02-17T10:11:37Z</time>
      </trkpt>
      <trkpt lat="45.28948" lon="6.14642">
        <ele>2468.7</ele>
        <time>2021-02-17T10:11:38Z</time>
      </trkpt>
      <trkpt lat="45.28948" lon="6.14641">
        <ele>2468.7</ele>
        <time>2021-02-17T10:11:39Z</time>
      </trkpt>
      <trkpt lat="45.28947" lon="6.1464">
        <ele>2467.2</ele>
        <time>2021-02-17T10:11:40Z</time>
      </trkpt>
      <trkpt lat="45.28947" lon="6.14639">
        <ele>2467.2</ele>
        <time>2021-02-17T10:11:41Z</time>
      </trkpt>
      <trkpt lat="45.28947" lon="6.14637">
        <ele>2467.3</ele>
        <time>2021-02-17T10:11:42Z</time>
      </trkpt>
      <trkpt lat="45.28946" lon="6.14636">
        <ele>2467.3</ele>
        <time>2021-02-17T10:11:43Z</time>
      </trkpt>
      <trkpt lat="45.28946" lon="6.14635">
        <ele>2467.3</ele>
        <time>2021-02-17T10:11:44Z</time>
      </trkpt>
      <trkpt lat="45.28946" lon="6.14635">
        <ele>2467.3</ele>
        <time>2021-02-17T10:11:45Z</time>
      </trkpt>
      <trkpt lat="45.28946" lon="6.14634">
        <ele>2467.3</ele>
        <time>2021-02-17T10:11:46Z</time>
      </trkpt>
      <trkpt lat="45.28946" lon="6.14633">
        <ele>2467.5</ele>
        <time>2021-02-17T10:11:47Z</time>
      </trkpt>
      <trkpt lat="45.28946" lon="6.14633">
        <ele>2467.5</ele>
        <time>2021-02-17T10:11:48Z</time>
      </trkpt>
      <trkpt lat="45.28946" lon="6.14632">
        <ele>2467.5</ele>
        <time>2021-02-17T10:11:49Z</time>
      </trkpt>
      <trkpt lat="45.28945" lon="6.14631">
        <ele>2467.5</ele>
        <time>2021-02-17T10:11:50Z</time>
      </trkpt>
      <trkpt lat="45.28945" lon="6.1463">
        <ele>2467.5</ele>
        <time>2021-02-17T10:11:51Z</time>
      </trkpt>
      <trkpt lat="45.28944" lon="6.14629">
        <ele>2467.7</ele>
        <time>2021-02-17T10:11:52Z</time>
      </trkpt>
      <trkpt lat="45.28944" lon="6.14628">
        <ele>2467.7</ele>
        <time>2021-02-17T10:11:53Z</time>
      </trkpt>
      <trkpt lat="45.28944" lon="6.14628">
        <ele>2466.2</ele>
        <time>2021-02-17T10:11:54Z</time>
      </trkpt>
      <trkpt lat="45.28944" lon="6.14627">
        <ele>2466.2</ele>
        <time>2021-02-17T10:11:55Z</time>
      </trkpt>
      <trkpt lat="45.28943" lon="6.14626">
        <ele>2466.2</ele>
        <time>2021-02-17T10:11:56Z</time>
      </trkpt>
      <trkpt lat="45.28943" lon="6.14625">
        <ele>2466.4</ele>
        <time>2021-02-17T10:11:57Z</time>
      </trkpt>
      <trkpt lat="45.28942" lon="6.14624">
        <ele>2466.4</ele>
        <time>2021-02-17T10:11:58Z</time>
      </trkpt>
      <trkpt lat="45.28942" lon="6.14623">
        <ele>2466.4</ele>
        <time>2021-02-17T10:11:59Z</time>
      </trkpt>
      <trkpt lat="45.28941" lon="6.14622">
        <ele>2464.8</ele>
        <time>2021-02-17T10:12:00Z</time>
      </trkpt>
      <trkpt lat="45.2894" lon="6.14622">
        <ele>2464.8</ele>
        <time>2021-02-17T10:12:01Z</time>
      </trkpt>
      <trkpt lat="45.2894" lon="6.14622">
        <ele>2464.8</ele>
        <time>2021-02-17T10:12:02Z</time>
      </trkpt>
      <trkpt lat="45.28939" lon="6.14621">
        <ele>2464.8</ele>
        <time>2021-02-17T10:12:03Z</time>
      </trkpt>
      <trkpt lat="45.28939" lon="6.14621">
        <ele>2464.8</ele>
        <time>2021-02-17T10:12:04Z</time>
      </trkpt>
      <trkpt lat="45.28939" lon="6.14621">
        <ele>2465</ele>
        <time>2021-02-17T10:12:05Z</time>
      </trkpt>
      <trkpt lat="45.28939" lon="6.1462">
        <ele>2465</ele>
        <time>2021-02-17T10:12:06Z</time>
      </trkpt>
      <trkpt lat="45.28939" lon="6.14619">
        <ele>2465</ele>
        <time>2021-02-17T10:12:07Z</time>
      </trkpt>
      <trkpt lat="45.28939" lon="6.14618">
        <ele>2465</ele>
        <time>2021-02-17T10:12:08Z</time>
      </trkpt>
      <trkpt lat="45.28939" lon="6.14618">
        <ele>2465</ele>
        <time>2021-02-17T10:12:09Z</time>
      </trkpt>
      <trkpt lat="45.28938" lon="6.14617">
        <ele>2463.5</ele>
        <time>2021-02-17T10:12:10Z</time>
      </trkpt>
      <trkpt lat="45.28945" lon="6.146">
        <ele>2468.7</ele>
        <time>2021-02-17T10:12:52Z</time>
      </trkpt>
      <trkpt lat="45.28946" lon="6.146">
        <ele>2468.7</ele>
        <time>2021-02-17T10:12:53Z</time>
      </trkpt>
      <trkpt lat="45.28946" lon="6.14601">
        <ele>2468.7</ele>
        <time>2021-02-17T10:12:54Z</time>
      </trkpt>
      <trkpt lat="45.28947" lon="6.14601">
        <ele>2468.7</ele>
        <time>2021-02-17T10:12:55Z</time>
      </trkpt>
      <trkpt lat="45.28947" lon="6.14601">
        <ele>2468.7</ele>
        <time>2021-02-17T10:12:56Z</time>
      </trkpt>
      <trkpt lat="45.28947" lon="6.14601">
        <ele>2470.2</ele>
        <time>2021-02-17T10:12:57Z</time>
      </trkpt>
      <trkpt lat="45.28948" lon="6.146">
        <ele>2470.2</ele>
        <time>2021-02-17T10:12:58Z</time>
      </trkpt>
      <trkpt lat="45.28949" lon="6.146">
        <ele>2470.2</ele>
        <time>2021-02-17T10:12:59Z</time>
      </trkpt>
      <trkpt lat="45.28949" lon="6.146">
        <ele>2470.2</ele>
        <time>2021-02-17T10:13:00Z</time>
      </trkpt>
      <trkpt lat="45.2895" lon="6.146">
        <ele>2470.2</ele>
        <time>2021-02-17T10:13:01Z</time>
      </trkpt>
      <trkpt lat="45.2895" lon="6.14599">
        <ele>2470.2</ele>
        <time>2021-02-17T10:13:02Z</time>
      </trkpt>
      <trkpt lat="45.2895" lon="6.14599">
        <ele>2471.8</ele>
        <time>2021-02-17T10:13:03Z</time>
      </trkpt>
      <trkpt lat="45.28951" lon="6.14598">
        <ele>2471.8</ele>
        <time>2021-02-17T10:13:04Z</time>
      </trkpt>
      <trkpt lat="45.28951" lon="6.14598">
        <ele>2471.8</ele>
        <time>2021-02-17T10:13:05Z</time>
      </trkpt>
      <trkpt lat="45.28952" lon="6.14598">
        <ele>2471.8</ele>
        <time>2021-02-17T10:13:06Z</time>
      </trkpt>
      <trkpt lat="45.28952" lon="6.14597">
        <ele>2471.8</ele>
        <time>2021-02-17T10:13:07Z</time>
      </trkpt>
      <trkpt lat="45.28953" lon="6.14597">
        <ele>2471.8</ele>
        <time>2021-02-17T10:13:08Z</time>
      </trkpt>
      <trkpt lat="45.28954" lon="6.14597">
        <ele>2473.2</ele>
        <time>2021-02-17T10:13:09Z</time>
      </trkpt>
      <trkpt lat="45.28956" lon="6.14598">
        <ele>2473.2</ele>
        <time>2021-02-17T10:13:10Z</time>
      </trkpt>
      <trkpt lat="45.28957" lon="6.14598">
        <ele>2474.5</ele>
        <time>2021-02-17T10:13:11Z</time>
      </trkpt>
      <trkpt lat="45.28958" lon="6.14598">
        <ele>2474.5</ele>
        <time>2021-02-17T10:13:12Z</time>
      </trkpt>
      <trkpt lat="45.28959" lon="6.14598">
        <ele>2475.8</ele>
        <time>2021-02-17T10:13:13Z</time>
      </trkpt>
      <trkpt lat="45.28961" lon="6.14598">
        <ele>2475.8</ele>
        <time>2021-02-17T10:13:14Z</time>
      </trkpt>
      <trkpt lat="45.28962" lon="6.14599">
        <ele>2475.8</ele>
        <time>2021-02-17T10:13:15Z</time>
      </trkpt>
      <trkpt lat="45.28962" lon="6.14599">
        <ele>2477</ele>
        <time>2021-02-17T10:13:16Z</time>
      </trkpt>
      <trkpt lat="45.28964" lon="6.14599">
        <ele>2477</ele>
        <time>2021-02-17T10:13:17Z</time>
      </trkpt>
      <trkpt lat="45.28964" lon="6.14599">
        <ele>2477</ele>
        <time>2021-02-17T10:13:18Z</time>
      </trkpt>
      <trkpt lat="45.28965" lon="6.14599">
        <ele>2478.3</ele>
        <time>2021-02-17T10:13:19Z</time>
      </trkpt>
      <trkpt lat="45.28966" lon="6.14598">
        <ele>2478.3</ele>
        <time>2021-02-17T10:13:20Z</time>
      </trkpt>
      <trkpt lat="45.28967" lon="6.14599">
        <ele>2478.3</ele>
        <time>2021-02-17T10:13:21Z</time>
      </trkpt>
      <trkpt lat="45.28968" lon="6.14599">
        <ele>2478.3</ele>
        <time>2021-02-17T10:13:22Z</time>
      </trkpt>
      <trkpt lat="45.28968" lon="6.14599">
        <ele>2478.3</ele>
        <time>2021-02-17T10:13:23Z</time>
      </trkpt>
      <trkpt lat="45.28968" lon="6.14599">
        <ele>2478.3</ele>
        <time>2021-02-17T10:13:24Z</time>
      </trkpt>
      <trkpt lat="45.28968" lon="6.14598">
        <ele>2479.8</ele>
        <time>2021-02-17T10:13:25Z</time>
      </trkpt>
      <trkpt lat="45.28969" lon="6.14598">
        <ele>2479.8</ele>
        <time>2021-02-17T10:13:26Z</time>
      </trkpt>
      <trkpt lat="45.2897" lon="6.14598">
        <ele>2479.8</ele>
        <time>2021-02-17T10:13:27Z</time>
      </trkpt>
      <trkpt lat="45.2897" lon="6.14597">
        <ele>2479.8</ele>
        <time>2021-02-17T10:13:28Z</time>
      </trkpt>
      <trkpt lat="45.2897" lon="6.14596">
        <ele>2479.8</ele>
        <time>2021-02-17T10:13:29Z</time>
      </trkpt>
      <trkpt lat="45.2897" lon="6.14596">
        <ele>2479.8</ele>
        <time>2021-02-17T10:13:30Z</time>
      </trkpt>
      <trkpt lat="45.28971" lon="6.14593">
        <ele>2481.3</ele>
        <time>2021-02-17T10:13:33Z</time>
      </trkpt>
      <trkpt lat="45.28972" lon="6.14592">
        <ele>2481.3</ele>
        <time>2021-02-17T10:13:34Z</time>
      </trkpt>
      <trkpt lat="45.28972" lon="6.14591">
        <ele>2481.2</ele>
        <time>2021-02-17T10:13:35Z</time>
      </trkpt>
      <trkpt lat="45.28972" lon="6.1459">
        <ele>2481.2</ele>
        <time>2021-02-17T10:13:36Z</time>
      </trkpt>
      <trkpt lat="45.28972" lon="6.14589">
        <ele>2481.2</ele>
        <time>2021-02-17T10:13:37Z</time>
      </trkpt>
      <trkpt lat="45.28972" lon="6.14588">
        <ele>2481.2</ele>
        <time>2021-02-17T10:13:38Z</time>
      </trkpt>
      <trkpt lat="45.28973" lon="6.14587">
        <ele>2481.2</ele>
        <time>2021-02-17T10:13:39Z</time>
      </trkpt>
      <trkpt lat="45.28973" lon="6.14586">
        <ele>2481.1</ele>
        <time>2021-02-17T10:13:40Z</time>
      </trkpt>
      <trkpt lat="45.28973" lon="6.14585">
        <ele>2481.1</ele>
        <time>2021-02-17T10:13:41Z</time>
      </trkpt>
      <trkpt lat="45.28974" lon="6.14584">
        <ele>2481.1</ele>
        <time>2021-02-17T10:13:42Z</time>
      </trkpt>
      <trkpt lat="45.28973" lon="6.14583">
        <ele>2481.1</ele>
        <time>2021-02-17T10:13:43Z</time>
      </trkpt>
      <trkpt lat="45.28973" lon="6.14582">
        <ele>2481</ele>
        <time>2021-02-17T10:13:44Z</time>
      </trkpt>
      <trkpt lat="45.28972" lon="6.14581">
        <ele>2481</ele>
        <time>2021-02-17T10:13:45Z</time>
      </trkpt>
      <trkpt lat="45.28972" lon="6.14581">
        <ele>2481</ele>
        <time>2021-02-17T10:13:46Z</time>
      </trkpt>
      <trkpt lat="45.28972" lon="6.14581">
        <ele>2481</ele>
        <time>2021-02-17T10:13:47Z</time>
      </trkpt>
      <trkpt lat="45.28973" lon="6.1458">
        <ele>2481</ele>
        <time>2021-02-17T10:13:48Z</time>
      </trkpt>
      <trkpt lat="45.28973" lon="6.14579">
        <ele>2481</ele>
        <time>2021-02-17T10:13:49Z</time>
      </trkpt>
      <trkpt lat="45.28973" lon="6.14579">
        <ele>2481</ele>
        <time>2021-02-17T10:13:50Z</time>
      </trkpt>
      <trkpt lat="45.28973" lon="6.14578">
        <ele>2480.9</ele>
        <time>2021-02-17T10:13:51Z</time>
      </trkpt>
      <trkpt lat="45.28973" lon="6.14577">
        <ele>2480.9</ele>
        <time>2021-02-17T10:13:52Z</time>
      </trkpt>
      <trkpt lat="45.28973" lon="6.14576">
        <ele>2480.9</ele>
        <time>2021-02-17T10:13:53Z</time>
      </trkpt>
      <trkpt lat="45.28972" lon="6.14575">
        <ele>2480.9</ele>
        <time>2021-02-17T10:13:54Z</time>
      </trkpt>
      <trkpt lat="45.28972" lon="6.14574">
        <ele>2480.9</ele>
        <time>2021-02-17T10:13:55Z</time>
      </trkpt>
      <trkpt lat="45.28972" lon="6.14573">
        <ele>2480.8</ele>
        <time>2021-02-17T10:13:56Z</time>
      </trkpt>
      <trkpt lat="45.28972" lon="6.14572">
        <ele>2480.8</ele>
        <time>2021-02-17T10:13:57Z</time>
      </trkpt>
      <trkpt lat="45.28972" lon="6.14571">
        <ele>2480.8</ele>
        <time>2021-02-17T10:13:58Z</time>
      </trkpt>
      <trkpt lat="45.28972" lon="6.1457">
        <ele>2480.8</ele>
        <time>2021-02-17T10:13:59Z</time>
      </trkpt>
      <trkpt lat="45.28971" lon="6.14569">
        <ele>2480.7</ele>
        <time>2021-02-17T10:14:00Z</time>
      </trkpt>
      <trkpt lat="45.28971" lon="6.14568">
        <ele>2479.4</ele>
        <time>2021-02-17T10:14:01Z</time>
      </trkpt>
      <trkpt lat="45.2897" lon="6.14567">
        <ele>2479.4</ele>
        <time>2021-02-17T10:14:02Z</time>
      </trkpt>
      <trkpt lat="45.2897" lon="6.14566">
        <ele>2479.4</ele>
        <time>2021-02-17T10:14:03Z</time>
      </trkpt>
      <trkpt lat="45.28969" lon="6.14566">
        <ele>2479.4</ele>
        <time>2021-02-17T10:14:04Z</time>
      </trkpt>
      <trkpt lat="45.28969" lon="6.14565">
        <ele>2479.3</ele>
        <time>2021-02-17T10:14:05Z</time>
      </trkpt>
      <trkpt lat="45.28968" lon="6.14564">
        <ele>2478.1</ele>
        <time>2021-02-17T10:14:06Z</time>
      </trkpt>
      <trkpt lat="45.28968" lon="6.14564">
        <ele>2478.1</ele>
        <time>2021-02-17T10:14:07Z</time>
      </trkpt>
      <trkpt lat="45.28968" lon="6.14564">
        <ele>2478.1</ele>
        <time>2021-02-17T10:14:08Z</time>
      </trkpt>
      <trkpt lat="45.28968" lon="6.14564">
        <ele>2478.1</ele>
        <time>2021-02-17T10:14:09Z</time>
      </trkpt>
      <trkpt lat="45.28968" lon="6.14564">
        <ele>2478.1</ele>
        <time>2021-02-17T10:14:10Z</time>
      </trkpt>
      <trkpt lat="45.28968" lon="6.14564">
        <ele>2478.1</ele>
        <time>2021-02-17T10:14:11Z</time>
      </trkpt>
      <trkpt lat="45.28968" lon="6.14563">
        <ele>2478.1</ele>
        <time>2021-02-17T10:14:12Z</time>
      </trkpt>
      <trkpt lat="45.28968" lon="6.14563">
        <ele>2478.1</ele>
        <time>2021-02-17T10:14:13Z</time>
      </trkpt>
      <trkpt lat="45.28968" lon="6.14563">
        <ele>2478.1</ele>
        <time>2021-02-17T10:14:14Z</time>
      </trkpt>
      <trkpt lat="45.28968" lon="6.14563">
        <ele>2478.1</ele>
        <time>2021-02-17T10:14:15Z</time>
      </trkpt>
      <trkpt lat="45.28968" lon="6.14563">
        <ele>2478.1</ele>
        <time>2021-02-17T10:14:16Z</time>
      </trkpt>
      <trkpt lat="45.28968" lon="6.14563">
        <ele>2478.1</ele>
        <time>2021-02-17T10:14:17Z</time>
      </trkpt>
      <trkpt lat="45.28975" lon="6.14561">
        <ele>2482</ele>
        <time>2021-02-17T10:14:28Z</time>
      </trkpt>
      <trkpt lat="45.28976" lon="6.14561">
        <ele>2481.9</ele>
        <time>2021-02-17T10:14:29Z</time>
      </trkpt>
      <trkpt lat="45.28977" lon="6.1456">
        <ele>2481.9</ele>
        <time>2021-02-17T10:14:30Z</time>
      </trkpt>
      <trkpt lat="45.28978" lon="6.1456">
        <ele>2483.3</ele>
        <time>2021-02-17T10:14:31Z</time>
      </trkpt>
      <trkpt lat="45.28978" lon="6.1456">
        <ele>2483.3</ele>
        <time>2021-02-17T10:14:32Z</time>
      </trkpt>
      <trkpt lat="45.28979" lon="6.1456">
        <ele>2483.3</ele>
        <time>2021-02-17T10:14:33Z</time>
      </trkpt>
      <trkpt lat="45.2898" lon="6.1456">
        <ele>2483.3</ele>
        <time>2021-02-17T10:14:34Z</time>
      </trkpt>
      <trkpt lat="45.28981" lon="6.1456">
        <ele>2484.6</ele>
        <time>2021-02-17T10:14:35Z</time>
      </trkpt>
      <trkpt lat="45.28982" lon="6.1456">
        <ele>2484.6</ele>
        <time>2021-02-17T10:14:36Z</time>
      </trkpt>
      <trkpt lat="45.28983" lon="6.1456">
        <ele>2484.6</ele>
        <time>2021-02-17T10:14:37Z</time>
      </trkpt>
      <trkpt lat="45.28983" lon="6.14561">
        <ele>2484.6</ele>
        <time>2021-02-17T10:14:38Z</time>
      </trkpt>
      <trkpt lat="45.28983" lon="6.14561">
        <ele>2484.7</ele>
        <time>2021-02-17T10:14:39Z</time>
      </trkpt>
      <trkpt lat="45.28983" lon="6.14561">
        <ele>2484.7</ele>
        <time>2021-02-17T10:14:40Z</time>
      </trkpt>
      <trkpt lat="45.28983" lon="6.14562">
        <ele>2484.7</ele>
        <time>2021-02-17T10:14:41Z</time>
      </trkpt>
      <trkpt lat="45.28983" lon="6.14562">
        <ele>2484.7</ele>
        <time>2021-02-17T10:14:42Z</time>
      </trkpt>
      <trkpt lat="45.28983" lon="6.14562">
        <ele>2484.7</ele>
        <time>2021-02-17T10:14:43Z</time>
      </trkpt>
      <trkpt lat="45.28984" lon="6.14562">
        <ele>2485.9</ele>
        <time>2021-02-17T10:14:44Z</time>
      </trkpt>
      <trkpt lat="45.28985" lon="6.14563">
        <ele>2485.9</ele>
        <time>2021-02-17T10:14:45Z</time>
      </trkpt>
      <trkpt lat="45.28985" lon="6.14563">
        <ele>2485.9</ele>
        <time>2021-02-17T10:14:46Z</time>
      </trkpt>
      <trkpt lat="45.28985" lon="6.14564">
        <ele>2485.9</ele>
        <time>2021-02-17T10:14:47Z</time>
      </trkpt>
      <trkpt lat="45.28985" lon="6.14564">
        <ele>2485.9</ele>
        <time>2021-02-17T10:14:48Z</time>
      </trkpt>
      <trkpt lat="45.28985" lon="6.14565">
        <ele>2485.9</ele>
        <time>2021-02-17T10:14:49Z</time>
      </trkpt>
      <trkpt lat="45.28985" lon="6.14565">
        <ele>2485.9</ele>
        <time>2021-02-17T10:14:50Z</time>
      </trkpt>
      <trkpt lat="45.28985" lon="6.14565">
        <ele>2485.9</ele>
        <time>2021-02-17T10:14:51Z</time>
      </trkpt>
      <trkpt lat="45.28986" lon="6.14565">
        <ele>2485.9</ele>
        <time>2021-02-17T10:14:52Z</time>
      </trkpt>
      <trkpt lat="45.28986" lon="6.14565">
        <ele>2485.9</ele>
        <time>2021-02-17T10:14:53Z</time>
      </trkpt>
      <trkpt lat="45.28987" lon="6.14565">
        <ele>2487</ele>
        <time>2021-02-17T10:14:54Z</time>
      </trkpt>
      <trkpt lat="45.28987" lon="6.14565">
        <ele>2487</ele>
        <time>2021-02-17T10:14:55Z</time>
      </trkpt>
      <trkpt lat="45.28988" lon="6.14565">
        <ele>2487</ele>
        <time>2021-02-17T10:14:56Z</time>
      </trkpt>
      <trkpt lat="45.28989" lon="6.14565">
        <ele>2487</ele>
        <time>2021-02-17T10:14:57Z</time>
      </trkpt>
      <trkpt lat="45.28989" lon="6.14565">
        <ele>2487.2</ele>
        <time>2021-02-17T10:14:58Z</time>
      </trkpt>
      <trkpt lat="45.2899" lon="6.14565">
        <ele>2488.5</ele>
        <time>2021-02-17T10:14:59Z</time>
      </trkpt>
      <trkpt lat="45.28991" lon="6.14565">
        <ele>2488.5</ele>
        <time>2021-02-17T10:15:00Z</time>
      </trkpt>
      <trkpt lat="45.28992" lon="6.14566">
        <ele>2488.5</ele>
        <time>2021-02-17T10:15:01Z</time>
      </trkpt>
      <trkpt lat="45.28993" lon="6.14566">
        <ele>2489.8</ele>
        <time>2021-02-17T10:15:02Z</time>
      </trkpt>
      <trkpt lat="45.28993" lon="6.14565">
        <ele>2489.8</ele>
        <time>2021-02-17T10:15:03Z</time>
      </trkpt>
      <trkpt lat="45.28994" lon="6.14565">
        <ele>2489.8</ele>
        <time>2021-02-17T10:15:04Z</time>
      </trkpt>
      <trkpt lat="45.28995" lon="6.14565">
        <ele>2489.6</ele>
        <time>2021-02-17T10:15:05Z</time>
      </trkpt>
      <trkpt lat="45.28995" lon="6.14564">
        <ele>2489.6</ele>
        <time>2021-02-17T10:15:06Z</time>
      </trkpt>
      <trkpt lat="45.28996" lon="6.14563">
        <ele>2491.1</ele>
        <time>2021-02-17T10:15:07Z</time>
      </trkpt>
      <trkpt lat="45.28996" lon="6.14562">
        <ele>2491.1</ele>
        <time>2021-02-17T10:15:08Z</time>
      </trkpt>
      <trkpt lat="45.28997" lon="6.14562">
        <ele>2491.1</ele>
        <time>2021-02-17T10:15:09Z</time>
      </trkpt>
      <trkpt lat="45.28997" lon="6.14561">
        <ele>2491.1</ele>
        <time>2021-02-17T10:15:10Z</time>
      </trkpt>
      <trkpt lat="45.28997" lon="6.1456">
        <ele>2490.8</ele>
        <time>2021-02-17T10:15:11Z</time>
      </trkpt>
      <trkpt lat="45.28998" lon="6.1456">
        <ele>2490.8</ele>
        <time>2021-02-17T10:15:12Z</time>
      </trkpt>
      <trkpt lat="45.28998" lon="6.14559">
        <ele>2490.8</ele>
        <time>2021-02-17T10:15:13Z</time>
      </trkpt>
      <trkpt lat="45.28999" lon="6.14558">
        <ele>2492.4</ele>
        <time>2021-02-17T10:15:14Z</time>
      </trkpt>
      <trkpt lat="45.29" lon="6.14557">
        <ele>2492.4</ele>
        <time>2021-02-17T10:15:15Z</time>
      </trkpt>
      <trkpt lat="45.29" lon="6.14556">
        <ele>2492.1</ele>
        <time>2021-02-17T10:15:16Z</time>
      </trkpt>
      <trkpt lat="45.29" lon="6.14556">
        <ele>2492.1</ele>
        <time>2021-02-17T10:15:17Z</time>
      </trkpt>
      <trkpt lat="45.29001" lon="6.14555">
        <ele>2492.1</ele>
        <time>2021-02-17T10:15:18Z</time>
      </trkpt>
      <trkpt lat="45.29001" lon="6.14554">
        <ele>2492.1</ele>
        <time>2021-02-17T10:15:19Z</time>
      </trkpt>
      <trkpt lat="45.29001" lon="6.14553">
        <ele>2492.1</ele>
        <time>2021-02-17T10:15:20Z</time>
      </trkpt>
      <trkpt lat="45.29002" lon="6.14552">
        <ele>2493.7</ele>
        <time>2021-02-17T10:15:21Z</time>
      </trkpt>
      <trkpt lat="45.29002" lon="6.14552">
        <ele>2493.4</ele>
        <time>2021-02-17T10:15:22Z</time>
      </trkpt>
      <trkpt lat="45.29002" lon="6.14551">
        <ele>2493.4</ele>
        <time>2021-02-17T10:15:23Z</time>
      </trkpt>
      <trkpt lat="45.29002" lon="6.1455">
        <ele>2493.4</ele>
        <time>2021-02-17T10:15:24Z</time>
      </trkpt>
      <trkpt lat="45.29002" lon="6.1455">
        <ele>2493.4</ele>
        <time>2021-02-17T10:15:25Z</time>
      </trkpt>
      <trkpt lat="45.29002" lon="6.14549">
        <ele>2493.4</ele>
        <time>2021-02-17T10:15:26Z</time>
      </trkpt>
      <trkpt lat="45.29002" lon="6.14548">
        <ele>2493.4</ele>
        <time>2021-02-17T10:15:27Z</time>
      </trkpt>
      <trkpt lat="45.29002" lon="6.14547">
        <ele>2493.2</ele>
        <time>2021-02-17T10:15:28Z</time>
      </trkpt>
      <trkpt lat="45.29002" lon="6.14546">
        <ele>2493.2</ele>
        <time>2021-02-17T10:15:29Z</time>
      </trkpt>
      <trkpt lat="45.29002" lon="6.14546">
        <ele>2493.2</ele>
        <time>2021-02-17T10:15:30Z</time>
      </trkpt>
      <trkpt lat="45.29003" lon="6.14545">
        <ele>2493.2</ele>
        <time>2021-02-17T10:15:31Z</time>
      </trkpt>
      <trkpt lat="45.29003" lon="6.14544">
        <ele>2493.2</ele>
        <time>2021-02-17T10:15:32Z</time>
      </trkpt>
      <trkpt lat="45.29004" lon="6.14543">
        <ele>2492.9</ele>
        <time>2021-02-17T10:15:33Z</time>
      </trkpt>
      <trkpt lat="45.29004" lon="6.14542">
        <ele>2492.9</ele>
        <time>2021-02-17T10:15:34Z</time>
      </trkpt>
      <trkpt lat="45.29004" lon="6.14541">
        <ele>2492.9</ele>
        <time>2021-02-17T10:15:35Z</time>
      </trkpt>
      <trkpt lat="45.29004" lon="6.1454">
        <ele>2492.9</ele>
        <time>2021-02-17T10:15:36Z</time>
      </trkpt>
      <trkpt lat="45.29004" lon="6.1454">
        <ele>2492.9</ele>
        <time>2021-02-17T10:15:37Z</time>
      </trkpt>
      <trkpt lat="45.29005" lon="6.14539">
        <ele>2494.3</ele>
        <time>2021-02-17T10:15:38Z</time>
      </trkpt>
      <trkpt lat="45.29005" lon="6.14539">
        <ele>2494.1</ele>
        <time>2021-02-17T10:15:39Z</time>
      </trkpt>
      <trkpt lat="45.29006" lon="6.14538">
        <ele>2494.1</ele>
        <time>2021-02-17T10:15:40Z</time>
      </trkpt>
      <trkpt lat="45.29007" lon="6.14537">
        <ele>2494.1</ele>
        <time>2021-02-17T10:15:41Z</time>
      </trkpt>
      <trkpt lat="45.29007" lon="6.14537">
        <ele>2494.1</ele>
        <time>2021-02-17T10:15:42Z</time>
      </trkpt>
      <trkpt lat="45.29007" lon="6.14536">
        <ele>2494.1</ele>
        <time>2021-02-17T10:15:43Z</time>
      </trkpt>
      <trkpt lat="45.29008" lon="6.14535">
        <ele>2495.3</ele>
        <time>2021-02-17T10:15:44Z</time>
      </trkpt>
      <trkpt lat="45.29008" lon="6.14534">
        <ele>2495</ele>
        <time>2021-02-17T10:15:45Z</time>
      </trkpt>
      <trkpt lat="45.29015" lon="6.14509">
        <ele>2495.9</ele>
        <time>2021-02-17T10:16:22Z</time>
      </trkpt>
      <trkpt lat="45.29016" lon="6.14508">
        <ele>2495.9</ele>
        <time>2021-02-17T10:16:23Z</time>
      </trkpt>
      <trkpt lat="45.29016" lon="6.14508">
        <ele>2495.9</ele>
        <time>2021-02-17T10:16:24Z</time>
      </trkpt>
      <trkpt lat="45.29017" lon="6.14507">
        <ele>2496.9</ele>
        <time>2021-02-17T10:16:25Z</time>
      </trkpt>
      <trkpt lat="45.29017" lon="6.14507">
        <ele>2496.9</ele>
        <time>2021-02-17T10:16:26Z</time>
      </trkpt>
      <trkpt lat="45.29018" lon="6.14506">
        <ele>2496.9</ele>
        <time>2021-02-17T10:16:27Z</time>
      </trkpt>
      <trkpt lat="45.29018" lon="6.14505">
        <ele>2496.9</ele>
        <time>2021-02-17T10:16:28Z</time>
      </trkpt>
      <trkpt lat="45.29018" lon="6.14505">
        <ele>2496.7</ele>
        <time>2021-02-17T10:16:29Z</time>
      </trkpt>
      <trkpt lat="45.29018" lon="6.14504">
        <ele>2496.7</ele>
        <time>2021-02-17T10:16:30Z</time>
      </trkpt>
      <trkpt lat="45.29018" lon="6.14504">
        <ele>2496.7</ele>
        <time>2021-02-17T10:16:31Z</time>
      </trkpt>
      <trkpt lat="45.29019" lon="6.14504">
        <ele>2496.7</ele>
        <time>2021-02-17T10:16:32Z</time>
      </trkpt>
      <trkpt lat="45.29019" lon="6.14504">
        <ele>2496.7</ele>
        <time>2021-02-17T10:16:33Z</time>
      </trkpt>
      <trkpt lat="45.29019" lon="6.14504">
        <ele>2496.7</ele>
        <time>2021-02-17T10:16:34Z</time>
      </trkpt>
      <trkpt lat="45.2902" lon="6.14503">
        <ele>2496.7</ele>
        <time>2021-02-17T10:16:35Z</time>
      </trkpt>
      <trkpt lat="45.2902" lon="6.14503">
        <ele>2497.8</ele>
        <time>2021-02-17T10:16:36Z</time>
      </trkpt>
      <trkpt lat="45.2902" lon="6.14503">
        <ele>2497.8</ele>
        <time>2021-02-17T10:16:37Z</time>
      </trkpt>
      <trkpt lat="45.2902" lon="6.14503">
        <ele>2497.8</ele>
        <time>2021-02-17T10:16:38Z</time>
      </trkpt>
      <trkpt lat="45.29021" lon="6.14503">
        <ele>2497.8</ele>
        <time>2021-02-17T10:16:39Z</time>
      </trkpt>
      <trkpt lat="45.29023" lon="6.14512">
        <ele>2499.3</ele>
        <time>2021-02-17T10:20:20Z</time>
      </trkpt>
      <trkpt lat="45.29022" lon="6.14511">
        <ele>2498.1</ele>
        <time>2021-02-17T10:20:21Z</time>
      </trkpt>
      <trkpt lat="45.29021" lon="6.1451">
        <ele>2498.1</ele>
        <time>2021-02-17T10:20:22Z</time>
      </trkpt>
      <trkpt lat="45.29021" lon="6.1451">
        <ele>2498.1</ele>
        <time>2021-02-17T10:20:23Z</time>
      </trkpt>
      <trkpt lat="45.29021" lon="6.1451">
        <ele>2498.1</ele>
        <time>2021-02-17T10:20:24Z</time>
      </trkpt>
      <trkpt lat="45.29021" lon="6.1451">
        <ele>2498.1</ele>
        <time>2021-02-17T10:20:25Z</time>
      </trkpt>
      <trkpt lat="45.29021" lon="6.1451">
        <ele>2498.1</ele>
        <time>2021-02-17T10:20:26Z</time>
      </trkpt>
      <trkpt lat="45.29021" lon="6.1451">
        <ele>2498.1</ele>
        <time>2021-02-17T10:20:27Z</time>
      </trkpt>
      <trkpt lat="45.29021" lon="6.1451">
        <ele>2498.1</ele>
        <time>2021-02-17T10:20:28Z</time>
      </trkpt>
      <trkpt lat="45.29021" lon="6.1451">
        <ele>2498.1</ele>
        <time>2021-02-17T10:20:29Z</time>
      </trkpt>
      <trkpt lat="45.29021" lon="6.1451">
        <ele>2498.1</ele>
        <time>2021-02-17T10:20:30Z</time>
      </trkpt>
      <trkpt lat="45.29022" lon="6.14514">
        <ele>2498.4</ele>
        <time>2021-02-17T10:23:06Z</time>
      </trkpt>
      <trkpt lat="45.29021" lon="6.14515">
        <ele>2498.4</ele>
        <time>2021-02-17T10:23:07Z</time>
      </trkpt>
      <trkpt lat="45.29021" lon="6.14515">
        <ele>2498.4</ele>
        <time>2021-02-17T10:23:08Z</time>
      </trkpt>
      <trkpt lat="45.29021" lon="6.14515">
        <ele>2498.4</ele>
        <time>2021-02-17T10:23:09Z</time>
      </trkpt>
      <trkpt lat="45.29022" lon="6.14514">
        <ele>2498.4</ele>
        <time>2021-02-17T10:23:10Z</time>
      </trkpt>
      <trkpt lat="45.29022" lon="6.14513">
        <ele>2498.1</ele>
        <time>2021-02-17T10:23:11Z</time>
      </trkpt>
      <trkpt lat="45.29022" lon="6.14513">
        <ele>2498.1</ele>
        <time>2021-02-17T10:23:12Z</time>
      </trkpt>
      <trkpt lat="45.29022" lon="6.14513">
        <ele>2498.1</ele>
        <time>2021-02-17T10:23:13Z</time>
      </trkpt>
      <trkpt lat="45.29022" lon="6.14513">
        <ele>2498.1</ele>
        <time>2021-02-17T10:23:14Z</time>
      </trkpt>
      <trkpt lat="45.29022" lon="6.14513">
        <ele>2498.1</ele>
        <time>2021-02-17T10:23:15Z</time>
      </trkpt>
      <trkpt lat="45.29021" lon="6.14511">
        <ele>2498.1</ele>
        <time>2021-02-17T10:23:16Z</time>
      </trkpt>
      <trkpt lat="45.29021" lon="6.14511">
        <ele>2498.1</ele>
        <time>2021-02-17T10:23:17Z</time>
      </trkpt>
      <trkpt lat="45.29023" lon="6.14508">
        <ele>2497.9</ele>
        <time>2021-02-17T10:23:28Z</time>
      </trkpt>
      <trkpt lat="45.29023" lon="6.14508">
        <ele>2499</ele>
        <time>2021-02-17T10:23:29Z</time>
      </trkpt>
      <trkpt lat="45.29023" lon="6.14508">
        <ele>2499</ele>
        <time>2021-02-17T10:23:30Z</time>
      </trkpt>
      <trkpt lat="45.29023" lon="6.14508">
        <ele>2499</ele>
        <time>2021-02-17T10:23:31Z</time>
      </trkpt>
      <trkpt lat="45.29024" lon="6.14508">
        <ele>2499</ele>
        <time>2021-02-17T10:23:32Z</time>
      </trkpt>
      <trkpt lat="45.29024" lon="6.14508">
        <ele>2499</ele>
        <time>2021-02-17T10:23:33Z</time>
      </trkpt>
      <trkpt lat="45.29024" lon="6.14508">
        <ele>2499</ele>
        <time>2021-02-17T10:23:34Z</time>
      </trkpt>
      <trkpt lat="45.29024" lon="6.14508">
        <ele>2499</ele>
        <time>2021-02-17T10:23:35Z</time>
      </trkpt>
      <trkpt lat="45.29024" lon="6.14508">
        <ele>2499</ele>
        <time>2021-02-17T10:23:36Z</time>
      </trkpt>
      <trkpt lat="45.29024" lon="6.14508">
        <ele>2499</ele>
        <time>2021-02-17T10:23:37Z</time>
      </trkpt>
      <trkpt lat="45.29025" lon="6.14507">
        <ele>2499</ele>
        <time>2021-02-17T10:25:36Z</time>
      </trkpt>
      <trkpt lat="45.29025" lon="6.14507">
        <ele>2499</ele>
        <time>2021-02-17T10:25:37Z</time>
      </trkpt>
      <trkpt lat="45.29025" lon="6.14507">
        <ele>2499</ele>
        <time>2021-02-17T10:25:38Z</time>
      </trkpt>
      <trkpt lat="45.29025" lon="6.14507">
        <ele>2499</ele>
        <time>2021-02-17T10:25:39Z</time>
      </trkpt>
      <trkpt lat="45.29025" lon="6.14507">
        <ele>2499</ele>
        <time>2021-02-17T10:25:40Z</time>
      </trkpt>
      <trkpt lat="45.29025" lon="6.14507">
        <ele>2499</ele>
        <time>2021-02-17T10:25:41Z</time>
      </trkpt>
      <trkpt lat="45.29025" lon="6.14507">
        <ele>2499</ele>
        <time>2021-02-17T10:25:42Z</time>
      </trkpt>
      <trkpt lat="45.29025" lon="6.14507">
        <ele>2499</ele>
        <time>2021-02-17T10:25:43Z</time>
      </trkpt>
      <trkpt lat="45.29025" lon="6.14507">
        <ele>2499</ele>
        <time>2021-02-17T10:25:44Z</time>
      </trkpt>
      <trkpt lat="45.29025" lon="6.14507">
        <ele>2499</ele>
        <time>2021-02-17T10:25:45Z</time>
      </trkpt>
      <trkpt lat="45.29027" lon="6.14502">
        <ele>2499.9</ele>
        <time>2021-02-17T10:26:23Z</time>
      </trkpt>
      <trkpt lat="45.29028" lon="6.14502">
        <ele>2499.9</ele>
        <time>2021-02-17T10:26:24Z</time>
      </trkpt>
      <trkpt lat="45.29029" lon="6.14502">
        <ele>2501</ele>
        <time>2021-02-17T10:26:25Z</time>
      </trkpt>
      <trkpt lat="45.29029" lon="6.14502">
        <ele>2501</ele>
        <time>2021-02-17T10:26:26Z</time>
      </trkpt>
      <trkpt lat="45.2903" lon="6.14503">
        <ele>2501</ele>
        <time>2021-02-17T10:26:27Z</time>
      </trkpt>
      <trkpt lat="45.29031" lon="6.14503">
        <ele>2501</ele>
        <time>2021-02-17T10:26:28Z</time>
      </trkpt>
      <trkpt lat="45.29032" lon="6.14503">
        <ele>2501</ele>
        <time>2021-02-17T10:26:29Z</time>
      </trkpt>
      <trkpt lat="45.29033" lon="6.14504">
        <ele>2502.1</ele>
        <time>2021-02-17T10:26:30Z</time>
      </trkpt>
      <trkpt lat="45.29033" lon="6.14504">
        <ele>2502.1</ele>
        <time>2021-02-17T10:26:31Z</time>
      </trkpt>
      <trkpt lat="45.29034" lon="6.14505">
        <ele>2502.4</ele>
        <time>2021-02-17T10:26:32Z</time>
      </trkpt>
      <trkpt lat="45.29035" lon="6.14506">
        <ele>2504.2</ele>
        <time>2021-02-17T10:26:33Z</time>
      </trkpt>
      <trkpt lat="45.29036" lon="6.14506">
        <ele>2504.2</ele>
        <time>2021-02-17T10:26:34Z</time>
      </trkpt>
      <trkpt lat="45.29037" lon="6.14507">
        <ele>2504.2</ele>
        <time>2021-02-17T10:26:35Z</time>
      </trkpt>
      <trkpt lat="45.29037" lon="6.14507">
        <ele>2504.2</ele>
        <time>2021-02-17T10:26:36Z</time>
      </trkpt>
      <trkpt lat="45.29038" lon="6.14507">
        <ele>2505.4</ele>
        <time>2021-02-17T10:26:37Z</time>
      </trkpt>
      <trkpt lat="45.29039" lon="6.14507">
        <ele>2505.4</ele>
        <time>2021-02-17T10:26:38Z</time>
      </trkpt>
      <trkpt lat="45.2904" lon="6.14506">
        <ele>2505.4</ele>
        <time>2021-02-17T10:26:39Z</time>
      </trkpt>
      <trkpt lat="45.2904" lon="6.14506">
        <ele>2505.4</ele>
        <time>2021-02-17T10:26:40Z</time>
      </trkpt>
      <trkpt lat="45.29041" lon="6.14505">
        <ele>2506</ele>
        <time>2021-02-17T10:26:41Z</time>
      </trkpt>
      <trkpt lat="45.29041" lon="6.14504">
        <ele>2506</ele>
        <time>2021-02-17T10:26:42Z</time>
      </trkpt>
      <trkpt lat="45.29042" lon="6.14503">
        <ele>2506</ele>
        <time>2021-02-17T10:26:43Z</time>
      </trkpt>
      <trkpt lat="45.29043" lon="6.14503">
        <ele>2506</ele>
        <time>2021-02-17T10:26:44Z</time>
      </trkpt>
      <trkpt lat="45.29044" lon="6.14502">
        <ele>2507.1</ele>
        <time>2021-02-17T10:26:45Z</time>
      </trkpt>
      <trkpt lat="45.29045" lon="6.14502">
        <ele>2507.1</ele>
        <time>2021-02-17T10:26:46Z</time>
      </trkpt>
      <trkpt lat="45.29046" lon="6.14502">
        <ele>2507.1</ele>
        <time>2021-02-17T10:26:47Z</time>
      </trkpt>
      <trkpt lat="45.29047" lon="6.14502">
        <ele>2507.1</ele>
        <time>2021-02-17T10:26:48Z</time>
      </trkpt>
      <trkpt lat="45.29047" lon="6.14501">
        <ele>2508.3</ele>
        <time>2021-02-17T10:26:49Z</time>
      </trkpt>
      <trkpt lat="45.29048" lon="6.14501">
        <ele>2508.3</ele>
        <time>2021-02-17T10:26:50Z</time>
      </trkpt>
      <trkpt lat="45.29049" lon="6.14501">
        <ele>2507.8</ele>
        <time>2021-02-17T10:26:51Z</time>
      </trkpt>
      <trkpt lat="45.2905" lon="6.145">
        <ele>2509</ele>
        <time>2021-02-17T10:26:52Z</time>
      </trkpt>
      <trkpt lat="45.29051" lon="6.145">
        <ele>2509</ele>
        <time>2021-02-17T10:26:53Z</time>
      </trkpt>
      <trkpt lat="45.29052" lon="6.14499">
        <ele>2509</ele>
        <time>2021-02-17T10:26:54Z</time>
      </trkpt>
      <trkpt lat="45.29053" lon="6.14499">
        <ele>2509</ele>
        <time>2021-02-17T10:26:55Z</time>
      </trkpt>
      <trkpt lat="45.29053" lon="6.14499">
        <ele>2510.3</ele>
        <time>2021-02-17T10:26:56Z</time>
      </trkpt>
      <trkpt lat="45.29054" lon="6.14499">
        <ele>2510.3</ele>
        <time>2021-02-17T10:26:57Z</time>
      </trkpt>
      <trkpt lat="45.29055" lon="6.14499">
        <ele>2510.3</ele>
        <time>2021-02-17T10:26:58Z</time>
      </trkpt>
      <trkpt lat="45.29056" lon="6.14498">
        <ele>2510.3</ele>
        <time>2021-02-17T10:26:59Z</time>
      </trkpt>
      <trkpt lat="45.29056" lon="6.14498">
        <ele>2511.7</ele>
        <time>2021-02-17T10:27:00Z</time>
      </trkpt>
      <trkpt lat="45.29057" lon="6.14498">
        <ele>2511.7</ele>
        <time>2021-02-17T10:27:01Z</time>
      </trkpt>
      <trkpt lat="45.29058" lon="6.14498">
        <ele>2511.7</ele>
        <time>2021-02-17T10:27:02Z</time>
      </trkpt>
      <trkpt lat="45.29058" lon="6.14498">
        <ele>2511.7</ele>
        <time>2021-02-17T10:27:03Z</time>
      </trkpt>
      <trkpt lat="45.29059" lon="6.14497">
        <ele>2513</ele>
        <time>2021-02-17T10:27:04Z</time>
      </trkpt>
      <trkpt lat="45.2906" lon="6.14496">
        <ele>2513</ele>
        <time>2021-02-17T10:27:05Z</time>
      </trkpt>
      <trkpt lat="45.2906" lon="6.14496">
        <ele>2512.5</ele>
        <time>2021-02-17T10:27:06Z</time>
      </trkpt>
      <trkpt lat="45.29061" lon="6.14496">
        <ele>2512.5</ele>
        <time>2021-02-17T10:27:07Z</time>
      </trkpt>
      <trkpt lat="45.29061" lon="6.14495">
        <ele>2512.5</ele>
        <time>2021-02-17T10:27:08Z</time>
      </trkpt>
      <trkpt lat="45.29062" lon="6.14494">
        <ele>2512.5</ele>
        <time>2021-02-17T10:27:09Z</time>
      </trkpt>
      <trkpt lat="45.29062" lon="6.14494">
        <ele>2513.8</ele>
        <time>2021-02-17T10:27:10Z</time>
      </trkpt>
      <trkpt lat="45.29063" lon="6.14494">
        <ele>2513.8</ele>
        <time>2021-02-17T10:27:11Z</time>
      </trkpt>
      <trkpt lat="45.29063" lon="6.14494">
        <ele>2513.8</ele>
        <time>2021-02-17T10:27:12Z</time>
      </trkpt>
      <trkpt lat="45.29064" lon="6.14493">
        <ele>2513.8</ele>
        <time>2021-02-17T10:27:13Z</time>
      </trkpt>
      <trkpt lat="45.29065" lon="6.14493">
        <ele>2514.9</ele>
        <time>2021-02-17T10:27:14Z</time>
      </trkpt>
      <trkpt lat="45.29065" lon="6.14493">
        <ele>2514.9</ele>
        <time>2021-02-17T10:27:15Z</time>
      </trkpt>
      <trkpt lat="45.29066" lon="6.14494">
        <ele>2514.9</ele>
        <time>2021-02-17T10:27:16Z</time>
      </trkpt>
      <trkpt lat="45.29067" lon="6.14494">
        <ele>2514.9</ele>
        <time>2021-02-17T10:27:17Z</time>
      </trkpt>
      <trkpt lat="45.29067" lon="6.14494">
        <ele>2514.9</ele>
        <time>2021-02-17T10:27:18Z</time>
      </trkpt>
      <trkpt lat="45.29068" lon="6.14494">
        <ele>2516</ele>
        <time>2021-02-17T10:27:19Z</time>
      </trkpt>
      <trkpt lat="45.29069" lon="6.14495">
        <ele>2516</ele>
        <time>2021-02-17T10:27:20Z</time>
      </trkpt>
      <trkpt lat="45.2907" lon="6.14495">
        <ele>2516</ele>
        <time>2021-02-17T10:27:21Z</time>
      </trkpt>
      <trkpt lat="45.2907" lon="6.14495">
        <ele>2516</ele>
        <time>2021-02-17T10:27:22Z</time>
      </trkpt>
      <trkpt lat="45.29071" lon="6.14495">
        <ele>2517.1</ele>
        <time>2021-02-17T10:27:23Z</time>
      </trkpt>
      <trkpt lat="45.29072" lon="6.14495">
        <ele>2517.1</ele>
        <time>2021-02-17T10:27:24Z</time>
      </trkpt>
      <trkpt lat="45.29073" lon="6.14495">
        <ele>2517.1</ele>
        <time>2021-02-17T10:27:25Z</time>
      </trkpt>
      <trkpt lat="45.29074" lon="6.14495">
        <ele>2518.2</ele>
        <time>2021-02-17T10:27:26Z</time>
      </trkpt>
      <trkpt lat="45.29075" lon="6.14495">
        <ele>2518.2</ele>
        <time>2021-02-17T10:27:27Z</time>
      </trkpt>
      <trkpt lat="45.29076" lon="6.14495">
        <ele>2518.2</ele>
        <time>2021-02-17T10:27:28Z</time>
      </trkpt>
      <trkpt lat="45.29078" lon="6.14495">
        <ele>2519.4</ele>
        <time>2021-02-17T10:27:29Z</time>
      </trkpt>
      <trkpt lat="45.29079" lon="6.14496">
        <ele>2519.4</ele>
        <time>2021-02-17T10:27:30Z</time>
      </trkpt>
      <trkpt lat="45.2908" lon="6.14496">
        <ele>2519.4</ele>
        <time>2021-02-17T10:27:31Z</time>
      </trkpt>
      <trkpt lat="45.2908" lon="6.14496">
        <ele>2521.5</ele>
        <time>2021-02-17T10:27:32Z</time>
      </trkpt>
      <trkpt lat="45.29081" lon="6.14497">
        <ele>2521.5</ele>
        <time>2021-02-17T10:27:33Z</time>
      </trkpt>
      <trkpt lat="45.29082" lon="6.14497">
        <ele>2521.5</ele>
        <time>2021-02-17T10:27:34Z</time>
      </trkpt>
      <trkpt lat="45.29083" lon="6.14497">
        <ele>2522.9</ele>
        <time>2021-02-17T10:27:35Z</time>
      </trkpt>
      <trkpt lat="45.29084" lon="6.14497">
        <ele>2522.9</ele>
        <time>2021-02-17T10:27:36Z</time>
      </trkpt>
      <trkpt lat="45.29085" lon="6.14497">
        <ele>2522.9</ele>
        <time>2021-02-17T10:27:37Z</time>
      </trkpt>
      <trkpt lat="45.29086" lon="6.14497">
        <ele>2522.9</ele>
        <time>2021-02-17T10:27:38Z</time>
      </trkpt>
      <trkpt lat="45.29087" lon="6.14498">
        <ele>2524.2</ele>
        <time>2021-02-17T10:27:39Z</time>
      </trkpt>
      <trkpt lat="45.29087" lon="6.14497">
        <ele>2524.2</ele>
        <time>2021-02-17T10:27:40Z</time>
      </trkpt>
      <trkpt lat="45.29088" lon="6.14497">
        <ele>2524.2</ele>
        <time>2021-02-17T10:27:41Z</time>
      </trkpt>
      <trkpt lat="45.2909" lon="6.14497">
        <ele>2525.4</ele>
        <time>2021-02-17T10:27:42Z</time>
      </trkpt>
      <trkpt lat="45.29091" lon="6.14497">
        <ele>2525.4</ele>
        <time>2021-02-17T10:27:43Z</time>
      </trkpt>
      <trkpt lat="45.29091" lon="6.14496">
        <ele>2525.4</ele>
        <time>2021-02-17T10:27:44Z</time>
      </trkpt>
      <trkpt lat="45.29092" lon="6.14496">
        <ele>2524.5</ele>
        <time>2021-02-17T10:27:45Z</time>
      </trkpt>
      <trkpt lat="45.29093" lon="6.14496">
        <ele>2525.7</ele>
        <time>2021-02-17T10:27:46Z</time>
      </trkpt>
      <trkpt lat="45.29094" lon="6.14495">
        <ele>2525.7</ele>
        <time>2021-02-17T10:27:47Z</time>
      </trkpt>
      <trkpt lat="45.29095" lon="6.14494">
        <ele>2525.7</ele>
        <time>2021-02-17T10:27:48Z</time>
      </trkpt>
      <trkpt lat="45.29095" lon="6.14494">
        <ele>2525.7</ele>
        <time>2021-02-17T10:27:49Z</time>
      </trkpt>
      <trkpt lat="45.29096" lon="6.14493">
        <ele>2526.8</ele>
        <time>2021-02-17T10:27:50Z</time>
      </trkpt>
      <trkpt lat="45.29097" lon="6.14493">
        <ele>2526.8</ele>
        <time>2021-02-17T10:27:51Z</time>
      </trkpt>
      <trkpt lat="45.29097" lon="6.14492">
        <ele>2526.8</ele>
        <time>2021-02-17T10:27:52Z</time>
      </trkpt>
      <trkpt lat="45.29098" lon="6.14492">
        <ele>2527</ele>
        <time>2021-02-17T10:27:53Z</time>
      </trkpt>
      <trkpt lat="45.29099" lon="6.14491">
        <ele>2527</ele>
        <time>2021-02-17T10:27:54Z</time>
      </trkpt>
      <trkpt lat="45.291" lon="6.14491">
        <ele>2527</ele>
        <time>2021-02-17T10:27:55Z</time>
      </trkpt>
      <trkpt lat="45.29101" lon="6.1449">
        <ele>2527</ele>
        <time>2021-02-17T10:27:56Z</time>
      </trkpt>
      <trkpt lat="45.29101" lon="6.1449">
        <ele>2527</ele>
        <time>2021-02-17T10:27:57Z</time>
      </trkpt>
      <trkpt lat="45.29101" lon="6.1449">
        <ele>2528.2</ele>
        <time>2021-02-17T10:27:58Z</time>
      </trkpt>
      <trkpt lat="45.29102" lon="6.14489">
        <ele>2528.2</ele>
        <time>2021-02-17T10:27:59Z</time>
      </trkpt>
      <trkpt lat="45.29103" lon="6.14489">
        <ele>2528.2</ele>
        <time>2021-02-17T10:28:00Z</time>
      </trkpt>
      <trkpt lat="45.29104" lon="6.14488">
        <ele>2528.2</ele>
        <time>2021-02-17T10:28:01Z</time>
      </trkpt>
      <trkpt lat="45.29104" lon="6.14488">
        <ele>2528.5</ele>
        <time>2021-02-17T10:28:02Z</time>
      </trkpt>
      <trkpt lat="45.29105" lon="6.14487">
        <ele>2528.5</ele>
        <time>2021-02-17T10:28:03Z</time>
      </trkpt>
      <trkpt lat="45.29105" lon="6.14487">
        <ele>2528.5</ele>
        <time>2021-02-17T10:28:04Z</time>
      </trkpt>
      <trkpt lat="45.29106" lon="6.14487">
        <ele>2528.5</ele>
        <time>2021-02-17T10:28:05Z</time>
      </trkpt>
      <trkpt lat="45.29106" lon="6.14486">
        <ele>2528.5</ele>
        <time>2021-02-17T10:28:06Z</time>
      </trkpt>
      <trkpt lat="45.29107" lon="6.14486">
        <ele>2528.5</ele>
        <time>2021-02-17T10:28:07Z</time>
      </trkpt>
      <trkpt lat="45.29107" lon="6.14486">
        <ele>2528.5</ele>
        <time>2021-02-17T10:28:08Z</time>
      </trkpt>
      <trkpt lat="45.29108" lon="6.14485">
        <ele>2529.9</ele>
        <time>2021-02-17T10:28:09Z</time>
      </trkpt>
      <trkpt lat="45.29108" lon="6.14485">
        <ele>2529.9</ele>
        <time>2021-02-17T10:28:10Z</time>
      </trkpt>
      <trkpt lat="45.29109" lon="6.14485">
        <ele>2529.9</ele>
        <time>2021-02-17T10:28:11Z</time>
      </trkpt>
      <trkpt lat="45.2911" lon="6.14485">
        <ele>2529.9</ele>
        <time>2021-02-17T10:28:12Z</time>
      </trkpt>
      <trkpt lat="45.2911" lon="6.14484">
        <ele>2531.2</ele>
        <time>2021-02-17T10:28:13Z</time>
      </trkpt>
      <trkpt lat="45.29111" lon="6.14484">
        <ele>2531.2</ele>
        <time>2021-02-17T10:28:14Z</time>
      </trkpt>
      <trkpt lat="45.29112" lon="6.14483">
        <ele>2531.2</ele>
        <time>2021-02-17T10:28:15Z</time>
      </trkpt>
      <trkpt lat="45.29112" lon="6.14483">
        <ele>2530.3</ele>
        <time>2021-02-17T10:28:16Z</time>
      </trkpt>
      <trkpt lat="45.29113" lon="6.14483">
        <ele>2530.3</ele>
        <time>2021-02-17T10:28:17Z</time>
      </trkpt>
      <trkpt lat="45.29113" lon="6.14482">
        <ele>2531.6</ele>
        <time>2021-02-17T10:28:18Z</time>
      </trkpt>
      <trkpt lat="45.29114" lon="6.14482">
        <ele>2531.6</ele>
        <time>2021-02-17T10:28:19Z</time>
      </trkpt>
      <trkpt lat="45.29115" lon="6.14482">
        <ele>2531.6</ele>
        <time>2021-02-17T10:28:20Z</time>
      </trkpt>
      <trkpt lat="45.29115" lon="6.14482">
        <ele>2531.6</ele>
        <time>2021-02-17T10:28:21Z</time>
      </trkpt>
      <trkpt lat="45.29116" lon="6.14482">
        <ele>2531.6</ele>
        <time>2021-02-17T10:28:22Z</time>
      </trkpt>
      <trkpt lat="45.29116" lon="6.14481">
        <ele>2531.6</ele>
        <time>2021-02-17T10:28:23Z</time>
      </trkpt>
      <trkpt lat="45.29117" lon="6.14481">
        <ele>2532.9</ele>
        <time>2021-02-17T10:28:24Z</time>
      </trkpt>
      <trkpt lat="45.29117" lon="6.14481">
        <ele>2532.9</ele>
        <time>2021-02-17T10:28:25Z</time>
      </trkpt>
      <trkpt lat="45.29118" lon="6.14481">
        <ele>2532.9</ele>
        <time>2021-02-17T10:28:26Z</time>
      </trkpt>
      <trkpt lat="45.29118" lon="6.1448">
        <ele>2532.9</ele>
        <time>2021-02-17T10:28:27Z</time>
      </trkpt>
      <trkpt lat="45.29119" lon="6.1448">
        <ele>2532.9</ele>
        <time>2021-02-17T10:28:28Z</time>
      </trkpt>
      <trkpt lat="45.29119" lon="6.14479">
        <ele>2534.1</ele>
        <time>2021-02-17T10:28:29Z</time>
      </trkpt>
      <trkpt lat="45.2912" lon="6.14479">
        <ele>2533.2</ele>
        <time>2021-02-17T10:28:30Z</time>
      </trkpt>
      <trkpt lat="45.2912" lon="6.14479">
        <ele>2533.2</ele>
        <time>2021-02-17T10:28:31Z</time>
      </trkpt>
      <trkpt lat="45.29121" lon="6.14478">
        <ele>2533.2</ele>
        <time>2021-02-17T10:28:32Z</time>
      </trkpt>
      <trkpt lat="45.29121" lon="6.14478">
        <ele>2533.2</ele>
        <time>2021-02-17T10:28:33Z</time>
      </trkpt>
      <trkpt lat="45.29122" lon="6.14478">
        <ele>2533.2</ele>
        <time>2021-02-17T10:28:34Z</time>
      </trkpt>
      <trkpt lat="45.29123" lon="6.14477">
        <ele>2534.4</ele>
        <time>2021-02-17T10:28:35Z</time>
      </trkpt>
      <trkpt lat="45.29123" lon="6.14477">
        <ele>2534.4</ele>
        <time>2021-02-17T10:28:36Z</time>
      </trkpt>
      <trkpt lat="45.29124" lon="6.14476">
        <ele>2534.4</ele>
        <time>2021-02-17T10:28:37Z</time>
      </trkpt>
      <trkpt lat="45.29124" lon="6.14476">
        <ele>2534.4</ele>
        <time>2021-02-17T10:28:38Z</time>
      </trkpt>
      <trkpt lat="45.29125" lon="6.14476">
        <ele>2534.4</ele>
        <time>2021-02-17T10:28:39Z</time>
      </trkpt>
      <trkpt lat="45.29125" lon="6.14476">
        <ele>2534.4</ele>
        <time>2021-02-17T10:28:40Z</time>
      </trkpt>
      <trkpt lat="45.29126" lon="6.14476">
        <ele>2535.7</ele>
        <time>2021-02-17T10:28:41Z</time>
      </trkpt>
      <trkpt lat="45.29127" lon="6.14475">
        <ele>2535.7</ele>
        <time>2021-02-17T10:28:42Z</time>
      </trkpt>
      <trkpt lat="45.29127" lon="6.14475">
        <ele>2535.7</ele>
        <time>2021-02-17T10:28:43Z</time>
      </trkpt>
      <trkpt lat="45.29128" lon="6.14475">
        <ele>2535.7</ele>
        <time>2021-02-17T10:28:44Z</time>
      </trkpt>
      <trkpt lat="45.29128" lon="6.14475">
        <ele>2536.9</ele>
        <time>2021-02-17T10:28:45Z</time>
      </trkpt>
      <trkpt lat="45.29129" lon="6.14474">
        <ele>2536</ele>
        <time>2021-02-17T10:28:46Z</time>
      </trkpt>
      <trkpt lat="45.2913" lon="6.14474">
        <ele>2536</ele>
        <time>2021-02-17T10:28:47Z</time>
      </trkpt>
      <trkpt lat="45.2913" lon="6.14474">
        <ele>2536</ele>
        <time>2021-02-17T10:28:48Z</time>
      </trkpt>
      <trkpt lat="45.2913" lon="6.14474">
        <ele>2536</ele>
        <time>2021-02-17T10:28:49Z</time>
      </trkpt>
      <trkpt lat="45.29131" lon="6.14474">
        <ele>2536</ele>
        <time>2021-02-17T10:28:50Z</time>
      </trkpt>
      <trkpt lat="45.29131" lon="6.14473">
        <ele>2537.3</ele>
        <time>2021-02-17T10:28:51Z</time>
      </trkpt>
      <trkpt lat="45.29132" lon="6.14473">
        <ele>2537.3</ele>
        <time>2021-02-17T10:28:52Z</time>
      </trkpt>
      <trkpt lat="45.29133" lon="6.14473">
        <ele>2537.3</ele>
        <time>2021-02-17T10:28:53Z</time>
      </trkpt>
      <trkpt lat="45.29134" lon="6.14473">
        <ele>2537.3</ele>
        <time>2021-02-17T10:28:54Z</time>
      </trkpt>
      <trkpt lat="45.29135" lon="6.14472">
        <ele>2538.6</ele>
        <time>2021-02-17T10:28:55Z</time>
      </trkpt>
      <trkpt lat="45.29136" lon="6.14472">
        <ele>2538.6</ele>
        <time>2021-02-17T10:28:56Z</time>
      </trkpt>
      <trkpt lat="45.29137" lon="6.14471">
        <ele>2538.6</ele>
        <time>2021-02-17T10:28:57Z</time>
      </trkpt>
      <trkpt lat="45.29137" lon="6.14471">
        <ele>2540.1</ele>
        <time>2021-02-17T10:28:58Z</time>
      </trkpt>
      <trkpt lat="45.29138" lon="6.14471">
        <ele>2540.1</ele>
        <time>2021-02-17T10:28:59Z</time>
      </trkpt>
      <trkpt lat="45.29139" lon="6.14471">
        <ele>2540.1</ele>
        <time>2021-02-17T10:29:00Z</time>
      </trkpt>
      <trkpt lat="45.2914" lon="6.14471">
        <ele>2540.1</ele>
        <time>2021-02-17T10:29:01Z</time>
      </trkpt>
      <trkpt lat="45.29141" lon="6.14471">
        <ele>2541.5</ele>
        <time>2021-02-17T10:29:02Z</time>
      </trkpt>
      <trkpt lat="45.29141" lon="6.14471">
        <ele>2541.5</ele>
        <time>2021-02-17T10:29:03Z</time>
      </trkpt>
      <trkpt lat="45.29141" lon="6.1447">
        <ele>2540.6</ele>
        <time>2021-02-17T10:29:04Z</time>
      </trkpt>
      <trkpt lat="45.29142" lon="6.1447">
        <ele>2540.6</ele>
        <time>2021-02-17T10:29:05Z</time>
      </trkpt>
      <trkpt lat="45.29142" lon="6.1447">
        <ele>2540.6</ele>
        <time>2021-02-17T10:29:06Z</time>
      </trkpt>
      <trkpt lat="45.29143" lon="6.1447">
        <ele>2540.6</ele>
        <time>2021-02-17T10:29:07Z</time>
      </trkpt>
      <trkpt lat="45.29144" lon="6.1447">
        <ele>2542</ele>
        <time>2021-02-17T10:29:08Z</time>
      </trkpt>
      <trkpt lat="45.29148" lon="6.14468">
        <ele>2543.4</ele>
        <time>2021-02-17T10:29:17Z</time>
      </trkpt>
      <trkpt lat="45.29149" lon="6.14468">
        <ele>2544.7</ele>
        <time>2021-02-17T10:29:18Z</time>
      </trkpt>
      <trkpt lat="45.2915" lon="6.14468">
        <ele>2544.7</ele>
        <time>2021-02-17T10:29:19Z</time>
      </trkpt>
      <trkpt lat="45.29151" lon="6.14468">
        <ele>2544.7</ele>
        <time>2021-02-17T10:29:20Z</time>
      </trkpt>
      <trkpt lat="45.29152" lon="6.14467">
        <ele>2544.7</ele>
        <time>2021-02-17T10:29:21Z</time>
      </trkpt>
      <trkpt lat="45.29153" lon="6.14467">
        <ele>2546</ele>
        <time>2021-02-17T10:29:22Z</time>
      </trkpt>
      <trkpt lat="45.29154" lon="6.14467">
        <ele>2546</ele>
        <time>2021-02-17T10:29:23Z</time>
      </trkpt>
      <trkpt lat="45.29155" lon="6.14467">
        <ele>2546</ele>
        <time>2021-02-17T10:29:24Z</time>
      </trkpt>
      <trkpt lat="45.29156" lon="6.14466">
        <ele>2547.2</ele>
        <time>2021-02-17T10:29:25Z</time>
      </trkpt>
      <trkpt lat="45.29157" lon="6.14466">
        <ele>2547.2</ele>
        <time>2021-02-17T10:29:26Z</time>
      </trkpt>
      <trkpt lat="45.29157" lon="6.14466">
        <ele>2546.2</ele>
        <time>2021-02-17T10:29:27Z</time>
      </trkpt>
      <trkpt lat="45.29158" lon="6.14466">
        <ele>2546.2</ele>
        <time>2021-02-17T10:29:28Z</time>
      </trkpt>
      <trkpt lat="45.29159" lon="6.14466">
        <ele>2547.6</ele>
        <time>2021-02-17T10:29:29Z</time>
      </trkpt>
      <trkpt lat="45.2916" lon="6.14465">
        <ele>2547.6</ele>
        <time>2021-02-17T10:29:30Z</time>
      </trkpt>
      <trkpt lat="45.29161" lon="6.14465">
        <ele>2547.6</ele>
        <time>2021-02-17T10:29:31Z</time>
      </trkpt>
      <trkpt lat="45.29161" lon="6.14465">
        <ele>2547.6</ele>
        <time>2021-02-17T10:29:32Z</time>
      </trkpt>
      <trkpt lat="45.29162" lon="6.14465">
        <ele>2549.1</ele>
        <time>2021-02-17T10:29:33Z</time>
      </trkpt>
      <trkpt lat="45.29162" lon="6.14465">
        <ele>2549.1</ele>
        <time>2021-02-17T10:29:34Z</time>
      </trkpt>
      <trkpt lat="45.29163" lon="6.14464">
        <ele>2549.1</ele>
        <time>2021-02-17T10:29:35Z</time>
      </trkpt>
      <trkpt lat="45.29164" lon="6.14464">
        <ele>2549.1</ele>
        <time>2021-02-17T10:29:36Z</time>
      </trkpt>
      <trkpt lat="45.29164" lon="6.14463">
        <ele>2549.1</ele>
        <time>2021-02-17T10:29:37Z</time>
      </trkpt>
      <trkpt lat="45.29165" lon="6.14463">
        <ele>2550.6</ele>
        <time>2021-02-17T10:29:38Z</time>
      </trkpt>
      <trkpt lat="45.29166" lon="6.14463">
        <ele>2550.6</ele>
        <time>2021-02-17T10:29:39Z</time>
      </trkpt>
      <trkpt lat="45.29166" lon="6.14463">
        <ele>2550.6</ele>
        <time>2021-02-17T10:29:40Z</time>
      </trkpt>
      <trkpt lat="45.29167" lon="6.14463">
        <ele>2550.6</ele>
        <time>2021-02-17T10:29:41Z</time>
      </trkpt>
      <trkpt lat="45.29168" lon="6.14463">
        <ele>2552.2</ele>
        <time>2021-02-17T10:29:42Z</time>
      </trkpt>
      <trkpt lat="45.29169" lon="6.14462">
        <ele>2552.2</ele>
        <time>2021-02-17T10:29:43Z</time>
      </trkpt>
      <trkpt lat="45.29169" lon="6.14462">
        <ele>2552.2</ele>
        <time>2021-02-17T10:29:44Z</time>
      </trkpt>
      <trkpt lat="45.2917" lon="6.14462">
        <ele>2552.2</ele>
        <time>2021-02-17T10:29:45Z</time>
      </trkpt>
      <trkpt lat="45.29171" lon="6.14462">
        <ele>2552.8</ele>
        <time>2021-02-17T10:29:46Z</time>
      </trkpt>
      <trkpt lat="45.29172" lon="6.14461">
        <ele>2552.8</ele>
        <time>2021-02-17T10:29:47Z</time>
      </trkpt>
      <trkpt lat="45.29172" lon="6.14461">
        <ele>2552.8</ele>
        <time>2021-02-17T10:29:48Z</time>
      </trkpt>
      <trkpt lat="45.29173" lon="6.14461">
        <ele>2552.8</ele>
        <time>2021-02-17T10:29:49Z</time>
      </trkpt>
      <trkpt lat="45.29173" lon="6.14461">
        <ele>2552.8</ele>
        <time>2021-02-17T10:29:50Z</time>
      </trkpt>
      <trkpt lat="45.29174" lon="6.14461">
        <ele>2554.2</ele>
        <time>2021-02-17T10:29:51Z</time>
      </trkpt>
      <trkpt lat="45.29175" lon="6.1446">
        <ele>2554.2</ele>
        <time>2021-02-17T10:29:52Z</time>
      </trkpt>
      <trkpt lat="45.29175" lon="6.1446">
        <ele>2554.2</ele>
        <time>2021-02-17T10:29:53Z</time>
      </trkpt>
      <trkpt lat="45.29176" lon="6.1446">
        <ele>2554.2</ele>
        <time>2021-02-17T10:29:54Z</time>
      </trkpt>
      <trkpt lat="45.29176" lon="6.14459">
        <ele>2554.2</ele>
        <time>2021-02-17T10:29:55Z</time>
      </trkpt>
      <trkpt lat="45.29177" lon="6.14458">
        <ele>2555.5</ele>
        <time>2021-02-17T10:29:56Z</time>
      </trkpt>
      <trkpt lat="45.29177" lon="6.14457">
        <ele>2554.6</ele>
        <time>2021-02-17T10:29:57Z</time>
      </trkpt>
      <trkpt lat="45.29178" lon="6.14457">
        <ele>2554.6</ele>
        <time>2021-02-17T10:29:58Z</time>
      </trkpt>
      <trkpt lat="45.29178" lon="6.14455">
        <ele>2554.6</ele>
        <time>2021-02-17T10:29:59Z</time>
      </trkpt>
      <trkpt lat="45.29179" lon="6.14454">
        <ele>2554.6</ele>
        <time>2021-02-17T10:30:00Z</time>
      </trkpt>
      <trkpt lat="45.29179" lon="6.14453">
        <ele>2553.6</ele>
        <time>2021-02-17T10:30:01Z</time>
      </trkpt>
      <trkpt lat="45.29179" lon="6.14452">
        <ele>2553.6</ele>
        <time>2021-02-17T10:30:02Z</time>
      </trkpt>
      <trkpt lat="45.29179" lon="6.14451">
        <ele>2553.6</ele>
        <time>2021-02-17T10:30:03Z</time>
      </trkpt>
      <trkpt lat="45.2918" lon="6.14451">
        <ele>2554.9</ele>
        <time>2021-02-17T10:30:04Z</time>
      </trkpt>
      <trkpt lat="45.2918" lon="6.14451">
        <ele>2554.9</ele>
        <time>2021-02-17T10:30:05Z</time>
      </trkpt>
      <trkpt lat="45.2918" lon="6.1445">
        <ele>2554.9</ele>
        <time>2021-02-17T10:30:06Z</time>
      </trkpt>
      <trkpt lat="45.29181" lon="6.1445">
        <ele>2554.9</ele>
        <time>2021-02-17T10:30:07Z</time>
      </trkpt>
      <trkpt lat="45.29181" lon="6.1445">
        <ele>2554.9</ele>
        <time>2021-02-17T10:30:08Z</time>
      </trkpt>
      <trkpt lat="45.2918" lon="6.1445">
        <ele>2554.9</ele>
        <time>2021-02-17T10:30:09Z</time>
      </trkpt>
      <trkpt lat="45.29181" lon="6.1445">
        <ele>2554.9</ele>
        <time>2021-02-17T10:30:10Z</time>
      </trkpt>
      <trkpt lat="45.29181" lon="6.1445">
        <ele>2554.9</ele>
        <time>2021-02-17T10:30:11Z</time>
      </trkpt>
      <trkpt lat="45.29181" lon="6.1445">
        <ele>2554.9</ele>
        <time>2021-02-17T10:30:12Z</time>
      </trkpt>
      <trkpt lat="45.29182" lon="6.14449">
        <ele>2554.9</ele>
        <time>2021-02-17T10:30:13Z</time>
      </trkpt>
      <trkpt lat="45.29182" lon="6.14449">
        <ele>2554</ele>
        <time>2021-02-17T10:30:14Z</time>
      </trkpt>
      <trkpt lat="45.29183" lon="6.14448">
        <ele>2555.4</ele>
        <time>2021-02-17T10:30:15Z</time>
      </trkpt>
      <trkpt lat="45.29183" lon="6.14448">
        <ele>2555.4</ele>
        <time>2021-02-17T10:30:16Z</time>
      </trkpt>
      <trkpt lat="45.29183" lon="6.14449">
        <ele>2555.4</ele>
        <time>2021-02-17T10:30:17Z</time>
      </trkpt>
      <trkpt lat="45.29183" lon="6.14449">
        <ele>2555.4</ele>
        <time>2021-02-17T10:30:18Z</time>
      </trkpt>
      <trkpt lat="45.29183" lon="6.14449">
        <ele>2555.4</ele>
        <time>2021-02-17T10:30:19Z</time>
      </trkpt>
      <trkpt lat="45.29184" lon="6.14449">
        <ele>2556.3</ele>
        <time>2021-02-17T10:30:20Z</time>
      </trkpt>
      <trkpt lat="45.29184" lon="6.1445">
        <ele>2556.3</ele>
        <time>2021-02-17T10:30:21Z</time>
      </trkpt>
      <trkpt lat="45.29184" lon="6.14452">
        <ele>2556.3</ele>
        <time>2021-02-17T10:30:22Z</time>
      </trkpt>
      <trkpt lat="45.29185" lon="6.14453">
        <ele>2556.3</ele>
        <time>2021-02-17T10:30:23Z</time>
      </trkpt>
      <trkpt lat="45.29185" lon="6.14455">
        <ele>2557.3</ele>
        <time>2021-02-17T10:30:24Z</time>
      </trkpt>
      <trkpt lat="45.29185" lon="6.14456">
        <ele>2557.3</ele>
        <time>2021-02-17T10:30:25Z</time>
      </trkpt>
      <trkpt lat="45.29186" lon="6.14457">
        <ele>2557.3</ele>
        <time>2021-02-17T10:30:26Z</time>
      </trkpt>
      <trkpt lat="45.29186" lon="6.14458">
        <ele>2557.3</ele>
        <time>2021-02-17T10:30:27Z</time>
      </trkpt>
      <trkpt lat="45.29186" lon="6.14459">
        <ele>2558.2</ele>
        <time>2021-02-17T10:30:28Z</time>
      </trkpt>
      <trkpt lat="45.29185" lon="6.14459">
        <ele>2558.2</ele>
        <time>2021-02-17T10:30:29Z</time>
      </trkpt>
      <trkpt lat="45.29185" lon="6.1446">
        <ele>2558.2</ele>
        <time>2021-02-17T10:30:30Z</time>
      </trkpt>
      <trkpt lat="45.29185" lon="6.14461">
        <ele>2558.2</ele>
        <time>2021-02-17T10:30:31Z</time>
      </trkpt>
      <trkpt lat="45.29185" lon="6.14461">
        <ele>2558.2</ele>
        <time>2021-02-17T10:30:32Z</time>
      </trkpt>
      <trkpt lat="45.29184" lon="6.14461">
        <ele>2558.2</ele>
        <time>2021-02-17T10:30:33Z</time>
      </trkpt>
      <trkpt lat="45.29184" lon="6.14461">
        <ele>2558.2</ele>
        <time>2021-02-17T10:30:34Z</time>
      </trkpt>
      <trkpt lat="45.29184" lon="6.14461">
        <ele>2558.2</ele>
        <time>2021-02-17T10:30:35Z</time>
      </trkpt>
      <trkpt lat="45.29184" lon="6.14461">
        <ele>2558.2</ele>
        <time>2021-02-17T10:30:36Z</time>
      </trkpt>
      <trkpt lat="45.29184" lon="6.14461">
        <ele>2558.2</ele>
        <time>2021-02-17T10:30:37Z</time>
      </trkpt>
      <trkpt lat="45.29184" lon="6.14462">
        <ele>2558.2</ele>
        <time>2021-02-17T10:30:38Z</time>
      </trkpt>
      <trkpt lat="45.29184" lon="6.14463">
        <ele>2559.1</ele>
        <time>2021-02-17T10:30:39Z</time>
      </trkpt>
      <trkpt lat="45.29183" lon="6.14473">
        <ele>2561</ele>
        <time>2021-02-17T10:30:49Z</time>
      </trkpt>
      <trkpt lat="45.29183" lon="6.14474">
        <ele>2561</ele>
        <time>2021-02-17T10:30:50Z</time>
      </trkpt>
      <trkpt lat="45.29184" lon="6.14475">
        <ele>2562</ele>
        <time>2021-02-17T10:30:51Z</time>
      </trkpt>
      <trkpt lat="45.29184" lon="6.14475">
        <ele>2562</ele>
        <time>2021-02-17T10:30:52Z</time>
      </trkpt>
      <trkpt lat="45.29184" lon="6.14475">
        <ele>2562</ele>
        <time>2021-02-17T10:30:53Z</time>
      </trkpt>
      <trkpt lat="45.29184" lon="6.14475">
        <ele>2562</ele>
        <time>2021-02-17T10:30:54Z</time>
      </trkpt>
      <trkpt lat="45.29184" lon="6.14477">
        <ele>2562</ele>
        <time>2021-02-17T10:30:55Z</time>
      </trkpt>
      <trkpt lat="45.29184" lon="6.14479">
        <ele>2563.1</ele>
        <time>2021-02-17T10:30:56Z</time>
      </trkpt>
      <trkpt lat="45.29184" lon="6.14481">
        <ele>2563.1</ele>
        <time>2021-02-17T10:30:57Z</time>
      </trkpt>
      <trkpt lat="45.29185" lon="6.14483">
        <ele>2563.1</ele>
        <time>2021-02-17T10:30:58Z</time>
      </trkpt>
      <trkpt lat="45.29185" lon="6.14485">
        <ele>2564.2</ele>
        <time>2021-02-17T10:30:59Z</time>
      </trkpt>
      <trkpt lat="45.29186" lon="6.14486">
        <ele>2565.6</ele>
        <time>2021-02-17T10:31:00Z</time>
      </trkpt>
      <trkpt lat="45.29187" lon="6.14487">
        <ele>2565.6</ele>
        <time>2021-02-17T10:31:01Z</time>
      </trkpt>
      <trkpt lat="45.29187" lon="6.14487">
        <ele>2565.6</ele>
        <time>2021-02-17T10:31:02Z</time>
      </trkpt>
      <trkpt lat="45.29187" lon="6.14487">
        <ele>2565.6</ele>
        <time>2021-02-17T10:31:03Z</time>
      </trkpt>
      <trkpt lat="45.29187" lon="6.14488">
        <ele>2566.7</ele>
        <time>2021-02-17T10:31:04Z</time>
      </trkpt>
      <trkpt lat="45.29187" lon="6.14489">
        <ele>2566.7</ele>
        <time>2021-02-17T10:31:05Z</time>
      </trkpt>
      <trkpt lat="45.29187" lon="6.14489">
        <ele>2566.7</ele>
        <time>2021-02-17T10:31:06Z</time>
      </trkpt>
      <trkpt lat="45.29187" lon="6.14489">
        <ele>2566.7</ele>
        <time>2021-02-17T10:31:07Z</time>
      </trkpt>
      <trkpt lat="45.29186" lon="6.14488">
        <ele>2566.7</ele>
        <time>2021-02-17T10:31:08Z</time>
      </trkpt>
      <trkpt lat="45.29186" lon="6.14488">
        <ele>2566.7</ele>
        <time>2021-02-17T10:31:09Z</time>
      </trkpt>
      <trkpt lat="45.29189" lon="6.14486">
        <ele>2567.1</ele>
        <time>2021-02-17T10:31:17Z</time>
      </trkpt>
      <trkpt lat="45.2919" lon="6.14487">
        <ele>2567.1</ele>
        <time>2021-02-17T10:31:18Z</time>
      </trkpt>
      <trkpt lat="45.29191" lon="6.14486">
        <ele>2567.1</ele>
        <time>2021-02-17T10:31:19Z</time>
      </trkpt>
      <trkpt lat="45.29191" lon="6.14486">
        <ele>2567.1</ele>
        <time>2021-02-17T10:31:20Z</time>
      </trkpt>
      <trkpt lat="45.29192" lon="6.14486">
        <ele>2568.6</ele>
        <time>2021-02-17T10:31:21Z</time>
      </trkpt>
      <trkpt lat="45.29193" lon="6.14485">
        <ele>2568.6</ele>
        <time>2021-02-17T10:31:22Z</time>
      </trkpt>
      <trkpt lat="45.29194" lon="6.14484">
        <ele>2568.6</ele>
        <time>2021-02-17T10:31:23Z</time>
      </trkpt>
      <trkpt lat="45.29195" lon="6.14483">
        <ele>2567.5</ele>
        <time>2021-02-17T10:31:24Z</time>
      </trkpt>
      <trkpt lat="45.29195" lon="6.14482">
        <ele>2569.1</ele>
        <time>2021-02-17T10:31:25Z</time>
      </trkpt>
      <trkpt lat="45.29197" lon="6.14482">
        <ele>2569.1</ele>
        <time>2021-02-17T10:31:26Z</time>
      </trkpt>
      <trkpt lat="45.29198" lon="6.14481">
        <ele>2569.1</ele>
        <time>2021-02-17T10:31:27Z</time>
      </trkpt>
      <trkpt lat="45.29198" lon="6.1448">
        <ele>2570.5</ele>
        <time>2021-02-17T10:31:28Z</time>
      </trkpt>
      <trkpt lat="45.29199" lon="6.14479">
        <ele>2569.5</ele>
        <time>2021-02-17T10:31:29Z</time>
      </trkpt>
      <trkpt lat="45.292" lon="6.14477">
        <ele>2569.5</ele>
        <time>2021-02-17T10:31:30Z</time>
      </trkpt>
      <trkpt lat="45.292" lon="6.14476">
        <ele>2569.5</ele>
        <time>2021-02-17T10:31:31Z</time>
      </trkpt>
      <trkpt lat="45.29201" lon="6.14475">
        <ele>2568.5</ele>
        <time>2021-02-17T10:31:32Z</time>
      </trkpt>
      <trkpt lat="45.29201" lon="6.14474">
        <ele>2569.9</ele>
        <time>2021-02-17T10:31:33Z</time>
      </trkpt>
      <trkpt lat="45.29202" lon="6.14473">
        <ele>2569.9</ele>
        <time>2021-02-17T10:31:34Z</time>
      </trkpt>
      <trkpt lat="45.29202" lon="6.14472">
        <ele>2569.9</ele>
        <time>2021-02-17T10:31:35Z</time>
      </trkpt>
      <trkpt lat="45.29203" lon="6.1447">
        <ele>2569</ele>
        <time>2021-02-17T10:31:36Z</time>
      </trkpt>
      <trkpt lat="45.29203" lon="6.14469">
        <ele>2569</ele>
        <time>2021-02-17T10:31:37Z</time>
      </trkpt>
      <trkpt lat="45.29203" lon="6.14468">
        <ele>2569</ele>
        <time>2021-02-17T10:31:38Z</time>
      </trkpt>
      <trkpt lat="45.29204" lon="6.14467">
        <ele>2569</ele>
        <time>2021-02-17T10:31:39Z</time>
      </trkpt>
      <trkpt lat="45.29204" lon="6.14466">
        <ele>2569.6</ele>
        <time>2021-02-17T10:31:40Z</time>
      </trkpt>
      <trkpt lat="45.29204" lon="6.14465">
        <ele>2569.6</ele>
        <time>2021-02-17T10:31:41Z</time>
      </trkpt>
      <trkpt lat="45.29204" lon="6.14464">
        <ele>2569.6</ele>
        <time>2021-02-17T10:31:42Z</time>
      </trkpt>
      <trkpt lat="45.29205" lon="6.14463">
        <ele>2569.6</ele>
        <time>2021-02-17T10:31:43Z</time>
      </trkpt>
      <trkpt lat="45.29205" lon="6.14462">
        <ele>2568.8</ele>
        <time>2021-02-17T10:31:44Z</time>
      </trkpt>
      <trkpt lat="45.29205" lon="6.14461">
        <ele>2568.8</ele>
        <time>2021-02-17T10:31:45Z</time>
      </trkpt>
      <trkpt lat="45.29205" lon="6.1446">
        <ele>2568.8</ele>
        <time>2021-02-17T10:31:46Z</time>
      </trkpt>
      <trkpt lat="45.29205" lon="6.1446">
        <ele>2568.8</ele>
        <time>2021-02-17T10:31:47Z</time>
      </trkpt>
      <trkpt lat="45.29206" lon="6.14459">
        <ele>2568.8</ele>
        <time>2021-02-17T10:31:48Z</time>
      </trkpt>
      <trkpt lat="45.29206" lon="6.14458">
        <ele>2568.8</ele>
        <time>2021-02-17T10:31:49Z</time>
      </trkpt>
      <trkpt lat="45.29206" lon="6.14457">
        <ele>2568</ele>
        <time>2021-02-17T10:31:50Z</time>
      </trkpt>
      <trkpt lat="45.29207" lon="6.14456">
        <ele>2568</ele>
        <time>2021-02-17T10:31:51Z</time>
      </trkpt>
      <trkpt lat="45.29207" lon="6.14455">
        <ele>2569.4</ele>
        <time>2021-02-17T10:31:52Z</time>
      </trkpt>
      <trkpt lat="45.29207" lon="6.14455">
        <ele>2569.4</ele>
        <time>2021-02-17T10:31:53Z</time>
      </trkpt>
      <trkpt lat="45.29208" lon="6.14454">
        <ele>2569.4</ele>
        <time>2021-02-17T10:31:54Z</time>
      </trkpt>
      <trkpt lat="45.29208" lon="6.14454">
        <ele>2569.4</ele>
        <time>2021-02-17T10:31:55Z</time>
      </trkpt>
      <trkpt lat="45.29208" lon="6.14454">
        <ele>2569.4</ele>
        <time>2021-02-17T10:31:56Z</time>
      </trkpt>
      <trkpt lat="45.29208" lon="6.14454">
        <ele>2569.4</ele>
        <time>2021-02-17T10:31:57Z</time>
      </trkpt>
      <trkpt lat="45.2921" lon="6.14454">
        <ele>2569.4</ele>
        <time>2021-02-17T10:31:58Z</time>
      </trkpt>
      <trkpt lat="45.29211" lon="6.14455">
        <ele>2570.9</ele>
        <time>2021-02-17T10:31:59Z</time>
      </trkpt>
      <trkpt lat="45.29212" lon="6.14456">
        <ele>2570.9</ele>
        <time>2021-02-17T10:32:00Z</time>
      </trkpt>
      <trkpt lat="45.29213" lon="6.14458">
        <ele>2572.5</ele>
        <time>2021-02-17T10:32:01Z</time>
      </trkpt>
      <trkpt lat="45.29214" lon="6.14459">
        <ele>2573.2</ele>
        <time>2021-02-17T10:32:02Z</time>
      </trkpt>
      <trkpt lat="45.29216" lon="6.1446">
        <ele>2573.2</ele>
        <time>2021-02-17T10:32:03Z</time>
      </trkpt>
      <trkpt lat="45.29217" lon="6.14461">
        <ele>2574.8</ele>
        <time>2021-02-17T10:32:23Z</time>
      </trkpt>
      <trkpt lat="45.29218" lon="6.14462">
        <ele>2574.8</ele>
        <time>2021-02-17T10:32:24Z</time>
      </trkpt>
      <trkpt lat="45.29219" lon="6.14463">
        <ele>2577.1</ele>
        <time>2021-02-17T10:32:25Z</time>
      </trkpt>
      <trkpt lat="45.29218" lon="6.14465">
        <ele>2575.5</ele>
        <time>2021-02-17T10:32:26Z</time>
      </trkpt>
      <trkpt lat="45.29218" lon="6.14467">
        <ele>2576.2</ele>
        <time>2021-02-17T10:32:27Z</time>
      </trkpt>
      <trkpt lat="45.29217" lon="6.1447">
        <ele>2576.2</ele>
        <time>2021-02-17T10:32:28Z</time>
      </trkpt>
      <trkpt lat="45.29216" lon="6.14471">
        <ele>2577</ele>
        <time>2021-02-17T10:32:29Z</time>
      </trkpt>
      <trkpt lat="45.29215" lon="6.14471">
        <ele>2575.5</ele>
        <time>2021-02-17T10:32:30Z</time>
      </trkpt>
      <trkpt lat="45.29215" lon="6.14473">
        <ele>2575.5</ele>
        <time>2021-02-17T10:32:31Z</time>
      </trkpt>
      <trkpt lat="45.29214" lon="6.14474">
        <ele>2575.5</ele>
        <time>2021-02-17T10:32:32Z</time>
      </trkpt>
      <trkpt lat="45.2921" lon="6.14472">
        <ele>2574</ele>
        <time>2021-02-17T10:32:33Z</time>
      </trkpt>
      <trkpt lat="45.29209" lon="6.14472">
        <ele>2572.6</ele>
        <time>2021-02-17T10:32:34Z</time>
      </trkpt>
      <trkpt lat="45.29207" lon="6.14472">
        <ele>2572.6</ele>
        <time>2021-02-17T10:32:35Z</time>
      </trkpt>
      <trkpt lat="45.29206" lon="6.14471">
        <ele>2571.3</ele>
        <time>2021-02-17T10:32:36Z</time>
      </trkpt>
      <trkpt lat="45.29206" lon="6.14471">
        <ele>2571.3</ele>
        <time>2021-02-17T10:32:37Z</time>
      </trkpt>
      <trkpt lat="45.29206" lon="6.14471">
        <ele>2571.3</ele>
        <time>2021-02-17T10:32:38Z</time>
      </trkpt>
      <trkpt lat="45.29206" lon="6.14471">
        <ele>2571.3</ele>
        <time>2021-02-17T10:32:39Z</time>
      </trkpt>
      <trkpt lat="45.29204" lon="6.14472">
        <ele>2571.3</ele>
        <time>2021-02-17T10:32:40Z</time>
      </trkpt>
      <trkpt lat="45.29204" lon="6.14472">
        <ele>2571.3</ele>
        <time>2021-02-17T10:32:41Z</time>
      </trkpt>
      <trkpt lat="45.29205" lon="6.14472">
        <ele>2571.3</ele>
        <time>2021-02-17T10:32:42Z</time>
      </trkpt>
      <trkpt lat="45.29205" lon="6.14472">
        <ele>2571.3</ele>
        <time>2021-02-17T10:32:43Z</time>
      </trkpt>
      <trkpt lat="45.29206" lon="6.14472">
        <ele>2571.3</ele>
        <time>2021-02-17T10:32:44Z</time>
      </trkpt>
      <trkpt lat="45.29207" lon="6.14472">
        <ele>2571.3</ele>
        <time>2021-02-17T10:32:45Z</time>
      </trkpt>
      <trkpt lat="45.29213" lon="6.14473">
        <ele>2575.5</ele>
        <time>2021-02-17T10:32:52Z</time>
      </trkpt>
      <trkpt lat="45.29214" lon="6.14473">
        <ele>2575.5</ele>
        <time>2021-02-17T10:32:53Z</time>
      </trkpt>
      <trkpt lat="45.29215" lon="6.14474">
        <ele>2575.5</ele>
        <time>2021-02-17T10:32:54Z</time>
      </trkpt>
      <trkpt lat="45.29216" lon="6.14474">
        <ele>2577</ele>
        <time>2021-02-17T10:32:55Z</time>
      </trkpt>
      <trkpt lat="45.29217" lon="6.14474">
        <ele>2577</ele>
        <time>2021-02-17T10:32:56Z</time>
      </trkpt>
      <trkpt lat="45.29218" lon="6.14474">
        <ele>2577</ele>
        <time>2021-02-17T10:32:57Z</time>
      </trkpt>
      <trkpt lat="45.29219" lon="6.14474">
        <ele>2578.5</ele>
        <time>2021-02-17T10:32:58Z</time>
      </trkpt>
      <trkpt lat="45.2922" lon="6.14474">
        <ele>2578.5</ele>
        <time>2021-02-17T10:32:59Z</time>
      </trkpt>
      <trkpt lat="45.2922" lon="6.14474">
        <ele>2578.5</ele>
        <time>2021-02-17T10:33:00Z</time>
      </trkpt>
      <trkpt lat="45.29221" lon="6.14475">
        <ele>2578.5</ele>
        <time>2021-02-17T10:33:01Z</time>
      </trkpt>
      <trkpt lat="45.29221" lon="6.14475">
        <ele>2578.5</ele>
        <time>2021-02-17T10:33:02Z</time>
      </trkpt>
      <trkpt lat="45.29222" lon="6.14475">
        <ele>2580.9</ele>
        <time>2021-02-17T10:33:03Z</time>
      </trkpt>
      <trkpt lat="45.29222" lon="6.14476">
        <ele>2580.9</ele>
        <time>2021-02-17T10:33:04Z</time>
      </trkpt>
      <trkpt lat="45.29223" lon="6.14476">
        <ele>2580.9</ele>
        <time>2021-02-17T10:33:05Z</time>
      </trkpt>
      <trkpt lat="45.29223" lon="6.14477">
        <ele>2580.9</ele>
        <time>2021-02-17T10:33:06Z</time>
      </trkpt>
      <trkpt lat="45.29224" lon="6.14478">
        <ele>2580.9</ele>
        <time>2021-02-17T10:33:07Z</time>
      </trkpt>
      <trkpt lat="45.29224" lon="6.14479">
        <ele>2580.9</ele>
        <time>2021-02-17T10:33:08Z</time>
      </trkpt>
      <trkpt lat="45.29224" lon="6.1448">
        <ele>2581.7</ele>
        <time>2021-02-17T10:33:09Z</time>
      </trkpt>
      <trkpt lat="45.29224" lon="6.1448">
        <ele>2581.7</ele>
        <time>2021-02-17T10:33:10Z</time>
      </trkpt>
      <trkpt lat="45.29224" lon="6.14481">
        <ele>2581.7</ele>
        <time>2021-02-17T10:33:11Z</time>
      </trkpt>
      <trkpt lat="45.29225" lon="6.14481">
        <ele>2581.7</ele>
        <time>2021-02-17T10:33:12Z</time>
      </trkpt>
      <trkpt lat="45.29225" lon="6.14481">
        <ele>2583.3</ele>
        <time>2021-02-17T10:33:13Z</time>
      </trkpt>
      <trkpt lat="45.29226" lon="6.14482">
        <ele>2583.3</ele>
        <time>2021-02-17T10:33:14Z</time>
      </trkpt>
      <trkpt lat="45.29226" lon="6.14482">
        <ele>2583.3</ele>
        <time>2021-02-17T10:33:15Z</time>
      </trkpt>
      <trkpt lat="45.29227" lon="6.14483">
        <ele>2583.3</ele>
        <time>2021-02-17T10:33:16Z</time>
      </trkpt>
      <trkpt lat="45.29228" lon="6.14484">
        <ele>2584.2</ele>
        <time>2021-02-17T10:33:17Z</time>
      </trkpt>
      <trkpt lat="45.29228" lon="6.14485">
        <ele>2585.7</ele>
        <time>2021-02-17T10:33:18Z</time>
      </trkpt>
      <trkpt lat="45.29229" lon="6.14486">
        <ele>2585.7</ele>
        <time>2021-02-17T10:33:19Z</time>
      </trkpt>
      <trkpt lat="45.2923" lon="6.14487">
        <ele>2585.7</ele>
        <time>2021-02-17T10:33:20Z</time>
      </trkpt>
      <trkpt lat="45.29231" lon="6.14487">
        <ele>2585.7</ele>
        <time>2021-02-17T10:33:21Z</time>
      </trkpt>
      <trkpt lat="45.29232" lon="6.14488">
        <ele>2587.1</ele>
        <time>2021-02-17T10:33:22Z</time>
      </trkpt>
      <trkpt lat="45.29233" lon="6.14489">
        <ele>2588.2</ele>
        <time>2021-02-17T10:33:23Z</time>
      </trkpt>
      <trkpt lat="45.29233" lon="6.14489">
        <ele>2588.2</ele>
        <time>2021-02-17T10:33:24Z</time>
      </trkpt>
      <trkpt lat="45.29233" lon="6.1449">
        <ele>2588.2</ele>
        <time>2021-02-17T10:33:25Z</time>
      </trkpt>
      <trkpt lat="45.29234" lon="6.1449">
        <ele>2588.2</ele>
        <time>2021-02-17T10:33:26Z</time>
      </trkpt>
      <trkpt lat="45.29234" lon="6.14491">
        <ele>2588.2</ele>
        <time>2021-02-17T10:33:27Z</time>
      </trkpt>
      <trkpt lat="45.29234" lon="6.14492">
        <ele>2589.5</ele>
        <time>2021-02-17T10:33:28Z</time>
      </trkpt>
      <trkpt lat="45.29235" lon="6.14492">
        <ele>2590.7</ele>
        <time>2021-02-17T10:33:29Z</time>
      </trkpt>
      <trkpt lat="45.29235" lon="6.14493">
        <ele>2590.7</ele>
        <time>2021-02-17T10:33:30Z</time>
      </trkpt>
      <trkpt lat="45.29235" lon="6.14493">
        <ele>2590.7</ele>
        <time>2021-02-17T10:33:31Z</time>
      </trkpt>
      <trkpt lat="45.29235" lon="6.14494">
        <ele>2590.7</ele>
        <time>2021-02-17T10:33:32Z</time>
      </trkpt>
      <trkpt lat="45.29235" lon="6.14494">
        <ele>2590.7</ele>
        <time>2021-02-17T10:33:33Z</time>
      </trkpt>
      <trkpt lat="45.29235" lon="6.14482">
        <ele>2587.6</ele>
        <time>2021-02-17T10:33:44Z</time>
      </trkpt>
      <trkpt lat="45.29236" lon="6.14481">
        <ele>2587.6</ele>
        <time>2021-02-17T10:33:45Z</time>
      </trkpt>
      <trkpt lat="45.29236" lon="6.1448">
        <ele>2587.6</ele>
        <time>2021-02-17T10:33:46Z</time>
      </trkpt>
      <trkpt lat="45.29237" lon="6.14479">
        <ele>2587.6</ele>
        <time>2021-02-17T10:33:47Z</time>
      </trkpt>
      <trkpt lat="45.29238" lon="6.14478">
        <ele>2588</ele>
        <time>2021-02-17T10:33:48Z</time>
      </trkpt>
      <trkpt lat="45.29238" lon="6.14477">
        <ele>2588</ele>
        <time>2021-02-17T10:33:49Z</time>
      </trkpt>
      <trkpt lat="45.29238" lon="6.14476">
        <ele>2588</ele>
        <time>2021-02-17T10:33:50Z</time>
      </trkpt>
      <trkpt lat="45.29239" lon="6.14475">
        <ele>2588</ele>
        <time>2021-02-17T10:33:51Z</time>
      </trkpt>
      <trkpt lat="45.29239" lon="6.14474">
        <ele>2587.3</ele>
        <time>2021-02-17T10:33:52Z</time>
      </trkpt>
      <trkpt lat="45.29239" lon="6.14472">
        <ele>2587.3</ele>
        <time>2021-02-17T10:33:53Z</time>
      </trkpt>
      <trkpt lat="45.2924" lon="6.14471">
        <ele>2587.3</ele>
        <time>2021-02-17T10:33:54Z</time>
      </trkpt>
      <trkpt lat="45.2924" lon="6.14469">
        <ele>2587.9</ele>
        <time>2021-02-17T10:33:55Z</time>
      </trkpt>
      <trkpt lat="45.2924" lon="6.14467">
        <ele>2587.9</ele>
        <time>2021-02-17T10:33:56Z</time>
      </trkpt>
      <trkpt lat="45.29241" lon="6.14466">
        <ele>2587.2</ele>
        <time>2021-02-17T10:33:57Z</time>
      </trkpt>
      <trkpt lat="45.29241" lon="6.14464">
        <ele>2587.2</ele>
        <time>2021-02-17T10:33:58Z</time>
      </trkpt>
      <trkpt lat="45.29241" lon="6.14463">
        <ele>2587.2</ele>
        <time>2021-02-17T10:33:59Z</time>
      </trkpt>
      <trkpt lat="45.29242" lon="6.14463">
        <ele>2587.2</ele>
        <time>2021-02-17T10:34:00Z</time>
      </trkpt>
      <trkpt lat="45.29242" lon="6.14462">
        <ele>2587.2</ele>
        <time>2021-02-17T10:34:01Z</time>
      </trkpt>
      <trkpt lat="45.29243" lon="6.14462">
        <ele>2586.6</ele>
        <time>2021-02-17T10:34:02Z</time>
      </trkpt>
      <trkpt lat="45.29243" lon="6.14461">
        <ele>2586.6</ele>
        <time>2021-02-17T10:34:03Z</time>
      </trkpt>
      <trkpt lat="45.29243" lon="6.1446">
        <ele>2586.6</ele>
        <time>2021-02-17T10:34:04Z</time>
      </trkpt>
      <trkpt lat="45.29242" lon="6.1446">
        <ele>2586.6</ele>
        <time>2021-02-17T10:34:05Z</time>
      </trkpt>
      <trkpt lat="45.29242" lon="6.14459">
        <ele>2586.6</ele>
        <time>2021-02-17T10:34:06Z</time>
      </trkpt>
      <trkpt lat="45.29242" lon="6.14458">
        <ele>2586.6</ele>
        <time>2021-02-17T10:34:07Z</time>
      </trkpt>
      <trkpt lat="45.29243" lon="6.14457">
        <ele>2586.1</ele>
        <time>2021-02-17T10:34:08Z</time>
      </trkpt>
      <trkpt lat="45.29243" lon="6.14456">
        <ele>2586.1</ele>
        <time>2021-02-17T10:34:09Z</time>
      </trkpt>
      <trkpt lat="45.29243" lon="6.14455">
        <ele>2586.1</ele>
        <time>2021-02-17T10:34:10Z</time>
      </trkpt>
      <trkpt lat="45.29243" lon="6.14454">
        <ele>2586.1</ele>
        <time>2021-02-17T10:34:11Z</time>
      </trkpt>
      <trkpt lat="45.29243" lon="6.14454">
        <ele>2586.1</ele>
        <time>2021-02-17T10:34:12Z</time>
      </trkpt>
      <trkpt lat="45.29243" lon="6.14453">
        <ele>2586.9</ele>
        <time>2021-02-17T10:34:13Z</time>
      </trkpt>
      <trkpt lat="45.29243" lon="6.14452">
        <ele>2586.9</ele>
        <time>2021-02-17T10:34:14Z</time>
      </trkpt>
      <trkpt lat="45.29243" lon="6.14451">
        <ele>2586.9</ele>
        <time>2021-02-17T10:34:15Z</time>
      </trkpt>
      <trkpt lat="45.29244" lon="6.1445">
        <ele>2586.9</ele>
        <time>2021-02-17T10:34:16Z</time>
      </trkpt>
      <trkpt lat="45.29244" lon="6.14449">
        <ele>2586.3</ele>
        <time>2021-02-17T10:34:17Z</time>
      </trkpt>
      <trkpt lat="45.29244" lon="6.14448">
        <ele>2586.3</ele>
        <time>2021-02-17T10:34:18Z</time>
      </trkpt>
      <trkpt lat="45.29244" lon="6.14446">
        <ele>2586.3</ele>
        <time>2021-02-17T10:34:19Z</time>
      </trkpt>
      <trkpt lat="45.29244" lon="6.14446">
        <ele>2586.3</ele>
        <time>2021-02-17T10:34:20Z</time>
      </trkpt>
      <trkpt lat="45.29244" lon="6.14445">
        <ele>2585.8</ele>
        <time>2021-02-17T10:34:21Z</time>
      </trkpt>
      <trkpt lat="45.29244" lon="6.14444">
        <ele>2585.8</ele>
        <time>2021-02-17T10:34:22Z</time>
      </trkpt>
      <trkpt lat="45.29245" lon="6.14443">
        <ele>2585.8</ele>
        <time>2021-02-17T10:34:23Z</time>
      </trkpt>
      <trkpt lat="45.29245" lon="6.14442">
        <ele>2585.8</ele>
        <time>2021-02-17T10:34:24Z</time>
      </trkpt>
      <trkpt lat="45.29245" lon="6.14441">
        <ele>2585.8</ele>
        <time>2021-02-17T10:34:25Z</time>
      </trkpt>
      <trkpt lat="45.29245" lon="6.1444">
        <ele>2585.3</ele>
        <time>2021-02-17T10:34:26Z</time>
      </trkpt>
      <trkpt lat="45.29245" lon="6.14439">
        <ele>2585.3</ele>
        <time>2021-02-17T10:34:27Z</time>
      </trkpt>
      <trkpt lat="45.29246" lon="6.14438">
        <ele>2585.3</ele>
        <time>2021-02-17T10:34:28Z</time>
      </trkpt>
      <trkpt lat="45.29246" lon="6.14437">
        <ele>2586.9</ele>
        <time>2021-02-17T10:34:29Z</time>
      </trkpt>
      <trkpt lat="45.29247" lon="6.14435">
        <ele>2586.5</ele>
        <time>2021-02-17T10:34:30Z</time>
      </trkpt>
      <trkpt lat="45.29247" lon="6.14434">
        <ele>2586.5</ele>
        <time>2021-02-17T10:34:31Z</time>
      </trkpt>
      <trkpt lat="45.29247" lon="6.14434">
        <ele>2586.5</ele>
        <time>2021-02-17T10:34:32Z</time>
      </trkpt>
      <trkpt lat="45.29248" lon="6.14433">
        <ele>2586.5</ele>
        <time>2021-02-17T10:34:33Z</time>
      </trkpt>
      <trkpt lat="45.29248" lon="6.14432">
        <ele>2586.1</ele>
        <time>2021-02-17T10:34:34Z</time>
      </trkpt>
      <trkpt lat="45.29248" lon="6.14431">
        <ele>2586.1</ele>
        <time>2021-02-17T10:34:35Z</time>
      </trkpt>
      <trkpt lat="45.29249" lon="6.1443">
        <ele>2586.1</ele>
        <time>2021-02-17T10:34:36Z</time>
      </trkpt>
      <trkpt lat="45.29249" lon="6.14429">
        <ele>2586.1</ele>
        <time>2021-02-17T10:34:37Z</time>
      </trkpt>
      <trkpt lat="45.29249" lon="6.14429">
        <ele>2586.1</ele>
        <time>2021-02-17T10:34:38Z</time>
      </trkpt>
      <trkpt lat="45.29249" lon="6.14427">
        <ele>2585.8</ele>
        <time>2021-02-17T10:34:39Z</time>
      </trkpt>
      <trkpt lat="45.29249" lon="6.14426">
        <ele>2585.8</ele>
        <time>2021-02-17T10:34:40Z</time>
      </trkpt>
      <trkpt lat="45.29249" lon="6.14425">
        <ele>2587.6</ele>
        <time>2021-02-17T10:34:41Z</time>
      </trkpt>
      <trkpt lat="45.29249" lon="6.14425">
        <ele>2587.6</ele>
        <time>2021-02-17T10:34:42Z</time>
      </trkpt>
      <trkpt lat="45.2925" lon="6.14424">
        <ele>2587.6</ele>
        <time>2021-02-17T10:34:43Z</time>
      </trkpt>
      <trkpt lat="45.2925" lon="6.14422">
        <ele>2587.3</ele>
        <time>2021-02-17T10:34:44Z</time>
      </trkpt>
      <trkpt lat="45.2925" lon="6.14421">
        <ele>2587.3</ele>
        <time>2021-02-17T10:34:45Z</time>
      </trkpt>
      <trkpt lat="45.29251" lon="6.1442">
        <ele>2587.3</ele>
        <time>2021-02-17T10:34:46Z</time>
      </trkpt>
      <trkpt lat="45.29251" lon="6.14419">
        <ele>2587.1</ele>
        <time>2021-02-17T10:34:47Z</time>
      </trkpt>
      <trkpt lat="45.29251" lon="6.14417">
        <ele>2587.1</ele>
        <time>2021-02-17T10:34:48Z</time>
      </trkpt>
      <trkpt lat="45.29251" lon="6.14416">
        <ele>2587.1</ele>
        <time>2021-02-17T10:34:49Z</time>
      </trkpt>
      <trkpt lat="45.29252" lon="6.14415">
        <ele>2587.1</ele>
        <time>2021-02-17T10:34:50Z</time>
      </trkpt>
      <trkpt lat="45.29252" lon="6.14414">
        <ele>2586.9</ele>
        <time>2021-02-17T10:34:51Z</time>
      </trkpt>
      <trkpt lat="45.29252" lon="6.14413">
        <ele>2588.7</ele>
        <time>2021-02-17T10:34:52Z</time>
      </trkpt>
      <trkpt lat="45.29252" lon="6.14413">
        <ele>2588.7</ele>
        <time>2021-02-17T10:34:53Z</time>
      </trkpt>
      <trkpt lat="45.29253" lon="6.14412">
        <ele>2588.7</ele>
        <time>2021-02-17T10:34:54Z</time>
      </trkpt>
      <trkpt lat="45.29253" lon="6.14411">
        <ele>2588.7</ele>
        <time>2021-02-17T10:34:55Z</time>
      </trkpt>
      <trkpt lat="45.29253" lon="6.1441">
        <ele>2588.5</ele>
        <time>2021-02-17T10:34:56Z</time>
      </trkpt>
      <trkpt lat="45.29254" lon="6.14409">
        <ele>2588.5</ele>
        <time>2021-02-17T10:34:57Z</time>
      </trkpt>
      <trkpt lat="45.29254" lon="6.14408">
        <ele>2588.5</ele>
        <time>2021-02-17T10:34:58Z</time>
      </trkpt>
      <trkpt lat="45.29254" lon="6.14407">
        <ele>2588.5</ele>
        <time>2021-02-17T10:34:59Z</time>
      </trkpt>
      <trkpt lat="45.29255" lon="6.14406">
        <ele>2588.4</ele>
        <time>2021-02-17T10:35:00Z</time>
      </trkpt>
      <trkpt lat="45.29255" lon="6.14405">
        <ele>2588.4</ele>
        <time>2021-02-17T10:35:01Z</time>
      </trkpt>
      <trkpt lat="45.29255" lon="6.14404">
        <ele>2590.1</ele>
        <time>2021-02-17T10:35:02Z</time>
      </trkpt>
      <trkpt lat="45.29256" lon="6.14404">
        <ele>2590.1</ele>
        <time>2021-02-17T10:35:03Z</time>
      </trkpt>
      <trkpt lat="45.29256" lon="6.14403">
        <ele>2590.1</ele>
        <time>2021-02-17T10:35:04Z</time>
      </trkpt>
      <trkpt lat="45.29257" lon="6.14402">
        <ele>2590.1</ele>
        <time>2021-02-17T10:35:05Z</time>
      </trkpt>
      <trkpt lat="45.29257" lon="6.14401">
        <ele>2590</ele>
        <time>2021-02-17T10:35:06Z</time>
      </trkpt>
      <trkpt lat="45.29258" lon="6.14401">
        <ele>2590</ele>
        <time>2021-02-17T10:35:07Z</time>
      </trkpt>
      <trkpt lat="45.29258" lon="6.144">
        <ele>2590</ele>
        <time>2021-02-17T10:35:08Z</time>
      </trkpt>
      <trkpt lat="45.29258" lon="6.144">
        <ele>2591.6</ele>
        <time>2021-02-17T10:35:09Z</time>
      </trkpt>
      <trkpt lat="45.29259" lon="6.14399">
        <ele>2591.6</ele>
        <time>2021-02-17T10:35:10Z</time>
      </trkpt>
      <trkpt lat="45.29259" lon="6.14399">
        <ele>2591.6</ele>
        <time>2021-02-17T10:35:11Z</time>
      </trkpt>
      <trkpt lat="45.29259" lon="6.14399">
        <ele>2591.6</ele>
        <time>2021-02-17T10:35:12Z</time>
      </trkpt>
      <trkpt lat="45.2926" lon="6.14399">
        <ele>2591.6</ele>
        <time>2021-02-17T10:35:13Z</time>
      </trkpt>
      <trkpt lat="45.2926" lon="6.14398">
        <ele>2591.6</ele>
        <time>2021-02-17T10:35:14Z</time>
      </trkpt>
      <trkpt lat="45.2926" lon="6.14397">
        <ele>2591.5</ele>
        <time>2021-02-17T10:35:15Z</time>
      </trkpt>
      <trkpt lat="45.29261" lon="6.14397">
        <ele>2591.5</ele>
        <time>2021-02-17T10:35:16Z</time>
      </trkpt>
      <trkpt lat="45.29261" lon="6.14396">
        <ele>2593</ele>
        <time>2021-02-17T10:35:17Z</time>
      </trkpt>
      <trkpt lat="45.29262" lon="6.14396">
        <ele>2593</ele>
        <time>2021-02-17T10:35:18Z</time>
      </trkpt>
      <trkpt lat="45.29262" lon="6.14395">
        <ele>2593</ele>
        <time>2021-02-17T10:35:19Z</time>
      </trkpt>
      <trkpt lat="45.29263" lon="6.14394">
        <ele>2593</ele>
        <time>2021-02-17T10:35:20Z</time>
      </trkpt>
      <trkpt lat="45.29263" lon="6.14393">
        <ele>2593</ele>
        <time>2021-02-17T10:35:21Z</time>
      </trkpt>
      <trkpt lat="45.29263" lon="6.14393">
        <ele>2593</ele>
        <time>2021-02-17T10:35:22Z</time>
      </trkpt>
      <trkpt lat="45.29264" lon="6.14392">
        <ele>2593</ele>
        <time>2021-02-17T10:35:23Z</time>
      </trkpt>
      <trkpt lat="45.29264" lon="6.14391">
        <ele>2593</ele>
        <time>2021-02-17T10:35:24Z</time>
      </trkpt>
      <trkpt lat="45.29264" lon="6.1439">
        <ele>2594.5</ele>
        <time>2021-02-17T10:35:25Z</time>
      </trkpt>
      <trkpt lat="45.29265" lon="6.14389">
        <ele>2594.5</ele>
        <time>2021-02-17T10:35:26Z</time>
      </trkpt>
      <trkpt lat="45.29265" lon="6.14388">
        <ele>2594.6</ele>
        <time>2021-02-17T10:35:27Z</time>
      </trkpt>
      <trkpt lat="45.29266" lon="6.14388">
        <ele>2594.6</ele>
        <time>2021-02-17T10:35:28Z</time>
      </trkpt>
      <trkpt lat="45.29266" lon="6.14387">
        <ele>2594.6</ele>
        <time>2021-02-17T10:35:29Z</time>
      </trkpt>
      <trkpt lat="45.29267" lon="6.14386">
        <ele>2594.6</ele>
        <time>2021-02-17T10:35:30Z</time>
      </trkpt>
      <trkpt lat="45.29267" lon="6.14385">
        <ele>2594.6</ele>
        <time>2021-02-17T10:35:31Z</time>
      </trkpt>
      <trkpt lat="45.29267" lon="6.14385">
        <ele>2596.3</ele>
        <time>2021-02-17T10:35:32Z</time>
      </trkpt>
      <trkpt lat="45.29268" lon="6.14384">
        <ele>2596.3</ele>
        <time>2021-02-17T10:35:33Z</time>
      </trkpt>
      <trkpt lat="45.29268" lon="6.14383">
        <ele>2596.3</ele>
        <time>2021-02-17T10:35:34Z</time>
      </trkpt>
      <trkpt lat="45.29269" lon="6.14382">
        <ele>2596.3</ele>
        <time>2021-02-17T10:35:35Z</time>
      </trkpt>
      <trkpt lat="45.29269" lon="6.14382">
        <ele>2596.3</ele>
        <time>2021-02-17T10:35:36Z</time>
      </trkpt>
      <trkpt lat="45.29269" lon="6.14381">
        <ele>2596.3</ele>
        <time>2021-02-17T10:35:37Z</time>
      </trkpt>
      <trkpt lat="45.2927" lon="6.14381">
        <ele>2596.3</ele>
        <time>2021-02-17T10:35:38Z</time>
      </trkpt>
      <trkpt lat="45.2927" lon="6.1438">
        <ele>2596.5</ele>
        <time>2021-02-17T10:35:39Z</time>
      </trkpt>
      <trkpt lat="45.2927" lon="6.1438">
        <ele>2596.5</ele>
        <time>2021-02-17T10:35:40Z</time>
      </trkpt>
      <trkpt lat="45.2927" lon="6.14379">
        <ele>2598.2</ele>
        <time>2021-02-17T10:35:41Z</time>
      </trkpt>
      <trkpt lat="45.29271" lon="6.14379">
        <ele>2598.2</ele>
        <time>2021-02-17T10:35:42Z</time>
      </trkpt>
      <trkpt lat="45.29271" lon="6.14379">
        <ele>2598.2</ele>
        <time>2021-02-17T10:35:43Z</time>
      </trkpt>
      <trkpt lat="45.29271" lon="6.1438">
        <ele>2598.2</ele>
        <time>2021-02-17T10:35:44Z</time>
      </trkpt>
      <trkpt lat="45.29271" lon="6.1438">
        <ele>2598.2</ele>
        <time>2021-02-17T10:35:45Z</time>
      </trkpt>
      <trkpt lat="45.29272" lon="6.14384">
        <ele>2598</ele>
        <time>2021-02-17T10:35:50Z</time>
      </trkpt>
      <trkpt lat="45.29272" lon="6.14385">
        <ele>2597.8</ele>
        <time>2021-02-17T10:35:51Z</time>
      </trkpt>
      <trkpt lat="45.29272" lon="6.14385">
        <ele>2597.8</ele>
        <time>2021-02-17T10:35:52Z</time>
      </trkpt>
      <trkpt lat="45.29272" lon="6.14386">
        <ele>2597.8</ele>
        <time>2021-02-17T10:35:53Z</time>
      </trkpt>
      <trkpt lat="45.29272" lon="6.14387">
        <ele>2597.8</ele>
        <time>2021-02-17T10:35:54Z</time>
      </trkpt>
      <trkpt lat="45.29272" lon="6.14388">
        <ele>2597.8</ele>
        <time>2021-02-17T10:35:55Z</time>
      </trkpt>
      <trkpt lat="45.29272" lon="6.14389">
        <ele>2597.7</ele>
        <time>2021-02-17T10:35:56Z</time>
      </trkpt>
      <trkpt lat="45.29273" lon="6.14391">
        <ele>2597.7</ele>
        <time>2021-02-17T10:35:57Z</time>
      </trkpt>
      <trkpt lat="45.29273" lon="6.14392">
        <ele>2597.7</ele>
        <time>2021-02-17T10:35:58Z</time>
      </trkpt>
      <trkpt lat="45.29273" lon="6.14393">
        <ele>2597.7</ele>
        <time>2021-02-17T10:35:59Z</time>
      </trkpt>
      <trkpt lat="45.29273" lon="6.14394">
        <ele>2597.6</ele>
        <time>2021-02-17T10:36:00Z</time>
      </trkpt>
      <trkpt lat="45.29273" lon="6.14396">
        <ele>2599.4</ele>
        <time>2021-02-17T10:36:01Z</time>
      </trkpt>
      <trkpt lat="45.29274" lon="6.14396">
        <ele>2599.4</ele>
        <time>2021-02-17T10:36:02Z</time>
      </trkpt>
      <trkpt lat="45.29274" lon="6.14398">
        <ele>2599.4</ele>
        <time>2021-02-17T10:36:03Z</time>
      </trkpt>
      <trkpt lat="45.29274" lon="6.14398">
        <ele>2599.4</ele>
        <time>2021-02-17T10:36:04Z</time>
      </trkpt>
      <trkpt lat="45.29274" lon="6.14399">
        <ele>2599.4</ele>
        <time>2021-02-17T10:36:05Z</time>
      </trkpt>
      <trkpt lat="45.29274" lon="6.144">
        <ele>2599.4</ele>
        <time>2021-02-17T10:36:06Z</time>
      </trkpt>
      <trkpt lat="45.29274" lon="6.14401">
        <ele>2599.4</ele>
        <time>2021-02-17T10:36:07Z</time>
      </trkpt>
      <trkpt lat="45.29274" lon="6.14403">
        <ele>2599.3</ele>
        <time>2021-02-17T10:36:08Z</time>
      </trkpt>
      <trkpt lat="45.29275" lon="6.14404">
        <ele>2599.3</ele>
        <time>2021-02-17T10:36:09Z</time>
      </trkpt>
      <trkpt lat="45.29275" lon="6.14405">
        <ele>2599.3</ele>
        <time>2021-02-17T10:36:10Z</time>
      </trkpt>
      <trkpt lat="45.29275" lon="6.14406">
        <ele>2599.3</ele>
        <time>2021-02-17T10:36:11Z</time>
      </trkpt>
      <trkpt lat="45.29275" lon="6.14407">
        <ele>2599.4</ele>
        <time>2021-02-17T10:36:12Z</time>
      </trkpt>
      <trkpt lat="45.29275" lon="6.14409">
        <ele>2599.4</ele>
        <time>2021-02-17T10:36:13Z</time>
      </trkpt>
      <trkpt lat="45.29275" lon="6.1441">
        <ele>2599.4</ele>
        <time>2021-02-17T10:36:14Z</time>
      </trkpt>
      <trkpt lat="45.29275" lon="6.14412">
        <ele>2599.4</ele>
        <time>2021-02-17T10:36:15Z</time>
      </trkpt>
      <trkpt lat="45.29275" lon="6.14414">
        <ele>2599.4</ele>
        <time>2021-02-17T10:36:16Z</time>
      </trkpt>
      <trkpt lat="45.29275" lon="6.14415">
        <ele>2599.5</ele>
        <time>2021-02-17T10:36:17Z</time>
      </trkpt>
      <trkpt lat="45.29275" lon="6.14417">
        <ele>2599.5</ele>
        <time>2021-02-17T10:36:18Z</time>
      </trkpt>
      <trkpt lat="45.29275" lon="6.14418">
        <ele>2599.5</ele>
        <time>2021-02-17T10:36:19Z</time>
      </trkpt>
      <trkpt lat="45.29276" lon="6.14419">
        <ele>2599.5</ele>
        <time>2021-02-17T10:36:20Z</time>
      </trkpt>
      <trkpt lat="45.29276" lon="6.1442">
        <ele>2599.5</ele>
        <time>2021-02-17T10:36:21Z</time>
      </trkpt>
      <trkpt lat="45.29276" lon="6.14421">
        <ele>2601.3</ele>
        <time>2021-02-17T10:36:22Z</time>
      </trkpt>
      <trkpt lat="45.29277" lon="6.14422">
        <ele>2601.3</ele>
        <time>2021-02-17T10:36:23Z</time>
      </trkpt>
      <trkpt lat="45.29277" lon="6.14423">
        <ele>2601.3</ele>
        <time>2021-02-17T10:36:24Z</time>
      </trkpt>
      <trkpt lat="45.29277" lon="6.14424">
        <ele>2601.4</ele>
        <time>2021-02-17T10:36:25Z</time>
      </trkpt>
      <trkpt lat="45.29277" lon="6.14424">
        <ele>2601.4</ele>
        <time>2021-02-17T10:36:26Z</time>
      </trkpt>
      <trkpt lat="45.29278" lon="6.14425">
        <ele>2601.4</ele>
        <time>2021-02-17T10:36:27Z</time>
      </trkpt>
      <trkpt lat="45.29281" lon="6.14435">
        <ele>2603.6</ele>
        <time>2021-02-17T10:36:38Z</time>
      </trkpt>
      <trkpt lat="45.29282" lon="6.14435">
        <ele>2603.6</ele>
        <time>2021-02-17T10:36:39Z</time>
      </trkpt>
      <trkpt lat="45.29282" lon="6.14436">
        <ele>2603.6</ele>
        <time>2021-02-17T10:36:40Z</time>
      </trkpt>
      <trkpt lat="45.29283" lon="6.14437">
        <ele>2605.5</ele>
        <time>2021-02-17T10:36:41Z</time>
      </trkpt>
      <trkpt lat="45.29283" lon="6.14438">
        <ele>2605.5</ele>
        <time>2021-02-17T10:36:42Z</time>
      </trkpt>
      <trkpt lat="45.29283" lon="6.14438">
        <ele>2605.5</ele>
        <time>2021-02-17T10:36:43Z</time>
      </trkpt>
      <trkpt lat="45.29283" lon="6.14438">
        <ele>2605.5</ele>
        <time>2021-02-17T10:36:44Z</time>
      </trkpt>
      <trkpt lat="45.29283" lon="6.14439">
        <ele>2605.5</ele>
        <time>2021-02-17T10:36:45Z</time>
      </trkpt>
      <trkpt lat="45.29284" lon="6.1444">
        <ele>2605.5</ele>
        <time>2021-02-17T10:36:46Z</time>
      </trkpt>
      <trkpt lat="45.29284" lon="6.1444">
        <ele>2605.5</ele>
        <time>2021-02-17T10:36:47Z</time>
      </trkpt>
      <trkpt lat="45.29284" lon="6.1444">
        <ele>2605.5</ele>
        <time>2021-02-17T10:36:48Z</time>
      </trkpt>
      <trkpt lat="45.29284" lon="6.14441">
        <ele>2606</ele>
        <time>2021-02-17T10:36:49Z</time>
      </trkpt>
      <trkpt lat="45.29285" lon="6.1444">
        <ele>2605.5</ele>
        <time>2021-02-17T10:36:50Z</time>
      </trkpt>
      <trkpt lat="45.29289" lon="6.14433">
        <ele>2608.2</ele>
        <time>2021-02-17T10:36:59Z</time>
      </trkpt>
      <trkpt lat="45.2929" lon="6.14432">
        <ele>2607.9</ele>
        <time>2021-02-17T10:37:00Z</time>
      </trkpt>
      <trkpt lat="45.29291" lon="6.14431">
        <ele>2607.9</ele>
        <time>2021-02-17T10:37:01Z</time>
      </trkpt>
      <trkpt lat="45.29291" lon="6.1443">
        <ele>2607.9</ele>
        <time>2021-02-17T10:37:02Z</time>
      </trkpt>
      <trkpt lat="45.29292" lon="6.14428">
        <ele>2609.5</ele>
        <time>2021-02-17T10:37:03Z</time>
      </trkpt>
      <trkpt lat="45.29292" lon="6.14427">
        <ele>2609.3</ele>
        <time>2021-02-17T10:37:04Z</time>
      </trkpt>
      <trkpt lat="45.29293" lon="6.14426">
        <ele>2609.3</ele>
        <time>2021-02-17T10:37:05Z</time>
      </trkpt>
      <trkpt lat="45.29294" lon="6.14425">
        <ele>2609.3</ele>
        <time>2021-02-17T10:37:06Z</time>
      </trkpt>
      <trkpt lat="45.29294" lon="6.14423">
        <ele>2610.9</ele>
        <time>2021-02-17T10:37:07Z</time>
      </trkpt>
      <trkpt lat="45.29295" lon="6.14422">
        <ele>2610.9</ele>
        <time>2021-02-17T10:37:08Z</time>
      </trkpt>
      <trkpt lat="45.29296" lon="6.14421">
        <ele>2610.9</ele>
        <time>2021-02-17T10:37:09Z</time>
      </trkpt>
      <trkpt lat="45.29296" lon="6.1442">
        <ele>2610.9</ele>
        <time>2021-02-17T10:37:10Z</time>
      </trkpt>
      <trkpt lat="45.29297" lon="6.14419">
        <ele>2610.9</ele>
        <time>2021-02-17T10:37:11Z</time>
      </trkpt>
      <trkpt lat="45.29297" lon="6.14418">
        <ele>2610.8</ele>
        <time>2021-02-17T10:37:12Z</time>
      </trkpt>
      <trkpt lat="45.29298" lon="6.14417">
        <ele>2612.6</ele>
        <time>2021-02-17T10:37:13Z</time>
      </trkpt>
      <trkpt lat="45.29298" lon="6.14416">
        <ele>2612.6</ele>
        <time>2021-02-17T10:37:14Z</time>
      </trkpt>
      <trkpt lat="45.29299" lon="6.14415">
        <ele>2612.6</ele>
        <time>2021-02-17T10:37:15Z</time>
      </trkpt>
      <trkpt lat="45.29299" lon="6.14414">
        <ele>2612.6</ele>
        <time>2021-02-17T10:37:16Z</time>
      </trkpt>
      <trkpt lat="45.293" lon="6.14413">
        <ele>2612.6</ele>
        <time>2021-02-17T10:37:17Z</time>
      </trkpt>
      <trkpt lat="45.29301" lon="6.14412">
        <ele>2614.4</ele>
        <time>2021-02-17T10:37:18Z</time>
      </trkpt>
      <trkpt lat="45.29301" lon="6.14411">
        <ele>2614.4</ele>
        <time>2021-02-17T10:37:19Z</time>
      </trkpt>
      <trkpt lat="45.29301" lon="6.1441">
        <ele>2614.4</ele>
        <time>2021-02-17T10:37:20Z</time>
      </trkpt>
      <trkpt lat="45.29302" lon="6.14409">
        <ele>2614.4</ele>
        <time>2021-02-17T10:37:21Z</time>
      </trkpt>
      <trkpt lat="45.29302" lon="6.14408">
        <ele>2614.4</ele>
        <time>2021-02-17T10:37:22Z</time>
      </trkpt>
      <trkpt lat="45.29302" lon="6.14407">
        <ele>2614.4</ele>
        <time>2021-02-17T10:37:23Z</time>
      </trkpt>
      <trkpt lat="45.29303" lon="6.14406">
        <ele>2614.5</ele>
        <time>2021-02-17T10:37:24Z</time>
      </trkpt>
      <trkpt lat="45.29303" lon="6.14405">
        <ele>2614.5</ele>
        <time>2021-02-17T10:37:25Z</time>
      </trkpt>
      <trkpt lat="45.29303" lon="6.14404">
        <ele>2616.2</ele>
        <time>2021-02-17T10:37:26Z</time>
      </trkpt>
      <trkpt lat="45.29304" lon="6.14403">
        <ele>2616.2</ele>
        <time>2021-02-17T10:37:27Z</time>
      </trkpt>
      <trkpt lat="45.29304" lon="6.14402">
        <ele>2616.2</ele>
        <time>2021-02-17T10:37:28Z</time>
      </trkpt>
      <trkpt lat="45.29304" lon="6.14402">
        <ele>2616.3</ele>
        <time>2021-02-17T10:37:29Z</time>
      </trkpt>
      <trkpt lat="45.29304" lon="6.14401">
        <ele>2616.3</ele>
        <time>2021-02-17T10:37:30Z</time>
      </trkpt>
      <trkpt lat="45.29305" lon="6.144">
        <ele>2616.3</ele>
        <time>2021-02-17T10:37:31Z</time>
      </trkpt>
      <trkpt lat="45.29305" lon="6.14399">
        <ele>2616.3</ele>
        <time>2021-02-17T10:37:32Z</time>
      </trkpt>
      <trkpt lat="45.29305" lon="6.14398">
        <ele>2616.3</ele>
        <time>2021-02-17T10:37:33Z</time>
      </trkpt>
      <trkpt lat="45.29305" lon="6.14397">
        <ele>2616.5</ele>
        <time>2021-02-17T10:37:34Z</time>
      </trkpt>
      <trkpt lat="45.29305" lon="6.14396">
        <ele>2616.5</ele>
        <time>2021-02-17T10:37:35Z</time>
      </trkpt>
      <trkpt lat="45.29306" lon="6.14395">
        <ele>2616.5</ele>
        <time>2021-02-17T10:37:36Z</time>
      </trkpt>
      <trkpt lat="45.29306" lon="6.14395">
        <ele>2616.5</ele>
        <time>2021-02-17T10:37:37Z</time>
      </trkpt>
      <trkpt lat="45.29306" lon="6.14394">
        <ele>2616.5</ele>
        <time>2021-02-17T10:37:38Z</time>
      </trkpt>
      <trkpt lat="45.29306" lon="6.14393">
        <ele>2616.6</ele>
        <time>2021-02-17T10:37:39Z</time>
      </trkpt>
      <trkpt lat="45.29306" lon="6.14392">
        <ele>2616.6</ele>
        <time>2021-02-17T10:37:40Z</time>
      </trkpt>
      <trkpt lat="45.29306" lon="6.14392">
        <ele>2616.6</ele>
        <time>2021-02-17T10:37:41Z</time>
      </trkpt>
      <trkpt lat="45.29306" lon="6.14391">
        <ele>2616.6</ele>
        <time>2021-02-17T10:37:42Z</time>
      </trkpt>
      <trkpt lat="45.29306" lon="6.1439">
        <ele>2616.6</ele>
        <time>2021-02-17T10:37:43Z</time>
      </trkpt>
      <trkpt lat="45.29307" lon="6.1439">
        <ele>2618.4</ele>
        <time>2021-02-17T10:37:44Z</time>
      </trkpt>
      <trkpt lat="45.29307" lon="6.14389">
        <ele>2618.4</ele>
        <time>2021-02-17T10:37:45Z</time>
      </trkpt>
      <trkpt lat="45.29307" lon="6.14388">
        <ele>2618.6</ele>
        <time>2021-02-17T10:37:46Z</time>
      </trkpt>
      <trkpt lat="45.29308" lon="6.14388">
        <ele>2618.6</ele>
        <time>2021-02-17T10:37:47Z</time>
      </trkpt>
      <trkpt lat="45.29308" lon="6.14387">
        <ele>2618.6</ele>
        <time>2021-02-17T10:37:48Z</time>
      </trkpt>
      <trkpt lat="45.29308" lon="6.14386">
        <ele>2618.6</ele>
        <time>2021-02-17T10:37:49Z</time>
      </trkpt>
      <trkpt lat="45.29308" lon="6.14385">
        <ele>2618.6</ele>
        <time>2021-02-17T10:37:50Z</time>
      </trkpt>
      <trkpt lat="45.29309" lon="6.14385">
        <ele>2618.8</ele>
        <time>2021-02-17T10:37:51Z</time>
      </trkpt>
      <trkpt lat="45.29309" lon="6.14384">
        <ele>2618.8</ele>
        <time>2021-02-17T10:37:52Z</time>
      </trkpt>
      <trkpt lat="45.2931" lon="6.14383">
        <ele>2620.4</ele>
        <time>2021-02-17T10:37:53Z</time>
      </trkpt>
      <trkpt lat="45.2931" lon="6.14382">
        <ele>2620.4</ele>
        <time>2021-02-17T10:37:54Z</time>
      </trkpt>
      <trkpt lat="45.2931" lon="6.14381">
        <ele>2620.4</ele>
        <time>2021-02-17T10:37:55Z</time>
      </trkpt>
      <trkpt lat="45.2931" lon="6.1438">
        <ele>2620.7</ele>
        <time>2021-02-17T10:37:56Z</time>
      </trkpt>
      <trkpt lat="45.29311" lon="6.14379">
        <ele>2620.7</ele>
        <time>2021-02-17T10:37:57Z</time>
      </trkpt>
      <trkpt lat="45.29311" lon="6.14378">
        <ele>2620.7</ele>
        <time>2021-02-17T10:37:58Z</time>
      </trkpt>
      <trkpt lat="45.29311" lon="6.14377">
        <ele>2620.7</ele>
        <time>2021-02-17T10:37:59Z</time>
      </trkpt>
      <trkpt lat="45.29312" lon="6.14376">
        <ele>2621</ele>
        <time>2021-02-17T10:38:00Z</time>
      </trkpt>
      <trkpt lat="45.29312" lon="6.14375">
        <ele>2621</ele>
        <time>2021-02-17T10:38:01Z</time>
      </trkpt>
      <trkpt lat="45.29312" lon="6.14374">
        <ele>2621</ele>
        <time>2021-02-17T10:38:02Z</time>
      </trkpt>
      <trkpt lat="45.29312" lon="6.14373">
        <ele>2621</ele>
        <time>2021-02-17T10:38:03Z</time>
      </trkpt>
      <trkpt lat="45.29312" lon="6.14372">
        <ele>2621</ele>
        <time>2021-02-17T10:38:04Z</time>
      </trkpt>
      <trkpt lat="45.29313" lon="6.14371">
        <ele>2622.9</ele>
        <time>2021-02-17T10:38:05Z</time>
      </trkpt>
      <trkpt lat="45.29313" lon="6.1437">
        <ele>2622.9</ele>
        <time>2021-02-17T10:38:06Z</time>
      </trkpt>
      <trkpt lat="45.29313" lon="6.14369">
        <ele>2622.9</ele>
        <time>2021-02-17T10:38:07Z</time>
      </trkpt>
      <trkpt lat="45.29313" lon="6.14368">
        <ele>2622.9</ele>
        <time>2021-02-17T10:38:08Z</time>
      </trkpt>
      <trkpt lat="45.29314" lon="6.14367">
        <ele>2623.3</ele>
        <time>2021-02-17T10:38:09Z</time>
      </trkpt>
      <trkpt lat="45.29314" lon="6.14367">
        <ele>2623.3</ele>
        <time>2021-02-17T10:38:10Z</time>
      </trkpt>
      <trkpt lat="45.29314" lon="6.14367">
        <ele>2623.3</ele>
        <time>2021-02-17T10:38:11Z</time>
      </trkpt>
      <trkpt lat="45.29314" lon="6.14366">
        <ele>2623.3</ele>
        <time>2021-02-17T10:38:12Z</time>
      </trkpt>
      <trkpt lat="45.29315" lon="6.14366">
        <ele>2623.3</ele>
        <time>2021-02-17T10:38:13Z</time>
      </trkpt>
      <trkpt lat="45.29315" lon="6.14366">
        <ele>2623.3</ele>
        <time>2021-02-17T10:38:14Z</time>
      </trkpt>
      <trkpt lat="45.29315" lon="6.14366">
        <ele>2623.3</ele>
        <time>2021-02-17T10:38:15Z</time>
      </trkpt>
      <trkpt lat="45.29316" lon="6.14367">
        <ele>2624.8</ele>
        <time>2021-02-17T10:38:16Z</time>
      </trkpt>
      <trkpt lat="45.29316" lon="6.14368">
        <ele>2624.4</ele>
        <time>2021-02-17T10:38:17Z</time>
      </trkpt>
      <trkpt lat="45.29317" lon="6.14369">
        <ele>2624.4</ele>
        <time>2021-02-17T10:38:18Z</time>
      </trkpt>
      <trkpt lat="45.29317" lon="6.1437">
        <ele>2624.4</ele>
        <time>2021-02-17T10:38:19Z</time>
      </trkpt>
      <trkpt lat="45.29318" lon="6.1437">
        <ele>2624.4</ele>
        <time>2021-02-17T10:38:20Z</time>
      </trkpt>
      <trkpt lat="45.29318" lon="6.14371">
        <ele>2624.4</ele>
        <time>2021-02-17T10:38:21Z</time>
      </trkpt>
      <trkpt lat="45.29319" lon="6.14372">
        <ele>2625.4</ele>
        <time>2021-02-17T10:38:22Z</time>
      </trkpt>
      <trkpt lat="45.29319" lon="6.14373">
        <ele>2625.4</ele>
        <time>2021-02-17T10:38:23Z</time>
      </trkpt>
      <trkpt lat="45.2932" lon="6.14374">
        <ele>2625.4</ele>
        <time>2021-02-17T10:38:24Z</time>
      </trkpt>
      <trkpt lat="45.2932" lon="6.14374">
        <ele>2625.4</ele>
        <time>2021-02-17T10:38:25Z</time>
      </trkpt>
      <trkpt lat="45.29321" lon="6.14375">
        <ele>2625.4</ele>
        <time>2021-02-17T10:38:26Z</time>
      </trkpt>
      <trkpt lat="45.29321" lon="6.14376">
        <ele>2625.4</ele>
        <time>2021-02-17T10:38:27Z</time>
      </trkpt>
      <trkpt lat="45.29322" lon="6.14376">
        <ele>2626.5</ele>
        <time>2021-02-17T10:38:28Z</time>
      </trkpt>
      <trkpt lat="45.29323" lon="6.14377">
        <ele>2626.5</ele>
        <time>2021-02-17T10:38:29Z</time>
      </trkpt>
      <trkpt lat="45.29323" lon="6.14377">
        <ele>2626.5</ele>
        <time>2021-02-17T10:38:30Z</time>
      </trkpt>
      <trkpt lat="45.29324" lon="6.14378">
        <ele>2626.5</ele>
        <time>2021-02-17T10:38:31Z</time>
      </trkpt>
      <trkpt lat="45.29324" lon="6.14378">
        <ele>2626.5</ele>
        <time>2021-02-17T10:38:32Z</time>
      </trkpt>
      <trkpt lat="45.29325" lon="6.14379">
        <ele>2627.8</ele>
        <time>2021-02-17T10:38:33Z</time>
      </trkpt>
      <trkpt lat="45.29325" lon="6.1438">
        <ele>2627.8</ele>
        <time>2021-02-17T10:38:34Z</time>
      </trkpt>
      <trkpt lat="45.29325" lon="6.14381">
        <ele>2627.6</ele>
        <time>2021-02-17T10:38:35Z</time>
      </trkpt>
      <trkpt lat="45.29326" lon="6.14381">
        <ele>2627.6</ele>
        <time>2021-02-17T10:38:36Z</time>
      </trkpt>
      <trkpt lat="45.29326" lon="6.14382">
        <ele>2627.6</ele>
        <time>2021-02-17T10:38:37Z</time>
      </trkpt>
      <trkpt lat="45.29327" lon="6.14383">
        <ele>2627.6</ele>
        <time>2021-02-17T10:38:38Z</time>
      </trkpt>
      <trkpt lat="45.29327" lon="6.14383">
        <ele>2627.6</ele>
        <time>2021-02-17T10:38:39Z</time>
      </trkpt>
      <trkpt lat="45.29327" lon="6.14384">
        <ele>2627.6</ele>
        <time>2021-02-17T10:38:40Z</time>
      </trkpt>
      <trkpt lat="45.29327" lon="6.14385">
        <ele>2627.6</ele>
        <time>2021-02-17T10:38:41Z</time>
      </trkpt>
      <trkpt lat="45.29327" lon="6.14385">
        <ele>2627.4</ele>
        <time>2021-02-17T10:38:42Z</time>
      </trkpt>
      <trkpt lat="45.29328" lon="6.14386">
        <ele>2628.8</ele>
        <time>2021-02-17T10:38:43Z</time>
      </trkpt>
      <trkpt lat="45.29328" lon="6.14387">
        <ele>2628.8</ele>
        <time>2021-02-17T10:38:44Z</time>
      </trkpt>
      <trkpt lat="45.29329" lon="6.14387">
        <ele>2628.8</ele>
        <time>2021-02-17T10:38:45Z</time>
      </trkpt>
      <trkpt lat="45.29329" lon="6.14388">
        <ele>2628.8</ele>
        <time>2021-02-17T10:38:46Z</time>
      </trkpt>
      <trkpt lat="45.29329" lon="6.14389">
        <ele>2628.8</ele>
        <time>2021-02-17T10:38:47Z</time>
      </trkpt>
      <trkpt lat="45.2933" lon="6.1439">
        <ele>2628.7</ele>
        <time>2021-02-17T10:38:48Z</time>
      </trkpt>
      <trkpt lat="45.2933" lon="6.14391">
        <ele>2628.7</ele>
        <time>2021-02-17T10:38:49Z</time>
      </trkpt>
      <trkpt lat="45.29331" lon="6.14391">
        <ele>2628.7</ele>
        <time>2021-02-17T10:38:50Z</time>
      </trkpt>
      <trkpt lat="45.29331" lon="6.14392">
        <ele>2630.1</ele>
        <time>2021-02-17T10:38:51Z</time>
      </trkpt>
      <trkpt lat="45.29331" lon="6.14394">
        <ele>2630.1</ele>
        <time>2021-02-17T10:38:52Z</time>
      </trkpt>
      <trkpt lat="45.29332" lon="6.14394">
        <ele>2630.1</ele>
        <time>2021-02-17T10:38:53Z</time>
      </trkpt>
      <trkpt lat="45.29332" lon="6.14395">
        <ele>2630.1</ele>
        <time>2021-02-17T10:38:54Z</time>
      </trkpt>
      <trkpt lat="45.29332" lon="6.14396">
        <ele>2630.1</ele>
        <time>2021-02-17T10:38:55Z</time>
      </trkpt>
      <trkpt lat="45.29333" lon="6.14396">
        <ele>2630.1</ele>
        <time>2021-02-17T10:38:56Z</time>
      </trkpt>
      <trkpt lat="45.29333" lon="6.14397">
        <ele>2630.1</ele>
        <time>2021-02-17T10:38:57Z</time>
      </trkpt>
      <trkpt lat="45.29333" lon="6.14398">
        <ele>2630.2</ele>
        <time>2021-02-17T10:38:58Z</time>
      </trkpt>
      <trkpt lat="45.29334" lon="6.14398">
        <ele>2630.2</ele>
        <time>2021-02-17T10:38:59Z</time>
      </trkpt>
      <trkpt lat="45.29334" lon="6.14399">
        <ele>2631.8</ele>
        <time>2021-02-17T10:39:00Z</time>
      </trkpt>
      <trkpt lat="45.29334" lon="6.144">
        <ele>2631.8</ele>
        <time>2021-02-17T10:39:01Z</time>
      </trkpt>
      <trkpt lat="45.29334" lon="6.14401">
        <ele>2631.8</ele>
        <time>2021-02-17T10:39:02Z</time>
      </trkpt>
      <trkpt lat="45.29334" lon="6.14402">
        <ele>2631.8</ele>
        <time>2021-02-17T10:39:03Z</time>
      </trkpt>
      <trkpt lat="45.29335" lon="6.14402">
        <ele>2632</ele>
        <time>2021-02-17T10:39:04Z</time>
      </trkpt>
      <trkpt lat="45.29335" lon="6.14403">
        <ele>2632</ele>
        <time>2021-02-17T10:39:05Z</time>
      </trkpt>
      <trkpt lat="45.29335" lon="6.14403">
        <ele>2632</ele>
        <time>2021-02-17T10:39:06Z</time>
      </trkpt>
      <trkpt lat="45.29335" lon="6.14404">
        <ele>2632</ele>
        <time>2021-02-17T10:39:07Z</time>
      </trkpt>
      <trkpt lat="45.29335" lon="6.14405">
        <ele>2632</ele>
        <time>2021-02-17T10:39:08Z</time>
      </trkpt>
      <trkpt lat="45.29335" lon="6.14406">
        <ele>2632.2</ele>
        <time>2021-02-17T10:39:09Z</time>
      </trkpt>
      <trkpt lat="45.29336" lon="6.14408">
        <ele>2632.2</ele>
        <time>2021-02-17T10:39:10Z</time>
      </trkpt>
      <trkpt lat="45.29336" lon="6.14409">
        <ele>2632.2</ele>
        <time>2021-02-17T10:39:11Z</time>
      </trkpt>
      <trkpt lat="45.29336" lon="6.1441">
        <ele>2632.2</ele>
        <time>2021-02-17T10:39:12Z</time>
      </trkpt>
      <trkpt lat="45.29364" lon="6.14423">
        <ele>2649.3</ele>
        <time>2021-02-17T10:40:29Z</time>
      </trkpt>
      <trkpt lat="45.29365" lon="6.14422">
        <ele>2649.3</ele>
        <time>2021-02-17T10:40:30Z</time>
      </trkpt>
      <trkpt lat="45.29365" lon="6.14422">
        <ele>2649.3</ele>
        <time>2021-02-17T10:40:31Z</time>
      </trkpt>
      <trkpt lat="45.29365" lon="6.1442">
        <ele>2649.3</ele>
        <time>2021-02-17T10:40:32Z</time>
      </trkpt>
      <trkpt lat="45.29366" lon="6.1442">
        <ele>2649.3</ele>
        <time>2021-02-17T10:40:33Z</time>
      </trkpt>
      <trkpt lat="45.29366" lon="6.14419">
        <ele>2648.7</ele>
        <time>2021-02-17T10:40:34Z</time>
      </trkpt>
      <trkpt lat="45.29367" lon="6.14418">
        <ele>2650.3</ele>
        <time>2021-02-17T10:40:35Z</time>
      </trkpt>
      <trkpt lat="45.29368" lon="6.14417">
        <ele>2650.3</ele>
        <time>2021-02-17T10:40:36Z</time>
      </trkpt>
      <trkpt lat="45.29368" lon="6.14416">
        <ele>2650.3</ele>
        <time>2021-02-17T10:40:37Z</time>
      </trkpt>
      <trkpt lat="45.29368" lon="6.14414">
        <ele>2649.6</ele>
        <time>2021-02-17T10:40:38Z</time>
      </trkpt>
      <trkpt lat="45.29369" lon="6.14413">
        <ele>2649.6</ele>
        <time>2021-02-17T10:40:39Z</time>
      </trkpt>
      <trkpt lat="45.29369" lon="6.14412">
        <ele>2649.6</ele>
        <time>2021-02-17T10:40:40Z</time>
      </trkpt>
      <trkpt lat="45.29369" lon="6.1441">
        <ele>2649</ele>
        <time>2021-02-17T10:40:41Z</time>
      </trkpt>
      <trkpt lat="45.2937" lon="6.14409">
        <ele>2649</ele>
        <time>2021-02-17T10:40:42Z</time>
      </trkpt>
      <trkpt lat="45.2937" lon="6.14408">
        <ele>2650.5</ele>
        <time>2021-02-17T10:40:43Z</time>
      </trkpt>
      <trkpt lat="45.2937" lon="6.14407">
        <ele>2650.5</ele>
        <time>2021-02-17T10:40:44Z</time>
      </trkpt>
      <trkpt lat="45.29371" lon="6.14406">
        <ele>2649.9</ele>
        <time>2021-02-17T10:40:45Z</time>
      </trkpt>
      <trkpt lat="45.29371" lon="6.14405">
        <ele>2649.9</ele>
        <time>2021-02-17T10:40:46Z</time>
      </trkpt>
      <trkpt lat="45.29371" lon="6.14404">
        <ele>2649.9</ele>
        <time>2021-02-17T10:40:47Z</time>
      </trkpt>
      <trkpt lat="45.29371" lon="6.14403">
        <ele>2649.9</ele>
        <time>2021-02-17T10:40:48Z</time>
      </trkpt>
      <trkpt lat="45.29372" lon="6.14402">
        <ele>2649.9</ele>
        <time>2021-02-17T10:40:49Z</time>
      </trkpt>
      <trkpt lat="45.29372" lon="6.14401">
        <ele>2649.3</ele>
        <time>2021-02-17T10:40:50Z</time>
      </trkpt>
      <trkpt lat="45.29372" lon="6.144">
        <ele>2649.3</ele>
        <time>2021-02-17T10:40:51Z</time>
      </trkpt>
      <trkpt lat="45.29373" lon="6.144">
        <ele>2649.3</ele>
        <time>2021-02-17T10:40:52Z</time>
      </trkpt>
      <trkpt lat="45.29373" lon="6.14399">
        <ele>2650.7</ele>
        <time>2021-02-17T10:40:53Z</time>
      </trkpt>
      <trkpt lat="45.29373" lon="6.14398">
        <ele>2650.7</ele>
        <time>2021-02-17T10:40:54Z</time>
      </trkpt>
      <trkpt lat="45.29374" lon="6.14397">
        <ele>2650.2</ele>
        <time>2021-02-17T10:40:55Z</time>
      </trkpt>
      <trkpt lat="45.29374" lon="6.14397">
        <ele>2650.2</ele>
        <time>2021-02-17T10:40:56Z</time>
      </trkpt>
      <trkpt lat="45.29375" lon="6.14396">
        <ele>2650.2</ele>
        <time>2021-02-17T10:40:57Z</time>
      </trkpt>
      <trkpt lat="45.29375" lon="6.14396">
        <ele>2650.2</ele>
        <time>2021-02-17T10:40:58Z</time>
      </trkpt>
      <trkpt lat="45.29376" lon="6.14395">
        <ele>2651.6</ele>
        <time>2021-02-17T10:40:59Z</time>
      </trkpt>
      <trkpt lat="45.29377" lon="6.14394">
        <ele>2651.6</ele>
        <time>2021-02-17T10:41:00Z</time>
      </trkpt>
      <trkpt lat="45.29378" lon="6.14393">
        <ele>2651.6</ele>
        <time>2021-02-17T10:41:01Z</time>
      </trkpt>
      <trkpt lat="45.29378" lon="6.14392">
        <ele>2651.1</ele>
        <time>2021-02-17T10:41:02Z</time>
      </trkpt>
      <trkpt lat="45.29379" lon="6.14391">
        <ele>2651.1</ele>
        <time>2021-02-17T10:41:03Z</time>
      </trkpt>
      <trkpt lat="45.29379" lon="6.14391">
        <ele>2652.7</ele>
        <time>2021-02-17T10:41:04Z</time>
      </trkpt>
      <trkpt lat="45.2938" lon="6.1439">
        <ele>2652.7</ele>
        <time>2021-02-17T10:41:05Z</time>
      </trkpt>
      <trkpt lat="45.29381" lon="6.1439">
        <ele>2652.7</ele>
        <time>2021-02-17T10:41:06Z</time>
      </trkpt>
      <trkpt lat="45.29381" lon="6.1439">
        <ele>2652.7</ele>
        <time>2021-02-17T10:41:07Z</time>
      </trkpt>
      <trkpt lat="45.29382" lon="6.1439">
        <ele>2652.7</ele>
        <time>2021-02-17T10:41:08Z</time>
      </trkpt>
      <trkpt lat="45.29382" lon="6.14389">
        <ele>2654.4</ele>
        <time>2021-02-17T10:41:09Z</time>
      </trkpt>
      <trkpt lat="45.29383" lon="6.14389">
        <ele>2653.9</ele>
        <time>2021-02-17T10:41:10Z</time>
      </trkpt>
      <trkpt lat="45.29383" lon="6.14388">
        <ele>2653.9</ele>
        <time>2021-02-17T10:41:11Z</time>
      </trkpt>
      <trkpt lat="45.29384" lon="6.14387">
        <ele>2653.9</ele>
        <time>2021-02-17T10:41:12Z</time>
      </trkpt>
      <trkpt lat="45.29385" lon="6.14387">
        <ele>2653.9</ele>
        <time>2021-02-17T10:41:13Z</time>
      </trkpt>
      <trkpt lat="45.29385" lon="6.14386">
        <ele>2655.6</ele>
        <time>2021-02-17T10:41:14Z</time>
      </trkpt>
      <trkpt lat="45.29386" lon="6.14385">
        <ele>2655.6</ele>
        <time>2021-02-17T10:41:15Z</time>
      </trkpt>
      <trkpt lat="45.29386" lon="6.14384">
        <ele>2655.3</ele>
        <time>2021-02-17T10:41:16Z</time>
      </trkpt>
      <trkpt lat="45.29387" lon="6.14383">
        <ele>2655.3</ele>
        <time>2021-02-17T10:41:17Z</time>
      </trkpt>
      <trkpt lat="45.29387" lon="6.14382">
        <ele>2655.3</ele>
        <time>2021-02-17T10:41:18Z</time>
      </trkpt>
      <trkpt lat="45.29387" lon="6.14381">
        <ele>2655.3</ele>
        <time>2021-02-17T10:41:19Z</time>
      </trkpt>
      <trkpt lat="45.29388" lon="6.14381">
        <ele>2657</ele>
        <time>2021-02-17T10:41:20Z</time>
      </trkpt>
      <trkpt lat="45.29389" lon="6.14381">
        <ele>2657</ele>
        <time>2021-02-17T10:41:21Z</time>
      </trkpt>
      <trkpt lat="45.29389" lon="6.1438">
        <ele>2656.7</ele>
        <time>2021-02-17T10:41:22Z</time>
      </trkpt>
      <trkpt lat="45.2939" lon="6.14379">
        <ele>2656.7</ele>
        <time>2021-02-17T10:41:23Z</time>
      </trkpt>
      <trkpt lat="45.2939" lon="6.14379">
        <ele>2656.7</ele>
        <time>2021-02-17T10:41:24Z</time>
      </trkpt>
      <trkpt lat="45.2939" lon="6.14378">
        <ele>2656.7</ele>
        <time>2021-02-17T10:41:25Z</time>
      </trkpt>
      <trkpt lat="45.29391" lon="6.14376">
        <ele>2656.7</ele>
        <time>2021-02-17T10:41:26Z</time>
      </trkpt>
      <trkpt lat="45.29391" lon="6.14375">
        <ele>2656.5</ele>
        <time>2021-02-17T10:41:27Z</time>
      </trkpt>
      <trkpt lat="45.29391" lon="6.14374">
        <ele>2658.2</ele>
        <time>2021-02-17T10:41:28Z</time>
      </trkpt>
      <trkpt lat="45.29392" lon="6.14372">
        <ele>2658.2</ele>
        <time>2021-02-17T10:41:29Z</time>
      </trkpt>
      <trkpt lat="45.29392" lon="6.14371">
        <ele>2658.1</ele>
        <time>2021-02-17T10:41:30Z</time>
      </trkpt>
      <trkpt lat="45.29392" lon="6.14371">
        <ele>2658.1</ele>
        <time>2021-02-17T10:41:31Z</time>
      </trkpt>
      <trkpt lat="45.29393" lon="6.1437">
        <ele>2658.1</ele>
        <time>2021-02-17T10:41:32Z</time>
      </trkpt>
      <trkpt lat="45.29393" lon="6.1437">
        <ele>2658.1</ele>
        <time>2021-02-17T10:41:33Z</time>
      </trkpt>
      <trkpt lat="45.29394" lon="6.14369">
        <ele>2658.1</ele>
        <time>2021-02-17T10:41:34Z</time>
      </trkpt>
      <trkpt lat="45.29394" lon="6.14369">
        <ele>2659.8</ele>
        <time>2021-02-17T10:41:35Z</time>
      </trkpt>
      <trkpt lat="45.29394" lon="6.14368">
        <ele>2659.8</ele>
        <time>2021-02-17T10:41:36Z</time>
      </trkpt>
      <trkpt lat="45.29395" lon="6.14368">
        <ele>2659.8</ele>
        <time>2021-02-17T10:41:37Z</time>
      </trkpt>
      <trkpt lat="45.29395" lon="6.14367">
        <ele>2659.8</ele>
        <time>2021-02-17T10:41:38Z</time>
      </trkpt>
      <trkpt lat="45.29395" lon="6.14366">
        <ele>2659.8</ele>
        <time>2021-02-17T10:41:39Z</time>
      </trkpt>
      <trkpt lat="45.29396" lon="6.14365">
        <ele>2659.8</ele>
        <time>2021-02-17T10:41:40Z</time>
      </trkpt>
      <trkpt lat="45.29396" lon="6.14365">
        <ele>2659.8</ele>
        <time>2021-02-17T10:41:41Z</time>
      </trkpt>
      <trkpt lat="45.29396" lon="6.14364">
        <ele>2659.8</ele>
        <time>2021-02-17T10:41:42Z</time>
      </trkpt>
      <trkpt lat="45.29396" lon="6.14362">
        <ele>2659.9</ele>
        <time>2021-02-17T10:41:43Z</time>
      </trkpt>
      <trkpt lat="45.29396" lon="6.14361">
        <ele>2659.9</ele>
        <time>2021-02-17T10:41:44Z</time>
      </trkpt>
      <trkpt lat="45.29396" lon="6.1436">
        <ele>2659.9</ele>
        <time>2021-02-17T10:41:45Z</time>
      </trkpt>
      <trkpt lat="45.29397" lon="6.14359">
        <ele>2659.9</ele>
        <time>2021-02-17T10:41:46Z</time>
      </trkpt>
      <trkpt lat="45.29397" lon="6.14359">
        <ele>2660.1</ele>
        <time>2021-02-17T10:41:47Z</time>
      </trkpt>
      <trkpt lat="45.29397" lon="6.14358">
        <ele>2661.7</ele>
        <time>2021-02-17T10:41:48Z</time>
      </trkpt>
      <trkpt lat="45.29397" lon="6.14357">
        <ele>2661.7</ele>
        <time>2021-02-17T10:41:49Z</time>
      </trkpt>
      <trkpt lat="45.29397" lon="6.14356">
        <ele>2661.7</ele>
        <time>2021-02-17T10:41:50Z</time>
      </trkpt>
      <trkpt lat="45.29397" lon="6.14356">
        <ele>2661.7</ele>
        <time>2021-02-17T10:41:51Z</time>
      </trkpt>
      <trkpt lat="45.29397" lon="6.14355">
        <ele>2661.7</ele>
        <time>2021-02-17T10:41:52Z</time>
      </trkpt>
      <trkpt lat="45.29398" lon="6.14354">
        <ele>2662.1</ele>
        <time>2021-02-17T10:41:53Z</time>
      </trkpt>
      <trkpt lat="45.29398" lon="6.14353">
        <ele>2662.1</ele>
        <time>2021-02-17T10:41:54Z</time>
      </trkpt>
      <trkpt lat="45.29398" lon="6.14352">
        <ele>2662.1</ele>
        <time>2021-02-17T10:41:55Z</time>
      </trkpt>
      <trkpt lat="45.29398" lon="6.14351">
        <ele>2662.1</ele>
        <time>2021-02-17T10:41:56Z</time>
      </trkpt>
      <trkpt lat="45.29399" lon="6.14351">
        <ele>2662.1</ele>
        <time>2021-02-17T10:41:57Z</time>
      </trkpt>
      <trkpt lat="45.29399" lon="6.1435">
        <ele>2662.5</ele>
        <time>2021-02-17T10:41:58Z</time>
      </trkpt>
      <trkpt lat="45.29399" lon="6.14349">
        <ele>2662.5</ele>
        <time>2021-02-17T10:41:59Z</time>
      </trkpt>
      <trkpt lat="45.29399" lon="6.14349">
        <ele>2662.5</ele>
        <time>2021-02-17T10:42:00Z</time>
      </trkpt>
      <trkpt lat="45.29399" lon="6.14348">
        <ele>2662.5</ele>
        <time>2021-02-17T10:42:01Z</time>
      </trkpt>
      <trkpt lat="45.29399" lon="6.14347">
        <ele>2662.5</ele>
        <time>2021-02-17T10:42:02Z</time>
      </trkpt>
      <trkpt lat="45.29399" lon="6.14347">
        <ele>2662.5</ele>
        <time>2021-02-17T10:42:03Z</time>
      </trkpt>
      <trkpt lat="45.29399" lon="6.14345">
        <ele>2663</ele>
        <time>2021-02-17T10:42:04Z</time>
      </trkpt>
      <trkpt lat="45.29399" lon="6.14344">
        <ele>2663</ele>
        <time>2021-02-17T10:42:05Z</time>
      </trkpt>
      <trkpt lat="45.29399" lon="6.14344">
        <ele>2663</ele>
        <time>2021-02-17T10:42:06Z</time>
      </trkpt>
      <trkpt lat="45.29399" lon="6.14343">
        <ele>2663</ele>
        <time>2021-02-17T10:42:07Z</time>
      </trkpt>
      <trkpt lat="45.294" lon="6.14343">
        <ele>2663</ele>
        <time>2021-02-17T10:42:08Z</time>
      </trkpt>
      <trkpt lat="45.294" lon="6.14342">
        <ele>2663</ele>
        <time>2021-02-17T10:42:09Z</time>
      </trkpt>
      <trkpt lat="45.294" lon="6.14341">
        <ele>2663.6</ele>
        <time>2021-02-17T10:42:10Z</time>
      </trkpt>
      <trkpt lat="45.294" lon="6.14341">
        <ele>2663.6</ele>
        <time>2021-02-17T10:42:11Z</time>
      </trkpt>
      <trkpt lat="45.294" lon="6.1434">
        <ele>2665.2</ele>
        <time>2021-02-17T10:42:12Z</time>
      </trkpt>
      <trkpt lat="45.294" lon="6.1434">
        <ele>2665.2</ele>
        <time>2021-02-17T10:42:13Z</time>
      </trkpt>
      <trkpt lat="45.29401" lon="6.14339">
        <ele>2665.2</ele>
        <time>2021-02-17T10:42:14Z</time>
      </trkpt>
      <trkpt lat="45.29401" lon="6.14338">
        <ele>2665.2</ele>
        <time>2021-02-17T10:42:15Z</time>
      </trkpt>
      <trkpt lat="45.29401" lon="6.14337">
        <ele>2665.9</ele>
        <time>2021-02-17T10:42:16Z</time>
      </trkpt>
      <trkpt lat="45.29401" lon="6.14337">
        <ele>2665.9</ele>
        <time>2021-02-17T10:42:17Z</time>
      </trkpt>
      <trkpt lat="45.29402" lon="6.14336">
        <ele>2665.9</ele>
        <time>2021-02-17T10:42:18Z</time>
      </trkpt>
      <trkpt lat="45.29405" lon="6.14339">
        <ele>2666.7</ele>
        <time>2021-02-17T10:42:26Z</time>
      </trkpt>
      <trkpt lat="45.29406" lon="6.1434">
        <ele>2666.7</ele>
        <time>2021-02-17T10:42:27Z</time>
      </trkpt>
      <trkpt lat="45.29407" lon="6.14341">
        <ele>2668.2</ele>
        <time>2021-02-17T10:42:28Z</time>
      </trkpt>
      <trkpt lat="45.29408" lon="6.14341">
        <ele>2668.2</ele>
        <time>2021-02-17T10:42:29Z</time>
      </trkpt>
      <trkpt lat="45.29408" lon="6.14341">
        <ele>2668.2</ele>
        <time>2021-02-17T10:42:30Z</time>
      </trkpt>
      <trkpt lat="45.29409" lon="6.14342">
        <ele>2668.2</ele>
        <time>2021-02-17T10:42:31Z</time>
      </trkpt>
      <trkpt lat="45.29409" lon="6.14342">
        <ele>2667.7</ele>
        <time>2021-02-17T10:42:32Z</time>
      </trkpt>
      <trkpt lat="45.29409" lon="6.14343">
        <ele>2669.2</ele>
        <time>2021-02-17T10:42:33Z</time>
      </trkpt>
      <trkpt lat="45.2941" lon="6.14343">
        <ele>2669.2</ele>
        <time>2021-02-17T10:42:34Z</time>
      </trkpt>
      <trkpt lat="45.2941" lon="6.14344">
        <ele>2669.2</ele>
        <time>2021-02-17T10:42:35Z</time>
      </trkpt>
      <trkpt lat="45.29411" lon="6.14344">
        <ele>2669.2</ele>
        <time>2021-02-17T10:42:36Z</time>
      </trkpt>
      <trkpt lat="45.29412" lon="6.14344">
        <ele>2669.2</ele>
        <time>2021-02-17T10:42:37Z</time>
      </trkpt>
      <trkpt lat="45.29413" lon="6.14345">
        <ele>2670.8</ele>
        <time>2021-02-17T10:42:38Z</time>
      </trkpt>
      <trkpt lat="45.29413" lon="6.14346">
        <ele>2670.8</ele>
        <time>2021-02-17T10:42:39Z</time>
      </trkpt>
      <trkpt lat="45.29414" lon="6.14346">
        <ele>2670.8</ele>
        <time>2021-02-17T10:42:40Z</time>
      </trkpt>
      <trkpt lat="45.29414" lon="6.14347">
        <ele>2670.4</ele>
        <time>2021-02-17T10:42:41Z</time>
      </trkpt>
      <trkpt lat="45.29415" lon="6.14347">
        <ele>2670.4</ele>
        <time>2021-02-17T10:42:42Z</time>
      </trkpt>
      <trkpt lat="45.29416" lon="6.14348">
        <ele>2672.1</ele>
        <time>2021-02-17T10:42:43Z</time>
      </trkpt>
      <trkpt lat="45.29416" lon="6.14348">
        <ele>2672.1</ele>
        <time>2021-02-17T10:42:44Z</time>
      </trkpt>
      <trkpt lat="45.29416" lon="6.14349">
        <ele>2672.1</ele>
        <time>2021-02-17T10:42:45Z</time>
      </trkpt>
      <trkpt lat="45.29417" lon="6.1435">
        <ele>2672.1</ele>
        <time>2021-02-17T10:42:46Z</time>
      </trkpt>
      <trkpt lat="45.29418" lon="6.14351">
        <ele>2671.8</ele>
        <time>2021-02-17T10:42:47Z</time>
      </trkpt>
      <trkpt lat="45.29418" lon="6.14351">
        <ele>2673.5</ele>
        <time>2021-02-17T10:42:48Z</time>
      </trkpt>
      <trkpt lat="45.29419" lon="6.14352">
        <ele>2673.5</ele>
        <time>2021-02-17T10:42:49Z</time>
      </trkpt>
      <trkpt lat="45.29419" lon="6.14353">
        <ele>2673.5</ele>
        <time>2021-02-17T10:42:50Z</time>
      </trkpt>
      <trkpt lat="45.2942" lon="6.14353">
        <ele>2673.5</ele>
        <time>2021-02-17T10:42:51Z</time>
      </trkpt>
      <trkpt lat="45.2942" lon="6.14354">
        <ele>2673.5</ele>
        <time>2021-02-17T10:42:52Z</time>
      </trkpt>
      <trkpt lat="45.2942" lon="6.14354">
        <ele>2673.5</ele>
        <time>2021-02-17T10:42:53Z</time>
      </trkpt>
      <trkpt lat="45.2942" lon="6.14355">
        <ele>2673.3</ele>
        <time>2021-02-17T10:42:54Z</time>
      </trkpt>
      <trkpt lat="45.29421" lon="6.14356">
        <ele>2673.3</ele>
        <time>2021-02-17T10:42:55Z</time>
      </trkpt>
      <trkpt lat="45.29421" lon="6.14357">
        <ele>2675</ele>
        <time>2021-02-17T10:42:56Z</time>
      </trkpt>
      <trkpt lat="45.29422" lon="6.14357">
        <ele>2675</ele>
        <time>2021-02-17T10:42:57Z</time>
      </trkpt>
      <trkpt lat="45.29422" lon="6.14358">
        <ele>2675</ele>
        <time>2021-02-17T10:42:58Z</time>
      </trkpt>
      <trkpt lat="45.29422" lon="6.14359">
        <ele>2675</ele>
        <time>2021-02-17T10:42:59Z</time>
      </trkpt>
      <trkpt lat="45.29423" lon="6.14359">
        <ele>2674.9</ele>
        <time>2021-02-17T10:43:00Z</time>
      </trkpt>
      <trkpt lat="45.29428" lon="6.14374">
        <ele>2678.3</ele>
        <time>2021-02-17T10:43:21Z</time>
      </trkpt>
      <trkpt lat="45.29428" lon="6.14375">
        <ele>2678.3</ele>
        <time>2021-02-17T10:43:22Z</time>
      </trkpt>
      <trkpt lat="45.29428" lon="6.14376">
        <ele>2678.3</ele>
        <time>2021-02-17T10:43:23Z</time>
      </trkpt>
      <trkpt lat="45.29428" lon="6.14377">
        <ele>2678.5</ele>
        <time>2021-02-17T10:43:24Z</time>
      </trkpt>
      <trkpt lat="45.29428" lon="6.14378">
        <ele>2678.5</ele>
        <time>2021-02-17T10:43:25Z</time>
      </trkpt>
      <trkpt lat="45.29429" lon="6.14378">
        <ele>2678.5</ele>
        <time>2021-02-17T10:43:26Z</time>
      </trkpt>
      <trkpt lat="45.29429" lon="6.14379">
        <ele>2678.5</ele>
        <time>2021-02-17T10:43:27Z</time>
      </trkpt>
      <trkpt lat="45.29429" lon="6.14379">
        <ele>2678.5</ele>
        <time>2021-02-17T10:43:28Z</time>
      </trkpt>
      <trkpt lat="45.29429" lon="6.1438">
        <ele>2678.5</ele>
        <time>2021-02-17T10:43:29Z</time>
      </trkpt>
      <trkpt lat="45.2943" lon="6.1438">
        <ele>2678.5</ele>
        <time>2021-02-17T10:43:30Z</time>
      </trkpt>
      <trkpt lat="45.2943" lon="6.14381">
        <ele>2678.7</ele>
        <time>2021-02-17T10:43:31Z</time>
      </trkpt>
      <trkpt lat="45.29435" lon="6.14385">
        <ele>2681.8</ele>
        <time>2021-02-17T10:43:53Z</time>
      </trkpt>
      <trkpt lat="45.29436" lon="6.14384">
        <ele>2681.5</ele>
        <time>2021-02-17T10:43:54Z</time>
      </trkpt>
      <trkpt lat="45.29436" lon="6.14383">
        <ele>2683</ele>
        <time>2021-02-17T10:43:55Z</time>
      </trkpt>
      <trkpt lat="45.29437" lon="6.14382">
        <ele>2683</ele>
        <time>2021-02-17T10:43:56Z</time>
      </trkpt>
      <trkpt lat="45.29437" lon="6.14381">
        <ele>2683</ele>
        <time>2021-02-17T10:43:57Z</time>
      </trkpt>
      <trkpt lat="45.29438" lon="6.1438">
        <ele>2682.8</ele>
        <time>2021-02-17T10:43:58Z</time>
      </trkpt>
      <trkpt lat="45.29438" lon="6.14379">
        <ele>2682.8</ele>
        <time>2021-02-17T10:43:59Z</time>
      </trkpt>
      <trkpt lat="45.29439" lon="6.14378">
        <ele>2682.8</ele>
        <time>2021-02-17T10:44:00Z</time>
      </trkpt>
      <trkpt lat="45.29439" lon="6.14377">
        <ele>2682.8</ele>
        <time>2021-02-17T10:44:01Z</time>
      </trkpt>
      <trkpt lat="45.2944" lon="6.14376">
        <ele>2684.2</ele>
        <time>2021-02-17T10:44:02Z</time>
      </trkpt>
      <trkpt lat="45.2944" lon="6.14375">
        <ele>2684.2</ele>
        <time>2021-02-17T10:44:03Z</time>
      </trkpt>
      <trkpt lat="45.29441" lon="6.14374">
        <ele>2684.2</ele>
        <time>2021-02-17T10:44:04Z</time>
      </trkpt>
      <trkpt lat="45.29441" lon="6.14373">
        <ele>2684.2</ele>
        <time>2021-02-17T10:44:05Z</time>
      </trkpt>
      <trkpt lat="45.29442" lon="6.14373">
        <ele>2684.2</ele>
        <time>2021-02-17T10:44:06Z</time>
      </trkpt>
      <trkpt lat="45.29442" lon="6.14372">
        <ele>2684</ele>
        <time>2021-02-17T10:44:07Z</time>
      </trkpt>
      <trkpt lat="45.29442" lon="6.14371">
        <ele>2685.7</ele>
        <time>2021-02-17T10:44:08Z</time>
      </trkpt>
      <trkpt lat="45.29443" lon="6.1437">
        <ele>2685.7</ele>
        <time>2021-02-17T10:44:09Z</time>
      </trkpt>
      <trkpt lat="45.29443" lon="6.14369">
        <ele>2685.7</ele>
        <time>2021-02-17T10:44:10Z</time>
      </trkpt>
      <trkpt lat="45.29443" lon="6.14368">
        <ele>2685.7</ele>
        <time>2021-02-17T10:44:11Z</time>
      </trkpt>
      <trkpt lat="45.29443" lon="6.14368">
        <ele>2685.7</ele>
        <time>2021-02-17T10:44:12Z</time>
      </trkpt>
      <trkpt lat="45.29444" lon="6.14367">
        <ele>2685.6</ele>
        <time>2021-02-17T10:44:13Z</time>
      </trkpt>
      <trkpt lat="45.29444" lon="6.14367">
        <ele>2685.6</ele>
        <time>2021-02-17T10:44:14Z</time>
      </trkpt>
      <trkpt lat="45.29445" lon="6.14366">
        <ele>2685.6</ele>
        <time>2021-02-17T10:44:15Z</time>
      </trkpt>
      <trkpt lat="45.29445" lon="6.14365">
        <ele>2685.6</ele>
        <time>2021-02-17T10:44:16Z</time>
      </trkpt>
      <trkpt lat="45.29445" lon="6.14364">
        <ele>2687.3</ele>
        <time>2021-02-17T10:44:17Z</time>
      </trkpt>
      <trkpt lat="45.29446" lon="6.14363">
        <ele>2687.3</ele>
        <time>2021-02-17T10:44:18Z</time>
      </trkpt>
      <trkpt lat="45.29446" lon="6.14362">
        <ele>2687.3</ele>
        <time>2021-02-17T10:44:19Z</time>
      </trkpt>
      <trkpt lat="45.29446" lon="6.14361">
        <ele>2687.3</ele>
        <time>2021-02-17T10:44:20Z</time>
      </trkpt>
      <trkpt lat="45.29446" lon="6.1436">
        <ele>2687.3</ele>
        <time>2021-02-17T10:44:21Z</time>
      </trkpt>
      <trkpt lat="45.29446" lon="6.14359">
        <ele>2687.3</ele>
        <time>2021-02-17T10:44:22Z</time>
      </trkpt>
      <trkpt lat="45.29446" lon="6.14358">
        <ele>2687.3</ele>
        <time>2021-02-17T10:44:23Z</time>
      </trkpt>
      <trkpt lat="45.29447" lon="6.14357">
        <ele>2687.3</ele>
        <time>2021-02-17T10:44:24Z</time>
      </trkpt>
      <trkpt lat="45.29447" lon="6.14356">
        <ele>2687.3</ele>
        <time>2021-02-17T10:44:25Z</time>
      </trkpt>
      <trkpt lat="45.29447" lon="6.14356">
        <ele>2687.3</ele>
        <time>2021-02-17T10:44:26Z</time>
      </trkpt>
      <trkpt lat="45.29447" lon="6.14355">
        <ele>2687.3</ele>
        <time>2021-02-17T10:44:27Z</time>
      </trkpt>
      <trkpt lat="45.29447" lon="6.14355">
        <ele>2687.3</ele>
        <time>2021-02-17T10:44:28Z</time>
      </trkpt>
      <trkpt lat="45.29448" lon="6.14354">
        <ele>2687.3</ele>
        <time>2021-02-17T10:44:29Z</time>
      </trkpt>
      <trkpt lat="45.29448" lon="6.14353">
        <ele>2687.3</ele>
        <time>2021-02-17T10:44:30Z</time>
      </trkpt>
      <trkpt lat="45.29449" lon="6.14352">
        <ele>2688.9</ele>
        <time>2021-02-17T10:44:31Z</time>
      </trkpt>
      <trkpt lat="45.29449" lon="6.14351">
        <ele>2688.9</ele>
        <time>2021-02-17T10:44:32Z</time>
      </trkpt>
      <trkpt lat="45.29449" lon="6.14351">
        <ele>2688.9</ele>
        <time>2021-02-17T10:44:33Z</time>
      </trkpt>
      <trkpt lat="45.2945" lon="6.1435">
        <ele>2689</ele>
        <time>2021-02-17T10:44:34Z</time>
      </trkpt>
      <trkpt lat="45.2945" lon="6.14349">
        <ele>2689</ele>
        <time>2021-02-17T10:44:35Z</time>
      </trkpt>
      <trkpt lat="45.29451" lon="6.14349">
        <ele>2689</ele>
        <time>2021-02-17T10:44:36Z</time>
      </trkpt>
      <trkpt lat="45.29452" lon="6.14348">
        <ele>2690.6</ele>
        <time>2021-02-17T10:44:37Z</time>
      </trkpt>
      <trkpt lat="45.29452" lon="6.14348">
        <ele>2690.6</ele>
        <time>2021-02-17T10:44:38Z</time>
      </trkpt>
      <trkpt lat="45.29453" lon="6.14347">
        <ele>2690.6</ele>
        <time>2021-02-17T10:44:39Z</time>
      </trkpt>
      <trkpt lat="45.29454" lon="6.14347">
        <ele>2690.6</ele>
        <time>2021-02-17T10:44:40Z</time>
      </trkpt>
      <trkpt lat="45.29455" lon="6.14346">
        <ele>2692</ele>
        <time>2021-02-17T10:44:41Z</time>
      </trkpt>
      <trkpt lat="45.29456" lon="6.14346">
        <ele>2692.1</ele>
        <time>2021-02-17T10:44:42Z</time>
      </trkpt>
      <trkpt lat="45.29457" lon="6.14345">
        <ele>2692.1</ele>
        <time>2021-02-17T10:44:43Z</time>
      </trkpt>
      <trkpt lat="45.29457" lon="6.14345">
        <ele>2692.1</ele>
        <time>2021-02-17T10:44:44Z</time>
      </trkpt>
      <trkpt lat="45.29458" lon="6.14344">
        <ele>2693.5</ele>
        <time>2021-02-17T10:44:45Z</time>
      </trkpt>
      <trkpt lat="45.29459" lon="6.14343">
        <ele>2693.5</ele>
        <time>2021-02-17T10:44:46Z</time>
      </trkpt>
      <trkpt lat="45.29459" lon="6.14343">
        <ele>2693.5</ele>
        <time>2021-02-17T10:44:47Z</time>
      </trkpt>
      <trkpt lat="45.2946" lon="6.14342">
        <ele>2693.5</ele>
        <time>2021-02-17T10:44:48Z</time>
      </trkpt>
      <trkpt lat="45.29461" lon="6.14342">
        <ele>2694.9</ele>
        <time>2021-02-17T10:44:49Z</time>
      </trkpt>
      <trkpt lat="45.29461" lon="6.14342">
        <ele>2695.1</ele>
        <time>2021-02-17T10:44:50Z</time>
      </trkpt>
      <trkpt lat="45.29462" lon="6.14341">
        <ele>2695.1</ele>
        <time>2021-02-17T10:44:51Z</time>
      </trkpt>
      <trkpt lat="45.29462" lon="6.14341">
        <ele>2695.1</ele>
        <time>2021-02-17T10:44:52Z</time>
      </trkpt>
      <trkpt lat="45.29462" lon="6.1434">
        <ele>2695.1</ele>
        <time>2021-02-17T10:44:53Z</time>
      </trkpt>
      <trkpt lat="45.29462" lon="6.1434">
        <ele>2695.1</ele>
        <time>2021-02-17T10:44:54Z</time>
      </trkpt>
      <trkpt lat="45.29463" lon="6.14339">
        <ele>2695</ele>
        <time>2021-02-17T10:44:55Z</time>
      </trkpt>
      <trkpt lat="45.29464" lon="6.14339">
        <ele>2696.6</ele>
        <time>2021-02-17T10:44:56Z</time>
      </trkpt>
      <trkpt lat="45.29464" lon="6.14338">
        <ele>2696.6</ele>
        <time>2021-02-17T10:44:57Z</time>
      </trkpt>
      <trkpt lat="45.29464" lon="6.14337">
        <ele>2696.9</ele>
        <time>2021-02-17T10:44:58Z</time>
      </trkpt>
      <trkpt lat="45.29465" lon="6.14337">
        <ele>2696.9</ele>
        <time>2021-02-17T10:44:59Z</time>
      </trkpt>
      <trkpt lat="45.29465" lon="6.14336">
        <ele>2696.9</ele>
        <time>2021-02-17T10:45:00Z</time>
      </trkpt>
      <trkpt lat="45.29466" lon="6.14336">
        <ele>2696.9</ele>
        <time>2021-02-17T10:45:01Z</time>
      </trkpt>
      <trkpt lat="45.29466" lon="6.14336">
        <ele>2696.9</ele>
        <time>2021-02-17T10:45:02Z</time>
      </trkpt>
      <trkpt lat="45.29466" lon="6.14336">
        <ele>2696.8</ele>
        <time>2021-02-17T10:45:03Z</time>
      </trkpt>
      <trkpt lat="45.29472" lon="6.14395">
        <ele>2701</ele>
        <time>2021-02-17T10:46:15Z</time>
      </trkpt>
      <trkpt lat="45.29472" lon="6.14396">
        <ele>2701</ele>
        <time>2021-02-17T10:46:16Z</time>
      </trkpt>
      <trkpt lat="45.29472" lon="6.14397">
        <ele>2701</ele>
        <time>2021-02-17T10:46:17Z</time>
      </trkpt>
      <trkpt lat="45.29472" lon="6.14397">
        <ele>2701</ele>
        <time>2021-02-17T10:46:18Z</time>
      </trkpt>
      <trkpt lat="45.29472" lon="6.14398">
        <ele>2701.4</ele>
        <time>2021-02-17T10:46:19Z</time>
      </trkpt>
      <trkpt lat="45.29472" lon="6.14399">
        <ele>2701.4</ele>
        <time>2021-02-17T10:46:20Z</time>
      </trkpt>
      <trkpt lat="45.29473" lon="6.144">
        <ele>2703.1</ele>
        <time>2021-02-17T10:46:21Z</time>
      </trkpt>
      <trkpt lat="45.29473" lon="6.14401">
        <ele>2703.1</ele>
        <time>2021-02-17T10:46:22Z</time>
      </trkpt>
      <trkpt lat="45.29473" lon="6.14402">
        <ele>2703.1</ele>
        <time>2021-02-17T10:46:23Z</time>
      </trkpt>
      <trkpt lat="45.29472" lon="6.14402">
        <ele>2701.9</ele>
        <time>2021-02-17T10:46:24Z</time>
      </trkpt>
      <trkpt lat="45.29477" lon="6.14405">
        <ele>2705.2</ele>
        <time>2021-02-17T10:46:57Z</time>
      </trkpt>
      <trkpt lat="45.29477" lon="6.14405">
        <ele>2705.2</ele>
        <time>2021-02-17T10:46:58Z</time>
      </trkpt>
      <trkpt lat="45.29478" lon="6.14404">
        <ele>2705.2</ele>
        <time>2021-02-17T10:46:59Z</time>
      </trkpt>
      <trkpt lat="45.29478" lon="6.14404">
        <ele>2705.2</ele>
        <time>2021-02-17T10:47:00Z</time>
      </trkpt>
      <trkpt lat="45.29478" lon="6.14403">
        <ele>2705.2</ele>
        <time>2021-02-17T10:47:01Z</time>
      </trkpt>
      <trkpt lat="45.29479" lon="6.14402">
        <ele>2706.7</ele>
        <time>2021-02-17T10:47:02Z</time>
      </trkpt>
      <trkpt lat="45.29479" lon="6.14402">
        <ele>2706.7</ele>
        <time>2021-02-17T10:47:03Z</time>
      </trkpt>
      <trkpt lat="45.29479" lon="6.14401">
        <ele>2706.2</ele>
        <time>2021-02-17T10:47:04Z</time>
      </trkpt>
      <trkpt lat="45.2948" lon="6.14401">
        <ele>2706.1</ele>
        <time>2021-02-17T10:47:05Z</time>
      </trkpt>
      <trkpt lat="45.2948" lon="6.14401">
        <ele>2706.1</ele>
        <time>2021-02-17T10:47:06Z</time>
      </trkpt>
      <trkpt lat="45.29482" lon="6.144">
        <ele>2707.6</ele>
        <time>2021-02-17T10:47:08Z</time>
      </trkpt>
      <trkpt lat="45.29482" lon="6.14399">
        <ele>2707.6</ele>
        <time>2021-02-17T10:47:09Z</time>
      </trkpt>
      <trkpt lat="45.29483" lon="6.14398">
        <ele>2707.6</ele>
        <time>2021-02-17T10:47:10Z</time>
      </trkpt>
      <trkpt lat="45.29484" lon="6.14397">
        <ele>2707.1</ele>
        <time>2021-02-17T10:47:11Z</time>
      </trkpt>
      <trkpt lat="45.29484" lon="6.14397">
        <ele>2707.1</ele>
        <time>2021-02-17T10:47:12Z</time>
      </trkpt>
      <trkpt lat="45.29485" lon="6.14396">
        <ele>2708.6</ele>
        <time>2021-02-17T10:47:13Z</time>
      </trkpt>
      <trkpt lat="45.29485" lon="6.14395">
        <ele>2708.6</ele>
        <time>2021-02-17T10:47:14Z</time>
      </trkpt>
      <trkpt lat="45.29485" lon="6.14394">
        <ele>2708.5</ele>
        <time>2021-02-17T10:47:15Z</time>
      </trkpt>
      <trkpt lat="45.29486" lon="6.14393">
        <ele>2708.5</ele>
        <time>2021-02-17T10:47:16Z</time>
      </trkpt>
      <trkpt lat="45.29486" lon="6.14393">
        <ele>2708.1</ele>
        <time>2021-02-17T10:47:17Z</time>
      </trkpt>
      <trkpt lat="45.29486" lon="6.14392">
        <ele>2708.1</ele>
        <time>2021-02-17T10:47:18Z</time>
      </trkpt>
      <trkpt lat="45.29488" lon="6.14389">
        <ele>2709.7</ele>
        <time>2021-02-17T10:47:24Z</time>
      </trkpt>
      <trkpt lat="45.29489" lon="6.14388">
        <ele>2709.4</ele>
        <time>2021-02-17T10:47:25Z</time>
      </trkpt>
      <trkpt lat="45.29489" lon="6.14388">
        <ele>2709.4</ele>
        <time>2021-02-17T10:47:26Z</time>
      </trkpt>
      <trkpt lat="45.2949" lon="6.14387">
        <ele>2709.4</ele>
        <time>2021-02-17T10:47:27Z</time>
      </trkpt>
      <trkpt lat="45.2949" lon="6.14387">
        <ele>2709.4</ele>
        <time>2021-02-17T10:47:28Z</time>
      </trkpt>
      <trkpt lat="45.2949" lon="6.14387">
        <ele>2709.4</ele>
        <time>2021-02-17T10:47:29Z</time>
      </trkpt>
      <trkpt lat="45.29491" lon="6.14386">
        <ele>2710.9</ele>
        <time>2021-02-17T10:47:30Z</time>
      </trkpt>
      <trkpt lat="45.29492" lon="6.14385">
        <ele>2710.9</ele>
        <time>2021-02-17T10:47:31Z</time>
      </trkpt>
      <trkpt lat="45.29492" lon="6.14385">
        <ele>2710.9</ele>
        <time>2021-02-17T10:47:32Z</time>
      </trkpt>
      <trkpt lat="45.29493" lon="6.14385">
        <ele>2710.9</ele>
        <time>2021-02-17T10:47:33Z</time>
      </trkpt>
      <trkpt lat="45.29493" lon="6.14385">
        <ele>2710.9</ele>
        <time>2021-02-17T10:47:34Z</time>
      </trkpt>
      <trkpt lat="45.29494" lon="6.14384">
        <ele>2712.4</ele>
        <time>2021-02-17T10:47:35Z</time>
      </trkpt>
      <trkpt lat="45.29494" lon="6.14383">
        <ele>2712.4</ele>
        <time>2021-02-17T10:47:36Z</time>
      </trkpt>
      <trkpt lat="45.29495" lon="6.14382">
        <ele>2712.4</ele>
        <time>2021-02-17T10:47:37Z</time>
      </trkpt>
      <trkpt lat="45.29495" lon="6.14382">
        <ele>2712.4</ele>
        <time>2021-02-17T10:47:38Z</time>
      </trkpt>
      <trkpt lat="45.29496" lon="6.14381">
        <ele>2712.3</ele>
        <time>2021-02-17T10:47:39Z</time>
      </trkpt>
      <trkpt lat="45.29497" lon="6.14381">
        <ele>2712.3</ele>
        <time>2021-02-17T10:47:40Z</time>
      </trkpt>
      <trkpt lat="45.29497" lon="6.14381">
        <ele>2714</ele>
        <time>2021-02-17T10:47:41Z</time>
      </trkpt>
      <trkpt lat="45.29511" lon="6.14358">
        <ele>2720.1</ele>
        <time>2021-02-17T10:49:19Z</time>
      </trkpt>
      <trkpt lat="45.29511" lon="6.14357">
        <ele>2720.1</ele>
        <time>2021-02-17T10:49:20Z</time>
      </trkpt>
      <trkpt lat="45.29511" lon="6.14357">
        <ele>2720.1</ele>
        <time>2021-02-17T10:49:21Z</time>
      </trkpt>
      <trkpt lat="45.29512" lon="6.14356">
        <ele>2720.1</ele>
        <time>2021-02-17T10:49:22Z</time>
      </trkpt>
      <trkpt lat="45.29512" lon="6.14355">
        <ele>2721.6</ele>
        <time>2021-02-17T10:49:23Z</time>
      </trkpt>
      <trkpt lat="45.29513" lon="6.14354">
        <ele>2721.5</ele>
        <time>2021-02-17T10:49:24Z</time>
      </trkpt>
      <trkpt lat="45.29513" lon="6.14354">
        <ele>2721.5</ele>
        <time>2021-02-17T10:49:25Z</time>
      </trkpt>
      <trkpt lat="45.29514" lon="6.14353">
        <ele>2721.5</ele>
        <time>2021-02-17T10:49:26Z</time>
      </trkpt>
      <trkpt lat="45.29514" lon="6.14353">
        <ele>2721.4</ele>
        <time>2021-02-17T10:49:27Z</time>
      </trkpt>
      <trkpt lat="45.29514" lon="6.14352">
        <ele>2721.4</ele>
        <time>2021-02-17T10:49:28Z</time>
      </trkpt>
      <trkpt lat="45.29515" lon="6.14352">
        <ele>2721.4</ele>
        <time>2021-02-17T10:49:29Z</time>
      </trkpt>
      <trkpt lat="45.29515" lon="6.14352">
        <ele>2722.8</ele>
        <time>2021-02-17T10:49:30Z</time>
      </trkpt>
      <trkpt lat="45.29515" lon="6.14351">
        <ele>2722.8</ele>
        <time>2021-02-17T10:49:31Z</time>
      </trkpt>
      <trkpt lat="45.29515" lon="6.14352">
        <ele>2722.8</ele>
        <time>2021-02-17T10:49:32Z</time>
      </trkpt>
      <trkpt lat="45.29515" lon="6.14352">
        <ele>2722.8</ele>
        <time>2021-02-17T10:49:33Z</time>
      </trkpt>
      <trkpt lat="45.29523" lon="6.1438">
        <ele>2726.2</ele>
        <time>2021-02-17T10:51:02Z</time>
      </trkpt>
      <trkpt lat="45.29524" lon="6.14379">
        <ele>2727.6</ele>
        <time>2021-02-17T10:51:03Z</time>
      </trkpt>
      <trkpt lat="45.29524" lon="6.14379">
        <ele>2727.5</ele>
        <time>2021-02-17T10:51:04Z</time>
      </trkpt>
      <trkpt lat="45.29524" lon="6.14378">
        <ele>2727.5</ele>
        <time>2021-02-17T10:51:05Z</time>
      </trkpt>
      <trkpt lat="45.29525" lon="6.14379">
        <ele>2727.5</ele>
        <time>2021-02-17T10:51:06Z</time>
      </trkpt>
      <trkpt lat="45.29525" lon="6.14378">
        <ele>2727.5</ele>
        <time>2021-02-17T10:51:07Z</time>
      </trkpt>
      <trkpt lat="45.29526" lon="6.14378">
        <ele>2727.5</ele>
        <time>2021-02-17T10:51:08Z</time>
      </trkpt>
      <trkpt lat="45.29526" lon="6.14377">
        <ele>2727.5</ele>
        <time>2021-02-17T10:51:09Z</time>
      </trkpt>
      <trkpt lat="45.29526" lon="6.14376">
        <ele>2727.5</ele>
        <time>2021-02-17T10:51:10Z</time>
      </trkpt>
      <trkpt lat="45.29526" lon="6.14375">
        <ele>2727.3</ele>
        <time>2021-02-17T10:51:11Z</time>
      </trkpt>
      <trkpt lat="45.29526" lon="6.14375">
        <ele>2727.3</ele>
        <time>2021-02-17T10:51:12Z</time>
      </trkpt>
      <trkpt lat="45.29526" lon="6.14373">
        <ele>2727.3</ele>
        <time>2021-02-17T10:51:13Z</time>
      </trkpt>
      <trkpt lat="45.29532" lon="6.14345">
        <ele>2728.7</ele>
        <time>2021-02-17T10:52:23Z</time>
      </trkpt>
      <trkpt lat="45.29532" lon="6.14342">
        <ele>2728.7</ele>
        <time>2021-02-17T10:52:24Z</time>
      </trkpt>
      <trkpt lat="45.29531" lon="6.14338">
        <ele>2728.6</ele>
        <time>2021-02-17T10:52:25Z</time>
      </trkpt>
      <trkpt lat="45.29531" lon="6.14336">
        <ele>2728.5</ele>
        <time>2021-02-17T10:52:26Z</time>
      </trkpt>
      <trkpt lat="45.29531" lon="6.14337">
        <ele>2728.5</ele>
        <time>2021-02-17T10:52:27Z</time>
      </trkpt>
      <trkpt lat="45.29531" lon="6.14337">
        <ele>2728.5</ele>
        <time>2021-02-17T10:52:28Z</time>
      </trkpt>
      <trkpt lat="45.29531" lon="6.1434">
        <ele>2728.5</ele>
        <time>2021-02-17T10:52:29Z</time>
      </trkpt>
      <trkpt lat="45.29531" lon="6.14342">
        <ele>2728.6</ele>
        <time>2021-02-17T10:52:30Z</time>
      </trkpt>
      <trkpt lat="45.29531" lon="6.14344">
        <ele>2728.6</ele>
        <time>2021-02-17T10:52:31Z</time>
      </trkpt>
      <trkpt lat="45.29532" lon="6.14346">
        <ele>2728.8</ele>
        <time>2021-02-17T10:52:32Z</time>
      </trkpt>
      <trkpt lat="45.29533" lon="6.14348">
        <ele>2728.8</ele>
        <time>2021-02-17T10:52:33Z</time>
      </trkpt>
      <trkpt lat="45.29533" lon="6.14351">
        <ele>2730.1</ele>
        <time>2021-02-17T10:52:34Z</time>
      </trkpt>
      <trkpt lat="45.29534" lon="6.14353">
        <ele>2730.1</ele>
        <time>2021-02-17T10:52:35Z</time>
      </trkpt>
      <trkpt lat="45.29534" lon="6.14355">
        <ele>2730.1</ele>
        <time>2021-02-17T10:52:36Z</time>
      </trkpt>
      <trkpt lat="45.29534" lon="6.14356">
        <ele>2730.4</ele>
        <time>2021-02-17T10:52:37Z</time>
      </trkpt>
      <trkpt lat="45.29535" lon="6.14361">
        <ele>2730.6</ele>
        <time>2021-02-17T10:52:40Z</time>
      </trkpt>
      <trkpt lat="45.29535" lon="6.14363">
        <ele>2730.6</ele>
        <time>2021-02-17T10:52:41Z</time>
      </trkpt>
      <trkpt lat="45.29535" lon="6.14365">
        <ele>2730.8</ele>
        <time>2021-02-17T10:52:42Z</time>
      </trkpt>
      <trkpt lat="45.29535" lon="6.14366">
        <ele>2730.8</ele>
        <time>2021-02-17T10:52:43Z</time>
      </trkpt>
      <trkpt lat="45.29535" lon="6.14367">
        <ele>2730.8</ele>
        <time>2021-02-17T10:52:44Z</time>
      </trkpt>
      <trkpt lat="45.29535" lon="6.14367">
        <ele>2730.8</ele>
        <time>2021-02-17T10:52:45Z</time>
      </trkpt>
      <trkpt lat="45.29535" lon="6.14367">
        <ele>2730.8</ele>
        <time>2021-02-17T10:52:46Z</time>
      </trkpt>
      <trkpt lat="45.29535" lon="6.14367">
        <ele>2730.8</ele>
        <time>2021-02-17T10:52:47Z</time>
      </trkpt>
      <trkpt lat="45.29535" lon="6.14367">
        <ele>2730.8</ele>
        <time>2021-02-17T10:52:48Z</time>
      </trkpt>
      <trkpt lat="45.29535" lon="6.14367">
        <ele>2730.8</ele>
        <time>2021-02-17T10:52:49Z</time>
      </trkpt>
      <trkpt lat="45.29535" lon="6.14367">
        <ele>2730.8</ele>
        <time>2021-02-17T10:52:50Z</time>
      </trkpt>
      <trkpt lat="45.29535" lon="6.14367">
        <ele>2730.8</ele>
        <time>2021-02-17T10:52:51Z</time>
      </trkpt>
      <trkpt lat="45.29537" lon="6.14339">
        <ele>2730.6</ele>
        <time>2021-02-17T10:54:26Z</time>
      </trkpt>
      <trkpt lat="45.29537" lon="6.14339">
        <ele>2730.6</ele>
        <time>2021-02-17T10:54:27Z</time>
      </trkpt>
      <trkpt lat="45.29537" lon="6.14338">
        <ele>2730.6</ele>
        <time>2021-02-17T10:54:28Z</time>
      </trkpt>
      <trkpt lat="45.29536" lon="6.14338">
        <ele>2730.6</ele>
        <time>2021-02-17T10:54:29Z</time>
      </trkpt>
      <trkpt lat="45.29536" lon="6.14337">
        <ele>2730.4</ele>
        <time>2021-02-17T10:54:30Z</time>
      </trkpt>
      <trkpt lat="45.29536" lon="6.14337">
        <ele>2730.4</ele>
        <time>2021-02-17T10:54:31Z</time>
      </trkpt>
      <trkpt lat="45.29536" lon="6.14337">
        <ele>2730.4</ele>
        <time>2021-02-17T10:54:32Z</time>
      </trkpt>
      <trkpt lat="45.29536" lon="6.14337">
        <ele>2730.4</ele>
        <time>2021-02-17T10:54:33Z</time>
      </trkpt>
      <trkpt lat="45.29536" lon="6.14337">
        <ele>2730.4</ele>
        <time>2021-02-17T10:54:34Z</time>
      </trkpt>
      <trkpt lat="45.29536" lon="6.14337">
        <ele>2730.4</ele>
        <time>2021-02-17T10:54:35Z</time>
      </trkpt>
      <trkpt lat="45.29551" lon="6.14343">
        <ele>2733.9</ele>
        <time>2021-02-17T10:56:00Z</time>
      </trkpt>
      <trkpt lat="45.29551" lon="6.14344">
        <ele>2734.6</ele>
        <time>2021-02-17T10:56:01Z</time>
      </trkpt>
      <trkpt lat="45.29552" lon="6.14345">
        <ele>2734.6</ele>
        <time>2021-02-17T10:56:02Z</time>
      </trkpt>
      <trkpt lat="45.29553" lon="6.14346">
        <ele>2734.6</ele>
        <time>2021-02-17T10:56:03Z</time>
      </trkpt>
      <trkpt lat="45.29553" lon="6.14346">
        <ele>2735</ele>
        <time>2021-02-17T10:56:04Z</time>
      </trkpt>
      <trkpt lat="45.29554" lon="6.14347">
        <ele>2735.7</ele>
        <time>2021-02-17T10:56:05Z</time>
      </trkpt>
      <trkpt lat="45.29555" lon="6.14348">
        <ele>2735.7</ele>
        <time>2021-02-17T10:56:06Z</time>
      </trkpt>
      <trkpt lat="45.29555" lon="6.14349">
        <ele>2735.7</ele>
        <time>2021-02-17T10:56:07Z</time>
      </trkpt>
      <trkpt lat="45.29556" lon="6.14351">
        <ele>2736.1</ele>
        <time>2021-02-17T10:56:08Z</time>
      </trkpt>
      <trkpt lat="45.29556" lon="6.14352">
        <ele>2736.1</ele>
        <time>2021-02-17T10:56:09Z</time>
      </trkpt>
      <trkpt lat="45.29557" lon="6.14353">
        <ele>2736.1</ele>
        <time>2021-02-17T10:56:10Z</time>
      </trkpt>
      <trkpt lat="45.29557" lon="6.14353">
        <ele>2736.8</ele>
        <time>2021-02-17T10:56:11Z</time>
      </trkpt>
      <trkpt lat="45.29558" lon="6.14354">
        <ele>2736.8</ele>
        <time>2021-02-17T10:56:12Z</time>
      </trkpt>
      <trkpt lat="45.29558" lon="6.14355">
        <ele>2737.2</ele>
        <time>2021-02-17T10:56:13Z</time>
      </trkpt>
      <trkpt lat="45.29558" lon="6.14356">
        <ele>2737.2</ele>
        <time>2021-02-17T10:56:14Z</time>
      </trkpt>
      <trkpt lat="45.29558" lon="6.14356">
        <ele>2737.2</ele>
        <time>2021-02-17T10:56:15Z</time>
      </trkpt>
      <trkpt lat="45.29558" lon="6.14356">
        <ele>2737.2</ele>
        <time>2021-02-17T10:56:16Z</time>
      </trkpt>
      <trkpt lat="45.29559" lon="6.14357">
        <ele>2737.2</ele>
        <time>2021-02-17T10:56:17Z</time>
      </trkpt>
      <trkpt lat="45.29559" lon="6.14358">
        <ele>2737.2</ele>
        <time>2021-02-17T10:56:18Z</time>
      </trkpt>
      <trkpt lat="45.29559" lon="6.14358">
        <ele>2737.2</ele>
        <time>2021-02-17T10:56:19Z</time>
      </trkpt>
      <trkpt lat="45.29559" lon="6.14358">
        <ele>2737.2</ele>
        <time>2021-02-17T10:56:20Z</time>
      </trkpt>
      <trkpt lat="45.29559" lon="6.14358">
        <ele>2737.2</ele>
        <time>2021-02-17T10:56:21Z</time>
      </trkpt>
      <trkpt lat="45.29559" lon="6.14358">
        <ele>2737.2</ele>
        <time>2021-02-17T10:56:22Z</time>
      </trkpt>
      <trkpt lat="45.29559" lon="6.14358">
        <ele>2737.2</ele>
        <time>2021-02-17T10:56:23Z</time>
      </trkpt>
      <trkpt lat="45.2956" lon="6.14357">
        <ele>2737.9</ele>
        <time>2021-02-17T10:56:24Z</time>
      </trkpt>
      <trkpt lat="45.2956" lon="6.14357">
        <ele>2737.9</ele>
        <time>2021-02-17T10:56:25Z</time>
      </trkpt>
      <trkpt lat="45.29561" lon="6.14357">
        <ele>2737.9</ele>
        <time>2021-02-17T10:56:26Z</time>
      </trkpt>
      <trkpt lat="45.29561" lon="6.14357">
        <ele>2737.9</ele>
        <time>2021-02-17T10:56:27Z</time>
      </trkpt>
      <trkpt lat="45.29561" lon="6.14357">
        <ele>2737.9</ele>
        <time>2021-02-17T10:56:28Z</time>
      </trkpt>
      <trkpt lat="45.29561" lon="6.14318">
        <ele>2734.4</ele>
        <time>2021-02-17T10:58:05Z</time>
      </trkpt>
      <trkpt lat="45.29561" lon="6.14317">
        <ele>2734.4</ele>
        <time>2021-02-17T10:58:06Z</time>
      </trkpt>
      <trkpt lat="45.29561" lon="6.14317">
        <ele>2734.4</ele>
        <time>2021-02-17T10:58:07Z</time>
      </trkpt>
      <trkpt lat="45.2956" lon="6.14316">
        <ele>2734.4</ele>
        <time>2021-02-17T10:58:08Z</time>
      </trkpt>
      <trkpt lat="45.2956" lon="6.14316">
        <ele>2734</ele>
        <time>2021-02-17T10:58:09Z</time>
      </trkpt>
      <trkpt lat="45.2956" lon="6.14315">
        <ele>2734</ele>
        <time>2021-02-17T10:58:10Z</time>
      </trkpt>
      <trkpt lat="45.2956" lon="6.14315">
        <ele>2734</ele>
        <time>2021-02-17T10:58:11Z</time>
      </trkpt>
      <trkpt lat="45.2956" lon="6.14315">
        <ele>2734</ele>
        <time>2021-02-17T10:58:12Z</time>
      </trkpt>
      <trkpt lat="45.29561" lon="6.14315">
        <ele>2734</ele>
        <time>2021-02-17T10:58:13Z</time>
      </trkpt>
      <trkpt lat="45.29561" lon="6.14315">
        <ele>2734</ele>
        <time>2021-02-17T10:58:14Z</time>
      </trkpt>
      <trkpt lat="45.29573" lon="6.14313">
        <ele>2735.3</ele>
        <time>2021-02-17T10:59:08Z</time>
      </trkpt>
      <trkpt lat="45.29573" lon="6.14312">
        <ele>2735.3</ele>
        <time>2021-02-17T10:59:09Z</time>
      </trkpt>
      <trkpt lat="45.29574" lon="6.14312">
        <ele>2735.3</ele>
        <time>2021-02-17T10:59:10Z</time>
      </trkpt>
      <trkpt lat="45.29574" lon="6.14312">
        <ele>2735.3</ele>
        <time>2021-02-17T10:59:11Z</time>
      </trkpt>
      <trkpt lat="45.29575" lon="6.14311">
        <ele>2734.7</ele>
        <time>2021-02-17T10:59:12Z</time>
      </trkpt>
      <trkpt lat="45.29575" lon="6.14311">
        <ele>2734.7</ele>
        <time>2021-02-17T10:59:13Z</time>
      </trkpt>
      <trkpt lat="45.29575" lon="6.14311">
        <ele>2734.7</ele>
        <time>2021-02-17T10:59:14Z</time>
      </trkpt>
      <trkpt lat="45.29574" lon="6.14312">
        <ele>2735.3</ele>
        <time>2021-02-17T10:59:15Z</time>
      </trkpt>
      <trkpt lat="45.29574" lon="6.14312">
        <ele>2735.3</ele>
        <time>2021-02-17T10:59:16Z</time>
      </trkpt>
      <trkpt lat="45.29574" lon="6.14312">
        <ele>2735.3</ele>
        <time>2021-02-17T10:59:17Z</time>
      </trkpt>
      <trkpt lat="45.29574" lon="6.14312">
        <ele>2735.3</ele>
        <time>2021-02-17T10:59:18Z</time>
      </trkpt>
      <trkpt lat="45.29573" lon="6.14314">
        <ele>2735.3</ele>
        <time>2021-02-17T10:59:19Z</time>
      </trkpt>
      <trkpt lat="45.29578" lon="6.14316">
        <ele>2736.4</ele>
        <time>2021-02-17T10:59:47Z</time>
      </trkpt>
      <trkpt lat="45.29578" lon="6.14317">
        <ele>2736.4</ele>
        <time>2021-02-17T10:59:48Z</time>
      </trkpt>
      <trkpt lat="45.29578" lon="6.14317">
        <ele>2736.1</ele>
        <time>2021-02-17T10:59:49Z</time>
      </trkpt>
      <trkpt lat="45.29578" lon="6.14317">
        <ele>2736.1</ele>
        <time>2021-02-17T10:59:50Z</time>
      </trkpt>
      <trkpt lat="45.29577" lon="6.14317">
        <ele>2736.1</ele>
        <time>2021-02-17T10:59:51Z</time>
      </trkpt>
      <trkpt lat="45.29577" lon="6.14316">
        <ele>2736.1</ele>
        <time>2021-02-17T10:59:52Z</time>
      </trkpt>
      <trkpt lat="45.29577" lon="6.14316">
        <ele>2736.1</ele>
        <time>2021-02-17T10:59:53Z</time>
      </trkpt>
      <trkpt lat="45.29577" lon="6.14317">
        <ele>2736.1</ele>
        <time>2021-02-17T10:59:54Z</time>
      </trkpt>
      <trkpt lat="45.29577" lon="6.14317">
        <ele>2736.1</ele>
        <time>2021-02-17T10:59:55Z</time>
      </trkpt>
      <trkpt lat="45.29577" lon="6.14317">
        <ele>2736.1</ele>
        <time>2021-02-17T10:59:56Z</time>
      </trkpt>
      <trkpt lat="45.29581" lon="6.14313">
        <ele>2735.9</ele>
        <time>2021-02-17T11:00:30Z</time>
      </trkpt>
      <trkpt lat="45.29581" lon="6.14313">
        <ele>2735.9</ele>
        <time>2021-02-17T11:00:31Z</time>
      </trkpt>
      <trkpt lat="45.29581" lon="6.14313">
        <ele>2735.9</ele>
        <time>2021-02-17T11:00:32Z</time>
      </trkpt>
      <trkpt lat="45.29581" lon="6.14314">
        <ele>2735.9</ele>
        <time>2021-02-17T11:00:33Z</time>
      </trkpt>
      <trkpt lat="45.29581" lon="6.14314">
        <ele>2735.9</ele>
        <time>2021-02-17T11:00:34Z</time>
      </trkpt>
      <trkpt lat="45.29581" lon="6.14314">
        <ele>2735.9</ele>
        <time>2021-02-17T11:00:35Z</time>
      </trkpt>
      <trkpt lat="45.29582" lon="6.14314">
        <ele>2736.1</ele>
        <time>2021-02-17T11:00:36Z</time>
      </trkpt>
      <trkpt lat="45.29582" lon="6.14314">
        <ele>2736.1</ele>
        <time>2021-02-17T11:00:37Z</time>
      </trkpt>
      <trkpt lat="45.29583" lon="6.14314">
        <ele>2736.1</ele>
        <time>2021-02-17T11:00:38Z</time>
      </trkpt>
      <trkpt lat="45.29583" lon="6.14314">
        <ele>2736.1</ele>
        <time>2021-02-17T11:00:39Z</time>
      </trkpt>
      <trkpt lat="45.29583" lon="6.14319">
        <ele>2736.7</ele>
        <time>2021-02-17T11:00:55Z</time>
      </trkpt>
      <trkpt lat="45.29583" lon="6.14321">
        <ele>2737.2</ele>
        <time>2021-02-17T11:00:56Z</time>
      </trkpt>
      <trkpt lat="45.29584" lon="6.14322">
        <ele>2737.2</ele>
        <time>2021-02-17T11:00:57Z</time>
      </trkpt>
      <trkpt lat="45.29584" lon="6.14323">
        <ele>2737.2</ele>
        <time>2021-02-17T11:00:58Z</time>
      </trkpt>
      <trkpt lat="45.29584" lon="6.14324">
        <ele>2737.2</ele>
        <time>2021-02-17T11:00:59Z</time>
      </trkpt>
      <trkpt lat="45.29584" lon="6.14324">
        <ele>2737.2</ele>
        <time>2021-02-17T11:01:00Z</time>
      </trkpt>
      <trkpt lat="45.29584" lon="6.14325">
        <ele>2738</ele>
        <time>2021-02-17T11:01:01Z</time>
      </trkpt>
      <trkpt lat="45.29585" lon="6.14326">
        <ele>2738</ele>
        <time>2021-02-17T11:01:02Z</time>
      </trkpt>
      <trkpt lat="45.29585" lon="6.14327">
        <ele>2738</ele>
        <time>2021-02-17T11:01:03Z</time>
      </trkpt>
      <trkpt lat="45.29586" lon="6.14328">
        <ele>2738</ele>
        <time>2021-02-17T11:01:04Z</time>
      </trkpt>
      <trkpt lat="45.29586" lon="6.14329">
        <ele>2738</ele>
        <time>2021-02-17T11:01:05Z</time>
      </trkpt>
      <trkpt lat="45.29587" lon="6.1433">
        <ele>2738.5</ele>
        <time>2021-02-17T11:01:06Z</time>
      </trkpt>
      <trkpt lat="45.29587" lon="6.1433">
        <ele>2738.5</ele>
        <time>2021-02-17T11:01:07Z</time>
      </trkpt>
      <trkpt lat="45.29588" lon="6.14331">
        <ele>2738.7</ele>
        <time>2021-02-17T11:01:08Z</time>
      </trkpt>
      <trkpt lat="45.29588" lon="6.14331">
        <ele>2738.7</ele>
        <time>2021-02-17T11:01:09Z</time>
      </trkpt>
      <trkpt lat="45.29589" lon="6.14332">
        <ele>2738.7</ele>
        <time>2021-02-17T11:01:10Z</time>
      </trkpt>
      <trkpt lat="45.29589" lon="6.14332">
        <ele>2738.7</ele>
        <time>2021-02-17T11:01:11Z</time>
      </trkpt>
      <trkpt lat="45.2959" lon="6.14333">
        <ele>2738.7</ele>
        <time>2021-02-17T11:01:12Z</time>
      </trkpt>
      <trkpt lat="45.2959" lon="6.14334">
        <ele>2739.1</ele>
        <time>2021-02-17T11:01:13Z</time>
      </trkpt>
      <trkpt lat="45.2959" lon="6.14334">
        <ele>2739.1</ele>
        <time>2021-02-17T11:01:14Z</time>
      </trkpt>
      <trkpt lat="45.2959" lon="6.14335">
        <ele>2739.3</ele>
        <time>2021-02-17T11:01:15Z</time>
      </trkpt>
      <trkpt lat="45.2959" lon="6.14337">
        <ele>2739.1</ele>
        <time>2021-02-17T11:01:16Z</time>
      </trkpt>
      <trkpt lat="45.2959" lon="6.14338">
        <ele>2739.5</ele>
        <time>2021-02-17T11:01:17Z</time>
      </trkpt>
      <trkpt lat="45.2959" lon="6.14338">
        <ele>2739.5</ele>
        <time>2021-02-17T11:01:18Z</time>
      </trkpt>
      <trkpt lat="45.2959" lon="6.14339">
        <ele>2739.5</ele>
        <time>2021-02-17T11:01:19Z</time>
      </trkpt>
      <trkpt lat="45.29589" lon="6.1434">
        <ele>2739.5</ele>
        <time>2021-02-17T11:01:20Z</time>
      </trkpt>
      <trkpt lat="45.29589" lon="6.14341">
        <ele>2739.5</ele>
        <time>2021-02-17T11:01:21Z</time>
      </trkpt>
      <trkpt lat="45.29589" lon="6.14341">
        <ele>2739.5</ele>
        <time>2021-02-17T11:01:22Z</time>
      </trkpt>
      <trkpt lat="45.29589" lon="6.14341">
        <ele>2739.5</ele>
        <time>2021-02-17T11:01:23Z</time>
      </trkpt>
      <trkpt lat="45.29589" lon="6.14341">
        <ele>2739.5</ele>
        <time>2021-02-17T11:01:24Z</time>
      </trkpt>
      <trkpt lat="45.29589" lon="6.14341">
        <ele>2739.5</ele>
        <time>2021-02-17T11:01:25Z</time>
      </trkpt>
      <trkpt lat="45.29589" lon="6.14341">
        <ele>2739.5</ele>
        <time>2021-02-17T11:01:26Z</time>
      </trkpt>
      <trkpt lat="45.29595" lon="6.14342">
        <ele>2740.1</ele>
        <time>2021-02-17T11:04:38Z</time>
      </trkpt>
      <trkpt lat="45.29595" lon="6.14343">
        <ele>2740.1</ele>
        <time>2021-02-17T11:04:39Z</time>
      </trkpt>
      <trkpt lat="45.29594" lon="6.14343">
        <ele>2740.1</ele>
        <time>2021-02-17T11:04:40Z</time>
      </trkpt>
      <trkpt lat="45.29594" lon="6.14344">
        <ele>2740.1</ele>
        <time>2021-02-17T11:04:41Z</time>
      </trkpt>
      <trkpt lat="45.29594" lon="6.14345">
        <ele>2740.1</ele>
        <time>2021-02-17T11:04:42Z</time>
      </trkpt>
      <trkpt lat="45.29593" lon="6.14345">
        <ele>2740</ele>
        <time>2021-02-17T11:04:43Z</time>
      </trkpt>
      <trkpt lat="45.29593" lon="6.14345">
        <ele>2740</ele>
        <time>2021-02-17T11:04:44Z</time>
      </trkpt>
      <trkpt lat="45.29592" lon="6.14346">
        <ele>2740</ele>
        <time>2021-02-17T11:04:45Z</time>
      </trkpt>
      <trkpt lat="45.29592" lon="6.14346">
        <ele>2740</ele>
        <time>2021-02-17T11:04:46Z</time>
      </trkpt>
      <trkpt lat="45.29591" lon="6.14346">
        <ele>2740</ele>
        <time>2021-02-17T11:04:47Z</time>
      </trkpt>
      <trkpt lat="45.29592" lon="6.1435">
        <ele>2740.4</ele>
        <time>2021-02-17T11:06:20Z</time>
      </trkpt>
      <trkpt lat="45.29592" lon="6.14351">
        <ele>2740.8</ele>
        <time>2021-02-17T11:06:21Z</time>
      </trkpt>
      <trkpt lat="45.29591" lon="6.14352">
        <ele>2740.8</ele>
        <time>2021-02-17T11:06:22Z</time>
      </trkpt>
      <trkpt lat="45.29591" lon="6.14353">
        <ele>2740.8</ele>
        <time>2021-02-17T11:06:23Z</time>
      </trkpt>
      <trkpt lat="45.29591" lon="6.14353">
        <ele>2740.8</ele>
        <time>2021-02-17T11:06:24Z</time>
      </trkpt>
      <trkpt lat="45.29591" lon="6.14353">
        <ele>2740.8</ele>
        <time>2021-02-17T11:06:25Z</time>
      </trkpt>
      <trkpt lat="45.29591" lon="6.14353">
        <ele>2740.8</ele>
        <time>2021-02-17T11:06:26Z</time>
      </trkpt>
      <trkpt lat="45.29591" lon="6.14353">
        <ele>2740.8</ele>
        <time>2021-02-17T11:06:27Z</time>
      </trkpt>
      <trkpt lat="45.29591" lon="6.14353">
        <ele>2740.8</ele>
        <time>2021-02-17T11:06:28Z</time>
      </trkpt>
      <trkpt lat="45.29591" lon="6.14353">
        <ele>2740.8</ele>
        <time>2021-02-17T11:06:29Z</time>
      </trkpt>
      <trkpt lat="45.29591" lon="6.14353">
        <ele>2740.8</ele>
        <time>2021-02-17T11:06:30Z</time>
      </trkpt>
      <trkpt lat="45.29591" lon="6.14353">
        <ele>2740.8</ele>
        <time>2021-02-17T11:06:31Z</time>
      </trkpt>
      <trkpt lat="45.29591" lon="6.14353">
        <ele>2740.8</ele>
        <time>2021-02-17T11:06:32Z</time>
      </trkpt>
      <trkpt lat="45.29591" lon="6.14353">
        <ele>2740.8</ele>
        <time>2021-02-17T11:06:33Z</time>
      </trkpt>
      <trkpt lat="45.2959" lon="6.1433">
        <ele>2738.8</ele>
        <time>2021-02-17T11:20:30Z</time>
      </trkpt>
      <trkpt lat="45.29591" lon="6.14329">
        <ele>2738.8</ele>
        <time>2021-02-17T11:20:31Z</time>
      </trkpt>
      <trkpt lat="45.29591" lon="6.14329">
        <ele>2738.3</ele>
        <time>2021-02-17T11:20:32Z</time>
      </trkpt>
      <trkpt lat="45.29592" lon="6.14328">
        <ele>2738.3</ele>
        <time>2021-02-17T11:20:33Z</time>
      </trkpt>
      <trkpt lat="45.29593" lon="6.14328">
        <ele>2738.3</ele>
        <time>2021-02-17T11:20:34Z</time>
      </trkpt>
      <trkpt lat="45.29594" lon="6.14328">
        <ele>2738.5</ele>
        <time>2021-02-17T11:20:35Z</time>
      </trkpt>
      <trkpt lat="45.29595" lon="6.14328">
        <ele>2738.5</ele>
        <time>2021-02-17T11:20:36Z</time>
      </trkpt>
      <trkpt lat="45.29596" lon="6.14328">
        <ele>2738.5</ele>
        <time>2021-02-17T11:20:37Z</time>
      </trkpt>
      <trkpt lat="45.29597" lon="6.14329">
        <ele>2738.5</ele>
        <time>2021-02-17T11:20:38Z</time>
      </trkpt>
      <trkpt lat="45.29597" lon="6.14329">
        <ele>2738.5</ele>
        <time>2021-02-17T11:20:39Z</time>
      </trkpt>
      <trkpt lat="45.29597" lon="6.14329">
        <ele>2739</ele>
        <time>2021-02-17T11:20:40Z</time>
      </trkpt>
      <trkpt lat="45.29597" lon="6.14329">
        <ele>2739</ele>
        <time>2021-02-17T11:20:41Z</time>
      </trkpt>
      <trkpt lat="45.29598" lon="6.1433">
        <ele>2739</ele>
        <time>2021-02-17T11:20:42Z</time>
      </trkpt>
      <trkpt lat="45.29598" lon="6.1433">
        <ele>2739</ele>
        <time>2021-02-17T11:20:43Z</time>
      </trkpt>
      <trkpt lat="45.29598" lon="6.1433">
        <ele>2739</ele>
        <time>2021-02-17T11:20:44Z</time>
      </trkpt>
      <trkpt lat="45.29598" lon="6.1433">
        <ele>2739</ele>
        <time>2021-02-17T11:20:45Z</time>
      </trkpt>
      <trkpt lat="45.29598" lon="6.1433">
        <ele>2739</ele>
        <time>2021-02-17T11:20:46Z</time>
      </trkpt>
      <trkpt lat="45.29598" lon="6.1433">
        <ele>2739</ele>
        <time>2021-02-17T11:20:47Z</time>
      </trkpt>
      <trkpt lat="45.29598" lon="6.1433">
        <ele>2739</ele>
        <time>2021-02-17T11:20:48Z</time>
      </trkpt>
      <trkpt lat="45.29593" lon="6.14334">
        <ele>2739.3</ele>
        <time>2021-02-17T11:28:17Z</time>
      </trkpt>
      <trkpt lat="45.29593" lon="6.14335">
        <ele>2739.3</ele>
        <time>2021-02-17T11:28:18Z</time>
      </trkpt>
      <trkpt lat="45.29592" lon="6.14335">
        <ele>2739.3</ele>
        <time>2021-02-17T11:28:19Z</time>
      </trkpt>
      <trkpt lat="45.29592" lon="6.14336">
        <ele>2739.3</ele>
        <time>2021-02-17T11:28:20Z</time>
      </trkpt>
      <trkpt lat="45.29592" lon="6.14337">
        <ele>2739.3</ele>
        <time>2021-02-17T11:28:21Z</time>
      </trkpt>
      <trkpt lat="45.29592" lon="6.14339">
        <ele>2739.7</ele>
        <time>2021-02-17T11:28:22Z</time>
      </trkpt>
      <trkpt lat="45.29592" lon="6.1434">
        <ele>2739.7</ele>
        <time>2021-02-17T11:28:23Z</time>
      </trkpt>
      <trkpt lat="45.29591" lon="6.14341">
        <ele>2739.7</ele>
        <time>2021-02-17T11:28:24Z</time>
      </trkpt>
      <trkpt lat="45.29591" lon="6.14341">
        <ele>2739.7</ele>
        <time>2021-02-17T11:28:25Z</time>
      </trkpt>
      <trkpt lat="45.29591" lon="6.14341">
        <ele>2739.7</ele>
        <time>2021-02-17T11:28:26Z</time>
      </trkpt>
      <trkpt lat="45.29591" lon="6.14341">
        <ele>2739.7</ele>
        <time>2021-02-17T11:28:27Z</time>
      </trkpt>
      <trkpt lat="45.29592" lon="6.14342">
        <ele>2739.7</ele>
        <time>2021-02-17T11:28:28Z</time>
      </trkpt>
      <trkpt lat="45.29592" lon="6.14342">
        <ele>2740</ele>
        <time>2021-02-17T11:28:29Z</time>
      </trkpt>
      <trkpt lat="45.29593" lon="6.14343">
        <ele>2740</ele>
        <time>2021-02-17T11:28:30Z</time>
      </trkpt>
      <trkpt lat="45.29593" lon="6.14343">
        <ele>2740</ele>
        <time>2021-02-17T11:28:31Z</time>
      </trkpt>
      <trkpt lat="45.29593" lon="6.14344">
        <ele>2740.1</ele>
        <time>2021-02-17T11:28:32Z</time>
      </trkpt>
      <trkpt lat="45.29594" lon="6.14344">
        <ele>2740.1</ele>
        <time>2021-02-17T11:28:33Z</time>
      </trkpt>
      <trkpt lat="45.29594" lon="6.14345">
        <ele>2740.1</ele>
        <time>2021-02-17T11:28:34Z</time>
      </trkpt>
      <trkpt lat="45.29595" lon="6.14345">
        <ele>2740.1</ele>
        <time>2021-02-17T11:28:35Z</time>
      </trkpt>
      <trkpt lat="45.29595" lon="6.14345">
        <ele>2740.1</ele>
        <time>2021-02-17T11:28:36Z</time>
      </trkpt>
      <trkpt lat="45.29595" lon="6.14346">
        <ele>2740.1</ele>
        <time>2021-02-17T11:28:37Z</time>
      </trkpt>
      <trkpt lat="45.29595" lon="6.14347">
        <ele>2740.5</ele>
        <time>2021-02-17T11:28:38Z</time>
      </trkpt>
      <trkpt lat="45.29595" lon="6.14348">
        <ele>2740.5</ele>
        <time>2021-02-17T11:28:39Z</time>
      </trkpt>
      <trkpt lat="45.29596" lon="6.14348">
        <ele>2740.5</ele>
        <time>2021-02-17T11:28:40Z</time>
      </trkpt>
      <trkpt lat="45.29596" lon="6.14348">
        <ele>2740.5</ele>
        <time>2021-02-17T11:28:41Z</time>
      </trkpt>
      <trkpt lat="45.29596" lon="6.14348">
        <ele>2740.5</ele>
        <time>2021-02-17T11:28:42Z</time>
      </trkpt>
      <trkpt lat="45.29597" lon="6.14344">
        <ele>2740.2</ele>
        <time>2021-02-17T11:29:16Z</time>
      </trkpt>
      <trkpt lat="45.29597" lon="6.14344">
        <ele>2740.2</ele>
        <time>2021-02-17T11:29:17Z</time>
      </trkpt>
      <trkpt lat="45.29598" lon="6.14343">
        <ele>2740.2</ele>
        <time>2021-02-17T11:29:18Z</time>
      </trkpt>
      <trkpt lat="45.29597" lon="6.14343">
        <ele>2740.2</ele>
        <time>2021-02-17T11:29:19Z</time>
      </trkpt>
      <trkpt lat="45.29597" lon="6.14343">
        <ele>2740.2</ele>
        <time>2021-02-17T11:29:20Z</time>
      </trkpt>
      <trkpt lat="45.29596" lon="6.14343">
        <ele>2740.2</ele>
        <time>2021-02-17T11:29:21Z</time>
      </trkpt>
      <trkpt lat="45.29596" lon="6.14342">
        <ele>2739.8</ele>
        <time>2021-02-17T11:29:22Z</time>
      </trkpt>
      <trkpt lat="45.29595" lon="6.1434">
        <ele>2739.8</ele>
        <time>2021-02-17T11:29:23Z</time>
      </trkpt>
      <trkpt lat="45.29594" lon="6.14339">
        <ele>2739.8</ele>
        <time>2021-02-17T11:29:24Z</time>
      </trkpt>
      <trkpt lat="45.29593" lon="6.14339">
        <ele>2739.8</ele>
        <time>2021-02-17T11:29:25Z</time>
      </trkpt>
      <trkpt lat="45.29593" lon="6.14338">
        <ele>2739.7</ele>
        <time>2021-02-17T11:29:26Z</time>
      </trkpt>
      <trkpt lat="45.29593" lon="6.14337">
        <ele>2739.3</ele>
        <time>2021-02-17T11:29:27Z</time>
      </trkpt>
      <trkpt lat="45.29592" lon="6.14337">
        <ele>2739.3</ele>
        <time>2021-02-17T11:29:28Z</time>
      </trkpt>
      <trkpt lat="45.29592" lon="6.14337">
        <ele>2739.3</ele>
        <time>2021-02-17T11:29:29Z</time>
      </trkpt>
      <trkpt lat="45.29592" lon="6.14337">
        <ele>2739.3</ele>
        <time>2021-02-17T11:29:30Z</time>
      </trkpt>
      <trkpt lat="45.29592" lon="6.14337">
        <ele>2739.3</ele>
        <time>2021-02-17T11:29:31Z</time>
      </trkpt>
      <trkpt lat="45.29592" lon="6.14337">
        <ele>2739.3</ele>
        <time>2021-02-17T11:29:32Z</time>
      </trkpt>
      <trkpt lat="45.29593" lon="6.14337">
        <ele>2739.3</ele>
        <time>2021-02-17T11:29:33Z</time>
      </trkpt>
      <trkpt lat="45.29593" lon="6.14337">
        <ele>2739.3</ele>
        <time>2021-02-17T11:29:34Z</time>
      </trkpt>
      <trkpt lat="45.29593" lon="6.14337">
        <ele>2739.4</ele>
        <time>2021-02-17T11:29:35Z</time>
      </trkpt>
      <trkpt lat="45.29592" lon="6.14346">
        <ele>2740</ele>
        <time>2021-02-17T11:34:57Z</time>
      </trkpt>
      <trkpt lat="45.29592" lon="6.14346">
        <ele>2740</ele>
        <time>2021-02-17T11:34:58Z</time>
      </trkpt>
      <trkpt lat="45.29592" lon="6.14346">
        <ele>2740</ele>
        <time>2021-02-17T11:34:59Z</time>
      </trkpt>
      <trkpt lat="45.29592" lon="6.14346">
        <ele>2740</ele>
        <time>2021-02-17T11:35:00Z</time>
      </trkpt>
      <trkpt lat="45.29592" lon="6.14346">
        <ele>2740</ele>
        <time>2021-02-17T11:35:01Z</time>
      </trkpt>
      <trkpt lat="45.29592" lon="6.14346">
        <ele>2740</ele>
        <time>2021-02-17T11:35:02Z</time>
      </trkpt>
      <trkpt lat="45.29592" lon="6.14346">
        <ele>2740</ele>
        <time>2021-02-17T11:35:03Z</time>
      </trkpt>
      <trkpt lat="45.29592" lon="6.14346">
        <ele>2740</ele>
        <time>2021-02-17T11:35:04Z</time>
      </trkpt>
      <trkpt lat="45.29592" lon="6.14346">
        <ele>2740</ele>
        <time>2021-02-17T11:35:05Z</time>
      </trkpt>
      <trkpt lat="45.29592" lon="6.14346">
        <ele>2740</ele>
        <time>2021-02-17T11:35:06Z</time>
      </trkpt>
      <trkpt lat="45.29591" lon="6.14338">
        <ele>2739.7</ele>
        <time>2021-02-17T11:36:33Z</time>
      </trkpt>
      <trkpt lat="45.29591" lon="6.14339">
        <ele>2739.7</ele>
        <time>2021-02-17T11:36:34Z</time>
      </trkpt>
      <trkpt lat="45.29591" lon="6.14341">
        <ele>2739.7</ele>
        <time>2021-02-17T11:36:35Z</time>
      </trkpt>
      <trkpt lat="45.2959" lon="6.14342">
        <ele>2739.7</ele>
        <time>2021-02-17T11:36:36Z</time>
      </trkpt>
      <trkpt lat="45.2959" lon="6.14342">
        <ele>2739.9</ele>
        <time>2021-02-17T11:36:37Z</time>
      </trkpt>
      <trkpt lat="45.2959" lon="6.14343">
        <ele>2739.9</ele>
        <time>2021-02-17T11:36:38Z</time>
      </trkpt>
      <trkpt lat="45.2959" lon="6.14343">
        <ele>2739.9</ele>
        <time>2021-02-17T11:36:39Z</time>
      </trkpt>
      <trkpt lat="45.2959" lon="6.14344">
        <ele>2739.9</ele>
        <time>2021-02-17T11:36:40Z</time>
      </trkpt>
      <trkpt lat="45.2959" lon="6.14345">
        <ele>2740</ele>
        <time>2021-02-17T11:36:41Z</time>
      </trkpt>
      <trkpt lat="45.2959" lon="6.14345">
        <ele>2740</ele>
        <time>2021-02-17T11:36:42Z</time>
      </trkpt>
      <trkpt lat="45.2959" lon="6.14345">
        <ele>2740</ele>
        <time>2021-02-17T11:36:43Z</time>
      </trkpt>
      <trkpt lat="45.2959" lon="6.14345">
        <ele>2740</ele>
        <time>2021-02-17T11:36:44Z</time>
      </trkpt>
      <trkpt lat="45.29591" lon="6.14345">
        <ele>2740</ele>
        <time>2021-02-17T11:36:45Z</time>
      </trkpt>
      <trkpt lat="45.29591" lon="6.14345">
        <ele>2740</ele>
        <time>2021-02-17T11:36:46Z</time>
      </trkpt>
      <trkpt lat="45.29589" lon="6.14341">
        <ele>2739.5</ele>
        <time>2021-02-17T11:37:42Z</time>
      </trkpt>
      <trkpt lat="45.29589" lon="6.14341">
        <ele>2739.5</ele>
        <time>2021-02-17T11:37:43Z</time>
      </trkpt>
      <trkpt lat="45.29589" lon="6.14341">
        <ele>2739.5</ele>
        <time>2021-02-17T11:37:44Z</time>
      </trkpt>
      <trkpt lat="45.29589" lon="6.14341">
        <ele>2739.5</ele>
        <time>2021-02-17T11:37:45Z</time>
      </trkpt>
      <trkpt lat="45.29589" lon="6.1434">
        <ele>2739.5</ele>
        <time>2021-02-17T11:37:46Z</time>
      </trkpt>
      <trkpt lat="45.29589" lon="6.1434">
        <ele>2739.5</ele>
        <time>2021-02-17T11:37:47Z</time>
      </trkpt>
      <trkpt lat="45.29589" lon="6.1434">
        <ele>2739.5</ele>
        <time>2021-02-17T11:37:48Z</time>
      </trkpt>
      <trkpt lat="45.29589" lon="6.1434">
        <ele>2739.5</ele>
        <time>2021-02-17T11:37:49Z</time>
      </trkpt>
      <trkpt lat="45.29589" lon="6.1434">
        <ele>2739.5</ele>
        <time>2021-02-17T11:37:50Z</time>
      </trkpt>
      <trkpt lat="45.29589" lon="6.1434">
        <ele>2739.5</ele>
        <time>2021-02-17T11:37:51Z</time>
      </trkpt>
      <trkpt lat="45.29589" lon="6.1434">
        <ele>2739.5</ele>
        <time>2021-02-17T11:37:52Z</time>
      </trkpt>
      <trkpt lat="45.29582" lon="6.14323">
        <ele>2737.2</ele>
        <time>2021-02-17T11:52:16Z</time>
      </trkpt>
      <trkpt lat="45.29582" lon="6.14322">
        <ele>2737.2</ele>
        <time>2021-02-17T11:52:17Z</time>
      </trkpt>
      <trkpt lat="45.29583" lon="6.14321">
        <ele>2737.2</ele>
        <time>2021-02-17T11:52:18Z</time>
      </trkpt>
      <trkpt lat="45.29583" lon="6.14321">
        <ele>2737.2</ele>
        <time>2021-02-17T11:52:19Z</time>
      </trkpt>
      <trkpt lat="45.29584" lon="6.1432">
        <ele>2737.2</ele>
        <time>2021-02-17T11:52:20Z</time>
      </trkpt>
      <trkpt lat="45.29584" lon="6.1432">
        <ele>2736.9</ele>
        <time>2021-02-17T11:52:21Z</time>
      </trkpt>
      <trkpt lat="45.29584" lon="6.1432">
        <ele>2736.9</ele>
        <time>2021-02-17T11:52:22Z</time>
      </trkpt>
      <trkpt lat="45.29585" lon="6.14321">
        <ele>2737.5</ele>
        <time>2021-02-17T11:52:23Z</time>
      </trkpt>
      <trkpt lat="45.29585" lon="6.14321">
        <ele>2737.5</ele>
        <time>2021-02-17T11:52:24Z</time>
      </trkpt>
      <trkpt lat="45.29585" lon="6.14322">
        <ele>2737.5</ele>
        <time>2021-02-17T11:52:25Z</time>
      </trkpt>
      <trkpt lat="45.29585" lon="6.14323">
        <ele>2737.5</ele>
        <time>2021-02-17T11:52:26Z</time>
      </trkpt>
      <trkpt lat="45.29585" lon="6.14323">
        <ele>2737.5</ele>
        <time>2021-02-17T11:52:27Z</time>
      </trkpt>
      <trkpt lat="45.29585" lon="6.14323">
        <ele>2737.5</ele>
        <time>2021-02-17T11:52:28Z</time>
      </trkpt>
      <trkpt lat="45.29584" lon="6.14325">
        <ele>2737.7</ele>
        <time>2021-02-17T11:52:29Z</time>
      </trkpt>
      <trkpt lat="45.29581" lon="6.14319">
        <ele>2736.4</ele>
        <time>2021-02-17T11:52:49Z</time>
      </trkpt>
      <trkpt lat="45.2958" lon="6.14317">
        <ele>2736.4</ele>
        <time>2021-02-17T11:52:50Z</time>
      </trkpt>
      <trkpt lat="45.29578" lon="6.14317">
        <ele>2736.4</ele>
        <time>2021-02-17T11:52:51Z</time>
      </trkpt>
      <trkpt lat="45.29578" lon="6.14319">
        <ele>2736.1</ele>
        <time>2021-02-17T11:52:52Z</time>
      </trkpt>
      <trkpt lat="45.29578" lon="6.1432">
        <ele>2736.1</ele>
        <time>2021-02-17T11:52:53Z</time>
      </trkpt>
      <trkpt lat="45.29577" lon="6.14321">
        <ele>2736.6</ele>
        <time>2021-02-17T11:52:54Z</time>
      </trkpt>
      <trkpt lat="45.29578" lon="6.14327">
        <ele>2737.1</ele>
        <time>2021-02-17T11:52:55Z</time>
      </trkpt>
      <trkpt lat="45.29578" lon="6.14329">
        <ele>2737.9</ele>
        <time>2021-02-17T11:52:56Z</time>
      </trkpt>
      <trkpt lat="45.29578" lon="6.14336">
        <ele>2738.3</ele>
        <time>2021-02-17T11:52:57Z</time>
      </trkpt>
      <trkpt lat="45.29577" lon="6.14345">
        <ele>2738.8</ele>
        <time>2021-02-17T11:52:58Z</time>
      </trkpt>
      <trkpt lat="45.29575" lon="6.14353">
        <ele>2739.6</ele>
        <time>2021-02-17T11:52:59Z</time>
      </trkpt>
      <trkpt lat="45.29573" lon="6.1436">
        <ele>2740.1</ele>
        <time>2021-02-17T11:53:00Z</time>
      </trkpt>
      <trkpt lat="45.29571" lon="6.14364">
        <ele>2740.1</ele>
        <time>2021-02-17T11:53:01Z</time>
      </trkpt>
      <trkpt lat="45.29569" lon="6.14368">
        <ele>2740.5</ele>
        <time>2021-02-17T11:53:02Z</time>
      </trkpt>
      <trkpt lat="45.29567" lon="6.14372">
        <ele>2740.1</ele>
        <time>2021-02-17T11:53:03Z</time>
      </trkpt>
      <trkpt lat="45.29566" lon="6.14373">
        <ele>2740</ele>
        <time>2021-02-17T11:53:04Z</time>
      </trkpt>
      <trkpt lat="45.29563" lon="6.14376">
        <ele>2740</ele>
        <time>2021-02-17T11:53:05Z</time>
      </trkpt>
      <trkpt lat="45.29561" lon="6.14378">
        <ele>2739.8</ele>
        <time>2021-02-17T11:53:06Z</time>
      </trkpt>
      <trkpt lat="45.2956" lon="6.14378">
        <ele>2739.1</ele>
        <time>2021-02-17T11:53:07Z</time>
      </trkpt>
      <trkpt lat="45.29558" lon="6.14377">
        <ele>2739.1</ele>
        <time>2021-02-17T11:53:08Z</time>
      </trkpt>
      <trkpt lat="45.29557" lon="6.14373">
        <ele>2738.8</ele>
        <time>2021-02-17T11:53:09Z</time>
      </trkpt>
      <trkpt lat="45.29556" lon="6.14368">
        <ele>2737.6</ele>
        <time>2021-02-17T11:53:10Z</time>
      </trkpt>
      <trkpt lat="45.29556" lon="6.14365">
        <ele>2737.3</ele>
        <time>2021-02-17T11:53:11Z</time>
      </trkpt>
      <trkpt lat="45.29554" lon="6.14365">
        <ele>2737.3</ele>
        <time>2021-02-17T11:53:12Z</time>
      </trkpt>
      <trkpt lat="45.29552" lon="6.14369">
        <ele>2736.8</ele>
        <time>2021-02-17T11:53:13Z</time>
      </trkpt>
      <trkpt lat="45.29551" lon="6.1437">
        <ele>2735.9</ele>
        <time>2021-02-17T11:53:14Z</time>
      </trkpt>
      <trkpt lat="45.29548" lon="6.14371">
        <ele>2735</ele>
        <time>2021-02-17T11:53:15Z</time>
      </trkpt>
      <trkpt lat="45.29546" lon="6.1437">
        <ele>2735</ele>
        <time>2021-02-17T11:53:16Z</time>
      </trkpt>
      <trkpt lat="45.29544" lon="6.14366">
        <ele>2733.9</ele>
        <time>2021-02-17T11:53:17Z</time>
      </trkpt>
      <trkpt lat="45.29543" lon="6.14362">
        <ele>2733.6</ele>
        <time>2021-02-17T11:53:18Z</time>
      </trkpt>
      <trkpt lat="45.29542" lon="6.14361">
        <ele>2733.6</ele>
        <time>2021-02-17T11:53:19Z</time>
      </trkpt>
      <trkpt lat="45.29541" lon="6.14361">
        <ele>2732.7</ele>
        <time>2021-02-17T11:53:20Z</time>
      </trkpt>
      <trkpt lat="45.2954" lon="6.14363">
        <ele>2733</ele>
        <time>2021-02-17T11:53:21Z</time>
      </trkpt>
      <trkpt lat="45.29539" lon="6.14366">
        <ele>2733</ele>
        <time>2021-02-17T11:53:22Z</time>
      </trkpt>
      <trkpt lat="45.29539" lon="6.14368">
        <ele>2733.2</ele>
        <time>2021-02-17T11:53:23Z</time>
      </trkpt>
      <trkpt lat="45.29538" lon="6.14368">
        <ele>2732.2</ele>
        <time>2021-02-17T11:53:24Z</time>
      </trkpt>
      <trkpt lat="45.29538" lon="6.14368">
        <ele>2732.2</ele>
        <time>2021-02-17T11:53:25Z</time>
      </trkpt>
      <trkpt lat="45.29537" lon="6.14369">
        <ele>2732.2</ele>
        <time>2021-02-17T11:53:26Z</time>
      </trkpt>
      <trkpt lat="45.29537" lon="6.14369">
        <ele>2732.2</ele>
        <time>2021-02-17T11:53:27Z</time>
      </trkpt>
      <trkpt lat="45.29537" lon="6.1437">
        <ele>2732.2</ele>
        <time>2021-02-17T11:53:28Z</time>
      </trkpt>
      <trkpt lat="45.29536" lon="6.1437">
        <ele>2732.2</ele>
        <time>2021-02-17T11:53:29Z</time>
      </trkpt>
      <trkpt lat="45.29536" lon="6.1437">
        <ele>2731.1</ele>
        <time>2021-02-17T11:53:30Z</time>
      </trkpt>
      <trkpt lat="45.29534" lon="6.14374">
        <ele>2731.3</ele>
        <time>2021-02-17T11:53:31Z</time>
      </trkpt>
      <trkpt lat="45.29533" lon="6.14374">
        <ele>2731.3</ele>
        <time>2021-02-17T11:53:32Z</time>
      </trkpt>
      <trkpt lat="45.29532" lon="6.14374">
        <ele>2730</ele>
        <time>2021-02-17T11:53:33Z</time>
      </trkpt>
      <trkpt lat="45.29532" lon="6.14372">
        <ele>2730</ele>
        <time>2021-02-17T11:53:34Z</time>
      </trkpt>
      <trkpt lat="45.29531" lon="6.14371">
        <ele>2729.8</ele>
        <time>2021-02-17T11:53:35Z</time>
      </trkpt>
      <trkpt lat="45.29531" lon="6.14369">
        <ele>2729.8</ele>
        <time>2021-02-17T11:53:36Z</time>
      </trkpt>
      <trkpt lat="45.29531" lon="6.14366">
        <ele>2729.6</ele>
        <time>2021-02-17T11:53:37Z</time>
      </trkpt>
      <trkpt lat="45.29531" lon="6.14364">
        <ele>2729.6</ele>
        <time>2021-02-17T11:53:38Z</time>
      </trkpt>
      <trkpt lat="45.2953" lon="6.14363">
        <ele>2729.4</ele>
        <time>2021-02-17T11:53:39Z</time>
      </trkpt>
      <trkpt lat="45.29528" lon="6.14364">
        <ele>2728.2</ele>
        <time>2021-02-17T11:53:40Z</time>
      </trkpt>
      <trkpt lat="45.29525" lon="6.14367">
        <ele>2726.8</ele>
        <time>2021-02-17T11:53:41Z</time>
      </trkpt>
      <trkpt lat="45.29521" lon="6.14368">
        <ele>2725.6</ele>
        <time>2021-02-17T11:53:42Z</time>
      </trkpt>
      <trkpt lat="45.29517" lon="6.1437">
        <ele>2722.9</ele>
        <time>2021-02-17T11:53:43Z</time>
      </trkpt>
      <trkpt lat="45.29513" lon="6.14373">
        <ele>2721.6</ele>
        <time>2021-02-17T11:53:44Z</time>
      </trkpt>
      <trkpt lat="45.29508" lon="6.14377">
        <ele>2718.5</ele>
        <time>2021-02-17T11:53:45Z</time>
      </trkpt>
      <trkpt lat="45.29505" lon="6.14383">
        <ele>2717</ele>
        <time>2021-02-17T11:53:46Z</time>
      </trkpt>
      <trkpt lat="45.29502" lon="6.1439">
        <ele>2715.8</ele>
        <time>2021-02-17T11:53:47Z</time>
      </trkpt>
      <trkpt lat="45.295" lon="6.14395">
        <ele>2716.1</ele>
        <time>2021-02-17T11:53:48Z</time>
      </trkpt>
      <trkpt lat="45.29499" lon="6.14399">
        <ele>2714.9</ele>
        <time>2021-02-17T11:53:49Z</time>
      </trkpt>
      <trkpt lat="45.29498" lon="6.14398">
        <ele>2714.9</ele>
        <time>2021-02-17T11:53:50Z</time>
      </trkpt>
      <trkpt lat="45.29498" lon="6.14396">
        <ele>2714.4</ele>
        <time>2021-02-17T11:53:51Z</time>
      </trkpt>
      <trkpt lat="45.29499" lon="6.14393">
        <ele>2714.1</ele>
        <time>2021-02-17T11:53:52Z</time>
      </trkpt>
      <trkpt lat="45.295" lon="6.14383">
        <ele>2715.3</ele>
        <time>2021-02-17T11:53:53Z</time>
      </trkpt>
      <trkpt lat="45.29502" lon="6.14373">
        <ele>2715</ele>
        <time>2021-02-17T11:53:54Z</time>
      </trkpt>
      <trkpt lat="45.29503" lon="6.14366">
        <ele>2716.6</ele>
        <time>2021-02-17T11:53:55Z</time>
      </trkpt>
      <trkpt lat="45.29504" lon="6.14361">
        <ele>2716.6</ele>
        <time>2021-02-17T11:53:56Z</time>
      </trkpt>
      <trkpt lat="45.29503" lon="6.14357">
        <ele>2715</ele>
        <time>2021-02-17T11:53:57Z</time>
      </trkpt>
      <trkpt lat="45.29502" lon="6.14356">
        <ele>2715</ele>
        <time>2021-02-17T11:53:58Z</time>
      </trkpt>
      <trkpt lat="45.29499" lon="6.14352">
        <ele>2713.5</ele>
        <time>2021-02-17T11:53:59Z</time>
      </trkpt>
      <trkpt lat="45.29496" lon="6.14346">
        <ele>2712.1</ele>
        <time>2021-02-17T11:54:00Z</time>
      </trkpt>
      <trkpt lat="45.29492" lon="6.1434">
        <ele>2710.7</ele>
        <time>2021-02-17T11:54:01Z</time>
      </trkpt>
      <trkpt lat="45.29487" lon="6.14335">
        <ele>2707.8</ele>
        <time>2021-02-17T11:54:02Z</time>
      </trkpt>
      <trkpt lat="45.29479" lon="6.14335">
        <ele>2704.6</ele>
        <time>2021-02-17T11:54:03Z</time>
      </trkpt>
      <trkpt lat="45.29467" lon="6.14333">
        <ele>2697.6</ele>
        <time>2021-02-17T11:54:04Z</time>
      </trkpt>
      <trkpt lat="45.29457" lon="6.14336">
        <ele>2691.4</ele>
        <time>2021-02-17T11:54:05Z</time>
      </trkpt>
      <trkpt lat="45.2945" lon="6.14332">
        <ele>2688.8</ele>
        <time>2021-02-17T11:54:06Z</time>
      </trkpt>
      <trkpt lat="45.29441" lon="6.14332">
        <ele>2684.1</ele>
        <time>2021-02-17T11:54:07Z</time>
      </trkpt>
      <trkpt lat="45.29437" lon="6.14336">
        <ele>2682.3</ele>
        <time>2021-02-17T11:54:08Z</time>
      </trkpt>
      <trkpt lat="45.29437" lon="6.14342">
        <ele>2681.7</ele>
        <time>2021-02-17T11:54:09Z</time>
      </trkpt>
      <trkpt lat="45.29436" lon="6.14351">
        <ele>2681.4</ele>
        <time>2021-02-17T11:54:10Z</time>
      </trkpt>
      <trkpt lat="45.29437" lon="6.14352">
        <ele>2681.4</ele>
        <time>2021-02-17T11:54:11Z</time>
      </trkpt>
      <trkpt lat="45.29437" lon="6.14354">
        <ele>2681.4</ele>
        <time>2021-02-17T11:54:12Z</time>
      </trkpt>
      <trkpt lat="45.29436" lon="6.14355">
        <ele>2681.3</ele>
        <time>2021-02-17T11:54:13Z</time>
      </trkpt>
      <trkpt lat="45.29436" lon="6.14356">
        <ele>2679.9</ele>
        <time>2021-02-17T11:54:14Z</time>
      </trkpt>
      <trkpt lat="45.29436" lon="6.14357">
        <ele>2679.9</ele>
        <time>2021-02-17T11:54:15Z</time>
      </trkpt>
      <trkpt lat="45.29436" lon="6.14358">
        <ele>2679.9</ele>
        <time>2021-02-17T11:54:16Z</time>
      </trkpt>
      <trkpt lat="45.29435" lon="6.14358">
        <ele>2679.9</ele>
        <time>2021-02-17T11:54:17Z</time>
      </trkpt>
      <trkpt lat="45.29435" lon="6.14359">
        <ele>2679.8</ele>
        <time>2021-02-17T11:54:18Z</time>
      </trkpt>
      <trkpt lat="45.29435" lon="6.1436">
        <ele>2679.8</ele>
        <time>2021-02-17T11:54:19Z</time>
      </trkpt>
      <trkpt lat="45.29435" lon="6.14361">
        <ele>2679.8</ele>
        <time>2021-02-17T11:54:20Z</time>
      </trkpt>
      <trkpt lat="45.29433" lon="6.14366">
        <ele>2679.9</ele>
        <time>2021-02-17T11:54:21Z</time>
      </trkpt>
      <trkpt lat="45.29432" lon="6.14371">
        <ele>2678.5</ele>
        <time>2021-02-17T11:54:22Z</time>
      </trkpt>
      <trkpt lat="45.29431" lon="6.14376">
        <ele>2678.6</ele>
        <time>2021-02-17T11:54:23Z</time>
      </trkpt>
      <trkpt lat="45.2943" lon="6.14381">
        <ele>2677.6</ele>
        <time>2021-02-17T11:57:53Z</time>
      </trkpt>
      <trkpt lat="45.29429" lon="6.14385">
        <ele>2677.9</ele>
        <time>2021-02-17T11:57:54Z</time>
      </trkpt>
      <trkpt lat="45.29427" lon="6.14389">
        <ele>2677.9</ele>
        <time>2021-02-17T11:57:55Z</time>
      </trkpt>
      <trkpt lat="45.29425" lon="6.14393">
        <ele>2676.7</ele>
        <time>2021-02-17T11:57:56Z</time>
      </trkpt>
      <trkpt lat="45.29423" lon="6.14398">
        <ele>2676.1</ele>
        <time>2021-02-17T11:57:57Z</time>
      </trkpt>
      <trkpt lat="45.2942" lon="6.14403">
        <ele>2675</ele>
        <time>2021-02-17T11:57:58Z</time>
      </trkpt>
      <trkpt lat="45.29416" lon="6.14409">
        <ele>2674.1</ele>
        <time>2021-02-17T11:57:59Z</time>
      </trkpt>
      <trkpt lat="45.29412" lon="6.14416">
        <ele>2674</ele>
        <time>2021-02-17T11:58:00Z</time>
      </trkpt>
      <trkpt lat="45.29409" lon="6.14423">
        <ele>2674</ele>
        <time>2021-02-17T11:58:01Z</time>
      </trkpt>
      <trkpt lat="45.29407" lon="6.14419">
        <ele>2670.8</ele>
        <time>2021-02-17T11:58:02Z</time>
      </trkpt>
      <trkpt lat="45.29406" lon="6.14416">
        <ele>2669.2</ele>
        <time>2021-02-17T11:58:03Z</time>
      </trkpt>
      <trkpt lat="45.29401" lon="6.14414">
        <ele>2666.8</ele>
        <time>2021-02-17T11:58:04Z</time>
      </trkpt>
      <trkpt lat="45.29393" lon="6.14415">
        <ele>2662.6</ele>
        <time>2021-02-17T11:58:05Z</time>
      </trkpt>
      <trkpt lat="45.29388" lon="6.14412">
        <ele>2660</ele>
        <time>2021-02-17T11:58:06Z</time>
      </trkpt>
      <trkpt lat="45.29382" lon="6.14411">
        <ele>2654.5</ele>
        <time>2021-02-17T11:58:07Z</time>
      </trkpt>
      <trkpt lat="45.29375" lon="6.14411">
        <ele>2651.4</ele>
        <time>2021-02-17T11:58:08Z</time>
      </trkpt>
      <trkpt lat="45.29372" lon="6.1442">
        <ele>2651.3</ele>
        <time>2021-02-17T11:58:09Z</time>
      </trkpt>
      <trkpt lat="45.2937" lon="6.14416">
        <ele>2650.6</ele>
        <time>2021-02-17T11:58:10Z</time>
      </trkpt>
      <trkpt lat="45.29363" lon="6.14415">
        <ele>2645.8</ele>
        <time>2021-02-17T11:58:11Z</time>
      </trkpt>
      <trkpt lat="45.29357" lon="6.14417">
        <ele>2642.4</ele>
        <time>2021-02-17T11:58:12Z</time>
      </trkpt>
      <trkpt lat="45.29351" lon="6.14424">
        <ele>2640.4</ele>
        <time>2021-02-17T11:58:13Z</time>
      </trkpt>
      <trkpt lat="45.29347" lon="6.14426">
        <ele>2639</ele>
        <time>2021-02-17T11:58:14Z</time>
      </trkpt>
      <trkpt lat="45.29343" lon="6.14431">
        <ele>2636.4</ele>
        <time>2021-02-17T11:58:15Z</time>
      </trkpt>
      <trkpt lat="45.29337" lon="6.14432">
        <ele>2634.6</ele>
        <time>2021-02-17T11:58:16Z</time>
      </trkpt>
      <trkpt lat="45.29333" lon="6.14432">
        <ele>2631.3</ele>
        <time>2021-02-17T11:58:17Z</time>
      </trkpt>
      <trkpt lat="45.29329" lon="6.14432">
        <ele>2629.5</ele>
        <time>2021-02-17T11:58:18Z</time>
      </trkpt>
      <trkpt lat="45.29326" lon="6.14421">
        <ele>2626.9</ele>
        <time>2021-02-17T11:58:19Z</time>
      </trkpt>
      <trkpt lat="45.29319" lon="6.1442">
        <ele>2623.7</ele>
        <time>2021-02-17T11:58:20Z</time>
      </trkpt>
      <trkpt lat="45.29316" lon="6.14421">
        <ele>2622.1</ele>
        <time>2021-02-17T11:58:21Z</time>
      </trkpt>
      <trkpt lat="45.29314" lon="6.14416">
        <ele>2620.3</ele>
        <time>2021-02-17T11:58:22Z</time>
      </trkpt>
      <trkpt lat="45.29315" lon="6.14412">
        <ele>2620.2</ele>
        <time>2021-02-17T11:58:23Z</time>
      </trkpt>
      <trkpt lat="45.29316" lon="6.1441">
        <ele>2621.8</ele>
        <time>2021-02-17T11:58:24Z</time>
      </trkpt>
      <trkpt lat="45.29315" lon="6.14409">
        <ele>2620.2</ele>
        <time>2021-02-17T11:58:25Z</time>
      </trkpt>
      <trkpt lat="45.29313" lon="6.14408">
        <ele>2620.2</ele>
        <time>2021-02-17T11:58:26Z</time>
      </trkpt>
      <trkpt lat="45.29313" lon="6.14408">
        <ele>2620.2</ele>
        <time>2021-02-17T11:58:27Z</time>
      </trkpt>
      <trkpt lat="45.29314" lon="6.14407">
        <ele>2620.2</ele>
        <time>2021-02-17T11:58:28Z</time>
      </trkpt>
      <trkpt lat="45.29314" lon="6.14407">
        <ele>2620.2</ele>
        <time>2021-02-17T11:58:29Z</time>
      </trkpt>
      <trkpt lat="45.29314" lon="6.14407">
        <ele>2620.2</ele>
        <time>2021-02-17T11:58:30Z</time>
      </trkpt>
      <trkpt lat="45.29314" lon="6.14406">
        <ele>2620.2</ele>
        <time>2021-02-17T11:58:31Z</time>
      </trkpt>
      <trkpt lat="45.29315" lon="6.14406">
        <ele>2620.2</ele>
        <time>2021-02-17T11:58:32Z</time>
      </trkpt>
      <trkpt lat="45.29315" lon="6.14405">
        <ele>2620.2</ele>
        <time>2021-02-17T11:58:33Z</time>
      </trkpt>
      <trkpt lat="45.29315" lon="6.14405">
        <ele>2620.2</ele>
        <time>2021-02-17T11:58:34Z</time>
      </trkpt>
      <trkpt lat="45.29315" lon="6.14405">
        <ele>2620.2</ele>
        <time>2021-02-17T11:58:35Z</time>
      </trkpt>
      <trkpt lat="45.29315" lon="6.14404">
        <ele>2620.2</ele>
        <time>2021-02-17T11:58:36Z</time>
      </trkpt>
      <trkpt lat="45.29316" lon="6.14404">
        <ele>2621.7</ele>
        <time>2021-02-17T11:59:09Z</time>
      </trkpt>
      <trkpt lat="45.29316" lon="6.14403">
        <ele>2621.7</ele>
        <time>2021-02-17T11:59:10Z</time>
      </trkpt>
      <trkpt lat="45.29312" lon="6.14401">
        <ele>2618.6</ele>
        <time>2021-02-17T11:59:11Z</time>
      </trkpt>
      <trkpt lat="45.29308" lon="6.14398">
        <ele>2617</ele>
        <time>2021-02-17T11:59:12Z</time>
      </trkpt>
      <trkpt lat="45.29305" lon="6.14397">
        <ele>2615.4</ele>
        <time>2021-02-17T11:59:13Z</time>
      </trkpt>
      <trkpt lat="45.29301" lon="6.14398">
        <ele>2613.5</ele>
        <time>2021-02-17T11:59:14Z</time>
      </trkpt>
      <trkpt lat="45.29297" lon="6.14401">
        <ele>2610</ele>
        <time>2021-02-17T11:59:15Z</time>
      </trkpt>
      <trkpt lat="45.29292" lon="6.14404">
        <ele>2608.2</ele>
        <time>2021-02-17T11:59:16Z</time>
      </trkpt>
      <trkpt lat="45.29287" lon="6.14408">
        <ele>2605.1</ele>
        <time>2021-02-17T11:59:17Z</time>
      </trkpt>
      <trkpt lat="45.29283" lon="6.14412">
        <ele>2603.5</ele>
        <time>2021-02-17T11:59:18Z</time>
      </trkpt>
      <trkpt lat="45.29279" lon="6.14417">
        <ele>2600.1</ele>
        <time>2021-02-17T11:59:19Z</time>
      </trkpt>
      <trkpt lat="45.29274" lon="6.14415">
        <ele>2598.3</ele>
        <time>2021-02-17T11:59:20Z</time>
      </trkpt>
      <trkpt lat="45.29271" lon="6.1441">
        <ele>2596.5</ele>
        <time>2021-02-17T11:59:21Z</time>
      </trkpt>
      <trkpt lat="45.29266" lon="6.14409">
        <ele>2593.4</ele>
        <time>2021-02-17T11:59:22Z</time>
      </trkpt>
      <trkpt lat="45.29262" lon="6.14409">
        <ele>2592</ele>
        <time>2021-02-17T11:59:23Z</time>
      </trkpt>
      <trkpt lat="45.29257" lon="6.14415">
        <ele>2589.2</ele>
        <time>2021-02-17T11:59:24Z</time>
      </trkpt>
      <trkpt lat="45.29253" lon="6.14414">
        <ele>2587.5</ele>
        <time>2021-02-17T11:59:25Z</time>
      </trkpt>
      <trkpt lat="45.29248" lon="6.14419">
        <ele>2584.2</ele>
        <time>2021-02-17T11:59:26Z</time>
      </trkpt>
      <trkpt lat="45.29248" lon="6.14409">
        <ele>2583.9</ele>
        <time>2021-02-17T11:59:27Z</time>
      </trkpt>
      <trkpt lat="45.29245" lon="6.14406">
        <ele>2582</ele>
        <time>2021-02-17T11:59:28Z</time>
      </trkpt>
      <trkpt lat="45.29242" lon="6.14408">
        <ele>2580.6</ele>
        <time>2021-02-17T11:59:29Z</time>
      </trkpt>
      <trkpt lat="45.29235" lon="6.14412">
        <ele>2577.8</ele>
        <time>2021-02-17T11:59:30Z</time>
      </trkpt>
      <trkpt lat="45.29227" lon="6.14413">
        <ele>2572.7</ele>
        <time>2021-02-17T11:59:31Z</time>
      </trkpt>
      <trkpt lat="45.29223" lon="6.14406">
        <ele>2570.5</ele>
        <time>2021-02-17T11:59:32Z</time>
      </trkpt>
      <trkpt lat="45.2922" lon="6.14401">
        <ele>2568.2</ele>
        <time>2021-02-17T11:59:33Z</time>
      </trkpt>
      <trkpt lat="45.29211" lon="6.14394">
        <ele>2562.4</ele>
        <time>2021-02-17T11:59:34Z</time>
      </trkpt>
      <trkpt lat="45.29207" lon="6.14392">
        <ele>2560.5</ele>
        <time>2021-02-17T11:59:35Z</time>
      </trkpt>
      <trkpt lat="45.29207" lon="6.14393">
        <ele>2560.7</ele>
        <time>2021-02-17T11:59:36Z</time>
      </trkpt>
      <trkpt lat="45.29208" lon="6.14396">
        <ele>2560.7</ele>
        <time>2021-02-17T11:59:37Z</time>
      </trkpt>
      <trkpt lat="45.29208" lon="6.14398">
        <ele>2560.9</ele>
        <time>2021-02-17T11:59:38Z</time>
      </trkpt>
      <trkpt lat="45.29208" lon="6.14401">
        <ele>2560.9</ele>
        <time>2021-02-17T11:59:39Z</time>
      </trkpt>
      <trkpt lat="45.29209" lon="6.14403">
        <ele>2561.2</ele>
        <time>2021-02-17T11:59:40Z</time>
      </trkpt>
      <trkpt lat="45.29209" lon="6.14403">
        <ele>2561.2</ele>
        <time>2021-02-17T11:59:41Z</time>
      </trkpt>
      <trkpt lat="45.29209" lon="6.14403">
        <ele>2561.2</ele>
        <time>2021-02-17T11:59:42Z</time>
      </trkpt>
      <trkpt lat="45.29209" lon="6.14403">
        <ele>2561.2</ele>
        <time>2021-02-17T11:59:43Z</time>
      </trkpt>
      <trkpt lat="45.29209" lon="6.14403">
        <ele>2561.2</ele>
        <time>2021-02-17T11:59:44Z</time>
      </trkpt>
      <trkpt lat="45.29209" lon="6.14403">
        <ele>2561.2</ele>
        <time>2021-02-17T11:59:45Z</time>
      </trkpt>
      <trkpt lat="45.29209" lon="6.14403">
        <ele>2561.2</ele>
        <time>2021-02-17T11:59:46Z</time>
      </trkpt>
      <trkpt lat="45.29209" lon="6.14403">
        <ele>2561.2</ele>
        <time>2021-02-17T11:59:47Z</time>
      </trkpt>
      <trkpt lat="45.29209" lon="6.14403">
        <ele>2561.2</ele>
        <time>2021-02-17T11:59:48Z</time>
      </trkpt>
      <trkpt lat="45.29209" lon="6.14403">
        <ele>2561.2</ele>
        <time>2021-02-17T12:02:17Z</time>
      </trkpt>
      <trkpt lat="45.29209" lon="6.14403">
        <ele>2561.2</ele>
        <time>2021-02-17T12:02:18Z</time>
      </trkpt>
      <trkpt lat="45.29209" lon="6.14403">
        <ele>2561.2</ele>
        <time>2021-02-17T12:02:19Z</time>
      </trkpt>
      <trkpt lat="45.29209" lon="6.14403">
        <ele>2561.2</ele>
        <time>2021-02-17T12:02:20Z</time>
      </trkpt>
      <trkpt lat="45.29209" lon="6.14403">
        <ele>2561.2</ele>
        <time>2021-02-17T12:02:21Z</time>
      </trkpt>
      <trkpt lat="45.29209" lon="6.14403">
        <ele>2561.2</ele>
        <time>2021-02-17T12:02:22Z</time>
      </trkpt>
      <trkpt lat="45.29209" lon="6.14403">
        <ele>2561.2</ele>
        <time>2021-02-17T12:02:23Z</time>
      </trkpt>
      <trkpt lat="45.29209" lon="6.14403">
        <ele>2561.2</ele>
        <time>2021-02-17T12:02:24Z</time>
      </trkpt>
      <trkpt lat="45.29209" lon="6.14403">
        <ele>2561.2</ele>
        <time>2021-02-17T12:02:25Z</time>
      </trkpt>
      <trkpt lat="45.29209" lon="6.14403">
        <ele>2561.2</ele>
        <time>2021-02-17T12:02:26Z</time>
      </trkpt>
      <trkpt lat="45.29209" lon="6.14403">
        <ele>2561.2</ele>
        <time>2021-02-17T12:02:27Z</time>
      </trkpt>
      <trkpt lat="45.29209" lon="6.14403">
        <ele>2561.2</ele>
        <time>2021-02-17T12:02:28Z</time>
      </trkpt>
      <trkpt lat="45.29209" lon="6.14403">
        <ele>2561.2</ele>
        <time>2021-02-17T12:02:29Z</time>
      </trkpt>
      <trkpt lat="45.29209" lon="6.14403">
        <ele>2561.2</ele>
        <time>2021-02-17T12:02:30Z</time>
      </trkpt>
      <trkpt lat="45.29209" lon="6.14402">
        <ele>2561.2</ele>
        <time>2021-02-17T12:02:31Z</time>
      </trkpt>
      <trkpt lat="45.29208" lon="6.14413">
        <ele>2561.9</ele>
        <time>2021-02-17T12:02:47Z</time>
      </trkpt>
      <trkpt lat="45.29208" lon="6.14419">
        <ele>2562.3</ele>
        <time>2021-02-17T12:02:48Z</time>
      </trkpt>
      <trkpt lat="45.29208" lon="6.14425">
        <ele>2563.3</ele>
        <time>2021-02-17T12:02:49Z</time>
      </trkpt>
      <trkpt lat="45.29208" lon="6.14431">
        <ele>2563.9</ele>
        <time>2021-02-17T12:02:50Z</time>
      </trkpt>
      <trkpt lat="45.29208" lon="6.14439">
        <ele>2565.2</ele>
        <time>2021-02-17T12:02:51Z</time>
      </trkpt>
      <trkpt lat="45.29206" lon="6.14452">
        <ele>2566.1</ele>
        <time>2021-02-17T12:02:52Z</time>
      </trkpt>
      <trkpt lat="45.29204" lon="6.14465">
        <ele>2567.1</ele>
        <time>2021-02-17T12:02:53Z</time>
      </trkpt>
      <trkpt lat="45.292" lon="6.14475">
        <ele>2568.4</ele>
        <time>2021-02-17T12:02:54Z</time>
      </trkpt>
      <trkpt lat="45.29196" lon="6.14484">
        <ele>2569</ele>
        <time>2021-02-17T12:02:55Z</time>
      </trkpt>
      <trkpt lat="45.29191" lon="6.14491">
        <ele>2567.1</ele>
        <time>2021-02-17T12:02:56Z</time>
      </trkpt>
      <trkpt lat="45.29185" lon="6.14497">
        <ele>2566.5</ele>
        <time>2021-02-17T12:02:57Z</time>
      </trkpt>
      <trkpt lat="45.2918" lon="6.14501">
        <ele>2566.3</ele>
        <time>2021-02-17T12:02:58Z</time>
      </trkpt>
      <trkpt lat="45.29174" lon="6.14501">
        <ele>2562.7</ele>
        <time>2021-02-17T12:02:59Z</time>
      </trkpt>
      <trkpt lat="45.29172" lon="6.14501">
        <ele>2562.4</ele>
        <time>2021-02-17T12:03:00Z</time>
      </trkpt>
      <trkpt lat="45.29169" lon="6.14504">
        <ele>2560.8</ele>
        <time>2021-02-17T12:03:01Z</time>
      </trkpt>
      <trkpt lat="45.29165" lon="6.14505">
        <ele>2560.3</ele>
        <time>2021-02-17T12:03:02Z</time>
      </trkpt>
      <trkpt lat="45.29162" lon="6.14506">
        <ele>2558.7</ele>
        <time>2021-02-17T12:03:03Z</time>
      </trkpt>
      <trkpt lat="45.29159" lon="6.14509">
        <ele>2557.2</ele>
        <time>2021-02-17T12:03:04Z</time>
      </trkpt>
      <trkpt lat="45.29156" lon="6.14512">
        <ele>2556.9</ele>
        <time>2021-02-17T12:03:05Z</time>
      </trkpt>
      <trkpt lat="45.29153" lon="6.14513">
        <ele>2555.7</ele>
        <time>2021-02-17T12:03:06Z</time>
      </trkpt>
      <trkpt lat="45.2915" lon="6.14514">
        <ele>2555.5</ele>
        <time>2021-02-17T12:03:07Z</time>
      </trkpt>
      <trkpt lat="45.29147" lon="6.14515">
        <ele>2554.3</ele>
        <time>2021-02-17T12:03:08Z</time>
      </trkpt>
      <trkpt lat="45.29144" lon="6.14517">
        <ele>2552.9</ele>
        <time>2021-02-17T12:03:09Z</time>
      </trkpt>
      <trkpt lat="45.29144" lon="6.14517">
        <ele>2552.9</ele>
        <time>2021-02-17T12:03:10Z</time>
      </trkpt>
      <trkpt lat="45.29143" lon="6.14518">
        <ele>2552.7</ele>
        <time>2021-02-17T12:03:11Z</time>
      </trkpt>
      <trkpt lat="45.29143" lon="6.14518">
        <ele>2552.7</ele>
        <time>2021-02-17T12:03:12Z</time>
      </trkpt>
      <trkpt lat="45.29143" lon="6.14518">
        <ele>2552.7</ele>
        <time>2021-02-17T12:03:13Z</time>
      </trkpt>
      <trkpt lat="45.29143" lon="6.14518">
        <ele>2552.7</ele>
        <time>2021-02-17T12:03:14Z</time>
      </trkpt>
      <trkpt lat="45.29143" lon="6.14518">
        <ele>2552.7</ele>
        <time>2021-02-17T12:03:15Z</time>
      </trkpt>
      <trkpt lat="45.29143" lon="6.14518">
        <ele>2552.7</ele>
        <time>2021-02-17T12:03:16Z</time>
      </trkpt>
      <trkpt lat="45.29143" lon="6.14518">
        <ele>2552.7</ele>
        <time>2021-02-17T12:03:17Z</time>
      </trkpt>
      <trkpt lat="45.29144" lon="6.14518">
        <ele>2554.1</ele>
        <time>2021-02-17T12:03:18Z</time>
      </trkpt>
      <trkpt lat="45.29142" lon="6.14519">
        <ele>2552.7</ele>
        <time>2021-02-17T12:03:19Z</time>
      </trkpt>
      <trkpt lat="45.29141" lon="6.14519">
        <ele>2552.7</ele>
        <time>2021-02-17T12:03:20Z</time>
      </trkpt>
      <trkpt lat="45.29139" lon="6.1452">
        <ele>2551.3</ele>
        <time>2021-02-17T12:03:21Z</time>
      </trkpt>
      <trkpt lat="45.29137" lon="6.14521">
        <ele>2551.3</ele>
        <time>2021-02-17T12:03:22Z</time>
      </trkpt>
      <trkpt lat="45.29134" lon="6.14523">
        <ele>2549.8</ele>
        <time>2021-02-17T12:03:23Z</time>
      </trkpt>
      <trkpt lat="45.29132" lon="6.14523">
        <ele>2549.8</ele>
        <time>2021-02-17T12:03:24Z</time>
      </trkpt>
      <trkpt lat="45.29129" lon="6.14524">
        <ele>2548.4</ele>
        <time>2021-02-17T12:03:25Z</time>
      </trkpt>
      <trkpt lat="45.29128" lon="6.14524">
        <ele>2547.1</ele>
        <time>2021-02-17T12:03:26Z</time>
      </trkpt>
      <trkpt lat="45.29127" lon="6.1452">
        <ele>2545.9</ele>
        <time>2021-02-17T12:03:27Z</time>
      </trkpt>
      <trkpt lat="45.29127" lon="6.14518">
        <ele>2545.9</ele>
        <time>2021-02-17T12:03:28Z</time>
      </trkpt>
      <trkpt lat="45.29128" lon="6.14513">
        <ele>2546</ele>
        <time>2021-02-17T12:03:29Z</time>
      </trkpt>
      <trkpt lat="45.2913" lon="6.1451">
        <ele>2544.9</ele>
        <time>2021-02-17T12:03:30Z</time>
      </trkpt>
      <trkpt lat="45.29129" lon="6.14506">
        <ele>2543.7</ele>
        <time>2021-02-17T12:03:31Z</time>
      </trkpt>
      <trkpt lat="45.29127" lon="6.14506">
        <ele>2542.4</ele>
        <time>2021-02-17T12:03:32Z</time>
      </trkpt>
      <trkpt lat="45.29123" lon="6.14506">
        <ele>2541.1</ele>
        <time>2021-02-17T12:03:33Z</time>
      </trkpt>
      <trkpt lat="45.29119" lon="6.14507">
        <ele>2538.4</ele>
        <time>2021-02-17T12:03:34Z</time>
      </trkpt>
      <trkpt lat="45.29116" lon="6.14506">
        <ele>2537</ele>
        <time>2021-02-17T12:03:35Z</time>
      </trkpt>
      <trkpt lat="45.29119" lon="6.14489">
        <ele>2533.8</ele>
        <time>2021-02-17T12:03:36Z</time>
      </trkpt>
      <trkpt lat="45.29123" lon="6.14483">
        <ele>2534.2</ele>
        <time>2021-02-17T12:03:37Z</time>
      </trkpt>
      <trkpt lat="45.29124" lon="6.14478">
        <ele>2533.3</ele>
        <time>2021-02-17T12:03:38Z</time>
      </trkpt>
      <trkpt lat="45.29126" lon="6.14472">
        <ele>2533.6</ele>
        <time>2021-02-17T12:03:39Z</time>
      </trkpt>
      <trkpt lat="45.29127" lon="6.1447">
        <ele>2532.8</ele>
        <time>2021-02-17T12:03:40Z</time>
      </trkpt>
      <trkpt lat="45.29124" lon="6.14475">
        <ele>2532.4</ele>
        <time>2021-02-17T12:03:41Z</time>
      </trkpt>
      <trkpt lat="45.29121" lon="6.14479">
        <ele>2532.1</ele>
        <time>2021-02-17T12:03:42Z</time>
      </trkpt>
      <trkpt lat="45.29116" lon="6.14491">
        <ele>2532.5</ele>
        <time>2021-02-17T12:03:43Z</time>
      </trkpt>
      <trkpt lat="45.29104" lon="6.14499">
        <ele>2529.1</ele>
        <time>2021-02-17T12:03:44Z</time>
      </trkpt>
      <trkpt lat="45.29095" lon="6.14504">
        <ele>2527.5</ele>
        <time>2021-02-17T12:03:45Z</time>
      </trkpt>
      <trkpt lat="45.29086" lon="6.14508">
        <ele>2523.4</ele>
        <time>2021-02-17T12:03:46Z</time>
      </trkpt>
      <trkpt lat="45.29079" lon="6.14512">
        <ele>2521.2</ele>
        <time>2021-02-17T12:03:47Z</time>
      </trkpt>
      <trkpt lat="45.2907" lon="6.14517">
        <ele>2518.2</ele>
        <time>2021-02-17T12:03:48Z</time>
      </trkpt>
      <trkpt lat="45.29065" lon="6.1452">
        <ele>2517.8</ele>
        <time>2021-02-17T12:03:49Z</time>
      </trkpt>
      <trkpt lat="45.29061" lon="6.14519">
        <ele>2515.1</ele>
        <time>2021-02-17T12:03:50Z</time>
      </trkpt>
      <trkpt lat="45.29056" lon="6.14512">
        <ele>2510.8</ele>
        <time>2021-02-17T12:03:51Z</time>
      </trkpt>
      <trkpt lat="45.29053" lon="6.14505">
        <ele>2509.7</ele>
        <time>2021-02-17T12:03:52Z</time>
      </trkpt>
      <trkpt lat="45.29049" lon="6.14504">
        <ele>2507.2</ele>
        <time>2021-02-17T12:03:53Z</time>
      </trkpt>
      <trkpt lat="45.29046" lon="6.14503">
        <ele>2506</ele>
        <time>2021-02-17T12:03:54Z</time>
      </trkpt>
      <trkpt lat="45.2904" lon="6.14505">
        <ele>2504.2</ele>
        <time>2021-02-17T12:03:55Z</time>
      </trkpt>
      <trkpt lat="45.29035" lon="6.14515">
        <ele>2504</ele>
        <time>2021-02-17T12:03:56Z</time>
      </trkpt>
      <trkpt lat="45.2903" lon="6.14512">
        <ele>2500.5</ele>
        <time>2021-02-17T12:03:57Z</time>
      </trkpt>
      <trkpt lat="45.29025" lon="6.1451">
        <ele>2498.2</ele>
        <time>2021-02-17T12:03:58Z</time>
      </trkpt>
      <trkpt lat="45.29022" lon="6.14511">
        <ele>2497</ele>
        <time>2021-02-17T12:03:59Z</time>
      </trkpt>
      <trkpt lat="45.29018" lon="6.14511">
        <ele>2495.9</ele>
        <time>2021-02-17T12:04:00Z</time>
      </trkpt>
      <trkpt lat="45.2902" lon="6.14515">
        <ele>2497.3</ele>
        <time>2021-02-17T12:04:01Z</time>
      </trkpt>
      <trkpt lat="45.29021" lon="6.14517">
        <ele>2497.3</ele>
        <time>2021-02-17T12:04:02Z</time>
      </trkpt>
      <trkpt lat="45.2902" lon="6.14517">
        <ele>2497.3</ele>
        <time>2021-02-17T12:04:03Z</time>
      </trkpt>
      <trkpt lat="45.2902" lon="6.14518">
        <ele>2496.2</ele>
        <time>2021-02-17T12:04:04Z</time>
      </trkpt>
      <trkpt lat="45.29019" lon="6.14518">
        <ele>2496.4</ele>
        <time>2021-02-17T12:04:05Z</time>
      </trkpt>
      <trkpt lat="45.29018" lon="6.14519">
        <ele>2496.4</ele>
        <time>2021-02-17T12:04:06Z</time>
      </trkpt>
      <trkpt lat="45.29018" lon="6.14519">
        <ele>2496.4</ele>
        <time>2021-02-17T12:04:07Z</time>
      </trkpt>
      <trkpt lat="45.29017" lon="6.1452">
        <ele>2496.4</ele>
        <time>2021-02-17T12:04:08Z</time>
      </trkpt>
      <trkpt lat="45.29016" lon="6.1452">
        <ele>2495.3</ele>
        <time>2021-02-17T12:04:09Z</time>
      </trkpt>
      <trkpt lat="45.29016" lon="6.14521">
        <ele>2495.3</ele>
        <time>2021-02-17T12:04:10Z</time>
      </trkpt>
      <trkpt lat="45.29015" lon="6.14521">
        <ele>2495.3</ele>
        <time>2021-02-17T12:04:11Z</time>
      </trkpt>
      <trkpt lat="45.29015" lon="6.14522">
        <ele>2495.3</ele>
        <time>2021-02-17T12:06:25Z</time>
      </trkpt>
      <trkpt lat="45.29014" lon="6.14522">
        <ele>2495.6</ele>
        <time>2021-02-17T12:06:26Z</time>
      </trkpt>
      <trkpt lat="45.2901" lon="6.14524">
        <ele>2493.4</ele>
        <time>2021-02-17T12:06:27Z</time>
      </trkpt>
      <trkpt lat="45.29008" lon="6.14525">
        <ele>2493.4</ele>
        <time>2021-02-17T12:06:28Z</time>
      </trkpt>
      <trkpt lat="45.29005" lon="6.1453">
        <ele>2492.4</ele>
        <time>2021-02-17T12:06:29Z</time>
      </trkpt>
      <trkpt lat="45.29003" lon="6.14539">
        <ele>2491.6</ele>
        <time>2021-02-17T12:06:30Z</time>
      </trkpt>
      <trkpt lat="45.29" lon="6.1455">
        <ele>2490.8</ele>
        <time>2021-02-17T12:06:31Z</time>
      </trkpt>
      <trkpt lat="45.28998" lon="6.14562">
        <ele>2490</ele>
        <time>2021-02-17T12:06:32Z</time>
      </trkpt>
      <trkpt lat="45.28996" lon="6.14573">
        <ele>2490.6</ele>
        <time>2021-02-17T12:06:33Z</time>
      </trkpt>
      <trkpt lat="45.28995" lon="6.14583">
        <ele>2490</ele>
        <time>2021-02-17T12:06:34Z</time>
      </trkpt>
      <trkpt lat="45.28995" lon="6.1459">
        <ele>2490.3</ele>
        <time>2021-02-17T12:06:35Z</time>
      </trkpt>
      <trkpt lat="45.28995" lon="6.14596">
        <ele>2490.9</ele>
        <time>2021-02-17T12:06:36Z</time>
      </trkpt>
      <trkpt lat="45.28995" lon="6.146">
        <ele>2491.2</ele>
        <time>2021-02-17T12:06:37Z</time>
      </trkpt>
      <trkpt lat="45.28995" lon="6.14605">
        <ele>2491.3</ele>
        <time>2021-02-17T12:06:38Z</time>
      </trkpt>
      <trkpt lat="45.28995" lon="6.14607">
        <ele>2491.3</ele>
        <time>2021-02-17T12:06:39Z</time>
      </trkpt>
      <trkpt lat="45.28994" lon="6.14611">
        <ele>2491.4</ele>
        <time>2021-02-17T12:06:40Z</time>
      </trkpt>
      <trkpt lat="45.28993" lon="6.14612">
        <ele>2491.4</ele>
        <time>2021-02-17T12:06:41Z</time>
      </trkpt>
      <trkpt lat="45.2899" lon="6.14611">
        <ele>2489.8</ele>
        <time>2021-02-17T12:06:42Z</time>
      </trkpt>
      <trkpt lat="45.28988" lon="6.1461">
        <ele>2488.2</ele>
        <time>2021-02-17T12:06:43Z</time>
      </trkpt>
      <trkpt lat="45.28986" lon="6.14605">
        <ele>2486.7</ele>
        <time>2021-02-17T12:06:44Z</time>
      </trkpt>
      <trkpt lat="45.28984" lon="6.14599">
        <ele>2486.5</ele>
        <time>2021-02-17T12:06:45Z</time>
      </trkpt>
      <trkpt lat="45.28981" lon="6.14579">
        <ele>2484.3</ele>
        <time>2021-02-17T12:06:46Z</time>
      </trkpt>
      <trkpt lat="45.28977" lon="6.14575">
        <ele>2481.3</ele>
        <time>2021-02-17T12:06:47Z</time>
      </trkpt>
      <trkpt lat="45.28972" lon="6.14569">
        <ele>2479.6</ele>
        <time>2021-02-17T12:06:48Z</time>
      </trkpt>
      <trkpt lat="45.28967" lon="6.14566">
        <ele>2477</ele>
        <time>2021-02-17T12:06:49Z</time>
      </trkpt>
      <trkpt lat="45.28962" lon="6.14564">
        <ele>2475.9</ele>
        <time>2021-02-17T12:06:50Z</time>
      </trkpt>
      <trkpt lat="45.28959" lon="6.14566">
        <ele>2474.8</ele>
        <time>2021-02-17T12:06:51Z</time>
      </trkpt>
      <trkpt lat="45.28956" lon="6.14568">
        <ele>2472.6</ele>
        <time>2021-02-17T12:06:52Z</time>
      </trkpt>
      <trkpt lat="45.28952" lon="6.1457">
        <ele>2471.2</ele>
        <time>2021-02-17T12:06:53Z</time>
      </trkpt>
      <trkpt lat="45.28949" lon="6.14573">
        <ele>2469.9</ele>
        <time>2021-02-17T12:06:54Z</time>
      </trkpt>
      <trkpt lat="45.28947" lon="6.14576">
        <ele>2468.4</ele>
        <time>2021-02-17T12:06:55Z</time>
      </trkpt>
      <trkpt lat="45.28943" lon="6.14578">
        <ele>2466.8</ele>
        <time>2021-02-17T12:06:56Z</time>
      </trkpt>
      <trkpt lat="45.2894" lon="6.14581">
        <ele>2465.3</ele>
        <time>2021-02-17T12:06:57Z</time>
      </trkpt>
      <trkpt lat="45.28936" lon="6.14584">
        <ele>2463.7</ele>
        <time>2021-02-17T12:06:58Z</time>
      </trkpt>
      <trkpt lat="45.28933" lon="6.14585">
        <ele>2462.3</ele>
        <time>2021-02-17T12:06:59Z</time>
      </trkpt>
      <trkpt lat="45.2893" lon="6.14588">
        <ele>2460.8</ele>
        <time>2021-02-17T12:07:00Z</time>
      </trkpt>
      <trkpt lat="45.28929" lon="6.14589">
        <ele>2459.4</ele>
        <time>2021-02-17T12:07:01Z</time>
      </trkpt>
      <trkpt lat="45.28926" lon="6.14592">
        <ele>2457.8</ele>
        <time>2021-02-17T12:07:02Z</time>
      </trkpt>
      <trkpt lat="45.28924" lon="6.14594">
        <ele>2457.8</ele>
        <time>2021-02-17T12:07:03Z</time>
      </trkpt>
      <trkpt lat="45.28922" lon="6.14597">
        <ele>2456.1</ele>
        <time>2021-02-17T12:07:04Z</time>
      </trkpt>
      <trkpt lat="45.28919" lon="6.146">
        <ele>2454.3</ele>
        <time>2021-02-17T12:07:05Z</time>
      </trkpt>
      <trkpt lat="45.28917" lon="6.14603">
        <ele>2454.3</ele>
        <time>2021-02-17T12:07:06Z</time>
      </trkpt>
      <trkpt lat="45.28915" lon="6.14608">
        <ele>2452.2</ele>
        <time>2021-02-17T12:07:07Z</time>
      </trkpt>
      <trkpt lat="45.28914" lon="6.14612">
        <ele>2452.2</ele>
        <time>2021-02-17T12:07:08Z</time>
      </trkpt>
      <trkpt lat="45.28913" lon="6.14617">
        <ele>2449.9</ele>
        <time>2021-02-17T12:07:09Z</time>
      </trkpt>
      <trkpt lat="45.28911" lon="6.14622">
        <ele>2449.7</ele>
        <time>2021-02-17T12:07:10Z</time>
      </trkpt>
      <trkpt lat="45.28914" lon="6.14627">
        <ele>2451.2</ele>
        <time>2021-02-17T12:07:11Z</time>
      </trkpt>
      <trkpt lat="45.28916" lon="6.14629">
        <ele>2451.2</ele>
        <time>2021-02-17T12:07:12Z</time>
      </trkpt>
      <trkpt lat="45.28919" lon="6.14631">
        <ele>2452.7</ele>
        <time>2021-02-17T12:07:13Z</time>
      </trkpt>
      <trkpt lat="45.28918" lon="6.14633">
        <ele>2452.7</ele>
        <time>2021-02-17T12:07:14Z</time>
      </trkpt>
      <trkpt lat="45.28916" lon="6.14635">
        <ele>2450.7</ele>
        <time>2021-02-17T12:07:15Z</time>
      </trkpt>
      <trkpt lat="45.28914" lon="6.14636">
        <ele>2448.9</ele>
        <time>2021-02-17T12:07:16Z</time>
      </trkpt>
      <trkpt lat="45.28909" lon="6.14638">
        <ele>2447.2</ele>
        <time>2021-02-17T12:07:17Z</time>
      </trkpt>
      <trkpt lat="45.28904" lon="6.14639">
        <ele>2444</ele>
        <time>2021-02-17T12:07:18Z</time>
      </trkpt>
      <trkpt lat="45.28901" lon="6.1464">
        <ele>2442.6</ele>
        <time>2021-02-17T12:07:19Z</time>
      </trkpt>
      <trkpt lat="45.28897" lon="6.14642">
        <ele>2441.1</ele>
        <time>2021-02-17T12:07:20Z</time>
      </trkpt>
      <trkpt lat="45.28893" lon="6.14644">
        <ele>2439.3</ele>
        <time>2021-02-17T12:07:21Z</time>
      </trkpt>
      <trkpt lat="45.2889" lon="6.14645">
        <ele>2437.6</ele>
        <time>2021-02-17T12:07:22Z</time>
      </trkpt>
      <trkpt lat="45.28889" lon="6.14646">
        <ele>2435.8</ele>
        <time>2021-02-17T12:07:23Z</time>
      </trkpt>
      <trkpt lat="45.28888" lon="6.14647">
        <ele>2435.6</ele>
        <time>2021-02-17T12:07:24Z</time>
      </trkpt>
      <trkpt lat="45.28883" lon="6.14651">
        <ele>2431.9</ele>
        <time>2021-02-17T12:07:25Z</time>
      </trkpt>
      <trkpt lat="45.28881" lon="6.14653">
        <ele>2431.9</ele>
        <time>2021-02-17T12:07:26Z</time>
      </trkpt>
      <trkpt lat="45.28876" lon="6.14654">
        <ele>2428.9</ele>
        <time>2021-02-17T12:07:27Z</time>
      </trkpt>
      <trkpt lat="45.28873" lon="6.14657">
        <ele>2426.9</ele>
        <time>2021-02-17T12:07:28Z</time>
      </trkpt>
      <trkpt lat="45.28871" lon="6.14659">
        <ele>2425.3</ele>
        <time>2021-02-17T12:07:29Z</time>
      </trkpt>
      <trkpt lat="45.2887" lon="6.14659">
        <ele>2425.3</ele>
        <time>2021-02-17T12:07:30Z</time>
      </trkpt>
      <trkpt lat="45.2887" lon="6.14658">
        <ele>2425.3</ele>
        <time>2021-02-17T12:07:31Z</time>
      </trkpt>
      <trkpt lat="45.2887" lon="6.14659">
        <ele>2425.3</ele>
        <time>2021-02-17T12:07:32Z</time>
      </trkpt>
      <trkpt lat="45.2887" lon="6.1466">
        <ele>2424.9</ele>
        <time>2021-02-17T12:07:33Z</time>
      </trkpt>
      <trkpt lat="45.28869" lon="6.1466">
        <ele>2424.9</ele>
        <time>2021-02-17T12:07:34Z</time>
      </trkpt>
      <trkpt lat="45.28869" lon="6.14661">
        <ele>2424.9</ele>
        <time>2021-02-17T12:07:35Z</time>
      </trkpt>
      <trkpt lat="45.28869" lon="6.14662">
        <ele>2424.9</ele>
        <time>2021-02-17T12:07:36Z</time>
      </trkpt>
      <trkpt lat="45.28869" lon="6.14662">
        <ele>2423.1</ele>
        <time>2021-02-17T12:07:37Z</time>
      </trkpt>
      <trkpt lat="45.28868" lon="6.14663">
        <ele>2423.1</ele>
        <time>2021-02-17T12:07:38Z</time>
      </trkpt>
      <trkpt lat="45.28868" lon="6.14664">
        <ele>2422.6</ele>
        <time>2021-02-17T12:07:39Z</time>
      </trkpt>
      <trkpt lat="45.28867" lon="6.14666">
        <ele>2422.6</ele>
        <time>2021-02-17T12:07:40Z</time>
      </trkpt>
      <trkpt lat="45.28867" lon="6.14667">
        <ele>2422.6</ele>
        <time>2021-02-17T12:07:41Z</time>
      </trkpt>
      <trkpt lat="45.28866" lon="6.14669">
        <ele>2422</ele>
        <time>2021-02-17T12:07:42Z</time>
      </trkpt>
      <trkpt lat="45.28866" lon="6.14673">
        <ele>2421.4</ele>
        <time>2021-02-17T12:07:43Z</time>
      </trkpt>
      <trkpt lat="45.28865" lon="6.14675">
        <ele>2419.6</ele>
        <time>2021-02-17T12:07:44Z</time>
      </trkpt>
      <trkpt lat="45.28863" lon="6.14678">
        <ele>2419.1</ele>
        <time>2021-02-17T12:07:45Z</time>
      </trkpt>
      <trkpt lat="45.28863" lon="6.14681">
        <ele>2418.6</ele>
        <time>2021-02-17T12:07:46Z</time>
      </trkpt>
      <trkpt lat="45.28863" lon="6.14682">
        <ele>2418.6</ele>
        <time>2021-02-17T12:07:47Z</time>
      </trkpt>
      <trkpt lat="45.28863" lon="6.14684">
        <ele>2418.6</ele>
        <time>2021-02-17T12:07:48Z</time>
      </trkpt>
      <trkpt lat="45.28863" lon="6.14689">
        <ele>2418.2</ele>
        <time>2021-02-17T12:07:49Z</time>
      </trkpt>
      <trkpt lat="45.28864" lon="6.14691">
        <ele>2417.7</ele>
        <time>2021-02-17T12:07:50Z</time>
      </trkpt>
      <trkpt lat="45.28866" lon="6.14695">
        <ele>2419</ele>
        <time>2021-02-17T12:07:51Z</time>
      </trkpt>
      <trkpt lat="45.28868" lon="6.14697">
        <ele>2419</ele>
        <time>2021-02-17T12:07:52Z</time>
      </trkpt>
      <trkpt lat="45.28868" lon="6.14698">
        <ele>2418.6</ele>
        <time>2021-02-17T12:07:53Z</time>
      </trkpt>
      <trkpt lat="45.28869" lon="6.14702">
        <ele>2420.3</ele>
        <time>2021-02-17T12:07:54Z</time>
      </trkpt>
      <trkpt lat="45.28876" lon="6.14707">
        <ele>2422.6</ele>
        <time>2021-02-17T12:07:55Z</time>
      </trkpt>
      <trkpt lat="45.28883" lon="6.1472">
        <ele>2423.9</ele>
        <time>2021-02-17T12:07:56Z</time>
      </trkpt>
      <trkpt lat="45.28889" lon="6.14729">
        <ele>2425.7</ele>
        <time>2021-02-17T12:07:57Z</time>
      </trkpt>
      <trkpt lat="45.28893" lon="6.14741">
        <ele>2427</ele>
        <time>2021-02-17T12:07:58Z</time>
      </trkpt>
      <trkpt lat="45.28898" lon="6.1475">
        <ele>2424.3</ele>
        <time>2021-02-17T12:07:59Z</time>
      </trkpt>
      <trkpt lat="45.28901" lon="6.14761">
        <ele>2422</ele>
        <time>2021-02-17T12:08:00Z</time>
      </trkpt>
      <trkpt lat="45.28904" lon="6.14774">
        <ele>2417.5</ele>
        <time>2021-02-17T12:08:01Z</time>
      </trkpt>
      <trkpt lat="45.28904" lon="6.14782">
        <ele>2413.9</ele>
        <time>2021-02-17T12:08:02Z</time>
      </trkpt>
      <trkpt lat="45.28903" lon="6.14789">
        <ele>2410</ele>
        <time>2021-02-17T12:08:03Z</time>
      </trkpt>
      <trkpt lat="45.28901" lon="6.14799">
        <ele>2405.2</ele>
        <time>2021-02-17T12:08:04Z</time>
      </trkpt>
      <trkpt lat="45.289" lon="6.14805">
        <ele>2400.7</ele>
        <time>2021-02-17T12:08:05Z</time>
      </trkpt>
      <trkpt lat="45.28901" lon="6.14807">
        <ele>2400.7</ele>
        <time>2021-02-17T12:08:06Z</time>
      </trkpt>
      <trkpt lat="45.289" lon="6.1481">
        <ele>2398.5</ele>
        <time>2021-02-17T12:08:07Z</time>
      </trkpt>
      <trkpt lat="45.28897" lon="6.14805">
        <ele>2400.3</ele>
        <time>2021-02-17T12:08:08Z</time>
      </trkpt>
      <trkpt lat="45.28896" lon="6.14804">
        <ele>2402.5</ele>
        <time>2021-02-17T12:08:09Z</time>
      </trkpt>
      <trkpt lat="45.28895" lon="6.14806">
        <ele>2399.7</ele>
        <time>2021-02-17T12:08:10Z</time>
      </trkpt>
      <trkpt lat="45.28895" lon="6.14807">
        <ele>2399.7</ele>
        <time>2021-02-17T12:08:11Z</time>
      </trkpt>
      <trkpt lat="45.28895" lon="6.14807">
        <ele>2399.7</ele>
        <time>2021-02-17T12:08:12Z</time>
      </trkpt>
      <trkpt lat="45.28895" lon="6.14807">
        <ele>2399.7</ele>
        <time>2021-02-17T12:08:13Z</time>
      </trkpt>
      <trkpt lat="45.28895" lon="6.14807">
        <ele>2399.7</ele>
        <time>2021-02-17T12:08:14Z</time>
      </trkpt>
      <trkpt lat="45.28895" lon="6.14807">
        <ele>2399.7</ele>
        <time>2021-02-17T12:08:15Z</time>
      </trkpt>
      <trkpt lat="45.28895" lon="6.14807">
        <ele>2399.7</ele>
        <time>2021-02-17T12:08:16Z</time>
      </trkpt>
      <trkpt lat="45.28895" lon="6.14807">
        <ele>2399.7</ele>
        <time>2021-02-17T12:08:17Z</time>
      </trkpt>
      <trkpt lat="45.28895" lon="6.14807">
        <ele>2399.7</ele>
        <time>2021-02-17T12:08:18Z</time>
      </trkpt>
      <trkpt lat="45.28891" lon="6.148">
        <ele>2403.1</ele>
        <time>2021-02-17T12:08:58Z</time>
      </trkpt>
      <trkpt lat="45.28891" lon="6.14799">
        <ele>2403.1</ele>
        <time>2021-02-17T12:08:59Z</time>
      </trkpt>
      <trkpt lat="45.2889" lon="6.14799">
        <ele>2403.1</ele>
        <time>2021-02-17T12:09:00Z</time>
      </trkpt>
      <trkpt lat="45.28889" lon="6.14798">
        <ele>2402.2</ele>
        <time>2021-02-17T12:09:01Z</time>
      </trkpt>
      <trkpt lat="45.28889" lon="6.14797">
        <ele>2402.2</ele>
        <time>2021-02-17T12:09:02Z</time>
      </trkpt>
      <trkpt lat="45.28888" lon="6.14796">
        <ele>2404.1</ele>
        <time>2021-02-17T12:09:03Z</time>
      </trkpt>
      <trkpt lat="45.28888" lon="6.14795">
        <ele>2404.1</ele>
        <time>2021-02-17T12:09:04Z</time>
      </trkpt>
      <trkpt lat="45.28887" lon="6.14794">
        <ele>2404.1</ele>
        <time>2021-02-17T12:09:05Z</time>
      </trkpt>
      <trkpt lat="45.28887" lon="6.14793">
        <ele>2404.1</ele>
        <time>2021-02-17T12:09:06Z</time>
      </trkpt>
      <trkpt lat="45.28887" lon="6.14793">
        <ele>2404.1</ele>
        <time>2021-02-17T12:09:07Z</time>
      </trkpt>
      <trkpt lat="45.28887" lon="6.14793">
        <ele>2404.1</ele>
        <time>2021-02-17T12:09:08Z</time>
      </trkpt>
      <trkpt lat="45.28887" lon="6.14793">
        <ele>2404.1</ele>
        <time>2021-02-17T12:09:09Z</time>
      </trkpt>
      <trkpt lat="45.28887" lon="6.14793">
        <ele>2404.1</ele>
        <time>2021-02-17T12:09:10Z</time>
      </trkpt>
      <trkpt lat="45.28887" lon="6.14793">
        <ele>2404.1</ele>
        <time>2021-02-17T12:09:11Z</time>
      </trkpt>
      <trkpt lat="45.28887" lon="6.14793">
        <ele>2404.1</ele>
        <time>2021-02-17T12:09:12Z</time>
      </trkpt>
      <trkpt lat="45.28887" lon="6.14793">
        <ele>2404.1</ele>
        <time>2021-02-17T12:09:13Z</time>
      </trkpt>
      <trkpt lat="45.28887" lon="6.14793">
        <ele>2404.1</ele>
        <time>2021-02-17T12:09:14Z</time>
      </trkpt>
      <trkpt lat="45.28887" lon="6.14793">
        <ele>2404.1</ele>
        <time>2021-02-17T12:09:15Z</time>
      </trkpt>
      <trkpt lat="45.28881" lon="6.14791">
        <ele>2403.9</ele>
        <time>2021-02-17T12:09:42Z</time>
      </trkpt>
      <trkpt lat="45.28878" lon="6.14792">
        <ele>2402.9</ele>
        <time>2021-02-17T12:09:43Z</time>
      </trkpt>
      <trkpt lat="45.28876" lon="6.14797">
        <ele>2400.4</ele>
        <time>2021-02-17T12:09:44Z</time>
      </trkpt>
      <trkpt lat="45.28875" lon="6.14805">
        <ele>2396.7</ele>
        <time>2021-02-17T12:09:45Z</time>
      </trkpt>
      <trkpt lat="45.28875" lon="6.14812">
        <ele>2392.6</ele>
        <time>2021-02-17T12:09:46Z</time>
      </trkpt>
      <trkpt lat="45.28875" lon="6.14818">
        <ele>2388</ele>
        <time>2021-02-17T12:09:47Z</time>
      </trkpt>
      <trkpt lat="45.28873" lon="6.14823">
        <ele>2386.1</ele>
        <time>2021-02-17T12:09:48Z</time>
      </trkpt>
      <trkpt lat="45.28872" lon="6.14823">
        <ele>2386.1</ele>
        <time>2021-02-17T12:09:49Z</time>
      </trkpt>
      <trkpt lat="45.28869" lon="6.14826">
        <ele>2385.4</ele>
        <time>2021-02-17T12:09:50Z</time>
      </trkpt>
      <trkpt lat="45.28866" lon="6.14831">
        <ele>2380.9</ele>
        <time>2021-02-17T12:09:51Z</time>
      </trkpt>
      <trkpt lat="45.28863" lon="6.14836">
        <ele>2378.2</ele>
        <time>2021-02-17T12:09:52Z</time>
      </trkpt>
      <trkpt lat="45.28861" lon="6.14838">
        <ele>2377.5</ele>
        <time>2021-02-17T12:09:53Z</time>
      </trkpt>
      <trkpt lat="45.28857" lon="6.14839">
        <ele>2376.9</ele>
        <time>2021-02-17T12:09:54Z</time>
      </trkpt>
      <trkpt lat="45.28853" lon="6.14838">
        <ele>2375.8</ele>
        <time>2021-02-17T12:09:55Z</time>
      </trkpt>
      <trkpt lat="45.28851" lon="6.14837">
        <ele>2375.8</ele>
        <time>2021-02-17T12:09:56Z</time>
      </trkpt>
      <trkpt lat="45.28848" lon="6.14836">
        <ele>2375.2</ele>
        <time>2021-02-17T12:09:57Z</time>
      </trkpt>
      <trkpt lat="45.28845" lon="6.14836">
        <ele>2374.6</ele>
        <time>2021-02-17T12:09:58Z</time>
      </trkpt>
      <trkpt lat="45.28843" lon="6.1484">
        <ele>2372.3</ele>
        <time>2021-02-17T12:09:59Z</time>
      </trkpt>
      <trkpt lat="45.28842" lon="6.14842">
        <ele>2372.3</ele>
        <time>2021-02-17T12:10:00Z</time>
      </trkpt>
      <trkpt lat="45.28842" lon="6.14846">
        <ele>2370.5</ele>
        <time>2021-02-17T12:10:01Z</time>
      </trkpt>
      <trkpt lat="45.28842" lon="6.14851">
        <ele>2368.6</ele>
        <time>2021-02-17T12:10:02Z</time>
      </trkpt>
      <trkpt lat="45.28841" lon="6.14855">
        <ele>2366.1</ele>
        <time>2021-02-17T12:10:03Z</time>
      </trkpt>
      <trkpt lat="45.28839" lon="6.14858">
        <ele>2364.1</ele>
        <time>2021-02-17T12:10:04Z</time>
      </trkpt>
      <trkpt lat="45.28838" lon="6.14859">
        <ele>2363.6</ele>
        <time>2021-02-17T12:10:05Z</time>
      </trkpt>
      <trkpt lat="45.28835" lon="6.14862">
        <ele>2361</ele>
        <time>2021-02-17T12:10:06Z</time>
      </trkpt>
      <trkpt lat="45.28834" lon="6.14864">
        <ele>2361</ele>
        <time>2021-02-17T12:10:07Z</time>
      </trkpt>
      <trkpt lat="45.28833" lon="6.14868">
        <ele>2359.2</ele>
        <time>2021-02-17T12:10:08Z</time>
      </trkpt>
      <trkpt lat="45.28831" lon="6.14874">
        <ele>2356.9</ele>
        <time>2021-02-17T12:10:09Z</time>
      </trkpt>
      <trkpt lat="45.2883" lon="6.14879">
        <ele>2353.3</ele>
        <time>2021-02-17T12:10:10Z</time>
      </trkpt>
      <trkpt lat="45.28829" lon="6.14883">
        <ele>2350.9</ele>
        <time>2021-02-17T12:10:11Z</time>
      </trkpt>
      <trkpt lat="45.28827" lon="6.14887">
        <ele>2348.9</ele>
        <time>2021-02-17T12:10:12Z</time>
      </trkpt>
      <trkpt lat="45.28824" lon="6.14891">
        <ele>2346.3</ele>
        <time>2021-02-17T12:10:13Z</time>
      </trkpt>
      <trkpt lat="45.28821" lon="6.14894">
        <ele>2345.8</ele>
        <time>2021-02-17T12:10:14Z</time>
      </trkpt>
      <trkpt lat="45.28818" lon="6.14895">
        <ele>2345.3</ele>
        <time>2021-02-17T12:10:15Z</time>
      </trkpt>
      <trkpt lat="45.28814" lon="6.14895">
        <ele>2344.3</ele>
        <time>2021-02-17T12:10:16Z</time>
      </trkpt>
      <trkpt lat="45.2881" lon="6.14894">
        <ele>2343.7</ele>
        <time>2021-02-17T12:10:17Z</time>
      </trkpt>
      <trkpt lat="45.28807" lon="6.14892">
        <ele>2343</ele>
        <time>2021-02-17T12:10:18Z</time>
      </trkpt>
      <trkpt lat="45.28806" lon="6.1489">
        <ele>2345.1</ele>
        <time>2021-02-17T12:10:19Z</time>
      </trkpt>
      <trkpt lat="45.28806" lon="6.1489">
        <ele>2345.1</ele>
        <time>2021-02-17T12:10:20Z</time>
      </trkpt>
      <trkpt lat="45.28806" lon="6.1489">
        <ele>2345.1</ele>
        <time>2021-02-17T12:10:21Z</time>
      </trkpt>
      <trkpt lat="45.28806" lon="6.1489">
        <ele>2345.1</ele>
        <time>2021-02-17T12:10:22Z</time>
      </trkpt>
      <trkpt lat="45.28806" lon="6.1489">
        <ele>2345.1</ele>
        <time>2021-02-17T12:10:23Z</time>
      </trkpt>
      <trkpt lat="45.28806" lon="6.1489">
        <ele>2345.1</ele>
        <time>2021-02-17T12:10:24Z</time>
      </trkpt>
      <trkpt lat="45.28806" lon="6.1489">
        <ele>2345.1</ele>
        <time>2021-02-17T12:10:25Z</time>
      </trkpt>
      <trkpt lat="45.28806" lon="6.1489">
        <ele>2345.1</ele>
        <time>2021-02-17T12:10:26Z</time>
      </trkpt>
      <trkpt lat="45.28806" lon="6.1489">
        <ele>2345.1</ele>
        <time>2021-02-17T12:10:27Z</time>
      </trkpt>
      <trkpt lat="45.28806" lon="6.1489">
        <ele>2345.1</ele>
        <time>2021-02-17T12:10:28Z</time>
      </trkpt>
      <trkpt lat="45.28806" lon="6.1489">
        <ele>2345.1</ele>
        <time>2021-02-17T12:10:29Z</time>
      </trkpt>
      <trkpt lat="45.288" lon="6.14895">
        <ele>2341.6</ele>
        <time>2021-02-17T12:10:47Z</time>
      </trkpt>
      <trkpt lat="45.288" lon="6.14898">
        <ele>2339.5</ele>
        <time>2021-02-17T12:10:48Z</time>
      </trkpt>
      <trkpt lat="45.28797" lon="6.14902">
        <ele>2336.7</ele>
        <time>2021-02-17T12:10:49Z</time>
      </trkpt>
      <trkpt lat="45.28796" lon="6.14903">
        <ele>2336.1</ele>
        <time>2021-02-17T12:10:50Z</time>
      </trkpt>
      <trkpt lat="45.28793" lon="6.14907">
        <ele>2333.5</ele>
        <time>2021-02-17T12:10:51Z</time>
      </trkpt>
      <trkpt lat="45.28792" lon="6.14908">
        <ele>2333.5</ele>
        <time>2021-02-17T12:10:52Z</time>
      </trkpt>
      <trkpt lat="45.28791" lon="6.14911">
        <ele>2331.5</ele>
        <time>2021-02-17T12:10:53Z</time>
      </trkpt>
      <trkpt lat="45.28788" lon="6.14916">
        <ele>2328.9</ele>
        <time>2021-02-17T12:10:54Z</time>
      </trkpt>
      <trkpt lat="45.28786" lon="6.14917">
        <ele>2326.3</ele>
        <time>2021-02-17T12:10:55Z</time>
      </trkpt>
      <trkpt lat="45.28782" lon="6.14921">
        <ele>2325.5</ele>
        <time>2021-02-17T12:10:56Z</time>
      </trkpt>
      <trkpt lat="45.28778" lon="6.14925">
        <ele>2322.7</ele>
        <time>2021-02-17T12:10:57Z</time>
      </trkpt>
      <trkpt lat="45.28775" lon="6.14929">
        <ele>2319.9</ele>
        <time>2021-02-17T12:10:58Z</time>
      </trkpt>
      <trkpt lat="45.28773" lon="6.14933">
        <ele>2317.1</ele>
        <time>2021-02-17T12:10:59Z</time>
      </trkpt>
      <trkpt lat="45.28771" lon="6.14937">
        <ele>2314.2</ele>
        <time>2021-02-17T12:11:00Z</time>
      </trkpt>
      <trkpt lat="45.28769" lon="6.1494">
        <ele>2311.9</ele>
        <time>2021-02-17T12:11:01Z</time>
      </trkpt>
      <trkpt lat="45.28767" lon="6.14943">
        <ele>2308.9</ele>
        <time>2021-02-17T12:11:02Z</time>
      </trkpt>
      <trkpt lat="45.28766" lon="6.14943">
        <ele>2308.9</ele>
        <time>2021-02-17T12:11:03Z</time>
      </trkpt>
      <trkpt lat="45.28766" lon="6.14947">
        <ele>2306.6</ele>
        <time>2021-02-17T12:11:04Z</time>
      </trkpt>
      <trkpt lat="45.28767" lon="6.14952">
        <ele>2304.5</ele>
        <time>2021-02-17T12:11:05Z</time>
      </trkpt>
      <trkpt lat="45.28765" lon="6.14958">
        <ele>2301.6</ele>
        <time>2021-02-17T12:11:06Z</time>
      </trkpt>
      <trkpt lat="45.28761" lon="6.14962">
        <ele>2298.6</ele>
        <time>2021-02-17T12:11:07Z</time>
      </trkpt>
      <trkpt lat="45.28757" lon="6.14965">
        <ele>2294.6</ele>
        <time>2021-02-17T12:11:08Z</time>
      </trkpt>
      <trkpt lat="45.28759" lon="6.14974">
        <ele>2291.3</ele>
        <time>2021-02-17T12:11:09Z</time>
      </trkpt>
      <trkpt lat="45.28755" lon="6.14976">
        <ele>2290.3</ele>
        <time>2021-02-17T12:11:10Z</time>
      </trkpt>
      <trkpt lat="45.28758" lon="6.14979">
        <ele>2289</ele>
        <time>2021-02-17T12:11:11Z</time>
      </trkpt>
      <trkpt lat="45.28759" lon="6.14981">
        <ele>2289</ele>
        <time>2021-02-17T12:11:12Z</time>
      </trkpt>
      <trkpt lat="45.28757" lon="6.14985">
        <ele>2286.8</ele>
        <time>2021-02-17T12:11:13Z</time>
      </trkpt>
      <trkpt lat="45.28753" lon="6.14988">
        <ele>2282.5</ele>
        <time>2021-02-17T12:11:14Z</time>
      </trkpt>
      <trkpt lat="45.28748" lon="6.14987">
        <ele>2280.2</ele>
        <time>2021-02-17T12:11:15Z</time>
      </trkpt>
      <trkpt lat="45.28745" lon="6.14988">
        <ele>2279.2</ele>
        <time>2021-02-17T12:11:16Z</time>
      </trkpt>
      <trkpt lat="45.28744" lon="6.14987">
        <ele>2279.2</ele>
        <time>2021-02-17T12:11:17Z</time>
      </trkpt>
      <trkpt lat="45.28745" lon="6.14987">
        <ele>2280.2</ele>
        <time>2021-02-17T12:11:18Z</time>
      </trkpt>
      <trkpt lat="45.28745" lon="6.14986">
        <ele>2280.2</ele>
        <time>2021-02-17T12:11:19Z</time>
      </trkpt>
      <trkpt lat="45.28746" lon="6.14986">
        <ele>2280.2</ele>
        <time>2021-02-17T12:11:20Z</time>
      </trkpt>
      <trkpt lat="45.28746" lon="6.14985">
        <ele>2282.5</ele>
        <time>2021-02-17T12:11:21Z</time>
      </trkpt>
      <trkpt lat="45.28747" lon="6.14985">
        <ele>2282.5</ele>
        <time>2021-02-17T12:11:22Z</time>
      </trkpt>
      <trkpt lat="45.28747" lon="6.14984">
        <ele>2282.5</ele>
        <time>2021-02-17T12:11:23Z</time>
      </trkpt>
      <trkpt lat="45.28747" lon="6.14984">
        <ele>2282.5</ele>
        <time>2021-02-17T12:11:24Z</time>
      </trkpt>
      <trkpt lat="45.28747" lon="6.14984">
        <ele>2282.5</ele>
        <time>2021-02-17T12:11:25Z</time>
      </trkpt>
      <trkpt lat="45.28747" lon="6.14984">
        <ele>2282.5</ele>
        <time>2021-02-17T12:11:26Z</time>
      </trkpt>
      <trkpt lat="45.28747" lon="6.14984">
        <ele>2282.5</ele>
        <time>2021-02-17T12:11:27Z</time>
      </trkpt>
      <trkpt lat="45.28742" lon="6.14982">
        <ele>2281.4</ele>
        <time>2021-02-17T12:12:02Z</time>
      </trkpt>
      <trkpt lat="45.2874" lon="6.14982">
        <ele>2280.4</ele>
        <time>2021-02-17T12:12:03Z</time>
      </trkpt>
      <trkpt lat="45.28737" lon="6.14981">
        <ele>2281.6</ele>
        <time>2021-02-17T12:12:04Z</time>
      </trkpt>
      <trkpt lat="45.28736" lon="6.1498">
        <ele>2281.6</ele>
        <time>2021-02-17T12:12:05Z</time>
      </trkpt>
      <trkpt lat="45.28735" lon="6.14979">
        <ele>2280.7</ele>
        <time>2021-02-17T12:12:06Z</time>
      </trkpt>
      <trkpt lat="45.28736" lon="6.14979">
        <ele>2280.7</ele>
        <time>2021-02-17T12:12:07Z</time>
      </trkpt>
      <trkpt lat="45.28735" lon="6.1498">
        <ele>2280.7</ele>
        <time>2021-02-17T12:12:08Z</time>
      </trkpt>
      <trkpt lat="45.28734" lon="6.1498">
        <ele>2280.7</ele>
        <time>2021-02-17T12:12:09Z</time>
      </trkpt>
      <trkpt lat="45.28733" lon="6.14981">
        <ele>2277.5</ele>
        <time>2021-02-17T12:12:10Z</time>
      </trkpt>
      <trkpt lat="45.28732" lon="6.14987">
        <ele>2275.3</ele>
        <time>2021-02-17T12:12:11Z</time>
      </trkpt>
      <trkpt lat="45.28732" lon="6.14989">
        <ele>2275.3</ele>
        <time>2021-02-17T12:12:12Z</time>
      </trkpt>
      <trkpt lat="45.28733" lon="6.14993">
        <ele>2273.9</ele>
        <time>2021-02-17T12:12:13Z</time>
      </trkpt>
      <trkpt lat="45.28733" lon="6.14996">
        <ele>2271.7</ele>
        <time>2021-02-17T12:12:14Z</time>
      </trkpt>
      <trkpt lat="45.28733" lon="6.14998">
        <ele>2268.7</ele>
        <time>2021-02-17T12:12:15Z</time>
      </trkpt>
      <trkpt lat="45.28731" lon="6.15002">
        <ele>2268.7</ele>
        <time>2021-02-17T12:12:16Z</time>
      </trkpt>
      <trkpt lat="45.28727" lon="6.15005">
        <ele>2265.7</ele>
        <time>2021-02-17T12:12:17Z</time>
      </trkpt>
      <trkpt lat="45.28724" lon="6.15007">
        <ele>2261.8</ele>
        <time>2021-02-17T12:12:18Z</time>
      </trkpt>
      <trkpt lat="45.28721" lon="6.15012">
        <ele>2259.9</ele>
        <time>2021-02-17T12:12:19Z</time>
      </trkpt>
      <trkpt lat="45.2872" lon="6.15018">
        <ele>2256.9</ele>
        <time>2021-02-17T12:12:20Z</time>
      </trkpt>
      <trkpt lat="45.2872" lon="6.15025">
        <ele>2252.9</ele>
        <time>2021-02-17T12:12:21Z</time>
      </trkpt>
      <trkpt lat="45.28719" lon="6.15029">
        <ele>2250.9</ele>
        <time>2021-02-17T12:12:22Z</time>
      </trkpt>
      <trkpt lat="45.28716" lon="6.15032">
        <ele>2249.9</ele>
        <time>2021-02-17T12:12:23Z</time>
      </trkpt>
      <trkpt lat="45.28712" lon="6.15033">
        <ele>2247.1</ele>
        <time>2021-02-17T12:12:24Z</time>
      </trkpt>
      <trkpt lat="45.2871" lon="6.15034">
        <ele>2246.3</ele>
        <time>2021-02-17T12:12:25Z</time>
      </trkpt>
      <trkpt lat="45.2871" lon="6.15035">
        <ele>2246.3</ele>
        <time>2021-02-17T12:12:26Z</time>
      </trkpt>
      <trkpt lat="45.28709" lon="6.15036">
        <ele>2246.3</ele>
        <time>2021-02-17T12:12:27Z</time>
      </trkpt>
      <trkpt lat="45.28707" lon="6.15039">
        <ele>2243.6</ele>
        <time>2021-02-17T12:12:28Z</time>
      </trkpt>
      <trkpt lat="45.28706" lon="6.15041">
        <ele>2243.6</ele>
        <time>2021-02-17T12:12:29Z</time>
      </trkpt>
      <trkpt lat="45.28705" lon="6.15046">
        <ele>2239.5</ele>
        <time>2021-02-17T12:12:30Z</time>
      </trkpt>
      <trkpt lat="45.28704" lon="6.15048">
        <ele>2239.5</ele>
        <time>2021-02-17T12:12:31Z</time>
      </trkpt>
      <trkpt lat="45.28705" lon="6.15055">
        <ele>2236.5</ele>
        <time>2021-02-17T12:12:32Z</time>
      </trkpt>
      <trkpt lat="45.28705" lon="6.15062">
        <ele>2235</ele>
        <time>2021-02-17T12:12:33Z</time>
      </trkpt>
      <trkpt lat="45.28705" lon="6.15073">
        <ele>2230.5</ele>
        <time>2021-02-17T12:12:34Z</time>
      </trkpt>
      <trkpt lat="45.28698" lon="6.15068">
        <ele>2230.5</ele>
        <time>2021-02-17T12:12:35Z</time>
      </trkpt>
      <trkpt lat="45.28692" lon="6.15069">
        <ele>2229</ele>
        <time>2021-02-17T12:12:36Z</time>
      </trkpt>
      <trkpt lat="45.28686" lon="6.15071">
        <ele>2227.7</ele>
        <time>2021-02-17T12:12:37Z</time>
      </trkpt>
      <trkpt lat="45.28684" lon="6.1508">
        <ele>2223.2</ele>
        <time>2021-02-17T12:12:38Z</time>
      </trkpt>
      <trkpt lat="45.28684" lon="6.1509">
        <ele>2220.8</ele>
        <time>2021-02-17T12:12:39Z</time>
      </trkpt>
      <trkpt lat="45.28692" lon="6.15104">
        <ele>2219.2</ele>
        <time>2021-02-17T12:12:40Z</time>
      </trkpt>
      <trkpt lat="45.287" lon="6.15104">
        <ele>2220.8</ele>
        <time>2021-02-17T12:12:41Z</time>
      </trkpt>
      <trkpt lat="45.28704" lon="6.1511">
        <ele>2219.1</ele>
        <time>2021-02-17T12:12:42Z</time>
      </trkpt>
      <trkpt lat="45.28708" lon="6.15113">
        <ele>2219.5</ele>
        <time>2021-02-17T12:12:43Z</time>
      </trkpt>
      <trkpt lat="45.28706" lon="6.15119">
        <ele>2217.2</ele>
        <time>2021-02-17T12:12:44Z</time>
      </trkpt>
      <trkpt lat="45.28706" lon="6.15126">
        <ele>2216.1</ele>
        <time>2021-02-17T12:12:45Z</time>
      </trkpt>
      <trkpt lat="45.28705" lon="6.15144">
        <ele>2210.8</ele>
        <time>2021-02-17T12:12:46Z</time>
      </trkpt>
      <trkpt lat="45.28699" lon="6.15155">
        <ele>2208.2</ele>
        <time>2021-02-17T12:12:47Z</time>
      </trkpt>
      <trkpt lat="45.28693" lon="6.15165">
        <ele>2205.5</ele>
        <time>2021-02-17T12:12:48Z</time>
      </trkpt>
      <trkpt lat="45.28689" lon="6.15172">
        <ele>2203.2</ele>
        <time>2021-02-17T12:12:49Z</time>
      </trkpt>
      <trkpt lat="45.28687" lon="6.15179">
        <ele>2201.3</ele>
        <time>2021-02-17T12:12:50Z</time>
      </trkpt>
      <trkpt lat="45.28684" lon="6.15187">
        <ele>2199.5</ele>
        <time>2021-02-17T12:12:51Z</time>
      </trkpt>
      <trkpt lat="45.28682" lon="6.15196">
        <ele>2197.9</ele>
        <time>2021-02-17T12:12:52Z</time>
      </trkpt>
      <trkpt lat="45.2868" lon="6.15203">
        <ele>2196.9</ele>
        <time>2021-02-17T12:12:53Z</time>
      </trkpt>
      <trkpt lat="45.28676" lon="6.15211">
        <ele>2194.8</ele>
        <time>2021-02-17T12:12:54Z</time>
      </trkpt>
      <trkpt lat="45.28674" lon="6.15214">
        <ele>2193.6</ele>
        <time>2021-02-17T12:12:55Z</time>
      </trkpt>
      <trkpt lat="45.28671" lon="6.15216">
        <ele>2193.3</ele>
        <time>2021-02-17T12:12:56Z</time>
      </trkpt>
      <trkpt lat="45.2867" lon="6.15217">
        <ele>2193.3</ele>
        <time>2021-02-17T12:12:57Z</time>
      </trkpt>
      <trkpt lat="45.28669" lon="6.15218">
        <ele>2191.9</ele>
        <time>2021-02-17T12:12:58Z</time>
      </trkpt>
      <trkpt lat="45.28667" lon="6.15219">
        <ele>2191.9</ele>
        <time>2021-02-17T12:12:59Z</time>
      </trkpt>
      <trkpt lat="45.28667" lon="6.15219">
        <ele>2191.9</ele>
        <time>2021-02-17T12:13:00Z</time>
      </trkpt>
      <trkpt lat="45.28666" lon="6.1522">
        <ele>2191.6</ele>
        <time>2021-02-17T12:13:01Z</time>
      </trkpt>
      <trkpt lat="45.28666" lon="6.1522">
        <ele>2191.6</ele>
        <time>2021-02-17T12:13:02Z</time>
      </trkpt>
      <trkpt lat="45.28666" lon="6.1522">
        <ele>2191.6</ele>
        <time>2021-02-17T12:13:03Z</time>
      </trkpt>
      <trkpt lat="45.28666" lon="6.1522">
        <ele>2191.6</ele>
        <time>2021-02-17T12:13:04Z</time>
      </trkpt>
      <trkpt lat="45.28666" lon="6.1522">
        <ele>2191.6</ele>
        <time>2021-02-17T12:13:05Z</time>
      </trkpt>
      <trkpt lat="45.28666" lon="6.1522">
        <ele>2191.6</ele>
        <time>2021-02-17T12:13:06Z</time>
      </trkpt>
      <trkpt lat="45.28666" lon="6.1522">
        <ele>2191.6</ele>
        <time>2021-02-17T12:13:07Z</time>
      </trkpt>
      <trkpt lat="45.28666" lon="6.1522">
        <ele>2191.6</ele>
        <time>2021-02-17T12:13:08Z</time>
      </trkpt>
      <trkpt lat="45.28666" lon="6.1522">
        <ele>2191.6</ele>
        <time>2021-02-17T12:13:09Z</time>
      </trkpt>
      <trkpt lat="45.28666" lon="6.1522">
        <ele>2191.6</ele>
        <time>2021-02-17T12:13:10Z</time>
      </trkpt>
      <trkpt lat="45.28664" lon="6.15223">
        <ele>2190.6</ele>
        <time>2021-02-17T12:13:11Z</time>
      </trkpt>
      <trkpt lat="45.28664" lon="6.15233">
        <ele>2188.7</ele>
        <time>2021-02-17T12:13:15Z</time>
      </trkpt>
      <trkpt lat="45.28661" lon="6.15238">
        <ele>2186.8</ele>
        <time>2021-02-17T12:13:16Z</time>
      </trkpt>
      <trkpt lat="45.28658" lon="6.1524">
        <ele>2185.5</ele>
        <time>2021-02-17T12:13:17Z</time>
      </trkpt>
      <trkpt lat="45.28655" lon="6.15241">
        <ele>2185</ele>
        <time>2021-02-17T12:13:18Z</time>
      </trkpt>
      <trkpt lat="45.28654" lon="6.15242">
        <ele>2184.7</ele>
        <time>2021-02-17T12:13:19Z</time>
      </trkpt>
      <trkpt lat="45.28652" lon="6.15243">
        <ele>2184.7</ele>
        <time>2021-02-17T12:13:20Z</time>
      </trkpt>
      <trkpt lat="45.28651" lon="6.15244">
        <ele>2183.4</ele>
        <time>2021-02-17T12:13:21Z</time>
      </trkpt>
      <trkpt lat="45.28649" lon="6.15246">
        <ele>2183.4</ele>
        <time>2021-02-17T12:13:22Z</time>
      </trkpt>
      <trkpt lat="45.28649" lon="6.15247">
        <ele>2182.4</ele>
        <time>2021-02-17T12:13:23Z</time>
      </trkpt>
      <trkpt lat="45.28648" lon="6.15249">
        <ele>2182.4</ele>
        <time>2021-02-17T12:13:24Z</time>
      </trkpt>
      <trkpt lat="45.28647" lon="6.15251">
        <ele>2182.1</ele>
        <time>2021-02-17T12:13:25Z</time>
      </trkpt>
      <trkpt lat="45.28646" lon="6.15253">
        <ele>2181.2</ele>
        <time>2021-02-17T12:13:26Z</time>
      </trkpt>
      <trkpt lat="45.28646" lon="6.15254">
        <ele>2181.2</ele>
        <time>2021-02-17T12:13:27Z</time>
      </trkpt>
      <trkpt lat="45.28646" lon="6.15254">
        <ele>2181.2</ele>
        <time>2021-02-17T12:13:28Z</time>
      </trkpt>
      <trkpt lat="45.28646" lon="6.15254">
        <ele>2181.2</ele>
        <time>2021-02-17T12:13:29Z</time>
      </trkpt>
      <trkpt lat="45.28646" lon="6.15254">
        <ele>2181.2</ele>
        <time>2021-02-17T12:13:30Z</time>
      </trkpt>
      <trkpt lat="45.28646" lon="6.15254">
        <ele>2181.2</ele>
        <time>2021-02-17T12:13:31Z</time>
      </trkpt>
      <trkpt lat="45.28645" lon="6.15255">
        <ele>2180.9</ele>
        <time>2021-02-17T12:13:32Z</time>
      </trkpt>
      <trkpt lat="45.28644" lon="6.15255">
        <ele>2180.9</ele>
        <time>2021-02-17T12:13:33Z</time>
      </trkpt>
      <trkpt lat="45.28641" lon="6.15259">
        <ele>2179.7</ele>
        <time>2021-02-17T12:13:34Z</time>
      </trkpt>
      <trkpt lat="45.28638" lon="6.15262">
        <ele>2178.6</ele>
        <time>2021-02-17T12:13:35Z</time>
      </trkpt>
      <trkpt lat="45.28635" lon="6.15265">
        <ele>2177.5</ele>
        <time>2021-02-17T12:13:36Z</time>
      </trkpt>
      <trkpt lat="45.28631" lon="6.15269">
        <ele>2177</ele>
        <time>2021-02-17T12:13:53Z</time>
      </trkpt>
      <trkpt lat="45.28628" lon="6.15272">
        <ele>2176</ele>
        <time>2021-02-17T12:13:54Z</time>
      </trkpt>
      <trkpt lat="45.28622" lon="6.15275">
        <ele>2174.4</ele>
        <time>2021-02-17T12:13:55Z</time>
      </trkpt>
      <trkpt lat="45.28618" lon="6.15277">
        <ele>2173.3</ele>
        <time>2021-02-17T12:13:56Z</time>
      </trkpt>
      <trkpt lat="45.28616" lon="6.15281">
        <ele>2172.6</ele>
        <time>2021-02-17T12:13:57Z</time>
      </trkpt>
      <trkpt lat="45.28613" lon="6.15287">
        <ele>2170.4</ele>
        <time>2021-02-17T12:13:58Z</time>
      </trkpt>
      <trkpt lat="45.28613" lon="6.15303">
        <ele>2167.7</ele>
        <time>2021-02-17T12:13:59Z</time>
      </trkpt>
      <trkpt lat="45.28613" lon="6.15315">
        <ele>2166.6</ele>
        <time>2021-02-17T12:14:00Z</time>
      </trkpt>
      <trkpt lat="45.28612" lon="6.15325">
        <ele>2164.5</ele>
        <time>2021-02-17T12:14:01Z</time>
      </trkpt>
      <trkpt lat="45.2861" lon="6.15335">
        <ele>2163.7</ele>
        <time>2021-02-17T12:14:02Z</time>
      </trkpt>
      <trkpt lat="45.28609" lon="6.15345">
        <ele>2162.9</ele>
        <time>2021-02-17T12:14:03Z</time>
      </trkpt>
      <trkpt lat="45.28608" lon="6.15352">
        <ele>2161.8</ele>
        <time>2021-02-17T12:14:04Z</time>
      </trkpt>
      <trkpt lat="45.28606" lon="6.15361">
        <ele>2161.2</ele>
        <time>2021-02-17T12:14:05Z</time>
      </trkpt>
      <trkpt lat="45.28604" lon="6.15371">
        <ele>2160.3</ele>
        <time>2021-02-17T12:14:06Z</time>
      </trkpt>
      <trkpt lat="45.28602" lon="6.15375">
        <ele>2159.5</ele>
        <time>2021-02-17T12:14:07Z</time>
      </trkpt>
      <trkpt lat="45.28599" lon="6.15379">
        <ele>2158.7</ele>
        <time>2021-02-17T12:14:08Z</time>
      </trkpt>
      <trkpt lat="45.28597" lon="6.1538">
        <ele>2158.4</ele>
        <time>2021-02-17T12:14:09Z</time>
      </trkpt>
      <trkpt lat="45.28598" lon="6.1538">
        <ele>2158.7</ele>
        <time>2021-02-17T12:14:10Z</time>
      </trkpt>
      <trkpt lat="45.28598" lon="6.1538">
        <ele>2158.7</ele>
        <time>2021-02-17T12:14:11Z</time>
      </trkpt>
      <trkpt lat="45.28598" lon="6.1538">
        <ele>2158.7</ele>
        <time>2021-02-17T12:14:12Z</time>
      </trkpt>
      <trkpt lat="45.28598" lon="6.1538">
        <ele>2158.7</ele>
        <time>2021-02-17T12:14:13Z</time>
      </trkpt>
      <trkpt lat="45.28598" lon="6.1538">
        <ele>2158.7</ele>
        <time>2021-02-17T12:14:14Z</time>
      </trkpt>
      <trkpt lat="45.28598" lon="6.1538">
        <ele>2158.7</ele>
        <time>2021-02-17T12:14:15Z</time>
      </trkpt>
      <trkpt lat="45.28598" lon="6.1538">
        <ele>2158.7</ele>
        <time>2021-02-17T12:14:16Z</time>
      </trkpt>
      <trkpt lat="45.28598" lon="6.1538">
        <ele>2158.7</ele>
        <time>2021-02-17T12:14:17Z</time>
      </trkpt>
      <trkpt lat="45.28598" lon="6.1538">
        <ele>2158.7</ele>
        <time>2021-02-17T12:14:18Z</time>
      </trkpt>
      <trkpt lat="45.28598" lon="6.15384">
        <ele>2158.4</ele>
        <time>2021-02-17T12:14:19Z</time>
      </trkpt>
      <trkpt lat="45.28595" lon="6.1539">
        <ele>2156.9</ele>
        <time>2021-02-17T12:14:23Z</time>
      </trkpt>
      <trkpt lat="45.28594" lon="6.15392">
        <ele>2156.9</ele>
        <time>2021-02-17T12:14:24Z</time>
      </trkpt>
      <trkpt lat="45.28593" lon="6.15393">
        <ele>2156.2</ele>
        <time>2021-02-17T12:14:25Z</time>
      </trkpt>
      <trkpt lat="45.28592" lon="6.15394">
        <ele>2155.8</ele>
        <time>2021-02-17T12:14:26Z</time>
      </trkpt>
      <trkpt lat="45.28592" lon="6.15395">
        <ele>2155.8</ele>
        <time>2021-02-17T12:14:27Z</time>
      </trkpt>
      <trkpt lat="45.28592" lon="6.15396">
        <ele>2155.8</ele>
        <time>2021-02-17T12:14:28Z</time>
      </trkpt>
      <trkpt lat="45.28592" lon="6.15398">
        <ele>2155.4</ele>
        <time>2021-02-17T12:14:29Z</time>
      </trkpt>
      <trkpt lat="45.28592" lon="6.15399">
        <ele>2155.4</ele>
        <time>2021-02-17T12:14:30Z</time>
      </trkpt>
      <trkpt lat="45.28593" lon="6.154">
        <ele>2155.4</ele>
        <time>2021-02-17T12:14:31Z</time>
      </trkpt>
      <trkpt lat="45.28593" lon="6.154">
        <ele>2155.4</ele>
        <time>2021-02-17T12:14:32Z</time>
      </trkpt>
      <trkpt lat="45.28593" lon="6.154">
        <ele>2155.4</ele>
        <time>2021-02-17T12:14:33Z</time>
      </trkpt>
      <trkpt lat="45.28593" lon="6.154">
        <ele>2155.4</ele>
        <time>2021-02-17T12:14:34Z</time>
      </trkpt>
      <trkpt lat="45.28593" lon="6.154">
        <ele>2155.4</ele>
        <time>2021-02-17T12:14:35Z</time>
      </trkpt>
      <trkpt lat="45.28593" lon="6.154">
        <ele>2155.4</ele>
        <time>2021-02-17T12:14:36Z</time>
      </trkpt>
      <trkpt lat="45.28593" lon="6.154">
        <ele>2155.4</ele>
        <time>2021-02-17T12:14:37Z</time>
      </trkpt>
      <trkpt lat="45.28593" lon="6.154">
        <ele>2155.4</ele>
        <time>2021-02-17T12:14:38Z</time>
      </trkpt>
      <trkpt lat="45.28593" lon="6.154">
        <ele>2155.4</ele>
        <time>2021-02-17T12:14:39Z</time>
      </trkpt>
      <trkpt lat="45.28593" lon="6.154">
        <ele>2155.4</ele>
        <time>2021-02-17T12:14:40Z</time>
      </trkpt>
      <trkpt lat="45.28593" lon="6.154">
        <ele>2155.4</ele>
        <time>2021-02-17T12:14:41Z</time>
      </trkpt>
      <trkpt lat="45.28596" lon="6.15398">
        <ele>2156.1</ele>
        <time>2021-02-17T12:15:01Z</time>
      </trkpt>
      <trkpt lat="45.28597" lon="6.15398">
        <ele>2156.8</ele>
        <time>2021-02-17T12:15:02Z</time>
      </trkpt>
      <trkpt lat="45.28598" lon="6.15398">
        <ele>2156.8</ele>
        <time>2021-02-17T12:15:03Z</time>
      </trkpt>
      <trkpt lat="45.28598" lon="6.15399">
        <ele>2156.8</ele>
        <time>2021-02-17T12:15:04Z</time>
      </trkpt>
      <trkpt lat="45.28598" lon="6.154">
        <ele>2156.8</ele>
        <time>2021-02-17T12:15:05Z</time>
      </trkpt>
      <trkpt lat="45.28599" lon="6.15401">
        <ele>2156.8</ele>
        <time>2021-02-17T12:15:06Z</time>
      </trkpt>
      <trkpt lat="45.28599" lon="6.15402">
        <ele>2156.8</ele>
        <time>2021-02-17T12:15:07Z</time>
      </trkpt>
      <trkpt lat="45.28599" lon="6.15403">
        <ele>2156.5</ele>
        <time>2021-02-17T12:15:08Z</time>
      </trkpt>
      <trkpt lat="45.28599" lon="6.15404">
        <ele>2156.5</ele>
        <time>2021-02-17T12:15:09Z</time>
      </trkpt>
      <trkpt lat="45.286" lon="6.15404">
        <ele>2156.5</ele>
        <time>2021-02-17T12:15:10Z</time>
      </trkpt>
      <trkpt lat="45.286" lon="6.15405">
        <ele>2157.1</ele>
        <time>2021-02-17T12:15:11Z</time>
      </trkpt>
      <trkpt lat="45.286" lon="6.15406">
        <ele>2156.7</ele>
        <time>2021-02-17T12:15:12Z</time>
      </trkpt>
      <trkpt lat="45.28601" lon="6.15407">
        <ele>2156.7</ele>
        <time>2021-02-17T12:15:49Z</time>
      </trkpt>
      <trkpt lat="45.28601" lon="6.15408">
        <ele>2156.7</ele>
        <time>2021-02-17T12:15:50Z</time>
      </trkpt>
      <trkpt lat="45.28603" lon="6.15412">
        <ele>2156.4</ele>
        <time>2021-02-17T12:15:51Z</time>
      </trkpt>
      <trkpt lat="45.28609" lon="6.15422">
        <ele>2157</ele>
        <time>2021-02-17T12:15:52Z</time>
      </trkpt>
      <trkpt lat="45.2861" lon="6.15429">
        <ele>2157</ele>
        <time>2021-02-17T12:15:53Z</time>
      </trkpt>
      <trkpt lat="45.28613" lon="6.15436">
        <ele>2157.3</ele>
        <time>2021-02-17T12:15:54Z</time>
      </trkpt>
      <trkpt lat="45.28616" lon="6.15441">
        <ele>2157.2</ele>
        <time>2021-02-17T12:15:55Z</time>
      </trkpt>
      <trkpt lat="45.28619" lon="6.15446">
        <ele>2157.4</ele>
        <time>2021-02-17T12:15:56Z</time>
      </trkpt>
      <trkpt lat="45.28621" lon="6.15449">
        <ele>2157.5</ele>
        <time>2021-02-17T12:15:57Z</time>
      </trkpt>
      <trkpt lat="45.28624" lon="6.15453">
        <ele>2157.5</ele>
        <time>2021-02-17T12:15:58Z</time>
      </trkpt>
      <trkpt lat="45.28626" lon="6.15456">
        <ele>2157.5</ele>
        <time>2021-02-17T12:15:59Z</time>
      </trkpt>
      <trkpt lat="45.28629" lon="6.15459">
        <ele>2157.4</ele>
        <time>2021-02-17T12:16:00Z</time>
      </trkpt>
      <trkpt lat="45.28632" lon="6.15462">
        <ele>2157.3</ele>
        <time>2021-02-17T12:16:01Z</time>
      </trkpt>
      <trkpt lat="45.28636" lon="6.15463">
        <ele>2157.8</ele>
        <time>2021-02-17T12:16:02Z</time>
      </trkpt>
      <trkpt lat="45.28639" lon="6.15465">
        <ele>2158.2</ele>
        <time>2021-02-17T12:16:03Z</time>
      </trkpt>
      <trkpt lat="45.28642" lon="6.15467">
        <ele>2158.1</ele>
        <time>2021-02-17T12:16:04Z</time>
      </trkpt>
      <trkpt lat="45.28646" lon="6.1547">
        <ele>2158.6</ele>
        <time>2021-02-17T12:16:05Z</time>
      </trkpt>
      <trkpt lat="45.28647" lon="6.15471">
        <ele>2158.1</ele>
        <time>2021-02-17T12:16:06Z</time>
      </trkpt>
      <trkpt lat="45.2865" lon="6.15473">
        <ele>2158.4</ele>
        <time>2021-02-17T12:16:07Z</time>
      </trkpt>
      <trkpt lat="45.28652" lon="6.15474">
        <ele>2158.6</ele>
        <time>2021-02-17T12:16:08Z</time>
      </trkpt>
      <trkpt lat="45.28653" lon="6.15481">
        <ele>2157.5</ele>
        <time>2021-02-17T12:16:09Z</time>
      </trkpt>
      <trkpt lat="45.28658" lon="6.15488">
        <ele>2156.9</ele>
        <time>2021-02-17T12:16:10Z</time>
      </trkpt>
      <trkpt lat="45.28662" lon="6.15493">
        <ele>2156.6</ele>
        <time>2021-02-17T12:16:11Z</time>
      </trkpt>
      <trkpt lat="45.28666" lon="6.15498">
        <ele>2156.4</ele>
        <time>2021-02-17T12:16:12Z</time>
      </trkpt>
      <trkpt lat="45.2867" lon="6.15503">
        <ele>2156.4</ele>
        <time>2021-02-17T12:16:13Z</time>
      </trkpt>
      <trkpt lat="45.28674" lon="6.15508">
        <ele>2156.1</ele>
        <time>2021-02-17T12:16:14Z</time>
      </trkpt>
      <trkpt lat="45.28679" lon="6.15513">
        <ele>2155.9</ele>
        <time>2021-02-17T12:16:15Z</time>
      </trkpt>
      <trkpt lat="45.28683" lon="6.15518">
        <ele>2154.9</ele>
        <time>2021-02-17T12:16:16Z</time>
      </trkpt>
      <trkpt lat="45.28687" lon="6.15527">
        <ele>2153.8</ele>
        <time>2021-02-17T12:16:17Z</time>
      </trkpt>
      <trkpt lat="45.2869" lon="6.15538">
        <ele>2152.7</ele>
        <time>2021-02-17T12:16:18Z</time>
      </trkpt>
      <trkpt lat="45.28692" lon="6.1555">
        <ele>2151</ele>
        <time>2021-02-17T12:16:19Z</time>
      </trkpt>
      <trkpt lat="45.28695" lon="6.15555">
        <ele>2150.7</ele>
        <time>2021-02-17T12:16:20Z</time>
      </trkpt>
      <trkpt lat="45.287" lon="6.15557">
        <ele>2150.8</ele>
        <time>2021-02-17T12:16:21Z</time>
      </trkpt>
      <trkpt lat="45.28702" lon="6.15568">
        <ele>2149.1</ele>
        <time>2021-02-17T12:16:22Z</time>
      </trkpt>
      <trkpt lat="45.287" lon="6.15576">
        <ele>2147.4</ele>
        <time>2021-02-17T12:16:23Z</time>
      </trkpt>
      <trkpt lat="45.28698" lon="6.15584">
        <ele>2145</ele>
        <time>2021-02-17T12:16:24Z</time>
      </trkpt>
      <trkpt lat="45.28695" lon="6.15593">
        <ele>2142.5</ele>
        <time>2021-02-17T12:16:25Z</time>
      </trkpt>
      <trkpt lat="45.28688" lon="6.15594">
        <ele>2141</ele>
        <time>2021-02-17T12:16:26Z</time>
      </trkpt>
      <trkpt lat="45.28685" lon="6.15603">
        <ele>2138.4</ele>
        <time>2021-02-17T12:16:27Z</time>
      </trkpt>
      <trkpt lat="45.28683" lon="6.15611">
        <ele>2135.7</ele>
        <time>2021-02-17T12:16:28Z</time>
      </trkpt>
      <trkpt lat="45.2868" lon="6.1562">
        <ele>2133</ele>
        <time>2021-02-17T12:16:29Z</time>
      </trkpt>
      <trkpt lat="45.28677" lon="6.15628">
        <ele>2130.2</ele>
        <time>2021-02-17T12:16:30Z</time>
      </trkpt>
      <trkpt lat="45.28672" lon="6.15625">
        <ele>2129.3</ele>
        <time>2021-02-17T12:16:31Z</time>
      </trkpt>
      <trkpt lat="45.28668" lon="6.15623">
        <ele>2128.4</ele>
        <time>2021-02-17T12:16:32Z</time>
      </trkpt>
      <trkpt lat="45.28665" lon="6.15624">
        <ele>2127.4</ele>
        <time>2021-02-17T12:16:33Z</time>
      </trkpt>
      <trkpt lat="45.2866" lon="6.15626">
        <ele>2125.3</ele>
        <time>2021-02-17T12:16:34Z</time>
      </trkpt>
      <trkpt lat="45.28654" lon="6.15634">
        <ele>2119.8</ele>
        <time>2021-02-17T12:16:35Z</time>
      </trkpt>
      <trkpt lat="45.28654" lon="6.15644">
        <ele>2117.4</ele>
        <time>2021-02-17T12:16:36Z</time>
      </trkpt>
      <trkpt lat="45.28649" lon="6.15645">
        <ele>2116.3</ele>
        <time>2021-02-17T12:16:37Z</time>
      </trkpt>
      <trkpt lat="45.28644" lon="6.15648">
        <ele>2112.8</ele>
        <time>2021-02-17T12:16:38Z</time>
      </trkpt>
      <trkpt lat="45.28637" lon="6.1565">
        <ele>2110.1</ele>
        <time>2021-02-17T12:16:39Z</time>
      </trkpt>
      <trkpt lat="45.28637" lon="6.15663">
        <ele>2106.1</ele>
        <time>2021-02-17T12:16:40Z</time>
      </trkpt>
      <trkpt lat="45.28633" lon="6.15671">
        <ele>2102.1</ele>
        <time>2021-02-17T12:16:41Z</time>
      </trkpt>
      <trkpt lat="45.28631" lon="6.15676">
        <ele>2099.5</ele>
        <time>2021-02-17T12:16:42Z</time>
      </trkpt>
      <trkpt lat="45.28629" lon="6.15678">
        <ele>2097</ele>
        <time>2021-02-17T12:16:43Z</time>
      </trkpt>
      <trkpt lat="45.28624" lon="6.15682">
        <ele>2094.6</ele>
        <time>2021-02-17T12:16:44Z</time>
      </trkpt>
      <trkpt lat="45.2862" lon="6.1569">
        <ele>2090</ele>
        <time>2021-02-17T12:16:45Z</time>
      </trkpt>
      <trkpt lat="45.28619" lon="6.15699">
        <ele>2088.1</ele>
        <time>2021-02-17T12:16:46Z</time>
      </trkpt>
      <trkpt lat="45.28619" lon="6.15697">
        <ele>2089</ele>
        <time>2021-02-17T12:16:47Z</time>
      </trkpt>
      <trkpt lat="45.28617" lon="6.15701">
        <ele>2086.6</ele>
        <time>2021-02-17T12:16:48Z</time>
      </trkpt>
      <trkpt lat="45.28614" lon="6.15704">
        <ele>2084</ele>
        <time>2021-02-17T12:16:49Z</time>
      </trkpt>
      <trkpt lat="45.28611" lon="6.1571">
        <ele>2081.4</ele>
        <time>2021-02-17T12:16:50Z</time>
      </trkpt>
      <trkpt lat="45.28606" lon="6.15724">
        <ele>2076.7</ele>
        <time>2021-02-17T12:16:51Z</time>
      </trkpt>
      <trkpt lat="45.28603" lon="6.15733">
        <ele>2072.2</ele>
        <time>2021-02-17T12:16:52Z</time>
      </trkpt>
      <trkpt lat="45.28598" lon="6.15744">
        <ele>2069.4</ele>
        <time>2021-02-17T12:16:53Z</time>
      </trkpt>
      <trkpt lat="45.28594" lon="6.15749">
        <ele>2065.5</ele>
        <time>2021-02-17T12:16:54Z</time>
      </trkpt>
      <trkpt lat="45.28586" lon="6.15757">
        <ele>2060.5</ele>
        <time>2021-02-17T12:16:55Z</time>
      </trkpt>
      <trkpt lat="45.28578" lon="6.15764">
        <ele>2053.8</ele>
        <time>2021-02-17T12:16:56Z</time>
      </trkpt>
      <trkpt lat="45.28581" lon="6.15771">
        <ele>2054.5</ele>
        <time>2021-02-17T12:16:57Z</time>
      </trkpt>
      <trkpt lat="45.28581" lon="6.1577">
        <ele>2055</ele>
        <time>2021-02-17T12:16:58Z</time>
      </trkpt>
      <trkpt lat="45.28584" lon="6.15769">
        <ele>2056.9</ele>
        <time>2021-02-17T12:16:59Z</time>
      </trkpt>
      <trkpt lat="45.28582" lon="6.15774">
        <ele>2054.5</ele>
        <time>2021-02-17T12:17:00Z</time>
      </trkpt>
      <trkpt lat="45.28576" lon="6.15781">
        <ele>2050.1</ele>
        <time>2021-02-17T12:17:01Z</time>
      </trkpt>
      <trkpt lat="45.28571" lon="6.15785">
        <ele>2048</ele>
        <time>2021-02-17T12:17:02Z</time>
      </trkpt>
      <trkpt lat="45.28568" lon="6.15796">
        <ele>2045.8</ele>
        <time>2021-02-17T12:17:03Z</time>
      </trkpt>
      <trkpt lat="45.28565" lon="6.15802">
        <ele>2043.8</ele>
        <time>2021-02-17T12:17:04Z</time>
      </trkpt>
      <trkpt lat="45.28561" lon="6.15809">
        <ele>2042.1</ele>
        <time>2021-02-17T12:17:05Z</time>
      </trkpt>
      <trkpt lat="45.28557" lon="6.15818">
        <ele>2038.7</ele>
        <time>2021-02-17T12:17:06Z</time>
      </trkpt>
      <trkpt lat="45.28553" lon="6.15826">
        <ele>2036.8</ele>
        <time>2021-02-17T12:17:07Z</time>
      </trkpt>
      <trkpt lat="45.2855" lon="6.15827">
        <ele>2035.1</ele>
        <time>2021-02-17T12:17:08Z</time>
      </trkpt>
      <trkpt lat="45.28549" lon="6.15828">
        <ele>2035.1</ele>
        <time>2021-02-17T12:17:09Z</time>
      </trkpt>
      <trkpt lat="45.2854" lon="6.15831">
        <ele>2030.9</ele>
        <time>2021-02-17T12:17:10Z</time>
      </trkpt>
      <trkpt lat="45.28534" lon="6.15834">
        <ele>2028.1</ele>
        <time>2021-02-17T12:17:11Z</time>
      </trkpt>
      <trkpt lat="45.28531" lon="6.15838">
        <ele>2026.5</ele>
        <time>2021-02-17T12:17:12Z</time>
      </trkpt>
      <trkpt lat="45.28524" lon="6.15837">
        <ele>2021.6</ele>
        <time>2021-02-17T12:17:13Z</time>
      </trkpt>
      <trkpt lat="45.28516" lon="6.15839">
        <ele>2018.9</ele>
        <time>2021-02-17T12:17:14Z</time>
      </trkpt>
      <trkpt lat="45.28515" lon="6.15828">
        <ele>2018.1</ele>
        <time>2021-02-17T12:17:15Z</time>
      </trkpt>
      <trkpt lat="45.28511" lon="6.15826">
        <ele>2017.2</ele>
        <time>2021-02-17T12:17:16Z</time>
      </trkpt>
      <trkpt lat="45.28508" lon="6.1583">
        <ele>2015.7</ele>
        <time>2021-02-17T12:17:17Z</time>
      </trkpt>
      <trkpt lat="45.28501" lon="6.15827">
        <ele>2012.9</ele>
        <time>2021-02-17T12:17:18Z</time>
      </trkpt>
      <trkpt lat="45.28495" lon="6.15825">
        <ele>2010.5</ele>
        <time>2021-02-17T12:17:19Z</time>
      </trkpt>
      <trkpt lat="45.2849" lon="6.15826">
        <ele>2008.1</ele>
        <time>2021-02-17T12:17:20Z</time>
      </trkpt>
      <trkpt lat="45.28486" lon="6.15825">
        <ele>2006.9</ele>
        <time>2021-02-17T12:17:21Z</time>
      </trkpt>
      <trkpt lat="45.28482" lon="6.15824">
        <ele>2004.5</ele>
        <time>2021-02-17T12:17:22Z</time>
      </trkpt>
      <trkpt lat="45.28485" lon="6.15825">
        <ele>2006.9</ele>
        <time>2021-02-17T12:17:23Z</time>
      </trkpt>
      <trkpt lat="45.28485" lon="6.15823">
        <ele>2005.7</ele>
        <time>2021-02-17T12:17:24Z</time>
      </trkpt>
      <trkpt lat="45.28485" lon="6.15822">
        <ele>2006.1</ele>
        <time>2021-02-17T12:17:25Z</time>
      </trkpt>
      <trkpt lat="45.28485" lon="6.15822">
        <ele>2006.1</ele>
        <time>2021-02-17T12:17:26Z</time>
      </trkpt>
      <trkpt lat="45.28483" lon="6.15821">
        <ele>2006.1</ele>
        <time>2021-02-17T12:17:27Z</time>
      </trkpt>
      <trkpt lat="45.28484" lon="6.15817">
        <ele>2006.4</ele>
        <time>2021-02-17T12:17:28Z</time>
      </trkpt>
      <trkpt lat="45.28481" lon="6.15821">
        <ele>2004.8</ele>
        <time>2021-02-17T12:17:29Z</time>
      </trkpt>
      <trkpt lat="45.28482" lon="6.15819">
        <ele>2004.8</ele>
        <time>2021-02-17T12:17:30Z</time>
      </trkpt>
      <trkpt lat="45.28483" lon="6.15817">
        <ele>2006.4</ele>
        <time>2021-02-17T12:17:31Z</time>
      </trkpt>
      <trkpt lat="45.28487" lon="6.15813">
        <ele>2007.9</ele>
        <time>2021-02-17T12:17:32Z</time>
      </trkpt>
      <trkpt lat="45.2849" lon="6.1581">
        <ele>2009.1</ele>
        <time>2021-02-17T12:17:33Z</time>
      </trkpt>
      <trkpt lat="45.28493" lon="6.15808">
        <ele>2010.6</ele>
        <time>2021-02-17T12:17:34Z</time>
      </trkpt>
      <trkpt lat="45.28495" lon="6.15803">
        <ele>2012.1</ele>
        <time>2021-02-17T12:17:35Z</time>
      </trkpt>
      <trkpt lat="45.28499" lon="6.15793">
        <ele>2014</ele>
        <time>2021-02-17T12:17:36Z</time>
      </trkpt>
      <trkpt lat="45.28503" lon="6.15784">
        <ele>2016.5</ele>
        <time>2021-02-17T12:17:37Z</time>
      </trkpt>
      <trkpt lat="45.28507" lon="6.15777">
        <ele>2019.5</ele>
        <time>2021-02-17T12:17:38Z</time>
      </trkpt>
      <trkpt lat="45.28511" lon="6.15775">
        <ele>2021</ele>
        <time>2021-02-17T12:17:39Z</time>
      </trkpt>
      <trkpt lat="45.28474" lon="6.15785">
        <ele>2005.8</ele>
        <time>2021-02-17T12:17:40Z</time>
      </trkpt>
      <trkpt lat="45.28474" lon="6.15785">
        <ele>2005.8</ele>
        <time>2021-02-17T12:17:41Z</time>
      </trkpt>
      <trkpt lat="45.28472" lon="6.15787">
        <ele>2004.6</ele>
        <time>2021-02-17T12:17:42Z</time>
      </trkpt>
      <trkpt lat="45.28471" lon="6.15787">
        <ele>2004.6</ele>
        <time>2021-02-17T12:17:43Z</time>
      </trkpt>
      <trkpt lat="45.28471" lon="6.15788">
        <ele>2004.6</ele>
        <time>2021-02-17T12:17:44Z</time>
      </trkpt>
      <trkpt lat="45.2847" lon="6.1579">
        <ele>2004.1</ele>
        <time>2021-02-17T12:17:45Z</time>
      </trkpt>
      <trkpt lat="45.2847" lon="6.15792">
        <ele>2002.9</ele>
        <time>2021-02-17T12:17:46Z</time>
      </trkpt>
      <trkpt lat="45.2847" lon="6.15795">
        <ele>2002.4</ele>
        <time>2021-02-17T12:17:47Z</time>
      </trkpt>
      <trkpt lat="45.2847" lon="6.15797">
        <ele>2001.9</ele>
        <time>2021-02-17T12:17:48Z</time>
      </trkpt>
      <trkpt lat="45.2847" lon="6.15798">
        <ele>2001.9</ele>
        <time>2021-02-17T12:17:49Z</time>
      </trkpt>
      <trkpt lat="45.2847" lon="6.15799">
        <ele>2001.9</ele>
        <time>2021-02-17T12:17:50Z</time>
      </trkpt>
      <trkpt lat="45.2847" lon="6.15801">
        <ele>2001.9</ele>
        <time>2021-02-17T12:17:51Z</time>
      </trkpt>
      <trkpt lat="45.28469" lon="6.15804">
        <ele>2001.4</ele>
        <time>2021-02-17T12:17:52Z</time>
      </trkpt>
      <trkpt lat="45.28468" lon="6.15808">
        <ele>2000.9</ele>
        <time>2021-02-17T12:17:53Z</time>
      </trkpt>
      <trkpt lat="45.28468" lon="6.15811">
        <ele>2000.5</ele>
        <time>2021-02-17T12:17:54Z</time>
      </trkpt>
      <trkpt lat="45.28467" lon="6.15815">
        <ele>1998.7</ele>
        <time>2021-02-17T12:17:55Z</time>
      </trkpt>
      <trkpt lat="45.28466" lon="6.15818">
        <ele>1998.3</ele>
        <time>2021-02-17T12:21:39Z</time>
      </trkpt>
      <trkpt lat="45.28465" lon="6.15822">
        <ele>1998.3</ele>
        <time>2021-02-17T12:21:40Z</time>
      </trkpt>
      <trkpt lat="45.28464" lon="6.15828">
        <ele>1996.2</ele>
        <time>2021-02-17T12:21:41Z</time>
      </trkpt>
      <trkpt lat="45.28462" lon="6.15834">
        <ele>1995.7</ele>
        <time>2021-02-17T12:21:42Z</time>
      </trkpt>
      <trkpt lat="45.2846" lon="6.15838">
        <ele>1994</ele>
        <time>2021-02-17T12:21:43Z</time>
      </trkpt>
      <trkpt lat="45.28458" lon="6.15838">
        <ele>1992.9</ele>
        <time>2021-02-17T12:21:44Z</time>
      </trkpt>
      <trkpt lat="45.28455" lon="6.15854">
        <ele>1991.4</ele>
        <time>2021-02-17T12:21:45Z</time>
      </trkpt>
      <trkpt lat="45.28457" lon="6.15858">
        <ele>1991</ele>
        <time>2021-02-17T12:21:46Z</time>
      </trkpt>
      <trkpt lat="45.28455" lon="6.15866">
        <ele>1989.2</ele>
        <time>2021-02-17T12:21:47Z</time>
      </trkpt>
      <trkpt lat="45.28454" lon="6.15871">
        <ele>1988.8</ele>
        <time>2021-02-17T12:21:48Z</time>
      </trkpt>
      <trkpt lat="45.28452" lon="6.1587">
        <ele>1987.6</ele>
        <time>2021-02-17T12:21:49Z</time>
      </trkpt>
      <trkpt lat="45.28438" lon="6.15857">
        <ele>1983.6</ele>
        <time>2021-02-17T12:21:50Z</time>
      </trkpt>
      <trkpt lat="45.28435" lon="6.15856">
        <ele>1982.3</ele>
        <time>2021-02-17T12:21:51Z</time>
      </trkpt>
      <trkpt lat="45.2843" lon="6.15855">
        <ele>1980.1</ele>
        <time>2021-02-17T12:21:52Z</time>
      </trkpt>
      <trkpt lat="45.28424" lon="6.15855">
        <ele>1977.9</ele>
        <time>2021-02-17T12:21:53Z</time>
      </trkpt>
      <trkpt lat="45.28417" lon="6.15863">
        <ele>1974.7</ele>
        <time>2021-02-17T12:21:54Z</time>
      </trkpt>
      <trkpt lat="45.2841" lon="6.15864">
        <ele>1972.4</ele>
        <time>2021-02-17T12:21:55Z</time>
      </trkpt>
      <trkpt lat="45.28403" lon="6.15865">
        <ele>1969.5</ele>
        <time>2021-02-17T12:21:56Z</time>
      </trkpt>
      <trkpt lat="45.28398" lon="6.15867">
        <ele>1968.1</ele>
        <time>2021-02-17T12:21:57Z</time>
      </trkpt>
      <trkpt lat="45.2839" lon="6.15871">
        <ele>1964.7</ele>
        <time>2021-02-17T12:21:58Z</time>
      </trkpt>
      <trkpt lat="45.28384" lon="6.1587">
        <ele>1962.9</ele>
        <time>2021-02-17T12:21:59Z</time>
      </trkpt>
      <trkpt lat="45.2838" lon="6.15866">
        <ele>1962.6</ele>
        <time>2021-02-17T12:22:00Z</time>
      </trkpt>
      <trkpt lat="45.28376" lon="6.15864">
        <ele>1961.7</ele>
        <time>2021-02-17T12:22:01Z</time>
      </trkpt>
      <trkpt lat="45.28373" lon="6.15861">
        <ele>1961.1</ele>
        <time>2021-02-17T12:22:02Z</time>
      </trkpt>
      <trkpt lat="45.28373" lon="6.15869">
        <ele>1960.2</ele>
        <time>2021-02-17T12:22:03Z</time>
      </trkpt>
      <trkpt lat="45.28373" lon="6.15874">
        <ele>1959.6</ele>
        <time>2021-02-17T12:22:04Z</time>
      </trkpt>
      <trkpt lat="45.28367" lon="6.15887">
        <ele>1957.9</ele>
        <time>2021-02-17T12:22:05Z</time>
      </trkpt>
      <trkpt lat="45.2836" lon="6.15883">
        <ele>1956.8</ele>
        <time>2021-02-17T12:22:06Z</time>
      </trkpt>
      <trkpt lat="45.28352" lon="6.15883">
        <ele>1955.6</ele>
        <time>2021-02-17T12:22:07Z</time>
      </trkpt>
      <trkpt lat="45.28345" lon="6.1588">
        <ele>1954.3</ele>
        <time>2021-02-17T12:22:08Z</time>
      </trkpt>
      <trkpt lat="45.28339" lon="6.15879">
        <ele>1953.3</ele>
        <time>2021-02-17T12:22:09Z</time>
      </trkpt>
      <trkpt lat="45.28335" lon="6.15881">
        <ele>1952.6</ele>
        <time>2021-02-17T12:22:10Z</time>
      </trkpt>
      <trkpt lat="45.28331" lon="6.15888">
        <ele>1951.5</ele>
        <time>2021-02-17T12:22:11Z</time>
      </trkpt>
      <trkpt lat="45.28328" lon="6.15898">
        <ele>1950.2</ele>
        <time>2021-02-17T12:22:12Z</time>
      </trkpt>
      <trkpt lat="45.28327" lon="6.15909">
        <ele>1948.8</ele>
        <time>2021-02-17T12:22:13Z</time>
      </trkpt>
      <trkpt lat="45.28326" lon="6.15917">
        <ele>1947.6</ele>
        <time>2021-02-17T12:22:14Z</time>
      </trkpt>
      <trkpt lat="45.28329" lon="6.15925">
        <ele>1946.3</ele>
        <time>2021-02-17T12:22:15Z</time>
      </trkpt>
      <trkpt lat="45.2833" lon="6.1593">
        <ele>1945.6</ele>
        <time>2021-02-17T12:22:16Z</time>
      </trkpt>
      <trkpt lat="45.28329" lon="6.15934">
        <ele>1944.9</ele>
        <time>2021-02-17T12:22:17Z</time>
      </trkpt>
      <trkpt lat="45.28326" lon="6.15935">
        <ele>1944.4</ele>
        <time>2021-02-17T12:22:18Z</time>
      </trkpt>
      <trkpt lat="45.28321" lon="6.15933">
        <ele>1943.4</ele>
        <time>2021-02-17T12:22:19Z</time>
      </trkpt>
      <trkpt lat="45.28316" lon="6.15931">
        <ele>1942.5</ele>
        <time>2021-02-17T12:22:20Z</time>
      </trkpt>
      <trkpt lat="45.28313" lon="6.15932">
        <ele>1942</ele>
        <time>2021-02-17T12:22:21Z</time>
      </trkpt>
      <trkpt lat="45.28312" lon="6.15928">
        <ele>1941.6</ele>
        <time>2021-02-17T12:22:22Z</time>
      </trkpt>
      <trkpt lat="45.28312" lon="6.15926">
        <ele>1941.4</ele>
        <time>2021-02-17T12:22:23Z</time>
      </trkpt>
      <trkpt lat="45.28312" lon="6.15929">
        <ele>1941.1</ele>
        <time>2021-02-17T12:22:24Z</time>
      </trkpt>
      <trkpt lat="45.28312" lon="6.15929">
        <ele>1941.1</ele>
        <time>2021-02-17T12:22:25Z</time>
      </trkpt>
      <trkpt lat="45.28312" lon="6.15928">
        <ele>1941.1</ele>
        <time>2021-02-17T12:22:26Z</time>
      </trkpt>
      <trkpt lat="45.28312" lon="6.15928">
        <ele>1941</ele>
        <time>2021-02-17T12:22:27Z</time>
      </trkpt>
      <trkpt lat="45.28312" lon="6.15929">
        <ele>1940.9</ele>
        <time>2021-02-17T12:22:28Z</time>
      </trkpt>
      <trkpt lat="45.28312" lon="6.1593">
        <ele>1940.8</ele>
        <time>2021-02-17T12:22:29Z</time>
      </trkpt>
      <trkpt lat="45.28313" lon="6.15934">
        <ele>1940.3</ele>
        <time>2021-02-17T12:22:30Z</time>
      </trkpt>
      <trkpt lat="45.28313" lon="6.15936">
        <ele>1940.1</ele>
        <time>2021-02-17T12:22:31Z</time>
      </trkpt>
      <trkpt lat="45.28314" lon="6.15941">
        <ele>1939.6</ele>
        <time>2021-02-17T12:22:32Z</time>
      </trkpt>
      <trkpt lat="45.28315" lon="6.15946">
        <ele>1939.1</ele>
        <time>2021-02-17T12:22:33Z</time>
      </trkpt>
      <trkpt lat="45.28316" lon="6.1595">
        <ele>1938.5</ele>
        <time>2021-02-17T12:22:34Z</time>
      </trkpt>
      <trkpt lat="45.28319" lon="6.15954">
        <ele>1937.9</ele>
        <time>2021-02-17T12:22:35Z</time>
      </trkpt>
      <trkpt lat="45.2832" lon="6.15954">
        <ele>1937.8</ele>
        <time>2021-02-17T12:22:36Z</time>
      </trkpt>
      <trkpt lat="45.28321" lon="6.15955">
        <ele>1937.6</ele>
        <time>2021-02-17T12:22:37Z</time>
      </trkpt>
      <trkpt lat="45.28322" lon="6.15956">
        <ele>1937.4</ele>
        <time>2021-02-17T12:22:38Z</time>
      </trkpt>
      <trkpt lat="45.28323" lon="6.15957">
        <ele>1937.2</ele>
        <time>2021-02-17T12:22:39Z</time>
      </trkpt>
      <trkpt lat="45.28324" lon="6.15958">
        <ele>1937.1</ele>
        <time>2021-02-17T12:22:40Z</time>
      </trkpt>
      <trkpt lat="45.28324" lon="6.15957">
        <ele>1936.9</ele>
        <time>2021-02-17T12:22:41Z</time>
      </trkpt>
      <trkpt lat="45.28324" lon="6.15957">
        <ele>1936.9</ele>
        <time>2021-02-17T12:22:42Z</time>
      </trkpt>
      <trkpt lat="45.28324" lon="6.15957">
        <ele>1936.9</ele>
        <time>2021-02-17T12:22:43Z</time>
      </trkpt>
      <trkpt lat="45.28324" lon="6.15957">
        <ele>1936.9</ele>
        <time>2021-02-17T12:22:44Z</time>
      </trkpt>
      <trkpt lat="45.28324" lon="6.15957">
        <ele>1936.9</ele>
        <time>2021-02-17T12:22:45Z</time>
      </trkpt>
      <trkpt lat="45.28324" lon="6.15957">
        <ele>1936.9</ele>
        <time>2021-02-17T12:22:46Z</time>
      </trkpt>
      <trkpt lat="45.28324" lon="6.15957">
        <ele>1936.8</ele>
        <time>2021-02-17T12:22:47Z</time>
      </trkpt>
      <trkpt lat="45.28324" lon="6.15957">
        <ele>1936.8</ele>
        <time>2021-02-17T12:22:48Z</time>
      </trkpt>
      <trkpt lat="45.28324" lon="6.15957">
        <ele>1936.8</ele>
        <time>2021-02-17T12:22:49Z</time>
      </trkpt>
      <trkpt lat="45.28327" lon="6.15955">
        <ele>1936.4</ele>
        <time>2021-02-17T12:22:50Z</time>
      </trkpt>
      <trkpt lat="45.28328" lon="6.15966">
        <ele>1935</ele>
        <time>2021-02-17T12:22:52Z</time>
      </trkpt>
      <trkpt lat="45.28329" lon="6.15971">
        <ele>1934.3</ele>
        <time>2021-02-17T12:22:53Z</time>
      </trkpt>
      <trkpt lat="45.28328" lon="6.15985">
        <ele>1932.4</ele>
        <time>2021-02-17T12:22:54Z</time>
      </trkpt>
      <trkpt lat="45.28327" lon="6.15994">
        <ele>1931.1</ele>
        <time>2021-02-17T12:22:55Z</time>
      </trkpt>
      <trkpt lat="45.28329" lon="6.15998">
        <ele>1930.2</ele>
        <time>2021-02-17T12:22:56Z</time>
      </trkpt>
      <trkpt lat="45.28332" lon="6.16002">
        <ele>1929.5</ele>
        <time>2021-02-17T12:22:57Z</time>
      </trkpt>
      <trkpt lat="45.28333" lon="6.16003">
        <ele>1929.1</ele>
        <time>2021-02-17T12:22:58Z</time>
      </trkpt>
      <trkpt lat="45.28334" lon="6.16004">
        <ele>1928.9</ele>
        <time>2021-02-17T12:22:59Z</time>
      </trkpt>
      <trkpt lat="45.28335" lon="6.16008">
        <ele>1928.2</ele>
        <time>2021-02-17T12:23:00Z</time>
      </trkpt>
      <trkpt lat="45.28335" lon="6.1601">
        <ele>1927.9</ele>
        <time>2021-02-17T12:23:01Z</time>
      </trkpt>
      <trkpt lat="45.28337" lon="6.16014">
        <ele>1927.1</ele>
        <time>2021-02-17T12:23:02Z</time>
      </trkpt>
      <trkpt lat="45.28337" lon="6.16019">
        <ele>1926.4</ele>
        <time>2021-02-17T12:23:03Z</time>
      </trkpt>
      <trkpt lat="45.28338" lon="6.1602">
        <ele>1926.2</ele>
        <time>2021-02-17T12:23:04Z</time>
      </trkpt>
      <trkpt lat="45.2834" lon="6.16023">
        <ele>1925.5</ele>
        <time>2021-02-17T12:23:05Z</time>
      </trkpt>
      <trkpt lat="45.2834" lon="6.16025">
        <ele>1925.3</ele>
        <time>2021-02-17T12:23:06Z</time>
      </trkpt>
      <trkpt lat="45.28342" lon="6.16025">
        <ele>1924.9</ele>
        <time>2021-02-17T12:23:07Z</time>
      </trkpt>
      <trkpt lat="45.28343" lon="6.16026">
        <ele>1924.7</ele>
        <time>2021-02-17T12:23:08Z</time>
      </trkpt>
      <trkpt lat="45.28345" lon="6.1603">
        <ele>1924</ele>
        <time>2021-02-17T12:23:09Z</time>
      </trkpt>
      <trkpt lat="45.28345" lon="6.16031">
        <ele>1923.8</ele>
        <time>2021-02-17T12:23:10Z</time>
      </trkpt>
      <trkpt lat="45.28346" lon="6.16033">
        <ele>1923.4</ele>
        <time>2021-02-17T12:23:11Z</time>
      </trkpt>
      <trkpt lat="45.28345" lon="6.16034">
        <ele>1923.2</ele>
        <time>2021-02-17T12:23:12Z</time>
      </trkpt>
      <trkpt lat="45.28344" lon="6.16034">
        <ele>1923</ele>
        <time>2021-02-17T12:23:13Z</time>
      </trkpt>
      <trkpt lat="45.28343" lon="6.16035">
        <ele>1922.8</ele>
        <time>2021-02-17T12:23:14Z</time>
      </trkpt>
      <trkpt lat="45.28343" lon="6.16033">
        <ele>1922.5</ele>
        <time>2021-02-17T12:23:15Z</time>
      </trkpt>
      <trkpt lat="45.28343" lon="6.16031">
        <ele>1922.2</ele>
        <time>2021-02-17T12:23:16Z</time>
      </trkpt>
      <trkpt lat="45.28344" lon="6.16029">
        <ele>1921.9</ele>
        <time>2021-02-17T12:23:17Z</time>
      </trkpt>
      <trkpt lat="45.28344" lon="6.16028">
        <ele>1921.6</ele>
        <time>2021-02-17T12:23:18Z</time>
      </trkpt>
      <trkpt lat="45.28345" lon="6.16027">
        <ele>1921.4</ele>
        <time>2021-02-17T12:23:19Z</time>
      </trkpt>
      <trkpt lat="45.28345" lon="6.16027">
        <ele>1921.4</ele>
        <time>2021-02-17T12:23:20Z</time>
      </trkpt>
      <trkpt lat="45.28345" lon="6.16028">
        <ele>1921.2</ele>
        <time>2021-02-17T12:23:21Z</time>
      </trkpt>
      <trkpt lat="45.28344" lon="6.16029">
        <ele>1921.1</ele>
        <time>2021-02-17T12:23:22Z</time>
      </trkpt>
      <trkpt lat="45.28343" lon="6.1603">
        <ele>1920.8</ele>
        <time>2021-02-17T12:23:23Z</time>
      </trkpt>
      <trkpt lat="45.28338" lon="6.16033">
        <ele>1919.5</ele>
        <time>2021-02-17T12:23:24Z</time>
      </trkpt>
      <trkpt lat="45.28334" lon="6.16032">
        <ele>1918.6</ele>
        <time>2021-02-17T12:23:25Z</time>
      </trkpt>
      <trkpt lat="45.28331" lon="6.16031">
        <ele>1917.8</ele>
        <time>2021-02-17T12:23:26Z</time>
      </trkpt>
      <trkpt lat="45.28327" lon="6.16035">
        <ele>1917</ele>
        <time>2021-02-17T12:23:27Z</time>
      </trkpt>
      <trkpt lat="45.28324" lon="6.16039">
        <ele>1916.1</ele>
        <time>2021-02-17T12:23:28Z</time>
      </trkpt>
      <trkpt lat="45.28322" lon="6.16044">
        <ele>1915.2</ele>
        <time>2021-02-17T12:23:29Z</time>
      </trkpt>
      <trkpt lat="45.2832" lon="6.16049">
        <ele>1914.3</ele>
        <time>2021-02-17T12:23:30Z</time>
      </trkpt>
      <trkpt lat="45.28317" lon="6.16054">
        <ele>1913.4</ele>
        <time>2021-02-17T12:23:31Z</time>
      </trkpt>
      <trkpt lat="45.28313" lon="6.1606">
        <ele>1912.1</ele>
        <time>2021-02-17T12:23:32Z</time>
      </trkpt>
      <trkpt lat="45.2831" lon="6.16064">
        <ele>1911.2</ele>
        <time>2021-02-17T12:23:33Z</time>
      </trkpt>
      <trkpt lat="45.28311" lon="6.16068">
        <ele>1910.7</ele>
        <time>2021-02-17T12:23:34Z</time>
      </trkpt>
      <trkpt lat="45.2831" lon="6.16069">
        <ele>1910.4</ele>
        <time>2021-02-17T12:23:35Z</time>
      </trkpt>
      <trkpt lat="45.2831" lon="6.16071">
        <ele>1910.2</ele>
        <time>2021-02-17T12:23:36Z</time>
      </trkpt>
      <trkpt lat="45.28307" lon="6.16076">
        <ele>1909.3</ele>
        <time>2021-02-17T12:23:37Z</time>
      </trkpt>
      <trkpt lat="45.28307" lon="6.16074">
        <ele>1909.1</ele>
        <time>2021-02-17T12:23:38Z</time>
      </trkpt>
      <trkpt lat="45.28304" lon="6.16076">
        <ele>1908.5</ele>
        <time>2021-02-17T12:23:39Z</time>
      </trkpt>
      <trkpt lat="45.28303" lon="6.16081">
        <ele>1907.8</ele>
        <time>2021-02-17T12:23:40Z</time>
      </trkpt>
      <trkpt lat="45.28303" lon="6.16082">
        <ele>1907.6</ele>
        <time>2021-02-17T12:23:41Z</time>
      </trkpt>
      <trkpt lat="45.28304" lon="6.16081">
        <ele>1907.3</ele>
        <time>2021-02-17T12:23:42Z</time>
      </trkpt>
      <trkpt lat="45.28303" lon="6.16081">
        <ele>1907.2</ele>
        <time>2021-02-17T12:23:43Z</time>
      </trkpt>
      <trkpt lat="45.28303" lon="6.16083">
        <ele>1906.9</ele>
        <time>2021-02-17T12:23:44Z</time>
      </trkpt>
      <trkpt lat="45.28303" lon="6.16086">
        <ele>1906.5</ele>
        <time>2021-02-17T12:23:45Z</time>
      </trkpt>
      <trkpt lat="45.28303" lon="6.1609">
        <ele>1906</ele>
        <time>2021-02-17T12:23:46Z</time>
      </trkpt>
      <trkpt lat="45.28303" lon="6.16096">
        <ele>1905.2</ele>
        <time>2021-02-17T12:23:47Z</time>
      </trkpt>
      <trkpt lat="45.28303" lon="6.16104">
        <ele>1904.2</ele>
        <time>2021-02-17T12:23:48Z</time>
      </trkpt>
      <trkpt lat="45.28302" lon="6.1611">
        <ele>1903.4</ele>
        <time>2021-02-17T12:23:49Z</time>
      </trkpt>
      <trkpt lat="45.28294" lon="6.16115">
        <ele>1901.8</ele>
        <time>2021-02-17T12:23:50Z</time>
      </trkpt>
      <trkpt lat="45.28291" lon="6.1611">
        <ele>1900.8</ele>
        <time>2021-02-17T12:23:51Z</time>
      </trkpt>
      <trkpt lat="45.28288" lon="6.16105">
        <ele>1899.9</ele>
        <time>2021-02-17T12:23:52Z</time>
      </trkpt>
      <trkpt lat="45.28286" lon="6.16106">
        <ele>1899.6</ele>
        <time>2021-02-17T12:23:53Z</time>
      </trkpt>
      <trkpt lat="45.28288" lon="6.16108">
        <ele>1899.1</ele>
        <time>2021-02-17T12:23:54Z</time>
      </trkpt>
      <trkpt lat="45.28288" lon="6.1611">
        <ele>1898.7</ele>
        <time>2021-02-17T12:23:55Z</time>
      </trkpt>
      <trkpt lat="45.28288" lon="6.1611">
        <ele>1898.7</ele>
        <time>2021-02-17T12:23:56Z</time>
      </trkpt>
      <trkpt lat="45.28288" lon="6.16111">
        <ele>1898.5</ele>
        <time>2021-02-17T12:23:57Z</time>
      </trkpt>
      <trkpt lat="45.28288" lon="6.16111">
        <ele>1898.4</ele>
        <time>2021-02-17T12:23:58Z</time>
      </trkpt>
      <trkpt lat="45.28289" lon="6.16111">
        <ele>1898.2</ele>
        <time>2021-02-17T12:23:59Z</time>
      </trkpt>
      <trkpt lat="45.28288" lon="6.16112">
        <ele>1898.1</ele>
        <time>2021-02-17T12:24:00Z</time>
      </trkpt>
      <trkpt lat="45.28287" lon="6.16114">
        <ele>1897.7</ele>
        <time>2021-02-17T12:24:01Z</time>
      </trkpt>
      <trkpt lat="45.28284" lon="6.16114">
        <ele>1897</ele>
        <time>2021-02-17T12:24:02Z</time>
      </trkpt>
      <trkpt lat="45.28282" lon="6.16114">
        <ele>1896.7</ele>
        <time>2021-02-17T12:24:03Z</time>
      </trkpt>
      <trkpt lat="45.2828" lon="6.16113">
        <ele>1896.2</ele>
        <time>2021-02-17T12:24:04Z</time>
      </trkpt>
      <trkpt lat="45.28279" lon="6.16112">
        <ele>1895.9</ele>
        <time>2021-02-17T12:24:05Z</time>
      </trkpt>
      <trkpt lat="45.28278" lon="6.16114">
        <ele>1895.6</ele>
        <time>2021-02-17T12:24:06Z</time>
      </trkpt>
      <trkpt lat="45.28277" lon="6.16115">
        <ele>1895.3</ele>
        <time>2021-02-17T12:24:07Z</time>
      </trkpt>
      <trkpt lat="45.28276" lon="6.16117">
        <ele>1895</ele>
        <time>2021-02-17T12:24:08Z</time>
      </trkpt>
      <trkpt lat="45.28276" lon="6.16118">
        <ele>1894.7</ele>
        <time>2021-02-17T12:24:09Z</time>
      </trkpt>
      <trkpt lat="45.28275" lon="6.1612">
        <ele>1894.4</ele>
        <time>2021-02-17T12:24:10Z</time>
      </trkpt>
      <trkpt lat="45.28274" lon="6.16122">
        <ele>1894.1</ele>
        <time>2021-02-17T12:24:11Z</time>
      </trkpt>
      <trkpt lat="45.28273" lon="6.16123">
        <ele>1893.8</ele>
        <time>2021-02-17T12:24:12Z</time>
      </trkpt>
      <trkpt lat="45.28272" lon="6.16125">
        <ele>1893.5</ele>
        <time>2021-02-17T12:24:13Z</time>
      </trkpt>
      <trkpt lat="45.28272" lon="6.16127">
        <ele>1893.2</ele>
        <time>2021-02-17T12:24:14Z</time>
      </trkpt>
      <trkpt lat="45.28271" lon="6.16128">
        <ele>1892.9</ele>
        <time>2021-02-17T12:24:15Z</time>
      </trkpt>
      <trkpt lat="45.2827" lon="6.1613">
        <ele>1892.6</ele>
        <time>2021-02-17T12:24:16Z</time>
      </trkpt>
      <trkpt lat="45.28269" lon="6.16131">
        <ele>1892.2</ele>
        <time>2021-02-17T12:24:44Z</time>
      </trkpt>
      <trkpt lat="45.28268" lon="6.16133">
        <ele>1891.9</ele>
        <time>2021-02-17T12:24:45Z</time>
      </trkpt>
      <trkpt lat="45.28267" lon="6.16138">
        <ele>1891.1</ele>
        <time>2021-02-17T12:24:46Z</time>
      </trkpt>
      <trkpt lat="45.28267" lon="6.1614">
        <ele>1890.7</ele>
        <time>2021-02-17T12:24:47Z</time>
      </trkpt>
      <trkpt lat="45.28267" lon="6.16141">
        <ele>1890.6</ele>
        <time>2021-02-17T12:24:48Z</time>
      </trkpt>
      <trkpt lat="45.28267" lon="6.16142">
        <ele>1890.5</ele>
        <time>2021-02-17T12:24:49Z</time>
      </trkpt>
      <trkpt lat="45.28267" lon="6.16143">
        <ele>1890.3</ele>
        <time>2021-02-17T12:24:50Z</time>
      </trkpt>
      <trkpt lat="45.28267" lon="6.16144">
        <ele>1890.2</ele>
        <time>2021-02-17T12:24:51Z</time>
      </trkpt>
      <trkpt lat="45.28267" lon="6.16145">
        <ele>1890.1</ele>
        <time>2021-02-17T12:24:52Z</time>
      </trkpt>
      <trkpt lat="45.28267" lon="6.16145">
        <ele>1890</ele>
        <time>2021-02-17T12:24:53Z</time>
      </trkpt>
      <trkpt lat="45.28267" lon="6.16146">
        <ele>1889.8</ele>
        <time>2021-02-17T12:24:54Z</time>
      </trkpt>
      <trkpt lat="45.28267" lon="6.16147">
        <ele>1889.7</ele>
        <time>2021-02-17T12:24:55Z</time>
      </trkpt>
      <trkpt lat="45.28267" lon="6.16148">
        <ele>1889.6</ele>
        <time>2021-02-17T12:24:56Z</time>
      </trkpt>
      <trkpt lat="45.28267" lon="6.16149">
        <ele>1889.5</ele>
        <time>2021-02-17T12:24:57Z</time>
      </trkpt>
      <trkpt lat="45.28267" lon="6.1615">
        <ele>1889.4</ele>
        <time>2021-02-17T12:24:58Z</time>
      </trkpt>
      <trkpt lat="45.28267" lon="6.16151">
        <ele>1889.3</ele>
        <time>2021-02-17T12:26:51Z</time>
      </trkpt>
      <trkpt lat="45.28267" lon="6.16151">
        <ele>1889.1</ele>
        <time>2021-02-17T12:26:52Z</time>
      </trkpt>
      <trkpt lat="45.28267" lon="6.16156">
        <ele>1888.5</ele>
        <time>2021-02-17T12:26:53Z</time>
      </trkpt>
      <trkpt lat="45.28266" lon="6.16157">
        <ele>1888.3</ele>
        <time>2021-02-17T12:26:54Z</time>
      </trkpt>
      <trkpt lat="45.28266" lon="6.16162">
        <ele>1887.7</ele>
        <time>2021-02-17T12:26:55Z</time>
      </trkpt>
      <trkpt lat="45.28266" lon="6.16164">
        <ele>1887.5</ele>
        <time>2021-02-17T12:26:56Z</time>
      </trkpt>
      <trkpt lat="45.28265" lon="6.1617">
        <ele>1886.8</ele>
        <time>2021-02-17T12:26:57Z</time>
      </trkpt>
      <trkpt lat="45.28265" lon="6.16172">
        <ele>1886.5</ele>
        <time>2021-02-17T12:26:58Z</time>
      </trkpt>
      <trkpt lat="45.28264" lon="6.16177">
        <ele>1885.9</ele>
        <time>2021-02-17T12:26:59Z</time>
      </trkpt>
      <trkpt lat="45.28264" lon="6.16182">
        <ele>1885.3</ele>
        <time>2021-02-17T12:27:00Z</time>
      </trkpt>
      <trkpt lat="45.28263" lon="6.16186">
        <ele>1884.8</ele>
        <time>2021-02-17T12:27:01Z</time>
      </trkpt>
      <trkpt lat="45.28263" lon="6.1619">
        <ele>1884.3</ele>
        <time>2021-02-17T12:27:02Z</time>
      </trkpt>
      <trkpt lat="45.28263" lon="6.16192">
        <ele>1884</ele>
        <time>2021-02-17T12:27:03Z</time>
      </trkpt>
      <trkpt lat="45.28263" lon="6.16195">
        <ele>1884</ele>
        <time>2021-02-17T12:27:04Z</time>
      </trkpt>
      <trkpt lat="45.28263" lon="6.16196">
        <ele>1883.7</ele>
        <time>2021-02-17T12:27:05Z</time>
      </trkpt>
      <trkpt lat="45.28263" lon="6.16197">
        <ele>1883.7</ele>
        <time>2021-02-17T12:27:06Z</time>
      </trkpt>
      <trkpt lat="45.28263" lon="6.16197">
        <ele>1883.7</ele>
        <time>2021-02-17T12:27:07Z</time>
      </trkpt>
      <trkpt lat="45.28263" lon="6.16198">
        <ele>1883.7</ele>
        <time>2021-02-17T12:27:08Z</time>
      </trkpt>
      <trkpt lat="45.28264" lon="6.16198">
        <ele>1883.7</ele>
        <time>2021-02-17T12:27:09Z</time>
      </trkpt>
      <trkpt lat="45.28265" lon="6.162">
        <ele>1883.7</ele>
        <time>2021-02-17T12:27:10Z</time>
      </trkpt>
      <trkpt lat="45.28265" lon="6.16202">
        <ele>1884.9</ele>
        <time>2021-02-17T12:27:11Z</time>
      </trkpt>
      <trkpt lat="45.28266" lon="6.16204">
        <ele>1884.9</ele>
        <time>2021-02-17T12:27:12Z</time>
      </trkpt>
      <trkpt lat="45.28266" lon="6.16209">
        <ele>1884.5</ele>
        <time>2021-02-17T12:27:13Z</time>
      </trkpt>
      <trkpt lat="45.28267" lon="6.16211">
        <ele>1884.5</ele>
        <time>2021-02-17T12:27:14Z</time>
      </trkpt>
      <trkpt lat="45.28267" lon="6.16216">
        <ele>1884.4</ele>
        <time>2021-02-17T12:27:15Z</time>
      </trkpt>
      <trkpt lat="45.28267" lon="6.16222">
        <ele>1884.1</ele>
        <time>2021-02-17T12:27:16Z</time>
      </trkpt>
      <trkpt lat="45.28266" lon="6.16228">
        <ele>1884.1</ele>
        <time>2021-02-17T12:27:17Z</time>
      </trkpt>
      <trkpt lat="45.28265" lon="6.16234">
        <ele>1884</ele>
        <time>2021-02-17T12:27:18Z</time>
      </trkpt>
      <trkpt lat="45.28264" lon="6.16239">
        <ele>1882.4</ele>
        <time>2021-02-17T12:27:19Z</time>
      </trkpt>
      <trkpt lat="45.28263" lon="6.16246">
        <ele>1882.5</ele>
        <time>2021-02-17T12:27:20Z</time>
      </trkpt>
      <trkpt lat="45.28261" lon="6.16253">
        <ele>1880.2</ele>
        <time>2021-02-17T12:27:21Z</time>
      </trkpt>
      <trkpt lat="45.28259" lon="6.1626">
        <ele>1878.7</ele>
        <time>2021-02-17T12:27:22Z</time>
      </trkpt>
      <trkpt lat="45.28256" lon="6.16267">
        <ele>1879</ele>
        <time>2021-02-17T12:27:23Z</time>
      </trkpt>
      <trkpt lat="45.28254" lon="6.16273">
        <ele>1877.4</ele>
        <time>2021-02-17T12:27:24Z</time>
      </trkpt>
      <trkpt lat="45.28251" lon="6.16279">
        <ele>1875.5</ele>
        <time>2021-02-17T12:27:25Z</time>
      </trkpt>
      <trkpt lat="45.28249" lon="6.16281">
        <ele>1873.4</ele>
        <time>2021-02-17T12:27:26Z</time>
      </trkpt>
      <trkpt lat="45.28246" lon="6.16276">
        <ele>1871.4</ele>
        <time>2021-02-17T12:27:27Z</time>
      </trkpt>
      <trkpt lat="45.28243" lon="6.16277">
        <ele>1869.7</ele>
        <time>2021-02-17T12:27:28Z</time>
      </trkpt>
      <trkpt lat="45.28241" lon="6.16274">
        <ele>1869.7</ele>
        <time>2021-02-17T12:27:29Z</time>
      </trkpt>
      <trkpt lat="45.28241" lon="6.16266">
        <ele>1868.3</ele>
        <time>2021-02-17T12:27:30Z</time>
      </trkpt>
      <trkpt lat="45.28238" lon="6.16257">
        <ele>1868.5</ele>
        <time>2021-02-17T12:27:31Z</time>
      </trkpt>
      <trkpt lat="45.28238" lon="6.16258">
        <ele>1868.5</ele>
        <time>2021-02-17T12:27:32Z</time>
      </trkpt>
      <trkpt lat="45.28238" lon="6.16263">
        <ele>1868.4</ele>
        <time>2021-02-17T12:27:33Z</time>
      </trkpt>
      <trkpt lat="45.28238" lon="6.16267">
        <ele>1867</ele>
        <time>2021-02-17T12:27:34Z</time>
      </trkpt>
      <trkpt lat="45.28237" lon="6.16274">
        <ele>1866.9</ele>
        <time>2021-02-17T12:27:35Z</time>
      </trkpt>
      <trkpt lat="45.28234" lon="6.16278">
        <ele>1865.5</ele>
        <time>2021-02-17T12:27:36Z</time>
      </trkpt>
      <trkpt lat="45.28232" lon="6.16283">
        <ele>1865.5</ele>
        <time>2021-02-17T12:27:37Z</time>
      </trkpt>
      <trkpt lat="45.2823" lon="6.16288">
        <ele>1864.1</ele>
        <time>2021-02-17T12:27:38Z</time>
      </trkpt>
      <trkpt lat="45.28228" lon="6.16293">
        <ele>1862.5</ele>
        <time>2021-02-17T12:27:39Z</time>
      </trkpt>
      <trkpt lat="45.28226" lon="6.16297">
        <ele>1862.6</ele>
        <time>2021-02-17T12:27:40Z</time>
      </trkpt>
      <trkpt lat="45.28225" lon="6.16301">
        <ele>1861</ele>
        <time>2021-02-17T12:27:41Z</time>
      </trkpt>
      <trkpt lat="45.28224" lon="6.16303">
        <ele>1861.1</ele>
        <time>2021-02-17T12:27:42Z</time>
      </trkpt>
      <trkpt lat="45.28224" lon="6.16303">
        <ele>1861.1</ele>
        <time>2021-02-17T12:27:43Z</time>
      </trkpt>
      <trkpt lat="45.28224" lon="6.16303">
        <ele>1861.1</ele>
        <time>2021-02-17T12:27:44Z</time>
      </trkpt>
      <trkpt lat="45.28223" lon="6.16302">
        <ele>1861.1</ele>
        <time>2021-02-17T12:27:45Z</time>
      </trkpt>
      <trkpt lat="45.28222" lon="6.16302">
        <ele>1859.5</ele>
        <time>2021-02-17T12:27:46Z</time>
      </trkpt>
      <trkpt lat="45.28222" lon="6.16302">
        <ele>1859.5</ele>
        <time>2021-02-17T12:27:47Z</time>
      </trkpt>
      <trkpt lat="45.2822" lon="6.16305">
        <ele>1859.6</ele>
        <time>2021-02-17T12:27:48Z</time>
      </trkpt>
      <trkpt lat="45.28219" lon="6.16306">
        <ele>1858.1</ele>
        <time>2021-02-17T12:27:49Z</time>
      </trkpt>
      <trkpt lat="45.28216" lon="6.16309">
        <ele>1856.7</ele>
        <time>2021-02-17T12:27:50Z</time>
      </trkpt>
      <trkpt lat="45.28213" lon="6.16307">
        <ele>1855.4</ele>
        <time>2021-02-17T12:27:51Z</time>
      </trkpt>
      <trkpt lat="45.28212" lon="6.16305">
        <ele>1855.4</ele>
        <time>2021-02-17T12:27:52Z</time>
      </trkpt>
      <trkpt lat="45.2821" lon="6.163">
        <ele>1854.1</ele>
        <time>2021-02-17T12:27:53Z</time>
      </trkpt>
      <trkpt lat="45.28209" lon="6.16295">
        <ele>1854.2</ele>
        <time>2021-02-17T12:27:54Z</time>
      </trkpt>
      <trkpt lat="45.28208" lon="6.16289">
        <ele>1854.3</ele>
        <time>2021-02-17T12:27:55Z</time>
      </trkpt>
      <trkpt lat="45.28207" lon="6.16284">
        <ele>1853.2</ele>
        <time>2021-02-17T12:27:56Z</time>
      </trkpt>
      <trkpt lat="45.28206" lon="6.16278">
        <ele>1853.4</ele>
        <time>2021-02-17T12:27:57Z</time>
      </trkpt>
      <trkpt lat="45.28206" lon="6.16273">
        <ele>1853.7</ele>
        <time>2021-02-17T12:27:58Z</time>
      </trkpt>
      <trkpt lat="45.28206" lon="6.16267">
        <ele>1853.9</ele>
        <time>2021-02-17T12:27:59Z</time>
      </trkpt>
      <trkpt lat="45.28204" lon="6.16262">
        <ele>1852.9</ele>
        <time>2021-02-17T12:28:00Z</time>
      </trkpt>
      <trkpt lat="45.28197" lon="6.16258">
        <ele>1850.6</ele>
        <time>2021-02-17T12:28:01Z</time>
      </trkpt>
      <trkpt lat="45.28193" lon="6.16256">
        <ele>1849.6</ele>
        <time>2021-02-17T12:28:02Z</time>
      </trkpt>
      <trkpt lat="45.28192" lon="6.16253">
        <ele>1848.4</ele>
        <time>2021-02-17T12:28:03Z</time>
      </trkpt>
      <trkpt lat="45.28191" lon="6.16251">
        <ele>1848.8</ele>
        <time>2021-02-17T12:28:04Z</time>
      </trkpt>
      <trkpt lat="45.2819" lon="6.16251">
        <ele>1848.8</ele>
        <time>2021-02-17T12:28:05Z</time>
      </trkpt>
      <trkpt lat="45.2819" lon="6.16251">
        <ele>1848.8</ele>
        <time>2021-02-17T12:28:06Z</time>
      </trkpt>
      <trkpt lat="45.28188" lon="6.1625">
        <ele>1847.6</ele>
        <time>2021-02-17T12:28:07Z</time>
      </trkpt>
      <trkpt lat="45.28188" lon="6.1625">
        <ele>1847.7</ele>
        <time>2021-02-17T12:28:08Z</time>
      </trkpt>
      <trkpt lat="45.28187" lon="6.1625">
        <ele>1847.7</ele>
        <time>2021-02-17T12:28:09Z</time>
      </trkpt>
      <trkpt lat="45.28186" lon="6.16249">
        <ele>1846.5</ele>
        <time>2021-02-17T12:28:10Z</time>
      </trkpt>
      <trkpt lat="45.28185" lon="6.16249">
        <ele>1846.6</ele>
        <time>2021-02-17T12:28:11Z</time>
      </trkpt>
      <trkpt lat="45.28185" lon="6.16248">
        <ele>1846.6</ele>
        <time>2021-02-17T12:28:12Z</time>
      </trkpt>
      <trkpt lat="45.28184" lon="6.16248">
        <ele>1846.6</ele>
        <time>2021-02-17T12:28:13Z</time>
      </trkpt>
      <trkpt lat="45.28183" lon="6.16248">
        <ele>1845.6</ele>
        <time>2021-02-17T12:28:14Z</time>
      </trkpt>
      <trkpt lat="45.28182" lon="6.16247">
        <ele>1845.6</ele>
        <time>2021-02-17T12:28:15Z</time>
      </trkpt>
      <trkpt lat="45.28181" lon="6.16247">
        <ele>1846.1</ele>
        <time>2021-02-17T12:28:16Z</time>
      </trkpt>
      <trkpt lat="45.2818" lon="6.16246">
        <ele>1846.1</ele>
        <time>2021-02-17T12:28:51Z</time>
      </trkpt>
      <trkpt lat="45.2818" lon="6.16246">
        <ele>1845.2</ele>
        <time>2021-02-17T12:28:52Z</time>
      </trkpt>
      <trkpt lat="45.28176" lon="6.16244">
        <ele>1844.3</ele>
        <time>2021-02-17T12:28:53Z</time>
      </trkpt>
      <trkpt lat="45.28173" lon="6.16242">
        <ele>1843.9</ele>
        <time>2021-02-17T12:28:54Z</time>
      </trkpt>
      <trkpt lat="45.28171" lon="6.1624">
        <ele>1842.9</ele>
        <time>2021-02-17T12:28:55Z</time>
      </trkpt>
      <trkpt lat="45.28168" lon="6.16236">
        <ele>1842.5</ele>
        <time>2021-02-17T12:28:56Z</time>
      </trkpt>
      <trkpt lat="45.28163" lon="6.16231">
        <ele>1842.1</ele>
        <time>2021-02-17T12:28:57Z</time>
      </trkpt>
      <trkpt lat="45.28159" lon="6.16227">
        <ele>1840.9</ele>
        <time>2021-02-17T12:28:58Z</time>
      </trkpt>
      <trkpt lat="45.28155" lon="6.16223">
        <ele>1840.7</ele>
        <time>2021-02-17T12:28:59Z</time>
      </trkpt>
      <trkpt lat="45.28152" lon="6.1622">
        <ele>1840.5</ele>
        <time>2021-02-17T12:29:00Z</time>
      </trkpt>
      <trkpt lat="45.28151" lon="6.16225">
        <ele>1840</ele>
        <time>2021-02-17T12:29:01Z</time>
      </trkpt>
      <trkpt lat="45.28148" lon="6.16226">
        <ele>1838.6</ele>
        <time>2021-02-17T12:29:02Z</time>
      </trkpt>
      <trkpt lat="45.28146" lon="6.1623">
        <ele>1837.2</ele>
        <time>2021-02-17T12:29:03Z</time>
      </trkpt>
      <trkpt lat="45.28139" lon="6.16235">
        <ele>1834.9</ele>
        <time>2021-02-17T12:29:04Z</time>
      </trkpt>
      <trkpt lat="45.28134" lon="6.16238">
        <ele>1833.3</ele>
        <time>2021-02-17T12:29:05Z</time>
      </trkpt>
      <trkpt lat="45.28129" lon="6.16246">
        <ele>1831.2</ele>
        <time>2021-02-17T12:29:06Z</time>
      </trkpt>
      <trkpt lat="45.28121" lon="6.16249">
        <ele>1828.5</ele>
        <time>2021-02-17T12:29:07Z</time>
      </trkpt>
      <trkpt lat="45.28117" lon="6.16255">
        <ele>1827.1</ele>
        <time>2021-02-17T12:29:08Z</time>
      </trkpt>
      <trkpt lat="45.28116" lon="6.16262">
        <ele>1825.2</ele>
        <time>2021-02-17T12:29:09Z</time>
      </trkpt>
      <trkpt lat="45.28113" lon="6.16271">
        <ele>1823.5</ele>
        <time>2021-02-17T12:29:10Z</time>
      </trkpt>
      <trkpt lat="45.28111" lon="6.1628">
        <ele>1822.6</ele>
        <time>2021-02-17T12:29:11Z</time>
      </trkpt>
      <trkpt lat="45.2811" lon="6.16288">
        <ele>1820.9</ele>
        <time>2021-02-17T12:29:12Z</time>
      </trkpt>
      <trkpt lat="45.28109" lon="6.163">
        <ele>1819.8</ele>
        <time>2021-02-17T12:29:13Z</time>
      </trkpt>
      <trkpt lat="45.28107" lon="6.16313">
        <ele>1817.9</ele>
        <time>2021-02-17T12:29:14Z</time>
      </trkpt>
      <trkpt lat="45.28106" lon="6.16321">
        <ele>1817.1</ele>
        <time>2021-02-17T12:29:15Z</time>
      </trkpt>
      <trkpt lat="45.28105" lon="6.1633">
        <ele>1816.2</ele>
        <time>2021-02-17T12:29:16Z</time>
      </trkpt>
      <trkpt lat="45.28103" lon="6.1634">
        <ele>1814</ele>
        <time>2021-02-17T12:29:17Z</time>
      </trkpt>
      <trkpt lat="45.28101" lon="6.1635">
        <ele>1812.2</ele>
        <time>2021-02-17T12:29:18Z</time>
      </trkpt>
      <trkpt lat="45.281" lon="6.1636">
        <ele>1811.1</ele>
        <time>2021-02-17T12:29:19Z</time>
      </trkpt>
      <trkpt lat="45.281" lon="6.16369">
        <ele>1810.4</ele>
        <time>2021-02-17T12:29:20Z</time>
      </trkpt>
      <trkpt lat="45.28099" lon="6.16379">
        <ele>1809.8</ele>
        <time>2021-02-17T12:29:21Z</time>
      </trkpt>
      <trkpt lat="45.281" lon="6.16388">
        <ele>1809.3</ele>
        <time>2021-02-17T12:29:22Z</time>
      </trkpt>
      <trkpt lat="45.281" lon="6.16398">
        <ele>1808.6</ele>
        <time>2021-02-17T12:29:23Z</time>
      </trkpt>
      <trkpt lat="45.28099" lon="6.16408">
        <ele>1808.2</ele>
        <time>2021-02-17T12:29:24Z</time>
      </trkpt>
      <trkpt lat="45.281" lon="6.16416">
        <ele>1807.8</ele>
        <time>2021-02-17T12:29:25Z</time>
      </trkpt>
      <trkpt lat="45.28099" lon="6.16426">
        <ele>1807.5</ele>
        <time>2021-02-17T12:29:26Z</time>
      </trkpt>
      <trkpt lat="45.281" lon="6.16434">
        <ele>1807.4</ele>
        <time>2021-02-17T12:29:27Z</time>
      </trkpt>
      <trkpt lat="45.28101" lon="6.16442">
        <ele>1807.4</ele>
        <time>2021-02-17T12:29:28Z</time>
      </trkpt>
      <trkpt lat="45.28101" lon="6.1645">
        <ele>1807.3</ele>
        <time>2021-02-17T12:29:29Z</time>
      </trkpt>
      <trkpt lat="45.28101" lon="6.16456">
        <ele>1807.3</ele>
        <time>2021-02-17T12:29:30Z</time>
      </trkpt>
      <trkpt lat="45.28101" lon="6.16463">
        <ele>1807.2</ele>
        <time>2021-02-17T12:29:31Z</time>
      </trkpt>
      <trkpt lat="45.28101" lon="6.16469">
        <ele>1807.1</ele>
        <time>2021-02-17T12:29:32Z</time>
      </trkpt>
      <trkpt lat="45.28099" lon="6.16476">
        <ele>1806.9</ele>
        <time>2021-02-17T12:29:33Z</time>
      </trkpt>
      <trkpt lat="45.28097" lon="6.16482">
        <ele>1805.9</ele>
        <time>2021-02-17T12:29:34Z</time>
      </trkpt>
      <trkpt lat="45.28096" lon="6.16489">
        <ele>1805.8</ele>
        <time>2021-02-17T12:29:35Z</time>
      </trkpt>
      <trkpt lat="45.28096" lon="6.16493">
        <ele>1804.8</ele>
        <time>2021-02-17T12:29:36Z</time>
      </trkpt>
      <trkpt lat="45.28095" lon="6.16499">
        <ele>1804.7</ele>
        <time>2021-02-17T12:29:37Z</time>
      </trkpt>
      <trkpt lat="45.28094" lon="6.16505">
        <ele>1804.6</ele>
        <time>2021-02-17T12:29:38Z</time>
      </trkpt>
      <trkpt lat="45.28093" lon="6.16507">
        <ele>1804.6</ele>
        <time>2021-02-17T12:29:39Z</time>
      </trkpt>
      <trkpt lat="45.28092" lon="6.16509">
        <ele>1803.6</ele>
        <time>2021-02-17T12:29:40Z</time>
      </trkpt>
      <trkpt lat="45.28091" lon="6.1651">
        <ele>1803.6</ele>
        <time>2021-02-17T12:29:41Z</time>
      </trkpt>
      <trkpt lat="45.2809" lon="6.16513">
        <ele>1803.6</ele>
        <time>2021-02-17T12:29:42Z</time>
      </trkpt>
      <trkpt lat="45.2809" lon="6.16514">
        <ele>1803.5</ele>
        <time>2021-02-17T12:29:43Z</time>
      </trkpt>
      <trkpt lat="45.2809" lon="6.16515">
        <ele>1803.6</ele>
        <time>2021-02-17T12:29:44Z</time>
      </trkpt>
      <trkpt lat="45.28089" lon="6.16517">
        <ele>1802.5</ele>
        <time>2021-02-17T12:29:45Z</time>
      </trkpt>
      <trkpt lat="45.28088" lon="6.16519">
        <ele>1802.5</ele>
        <time>2021-02-17T12:29:46Z</time>
      </trkpt>
      <trkpt lat="45.28088" lon="6.1652">
        <ele>1802.5</ele>
        <time>2021-02-17T12:29:47Z</time>
      </trkpt>
      <trkpt lat="45.28086" lon="6.1652">
        <ele>1801.4</ele>
        <time>2021-02-17T12:29:48Z</time>
      </trkpt>
      <trkpt lat="45.28086" lon="6.1652">
        <ele>1801.4</ele>
        <time>2021-02-17T12:29:49Z</time>
      </trkpt>
      <trkpt lat="45.28085" lon="6.16519">
        <ele>1801.4</ele>
        <time>2021-02-17T12:29:50Z</time>
      </trkpt>
      <trkpt lat="45.28084" lon="6.16519">
        <ele>1801.4</ele>
        <time>2021-02-17T12:29:51Z</time>
      </trkpt>
      <trkpt lat="45.28083" lon="6.16518">
        <ele>1800.3</ele>
        <time>2021-02-17T12:29:52Z</time>
      </trkpt>
      <trkpt lat="45.28082" lon="6.16518">
        <ele>1800.3</ele>
        <time>2021-02-17T12:29:53Z</time>
      </trkpt>
      <trkpt lat="45.28081" lon="6.16517">
        <ele>1800.4</ele>
        <time>2021-02-17T12:29:54Z</time>
      </trkpt>
      <trkpt lat="45.2808" lon="6.16517">
        <ele>1799.4</ele>
        <time>2021-02-17T12:29:55Z</time>
      </trkpt>
      <trkpt lat="45.28079" lon="6.16516">
        <ele>1799.4</ele>
        <time>2021-02-17T12:29:56Z</time>
      </trkpt>
      <trkpt lat="45.28078" lon="6.16516">
        <ele>1799.4</ele>
        <time>2021-02-17T12:29:57Z</time>
      </trkpt>
      <trkpt lat="45.28077" lon="6.16515">
        <ele>1798.4</ele>
        <time>2021-02-17T12:29:58Z</time>
      </trkpt>
      <trkpt lat="45.28076" lon="6.16515">
        <ele>1798.4</ele>
        <time>2021-02-17T12:30:22Z</time>
      </trkpt>
      <trkpt lat="45.28075" lon="6.16514">
        <ele>1798.4</ele>
        <time>2021-02-17T12:30:23Z</time>
      </trkpt>
      <trkpt lat="45.28071" lon="6.16513">
        <ele>1796.8</ele>
        <time>2021-02-17T12:30:24Z</time>
      </trkpt>
      <trkpt lat="45.28067" lon="6.1651">
        <ele>1796.1</ele>
        <time>2021-02-17T12:30:25Z</time>
      </trkpt>
      <trkpt lat="45.28065" lon="6.16502">
        <ele>1795.6</ele>
        <time>2021-02-17T12:30:26Z</time>
      </trkpt>
      <trkpt lat="45.28061" lon="6.165">
        <ele>1794.9</ele>
        <time>2021-02-17T12:30:27Z</time>
      </trkpt>
      <trkpt lat="45.28058" lon="6.165">
        <ele>1794</ele>
        <time>2021-02-17T12:30:28Z</time>
      </trkpt>
      <trkpt lat="45.28055" lon="6.16497">
        <ele>1793.1</ele>
        <time>2021-02-17T12:30:29Z</time>
      </trkpt>
      <trkpt lat="45.28051" lon="6.16504">
        <ele>1792.1</ele>
        <time>2021-02-17T12:30:30Z</time>
      </trkpt>
      <trkpt lat="45.28047" lon="6.16509">
        <ele>1790.3</ele>
        <time>2021-02-17T12:30:31Z</time>
      </trkpt>
      <trkpt lat="45.28045" lon="6.16518">
        <ele>1789.9</ele>
        <time>2021-02-17T12:30:32Z</time>
      </trkpt>
      <trkpt lat="45.28043" lon="6.16524">
        <ele>1789</ele>
        <time>2021-02-17T12:30:33Z</time>
      </trkpt>
      <trkpt lat="45.28041" lon="6.16528">
        <ele>1788.8</ele>
        <time>2021-02-17T12:30:34Z</time>
      </trkpt>
      <trkpt lat="45.28038" lon="6.16531">
        <ele>1787.1</ele>
        <time>2021-02-17T12:30:35Z</time>
      </trkpt>
      <trkpt lat="45.28034" lon="6.16533">
        <ele>1786.3</ele>
        <time>2021-02-17T12:30:36Z</time>
      </trkpt>
      <trkpt lat="45.2803" lon="6.16534">
        <ele>1785.5</ele>
        <time>2021-02-17T12:30:37Z</time>
      </trkpt>
      <trkpt lat="45.28025" lon="6.16534">
        <ele>1783.8</ele>
        <time>2021-02-17T12:30:38Z</time>
      </trkpt>
      <trkpt lat="45.28021" lon="6.16532">
        <ele>1783</ele>
        <time>2021-02-17T12:30:39Z</time>
      </trkpt>
      <trkpt lat="45.28016" lon="6.16532">
        <ele>1781.4</ele>
        <time>2021-02-17T12:30:40Z</time>
      </trkpt>
      <trkpt lat="45.28014" lon="6.16536">
        <ele>1780.4</ele>
        <time>2021-02-17T12:30:41Z</time>
      </trkpt>
      <trkpt lat="45.28009" lon="6.16539">
        <ele>1779.5</ele>
        <time>2021-02-17T12:30:42Z</time>
      </trkpt>
      <trkpt lat="45.28005" lon="6.16542">
        <ele>1778.3</ele>
        <time>2021-02-17T12:30:43Z</time>
      </trkpt>
      <trkpt lat="45.28002" lon="6.16548">
        <ele>1776.5</ele>
        <time>2021-02-17T12:30:44Z</time>
      </trkpt>
      <trkpt lat="45.27998" lon="6.1655">
        <ele>1774.6</ele>
        <time>2021-02-17T12:30:45Z</time>
      </trkpt>
      <trkpt lat="45.27994" lon="6.16554">
        <ele>1773.1</ele>
        <time>2021-02-17T12:30:46Z</time>
      </trkpt>
      <trkpt lat="45.27992" lon="6.16556">
        <ele>1772.2</ele>
        <time>2021-02-17T12:30:47Z</time>
      </trkpt>
      <trkpt lat="45.27992" lon="6.16567">
        <ele>1770.5</ele>
        <time>2021-02-17T12:30:48Z</time>
      </trkpt>
      <trkpt lat="45.27991" lon="6.16577">
        <ele>1769.3</ele>
        <time>2021-02-17T12:30:49Z</time>
      </trkpt>
      <trkpt lat="45.27991" lon="6.16587">
        <ele>1767.6</ele>
        <time>2021-02-17T12:30:50Z</time>
      </trkpt>
      <trkpt lat="45.2799" lon="6.16598">
        <ele>1766.4</ele>
        <time>2021-02-17T12:30:51Z</time>
      </trkpt>
      <trkpt lat="45.27987" lon="6.16606">
        <ele>1764.4</ele>
        <time>2021-02-17T12:30:52Z</time>
      </trkpt>
      <trkpt lat="45.27981" lon="6.16611">
        <ele>1762.4</ele>
        <time>2021-02-17T12:30:53Z</time>
      </trkpt>
      <trkpt lat="45.27975" lon="6.16616">
        <ele>1760.4</ele>
        <time>2021-02-17T12:30:54Z</time>
      </trkpt>
      <trkpt lat="45.2797" lon="6.16619">
        <ele>1758.3</ele>
        <time>2021-02-17T12:30:55Z</time>
      </trkpt>
      <trkpt lat="45.27967" lon="6.16624">
        <ele>1757</ele>
        <time>2021-02-17T12:30:56Z</time>
      </trkpt>
      <trkpt lat="45.27963" lon="6.16629">
        <ele>1755.9</ele>
        <time>2021-02-17T12:30:57Z</time>
      </trkpt>
      <trkpt lat="45.2796" lon="6.1663">
        <ele>1754.7</ele>
        <time>2021-02-17T12:30:58Z</time>
      </trkpt>
      <trkpt lat="45.27959" lon="6.16631">
        <ele>1754.2</ele>
        <time>2021-02-17T12:30:59Z</time>
      </trkpt>
      <trkpt lat="45.27957" lon="6.16632">
        <ele>1754.2</ele>
        <time>2021-02-17T12:31:00Z</time>
      </trkpt>
      <trkpt lat="45.27957" lon="6.16633">
        <ele>1754.2</ele>
        <time>2021-02-17T12:31:01Z</time>
      </trkpt>
      <trkpt lat="45.27957" lon="6.16634">
        <ele>1753.5</ele>
        <time>2021-02-17T12:31:02Z</time>
      </trkpt>
      <trkpt lat="45.27957" lon="6.16636">
        <ele>1753.5</ele>
        <time>2021-02-17T12:31:03Z</time>
      </trkpt>
      <trkpt lat="45.27958" lon="6.16637">
        <ele>1753.6</ele>
        <time>2021-02-17T12:31:04Z</time>
      </trkpt>
      <trkpt lat="45.27958" lon="6.16638">
        <ele>1753.6</ele>
        <time>2021-02-17T12:31:05Z</time>
      </trkpt>
      <trkpt lat="45.27958" lon="6.16639">
        <ele>1752.9</ele>
        <time>2021-02-17T12:31:06Z</time>
      </trkpt>
      <trkpt lat="45.27958" lon="6.1664">
        <ele>1752.9</ele>
        <time>2021-02-17T12:31:07Z</time>
      </trkpt>
      <trkpt lat="45.27958" lon="6.16641">
        <ele>1752.9</ele>
        <time>2021-02-17T12:31:08Z</time>
      </trkpt>
      <trkpt lat="45.27959" lon="6.16642">
        <ele>1752.1</ele>
        <time>2021-02-17T12:31:09Z</time>
      </trkpt>
      <trkpt lat="45.27959" lon="6.16643">
        <ele>1752.1</ele>
        <time>2021-02-17T12:31:10Z</time>
      </trkpt>
      <trkpt lat="45.27959" lon="6.16645">
        <ele>1752.2</ele>
        <time>2021-02-17T12:31:11Z</time>
      </trkpt>
      <trkpt lat="45.27959" lon="6.16646">
        <ele>1752.2</ele>
        <time>2021-02-17T12:31:12Z</time>
      </trkpt>
      <trkpt lat="45.2796" lon="6.16647">
        <ele>1751.4</ele>
        <time>2021-02-17T12:32:14Z</time>
      </trkpt>
      <trkpt lat="45.2796" lon="6.16648">
        <ele>1751.4</ele>
        <time>2021-02-17T12:32:15Z</time>
      </trkpt>
      <trkpt lat="45.27963" lon="6.16655">
        <ele>1751.2</ele>
        <time>2021-02-17T12:32:16Z</time>
      </trkpt>
      <trkpt lat="45.27966" lon="6.1666">
        <ele>1750.1</ele>
        <time>2021-02-17T12:32:17Z</time>
      </trkpt>
      <trkpt lat="45.27969" lon="6.16665">
        <ele>1750</ele>
        <time>2021-02-17T12:32:18Z</time>
      </trkpt>
      <trkpt lat="45.27973" lon="6.16668">
        <ele>1751.6</ele>
        <time>2021-02-17T12:32:19Z</time>
      </trkpt>
      <trkpt lat="45.27976" lon="6.16673">
        <ele>1750.8</ele>
        <time>2021-02-17T12:32:20Z</time>
      </trkpt>
      <trkpt lat="45.2798" lon="6.16676">
        <ele>1751.6</ele>
        <time>2021-02-17T12:32:21Z</time>
      </trkpt>
      <trkpt lat="45.27984" lon="6.16679">
        <ele>1752.4</ele>
        <time>2021-02-17T12:32:22Z</time>
      </trkpt>
      <trkpt lat="45.27988" lon="6.16683">
        <ele>1752.4</ele>
        <time>2021-02-17T12:32:23Z</time>
      </trkpt>
      <trkpt lat="45.27991" lon="6.16687">
        <ele>1752.3</ele>
        <time>2021-02-17T12:32:24Z</time>
      </trkpt>
      <trkpt lat="45.27993" lon="6.1669">
        <ele>1752.3</ele>
        <time>2021-02-17T12:32:25Z</time>
      </trkpt>
      <trkpt lat="45.27994" lon="6.16691">
        <ele>1752.3</ele>
        <time>2021-02-17T12:32:26Z</time>
      </trkpt>
      <trkpt lat="45.27995" lon="6.16695">
        <ele>1751.4</ele>
        <time>2021-02-17T12:32:27Z</time>
      </trkpt>
      <trkpt lat="45.27996" lon="6.16697">
        <ele>1751.4</ele>
        <time>2021-02-17T12:32:28Z</time>
      </trkpt>
      <trkpt lat="45.27997" lon="6.16701">
        <ele>1751.4</ele>
        <time>2021-02-17T12:32:29Z</time>
      </trkpt>
      <trkpt lat="45.27998" lon="6.16702">
        <ele>1751.4</ele>
        <time>2021-02-17T12:32:30Z</time>
      </trkpt>
      <trkpt lat="45.27999" lon="6.16704">
        <ele>1750.5</ele>
        <time>2021-02-17T12:32:31Z</time>
      </trkpt>
      <trkpt lat="45.27999" lon="6.16706">
        <ele>1751.4</ele>
        <time>2021-02-17T12:32:32Z</time>
      </trkpt>
      <trkpt lat="45.28" lon="6.1671">
        <ele>1750.6</ele>
        <time>2021-02-17T12:32:33Z</time>
      </trkpt>
      <trkpt lat="45.28001" lon="6.16711">
        <ele>1749.8</ele>
        <time>2021-02-17T12:32:34Z</time>
      </trkpt>
      <trkpt lat="45.28002" lon="6.16712">
        <ele>1750.8</ele>
        <time>2021-02-17T12:32:35Z</time>
      </trkpt>
      <trkpt lat="45.28003" lon="6.16714">
        <ele>1750.8</ele>
        <time>2021-02-17T12:32:36Z</time>
      </trkpt>
      <trkpt lat="45.28004" lon="6.16715">
        <ele>1750</ele>
        <time>2021-02-17T12:32:37Z</time>
      </trkpt>
      <trkpt lat="45.28004" lon="6.16715">
        <ele>1750</ele>
        <time>2021-02-17T12:32:38Z</time>
      </trkpt>
      <trkpt lat="45.28004" lon="6.16716">
        <ele>1750</ele>
        <time>2021-02-17T12:32:39Z</time>
      </trkpt>
      <trkpt lat="45.28004" lon="6.16716">
        <ele>1750</ele>
        <time>2021-02-17T12:32:40Z</time>
      </trkpt>
      <trkpt lat="45.28004" lon="6.16717">
        <ele>1750.1</ele>
        <time>2021-02-17T12:32:41Z</time>
      </trkpt>
      <trkpt lat="45.28004" lon="6.16717">
        <ele>1750.1</ele>
        <time>2021-02-17T12:32:42Z</time>
      </trkpt>
      <trkpt lat="45.28004" lon="6.16718">
        <ele>1750.1</ele>
        <time>2021-02-17T12:32:43Z</time>
      </trkpt>
      <trkpt lat="45.28004" lon="6.16719">
        <ele>1750.1</ele>
        <time>2021-02-17T12:32:44Z</time>
      </trkpt>
      <trkpt lat="45.28004" lon="6.16719">
        <ele>1749.3</ele>
        <time>2021-02-17T12:32:45Z</time>
      </trkpt>
      <trkpt lat="45.28004" lon="6.16721">
        <ele>1749.3</ele>
        <time>2021-02-17T12:32:46Z</time>
      </trkpt>
      <trkpt lat="45.28004" lon="6.16722">
        <ele>1749.4</ele>
        <time>2021-02-17T12:32:47Z</time>
      </trkpt>
      <trkpt lat="45.28005" lon="6.16724">
        <ele>1748.6</ele>
        <time>2021-02-17T12:32:48Z</time>
      </trkpt>
      <trkpt lat="45.28006" lon="6.16727">
        <ele>1749.6</ele>
        <time>2021-02-17T12:32:49Z</time>
      </trkpt>
      <trkpt lat="45.28007" lon="6.16732">
        <ele>1748.9</ele>
        <time>2021-02-17T12:32:50Z</time>
      </trkpt>
      <trkpt lat="45.28007" lon="6.16733">
        <ele>1748.2</ele>
        <time>2021-02-17T12:32:51Z</time>
      </trkpt>
      <trkpt lat="45.28009" lon="6.16738">
        <ele>1748.6</ele>
        <time>2021-02-17T12:32:52Z</time>
      </trkpt>
      <trkpt lat="45.28009" lon="6.16739">
        <ele>1748.6</ele>
        <time>2021-02-17T12:32:53Z</time>
      </trkpt>
      <trkpt lat="45.28011" lon="6.16744">
        <ele>1747.9</ele>
        <time>2021-02-17T12:32:54Z</time>
      </trkpt>
      <trkpt lat="45.28011" lon="6.16746">
        <ele>1747.3</ele>
        <time>2021-02-17T12:32:55Z</time>
      </trkpt>
      <trkpt lat="45.28012" lon="6.1675">
        <ele>1747.8</ele>
        <time>2021-02-17T12:32:56Z</time>
      </trkpt>
      <trkpt lat="45.28012" lon="6.16752">
        <ele>1747.8</ele>
        <time>2021-02-17T12:32:57Z</time>
      </trkpt>
      <trkpt lat="45.28013" lon="6.16755">
        <ele>1747.2</ele>
        <time>2021-02-17T12:32:58Z</time>
      </trkpt>
      <trkpt lat="45.28013" lon="6.16756">
        <ele>1747.2</ele>
        <time>2021-02-17T12:32:59Z</time>
      </trkpt>
      <trkpt lat="45.28013" lon="6.16757">
        <ele>1747.2</ele>
        <time>2021-02-17T12:33:00Z</time>
      </trkpt>
      <trkpt lat="45.28014" lon="6.16758">
        <ele>1746.7</ele>
        <time>2021-02-17T12:33:01Z</time>
      </trkpt>
      <trkpt lat="45.28014" lon="6.16761">
        <ele>1746.7</ele>
        <time>2021-02-17T12:33:02Z</time>
      </trkpt>
      <trkpt lat="45.28014" lon="6.16765">
        <ele>1746.3</ele>
        <time>2021-02-17T12:33:03Z</time>
      </trkpt>
      <trkpt lat="45.28015" lon="6.16769">
        <ele>1746.9</ele>
        <time>2021-02-17T12:33:04Z</time>
      </trkpt>
      <trkpt lat="45.28015" lon="6.1677">
        <ele>1746.9</ele>
        <time>2021-02-17T12:33:05Z</time>
      </trkpt>
      <trkpt lat="45.28016" lon="6.16773">
        <ele>1746.4</ele>
        <time>2021-02-17T12:33:06Z</time>
      </trkpt>
      <trkpt lat="45.28017" lon="6.16775">
        <ele>1746.4</ele>
        <time>2021-02-17T12:33:07Z</time>
      </trkpt>
      <trkpt lat="45.28016" lon="6.1678">
        <ele>1745.4</ele>
        <time>2021-02-17T12:33:08Z</time>
      </trkpt>
      <trkpt lat="45.28016" lon="6.16787">
        <ele>1744.9</ele>
        <time>2021-02-17T12:33:09Z</time>
      </trkpt>
      <trkpt lat="45.28016" lon="6.16794">
        <ele>1743.9</ele>
        <time>2021-02-17T12:33:10Z</time>
      </trkpt>
      <trkpt lat="45.28015" lon="6.16802">
        <ele>1742.9</ele>
        <time>2021-02-17T12:33:11Z</time>
      </trkpt>
      <trkpt lat="45.28013" lon="6.16808">
        <ele>1741.3</ele>
        <time>2021-02-17T12:33:12Z</time>
      </trkpt>
      <trkpt lat="45.28012" lon="6.16814">
        <ele>1740.8</ele>
        <time>2021-02-17T12:33:13Z</time>
      </trkpt>
      <trkpt lat="45.28011" lon="6.16818">
        <ele>1740.3</ele>
        <time>2021-02-17T12:33:14Z</time>
      </trkpt>
      <trkpt lat="45.28011" lon="6.16822">
        <ele>1738.8</ele>
        <time>2021-02-17T12:33:15Z</time>
      </trkpt>
      <trkpt lat="45.28009" lon="6.16826">
        <ele>1738.3</ele>
        <time>2021-02-17T12:33:16Z</time>
      </trkpt>
      <trkpt lat="45.28008" lon="6.1683">
        <ele>1737.8</ele>
        <time>2021-02-17T12:33:17Z</time>
      </trkpt>
      <trkpt lat="45.28008" lon="6.16832">
        <ele>1736.4</ele>
        <time>2021-02-17T12:33:18Z</time>
      </trkpt>
      <trkpt lat="45.28006" lon="6.16837">
        <ele>1735.9</ele>
        <time>2021-02-17T12:33:19Z</time>
      </trkpt>
      <trkpt lat="45.28006" lon="6.16839">
        <ele>1735.9</ele>
        <time>2021-02-17T12:33:20Z</time>
      </trkpt>
      <trkpt lat="45.28005" lon="6.16844">
        <ele>1735.1</ele>
        <time>2021-02-17T12:33:21Z</time>
      </trkpt>
      <trkpt lat="45.28004" lon="6.16849">
        <ele>1733.8</ele>
        <time>2021-02-17T12:33:22Z</time>
      </trkpt>
      <trkpt lat="45.28004" lon="6.16854">
        <ele>1733.5</ele>
        <time>2021-02-17T12:33:23Z</time>
      </trkpt>
      <trkpt lat="45.28003" lon="6.16858">
        <ele>1733.2</ele>
        <time>2021-02-17T12:33:24Z</time>
      </trkpt>
      <trkpt lat="45.28003" lon="6.16862">
        <ele>1732.8</ele>
        <time>2021-02-17T12:33:25Z</time>
      </trkpt>
      <trkpt lat="45.28003" lon="6.16867">
        <ele>1732.5</ele>
        <time>2021-02-17T12:33:26Z</time>
      </trkpt>
      <trkpt lat="45.28002" lon="6.16872">
        <ele>1732.2</ele>
        <time>2021-02-17T12:33:27Z</time>
      </trkpt>
      <trkpt lat="45.28002" lon="6.16876">
        <ele>1731</ele>
        <time>2021-02-17T12:33:28Z</time>
      </trkpt>
      <trkpt lat="45.28001" lon="6.16881">
        <ele>1730.7</ele>
        <time>2021-02-17T12:33:29Z</time>
      </trkpt>
      <trkpt lat="45.28" lon="6.16885">
        <ele>1729.7</ele>
        <time>2021-02-17T12:33:30Z</time>
      </trkpt>
      <trkpt lat="45.27999" lon="6.16889">
        <ele>1728.8</ele>
        <time>2021-02-17T12:33:31Z</time>
      </trkpt>
      <trkpt lat="45.27998" lon="6.16894">
        <ele>1727.5</ele>
        <time>2021-02-17T12:33:32Z</time>
      </trkpt>
      <trkpt lat="45.27998" lon="6.16896">
        <ele>1727</ele>
        <time>2021-02-17T12:33:33Z</time>
      </trkpt>
      <trkpt lat="45.27998" lon="6.16902">
        <ele>1725.8</ele>
        <time>2021-02-17T12:33:34Z</time>
      </trkpt>
      <trkpt lat="45.27998" lon="6.16908">
        <ele>1724.4</ele>
        <time>2021-02-17T12:33:35Z</time>
      </trkpt>
      <trkpt lat="45.27998" lon="6.16913">
        <ele>1723</ele>
        <time>2021-02-17T12:33:36Z</time>
      </trkpt>
      <trkpt lat="45.27998" lon="6.1692">
        <ele>1721.5</ele>
        <time>2021-02-17T12:33:37Z</time>
      </trkpt>
      <trkpt lat="45.27999" lon="6.16925">
        <ele>1720.2</ele>
        <time>2021-02-17T12:33:38Z</time>
      </trkpt>
      <trkpt lat="45.28" lon="6.1693">
        <ele>1719.1</ele>
        <time>2021-02-17T12:33:39Z</time>
      </trkpt>
      <trkpt lat="45.28002" lon="6.16936">
        <ele>1719.1</ele>
        <time>2021-02-17T12:33:40Z</time>
      </trkpt>
      <trkpt lat="45.28002" lon="6.16942">
        <ele>1719.1</ele>
        <time>2021-02-17T12:33:41Z</time>
      </trkpt>
      <trkpt lat="45.28002" lon="6.16944">
        <ele>1719</ele>
        <time>2021-02-17T12:33:42Z</time>
      </trkpt>
      <trkpt lat="45.28002" lon="6.16948">
        <ele>1719</ele>
        <time>2021-02-17T12:33:43Z</time>
      </trkpt>
      <trkpt lat="45.28002" lon="6.16955">
        <ele>1718.9</ele>
        <time>2021-02-17T12:33:44Z</time>
      </trkpt>
      <trkpt lat="45.28002" lon="6.1696">
        <ele>1718.9</ele>
        <time>2021-02-17T12:33:45Z</time>
      </trkpt>
      <trkpt lat="45.28001" lon="6.16965">
        <ele>1718.9</ele>
        <time>2021-02-17T12:33:46Z</time>
      </trkpt>
      <trkpt lat="45.28002" lon="6.16967">
        <ele>1718.8</ele>
        <time>2021-02-17T12:33:47Z</time>
      </trkpt>
      <trkpt lat="45.28002" lon="6.16969">
        <ele>1718.8</ele>
        <time>2021-02-17T12:33:48Z</time>
      </trkpt>
      <trkpt lat="45.28003" lon="6.1697">
        <ele>1718.8</ele>
        <time>2021-02-17T12:33:49Z</time>
      </trkpt>
      <trkpt lat="45.28003" lon="6.16972">
        <ele>1718.8</ele>
        <time>2021-02-17T12:33:50Z</time>
      </trkpt>
      <trkpt lat="45.28003" lon="6.16974">
        <ele>1718.8</ele>
        <time>2021-02-17T12:33:51Z</time>
      </trkpt>
      <trkpt lat="45.28003" lon="6.16975">
        <ele>1718.8</ele>
        <time>2021-02-17T12:33:52Z</time>
      </trkpt>
      <trkpt lat="45.28003" lon="6.16977">
        <ele>1718.8</ele>
        <time>2021-02-17T12:33:53Z</time>
      </trkpt>
      <trkpt lat="45.28004" lon="6.1698">
        <ele>1718.7</ele>
        <time>2021-02-17T12:33:54Z</time>
      </trkpt>
      <trkpt lat="45.28004" lon="6.16982">
        <ele>1718.7</ele>
        <time>2021-02-17T12:33:55Z</time>
      </trkpt>
      <trkpt lat="45.28006" lon="6.16987">
        <ele>1718.7</ele>
        <time>2021-02-17T12:33:56Z</time>
      </trkpt>
      <trkpt lat="45.28006" lon="6.16989">
        <ele>1718.6</ele>
        <time>2021-02-17T12:33:57Z</time>
      </trkpt>
      <trkpt lat="45.28009" lon="6.16994">
        <ele>1718.6</ele>
        <time>2021-02-17T12:33:58Z</time>
      </trkpt>
      <trkpt lat="45.2801" lon="6.16995">
        <ele>1718.5</ele>
        <time>2021-02-17T12:33:59Z</time>
      </trkpt>
      <trkpt lat="45.28012" lon="6.16998">
        <ele>1718.5</ele>
        <time>2021-02-17T12:34:00Z</time>
      </trkpt>
      <trkpt lat="45.28014" lon="6.17001">
        <ele>1718.4</ele>
        <time>2021-02-17T12:34:01Z</time>
      </trkpt>
      <trkpt lat="45.28016" lon="6.17004">
        <ele>1718.3</ele>
        <time>2021-02-17T12:34:02Z</time>
      </trkpt>
      <trkpt lat="45.28018" lon="6.17007">
        <ele>1718.2</ele>
        <time>2021-02-17T12:34:03Z</time>
      </trkpt>
      <trkpt lat="45.2802" lon="6.17011">
        <ele>1718.2</ele>
        <time>2021-02-17T12:34:04Z</time>
      </trkpt>
      <trkpt lat="45.28021" lon="6.17015">
        <ele>1718.2</ele>
        <time>2021-02-17T12:34:05Z</time>
      </trkpt>
      <trkpt lat="45.28022" lon="6.17018">
        <ele>1718.1</ele>
        <time>2021-02-17T12:34:06Z</time>
      </trkpt>
      <trkpt lat="45.28023" lon="6.17019">
        <ele>1718.1</ele>
        <time>2021-02-17T12:34:07Z</time>
      </trkpt>
      <trkpt lat="45.28023" lon="6.1702">
        <ele>1718.1</ele>
        <time>2021-02-17T12:34:08Z</time>
      </trkpt>
      <trkpt lat="45.28023" lon="6.17021">
        <ele>1718.1</ele>
        <time>2021-02-17T12:34:09Z</time>
      </trkpt>
      <trkpt lat="45.28023" lon="6.17021">
        <ele>1718.1</ele>
        <time>2021-02-17T12:34:10Z</time>
      </trkpt>
      <trkpt lat="45.28023" lon="6.17021">
        <ele>1718.1</ele>
        <time>2021-02-17T12:34:11Z</time>
      </trkpt>
      <trkpt lat="45.28023" lon="6.17021">
        <ele>1718.1</ele>
        <time>2021-02-17T12:34:12Z</time>
      </trkpt>
      <trkpt lat="45.28021" lon="6.17014">
        <ele>1718.1</ele>
        <time>2021-02-17T12:34:13Z</time>
      </trkpt>
      <trkpt lat="45.28021" lon="6.17015">
        <ele>1718.1</ele>
        <time>2021-02-17T12:34:14Z</time>
      </trkpt>
      <trkpt lat="45.28021" lon="6.17015">
        <ele>1718.1</ele>
        <time>2021-02-17T12:34:15Z</time>
      </trkpt>
      <trkpt lat="45.28021" lon="6.17016">
        <ele>1718.1</ele>
        <time>2021-02-17T12:34:16Z</time>
      </trkpt>
      <trkpt lat="45.28022" lon="6.17017">
        <ele>1718.1</ele>
        <time>2021-02-17T12:34:17Z</time>
      </trkpt>
      <trkpt lat="45.28022" lon="6.17018">
        <ele>1718.1</ele>
        <time>2021-02-17T12:34:18Z</time>
      </trkpt>
      <trkpt lat="45.28022" lon="6.17019">
        <ele>1718.1</ele>
        <time>2021-02-17T12:34:19Z</time>
      </trkpt>
      <trkpt lat="45.28022" lon="6.1702">
        <ele>1718.1</ele>
        <time>2021-02-17T12:34:20Z</time>
      </trkpt>
      <trkpt lat="45.28022" lon="6.17023">
        <ele>1718.1</ele>
        <time>2021-02-17T12:34:21Z</time>
      </trkpt>
      <trkpt lat="45.28023" lon="6.17029">
        <ele>1718.1</ele>
        <time>2021-02-17T12:34:22Z</time>
      </trkpt>
      <trkpt lat="45.28023" lon="6.17031">
        <ele>1718.1</ele>
        <time>2021-02-17T12:34:23Z</time>
      </trkpt>
      <trkpt lat="45.28023" lon="6.17035">
        <ele>1718</ele>
        <time>2021-02-17T12:34:24Z</time>
      </trkpt>
      <trkpt lat="45.28024" lon="6.17045">
        <ele>1717.9</ele>
        <time>2021-02-17T12:34:25Z</time>
      </trkpt>
      <trkpt lat="45.28024" lon="6.17057">
        <ele>1717.7</ele>
        <time>2021-02-17T12:34:26Z</time>
      </trkpt>
      <trkpt lat="45.28024" lon="6.17063">
        <ele>1717.7</ele>
        <time>2021-02-17T12:34:27Z</time>
      </trkpt>
      <trkpt lat="45.28025" lon="6.17069">
        <ele>1717.6</ele>
        <time>2021-02-17T12:34:28Z</time>
      </trkpt>
      <trkpt lat="45.28026" lon="6.17073">
        <ele>1717.6</ele>
        <time>2021-02-17T12:34:29Z</time>
      </trkpt>
      <trkpt lat="45.28027" lon="6.17077">
        <ele>1717.6</ele>
        <time>2021-02-17T12:34:30Z</time>
      </trkpt>
      <trkpt lat="45.28028" lon="6.1708">
        <ele>1717.6</ele>
        <time>2021-02-17T12:34:31Z</time>
      </trkpt>
      <trkpt lat="45.28027" lon="6.17082">
        <ele>1717.6</ele>
        <time>2021-02-17T12:34:32Z</time>
      </trkpt>
      <trkpt lat="45.28027" lon="6.17088">
        <ele>1717.7</ele>
        <time>2021-02-17T12:34:33Z</time>
      </trkpt>
      <trkpt lat="45.28026" lon="6.17091">
        <ele>1717.7</ele>
        <time>2021-02-17T12:34:34Z</time>
      </trkpt>
      <trkpt lat="45.28025" lon="6.17097">
        <ele>1717.7</ele>
        <time>2021-02-17T12:34:35Z</time>
      </trkpt>
      <trkpt lat="45.28024" lon="6.17102">
        <ele>1717.7</ele>
        <time>2021-02-17T12:34:36Z</time>
      </trkpt>
      <trkpt lat="45.28024" lon="6.17108">
        <ele>1717.6</ele>
        <time>2021-02-17T12:34:37Z</time>
      </trkpt>
      <trkpt lat="45.28023" lon="6.17112">
        <ele>1717.3</ele>
        <time>2021-02-17T12:34:38Z</time>
      </trkpt>
      <trkpt lat="45.28023" lon="6.17113">
        <ele>1717.2</ele>
        <time>2021-02-17T12:34:39Z</time>
      </trkpt>
      <trkpt lat="45.28023" lon="6.17117">
        <ele>1717</ele>
        <time>2021-02-17T12:34:40Z</time>
      </trkpt>
      <trkpt lat="45.28023" lon="6.17117">
        <ele>1716.9</ele>
        <time>2021-02-17T12:34:41Z</time>
      </trkpt>
      <trkpt lat="45.28022" lon="6.17118">
        <ele>1716.8</ele>
        <time>2021-02-17T12:34:42Z</time>
      </trkpt>
      <trkpt lat="45.2802" lon="6.17122">
        <ele>1716.5</ele>
        <time>2021-02-17T12:34:43Z</time>
      </trkpt>
      <trkpt lat="45.28019" lon="6.17123">
        <ele>1716.4</ele>
        <time>2021-02-17T12:34:44Z</time>
      </trkpt>
      <trkpt lat="45.28018" lon="6.17128">
        <ele>1716</ele>
        <time>2021-02-17T12:34:45Z</time>
      </trkpt>
      <trkpt lat="45.28017" lon="6.1713">
        <ele>1715.9</ele>
        <time>2021-02-17T12:34:46Z</time>
      </trkpt>
      <trkpt lat="45.28017" lon="6.17135">
        <ele>1715.5</ele>
        <time>2021-02-17T12:34:47Z</time>
      </trkpt>
      <trkpt lat="45.28017" lon="6.17136">
        <ele>1715.4</ele>
        <time>2021-02-17T12:34:48Z</time>
      </trkpt>
      <trkpt lat="45.28017" lon="6.17142">
        <ele>1714.9</ele>
        <time>2021-02-17T12:34:49Z</time>
      </trkpt>
      <trkpt lat="45.28017" lon="6.17143">
        <ele>1714.8</ele>
        <time>2021-02-17T12:34:50Z</time>
      </trkpt>
      <trkpt lat="45.28017" lon="6.17147">
        <ele>1714.5</ele>
        <time>2021-02-17T12:34:51Z</time>
      </trkpt>
      <trkpt lat="45.28016" lon="6.17152">
        <ele>1714.1</ele>
        <time>2021-02-17T12:34:52Z</time>
      </trkpt>
      <trkpt lat="45.28015" lon="6.17156">
        <ele>1713.7</ele>
        <time>2021-02-17T12:34:53Z</time>
      </trkpt>
      <trkpt lat="45.28015" lon="6.17161">
        <ele>1713.2</ele>
        <time>2021-02-17T12:34:54Z</time>
      </trkpt>
      <trkpt lat="45.28014" lon="6.17167">
        <ele>1712.7</ele>
        <time>2021-02-17T12:34:55Z</time>
      </trkpt>
      <trkpt lat="45.28014" lon="6.17173">
        <ele>1712.2</ele>
        <time>2021-02-17T12:34:56Z</time>
      </trkpt>
      <trkpt lat="45.28014" lon="6.17179">
        <ele>1711.6</ele>
        <time>2021-02-17T12:34:57Z</time>
      </trkpt>
      <trkpt lat="45.28013" lon="6.17184">
        <ele>1711.1</ele>
        <time>2021-02-17T12:34:58Z</time>
      </trkpt>
      <trkpt lat="45.28013" lon="6.1719">
        <ele>1710.6</ele>
        <time>2021-02-17T12:34:59Z</time>
      </trkpt>
      <trkpt lat="45.28013" lon="6.17195">
        <ele>1710.1</ele>
        <time>2021-02-17T12:35:00Z</time>
      </trkpt>
      <trkpt lat="45.28013" lon="6.172">
        <ele>1709.6</ele>
        <time>2021-02-17T12:35:01Z</time>
      </trkpt>
      <trkpt lat="45.28013" lon="6.17205">
        <ele>1709.2</ele>
        <time>2021-02-17T12:35:02Z</time>
      </trkpt>
      <trkpt lat="45.28013" lon="6.17209">
        <ele>1708.9</ele>
        <time>2021-02-17T12:35:03Z</time>
      </trkpt>
      <trkpt lat="45.28012" lon="6.17212">
        <ele>1708.6</ele>
        <time>2021-02-17T12:35:04Z</time>
      </trkpt>
      <trkpt lat="45.28012" lon="6.17212">
        <ele>1708.6</ele>
        <time>2021-02-17T12:35:05Z</time>
      </trkpt>
      <trkpt lat="45.28012" lon="6.17212">
        <ele>1708.6</ele>
        <time>2021-02-17T12:35:06Z</time>
      </trkpt>
      <trkpt lat="45.28012" lon="6.17213">
        <ele>1708.5</ele>
        <time>2021-02-17T12:35:07Z</time>
      </trkpt>
      <trkpt lat="45.28012" lon="6.17213">
        <ele>1708.5</ele>
        <time>2021-02-17T12:35:08Z</time>
      </trkpt>
      <trkpt lat="45.28012" lon="6.17213">
        <ele>1708.5</ele>
        <time>2021-02-17T12:35:09Z</time>
      </trkpt>
      <trkpt lat="45.28012" lon="6.17213">
        <ele>1708.5</ele>
        <time>2021-02-17T12:35:10Z</time>
      </trkpt>
      <trkpt lat="45.28012" lon="6.17214">
        <ele>1708.4</ele>
        <time>2021-02-17T12:35:11Z</time>
      </trkpt>
      <trkpt lat="45.28012" lon="6.17214">
        <ele>1708.4</ele>
        <time>2021-02-17T12:35:12Z</time>
      </trkpt>
      <trkpt lat="45.28012" lon="6.17214">
        <ele>1708.4</ele>
        <time>2021-02-17T12:35:13Z</time>
      </trkpt>
      <trkpt lat="45.28012" lon="6.17215">
        <ele>1708.4</ele>
        <time>2021-02-17T12:35:14Z</time>
      </trkpt>
      <trkpt lat="45.28012" lon="6.17215">
        <ele>1708.3</ele>
        <time>2021-02-17T12:35:15Z</time>
      </trkpt>
      <trkpt lat="45.2801" lon="6.1722">
        <ele>1707.9</ele>
        <time>2021-02-17T12:35:16Z</time>
      </trkpt>
      <trkpt lat="45.28008" lon="6.17225">
        <ele>1707.4</ele>
        <time>2021-02-17T12:35:17Z</time>
      </trkpt>
      <trkpt lat="45.28008" lon="6.17229">
        <ele>1707.1</ele>
        <time>2021-02-17T12:35:18Z</time>
      </trkpt>
      <trkpt lat="45.28008" lon="6.17232">
        <ele>1706.8</ele>
        <time>2021-02-17T12:35:19Z</time>
      </trkpt>
      <trkpt lat="45.28008" lon="6.17233">
        <ele>1706.7</ele>
        <time>2021-02-17T12:35:20Z</time>
      </trkpt>
      <trkpt lat="45.28008" lon="6.17234">
        <ele>1706.7</ele>
        <time>2021-02-17T12:35:21Z</time>
      </trkpt>
      <trkpt lat="45.28008" lon="6.17235">
        <ele>1706.6</ele>
        <time>2021-02-17T12:35:22Z</time>
      </trkpt>
      <trkpt lat="45.28008" lon="6.17236">
        <ele>1706.5</ele>
        <time>2021-02-17T12:35:23Z</time>
      </trkpt>
      <trkpt lat="45.28009" lon="6.17237">
        <ele>1706.4</ele>
        <time>2021-02-17T12:35:24Z</time>
      </trkpt>
      <trkpt lat="45.28009" lon="6.17238">
        <ele>1706.3</ele>
        <time>2021-02-17T12:35:25Z</time>
      </trkpt>
      <trkpt lat="45.28009" lon="6.17239">
        <ele>1706.2</ele>
        <time>2021-02-17T12:35:26Z</time>
      </trkpt>
      <trkpt lat="45.28009" lon="6.1724">
        <ele>1706.1</ele>
        <time>2021-02-17T12:35:27Z</time>
      </trkpt>
      <trkpt lat="45.28009" lon="6.17241">
        <ele>1706.1</ele>
        <time>2021-02-17T12:35:28Z</time>
      </trkpt>
      <trkpt lat="45.28009" lon="6.17242">
        <ele>1706</ele>
        <time>2021-02-17T12:35:29Z</time>
      </trkpt>
      <trkpt lat="45.28009" lon="6.17242">
        <ele>1705.9</ele>
        <time>2021-02-17T12:35:30Z</time>
      </trkpt>
      <trkpt lat="45.28009" lon="6.17243">
        <ele>1705.8</ele>
        <time>2021-02-17T12:36:14Z</time>
      </trkpt>
      <trkpt lat="45.28009" lon="6.17244">
        <ele>1705.7</ele>
        <time>2021-02-17T12:36:15Z</time>
      </trkpt>
      <trkpt lat="45.2801" lon="6.1725">
        <ele>1705.1</ele>
        <time>2021-02-17T12:36:16Z</time>
      </trkpt>
      <trkpt lat="45.2801" lon="6.17257">
        <ele>1704.3</ele>
        <time>2021-02-17T12:36:17Z</time>
      </trkpt>
      <trkpt lat="45.2801" lon="6.17262">
        <ele>1703.7</ele>
        <time>2021-02-17T12:36:18Z</time>
      </trkpt>
      <trkpt lat="45.2801" lon="6.17267">
        <ele>1703.1</ele>
        <time>2021-02-17T12:36:19Z</time>
      </trkpt>
      <trkpt lat="45.2801" lon="6.17273">
        <ele>1702.4</ele>
        <time>2021-02-17T12:36:20Z</time>
      </trkpt>
      <trkpt lat="45.2801" lon="6.17279">
        <ele>1701.6</ele>
        <time>2021-02-17T12:36:21Z</time>
      </trkpt>
      <trkpt lat="45.28009" lon="6.17284">
        <ele>1700.9</ele>
        <time>2021-02-17T12:36:22Z</time>
      </trkpt>
      <trkpt lat="45.28009" lon="6.1729">
        <ele>1700.1</ele>
        <time>2021-02-17T12:36:23Z</time>
      </trkpt>
      <trkpt lat="45.28009" lon="6.17295">
        <ele>1699.5</ele>
        <time>2021-02-17T12:36:24Z</time>
      </trkpt>
      <trkpt lat="45.2801" lon="6.17299">
        <ele>1699</ele>
        <time>2021-02-17T12:36:25Z</time>
      </trkpt>
      <trkpt lat="45.2801" lon="6.17303">
        <ele>1698.4</ele>
        <time>2021-02-17T12:36:26Z</time>
      </trkpt>
      <trkpt lat="45.28008" lon="6.17308">
        <ele>1697.6</ele>
        <time>2021-02-17T12:36:27Z</time>
      </trkpt>
      <trkpt lat="45.28006" lon="6.17313">
        <ele>1696.8</ele>
        <time>2021-02-17T12:36:28Z</time>
      </trkpt>
      <trkpt lat="45.28005" lon="6.17318">
        <ele>1695.9</ele>
        <time>2021-02-17T12:36:29Z</time>
      </trkpt>
      <trkpt lat="45.28006" lon="6.17323">
        <ele>1695.1</ele>
        <time>2021-02-17T12:36:30Z</time>
      </trkpt>
      <trkpt lat="45.28006" lon="6.17328">
        <ele>1694.3</ele>
        <time>2021-02-17T12:36:31Z</time>
      </trkpt>
      <trkpt lat="45.28007" lon="6.17333">
        <ele>1693.6</ele>
        <time>2021-02-17T12:36:32Z</time>
      </trkpt>
      <trkpt lat="45.28008" lon="6.17337">
        <ele>1693</ele>
        <time>2021-02-17T12:36:33Z</time>
      </trkpt>
      <trkpt lat="45.28008" lon="6.17339">
        <ele>1692.7</ele>
        <time>2021-02-17T12:36:34Z</time>
      </trkpt>
      <trkpt lat="45.28007" lon="6.17345">
        <ele>1692</ele>
        <time>2021-02-17T12:36:35Z</time>
      </trkpt>
      <trkpt lat="45.28007" lon="6.1735">
        <ele>1691.2</ele>
        <time>2021-02-17T12:36:36Z</time>
      </trkpt>
      <trkpt lat="45.28007" lon="6.17355">
        <ele>1690.5</ele>
        <time>2021-02-17T12:36:37Z</time>
      </trkpt>
      <trkpt lat="45.28009" lon="6.1736">
        <ele>1689.8</ele>
        <time>2021-02-17T12:36:38Z</time>
      </trkpt>
      <trkpt lat="45.2801" lon="6.17363">
        <ele>1689.2</ele>
        <time>2021-02-17T12:36:39Z</time>
      </trkpt>
      <trkpt lat="45.28012" lon="6.17368">
        <ele>1688.5</ele>
        <time>2021-02-17T12:36:40Z</time>
      </trkpt>
      <trkpt lat="45.28013" lon="6.17369">
        <ele>1688.2</ele>
        <time>2021-02-17T12:36:41Z</time>
      </trkpt>
      <trkpt lat="45.28014" lon="6.17374">
        <ele>1687.4</ele>
        <time>2021-02-17T12:36:42Z</time>
      </trkpt>
      <trkpt lat="45.28016" lon="6.17379">
        <ele>1686.6</ele>
        <time>2021-02-17T12:36:43Z</time>
      </trkpt>
      <trkpt lat="45.28016" lon="6.1738">
        <ele>1686.3</ele>
        <time>2021-02-17T12:36:44Z</time>
      </trkpt>
      <trkpt lat="45.28017" lon="6.17384">
        <ele>1685.6</ele>
        <time>2021-02-17T12:36:45Z</time>
      </trkpt>
      <trkpt lat="45.28017" lon="6.17388">
        <ele>1684.9</ele>
        <time>2021-02-17T12:36:46Z</time>
      </trkpt>
      <trkpt lat="45.28017" lon="6.17393">
        <ele>1684</ele>
        <time>2021-02-17T12:36:47Z</time>
      </trkpt>
      <trkpt lat="45.28018" lon="6.17398">
        <ele>1683.2</ele>
        <time>2021-02-17T12:36:48Z</time>
      </trkpt>
      <trkpt lat="45.28019" lon="6.17402">
        <ele>1682.5</ele>
        <time>2021-02-17T12:36:49Z</time>
      </trkpt>
      <trkpt lat="45.2802" lon="6.17407">
        <ele>1681.6</ele>
        <time>2021-02-17T12:36:50Z</time>
      </trkpt>
      <trkpt lat="45.28021" lon="6.17415">
        <ele>1680.4</ele>
        <time>2021-02-17T12:36:51Z</time>
      </trkpt>
      <trkpt lat="45.28022" lon="6.17421">
        <ele>1679.6</ele>
        <time>2021-02-17T12:36:52Z</time>
      </trkpt>
      <trkpt lat="45.28022" lon="6.17428">
        <ele>1678.7</ele>
        <time>2021-02-17T12:36:53Z</time>
      </trkpt>
      <trkpt lat="45.28023" lon="6.17435">
        <ele>1677.9</ele>
        <time>2021-02-17T12:36:54Z</time>
      </trkpt>
      <trkpt lat="45.28023" lon="6.17441">
        <ele>1677.2</ele>
        <time>2021-02-17T12:36:55Z</time>
      </trkpt>
      <trkpt lat="45.28023" lon="6.17448">
        <ele>1676.6</ele>
        <time>2021-02-17T12:36:56Z</time>
      </trkpt>
      <trkpt lat="45.28024" lon="6.17453">
        <ele>1676.1</ele>
        <time>2021-02-17T12:36:57Z</time>
      </trkpt>
      <trkpt lat="45.28024" lon="6.1746">
        <ele>1675.6</ele>
        <time>2021-02-17T12:36:58Z</time>
      </trkpt>
      <trkpt lat="45.28024" lon="6.17467">
        <ele>1674.9</ele>
        <time>2021-02-17T12:36:59Z</time>
      </trkpt>
      <trkpt lat="45.28024" lon="6.17475">
        <ele>1674.2</ele>
        <time>2021-02-17T12:37:00Z</time>
      </trkpt>
      <trkpt lat="45.28025" lon="6.17479">
        <ele>1673.7</ele>
        <time>2021-02-17T12:37:01Z</time>
      </trkpt>
      <trkpt lat="45.28025" lon="6.17481">
        <ele>1673.5</ele>
        <time>2021-02-17T12:37:02Z</time>
      </trkpt>
      <trkpt lat="45.28026" lon="6.17487">
        <ele>1673</ele>
        <time>2021-02-17T12:37:03Z</time>
      </trkpt>
      <trkpt lat="45.28025" lon="6.1749">
        <ele>1672.6</ele>
        <time>2021-02-17T12:37:04Z</time>
      </trkpt>
      <trkpt lat="45.28024" lon="6.17498">
        <ele>1671.8</ele>
        <time>2021-02-17T12:37:05Z</time>
      </trkpt>
      <trkpt lat="45.28024" lon="6.17505">
        <ele>1671.1</ele>
        <time>2021-02-17T12:37:06Z</time>
      </trkpt>
      <trkpt lat="45.28026" lon="6.1751">
        <ele>1670.5</ele>
        <time>2021-02-17T12:37:07Z</time>
      </trkpt>
      <trkpt lat="45.28025" lon="6.17518">
        <ele>1669.8</ele>
        <time>2021-02-17T12:37:08Z</time>
      </trkpt>
      <trkpt lat="45.28025" lon="6.17526">
        <ele>1669.1</ele>
        <time>2021-02-17T12:37:09Z</time>
      </trkpt>
      <trkpt lat="45.28026" lon="6.17529">
        <ele>1668.8</ele>
        <time>2021-02-17T12:37:10Z</time>
      </trkpt>
      <trkpt lat="45.28026" lon="6.17531">
        <ele>1668.6</ele>
        <time>2021-02-17T12:37:11Z</time>
      </trkpt>
      <trkpt lat="45.28025" lon="6.17532">
        <ele>1668.4</ele>
        <time>2021-02-17T12:37:12Z</time>
      </trkpt>
      <trkpt lat="45.28024" lon="6.17535">
        <ele>1668</ele>
        <time>2021-02-17T12:37:13Z</time>
      </trkpt>
      <trkpt lat="45.28025" lon="6.17541">
        <ele>1667.5</ele>
        <time>2021-02-17T12:37:14Z</time>
      </trkpt>
      <trkpt lat="45.28024" lon="6.17547">
        <ele>1666.7</ele>
        <time>2021-02-17T12:37:15Z</time>
      </trkpt>
      <trkpt lat="45.28025" lon="6.17557">
        <ele>1665.6</ele>
        <time>2021-02-17T12:37:16Z</time>
      </trkpt>
      <trkpt lat="45.28024" lon="6.17565">
        <ele>1664.4</ele>
        <time>2021-02-17T12:37:17Z</time>
      </trkpt>
      <trkpt lat="45.28023" lon="6.17575">
        <ele>1663</ele>
        <time>2021-02-17T12:37:18Z</time>
      </trkpt>
      <trkpt lat="45.28022" lon="6.17583">
        <ele>1662.1</ele>
        <time>2021-02-17T12:37:19Z</time>
      </trkpt>
      <trkpt lat="45.28021" lon="6.1759">
        <ele>1661.3</ele>
        <time>2021-02-17T12:37:20Z</time>
      </trkpt>
      <trkpt lat="45.2802" lon="6.17598">
        <ele>1660.5</ele>
        <time>2021-02-17T12:37:21Z</time>
      </trkpt>
      <trkpt lat="45.28021" lon="6.17603">
        <ele>1660</ele>
        <time>2021-02-17T12:37:22Z</time>
      </trkpt>
      <trkpt lat="45.2802" lon="6.17613">
        <ele>1659.2</ele>
        <time>2021-02-17T12:37:23Z</time>
      </trkpt>
      <trkpt lat="45.2802" lon="6.17617">
        <ele>1658.9</ele>
        <time>2021-02-17T12:37:24Z</time>
      </trkpt>
      <trkpt lat="45.2802" lon="6.17623">
        <ele>1658.5</ele>
        <time>2021-02-17T12:37:25Z</time>
      </trkpt>
      <trkpt lat="45.2802" lon="6.1763">
        <ele>1658</ele>
        <time>2021-02-17T12:37:26Z</time>
      </trkpt>
      <trkpt lat="45.2802" lon="6.17628">
        <ele>1657.9</ele>
        <time>2021-02-17T12:37:27Z</time>
      </trkpt>
      <trkpt lat="45.28019" lon="6.17633">
        <ele>1657.5</ele>
        <time>2021-02-17T12:37:28Z</time>
      </trkpt>
      <trkpt lat="45.2802" lon="6.17633">
        <ele>1657.4</ele>
        <time>2021-02-17T12:37:29Z</time>
      </trkpt>
      <trkpt lat="45.28019" lon="6.17635">
        <ele>1657.2</ele>
        <time>2021-02-17T12:37:30Z</time>
      </trkpt>
      <trkpt lat="45.28018" lon="6.17636">
        <ele>1657.1</ele>
        <time>2021-02-17T12:37:31Z</time>
      </trkpt>
      <trkpt lat="45.28017" lon="6.17639">
        <ele>1656.8</ele>
        <time>2021-02-17T12:37:32Z</time>
      </trkpt>
      <trkpt lat="45.28016" lon="6.17641">
        <ele>1656.7</ele>
        <time>2021-02-17T12:37:33Z</time>
      </trkpt>
      <trkpt lat="45.28016" lon="6.17642">
        <ele>1656.6</ele>
        <time>2021-02-17T12:37:34Z</time>
      </trkpt>
      <trkpt lat="45.28016" lon="6.17643">
        <ele>1656.5</ele>
        <time>2021-02-17T12:37:35Z</time>
      </trkpt>
      <trkpt lat="45.28015" lon="6.17644">
        <ele>1656.4</ele>
        <time>2021-02-17T12:37:36Z</time>
      </trkpt>
      <trkpt lat="45.28014" lon="6.1765">
        <ele>1655.8</ele>
        <time>2021-02-17T12:37:37Z</time>
      </trkpt>
      <trkpt lat="45.28013" lon="6.17653">
        <ele>1655.5</ele>
        <time>2021-02-17T12:37:38Z</time>
      </trkpt>
      <trkpt lat="45.28012" lon="6.1766">
        <ele>1654.9</ele>
        <time>2021-02-17T12:37:39Z</time>
      </trkpt>
      <trkpt lat="45.28011" lon="6.17666">
        <ele>1654.2</ele>
        <time>2021-02-17T12:37:40Z</time>
      </trkpt>
      <trkpt lat="45.28011" lon="6.17671">
        <ele>1653.7</ele>
        <time>2021-02-17T12:37:41Z</time>
      </trkpt>
      <trkpt lat="45.28012" lon="6.17677">
        <ele>1653</ele>
        <time>2021-02-17T12:37:42Z</time>
      </trkpt>
      <trkpt lat="45.28012" lon="6.17679">
        <ele>1652.8</ele>
        <time>2021-02-17T12:37:43Z</time>
      </trkpt>
      <trkpt lat="45.28012" lon="6.17684">
        <ele>1652</ele>
        <time>2021-02-17T12:37:44Z</time>
      </trkpt>
      <trkpt lat="45.28013" lon="6.1769">
        <ele>1651.1</ele>
        <time>2021-02-17T12:37:45Z</time>
      </trkpt>
      <trkpt lat="45.28013" lon="6.17696">
        <ele>1650.3</ele>
        <time>2021-02-17T12:37:46Z</time>
      </trkpt>
      <trkpt lat="45.28014" lon="6.17701">
        <ele>1649.5</ele>
        <time>2021-02-17T12:37:47Z</time>
      </trkpt>
      <trkpt lat="45.28015" lon="6.17705">
        <ele>1648.8</ele>
        <time>2021-02-17T12:37:48Z</time>
      </trkpt>
      <trkpt lat="45.28016" lon="6.17709">
        <ele>1648.2</ele>
        <time>2021-02-17T12:37:49Z</time>
      </trkpt>
      <trkpt lat="45.28017" lon="6.17713">
        <ele>1647.5</ele>
        <time>2021-02-17T12:37:50Z</time>
      </trkpt>
      <trkpt lat="45.28018" lon="6.17719">
        <ele>1646.7</ele>
        <time>2021-02-17T12:37:51Z</time>
      </trkpt>
      <trkpt lat="45.28021" lon="6.17724">
        <ele>1645.8</ele>
        <time>2021-02-17T12:37:52Z</time>
      </trkpt>
      <trkpt lat="45.28022" lon="6.1773">
        <ele>1644.8</ele>
        <time>2021-02-17T12:37:53Z</time>
      </trkpt>
      <trkpt lat="45.28023" lon="6.17735">
        <ele>1644.1</ele>
        <time>2021-02-17T12:37:54Z</time>
      </trkpt>
      <trkpt lat="45.28023" lon="6.17739">
        <ele>1643.5</ele>
        <time>2021-02-17T12:37:55Z</time>
      </trkpt>
      <trkpt lat="45.28025" lon="6.17744">
        <ele>1642.7</ele>
        <time>2021-02-17T12:37:56Z</time>
      </trkpt>
      <trkpt lat="45.28026" lon="6.17748">
        <ele>1642.1</ele>
        <time>2021-02-17T12:37:57Z</time>
      </trkpt>
      <trkpt lat="45.28026" lon="6.17752">
        <ele>1641.4</ele>
        <time>2021-02-17T12:37:58Z</time>
      </trkpt>
      <trkpt lat="45.28026" lon="6.17756">
        <ele>1640.8</ele>
        <time>2021-02-17T12:37:59Z</time>
      </trkpt>
      <trkpt lat="45.28027" lon="6.17757">
        <ele>1640.6</ele>
        <time>2021-02-17T12:38:00Z</time>
      </trkpt>
      <trkpt lat="45.28027" lon="6.17758">
        <ele>1640.5</ele>
        <time>2021-02-17T12:38:01Z</time>
      </trkpt>
      <trkpt lat="45.28027" lon="6.17758">
        <ele>1640.4</ele>
        <time>2021-02-17T12:38:02Z</time>
      </trkpt>
      <trkpt lat="45.28026" lon="6.17759">
        <ele>1640.2</ele>
        <time>2021-02-17T12:38:03Z</time>
      </trkpt>
      <trkpt lat="45.28026" lon="6.1776">
        <ele>1640.1</ele>
        <time>2021-02-17T12:38:04Z</time>
      </trkpt>
      <trkpt lat="45.28026" lon="6.17761">
        <ele>1639.9</ele>
        <time>2021-02-17T12:38:05Z</time>
      </trkpt>
      <trkpt lat="45.28026" lon="6.17762">
        <ele>1639.8</ele>
        <time>2021-02-17T12:38:06Z</time>
      </trkpt>
      <trkpt lat="45.28025" lon="6.17763">
        <ele>1639.6</ele>
        <time>2021-02-17T12:38:07Z</time>
      </trkpt>
      <trkpt lat="45.28025" lon="6.17764">
        <ele>1639.5</ele>
        <time>2021-02-17T12:38:08Z</time>
      </trkpt>
      <trkpt lat="45.28025" lon="6.17765">
        <ele>1639.3</ele>
        <time>2021-02-17T12:38:09Z</time>
      </trkpt>
      <trkpt lat="45.28025" lon="6.17766">
        <ele>1639.2</ele>
        <time>2021-02-17T12:38:10Z</time>
      </trkpt>
      <trkpt lat="45.28025" lon="6.17767">
        <ele>1639</ele>
        <time>2021-02-17T12:38:11Z</time>
      </trkpt>
      <trkpt lat="45.28024" lon="6.17767">
        <ele>1638.9</ele>
        <time>2021-02-17T12:40:05Z</time>
      </trkpt>
      <trkpt lat="45.28024" lon="6.17768">
        <ele>1638.8</ele>
        <time>2021-02-17T12:40:06Z</time>
      </trkpt>
      <trkpt lat="45.28024" lon="6.17772">
        <ele>1638.2</ele>
        <time>2021-02-17T12:40:07Z</time>
      </trkpt>
      <trkpt lat="45.28024" lon="6.17777">
        <ele>1637.5</ele>
        <time>2021-02-17T12:40:08Z</time>
      </trkpt>
      <trkpt lat="45.28024" lon="6.17781">
        <ele>1637</ele>
        <time>2021-02-17T12:40:09Z</time>
      </trkpt>
      <trkpt lat="45.28023" lon="6.17785">
        <ele>1636.4</ele>
        <time>2021-02-17T12:40:10Z</time>
      </trkpt>
      <trkpt lat="45.28023" lon="6.1779">
        <ele>1635.8</ele>
        <time>2021-02-17T12:40:11Z</time>
      </trkpt>
      <trkpt lat="45.28022" lon="6.17795">
        <ele>1635.1</ele>
        <time>2021-02-17T12:40:12Z</time>
      </trkpt>
      <trkpt lat="45.28022" lon="6.17802">
        <ele>1634.2</ele>
        <time>2021-02-17T12:40:13Z</time>
      </trkpt>
      <trkpt lat="45.28021" lon="6.17808">
        <ele>1633.5</ele>
        <time>2021-02-17T12:40:14Z</time>
      </trkpt>
      <trkpt lat="45.28021" lon="6.17812">
        <ele>1633</ele>
        <time>2021-02-17T12:40:15Z</time>
      </trkpt>
      <trkpt lat="45.2802" lon="6.17814">
        <ele>1632.8</ele>
        <time>2021-02-17T12:40:16Z</time>
      </trkpt>
      <trkpt lat="45.2802" lon="6.17815">
        <ele>1632.6</ele>
        <time>2021-02-17T12:40:17Z</time>
      </trkpt>
      <trkpt lat="45.2802" lon="6.17815">
        <ele>1632.5</ele>
        <time>2021-02-17T12:40:18Z</time>
      </trkpt>
      <trkpt lat="45.2802" lon="6.17814">
        <ele>1632.4</ele>
        <time>2021-02-17T12:40:19Z</time>
      </trkpt>
      <trkpt lat="45.28019" lon="6.17812">
        <ele>1632.1</ele>
        <time>2021-02-17T12:40:20Z</time>
      </trkpt>
      <trkpt lat="45.28018" lon="6.1781">
        <ele>1631.8</ele>
        <time>2021-02-17T12:40:21Z</time>
      </trkpt>
      <trkpt lat="45.28016" lon="6.17805">
        <ele>1631.2</ele>
        <time>2021-02-17T12:40:22Z</time>
      </trkpt>
      <trkpt lat="45.28014" lon="6.178">
        <ele>1630.4</ele>
        <time>2021-02-17T12:40:23Z</time>
      </trkpt>
      <trkpt lat="45.28012" lon="6.17794">
        <ele>1629.5</ele>
        <time>2021-02-17T12:40:24Z</time>
      </trkpt>
      <trkpt lat="45.28009" lon="6.17789">
        <ele>1628.6</ele>
        <time>2021-02-17T12:40:25Z</time>
      </trkpt>
      <trkpt lat="45.28007" lon="6.17784">
        <ele>1627.9</ele>
        <time>2021-02-17T12:40:26Z</time>
      </trkpt>
      <trkpt lat="45.28005" lon="6.1778">
        <ele>1627.3</ele>
        <time>2021-02-17T12:40:27Z</time>
      </trkpt>
      <trkpt lat="45.28004" lon="6.17776">
        <ele>1626.7</ele>
        <time>2021-02-17T12:40:28Z</time>
      </trkpt>
      <trkpt lat="45.28002" lon="6.17772">
        <ele>1626.1</ele>
        <time>2021-02-17T12:40:29Z</time>
      </trkpt>
      <trkpt lat="45.28001" lon="6.17771">
        <ele>1625.9</ele>
        <time>2021-02-17T12:40:30Z</time>
      </trkpt>
      <trkpt lat="45.27999" lon="6.17767">
        <ele>1625.3</ele>
        <time>2021-02-17T12:40:31Z</time>
      </trkpt>
      <trkpt lat="45.27998" lon="6.17766">
        <ele>1625.1</ele>
        <time>2021-02-17T12:40:32Z</time>
      </trkpt>
      <trkpt lat="45.27998" lon="6.17765">
        <ele>1624.9</ele>
        <time>2021-02-17T12:40:33Z</time>
      </trkpt>
      <trkpt lat="45.27997" lon="6.17764">
        <ele>1624.9</ele>
        <time>2021-02-17T12:40:34Z</time>
      </trkpt>
      <trkpt lat="45.27997" lon="6.17764">
        <ele>1624.8</ele>
        <time>2021-02-17T12:40:35Z</time>
      </trkpt>
      <trkpt lat="45.27997" lon="6.17764">
        <ele>1624.8</ele>
        <time>2021-02-17T12:40:36Z</time>
      </trkpt>
      <trkpt lat="45.27997" lon="6.17763">
        <ele>1624.8</ele>
        <time>2021-02-17T12:40:37Z</time>
      </trkpt>
      <trkpt lat="45.27998" lon="6.17764">
        <ele>1624.7</ele>
        <time>2021-02-17T12:40:38Z</time>
      </trkpt>
      <trkpt lat="45.27998" lon="6.17764">
        <ele>1624.6</ele>
        <time>2021-02-17T12:40:39Z</time>
      </trkpt>
      <trkpt lat="45.27998" lon="6.17765">
        <ele>1624.5</ele>
        <time>2021-02-17T12:40:40Z</time>
      </trkpt>
      <trkpt lat="45.27999" lon="6.17766">
        <ele>1624.4</ele>
        <time>2021-02-17T12:40:41Z</time>
      </trkpt>
      <trkpt lat="45.27999" lon="6.17767">
        <ele>1624.3</ele>
        <time>2021-02-17T12:40:42Z</time>
      </trkpt>
      <trkpt lat="45.27998" lon="6.17768">
        <ele>1624.2</ele>
        <time>2021-02-17T12:40:43Z</time>
      </trkpt>
      <trkpt lat="45.27998" lon="6.17769">
        <ele>1624</ele>
        <time>2021-02-17T12:40:44Z</time>
      </trkpt>
      <trkpt lat="45.27998" lon="6.1777">
        <ele>1623.9</ele>
        <time>2021-02-17T12:40:45Z</time>
      </trkpt>
      <trkpt lat="45.27997" lon="6.17773">
        <ele>1623.5</ele>
        <time>2021-02-17T12:40:46Z</time>
      </trkpt>
      <trkpt lat="45.27996" lon="6.17774">
        <ele>1623.4</ele>
        <time>2021-02-17T12:40:47Z</time>
      </trkpt>
      <trkpt lat="45.27995" lon="6.17775">
        <ele>1623.2</ele>
        <time>2021-02-17T12:40:48Z</time>
      </trkpt>
      <trkpt lat="45.27994" lon="6.17779">
        <ele>1622.8</ele>
        <time>2021-02-17T12:40:49Z</time>
      </trkpt>
      <trkpt lat="45.27994" lon="6.1778">
        <ele>1622.6</ele>
        <time>2021-02-17T12:40:50Z</time>
      </trkpt>
      <trkpt lat="45.27993" lon="6.17784">
        <ele>1622.3</ele>
        <time>2021-02-17T12:40:51Z</time>
      </trkpt>
      <trkpt lat="45.27992" lon="6.17789">
        <ele>1621.7</ele>
        <time>2021-02-17T12:40:52Z</time>
      </trkpt>
      <trkpt lat="45.27991" lon="6.17796">
        <ele>1621.1</ele>
        <time>2021-02-17T12:40:53Z</time>
      </trkpt>
      <trkpt lat="45.27991" lon="6.17803">
        <ele>1620.4</ele>
        <time>2021-02-17T12:40:54Z</time>
      </trkpt>
      <trkpt lat="45.2799" lon="6.1781">
        <ele>1619.8</ele>
        <time>2021-02-17T12:40:55Z</time>
      </trkpt>
      <trkpt lat="45.2799" lon="6.17816">
        <ele>1619.3</ele>
        <time>2021-02-17T12:40:56Z</time>
      </trkpt>
      <trkpt lat="45.2799" lon="6.17823">
        <ele>1618.7</ele>
        <time>2021-02-17T12:40:57Z</time>
      </trkpt>
      <trkpt lat="45.2799" lon="6.17829">
        <ele>1618.2</ele>
        <time>2021-02-17T12:40:58Z</time>
      </trkpt>
      <trkpt lat="45.27991" lon="6.17835">
        <ele>1617.6</ele>
        <time>2021-02-17T12:40:59Z</time>
      </trkpt>
      <trkpt lat="45.27991" lon="6.1784">
        <ele>1617.2</ele>
        <time>2021-02-17T12:41:00Z</time>
      </trkpt>
      <trkpt lat="45.2799" lon="6.17846">
        <ele>1616.7</ele>
        <time>2021-02-17T12:41:01Z</time>
      </trkpt>
      <trkpt lat="45.27989" lon="6.17852">
        <ele>1616.1</ele>
        <time>2021-02-17T12:41:02Z</time>
      </trkpt>
      <trkpt lat="45.27985" lon="6.17859">
        <ele>1615.1</ele>
        <time>2021-02-17T12:41:03Z</time>
      </trkpt>
      <trkpt lat="45.27982" lon="6.17865">
        <ele>1614.4</ele>
        <time>2021-02-17T12:41:04Z</time>
      </trkpt>
      <trkpt lat="45.27979" lon="6.17873">
        <ele>1613.4</ele>
        <time>2021-02-17T12:41:05Z</time>
      </trkpt>
      <trkpt lat="45.2798" lon="6.17879">
        <ele>1612.9</ele>
        <time>2021-02-17T12:41:06Z</time>
      </trkpt>
      <trkpt lat="45.2798" lon="6.17884">
        <ele>1612.3</ele>
        <time>2021-02-17T12:41:07Z</time>
      </trkpt>
      <trkpt lat="45.27979" lon="6.17889">
        <ele>1611.9</ele>
        <time>2021-02-17T12:41:08Z</time>
      </trkpt>
      <trkpt lat="45.27979" lon="6.17895">
        <ele>1611.2</ele>
        <time>2021-02-17T12:41:09Z</time>
      </trkpt>
      <trkpt lat="45.27978" lon="6.179">
        <ele>1610.7</ele>
        <time>2021-02-17T12:41:10Z</time>
      </trkpt>
      <trkpt lat="45.27978" lon="6.17904">
        <ele>1610.3</ele>
        <time>2021-02-17T12:41:11Z</time>
      </trkpt>
      <trkpt lat="45.27977" lon="6.17909">
        <ele>1609.8</ele>
        <time>2021-02-17T12:41:12Z</time>
      </trkpt>
      <trkpt lat="45.27977" lon="6.17913">
        <ele>1609.3</ele>
        <time>2021-02-17T12:41:13Z</time>
      </trkpt>
      <trkpt lat="45.27977" lon="6.17917">
        <ele>1608.9</ele>
        <time>2021-02-17T12:41:14Z</time>
      </trkpt>
      <trkpt lat="45.27978" lon="6.17922">
        <ele>1608.3</ele>
        <time>2021-02-17T12:41:15Z</time>
      </trkpt>
      <trkpt lat="45.27978" lon="6.17924">
        <ele>1608</ele>
        <time>2021-02-17T12:41:16Z</time>
      </trkpt>
      <trkpt lat="45.27978" lon="6.1793">
        <ele>1607.5</ele>
        <time>2021-02-17T12:41:17Z</time>
      </trkpt>
      <trkpt lat="45.27978" lon="6.17934">
        <ele>1607.1</ele>
        <time>2021-02-17T12:41:18Z</time>
      </trkpt>
      <trkpt lat="45.27978" lon="6.17937">
        <ele>1606.6</ele>
        <time>2021-02-17T12:41:19Z</time>
      </trkpt>
      <trkpt lat="45.27978" lon="6.17941">
        <ele>1606.2</ele>
        <time>2021-02-17T12:41:20Z</time>
      </trkpt>
      <trkpt lat="45.27979" lon="6.17946">
        <ele>1605.8</ele>
        <time>2021-02-17T12:41:21Z</time>
      </trkpt>
      <trkpt lat="45.27978" lon="6.17952">
        <ele>1605.1</ele>
        <time>2021-02-17T12:41:22Z</time>
      </trkpt>
      <trkpt lat="45.27978" lon="6.17961">
        <ele>1604.2</ele>
        <time>2021-02-17T12:41:23Z</time>
      </trkpt>
      <trkpt lat="45.27978" lon="6.1797">
        <ele>1603.2</ele>
        <time>2021-02-17T12:41:24Z</time>
      </trkpt>
      <trkpt lat="45.27978" lon="6.17979">
        <ele>1602.3</ele>
        <time>2021-02-17T12:41:25Z</time>
      </trkpt>
      <trkpt lat="45.27979" lon="6.17984">
        <ele>1601.6</ele>
        <time>2021-02-17T12:41:26Z</time>
      </trkpt>
      <trkpt lat="45.27979" lon="6.1799">
        <ele>1601</ele>
        <time>2021-02-17T12:41:27Z</time>
      </trkpt>
      <trkpt lat="45.27978" lon="6.17998">
        <ele>1600.2</ele>
        <time>2021-02-17T12:41:28Z</time>
      </trkpt>
      <trkpt lat="45.27976" lon="6.18007">
        <ele>1599.2</ele>
        <time>2021-02-17T12:41:29Z</time>
      </trkpt>
      <trkpt lat="45.27978" lon="6.18002">
        <ele>1598.5</ele>
        <time>2021-02-17T12:41:30Z</time>
      </trkpt>
      <trkpt lat="45.27979" lon="6.18006">
        <ele>1598</ele>
        <time>2021-02-17T12:41:31Z</time>
      </trkpt>
      <trkpt lat="45.27979" lon="6.18008">
        <ele>1597.8</ele>
        <time>2021-02-17T12:41:32Z</time>
      </trkpt>
      <trkpt lat="45.27981" lon="6.18008">
        <ele>1597.6</ele>
        <time>2021-02-17T12:41:33Z</time>
      </trkpt>
      <trkpt lat="45.27981" lon="6.18008">
        <ele>1597.6</ele>
        <time>2021-02-17T12:41:34Z</time>
      </trkpt>
      <trkpt lat="45.27981" lon="6.18008">
        <ele>1597.6</ele>
        <time>2021-02-17T12:41:35Z</time>
      </trkpt>
      <trkpt lat="45.27981" lon="6.18008">
        <ele>1597.6</ele>
        <time>2021-02-17T12:41:36Z</time>
      </trkpt>
      <trkpt lat="45.27981" lon="6.18008">
        <ele>1597.6</ele>
        <time>2021-02-17T12:41:37Z</time>
      </trkpt>
      <trkpt lat="45.27981" lon="6.18008">
        <ele>1597.6</ele>
        <time>2021-02-17T12:41:38Z</time>
      </trkpt>
      <trkpt lat="45.27981" lon="6.18008">
        <ele>1597.6</ele>
        <time>2021-02-17T12:41:39Z</time>
      </trkpt>
      <trkpt lat="45.27981" lon="6.18008">
        <ele>1597.6</ele>
        <time>2021-02-17T12:41:40Z</time>
      </trkpt>
      <trkpt lat="45.27981" lon="6.18008">
        <ele>1597.6</ele>
        <time>2021-02-17T12:41:41Z</time>
      </trkpt>
      <trkpt lat="45.27981" lon="6.18008">
        <ele>1597.6</ele>
        <time>2021-02-17T12:41:42Z</time>
      </trkpt>
      <trkpt lat="45.27981" lon="6.18008">
        <ele>1597.6</ele>
        <time>2021-02-17T12:41:43Z</time>
      </trkpt>
      <trkpt lat="45.27981" lon="6.18008">
        <ele>1597.6</ele>
        <time>2021-02-17T12:41:44Z</time>
      </trkpt>
      <trkpt lat="45.27979" lon="6.18018">
        <ele>1596.4</ele>
        <time>2021-02-17T12:41:50Z</time>
      </trkpt>
      <trkpt lat="45.27979" lon="6.18024">
        <ele>1595.7</ele>
        <time>2021-02-17T12:41:51Z</time>
      </trkpt>
      <trkpt lat="45.27981" lon="6.1803">
        <ele>1594.9</ele>
        <time>2021-02-17T12:41:52Z</time>
      </trkpt>
      <trkpt lat="45.27982" lon="6.18036">
        <ele>1594.2</ele>
        <time>2021-02-17T12:41:53Z</time>
      </trkpt>
      <trkpt lat="45.27984" lon="6.18041">
        <ele>1593.6</ele>
        <time>2021-02-17T12:41:54Z</time>
      </trkpt>
      <trkpt lat="45.27985" lon="6.18046">
        <ele>1593.1</ele>
        <time>2021-02-17T12:41:55Z</time>
      </trkpt>
      <trkpt lat="45.27986" lon="6.18051">
        <ele>1592.5</ele>
        <time>2021-02-17T12:41:56Z</time>
      </trkpt>
      <trkpt lat="45.27987" lon="6.18055">
        <ele>1592.1</ele>
        <time>2021-02-17T12:41:57Z</time>
      </trkpt>
      <trkpt lat="45.27988" lon="6.18059">
        <ele>1591.7</ele>
        <time>2021-02-17T12:41:58Z</time>
      </trkpt>
      <trkpt lat="45.2799" lon="6.18064">
        <ele>1591.1</ele>
        <time>2021-02-17T12:41:59Z</time>
      </trkpt>
      <trkpt lat="45.2799" lon="6.18066">
        <ele>1591</ele>
        <time>2021-02-17T12:42:00Z</time>
      </trkpt>
      <trkpt lat="45.27991" lon="6.1807">
        <ele>1590.5</ele>
        <time>2021-02-17T12:42:01Z</time>
      </trkpt>
      <trkpt lat="45.27993" lon="6.18077">
        <ele>1589.9</ele>
        <time>2021-02-17T12:42:02Z</time>
      </trkpt>
      <trkpt lat="45.27993" lon="6.18081">
        <ele>1589.6</ele>
        <time>2021-02-17T12:42:03Z</time>
      </trkpt>
      <trkpt lat="45.27994" lon="6.18087">
        <ele>1589.2</ele>
        <time>2021-02-17T12:42:04Z</time>
      </trkpt>
      <trkpt lat="45.27994" lon="6.18092">
        <ele>1588.8</ele>
        <time>2021-02-17T12:42:05Z</time>
      </trkpt>
      <trkpt lat="45.27995" lon="6.18098">
        <ele>1588.4</ele>
        <time>2021-02-17T12:42:06Z</time>
      </trkpt>
      <trkpt lat="45.27995" lon="6.18105">
        <ele>1588</ele>
        <time>2021-02-17T12:42:07Z</time>
      </trkpt>
      <trkpt lat="45.27995" lon="6.18112">
        <ele>1587.5</ele>
        <time>2021-02-17T12:42:08Z</time>
      </trkpt>
      <trkpt lat="45.27996" lon="6.18118">
        <ele>1587</ele>
        <time>2021-02-17T12:42:09Z</time>
      </trkpt>
      <trkpt lat="45.27997" lon="6.18122">
        <ele>1586.7</ele>
        <time>2021-02-17T12:42:10Z</time>
      </trkpt>
      <trkpt lat="45.27997" lon="6.18124">
        <ele>1586.6</ele>
        <time>2021-02-17T12:42:11Z</time>
      </trkpt>
      <trkpt lat="45.27997" lon="6.18126">
        <ele>1586.4</ele>
        <time>2021-02-17T12:42:12Z</time>
      </trkpt>
      <trkpt lat="45.27997" lon="6.18128">
        <ele>1586.2</ele>
        <time>2021-02-17T12:42:13Z</time>
      </trkpt>
      <trkpt lat="45.27997" lon="6.1813">
        <ele>1586.1</ele>
        <time>2021-02-17T12:42:14Z</time>
      </trkpt>
      <trkpt lat="45.27996" lon="6.18132">
        <ele>1585.9</ele>
        <time>2021-02-17T12:42:15Z</time>
      </trkpt>
      <trkpt lat="45.27996" lon="6.18134">
        <ele>1585.7</ele>
        <time>2021-02-17T12:42:16Z</time>
      </trkpt>
      <trkpt lat="45.27996" lon="6.18138">
        <ele>1585.3</ele>
        <time>2021-02-17T12:42:17Z</time>
      </trkpt>
      <trkpt lat="45.27996" lon="6.1814">
        <ele>1585.1</ele>
        <time>2021-02-17T12:42:18Z</time>
      </trkpt>
      <trkpt lat="45.27995" lon="6.18144">
        <ele>1584.7</ele>
        <time>2021-02-17T12:42:19Z</time>
      </trkpt>
      <trkpt lat="45.27995" lon="6.18149">
        <ele>1584.2</ele>
        <time>2021-02-17T12:42:20Z</time>
      </trkpt>
      <trkpt lat="45.27995" lon="6.1815">
        <ele>1584</ele>
        <time>2021-02-17T12:42:21Z</time>
      </trkpt>
      <trkpt lat="45.27995" lon="6.18153">
        <ele>1583.7</ele>
        <time>2021-02-17T12:42:22Z</time>
      </trkpt>
      <trkpt lat="45.27995" lon="6.18153">
        <ele>1583.6</ele>
        <time>2021-02-17T12:42:23Z</time>
      </trkpt>
      <trkpt lat="45.27995" lon="6.18154">
        <ele>1583.6</ele>
        <time>2021-02-17T12:42:24Z</time>
      </trkpt>
      <trkpt lat="45.27995" lon="6.18154">
        <ele>1583.5</ele>
        <time>2021-02-17T12:42:25Z</time>
      </trkpt>
      <trkpt lat="45.27995" lon="6.18154">
        <ele>1583.5</ele>
        <time>2021-02-17T12:42:26Z</time>
      </trkpt>
      <trkpt lat="45.27995" lon="6.18155">
        <ele>1583.4</ele>
        <time>2021-02-17T12:42:27Z</time>
      </trkpt>
      <trkpt lat="45.27995" lon="6.18155">
        <ele>1583.4</ele>
        <time>2021-02-17T12:42:28Z</time>
      </trkpt>
      <trkpt lat="45.27995" lon="6.18156">
        <ele>1583.3</ele>
        <time>2021-02-17T12:42:29Z</time>
      </trkpt>
      <trkpt lat="45.27995" lon="6.18156">
        <ele>1583.3</ele>
        <time>2021-02-17T12:42:30Z</time>
      </trkpt>
      <trkpt lat="45.27995" lon="6.18157">
        <ele>1583.2</ele>
        <time>2021-02-17T12:42:31Z</time>
      </trkpt>
      <trkpt lat="45.27995" lon="6.18157">
        <ele>1583.2</ele>
        <time>2021-02-17T12:42:32Z</time>
      </trkpt>
      <trkpt lat="45.27995" lon="6.18157">
        <ele>1583.1</ele>
        <time>2021-02-17T12:42:33Z</time>
      </trkpt>
      <trkpt lat="45.27995" lon="6.18158">
        <ele>1583.1</ele>
        <time>2021-02-17T12:42:34Z</time>
      </trkpt>
      <trkpt lat="45.27995" lon="6.18158">
        <ele>1583</ele>
        <time>2021-02-17T12:45:01Z</time>
      </trkpt>
      <trkpt lat="45.27994" lon="6.18159">
        <ele>1582.9</ele>
        <time>2021-02-17T12:45:02Z</time>
      </trkpt>
      <trkpt lat="45.27996" lon="6.18164">
        <ele>1582.2</ele>
        <time>2021-02-17T12:45:03Z</time>
      </trkpt>
      <trkpt lat="45.27997" lon="6.18166">
        <ele>1582</ele>
        <time>2021-02-17T12:45:04Z</time>
      </trkpt>
      <trkpt lat="45.27998" lon="6.1817">
        <ele>1581.4</ele>
        <time>2021-02-17T12:45:05Z</time>
      </trkpt>
      <trkpt lat="45.27999" lon="6.18175">
        <ele>1580.7</ele>
        <time>2021-02-17T12:45:06Z</time>
      </trkpt>
      <trkpt lat="45.28001" lon="6.18181">
        <ele>1579.9</ele>
        <time>2021-02-17T12:45:07Z</time>
      </trkpt>
      <trkpt lat="45.28003" lon="6.18187">
        <ele>1579.1</ele>
        <time>2021-02-17T12:45:08Z</time>
      </trkpt>
      <trkpt lat="45.28004" lon="6.18191">
        <ele>1578.5</ele>
        <time>2021-02-17T12:45:09Z</time>
      </trkpt>
      <trkpt lat="45.28006" lon="6.18194">
        <ele>1577.9</ele>
        <time>2021-02-17T12:45:10Z</time>
      </trkpt>
      <trkpt lat="45.28007" lon="6.18196">
        <ele>1577.7</ele>
        <time>2021-02-17T12:45:11Z</time>
      </trkpt>
      <trkpt lat="45.28009" lon="6.182">
        <ele>1576.9</ele>
        <time>2021-02-17T12:45:12Z</time>
      </trkpt>
      <trkpt lat="45.2801" lon="6.18202">
        <ele>1576.7</ele>
        <time>2021-02-17T12:45:13Z</time>
      </trkpt>
      <trkpt lat="45.28011" lon="6.18206">
        <ele>1576</ele>
        <time>2021-02-17T12:45:14Z</time>
      </trkpt>
      <trkpt lat="45.28012" lon="6.18211">
        <ele>1575.3</ele>
        <time>2021-02-17T12:45:15Z</time>
      </trkpt>
      <trkpt lat="45.28013" lon="6.18216">
        <ele>1574.5</ele>
        <time>2021-02-17T12:45:16Z</time>
      </trkpt>
      <trkpt lat="45.28013" lon="6.18223">
        <ele>1573.6</ele>
        <time>2021-02-17T12:45:17Z</time>
      </trkpt>
      <trkpt lat="45.28011" lon="6.1823">
        <ele>1572.5</ele>
        <time>2021-02-17T12:45:18Z</time>
      </trkpt>
      <trkpt lat="45.28011" lon="6.18238">
        <ele>1571.6</ele>
        <time>2021-02-17T12:45:19Z</time>
      </trkpt>
      <trkpt lat="45.2801" lon="6.18243">
        <ele>1570.9</ele>
        <time>2021-02-17T12:45:20Z</time>
      </trkpt>
      <trkpt lat="45.2801" lon="6.1825">
        <ele>1570.2</ele>
        <time>2021-02-17T12:45:21Z</time>
      </trkpt>
      <trkpt lat="45.2801" lon="6.18257">
        <ele>1569.5</ele>
        <time>2021-02-17T12:45:22Z</time>
      </trkpt>
      <trkpt lat="45.28009" lon="6.18262">
        <ele>1569</ele>
        <time>2021-02-17T12:45:23Z</time>
      </trkpt>
      <trkpt lat="45.28008" lon="6.18267">
        <ele>1568.5</ele>
        <time>2021-02-17T12:45:24Z</time>
      </trkpt>
      <trkpt lat="45.28007" lon="6.1827">
        <ele>1568.3</ele>
        <time>2021-02-17T12:45:25Z</time>
      </trkpt>
      <trkpt lat="45.28005" lon="6.18279">
        <ele>1567.7</ele>
        <time>2021-02-17T12:45:26Z</time>
      </trkpt>
      <trkpt lat="45.28002" lon="6.18284">
        <ele>1567.3</ele>
        <time>2021-02-17T12:45:27Z</time>
      </trkpt>
      <trkpt lat="45.27998" lon="6.18291">
        <ele>1566.8</ele>
        <time>2021-02-17T12:45:28Z</time>
      </trkpt>
      <trkpt lat="45.27994" lon="6.18297">
        <ele>1566.3</ele>
        <time>2021-02-17T12:45:29Z</time>
      </trkpt>
      <trkpt lat="45.2799" lon="6.18302">
        <ele>1565.7</ele>
        <time>2021-02-17T12:45:30Z</time>
      </trkpt>
      <trkpt lat="45.27987" lon="6.18308">
        <ele>1565.1</ele>
        <time>2021-02-17T12:45:31Z</time>
      </trkpt>
      <trkpt lat="45.27985" lon="6.18311">
        <ele>1564.8</ele>
        <time>2021-02-17T12:45:32Z</time>
      </trkpt>
      <trkpt lat="45.27982" lon="6.18315">
        <ele>1564.3</ele>
        <time>2021-02-17T12:45:33Z</time>
      </trkpt>
      <trkpt lat="45.27979" lon="6.18319">
        <ele>1563.7</ele>
        <time>2021-02-17T12:45:34Z</time>
      </trkpt>
      <trkpt lat="45.27976" lon="6.18321">
        <ele>1563.2</ele>
        <time>2021-02-17T12:45:35Z</time>
      </trkpt>
      <trkpt lat="45.27973" lon="6.18323">
        <ele>1562.8</ele>
        <time>2021-02-17T12:45:36Z</time>
      </trkpt>
      <trkpt lat="45.27973" lon="6.18329">
        <ele>1562.1</ele>
        <time>2021-02-17T12:45:37Z</time>
      </trkpt>
      <trkpt lat="45.27973" lon="6.18336">
        <ele>1561.3</ele>
        <time>2021-02-17T12:45:38Z</time>
      </trkpt>
      <trkpt lat="45.27971" lon="6.18342">
        <ele>1560.6</ele>
        <time>2021-02-17T12:45:39Z</time>
      </trkpt>
      <trkpt lat="45.2797" lon="6.18347">
        <ele>1560.4</ele>
        <time>2021-02-17T12:45:40Z</time>
      </trkpt>
      <trkpt lat="45.27969" lon="6.18352">
        <ele>1560.2</ele>
        <time>2021-02-17T12:45:41Z</time>
      </trkpt>
      <trkpt lat="45.27968" lon="6.18357">
        <ele>1559.9</ele>
        <time>2021-02-17T12:45:42Z</time>
      </trkpt>
      <trkpt lat="45.27967" lon="6.18363">
        <ele>1559.7</ele>
        <time>2021-02-17T12:45:43Z</time>
      </trkpt>
      <trkpt lat="45.27967" lon="6.18368">
        <ele>1559.4</ele>
        <time>2021-02-17T12:45:44Z</time>
      </trkpt>
      <trkpt lat="45.27966" lon="6.18374">
        <ele>1559.2</ele>
        <time>2021-02-17T12:45:45Z</time>
      </trkpt>
      <trkpt lat="45.27965" lon="6.18378">
        <ele>1559</ele>
        <time>2021-02-17T12:45:46Z</time>
      </trkpt>
      <trkpt lat="45.27964" lon="6.18381">
        <ele>1558.8</ele>
        <time>2021-02-17T12:45:47Z</time>
      </trkpt>
      <trkpt lat="45.27963" lon="6.1838">
        <ele>1558.8</ele>
        <time>2021-02-17T12:45:48Z</time>
      </trkpt>
      <trkpt lat="45.27963" lon="6.18379">
        <ele>1558.7</ele>
        <time>2021-02-17T12:45:49Z</time>
      </trkpt>
      <trkpt lat="45.27962" lon="6.18375">
        <ele>1558.5</ele>
        <time>2021-02-17T12:45:50Z</time>
      </trkpt>
      <trkpt lat="45.27961" lon="6.1837">
        <ele>1558.2</ele>
        <time>2021-02-17T12:45:51Z</time>
      </trkpt>
      <trkpt lat="45.27961" lon="6.18364">
        <ele>1557.9</ele>
        <time>2021-02-17T12:45:52Z</time>
      </trkpt>
      <trkpt lat="45.27962" lon="6.1836">
        <ele>1557.6</ele>
        <time>2021-02-17T12:45:53Z</time>
      </trkpt>
      <trkpt lat="45.27962" lon="6.18357">
        <ele>1557.5</ele>
        <time>2021-02-17T12:45:54Z</time>
      </trkpt>
      <trkpt lat="45.27961" lon="6.18356">
        <ele>1557.4</ele>
        <time>2021-02-17T12:45:55Z</time>
      </trkpt>
      <trkpt lat="45.27959" lon="6.18358">
        <ele>1557.2</ele>
        <time>2021-02-17T12:45:56Z</time>
      </trkpt>
      <trkpt lat="45.27957" lon="6.18362">
        <ele>1556.9</ele>
        <time>2021-02-17T12:45:57Z</time>
      </trkpt>
      <trkpt lat="45.27956" lon="6.18368">
        <ele>1556.5</ele>
        <time>2021-02-17T12:45:58Z</time>
      </trkpt>
      <trkpt lat="45.27956" lon="6.18375">
        <ele>1556.2</ele>
        <time>2021-02-17T12:45:59Z</time>
      </trkpt>
      <trkpt lat="45.27955" lon="6.18381">
        <ele>1555.7</ele>
        <time>2021-02-17T12:46:00Z</time>
      </trkpt>
      <trkpt lat="45.27954" lon="6.18387">
        <ele>1555.4</ele>
        <time>2021-02-17T12:46:01Z</time>
      </trkpt>
      <trkpt lat="45.27954" lon="6.18391">
        <ele>1555.1</ele>
        <time>2021-02-17T12:46:02Z</time>
      </trkpt>
      <trkpt lat="45.27952" lon="6.18397">
        <ele>1554.7</ele>
        <time>2021-02-17T12:46:03Z</time>
      </trkpt>
      <trkpt lat="45.27952" lon="6.18398">
        <ele>1554.6</ele>
        <time>2021-02-17T12:46:04Z</time>
      </trkpt>
      <trkpt lat="45.2795" lon="6.18403">
        <ele>1554.3</ele>
        <time>2021-02-17T12:46:05Z</time>
      </trkpt>
      <trkpt lat="45.27947" lon="6.18405">
        <ele>1554</ele>
        <time>2021-02-17T12:46:06Z</time>
      </trkpt>
      <trkpt lat="45.27944" lon="6.18397">
        <ele>1553.3</ele>
        <time>2021-02-17T12:46:07Z</time>
      </trkpt>
      <trkpt lat="45.27943" lon="6.18389">
        <ele>1553.1</ele>
        <time>2021-02-17T12:46:08Z</time>
      </trkpt>
      <trkpt lat="45.27941" lon="6.18384">
        <ele>1552.4</ele>
        <time>2021-02-17T12:46:09Z</time>
      </trkpt>
      <trkpt lat="45.27943" lon="6.18378">
        <ele>1551.8</ele>
        <time>2021-02-17T12:46:10Z</time>
      </trkpt>
      <trkpt lat="45.27941" lon="6.18378">
        <ele>1551.5</ele>
        <time>2021-02-17T12:46:11Z</time>
      </trkpt>
      <trkpt lat="45.2794" lon="6.18379">
        <ele>1551.3</ele>
        <time>2021-02-17T12:46:12Z</time>
      </trkpt>
      <trkpt lat="45.27939" lon="6.18379">
        <ele>1551.1</ele>
        <time>2021-02-17T12:46:13Z</time>
      </trkpt>
      <trkpt lat="45.27938" lon="6.1838">
        <ele>1550.9</ele>
        <time>2021-02-17T12:46:14Z</time>
      </trkpt>
      <trkpt lat="45.27937" lon="6.1838">
        <ele>1550.7</ele>
        <time>2021-02-17T12:46:15Z</time>
      </trkpt>
      <trkpt lat="45.27936" lon="6.18381">
        <ele>1550.5</ele>
        <time>2021-02-17T12:46:16Z</time>
      </trkpt>
      <trkpt lat="45.27934" lon="6.18386">
        <ele>1549.7</ele>
        <time>2021-02-17T12:46:17Z</time>
      </trkpt>
      <trkpt lat="45.27928" lon="6.18391">
        <ele>1548.3</ele>
        <time>2021-02-17T12:46:18Z</time>
      </trkpt>
      <trkpt lat="45.27926" lon="6.18396">
        <ele>1547.5</ele>
        <time>2021-02-17T12:46:19Z</time>
      </trkpt>
      <trkpt lat="45.27925" lon="6.18401">
        <ele>1546.8</ele>
        <time>2021-02-17T12:46:20Z</time>
      </trkpt>
      <trkpt lat="45.27923" lon="6.18405">
        <ele>1546</ele>
        <time>2021-02-17T12:46:21Z</time>
      </trkpt>
      <trkpt lat="45.27922" lon="6.1841">
        <ele>1545.2</ele>
        <time>2021-02-17T12:46:22Z</time>
      </trkpt>
      <trkpt lat="45.27919" lon="6.18416">
        <ele>1544.2</ele>
        <time>2021-02-17T12:46:23Z</time>
      </trkpt>
      <trkpt lat="45.27917" lon="6.1842">
        <ele>1543.4</ele>
        <time>2021-02-17T12:46:24Z</time>
      </trkpt>
      <trkpt lat="45.27916" lon="6.18425">
        <ele>1542.7</ele>
        <time>2021-02-17T12:46:25Z</time>
      </trkpt>
      <trkpt lat="45.27914" lon="6.18428">
        <ele>1542</ele>
        <time>2021-02-17T12:46:26Z</time>
      </trkpt>
      <trkpt lat="45.27912" lon="6.18432">
        <ele>1541.2</ele>
        <time>2021-02-17T12:46:27Z</time>
      </trkpt>
      <trkpt lat="45.27912" lon="6.18433">
        <ele>1541</ele>
        <time>2021-02-17T12:46:28Z</time>
      </trkpt>
      <trkpt lat="45.2791" lon="6.18434">
        <ele>1540.6</ele>
        <time>2021-02-17T12:46:29Z</time>
      </trkpt>
      <trkpt lat="45.27908" lon="6.18433">
        <ele>1540.2</ele>
        <time>2021-02-17T12:46:30Z</time>
      </trkpt>
      <trkpt lat="45.27905" lon="6.1843">
        <ele>1539.3</ele>
        <time>2021-02-17T12:46:31Z</time>
      </trkpt>
      <trkpt lat="45.27904" lon="6.18429">
        <ele>1539</ele>
        <time>2021-02-17T12:46:32Z</time>
      </trkpt>
      <trkpt lat="45.27902" lon="6.18429">
        <ele>1538.7</ele>
        <time>2021-02-17T12:46:33Z</time>
      </trkpt>
      <trkpt lat="45.27902" lon="6.18429">
        <ele>1538.5</ele>
        <time>2021-02-17T12:46:34Z</time>
      </trkpt>
      <trkpt lat="45.27902" lon="6.18432">
        <ele>1538</ele>
        <time>2021-02-17T12:46:35Z</time>
      </trkpt>
      <trkpt lat="45.27904" lon="6.18437">
        <ele>1537.2</ele>
        <time>2021-02-17T12:46:36Z</time>
      </trkpt>
      <trkpt lat="45.27904" lon="6.18438">
        <ele>1537</ele>
        <time>2021-02-17T12:46:37Z</time>
      </trkpt>
      <trkpt lat="45.27905" lon="6.1844">
        <ele>1536.7</ele>
        <time>2021-02-17T12:46:38Z</time>
      </trkpt>
      <trkpt lat="45.27906" lon="6.18441">
        <ele>1536.4</ele>
        <time>2021-02-17T12:46:39Z</time>
      </trkpt>
      <trkpt lat="45.27907" lon="6.18443">
        <ele>1536.2</ele>
        <time>2021-02-17T12:46:40Z</time>
      </trkpt>
      <trkpt lat="45.27908" lon="6.18444">
        <ele>1535.8</ele>
        <time>2021-02-17T12:46:41Z</time>
      </trkpt>
      <trkpt lat="45.27909" lon="6.18446">
        <ele>1535.5</ele>
        <time>2021-02-17T12:46:42Z</time>
      </trkpt>
      <trkpt lat="45.27909" lon="6.18446">
        <ele>1535.4</ele>
        <time>2021-02-17T12:46:43Z</time>
      </trkpt>
      <trkpt lat="45.27909" lon="6.18446">
        <ele>1535.4</ele>
        <time>2021-02-17T12:46:44Z</time>
      </trkpt>
      <trkpt lat="45.27909" lon="6.18446">
        <ele>1535.4</ele>
        <time>2021-02-17T12:46:45Z</time>
      </trkpt>
      <trkpt lat="45.27908" lon="6.18445">
        <ele>1535.2</ele>
        <time>2021-02-17T12:46:46Z</time>
      </trkpt>
      <trkpt lat="45.27908" lon="6.18445">
        <ele>1535.2</ele>
        <time>2021-02-17T12:46:47Z</time>
      </trkpt>
      <trkpt lat="45.27908" lon="6.18444">
        <ele>1535</ele>
        <time>2021-02-17T12:46:48Z</time>
      </trkpt>
      <trkpt lat="45.27909" lon="6.18443">
        <ele>1534.9</ele>
        <time>2021-02-17T12:46:49Z</time>
      </trkpt>
      <trkpt lat="45.27909" lon="6.18442">
        <ele>1534.7</ele>
        <time>2021-02-17T12:46:50Z</time>
      </trkpt>
      <trkpt lat="45.2791" lon="6.18442">
        <ele>1534.6</ele>
        <time>2021-02-17T12:46:51Z</time>
      </trkpt>
      <trkpt lat="45.2791" lon="6.18441">
        <ele>1534.6</ele>
        <time>2021-02-17T12:46:52Z</time>
      </trkpt>
      <trkpt lat="45.27906" lon="6.18441">
        <ele>1533.8</ele>
        <time>2021-02-17T12:47:48Z</time>
      </trkpt>
      <trkpt lat="45.27905" lon="6.1844">
        <ele>1533.7</ele>
        <time>2021-02-17T12:47:49Z</time>
      </trkpt>
      <trkpt lat="45.27904" lon="6.18439">
        <ele>1533.5</ele>
        <time>2021-02-17T12:47:50Z</time>
      </trkpt>
      <trkpt lat="45.27904" lon="6.18438">
        <ele>1533.3</ele>
        <time>2021-02-17T12:47:51Z</time>
      </trkpt>
      <trkpt lat="45.27903" lon="6.18438">
        <ele>1533.2</ele>
        <time>2021-02-17T12:47:52Z</time>
      </trkpt>
      <trkpt lat="45.27903" lon="6.18438">
        <ele>1533.1</ele>
        <time>2021-02-17T12:47:53Z</time>
      </trkpt>
      <trkpt lat="45.27902" lon="6.18438">
        <ele>1533.1</ele>
        <time>2021-02-17T12:47:54Z</time>
      </trkpt>
      <trkpt lat="45.27902" lon="6.18438">
        <ele>1533</ele>
        <time>2021-02-17T12:47:55Z</time>
      </trkpt>
      <trkpt lat="45.27902" lon="6.18439">
        <ele>1533</ele>
        <time>2021-02-17T12:47:56Z</time>
      </trkpt>
      <trkpt lat="45.27901" lon="6.1844">
        <ele>1532.9</ele>
        <time>2021-02-17T12:47:57Z</time>
      </trkpt>
      <trkpt lat="45.27901" lon="6.1844">
        <ele>1532.8</ele>
        <time>2021-02-17T12:47:58Z</time>
      </trkpt>
      <trkpt lat="45.27901" lon="6.18439">
        <ele>1532.8</ele>
        <time>2021-02-17T12:47:59Z</time>
      </trkpt>
      <trkpt lat="45.27901" lon="6.18439">
        <ele>1532.8</ele>
        <time>2021-02-17T12:48:00Z</time>
      </trkpt>
      <trkpt lat="45.27901" lon="6.1844">
        <ele>1532.7</ele>
        <time>2021-02-17T12:48:01Z</time>
      </trkpt>
      <trkpt lat="45.279" lon="6.1844">
        <ele>1532.6</ele>
        <time>2021-02-17T12:48:02Z</time>
      </trkpt>
      <trkpt lat="45.279" lon="6.1844">
        <ele>1532.5</ele>
        <time>2021-02-17T12:48:03Z</time>
      </trkpt>
      <trkpt lat="45.27899" lon="6.1844">
        <ele>1532.4</ele>
        <time>2021-02-17T12:48:04Z</time>
      </trkpt>
      <trkpt lat="45.27899" lon="6.1844">
        <ele>1532.3</ele>
        <time>2021-02-17T12:48:05Z</time>
      </trkpt>
      <trkpt lat="45.27895" lon="6.18441">
        <ele>1531.6</ele>
        <time>2021-02-17T12:48:11Z</time>
      </trkpt>
      <trkpt lat="45.27894" lon="6.18441">
        <ele>1531.4</ele>
        <time>2021-02-17T12:48:12Z</time>
      </trkpt>
      <trkpt lat="45.27893" lon="6.18441">
        <ele>1531.3</ele>
        <time>2021-02-17T12:48:13Z</time>
      </trkpt>
      <trkpt lat="45.27892" lon="6.18442">
        <ele>1531.1</ele>
        <time>2021-02-17T12:48:14Z</time>
      </trkpt>
      <trkpt lat="45.2789" lon="6.18443">
        <ele>1530.7</ele>
        <time>2021-02-17T12:48:15Z</time>
      </trkpt>
      <trkpt lat="45.27889" lon="6.18444">
        <ele>1530.5</ele>
        <time>2021-02-17T12:48:16Z</time>
      </trkpt>
      <trkpt lat="45.27887" lon="6.18446">
        <ele>1530</ele>
        <time>2021-02-17T12:48:17Z</time>
      </trkpt>
      <trkpt lat="45.27886" lon="6.18448">
        <ele>1529.7</ele>
        <time>2021-02-17T12:48:18Z</time>
      </trkpt>
      <trkpt lat="45.27883" lon="6.1845">
        <ele>1529.1</ele>
        <time>2021-02-17T12:48:19Z</time>
      </trkpt>
      <trkpt lat="45.27882" lon="6.18452">
        <ele>1528.8</ele>
        <time>2021-02-17T12:48:20Z</time>
      </trkpt>
      <trkpt lat="45.27882" lon="6.18452">
        <ele>1528.7</ele>
        <time>2021-02-17T12:48:21Z</time>
      </trkpt>
      <trkpt lat="45.27882" lon="6.18453">
        <ele>1528.6</ele>
        <time>2021-02-17T12:48:22Z</time>
      </trkpt>
      <trkpt lat="45.27881" lon="6.18453">
        <ele>1528.5</ele>
        <time>2021-02-17T12:48:23Z</time>
      </trkpt>
      <trkpt lat="45.27881" lon="6.18453">
        <ele>1528.5</ele>
        <time>2021-02-17T12:48:24Z</time>
      </trkpt>
      <trkpt lat="45.27882" lon="6.18452">
        <ele>1528.4</ele>
        <time>2021-02-17T12:48:25Z</time>
      </trkpt>
      <trkpt lat="45.27882" lon="6.18452">
        <ele>1528.4</ele>
        <time>2021-02-17T12:48:26Z</time>
      </trkpt>
      <trkpt lat="45.27882" lon="6.18451">
        <ele>1528.2</ele>
        <time>2021-02-17T12:48:27Z</time>
      </trkpt>
      <trkpt lat="45.27882" lon="6.18451">
        <ele>1528.2</ele>
        <time>2021-02-17T12:48:28Z</time>
      </trkpt>
      <trkpt lat="45.27883" lon="6.1845">
        <ele>1528</ele>
        <time>2021-02-17T12:48:29Z</time>
      </trkpt>
      <trkpt lat="45.27884" lon="6.18449">
        <ele>1527.8</ele>
        <time>2021-02-17T12:48:30Z</time>
      </trkpt>
      <trkpt lat="45.27884" lon="6.18457">
        <ele>1526.8</ele>
        <time>2021-02-17T12:48:44Z</time>
      </trkpt>
      <trkpt lat="45.27881" lon="6.18461">
        <ele>1526.2</ele>
        <time>2021-02-17T12:48:45Z</time>
      </trkpt>
      <trkpt lat="45.27881" lon="6.18477">
        <ele>1524.4</ele>
        <time>2021-02-17T12:48:46Z</time>
      </trkpt>
      <trkpt lat="45.27879" lon="6.18481">
        <ele>1523.8</ele>
        <time>2021-02-17T12:48:47Z</time>
      </trkpt>
      <trkpt lat="45.27879" lon="6.18486">
        <ele>1523.2</ele>
        <time>2021-02-17T12:48:48Z</time>
      </trkpt>
      <trkpt lat="45.27879" lon="6.18491">
        <ele>1522.5</ele>
        <time>2021-02-17T12:48:49Z</time>
      </trkpt>
      <trkpt lat="45.2788" lon="6.18495">
        <ele>1522</ele>
        <time>2021-02-17T12:48:50Z</time>
      </trkpt>
      <trkpt lat="45.2788" lon="6.18497">
        <ele>1521.8</ele>
        <time>2021-02-17T12:48:51Z</time>
      </trkpt>
      <trkpt lat="45.2788" lon="6.18498">
        <ele>1521.6</ele>
        <time>2021-02-17T12:48:52Z</time>
      </trkpt>
      <trkpt lat="45.2788" lon="6.185">
        <ele>1521.3</ele>
        <time>2021-02-17T12:48:53Z</time>
      </trkpt>
      <trkpt lat="45.27879" lon="6.18504">
        <ele>1520.8</ele>
        <time>2021-02-17T12:48:54Z</time>
      </trkpt>
      <trkpt lat="45.27879" lon="6.18505">
        <ele>1520.6</ele>
        <time>2021-02-17T12:48:55Z</time>
      </trkpt>
      <trkpt lat="45.27878" lon="6.18509">
        <ele>1520</ele>
        <time>2021-02-17T12:48:56Z</time>
      </trkpt>
      <trkpt lat="45.27878" lon="6.18512">
        <ele>1519.7</ele>
        <time>2021-02-17T12:48:57Z</time>
      </trkpt>
      <trkpt lat="45.27878" lon="6.18513">
        <ele>1519.6</ele>
        <time>2021-02-17T12:48:58Z</time>
      </trkpt>
      <trkpt lat="45.27878" lon="6.18513">
        <ele>1519.5</ele>
        <time>2021-02-17T12:48:59Z</time>
      </trkpt>
      <trkpt lat="45.27877" lon="6.18514">
        <ele>1519.4</ele>
        <time>2021-02-17T12:49:00Z</time>
      </trkpt>
      <trkpt lat="45.27877" lon="6.18515">
        <ele>1519.3</ele>
        <time>2021-02-17T12:49:01Z</time>
      </trkpt>
      <trkpt lat="45.27877" lon="6.18515">
        <ele>1519.2</ele>
        <time>2021-02-17T12:49:02Z</time>
      </trkpt>
      <trkpt lat="45.27876" lon="6.18516">
        <ele>1519</ele>
        <time>2021-02-17T12:49:03Z</time>
      </trkpt>
      <trkpt lat="45.27876" lon="6.18519">
        <ele>1518.7</ele>
        <time>2021-02-17T12:49:04Z</time>
      </trkpt>
      <trkpt lat="45.27876" lon="6.1852">
        <ele>1518.5</ele>
        <time>2021-02-17T12:49:05Z</time>
      </trkpt>
      <trkpt lat="45.27876" lon="6.18521">
        <ele>1518.4</ele>
        <time>2021-02-17T12:49:06Z</time>
      </trkpt>
      <trkpt lat="45.27876" lon="6.18522">
        <ele>1518.3</ele>
        <time>2021-02-17T12:49:07Z</time>
      </trkpt>
      <trkpt lat="45.27877" lon="6.18523">
        <ele>1518.1</ele>
        <time>2021-02-17T12:49:08Z</time>
      </trkpt>
      <trkpt lat="45.27877" lon="6.18524">
        <ele>1518</ele>
        <time>2021-02-17T12:49:09Z</time>
      </trkpt>
      <trkpt lat="45.27877" lon="6.18525">
        <ele>1517.9</ele>
        <time>2021-02-17T12:49:10Z</time>
      </trkpt>
      <trkpt lat="45.27878" lon="6.1853">
        <ele>1517.3</ele>
        <time>2021-02-17T12:49:11Z</time>
      </trkpt>
      <trkpt lat="45.27878" lon="6.18531">
        <ele>1517.2</ele>
        <time>2021-02-17T12:49:12Z</time>
      </trkpt>
      <trkpt lat="45.27878" lon="6.18532">
        <ele>1517</ele>
        <time>2021-02-17T12:49:13Z</time>
      </trkpt>
      <trkpt lat="45.27879" lon="6.18533">
        <ele>1516.9</ele>
        <time>2021-02-17T12:49:14Z</time>
      </trkpt>
      <trkpt lat="45.27879" lon="6.18534">
        <ele>1516.8</ele>
        <time>2021-02-17T12:49:15Z</time>
      </trkpt>
      <trkpt lat="45.2788" lon="6.18534">
        <ele>1516.7</ele>
        <time>2021-02-17T12:49:16Z</time>
      </trkpt>
      <trkpt lat="45.2788" lon="6.18534">
        <ele>1516.6</ele>
        <time>2021-02-17T12:49:17Z</time>
      </trkpt>
      <trkpt lat="45.2788" lon="6.18534">
        <ele>1516.6</ele>
        <time>2021-02-17T12:49:18Z</time>
      </trkpt>
      <trkpt lat="45.27881" lon="6.18535">
        <ele>1516.6</ele>
        <time>2021-02-17T12:49:19Z</time>
      </trkpt>
      <trkpt lat="45.2788" lon="6.18535">
        <ele>1516.5</ele>
        <time>2021-02-17T12:49:20Z</time>
      </trkpt>
      <trkpt lat="45.2788" lon="6.18535">
        <ele>1516.5</ele>
        <time>2021-02-17T12:49:21Z</time>
      </trkpt>
      <trkpt lat="45.2788" lon="6.18536">
        <ele>1516.4</ele>
        <time>2021-02-17T12:49:22Z</time>
      </trkpt>
      <trkpt lat="45.2788" lon="6.18537">
        <ele>1516.3</ele>
        <time>2021-02-17T12:49:23Z</time>
      </trkpt>
      <trkpt lat="45.27879" lon="6.18538">
        <ele>1516.1</ele>
        <time>2021-02-17T12:49:24Z</time>
      </trkpt>
      <trkpt lat="45.27879" lon="6.18538">
        <ele>1516.1</ele>
        <time>2021-02-17T12:49:25Z</time>
      </trkpt>
      <trkpt lat="45.27882" lon="6.18554">
        <ele>1514.5</ele>
        <time>2021-02-17T12:50:33Z</time>
      </trkpt>
      <trkpt lat="45.27882" lon="6.18555">
        <ele>1514.3</ele>
        <time>2021-02-17T12:50:34Z</time>
      </trkpt>
      <trkpt lat="45.27882" lon="6.18556">
        <ele>1514.2</ele>
        <time>2021-02-17T12:50:35Z</time>
      </trkpt>
      <trkpt lat="45.27883" lon="6.18558">
        <ele>1514</ele>
        <time>2021-02-17T12:50:36Z</time>
      </trkpt>
      <trkpt lat="45.27883" lon="6.18559">
        <ele>1513.9</ele>
        <time>2021-02-17T12:50:37Z</time>
      </trkpt>
      <trkpt lat="45.27884" lon="6.1856">
        <ele>1513.8</ele>
        <time>2021-02-17T12:50:38Z</time>
      </trkpt>
      <trkpt lat="45.27884" lon="6.18561">
        <ele>1513.7</ele>
        <time>2021-02-17T12:50:39Z</time>
      </trkpt>
      <trkpt lat="45.27885" lon="6.18561">
        <ele>1513.6</ele>
        <time>2021-02-17T12:50:40Z</time>
      </trkpt>
      <trkpt lat="45.27886" lon="6.18566">
        <ele>1513.1</ele>
        <time>2021-02-17T12:50:41Z</time>
      </trkpt>
      <trkpt lat="45.27887" lon="6.18566">
        <ele>1513</ele>
        <time>2021-02-17T12:50:42Z</time>
      </trkpt>
      <trkpt lat="45.27888" lon="6.18566">
        <ele>1512.9</ele>
        <time>2021-02-17T12:50:43Z</time>
      </trkpt>
      <trkpt lat="45.27889" lon="6.18566">
        <ele>1512.8</ele>
        <time>2021-02-17T12:50:44Z</time>
      </trkpt>
      <trkpt lat="45.2789" lon="6.18566">
        <ele>1512.7</ele>
        <time>2021-02-17T12:50:45Z</time>
      </trkpt>
      <trkpt lat="45.27891" lon="6.18566">
        <ele>1512.6</ele>
        <time>2021-02-17T12:50:46Z</time>
      </trkpt>
      <trkpt lat="45.27892" lon="6.18566">
        <ele>1512.5</ele>
        <time>2021-02-17T12:50:47Z</time>
      </trkpt>
      <trkpt lat="45.27893" lon="6.18566">
        <ele>1512.4</ele>
        <time>2021-02-17T12:50:48Z</time>
      </trkpt>
      <trkpt lat="45.27894" lon="6.18566">
        <ele>1512.3</ele>
        <time>2021-02-17T12:50:49Z</time>
      </trkpt>
      <trkpt lat="45.27895" lon="6.18566">
        <ele>1512.2</ele>
        <time>2021-02-17T12:50:50Z</time>
      </trkpt>
      <trkpt lat="45.27896" lon="6.18566">
        <ele>1512.1</ele>
        <time>2021-02-17T12:50:51Z</time>
      </trkpt>
      <trkpt lat="45.27897" lon="6.18566">
        <ele>1512</ele>
        <time>2021-02-17T12:51:16Z</time>
      </trkpt>
      <trkpt lat="45.27898" lon="6.18566">
        <ele>1511.9</ele>
        <time>2021-02-17T12:51:17Z</time>
      </trkpt>
      <trkpt lat="45.27898" lon="6.18566">
        <ele>1511.8</ele>
        <time>2021-02-17T12:51:18Z</time>
      </trkpt>
      <trkpt lat="45.279" lon="6.18571">
        <ele>1511.4</ele>
        <time>2021-02-17T12:51:19Z</time>
      </trkpt>
      <trkpt lat="45.279" lon="6.18573">
        <ele>1511.2</ele>
        <time>2021-02-17T12:51:20Z</time>
      </trkpt>
      <trkpt lat="45.27901" lon="6.18579">
        <ele>1510.8</ele>
        <time>2021-02-17T12:51:21Z</time>
      </trkpt>
      <trkpt lat="45.27901" lon="6.18586">
        <ele>1510.3</ele>
        <time>2021-02-17T12:51:22Z</time>
      </trkpt>
      <trkpt lat="45.27901" lon="6.18594">
        <ele>1509.7</ele>
        <time>2021-02-17T12:51:23Z</time>
      </trkpt>
      <trkpt lat="45.279" lon="6.18603">
        <ele>1509.1</ele>
        <time>2021-02-17T12:51:24Z</time>
      </trkpt>
      <trkpt lat="45.27899" lon="6.18613">
        <ele>1508.4</ele>
        <time>2021-02-17T12:51:25Z</time>
      </trkpt>
      <trkpt lat="45.27899" lon="6.18624">
        <ele>1507.8</ele>
        <time>2021-02-17T12:51:26Z</time>
      </trkpt>
      <trkpt lat="45.27899" lon="6.18634">
        <ele>1507.3</ele>
        <time>2021-02-17T12:51:27Z</time>
      </trkpt>
      <trkpt lat="45.27901" lon="6.18643">
        <ele>1506.8</ele>
        <time>2021-02-17T12:51:28Z</time>
      </trkpt>
      <trkpt lat="45.27903" lon="6.18649">
        <ele>1506.4</ele>
        <time>2021-02-17T12:51:29Z</time>
      </trkpt>
      <trkpt lat="45.27905" lon="6.18654">
        <ele>1506.1</ele>
        <time>2021-02-17T12:51:30Z</time>
      </trkpt>
      <trkpt lat="45.27906" lon="6.18658">
        <ele>1505.9</ele>
        <time>2021-02-17T12:51:31Z</time>
      </trkpt>
      <trkpt lat="45.27907" lon="6.18662">
        <ele>1505.6</ele>
        <time>2021-02-17T12:51:32Z</time>
      </trkpt>
      <trkpt lat="45.27907" lon="6.18663">
        <ele>1505.5</ele>
        <time>2021-02-17T12:51:33Z</time>
      </trkpt>
      <trkpt lat="45.27908" lon="6.18665">
        <ele>1505.3</ele>
        <time>2021-02-17T12:51:34Z</time>
      </trkpt>
      <trkpt lat="45.27908" lon="6.18666">
        <ele>1505.3</ele>
        <time>2021-02-17T12:51:35Z</time>
      </trkpt>
      <trkpt lat="45.27908" lon="6.18667">
        <ele>1505.2</ele>
        <time>2021-02-17T12:51:36Z</time>
      </trkpt>
      <trkpt lat="45.27908" lon="6.18668">
        <ele>1505.1</ele>
        <time>2021-02-17T12:51:37Z</time>
      </trkpt>
      <trkpt lat="45.27908" lon="6.18669">
        <ele>1505</ele>
        <time>2021-02-17T12:51:38Z</time>
      </trkpt>
      <trkpt lat="45.27908" lon="6.1867">
        <ele>1504.9</ele>
        <time>2021-02-17T12:51:39Z</time>
      </trkpt>
      <trkpt lat="45.27908" lon="6.18671">
        <ele>1504.9</ele>
        <time>2021-02-17T12:51:40Z</time>
      </trkpt>
      <trkpt lat="45.27907" lon="6.18672">
        <ele>1504.8</ele>
        <time>2021-02-17T12:51:41Z</time>
      </trkpt>
      <trkpt lat="45.27907" lon="6.18673">
        <ele>1504.7</ele>
        <time>2021-02-17T12:51:42Z</time>
      </trkpt>
      <trkpt lat="45.27907" lon="6.18674">
        <ele>1504.6</ele>
        <time>2021-02-17T12:51:43Z</time>
      </trkpt>
      <trkpt lat="45.27907" lon="6.18675">
        <ele>1504.5</ele>
        <time>2021-02-17T12:51:44Z</time>
      </trkpt>
      <trkpt lat="45.27907" lon="6.18677">
        <ele>1504.4</ele>
        <time>2021-02-17T12:51:45Z</time>
      </trkpt>
      <trkpt lat="45.27907" lon="6.18678">
        <ele>1504.4</ele>
        <time>2021-02-17T12:52:28Z</time>
      </trkpt>
      <trkpt lat="45.27907" lon="6.18679">
        <ele>1504.3</ele>
        <time>2021-02-17T12:52:29Z</time>
      </trkpt>
      <trkpt lat="45.27907" lon="6.18685">
        <ele>1503.7</ele>
        <time>2021-02-17T12:52:30Z</time>
      </trkpt>
      <trkpt lat="45.27907" lon="6.18691">
        <ele>1503.2</ele>
        <time>2021-02-17T12:52:31Z</time>
      </trkpt>
      <trkpt lat="45.27906" lon="6.18697">
        <ele>1502.8</ele>
        <time>2021-02-17T12:52:32Z</time>
      </trkpt>
      <trkpt lat="45.27906" lon="6.18701">
        <ele>1502.4</ele>
        <time>2021-02-17T12:52:33Z</time>
      </trkpt>
      <trkpt lat="45.27906" lon="6.18706">
        <ele>1502</ele>
        <time>2021-02-17T12:52:34Z</time>
      </trkpt>
      <trkpt lat="45.27905" lon="6.18708">
        <ele>1501.9</ele>
        <time>2021-02-17T12:52:35Z</time>
      </trkpt>
      <trkpt lat="45.27906" lon="6.18712">
        <ele>1501.6</ele>
        <time>2021-02-17T12:52:36Z</time>
      </trkpt>
      <trkpt lat="45.27906" lon="6.18713">
        <ele>1501.5</ele>
        <time>2021-02-17T12:52:37Z</time>
      </trkpt>
      <trkpt lat="45.27906" lon="6.18718">
        <ele>1501.1</ele>
        <time>2021-02-17T12:52:38Z</time>
      </trkpt>
      <trkpt lat="45.27906" lon="6.18721">
        <ele>1500.9</ele>
        <time>2021-02-17T12:52:39Z</time>
      </trkpt>
      <trkpt lat="45.27907" lon="6.18725">
        <ele>1500.5</ele>
        <time>2021-02-17T12:52:40Z</time>
      </trkpt>
      <trkpt lat="45.27908" lon="6.18729">
        <ele>1500.2</ele>
        <time>2021-02-17T12:52:41Z</time>
      </trkpt>
      <trkpt lat="45.27909" lon="6.18734">
        <ele>1499.9</ele>
        <time>2021-02-17T12:52:42Z</time>
      </trkpt>
      <trkpt lat="45.27909" lon="6.18738">
        <ele>1499.5</ele>
        <time>2021-02-17T12:52:43Z</time>
      </trkpt>
      <trkpt lat="45.2791" lon="6.18743">
        <ele>1499.2</ele>
        <time>2021-02-17T12:52:44Z</time>
      </trkpt>
      <trkpt lat="45.27911" lon="6.18748">
        <ele>1498.8</ele>
        <time>2021-02-17T12:52:45Z</time>
      </trkpt>
      <trkpt lat="45.27912" lon="6.18753">
        <ele>1498.4</ele>
        <time>2021-02-17T12:52:46Z</time>
      </trkpt>
      <trkpt lat="45.27913" lon="6.18759">
        <ele>1498</ele>
        <time>2021-02-17T12:52:47Z</time>
      </trkpt>
      <trkpt lat="45.27913" lon="6.18765">
        <ele>1497.6</ele>
        <time>2021-02-17T12:52:48Z</time>
      </trkpt>
      <trkpt lat="45.27913" lon="6.18772">
        <ele>1497.2</ele>
        <time>2021-02-17T12:52:49Z</time>
      </trkpt>
      <trkpt lat="45.27913" lon="6.18779">
        <ele>1496.9</ele>
        <time>2021-02-17T12:52:50Z</time>
      </trkpt>
      <trkpt lat="45.27913" lon="6.18786">
        <ele>1496.6</ele>
        <time>2021-02-17T12:52:51Z</time>
      </trkpt>
      <trkpt lat="45.27912" lon="6.18794">
        <ele>1496.2</ele>
        <time>2021-02-17T12:52:52Z</time>
      </trkpt>
      <trkpt lat="45.27911" lon="6.18801">
        <ele>1496</ele>
        <time>2021-02-17T12:52:53Z</time>
      </trkpt>
      <trkpt lat="45.2791" lon="6.18808">
        <ele>1495.8</ele>
        <time>2021-02-17T12:52:54Z</time>
      </trkpt>
      <trkpt lat="45.27908" lon="6.18814">
        <ele>1495.6</ele>
        <time>2021-02-17T12:52:55Z</time>
      </trkpt>
      <trkpt lat="45.27905" lon="6.1882">
        <ele>1495.5</ele>
        <time>2021-02-17T12:52:56Z</time>
      </trkpt>
      <trkpt lat="45.27902" lon="6.18827">
        <ele>1495.3</ele>
        <time>2021-02-17T12:52:57Z</time>
      </trkpt>
      <trkpt lat="45.27898" lon="6.18831">
        <ele>1495.2</ele>
        <time>2021-02-17T12:52:58Z</time>
      </trkpt>
      <trkpt lat="45.27896" lon="6.18834">
        <ele>1495.2</ele>
        <time>2021-02-17T12:52:59Z</time>
      </trkpt>
      <trkpt lat="45.27893" lon="6.18836">
        <ele>1495.1</ele>
        <time>2021-02-17T12:53:00Z</time>
      </trkpt>
      <trkpt lat="45.27892" lon="6.18836">
        <ele>1495.1</ele>
        <time>2021-02-17T12:53:01Z</time>
      </trkpt>
      <trkpt lat="45.27889" lon="6.18839">
        <ele>1495</ele>
        <time>2021-02-17T12:53:02Z</time>
      </trkpt>
      <trkpt lat="45.27888" lon="6.1884">
        <ele>1495</ele>
        <time>2021-02-17T12:53:03Z</time>
      </trkpt>
      <trkpt lat="45.27886" lon="6.18843">
        <ele>1494.9</ele>
        <time>2021-02-17T12:53:04Z</time>
      </trkpt>
      <trkpt lat="45.27884" lon="6.18847">
        <ele>1494.8</ele>
        <time>2021-02-17T12:53:05Z</time>
      </trkpt>
      <trkpt lat="45.27882" lon="6.18851">
        <ele>1494.7</ele>
        <time>2021-02-17T12:53:06Z</time>
      </trkpt>
      <trkpt lat="45.2788" lon="6.18854">
        <ele>1494.6</ele>
        <time>2021-02-17T12:53:07Z</time>
      </trkpt>
      <trkpt lat="45.27878" lon="6.18858">
        <ele>1494.5</ele>
        <time>2021-02-17T12:53:08Z</time>
      </trkpt>
      <trkpt lat="45.27877" lon="6.18858">
        <ele>1494.4</ele>
        <time>2021-02-17T12:53:09Z</time>
      </trkpt>
      <trkpt lat="45.27876" lon="6.1886">
        <ele>1494.4</ele>
        <time>2021-02-17T12:53:10Z</time>
      </trkpt>
      <trkpt lat="45.27875" lon="6.18861">
        <ele>1494.3</ele>
        <time>2021-02-17T12:53:11Z</time>
      </trkpt>
      <trkpt lat="45.27874" lon="6.18863">
        <ele>1494.2</ele>
        <time>2021-02-17T12:53:12Z</time>
      </trkpt>
      <trkpt lat="45.27873" lon="6.18864">
        <ele>1494.1</ele>
        <time>2021-02-17T12:53:13Z</time>
      </trkpt>
      <trkpt lat="45.27871" lon="6.18868">
        <ele>1493.9</ele>
        <time>2021-02-17T12:53:14Z</time>
      </trkpt>
      <trkpt lat="45.2787" lon="6.18869">
        <ele>1493.8</ele>
        <time>2021-02-17T12:53:15Z</time>
      </trkpt>
      <trkpt lat="45.27869" lon="6.1887">
        <ele>1493.7</ele>
        <time>2021-02-17T12:53:16Z</time>
      </trkpt>
      <trkpt lat="45.27869" lon="6.18872">
        <ele>1493.5</ele>
        <time>2021-02-17T12:53:17Z</time>
      </trkpt>
      <trkpt lat="45.27868" lon="6.18876">
        <ele>1493.2</ele>
        <time>2021-02-17T12:53:18Z</time>
      </trkpt>
      <trkpt lat="45.27867" lon="6.18878">
        <ele>1493.1</ele>
        <time>2021-02-17T12:53:19Z</time>
      </trkpt>
      <trkpt lat="45.27866" lon="6.18882">
        <ele>1492.8</ele>
        <time>2021-02-17T12:53:20Z</time>
      </trkpt>
      <trkpt lat="45.27864" lon="6.18886">
        <ele>1492.3</ele>
        <time>2021-02-17T12:53:21Z</time>
      </trkpt>
      <trkpt lat="45.27862" lon="6.18892">
        <ele>1491.7</ele>
        <time>2021-02-17T12:53:22Z</time>
      </trkpt>
      <trkpt lat="45.27861" lon="6.18899">
        <ele>1491.1</ele>
        <time>2021-02-17T12:53:23Z</time>
      </trkpt>
      <trkpt lat="45.2786" lon="6.18906">
        <ele>1490.2</ele>
        <time>2021-02-17T12:53:24Z</time>
      </trkpt>
      <trkpt lat="45.2786" lon="6.18916">
        <ele>1489.1</ele>
        <time>2021-02-17T12:53:25Z</time>
      </trkpt>
      <trkpt lat="45.27859" lon="6.18922">
        <ele>1488.4</ele>
        <time>2021-02-17T12:53:26Z</time>
      </trkpt>
      <trkpt lat="45.27857" lon="6.1893">
        <ele>1487.4</ele>
        <time>2021-02-17T12:53:27Z</time>
      </trkpt>
      <trkpt lat="45.27857" lon="6.18938">
        <ele>1486.4</ele>
        <time>2021-02-17T12:53:28Z</time>
      </trkpt>
      <trkpt lat="45.27857" lon="6.18946">
        <ele>1485.5</ele>
        <time>2021-02-17T12:53:29Z</time>
      </trkpt>
      <trkpt lat="45.27859" lon="6.18942">
        <ele>1485</ele>
        <time>2021-02-17T12:53:30Z</time>
      </trkpt>
      <trkpt lat="45.27861" lon="6.18939">
        <ele>1484.5</ele>
        <time>2021-02-17T12:53:31Z</time>
      </trkpt>
      <trkpt lat="45.27862" lon="6.1894">
        <ele>1484.4</ele>
        <time>2021-02-17T12:53:32Z</time>
      </trkpt>
      <trkpt lat="45.27862" lon="6.18941">
        <ele>1484.3</ele>
        <time>2021-02-17T12:53:33Z</time>
      </trkpt>
      <trkpt lat="45.27863" lon="6.18941">
        <ele>1484.1</ele>
        <time>2021-02-17T12:53:34Z</time>
      </trkpt>
      <trkpt lat="45.27863" lon="6.18942">
        <ele>1484</ele>
        <time>2021-02-17T12:53:35Z</time>
      </trkpt>
      <trkpt lat="45.27864" lon="6.18943">
        <ele>1483.9</ele>
        <time>2021-02-17T12:53:36Z</time>
      </trkpt>
      <trkpt lat="45.27864" lon="6.18944">
        <ele>1483.7</ele>
        <time>2021-02-17T12:53:37Z</time>
      </trkpt>
      <trkpt lat="45.27865" lon="6.18946">
        <ele>1483.5</ele>
        <time>2021-02-17T12:53:38Z</time>
      </trkpt>
      <trkpt lat="45.27864" lon="6.18949">
        <ele>1483.2</ele>
        <time>2021-02-17T12:53:39Z</time>
      </trkpt>
      <trkpt lat="45.27863" lon="6.18953">
        <ele>1482.7</ele>
        <time>2021-02-17T12:53:40Z</time>
      </trkpt>
      <trkpt lat="45.27863" lon="6.18955">
        <ele>1482.5</ele>
        <time>2021-02-17T12:53:41Z</time>
      </trkpt>
      <trkpt lat="45.27862" lon="6.18958">
        <ele>1482.1</ele>
        <time>2021-02-17T12:53:42Z</time>
      </trkpt>
      <trkpt lat="45.27858" lon="6.1896">
        <ele>1481.5</ele>
        <time>2021-02-17T12:53:43Z</time>
      </trkpt>
      <trkpt lat="45.27857" lon="6.1896">
        <ele>1481.3</ele>
        <time>2021-02-17T12:53:44Z</time>
      </trkpt>
      <trkpt lat="45.27854" lon="6.18959">
        <ele>1480.8</ele>
        <time>2021-02-17T12:53:45Z</time>
      </trkpt>
      <trkpt lat="45.27853" lon="6.18958">
        <ele>1480.6</ele>
        <time>2021-02-17T12:53:46Z</time>
      </trkpt>
      <trkpt lat="45.27852" lon="6.18956">
        <ele>1480.3</ele>
        <time>2021-02-17T12:53:47Z</time>
      </trkpt>
      <trkpt lat="45.27851" lon="6.18955">
        <ele>1480</ele>
        <time>2021-02-17T12:53:48Z</time>
      </trkpt>
      <trkpt lat="45.2785" lon="6.18954">
        <ele>1479.8</ele>
        <time>2021-02-17T12:53:49Z</time>
      </trkpt>
      <trkpt lat="45.27849" lon="6.18953">
        <ele>1479.6</ele>
        <time>2021-02-17T12:53:50Z</time>
      </trkpt>
      <trkpt lat="45.27847" lon="6.18953">
        <ele>1479.4</ele>
        <time>2021-02-17T12:53:51Z</time>
      </trkpt>
      <trkpt lat="45.27846" lon="6.18957">
        <ele>1478.9</ele>
        <time>2021-02-17T12:53:52Z</time>
      </trkpt>
      <trkpt lat="45.27846" lon="6.18958">
        <ele>1478.7</ele>
        <time>2021-02-17T12:53:53Z</time>
      </trkpt>
      <trkpt lat="45.27847" lon="6.1896">
        <ele>1478.5</ele>
        <time>2021-02-17T12:53:54Z</time>
      </trkpt>
      <trkpt lat="45.27847" lon="6.1896">
        <ele>1478.4</ele>
        <time>2021-02-17T12:53:55Z</time>
      </trkpt>
      <trkpt lat="45.27847" lon="6.1896">
        <ele>1478.4</ele>
        <time>2021-02-17T12:53:56Z</time>
      </trkpt>
      <trkpt lat="45.27847" lon="6.1896">
        <ele>1478.4</ele>
        <time>2021-02-17T12:53:57Z</time>
      </trkpt>
      <trkpt lat="45.27847" lon="6.1896">
        <ele>1478.4</ele>
        <time>2021-02-17T12:53:58Z</time>
      </trkpt>
      <trkpt lat="45.27847" lon="6.1896">
        <ele>1478.4</ele>
        <time>2021-02-17T12:53:59Z</time>
      </trkpt>
      <trkpt lat="45.27847" lon="6.1896">
        <ele>1478.4</ele>
        <time>2021-02-17T12:54:00Z</time>
      </trkpt>
      <trkpt lat="45.27847" lon="6.1896">
        <ele>1478.5</ele>
        <time>2021-02-17T12:54:01Z</time>
      </trkpt>
      <trkpt lat="45.27847" lon="6.1896">
        <ele>1478.5</ele>
        <time>2021-02-17T12:54:02Z</time>
      </trkpt>
      <trkpt lat="45.27847" lon="6.1896">
        <ele>1478.5</ele>
        <time>2021-02-17T12:54:03Z</time>
      </trkpt>
      <trkpt lat="45.27847" lon="6.1896">
        <ele>1478.5</ele>
        <time>2021-02-17T12:54:04Z</time>
      </trkpt>
      <trkpt lat="45.27845" lon="6.18964">
        <ele>1478</ele>
        <time>2021-02-17T12:54:13Z</time>
      </trkpt>
      <trkpt lat="45.27844" lon="6.18965">
        <ele>1477.8</ele>
        <time>2021-02-17T12:54:14Z</time>
      </trkpt>
      <trkpt lat="45.27844" lon="6.18966">
        <ele>1477.7</ele>
        <time>2021-02-17T12:54:15Z</time>
      </trkpt>
      <trkpt lat="45.27844" lon="6.18967">
        <ele>1477.5</ele>
        <time>2021-02-17T12:54:16Z</time>
      </trkpt>
      <trkpt lat="45.27844" lon="6.18969">
        <ele>1477.4</ele>
        <time>2021-02-17T12:54:17Z</time>
      </trkpt>
      <trkpt lat="45.27844" lon="6.1897">
        <ele>1477.2</ele>
        <time>2021-02-17T12:54:18Z</time>
      </trkpt>
      <trkpt lat="45.27845" lon="6.18972">
        <ele>1476.9</ele>
        <time>2021-02-17T12:54:19Z</time>
      </trkpt>
      <trkpt lat="45.27845" lon="6.18975">
        <ele>1476.6</ele>
        <time>2021-02-17T12:54:20Z</time>
      </trkpt>
      <trkpt lat="45.27845" lon="6.18977">
        <ele>1476.3</ele>
        <time>2021-02-17T12:54:21Z</time>
      </trkpt>
      <trkpt lat="45.27845" lon="6.18978">
        <ele>1476.2</ele>
        <time>2021-02-17T12:54:22Z</time>
      </trkpt>
      <trkpt lat="45.27845" lon="6.18979">
        <ele>1476.1</ele>
        <time>2021-02-17T12:54:23Z</time>
      </trkpt>
      <trkpt lat="45.27845" lon="6.1898">
        <ele>1476</ele>
        <time>2021-02-17T12:54:24Z</time>
      </trkpt>
      <trkpt lat="45.27846" lon="6.18982">
        <ele>1475.8</ele>
        <time>2021-02-17T12:54:25Z</time>
      </trkpt>
      <trkpt lat="45.27846" lon="6.18983">
        <ele>1475.7</ele>
        <time>2021-02-17T12:54:26Z</time>
      </trkpt>
      <trkpt lat="45.27846" lon="6.18984">
        <ele>1475.6</ele>
        <time>2021-02-17T12:54:27Z</time>
      </trkpt>
      <trkpt lat="45.27846" lon="6.18985">
        <ele>1475.5</ele>
        <time>2021-02-17T12:54:28Z</time>
      </trkpt>
      <trkpt lat="45.27846" lon="6.18986">
        <ele>1475.5</ele>
        <time>2021-02-17T12:54:29Z</time>
      </trkpt>
      <trkpt lat="45.27846" lon="6.18986">
        <ele>1475.4</ele>
        <time>2021-02-17T12:54:30Z</time>
      </trkpt>
      <trkpt lat="45.27846" lon="6.18986">
        <ele>1475.4</ele>
        <time>2021-02-17T12:54:31Z</time>
      </trkpt>
      <trkpt lat="45.27846" lon="6.18987">
        <ele>1475.3</ele>
        <time>2021-02-17T12:54:32Z</time>
      </trkpt>
      <trkpt lat="45.27847" lon="6.18987">
        <ele>1475.3</ele>
        <time>2021-02-17T12:54:33Z</time>
      </trkpt>
      <trkpt lat="45.27847" lon="6.18988">
        <ele>1475.2</ele>
        <time>2021-02-17T12:54:34Z</time>
      </trkpt>
      <trkpt lat="45.27847" lon="6.18989">
        <ele>1475.1</ele>
        <time>2021-02-17T12:54:35Z</time>
      </trkpt>
      <trkpt lat="45.27847" lon="6.1899">
        <ele>1474.9</ele>
        <time>2021-02-17T12:54:36Z</time>
      </trkpt>
      <trkpt lat="45.27847" lon="6.18992">
        <ele>1474.7</ele>
        <time>2021-02-17T12:54:37Z</time>
      </trkpt>
      <trkpt lat="45.27845" lon="6.18997">
        <ele>1474.3</ele>
        <time>2021-02-17T12:54:38Z</time>
      </trkpt>
      <trkpt lat="45.27844" lon="6.18998">
        <ele>1474</ele>
        <time>2021-02-17T12:54:39Z</time>
      </trkpt>
      <trkpt lat="45.27843" lon="6.19003">
        <ele>1473.6</ele>
        <time>2021-02-17T12:54:40Z</time>
      </trkpt>
      <trkpt lat="45.27843" lon="6.19005">
        <ele>1473.4</ele>
        <time>2021-02-17T12:54:41Z</time>
      </trkpt>
      <trkpt lat="45.27842" lon="6.1901">
        <ele>1473</ele>
        <time>2021-02-17T12:54:42Z</time>
      </trkpt>
      <trkpt lat="45.27841" lon="6.19015">
        <ele>1472.6</ele>
        <time>2021-02-17T12:54:43Z</time>
      </trkpt>
      <trkpt lat="45.27841" lon="6.19021">
        <ele>1472.1</ele>
        <time>2021-02-17T12:54:44Z</time>
      </trkpt>
      <trkpt lat="45.2784" lon="6.19027">
        <ele>1471.8</ele>
        <time>2021-02-17T12:54:45Z</time>
      </trkpt>
      <trkpt lat="45.2784" lon="6.19032">
        <ele>1471.5</ele>
        <time>2021-02-17T12:54:46Z</time>
      </trkpt>
      <trkpt lat="45.27839" lon="6.19036">
        <ele>1471.3</ele>
        <time>2021-02-17T12:54:47Z</time>
      </trkpt>
      <trkpt lat="45.27838" lon="6.19042">
        <ele>1471</ele>
        <time>2021-02-17T12:54:48Z</time>
      </trkpt>
      <trkpt lat="45.27837" lon="6.19046">
        <ele>1470.7</ele>
        <time>2021-02-17T12:54:49Z</time>
      </trkpt>
      <trkpt lat="45.27837" lon="6.19051">
        <ele>1470.4</ele>
        <time>2021-02-17T12:54:50Z</time>
      </trkpt>
      <trkpt lat="45.27837" lon="6.19053">
        <ele>1470.4</ele>
        <time>2021-02-17T12:54:51Z</time>
      </trkpt>
      <trkpt lat="45.27838" lon="6.19057">
        <ele>1470.1</ele>
        <time>2021-02-17T12:54:52Z</time>
      </trkpt>
      <trkpt lat="45.27838" lon="6.19059">
        <ele>1470.1</ele>
        <time>2021-02-17T12:54:53Z</time>
      </trkpt>
      <trkpt lat="45.2784" lon="6.19063">
        <ele>1469.8</ele>
        <time>2021-02-17T12:54:54Z</time>
      </trkpt>
      <trkpt lat="45.27841" lon="6.19065">
        <ele>1469.7</ele>
        <time>2021-02-17T12:54:55Z</time>
      </trkpt>
      <trkpt lat="45.27842" lon="6.19069">
        <ele>1469.4</ele>
        <time>2021-02-17T12:54:56Z</time>
      </trkpt>
      <trkpt lat="45.27844" lon="6.19073">
        <ele>1469.2</ele>
        <time>2021-02-17T12:54:57Z</time>
      </trkpt>
      <trkpt lat="45.27845" lon="6.19077">
        <ele>1468.9</ele>
        <time>2021-02-17T12:54:58Z</time>
      </trkpt>
      <trkpt lat="45.27847" lon="6.19081">
        <ele>1468.6</ele>
        <time>2021-02-17T12:54:59Z</time>
      </trkpt>
      <trkpt lat="45.27849" lon="6.19085">
        <ele>1468.4</ele>
        <time>2021-02-17T12:55:00Z</time>
      </trkpt>
      <trkpt lat="45.2785" lon="6.19086">
        <ele>1468.3</ele>
        <time>2021-02-17T12:55:01Z</time>
      </trkpt>
      <trkpt lat="45.27851" lon="6.19088">
        <ele>1468.1</ele>
        <time>2021-02-17T12:55:02Z</time>
      </trkpt>
      <trkpt lat="45.27852" lon="6.1909">
        <ele>1468</ele>
        <time>2021-02-17T12:55:03Z</time>
      </trkpt>
      <trkpt lat="45.27853" lon="6.19092">
        <ele>1467.8</ele>
        <time>2021-02-17T12:55:04Z</time>
      </trkpt>
      <trkpt lat="45.27855" lon="6.19096">
        <ele>1467.5</ele>
        <time>2021-02-17T12:55:05Z</time>
      </trkpt>
      <trkpt lat="45.27855" lon="6.19097">
        <ele>1467.4</ele>
        <time>2021-02-17T12:55:06Z</time>
      </trkpt>
      <trkpt lat="45.27856" lon="6.19101">
        <ele>1467.2</ele>
        <time>2021-02-17T12:55:07Z</time>
      </trkpt>
      <trkpt lat="45.27857" lon="6.19106">
        <ele>1466.8</ele>
        <time>2021-02-17T12:55:08Z</time>
      </trkpt>
      <trkpt lat="45.27857" lon="6.19111">
        <ele>1466.5</ele>
        <time>2021-02-17T12:55:09Z</time>
      </trkpt>
      <trkpt lat="45.27858" lon="6.19117">
        <ele>1466.1</ele>
        <time>2021-02-17T12:55:10Z</time>
      </trkpt>
      <trkpt lat="45.27859" lon="6.19123">
        <ele>1465.7</ele>
        <time>2021-02-17T12:55:11Z</time>
      </trkpt>
      <trkpt lat="45.2786" lon="6.19128">
        <ele>1465.3</ele>
        <time>2021-02-17T12:55:12Z</time>
      </trkpt>
      <trkpt lat="45.27861" lon="6.19134">
        <ele>1464.9</ele>
        <time>2021-02-17T12:55:13Z</time>
      </trkpt>
      <trkpt lat="45.27862" lon="6.19139">
        <ele>1464.5</ele>
        <time>2021-02-17T12:55:14Z</time>
      </trkpt>
      <trkpt lat="45.27863" lon="6.19145">
        <ele>1464.1</ele>
        <time>2021-02-17T12:55:15Z</time>
      </trkpt>
      <trkpt lat="45.27864" lon="6.1915">
        <ele>1463.8</ele>
        <time>2021-02-17T12:55:16Z</time>
      </trkpt>
      <trkpt lat="45.27864" lon="6.19153">
        <ele>1463.5</ele>
        <time>2021-02-17T12:55:17Z</time>
      </trkpt>
      <trkpt lat="45.27865" lon="6.19155">
        <ele>1463.3</ele>
        <time>2021-02-17T12:55:18Z</time>
      </trkpt>
      <trkpt lat="45.27865" lon="6.19157">
        <ele>1463.2</ele>
        <time>2021-02-17T12:55:19Z</time>
      </trkpt>
      <trkpt lat="45.27865" lon="6.19158">
        <ele>1463.2</ele>
        <time>2021-02-17T12:55:20Z</time>
      </trkpt>
      <trkpt lat="45.27865" lon="6.19158">
        <ele>1463.1</ele>
        <time>2021-02-17T12:55:21Z</time>
      </trkpt>
      <trkpt lat="45.27865" lon="6.19159">
        <ele>1463</ele>
        <time>2021-02-17T12:55:22Z</time>
      </trkpt>
      <trkpt lat="45.27866" lon="6.19161">
        <ele>1462.8</ele>
        <time>2021-02-17T12:55:23Z</time>
      </trkpt>
      <trkpt lat="45.27867" lon="6.19161">
        <ele>1462.7</ele>
        <time>2021-02-17T12:55:24Z</time>
      </trkpt>
      <trkpt lat="45.27868" lon="6.19161">
        <ele>1462.7</ele>
        <time>2021-02-17T12:55:25Z</time>
      </trkpt>
      <trkpt lat="45.27868" lon="6.19161">
        <ele>1462.7</ele>
        <time>2021-02-17T12:55:26Z</time>
      </trkpt>
      <trkpt lat="45.27868" lon="6.19161">
        <ele>1462.7</ele>
        <time>2021-02-17T12:55:27Z</time>
      </trkpt>
      <trkpt lat="45.27868" lon="6.19161">
        <ele>1462.7</ele>
        <time>2021-02-17T12:55:28Z</time>
      </trkpt>
      <trkpt lat="45.27868" lon="6.19161">
        <ele>1462.7</ele>
        <time>2021-02-17T12:55:29Z</time>
      </trkpt>
      <trkpt lat="45.27868" lon="6.19161">
        <ele>1462.7</ele>
        <time>2021-02-17T12:55:30Z</time>
      </trkpt>
      <trkpt lat="45.27868" lon="6.19161">
        <ele>1462.8</ele>
        <time>2021-02-17T12:55:31Z</time>
      </trkpt>
      <trkpt lat="45.27868" lon="6.19161">
        <ele>1462.8</ele>
        <time>2021-02-17T12:55:32Z</time>
      </trkpt>
      <trkpt lat="45.27868" lon="6.19161">
        <ele>1462.8</ele>
        <time>2021-02-17T12:55:33Z</time>
      </trkpt>
      <trkpt lat="45.27868" lon="6.19161">
        <ele>1462.8</ele>
        <time>2021-02-17T12:55:34Z</time>
      </trkpt>
      <trkpt lat="45.27868" lon="6.19161">
        <ele>1462.8</ele>
        <time>2021-02-17T12:55:35Z</time>
      </trkpt>
      <trkpt lat="45.27868" lon="6.19154">
        <ele>1462.2</ele>
        <time>2021-02-17T12:55:36Z</time>
      </trkpt>
      <trkpt lat="45.27874" lon="6.19163">
        <ele>1461.2</ele>
        <time>2021-02-17T12:55:41Z</time>
      </trkpt>
      <trkpt lat="45.27876" lon="6.19167">
        <ele>1460.8</ele>
        <time>2021-02-17T12:55:42Z</time>
      </trkpt>
      <trkpt lat="45.27878" lon="6.19172">
        <ele>1460.5</ele>
        <time>2021-02-17T12:55:43Z</time>
      </trkpt>
      <trkpt lat="45.27878" lon="6.19174">
        <ele>1460.3</ele>
        <time>2021-02-17T12:55:44Z</time>
      </trkpt>
      <trkpt lat="45.27878" lon="6.19179">
        <ele>1460</ele>
        <time>2021-02-17T12:55:45Z</time>
      </trkpt>
      <trkpt lat="45.27877" lon="6.19184">
        <ele>1459.8</ele>
        <time>2021-02-17T12:55:46Z</time>
      </trkpt>
      <trkpt lat="45.27875" lon="6.1919">
        <ele>1459.6</ele>
        <time>2021-02-17T12:55:47Z</time>
      </trkpt>
      <trkpt lat="45.27873" lon="6.19195">
        <ele>1459.4</ele>
        <time>2021-02-17T12:55:48Z</time>
      </trkpt>
      <trkpt lat="45.27872" lon="6.19199">
        <ele>1459.4</ele>
        <time>2021-02-17T12:55:49Z</time>
      </trkpt>
      <trkpt lat="45.27872" lon="6.19204">
        <ele>1459.3</ele>
        <time>2021-02-17T12:55:50Z</time>
      </trkpt>
      <trkpt lat="45.27872" lon="6.19205">
        <ele>1459.3</ele>
        <time>2021-02-17T12:55:51Z</time>
      </trkpt>
      <trkpt lat="45.27873" lon="6.19209">
        <ele>1459.2</ele>
        <time>2021-02-17T12:55:52Z</time>
      </trkpt>
      <trkpt lat="45.27873" lon="6.19211">
        <ele>1459.2</ele>
        <time>2021-02-17T12:55:53Z</time>
      </trkpt>
      <trkpt lat="45.27875" lon="6.19215">
        <ele>1459.1</ele>
        <time>2021-02-17T12:55:54Z</time>
      </trkpt>
      <trkpt lat="45.27876" lon="6.19218">
        <ele>1459.1</ele>
        <time>2021-02-17T12:55:55Z</time>
      </trkpt>
      <trkpt lat="45.27878" lon="6.19222">
        <ele>1459</ele>
        <time>2021-02-17T12:55:56Z</time>
      </trkpt>
      <trkpt lat="45.2788" lon="6.19227">
        <ele>1458.8</ele>
        <time>2021-02-17T12:55:57Z</time>
      </trkpt>
      <trkpt lat="45.27882" lon="6.19232">
        <ele>1458.6</ele>
        <time>2021-02-17T12:55:58Z</time>
      </trkpt>
      <trkpt lat="45.27883" lon="6.19238">
        <ele>1458.4</ele>
        <time>2021-02-17T12:55:59Z</time>
      </trkpt>
      <trkpt lat="45.27885" lon="6.19244">
        <ele>1458.1</ele>
        <time>2021-02-17T12:56:00Z</time>
      </trkpt>
      <trkpt lat="45.27886" lon="6.19252">
        <ele>1457.7</ele>
        <time>2021-02-17T12:56:01Z</time>
      </trkpt>
      <trkpt lat="45.27889" lon="6.19259">
        <ele>1457.3</ele>
        <time>2021-02-17T12:56:02Z</time>
      </trkpt>
      <trkpt lat="45.27892" lon="6.19264">
        <ele>1456.9</ele>
        <time>2021-02-17T12:56:03Z</time>
      </trkpt>
      <trkpt lat="45.27895" lon="6.19269">
        <ele>1456.4</ele>
        <time>2021-02-17T12:56:04Z</time>
      </trkpt>
      <trkpt lat="45.27898" lon="6.19273">
        <ele>1456</ele>
        <time>2021-02-17T12:56:05Z</time>
      </trkpt>
      <trkpt lat="45.27901" lon="6.19277">
        <ele>1455.6</ele>
        <time>2021-02-17T12:56:06Z</time>
      </trkpt>
      <trkpt lat="45.27903" lon="6.1928">
        <ele>1455.2</ele>
        <time>2021-02-17T12:56:07Z</time>
      </trkpt>
      <trkpt lat="45.27904" lon="6.19281">
        <ele>1455.1</ele>
        <time>2021-02-17T12:56:08Z</time>
      </trkpt>
      <trkpt lat="45.27907" lon="6.19284">
        <ele>1454.7</ele>
        <time>2021-02-17T12:56:09Z</time>
      </trkpt>
      <trkpt lat="45.27908" lon="6.19285">
        <ele>1454.6</ele>
        <time>2021-02-17T12:56:10Z</time>
      </trkpt>
      <trkpt lat="45.27911" lon="6.19289">
        <ele>1454.1</ele>
        <time>2021-02-17T12:56:11Z</time>
      </trkpt>
      <trkpt lat="45.27912" lon="6.1929">
        <ele>1454</ele>
        <time>2021-02-17T12:56:12Z</time>
      </trkpt>
      <trkpt lat="45.27914" lon="6.19294">
        <ele>1453.6</ele>
        <time>2021-02-17T12:56:13Z</time>
      </trkpt>
      <trkpt lat="45.27915" lon="6.19295">
        <ele>1453.4</ele>
        <time>2021-02-17T12:56:14Z</time>
      </trkpt>
      <trkpt lat="45.27915" lon="6.19295">
        <ele>1453.4</ele>
        <time>2021-02-17T12:56:15Z</time>
      </trkpt>
      <trkpt lat="45.27915" lon="6.19295">
        <ele>1453.4</ele>
        <time>2021-02-17T12:56:16Z</time>
      </trkpt>
      <trkpt lat="45.27915" lon="6.19296">
        <ele>1453.4</ele>
        <time>2021-02-17T12:56:17Z</time>
      </trkpt>
      <trkpt lat="45.27915" lon="6.19296">
        <ele>1453.4</ele>
        <time>2021-02-17T12:56:18Z</time>
      </trkpt>
      <trkpt lat="45.27915" lon="6.19296">
        <ele>1453.4</ele>
        <time>2021-02-17T12:56:19Z</time>
      </trkpt>
      <trkpt lat="45.27915" lon="6.19296">
        <ele>1453.4</ele>
        <time>2021-02-17T12:56:20Z</time>
      </trkpt>
      <trkpt lat="45.27915" lon="6.19296">
        <ele>1453.3</ele>
        <time>2021-02-17T12:56:21Z</time>
      </trkpt>
      <trkpt lat="45.27915" lon="6.19296">
        <ele>1453.3</ele>
        <time>2021-02-17T12:56:22Z</time>
      </trkpt>
      <trkpt lat="45.27915" lon="6.19296">
        <ele>1453.3</ele>
        <time>2021-02-17T12:56:23Z</time>
      </trkpt>
      <trkpt lat="45.27915" lon="6.19296">
        <ele>1453.3</ele>
        <time>2021-02-17T12:56:24Z</time>
      </trkpt>
      <trkpt lat="45.27915" lon="6.19297">
        <ele>1453.3</ele>
        <time>2021-02-17T12:57:16Z</time>
      </trkpt>
      <trkpt lat="45.27915" lon="6.19297">
        <ele>1453.3</ele>
        <time>2021-02-17T12:57:17Z</time>
      </trkpt>
      <trkpt lat="45.27917" lon="6.193">
        <ele>1452.9</ele>
        <time>2021-02-17T12:57:18Z</time>
      </trkpt>
      <trkpt lat="45.27918" lon="6.19301">
        <ele>1452.8</ele>
        <time>2021-02-17T12:57:19Z</time>
      </trkpt>
      <trkpt lat="45.27921" lon="6.19305">
        <ele>1452.2</ele>
        <time>2021-02-17T12:57:20Z</time>
      </trkpt>
      <trkpt lat="45.27922" lon="6.19306">
        <ele>1452</ele>
        <time>2021-02-17T12:57:21Z</time>
      </trkpt>
      <trkpt lat="45.27925" lon="6.19309">
        <ele>1451.5</ele>
        <time>2021-02-17T12:57:22Z</time>
      </trkpt>
      <trkpt lat="45.27928" lon="6.19312">
        <ele>1451.1</ele>
        <time>2021-02-17T12:57:23Z</time>
      </trkpt>
      <trkpt lat="45.27931" lon="6.19313">
        <ele>1450.6</ele>
        <time>2021-02-17T12:57:24Z</time>
      </trkpt>
      <trkpt lat="45.27932" lon="6.19314">
        <ele>1450.5</ele>
        <time>2021-02-17T12:57:25Z</time>
      </trkpt>
      <trkpt lat="45.27935" lon="6.19315">
        <ele>1450.1</ele>
        <time>2021-02-17T12:57:26Z</time>
      </trkpt>
      <trkpt lat="45.27936" lon="6.19316">
        <ele>1450</ele>
        <time>2021-02-17T12:57:27Z</time>
      </trkpt>
      <trkpt lat="45.27939" lon="6.19319">
        <ele>1449.5</ele>
        <time>2021-02-17T12:57:28Z</time>
      </trkpt>
      <trkpt lat="45.2794" lon="6.1932">
        <ele>1447.8</ele>
        <time>2021-02-17T12:57:29Z</time>
      </trkpt>
      <trkpt lat="45.27942" lon="6.19324">
        <ele>1447.4</ele>
        <time>2021-02-17T12:57:30Z</time>
      </trkpt>
      <trkpt lat="45.27944" lon="6.19329">
        <ele>1446.8</ele>
        <time>2021-02-17T12:57:31Z</time>
      </trkpt>
      <trkpt lat="45.27947" lon="6.19335">
        <ele>1446.3</ele>
        <time>2021-02-17T12:57:32Z</time>
      </trkpt>
      <trkpt lat="45.27949" lon="6.1934">
        <ele>1445.7</ele>
        <time>2021-02-17T12:57:33Z</time>
      </trkpt>
      <trkpt lat="45.2795" lon="6.19344">
        <ele>1445.2</ele>
        <time>2021-02-17T12:57:34Z</time>
      </trkpt>
      <trkpt lat="45.27951" lon="6.19348">
        <ele>1444.8</ele>
        <time>2021-02-17T12:57:35Z</time>
      </trkpt>
      <trkpt lat="45.27953" lon="6.19352">
        <ele>1444.4</ele>
        <time>2021-02-17T12:57:36Z</time>
      </trkpt>
      <trkpt lat="45.27955" lon="6.19356">
        <ele>1443.9</ele>
        <time>2021-02-17T12:57:37Z</time>
      </trkpt>
      <trkpt lat="45.27957" lon="6.1936">
        <ele>1443.4</ele>
        <time>2021-02-17T12:57:38Z</time>
      </trkpt>
      <trkpt lat="45.27959" lon="6.19364">
        <ele>1442.8</ele>
        <time>2021-02-17T12:57:39Z</time>
      </trkpt>
      <trkpt lat="45.27961" lon="6.19368">
        <ele>1442.3</ele>
        <time>2021-02-17T12:57:40Z</time>
      </trkpt>
      <trkpt lat="45.27964" lon="6.19372">
        <ele>1441.7</ele>
        <time>2021-02-17T12:57:41Z</time>
      </trkpt>
      <trkpt lat="45.27967" lon="6.19376">
        <ele>1441</ele>
        <time>2021-02-17T12:57:42Z</time>
      </trkpt>
      <trkpt lat="45.2797" lon="6.19381">
        <ele>1440.3</ele>
        <time>2021-02-17T12:57:43Z</time>
      </trkpt>
      <trkpt lat="45.27972" lon="6.19385">
        <ele>1439.7</ele>
        <time>2021-02-17T12:57:44Z</time>
      </trkpt>
      <trkpt lat="45.27974" lon="6.1939">
        <ele>1439.1</ele>
        <time>2021-02-17T12:57:45Z</time>
      </trkpt>
      <trkpt lat="45.27976" lon="6.19395">
        <ele>1438.4</ele>
        <time>2021-02-17T12:57:46Z</time>
      </trkpt>
      <trkpt lat="45.27978" lon="6.19401">
        <ele>1437.6</ele>
        <time>2021-02-17T12:57:47Z</time>
      </trkpt>
      <trkpt lat="45.2798" lon="6.1941">
        <ele>1436.7</ele>
        <time>2021-02-17T12:57:48Z</time>
      </trkpt>
      <trkpt lat="45.27981" lon="6.19419">
        <ele>1435.7</ele>
        <time>2021-02-17T12:57:49Z</time>
      </trkpt>
      <trkpt lat="45.27982" lon="6.19427">
        <ele>1434.9</ele>
        <time>2021-02-17T12:57:50Z</time>
      </trkpt>
      <trkpt lat="45.27984" lon="6.19434">
        <ele>1434.3</ele>
        <time>2021-02-17T12:57:51Z</time>
      </trkpt>
      <trkpt lat="45.27985" lon="6.19443">
        <ele>1433.6</ele>
        <time>2021-02-17T12:57:52Z</time>
      </trkpt>
      <trkpt lat="45.27985" lon="6.19451">
        <ele>1433.1</ele>
        <time>2021-02-17T12:57:53Z</time>
      </trkpt>
      <trkpt lat="45.27986" lon="6.19457">
        <ele>1432.6</ele>
        <time>2021-02-17T12:57:54Z</time>
      </trkpt>
      <trkpt lat="45.27987" lon="6.19464">
        <ele>1432.2</ele>
        <time>2021-02-17T12:57:55Z</time>
      </trkpt>
      <trkpt lat="45.27988" lon="6.1947">
        <ele>1431.8</ele>
        <time>2021-02-17T12:57:56Z</time>
      </trkpt>
      <trkpt lat="45.27989" lon="6.19475">
        <ele>1431.5</ele>
        <time>2021-02-17T12:57:57Z</time>
      </trkpt>
      <trkpt lat="45.2799" lon="6.19482">
        <ele>1431</ele>
        <time>2021-02-17T12:57:58Z</time>
      </trkpt>
      <trkpt lat="45.27991" lon="6.19488">
        <ele>1430.7</ele>
        <time>2021-02-17T12:57:59Z</time>
      </trkpt>
      <trkpt lat="45.27992" lon="6.19493">
        <ele>1430.4</ele>
        <time>2021-02-17T12:58:00Z</time>
      </trkpt>
      <trkpt lat="45.27993" lon="6.19498">
        <ele>1430.1</ele>
        <time>2021-02-17T12:58:01Z</time>
      </trkpt>
      <trkpt lat="45.27994" lon="6.19504">
        <ele>1429.8</ele>
        <time>2021-02-17T12:58:02Z</time>
      </trkpt>
      <trkpt lat="45.27994" lon="6.19508">
        <ele>1429.6</ele>
        <time>2021-02-17T12:58:03Z</time>
      </trkpt>
      <trkpt lat="45.27994" lon="6.19511">
        <ele>1429.5</ele>
        <time>2021-02-17T12:58:04Z</time>
      </trkpt>
      <trkpt lat="45.27995" lon="6.19515">
        <ele>1429.2</ele>
        <time>2021-02-17T12:58:05Z</time>
      </trkpt>
      <trkpt lat="45.27995" lon="6.19517">
        <ele>1429.2</ele>
        <time>2021-02-17T12:58:06Z</time>
      </trkpt>
      <trkpt lat="45.27997" lon="6.19521">
        <ele>1428.9</ele>
        <time>2021-02-17T12:58:07Z</time>
      </trkpt>
      <trkpt lat="45.27996" lon="6.19527">
        <ele>1428.6</ele>
        <time>2021-02-17T12:58:08Z</time>
      </trkpt>
      <trkpt lat="45.27998" lon="6.19533">
        <ele>1428.3</ele>
        <time>2021-02-17T12:58:09Z</time>
      </trkpt>
      <trkpt lat="45.27999" lon="6.19538">
        <ele>1428</ele>
        <time>2021-02-17T12:58:10Z</time>
      </trkpt>
      <trkpt lat="45.28" lon="6.19543">
        <ele>1427.7</ele>
        <time>2021-02-17T12:58:11Z</time>
      </trkpt>
      <trkpt lat="45.28001" lon="6.19547">
        <ele>1427.5</ele>
        <time>2021-02-17T12:58:12Z</time>
      </trkpt>
      <trkpt lat="45.28002" lon="6.19551">
        <ele>1427.2</ele>
        <time>2021-02-17T12:58:13Z</time>
      </trkpt>
      <trkpt lat="45.28004" lon="6.19555">
        <ele>1427</ele>
        <time>2021-02-17T12:58:14Z</time>
      </trkpt>
      <trkpt lat="45.28004" lon="6.19556">
        <ele>1426.9</ele>
        <time>2021-02-17T12:58:15Z</time>
      </trkpt>
      <trkpt lat="45.28005" lon="6.19558">
        <ele>1426.8</ele>
        <time>2021-02-17T12:58:16Z</time>
      </trkpt>
      <trkpt lat="45.28005" lon="6.19558">
        <ele>1426.8</ele>
        <time>2021-02-17T12:58:17Z</time>
      </trkpt>
      <trkpt lat="45.28005" lon="6.19558">
        <ele>1426.8</ele>
        <time>2021-02-17T12:58:18Z</time>
      </trkpt>
      <trkpt lat="45.28005" lon="6.19558">
        <ele>1426.8</ele>
        <time>2021-02-17T12:58:19Z</time>
      </trkpt>
      <trkpt lat="45.28004" lon="6.19551">
        <ele>1426.4</ele>
        <time>2021-02-17T12:58:20Z</time>
      </trkpt>
      <trkpt lat="45.28004" lon="6.19551">
        <ele>1426.4</ele>
        <time>2021-02-17T12:58:21Z</time>
      </trkpt>
      <trkpt lat="45.28004" lon="6.19551">
        <ele>1426.4</ele>
        <time>2021-02-17T12:58:22Z</time>
      </trkpt>
      <trkpt lat="45.28004" lon="6.19551">
        <ele>1426.4</ele>
        <time>2021-02-17T12:58:23Z</time>
      </trkpt>
      <trkpt lat="45.28004" lon="6.19551">
        <ele>1426.4</ele>
        <time>2021-02-17T12:58:24Z</time>
      </trkpt>
      <trkpt lat="45.28004" lon="6.19551">
        <ele>1426.4</ele>
        <time>2021-02-17T12:58:25Z</time>
      </trkpt>
      <trkpt lat="45.28004" lon="6.19551">
        <ele>1426.4</ele>
        <time>2021-02-17T12:58:26Z</time>
      </trkpt>
      <trkpt lat="45.28006" lon="6.1956">
        <ele>1425.8</ele>
        <time>2021-02-17T12:58:43Z</time>
      </trkpt>
      <trkpt lat="45.28006" lon="6.19562">
        <ele>1425.1</ele>
        <time>2021-02-17T12:58:44Z</time>
      </trkpt>
      <trkpt lat="45.28006" lon="6.19566">
        <ele>1424.3</ele>
        <time>2021-02-17T12:58:45Z</time>
      </trkpt>
      <trkpt lat="45.28007" lon="6.19569">
        <ele>1424.3</ele>
        <time>2021-02-17T12:58:46Z</time>
      </trkpt>
      <trkpt lat="45.28007" lon="6.19573">
        <ele>1423.6</ele>
        <time>2021-02-17T12:58:47Z</time>
      </trkpt>
      <trkpt lat="45.28006" lon="6.19575">
        <ele>1422.8</ele>
        <time>2021-02-17T12:58:48Z</time>
      </trkpt>
      <trkpt lat="45.28004" lon="6.19576">
        <ele>1421.9</ele>
        <time>2021-02-17T12:58:49Z</time>
      </trkpt>
      <trkpt lat="45.28" lon="6.19576">
        <ele>1420.9</ele>
        <time>2021-02-17T12:58:50Z</time>
      </trkpt>
      <trkpt lat="45.27996" lon="6.19576">
        <ele>1419.1</ele>
        <time>2021-02-17T12:58:51Z</time>
      </trkpt>
      <trkpt lat="45.27992" lon="6.19576">
        <ele>1418.3</ele>
        <time>2021-02-17T12:58:52Z</time>
      </trkpt>
      <trkpt lat="45.27989" lon="6.19577">
        <ele>1417.6</ele>
        <time>2021-02-17T12:58:53Z</time>
      </trkpt>
      <trkpt lat="45.27985" lon="6.19578">
        <ele>1416.2</ele>
        <time>2021-02-17T12:58:54Z</time>
      </trkpt>
      <trkpt lat="45.27984" lon="6.19579">
        <ele>1416.2</ele>
        <time>2021-02-17T12:58:55Z</time>
      </trkpt>
      <trkpt lat="45.27984" lon="6.19586">
        <ele>1414.6</ele>
        <time>2021-02-17T12:58:56Z</time>
      </trkpt>
      <trkpt lat="45.27985" lon="6.19596">
        <ele>1412.9</ele>
        <time>2021-02-17T12:58:57Z</time>
      </trkpt>
      <trkpt lat="45.27986" lon="6.19604">
        <ele>1411</ele>
        <time>2021-02-17T12:58:58Z</time>
      </trkpt>
      <trkpt lat="45.27987" lon="6.19611">
        <ele>1410.7</ele>
        <time>2021-02-17T12:58:59Z</time>
      </trkpt>
      <trkpt lat="45.27988" lon="6.19617">
        <ele>1408.3</ele>
        <time>2021-02-17T12:59:00Z</time>
      </trkpt>
      <trkpt lat="45.27989" lon="6.19623">
        <ele>1407.1</ele>
        <time>2021-02-17T12:59:01Z</time>
      </trkpt>
      <trkpt lat="45.2799" lon="6.19628">
        <ele>1406.8</ele>
        <time>2021-02-17T12:59:02Z</time>
      </trkpt>
      <trkpt lat="45.27991" lon="6.19631">
        <ele>1405</ele>
        <time>2021-02-17T12:59:03Z</time>
      </trkpt>
      <trkpt lat="45.27991" lon="6.19633">
        <ele>1405</ele>
        <time>2021-02-17T12:59:04Z</time>
      </trkpt>
      <trkpt lat="45.27991" lon="6.19634">
        <ele>1403.9</ele>
        <time>2021-02-17T12:59:05Z</time>
      </trkpt>
      <trkpt lat="45.27991" lon="6.19635">
        <ele>1403.9</ele>
        <time>2021-02-17T12:59:06Z</time>
      </trkpt>
      <trkpt lat="45.27991" lon="6.19635">
        <ele>1404</ele>
        <time>2021-02-17T12:59:07Z</time>
      </trkpt>
      <trkpt lat="45.2799" lon="6.19633">
        <ele>1404</ele>
        <time>2021-02-17T12:59:08Z</time>
      </trkpt>
      <trkpt lat="45.2799" lon="6.19633">
        <ele>1405.1</ele>
        <time>2021-02-17T12:59:09Z</time>
      </trkpt>
      <trkpt lat="45.2799" lon="6.19633">
        <ele>1405.1</ele>
        <time>2021-02-17T12:59:10Z</time>
      </trkpt>
      <trkpt lat="45.2799" lon="6.19633">
        <ele>1405.1</ele>
        <time>2021-02-17T12:59:11Z</time>
      </trkpt>
      <trkpt lat="45.2799" lon="6.19633">
        <ele>1405.1</ele>
        <time>2021-02-17T12:59:12Z</time>
      </trkpt>
      <trkpt lat="45.2799" lon="6.19633">
        <ele>1405.1</ele>
        <time>2021-02-17T12:59:13Z</time>
      </trkpt>
      <trkpt lat="45.27989" lon="6.1963">
        <ele>1404.3</ele>
        <time>2021-02-17T12:59:14Z</time>
      </trkpt>
      <trkpt lat="45.27989" lon="6.1963">
        <ele>1404.4</ele>
        <time>2021-02-17T12:59:15Z</time>
      </trkpt>
      <trkpt lat="45.27989" lon="6.1963">
        <ele>1404.4</ele>
        <time>2021-02-17T12:59:16Z</time>
      </trkpt>
      <trkpt lat="45.27989" lon="6.19638">
        <ele>1402.2</ele>
        <time>2021-02-17T12:59:19Z</time>
      </trkpt>
      <trkpt lat="45.27989" lon="6.1964">
        <ele>1402.2</ele>
        <time>2021-02-17T12:59:20Z</time>
      </trkpt>
      <trkpt lat="45.27989" lon="6.1964">
        <ele>1402.2</ele>
        <time>2021-02-17T12:59:21Z</time>
      </trkpt>
      <trkpt lat="45.27989" lon="6.1964">
        <ele>1402.2</ele>
        <time>2021-02-17T12:59:22Z</time>
      </trkpt>
      <trkpt lat="45.27989" lon="6.1964">
        <ele>1402.3</ele>
        <time>2021-02-17T12:59:23Z</time>
      </trkpt>
      <trkpt lat="45.27989" lon="6.1964">
        <ele>1402.3</ele>
        <time>2021-02-17T12:59:24Z</time>
      </trkpt>
      <trkpt lat="45.27989" lon="6.1964">
        <ele>1402.3</ele>
        <time>2021-02-17T12:59:25Z</time>
      </trkpt>
      <trkpt lat="45.27989" lon="6.1964">
        <ele>1402.3</ele>
        <time>2021-02-17T12:59:26Z</time>
      </trkpt>
      <trkpt lat="45.27989" lon="6.1964">
        <ele>1402.3</ele>
        <time>2021-02-17T12:59:27Z</time>
      </trkpt>
      <trkpt lat="45.27989" lon="6.1964">
        <ele>1402.3</ele>
        <time>2021-02-17T12:59:28Z</time>
      </trkpt>
      <trkpt lat="45.27989" lon="6.1964">
        <ele>1402.3</ele>
        <time>2021-02-17T12:59:29Z</time>
      </trkpt>
      <trkpt lat="45.27989" lon="6.1964">
        <ele>1402.3</ele>
        <time>2021-02-17T12:59:30Z</time>
      </trkpt>
      <trkpt lat="45.27989" lon="6.1964">
        <ele>1402.3</ele>
        <time>2021-02-17T12:59:31Z</time>
      </trkpt>
      <trkpt lat="45.27989" lon="6.19657">
        <ele>1398.1</ele>
        <time>2021-02-17T12:59:53Z</time>
      </trkpt>
      <trkpt lat="45.27991" lon="6.19661">
        <ele>1397.7</ele>
        <time>2021-02-17T12:59:54Z</time>
      </trkpt>
      <trkpt lat="45.27992" lon="6.19666">
        <ele>1396.7</ele>
        <time>2021-02-17T12:59:55Z</time>
      </trkpt>
      <trkpt lat="45.27994" lon="6.1967">
        <ele>1396.3</ele>
        <time>2021-02-17T12:59:56Z</time>
      </trkpt>
      <trkpt lat="45.27996" lon="6.19673">
        <ele>1396</ele>
        <time>2021-02-17T12:59:57Z</time>
      </trkpt>
      <trkpt lat="45.28" lon="6.19668">
        <ele>1397.8</ele>
        <time>2021-02-17T12:59:58Z</time>
      </trkpt>
      <trkpt lat="45.28001" lon="6.1967">
        <ele>1397.8</ele>
        <time>2021-02-17T12:59:59Z</time>
      </trkpt>
      <trkpt lat="45.28001" lon="6.19671">
        <ele>1397.8</ele>
        <time>2021-02-17T13:00:00Z</time>
      </trkpt>
      <trkpt lat="45.28001" lon="6.19673">
        <ele>1396.8</ele>
        <time>2021-02-17T13:00:01Z</time>
      </trkpt>
      <trkpt lat="45.28001" lon="6.19674">
        <ele>1396.8</ele>
        <time>2021-02-17T13:00:02Z</time>
      </trkpt>
      <trkpt lat="45.28001" lon="6.19675">
        <ele>1396.8</ele>
        <time>2021-02-17T13:00:03Z</time>
      </trkpt>
      <trkpt lat="45.28001" lon="6.19676">
        <ele>1396.8</ele>
        <time>2021-02-17T13:00:04Z</time>
      </trkpt>
      <trkpt lat="45.28001" lon="6.19677">
        <ele>1395.8</ele>
        <time>2021-02-17T13:00:05Z</time>
      </trkpt>
      <trkpt lat="45.28" lon="6.19678">
        <ele>1395.8</ele>
        <time>2021-02-17T13:00:06Z</time>
      </trkpt>
      <trkpt lat="45.28" lon="6.1968">
        <ele>1395.8</ele>
        <time>2021-02-17T13:00:07Z</time>
      </trkpt>
      <trkpt lat="45.28" lon="6.19681">
        <ele>1394.8</ele>
        <time>2021-02-17T13:00:08Z</time>
      </trkpt>
      <trkpt lat="45.28" lon="6.19682">
        <ele>1394.8</ele>
        <time>2021-02-17T13:00:09Z</time>
      </trkpt>
      <trkpt lat="45.28" lon="6.19683">
        <ele>1394.8</ele>
        <time>2021-02-17T13:00:10Z</time>
      </trkpt>
      <trkpt lat="45.28" lon="6.19684">
        <ele>1394.8</ele>
        <time>2021-02-17T13:00:36Z</time>
      </trkpt>
      <trkpt lat="45.28" lon="6.19686">
        <ele>1393.8</ele>
        <time>2021-02-17T13:00:37Z</time>
      </trkpt>
      <trkpt lat="45.28003" lon="6.19698">
        <ele>1391</ele>
        <time>2021-02-17T13:00:38Z</time>
      </trkpt>
      <trkpt lat="45.28003" lon="6.19705">
        <ele>1389.8</ele>
        <time>2021-02-17T13:00:39Z</time>
      </trkpt>
      <trkpt lat="45.28003" lon="6.19712">
        <ele>1387.6</ele>
        <time>2021-02-17T13:00:40Z</time>
      </trkpt>
      <trkpt lat="45.28002" lon="6.19721">
        <ele>1385</ele>
        <time>2021-02-17T13:00:41Z</time>
      </trkpt>
      <trkpt lat="45.28003" lon="6.1973">
        <ele>1383.8</ele>
        <time>2021-02-17T13:00:42Z</time>
      </trkpt>
      <trkpt lat="45.28005" lon="6.19739">
        <ele>1381.9</ele>
        <time>2021-02-17T13:00:43Z</time>
      </trkpt>
      <trkpt lat="45.28008" lon="6.19749">
        <ele>1379.7</ele>
        <time>2021-02-17T13:00:44Z</time>
      </trkpt>
      <trkpt lat="45.28009" lon="6.19757">
        <ele>1379.4</ele>
        <time>2021-02-17T13:00:45Z</time>
      </trkpt>
      <trkpt lat="45.28009" lon="6.19763">
        <ele>1377.7</ele>
        <time>2021-02-17T13:00:46Z</time>
      </trkpt>
      <trkpt lat="45.28007" lon="6.19766">
        <ele>1377.1</ele>
        <time>2021-02-17T13:00:47Z</time>
      </trkpt>
      <trkpt lat="45.28005" lon="6.19771">
        <ele>1376.4</ele>
        <time>2021-02-17T13:00:48Z</time>
      </trkpt>
      <trkpt lat="45.28005" lon="6.19778">
        <ele>1374.8</ele>
        <time>2021-02-17T13:00:49Z</time>
      </trkpt>
      <trkpt lat="45.28006" lon="6.19783">
        <ele>1374.1</ele>
        <time>2021-02-17T13:00:50Z</time>
      </trkpt>
      <trkpt lat="45.28007" lon="6.19784">
        <ele>1373.4</ele>
        <time>2021-02-17T13:00:51Z</time>
      </trkpt>
      <trkpt lat="45.28007" lon="6.19787">
        <ele>1373.4</ele>
        <time>2021-02-17T13:00:52Z</time>
      </trkpt>
      <trkpt lat="45.28007" lon="6.19786">
        <ele>1373.4</ele>
        <time>2021-02-17T13:00:53Z</time>
      </trkpt>
      <trkpt lat="45.28007" lon="6.19786">
        <ele>1373.4</ele>
        <time>2021-02-17T13:00:54Z</time>
      </trkpt>
      <trkpt lat="45.28007" lon="6.19786">
        <ele>1373.4</ele>
        <time>2021-02-17T13:00:55Z</time>
      </trkpt>
      <trkpt lat="45.28007" lon="6.19786">
        <ele>1373.4</ele>
        <time>2021-02-17T13:00:56Z</time>
      </trkpt>
      <trkpt lat="45.28007" lon="6.19786">
        <ele>1373.4</ele>
        <time>2021-02-17T13:00:57Z</time>
      </trkpt>
      <trkpt lat="45.28007" lon="6.19786">
        <ele>1373.4</ele>
        <time>2021-02-17T13:00:58Z</time>
      </trkpt>
      <trkpt lat="45.28007" lon="6.19786">
        <ele>1373.4</ele>
        <time>2021-02-17T13:00:59Z</time>
      </trkpt>
      <trkpt lat="45.28007" lon="6.19786">
        <ele>1373.4</ele>
        <time>2021-02-17T13:01:00Z</time>
      </trkpt>
      <trkpt lat="45.28007" lon="6.19786">
        <ele>1373.4</ele>
        <time>2021-02-17T13:01:01Z</time>
      </trkpt>
      <trkpt lat="45.28007" lon="6.19786">
        <ele>1373.5</ele>
        <time>2021-02-17T13:01:02Z</time>
      </trkpt>
      <trkpt lat="45.28007" lon="6.19786">
        <ele>1373.5</ele>
        <time>2021-02-17T13:01:03Z</time>
      </trkpt>
      <trkpt lat="45.28007" lon="6.19786">
        <ele>1373.5</ele>
        <time>2021-02-17T13:01:04Z</time>
      </trkpt>
      <trkpt lat="45.28003" lon="6.19789">
        <ele>1372.4</ele>
        <time>2021-02-17T13:01:06Z</time>
      </trkpt>
      <trkpt lat="45.28002" lon="6.19793">
        <ele>1371.7</ele>
        <time>2021-02-17T13:01:07Z</time>
      </trkpt>
      <trkpt lat="45.28003" lon="6.19798">
        <ele>1371.2</ele>
        <time>2021-02-17T13:01:08Z</time>
      </trkpt>
      <trkpt lat="45.28003" lon="6.19799">
        <ele>1371.2</ele>
        <time>2021-02-17T13:01:09Z</time>
      </trkpt>
      <trkpt lat="45.28003" lon="6.19803">
        <ele>1370.7</ele>
        <time>2021-02-17T13:01:10Z</time>
      </trkpt>
      <trkpt lat="45.28003" lon="6.19808">
        <ele>1370.2</ele>
        <time>2021-02-17T13:01:11Z</time>
      </trkpt>
      <trkpt lat="45.28004" lon="6.19809">
        <ele>1370.2</ele>
        <time>2021-02-17T13:01:12Z</time>
      </trkpt>
      <trkpt lat="45.28004" lon="6.1981">
        <ele>1370.1</ele>
        <time>2021-02-17T13:01:13Z</time>
      </trkpt>
      <trkpt lat="45.28004" lon="6.19812">
        <ele>1370</ele>
        <time>2021-02-17T13:01:14Z</time>
      </trkpt>
      <trkpt lat="45.28004" lon="6.19813">
        <ele>1369.9</ele>
        <time>2021-02-17T13:01:15Z</time>
      </trkpt>
      <trkpt lat="45.28005" lon="6.19814">
        <ele>1369.9</ele>
        <time>2021-02-17T13:01:16Z</time>
      </trkpt>
      <trkpt lat="45.28005" lon="6.19816">
        <ele>1369.8</ele>
        <time>2021-02-17T13:01:17Z</time>
      </trkpt>
      <trkpt lat="45.28006" lon="6.19817">
        <ele>1369.7</ele>
        <time>2021-02-17T13:01:18Z</time>
      </trkpt>
      <trkpt lat="45.28007" lon="6.19818">
        <ele>1369.6</ele>
        <time>2021-02-17T13:01:19Z</time>
      </trkpt>
      <trkpt lat="45.28007" lon="6.19819">
        <ele>1369.5</ele>
        <time>2021-02-17T13:01:20Z</time>
      </trkpt>
      <trkpt lat="45.28008" lon="6.1982">
        <ele>1369.5</ele>
        <time>2021-02-17T13:01:21Z</time>
      </trkpt>
      <trkpt lat="45.28008" lon="6.19821">
        <ele>1369.4</ele>
        <time>2021-02-17T13:01:22Z</time>
      </trkpt>
      <trkpt lat="45.2801" lon="6.19824">
        <ele>1369.2</ele>
        <time>2021-02-17T13:01:23Z</time>
      </trkpt>
      <trkpt lat="45.2801" lon="6.19826">
        <ele>1369.1</ele>
        <time>2021-02-17T13:01:24Z</time>
      </trkpt>
      <trkpt lat="45.28011" lon="6.19828">
        <ele>1368.9</ele>
        <time>2021-02-17T13:01:25Z</time>
      </trkpt>
      <trkpt lat="45.28012" lon="6.1983">
        <ele>1368.9</ele>
        <time>2021-02-17T13:01:26Z</time>
      </trkpt>
      <trkpt lat="45.28012" lon="6.1983">
        <ele>1368.8</ele>
        <time>2021-02-17T13:01:27Z</time>
      </trkpt>
      <trkpt lat="45.28012" lon="6.19831">
        <ele>1368.8</ele>
        <time>2021-02-17T13:01:28Z</time>
      </trkpt>
      <trkpt lat="45.28012" lon="6.19831">
        <ele>1368.8</ele>
        <time>2021-02-17T13:01:29Z</time>
      </trkpt>
      <trkpt lat="45.28012" lon="6.19831">
        <ele>1368.8</ele>
        <time>2021-02-17T13:01:30Z</time>
      </trkpt>
      <trkpt lat="45.28012" lon="6.19831">
        <ele>1368.8</ele>
        <time>2021-02-17T13:01:31Z</time>
      </trkpt>
      <trkpt lat="45.28012" lon="6.19833">
        <ele>1368.7</ele>
        <time>2021-02-17T13:01:32Z</time>
      </trkpt>
      <trkpt lat="45.28012" lon="6.19835">
        <ele>1368.6</ele>
        <time>2021-02-17T13:01:33Z</time>
      </trkpt>
      <trkpt lat="45.28012" lon="6.19838">
        <ele>1368.5</ele>
        <time>2021-02-17T13:01:34Z</time>
      </trkpt>
      <trkpt lat="45.28012" lon="6.19839">
        <ele>1368.5</ele>
        <time>2021-02-17T13:01:35Z</time>
      </trkpt>
      <trkpt lat="45.28012" lon="6.19841">
        <ele>1368.5</ele>
        <time>2021-02-17T13:01:36Z</time>
      </trkpt>
      <trkpt lat="45.28012" lon="6.19842">
        <ele>1368.4</ele>
        <time>2021-02-17T13:01:37Z</time>
      </trkpt>
      <trkpt lat="45.28012" lon="6.19843">
        <ele>1368.4</ele>
        <time>2021-02-17T13:01:38Z</time>
      </trkpt>
      <trkpt lat="45.28012" lon="6.19844">
        <ele>1368.4</ele>
        <time>2021-02-17T13:01:39Z</time>
      </trkpt>
      <trkpt lat="45.28013" lon="6.19844">
        <ele>1368.3</ele>
        <time>2021-02-17T13:01:40Z</time>
      </trkpt>
      <trkpt lat="45.28013" lon="6.19845">
        <ele>1368.3</ele>
        <time>2021-02-17T13:01:41Z</time>
      </trkpt>
      <trkpt lat="45.28013" lon="6.19845">
        <ele>1368.3</ele>
        <time>2021-02-17T13:01:42Z</time>
      </trkpt>
      <trkpt lat="45.28013" lon="6.19846">
        <ele>1368.3</ele>
        <time>2021-02-17T13:01:43Z</time>
      </trkpt>
      <trkpt lat="45.28013" lon="6.19846">
        <ele>1368.3</ele>
        <time>2021-02-17T13:01:44Z</time>
      </trkpt>
      <trkpt lat="45.28013" lon="6.19847">
        <ele>1368.2</ele>
        <time>2021-02-17T13:01:45Z</time>
      </trkpt>
      <trkpt lat="45.28013" lon="6.19848">
        <ele>1368.2</ele>
        <time>2021-02-17T13:01:46Z</time>
      </trkpt>
      <trkpt lat="45.28014" lon="6.1985">
        <ele>1368.1</ele>
        <time>2021-02-17T13:01:47Z</time>
      </trkpt>
      <trkpt lat="45.28014" lon="6.19851">
        <ele>1368.1</ele>
        <time>2021-02-17T13:01:48Z</time>
      </trkpt>
      <trkpt lat="45.28014" lon="6.19852">
        <ele>1368.1</ele>
        <time>2021-02-17T13:01:49Z</time>
      </trkpt>
      <trkpt lat="45.28015" lon="6.19853">
        <ele>1368</ele>
        <time>2021-02-17T13:01:50Z</time>
      </trkpt>
      <trkpt lat="45.28014" lon="6.19854">
        <ele>1368</ele>
        <time>2021-02-17T13:01:51Z</time>
      </trkpt>
      <trkpt lat="45.28014" lon="6.19854">
        <ele>1368</ele>
        <time>2021-02-17T13:01:52Z</time>
      </trkpt>
      <trkpt lat="45.28014" lon="6.19854">
        <ele>1368</ele>
        <time>2021-02-17T13:01:53Z</time>
      </trkpt>
      <trkpt lat="45.28014" lon="6.19854">
        <ele>1368</ele>
        <time>2021-02-17T13:01:54Z</time>
      </trkpt>
      <trkpt lat="45.28015" lon="6.19854">
        <ele>1368</ele>
        <time>2021-02-17T13:01:55Z</time>
      </trkpt>
      <trkpt lat="45.28015" lon="6.19855">
        <ele>1368</ele>
        <time>2021-02-17T13:01:56Z</time>
      </trkpt>
      <trkpt lat="45.28016" lon="6.19856">
        <ele>1367.9</ele>
        <time>2021-02-17T13:01:57Z</time>
      </trkpt>
      <trkpt lat="45.28016" lon="6.19857">
        <ele>1367.9</ele>
        <time>2021-02-17T13:01:58Z</time>
      </trkpt>
      <trkpt lat="45.28016" lon="6.19858">
        <ele>1367.9</ele>
        <time>2021-02-17T13:01:59Z</time>
      </trkpt>
      <trkpt lat="45.28016" lon="6.19859">
        <ele>1367.9</ele>
        <time>2021-02-17T13:02:00Z</time>
      </trkpt>
      <trkpt lat="45.28016" lon="6.19859">
        <ele>1367.9</ele>
        <time>2021-02-17T13:02:01Z</time>
      </trkpt>
      <trkpt lat="45.28016" lon="6.19859">
        <ele>1367.9</ele>
        <time>2021-02-17T13:02:02Z</time>
      </trkpt>
      <trkpt lat="45.28016" lon="6.19859">
        <ele>1367.8</ele>
        <time>2021-02-17T13:02:03Z</time>
      </trkpt>
      <trkpt lat="45.28016" lon="6.1986">
        <ele>1367.8</ele>
        <time>2021-02-17T13:02:04Z</time>
      </trkpt>
      <trkpt lat="45.28016" lon="6.1986">
        <ele>1367.8</ele>
        <time>2021-02-17T13:02:05Z</time>
      </trkpt>
      <trkpt lat="45.28017" lon="6.19861">
        <ele>1367.8</ele>
        <time>2021-02-17T13:02:06Z</time>
      </trkpt>
      <trkpt lat="45.28017" lon="6.19862">
        <ele>1367.8</ele>
        <time>2021-02-17T13:02:07Z</time>
      </trkpt>
      <trkpt lat="45.28017" lon="6.19862">
        <ele>1367.8</ele>
        <time>2021-02-17T13:02:08Z</time>
      </trkpt>
      <trkpt lat="45.28017" lon="6.19863">
        <ele>1367.8</ele>
        <time>2021-02-17T13:02:09Z</time>
      </trkpt>
      <trkpt lat="45.28017" lon="6.19863">
        <ele>1367.8</ele>
        <time>2021-02-17T13:02:10Z</time>
      </trkpt>
      <trkpt lat="45.28017" lon="6.19863">
        <ele>1367.8</ele>
        <time>2021-02-17T13:02:11Z</time>
      </trkpt>
      <trkpt lat="45.28017" lon="6.19863">
        <ele>1367.8</ele>
        <time>2021-02-17T13:02:12Z</time>
      </trkpt>
      <trkpt lat="45.28017" lon="6.19863">
        <ele>1367.8</ele>
        <time>2021-02-17T13:02:13Z</time>
      </trkpt>
      <trkpt lat="45.28017" lon="6.19863">
        <ele>1367.7</ele>
        <time>2021-02-17T13:02:14Z</time>
      </trkpt>
      <trkpt lat="45.28018" lon="6.19864">
        <ele>1367.7</ele>
        <time>2021-02-17T13:02:15Z</time>
      </trkpt>
      <trkpt lat="45.28018" lon="6.19865">
        <ele>1367.7</ele>
        <time>2021-02-17T13:02:16Z</time>
      </trkpt>
      <trkpt lat="45.28018" lon="6.19866">
        <ele>1367.7</ele>
        <time>2021-02-17T13:02:17Z</time>
      </trkpt>
      <trkpt lat="45.28018" lon="6.19867">
        <ele>1367.7</ele>
        <time>2021-02-17T13:02:18Z</time>
      </trkpt>
      <trkpt lat="45.28019" lon="6.19868">
        <ele>1367.7</ele>
        <time>2021-02-17T13:02:19Z</time>
      </trkpt>
      <trkpt lat="45.28019" lon="6.1987">
        <ele>1367.7</ele>
        <time>2021-02-17T13:02:20Z</time>
      </trkpt>
      <trkpt lat="45.28019" lon="6.19871">
        <ele>1367.7</ele>
        <time>2021-02-17T13:02:21Z</time>
      </trkpt>
      <trkpt lat="45.2802" lon="6.19872">
        <ele>1367.8</ele>
        <time>2021-02-17T13:02:22Z</time>
      </trkpt>
      <trkpt lat="45.2802" lon="6.19874">
        <ele>1367.8</ele>
        <time>2021-02-17T13:02:23Z</time>
      </trkpt>
      <trkpt lat="45.28021" lon="6.19875">
        <ele>1367.8</ele>
        <time>2021-02-17T13:02:24Z</time>
      </trkpt>
      <trkpt lat="45.28021" lon="6.19876">
        <ele>1367.8</ele>
        <time>2021-02-17T13:02:25Z</time>
      </trkpt>
      <trkpt lat="45.28022" lon="6.19879">
        <ele>1368</ele>
        <time>2021-02-17T13:02:26Z</time>
      </trkpt>
      <trkpt lat="45.28023" lon="6.1988">
        <ele>1368</ele>
        <time>2021-02-17T13:02:27Z</time>
      </trkpt>
      <trkpt lat="45.28023" lon="6.19882">
        <ele>1368.1</ele>
        <time>2021-02-17T13:02:28Z</time>
      </trkpt>
      <trkpt lat="45.28024" lon="6.19884">
        <ele>1368.2</ele>
        <time>2021-02-17T13:02:29Z</time>
      </trkpt>
      <trkpt lat="45.28024" lon="6.19885">
        <ele>1368.3</ele>
        <time>2021-02-17T13:02:30Z</time>
      </trkpt>
      <trkpt lat="45.28025" lon="6.19887">
        <ele>1368.4</ele>
        <time>2021-02-17T13:02:31Z</time>
      </trkpt>
      <trkpt lat="45.28025" lon="6.19888">
        <ele>1368.5</ele>
        <time>2021-02-17T13:02:32Z</time>
      </trkpt>
      <trkpt lat="45.28026" lon="6.1989">
        <ele>1368.7</ele>
        <time>2021-02-17T13:02:33Z</time>
      </trkpt>
      <trkpt lat="45.28026" lon="6.19891">
        <ele>1368.8</ele>
        <time>2021-02-17T13:02:34Z</time>
      </trkpt>
      <trkpt lat="45.28027" lon="6.19893">
        <ele>1368.9</ele>
        <time>2021-02-17T13:02:51Z</time>
      </trkpt>
      <trkpt lat="45.28027" lon="6.19895">
        <ele>1369.1</ele>
        <time>2021-02-17T13:02:52Z</time>
      </trkpt>
      <trkpt lat="45.28028" lon="6.19897">
        <ele>1369.3</ele>
        <time>2021-02-17T13:02:53Z</time>
      </trkpt>
      <trkpt lat="45.28028" lon="6.19898">
        <ele>1369.4</ele>
        <time>2021-02-17T13:02:54Z</time>
      </trkpt>
      <trkpt lat="45.28028" lon="6.199">
        <ele>1369.6</ele>
        <time>2021-02-17T13:02:55Z</time>
      </trkpt>
      <trkpt lat="45.28029" lon="6.19901">
        <ele>1369.7</ele>
        <time>2021-02-17T13:02:56Z</time>
      </trkpt>
      <trkpt lat="45.28029" lon="6.19902">
        <ele>1369.8</ele>
        <time>2021-02-17T13:02:57Z</time>
      </trkpt>
      <trkpt lat="45.28029" lon="6.19903">
        <ele>1369.9</ele>
        <time>2021-02-17T13:02:58Z</time>
      </trkpt>
      <trkpt lat="45.28029" lon="6.19904">
        <ele>1370</ele>
        <time>2021-02-17T13:02:59Z</time>
      </trkpt>
      <trkpt lat="45.2803" lon="6.19905">
        <ele>1370.1</ele>
        <time>2021-02-17T13:03:00Z</time>
      </trkpt>
      <trkpt lat="45.2803" lon="6.19906">
        <ele>1370.2</ele>
        <time>2021-02-17T13:03:01Z</time>
      </trkpt>
      <trkpt lat="45.2803" lon="6.19907">
        <ele>1370.2</ele>
        <time>2021-02-17T13:03:02Z</time>
      </trkpt>
      <trkpt lat="45.28031" lon="6.19907">
        <ele>1370.3</ele>
        <time>2021-02-17T13:03:03Z</time>
      </trkpt>
      <trkpt lat="45.28031" lon="6.19908">
        <ele>1370.4</ele>
        <time>2021-02-17T13:03:04Z</time>
      </trkpt>
      <trkpt lat="45.28032" lon="6.19909">
        <ele>1370.5</ele>
        <time>2021-02-17T13:03:05Z</time>
      </trkpt>
      <trkpt lat="45.28032" lon="6.1991">
        <ele>1370.6</ele>
        <time>2021-02-17T13:03:06Z</time>
      </trkpt>
      <trkpt lat="45.28032" lon="6.19911">
        <ele>1370.8</ele>
        <time>2021-02-17T13:03:07Z</time>
      </trkpt>
      <trkpt lat="45.28033" lon="6.19912">
        <ele>1370.9</ele>
        <time>2021-02-17T13:03:08Z</time>
      </trkpt>
      <trkpt lat="45.28033" lon="6.19913">
        <ele>1371</ele>
        <time>2021-02-17T13:03:09Z</time>
      </trkpt>
      <trkpt lat="45.28033" lon="6.19914">
        <ele>1371.1</ele>
        <time>2021-02-17T13:03:10Z</time>
      </trkpt>
      <trkpt lat="45.28034" lon="6.19916">
        <ele>1371.2</ele>
        <time>2021-02-17T13:03:11Z</time>
      </trkpt>
      <trkpt lat="45.28034" lon="6.19917">
        <ele>1371.3</ele>
        <time>2021-02-17T13:03:12Z</time>
      </trkpt>
      <trkpt lat="45.28034" lon="6.19918">
        <ele>1371.4</ele>
        <time>2021-02-17T13:03:13Z</time>
      </trkpt>
      <trkpt lat="45.28034" lon="6.19919">
        <ele>1371.5</ele>
        <time>2021-02-17T13:03:14Z</time>
      </trkpt>
      <trkpt lat="45.28035" lon="6.1992">
        <ele>1371.6</ele>
        <time>2021-02-17T13:03:15Z</time>
      </trkpt>
      <trkpt lat="45.28035" lon="6.19922">
        <ele>1371.7</ele>
        <time>2021-02-17T13:03:16Z</time>
      </trkpt>
      <trkpt lat="45.28035" lon="6.19923">
        <ele>1371.8</ele>
        <time>2021-02-17T13:03:17Z</time>
      </trkpt>
      <trkpt lat="45.28035" lon="6.19924">
        <ele>1371.9</ele>
        <time>2021-02-17T13:03:18Z</time>
      </trkpt>
      <trkpt lat="45.28035" lon="6.19926">
        <ele>1372</ele>
        <time>2021-02-17T13:03:19Z</time>
      </trkpt>
      <trkpt lat="45.28035" lon="6.1993">
        <ele>1372.4</ele>
        <time>2021-02-17T13:03:20Z</time>
      </trkpt>
      <trkpt lat="45.28035" lon="6.19931">
        <ele>1372.5</ele>
        <time>2021-02-17T13:03:21Z</time>
      </trkpt>
      <trkpt lat="45.28036" lon="6.19932">
        <ele>1372.6</ele>
        <time>2021-02-17T13:03:22Z</time>
      </trkpt>
      <trkpt lat="45.28036" lon="6.19932">
        <ele>1372.7</ele>
        <time>2021-02-17T13:03:23Z</time>
      </trkpt>
      <trkpt lat="45.28037" lon="6.19932">
        <ele>1372.7</ele>
        <time>2021-02-17T13:03:24Z</time>
      </trkpt>
      <trkpt lat="45.28037" lon="6.19932">
        <ele>1372.8</ele>
        <time>2021-02-17T13:03:25Z</time>
      </trkpt>
      <trkpt lat="45.28037" lon="6.19932">
        <ele>1372.8</ele>
        <time>2021-02-17T13:03:26Z</time>
      </trkpt>
      <trkpt lat="45.28037" lon="6.19932">
        <ele>1372.8</ele>
        <time>2021-02-17T13:03:27Z</time>
      </trkpt>
      <trkpt lat="45.28037" lon="6.19932">
        <ele>1372.8</ele>
        <time>2021-02-17T13:03:28Z</time>
      </trkpt>
      <trkpt lat="45.28037" lon="6.19932">
        <ele>1372.8</ele>
        <time>2021-02-17T13:03:29Z</time>
      </trkpt>
      <trkpt lat="45.28037" lon="6.19932">
        <ele>1372.8</ele>
        <time>2021-02-17T13:03:30Z</time>
      </trkpt>
      <trkpt lat="45.28037" lon="6.19932">
        <ele>1372.8</ele>
        <time>2021-02-17T13:03:31Z</time>
      </trkpt>
      <trkpt lat="45.28037" lon="6.19932">
        <ele>1372.8</ele>
        <time>2021-02-17T13:03:32Z</time>
      </trkpt>
      <trkpt lat="45.28037" lon="6.19932">
        <ele>1372.8</ele>
        <time>2021-02-17T13:03:33Z</time>
      </trkpt>
      <trkpt lat="45.28037" lon="6.19932">
        <ele>1372.8</ele>
        <time>2021-02-17T13:03:34Z</time>
      </trkpt>
      <trkpt lat="45.2804" lon="6.19927">
        <ele>1373.3</ele>
        <time>2021-02-17T13:04:37Z</time>
      </trkpt>
      <trkpt lat="45.28041" lon="6.19928">
        <ele>1373.4</ele>
        <time>2021-02-17T13:04:38Z</time>
      </trkpt>
      <trkpt lat="45.28042" lon="6.19928">
        <ele>1373.5</ele>
        <time>2021-02-17T13:04:39Z</time>
      </trkpt>
      <trkpt lat="45.28042" lon="6.19929">
        <ele>1373.6</ele>
        <time>2021-02-17T13:04:40Z</time>
      </trkpt>
      <trkpt lat="45.28043" lon="6.1993">
        <ele>1373.7</ele>
        <time>2021-02-17T13:04:41Z</time>
      </trkpt>
      <trkpt lat="45.28044" lon="6.1993">
        <ele>1373.7</ele>
        <time>2021-02-17T13:04:42Z</time>
      </trkpt>
      <trkpt lat="45.28044" lon="6.1993">
        <ele>1373.8</ele>
        <time>2021-02-17T13:04:43Z</time>
      </trkpt>
      <trkpt lat="45.28044" lon="6.1993">
        <ele>1373.8</ele>
        <time>2021-02-17T13:04:44Z</time>
      </trkpt>
      <trkpt lat="45.28044" lon="6.19931">
        <ele>1373.8</ele>
        <time>2021-02-17T13:04:45Z</time>
      </trkpt>
      <trkpt lat="45.28044" lon="6.19932">
        <ele>1373.9</ele>
        <time>2021-02-17T13:04:46Z</time>
      </trkpt>
      <trkpt lat="45.28045" lon="6.19933">
        <ele>1373.9</ele>
        <time>2021-02-17T13:04:47Z</time>
      </trkpt>
      <trkpt lat="45.28045" lon="6.19934">
        <ele>1374</ele>
        <time>2021-02-17T13:04:48Z</time>
      </trkpt>
      <trkpt lat="45.28046" lon="6.19935">
        <ele>1374.1</ele>
        <time>2021-02-17T13:04:49Z</time>
      </trkpt>
      <trkpt lat="45.28047" lon="6.19935">
        <ele>1374.2</ele>
        <time>2021-02-17T13:04:50Z</time>
      </trkpt>
      <trkpt lat="45.28048" lon="6.19936">
        <ele>1374.2</ele>
        <time>2021-02-17T13:04:51Z</time>
      </trkpt>
      <trkpt lat="45.28048" lon="6.19936">
        <ele>1374.3</ele>
        <time>2021-02-17T13:04:52Z</time>
      </trkpt>
      <trkpt lat="45.28049" lon="6.19936">
        <ele>1374.3</ele>
        <time>2021-02-17T13:04:53Z</time>
      </trkpt>
      <trkpt lat="45.28049" lon="6.19937">
        <ele>1374.3</ele>
        <time>2021-02-17T13:04:54Z</time>
      </trkpt>
      <trkpt lat="45.2805" lon="6.19937">
        <ele>1374.4</ele>
        <time>2021-02-17T13:04:55Z</time>
      </trkpt>
      <trkpt lat="45.2805" lon="6.19938">
        <ele>1374.4</ele>
        <time>2021-02-17T13:04:56Z</time>
      </trkpt>
      <trkpt lat="45.28051" lon="6.19938">
        <ele>1374.4</ele>
        <time>2021-02-17T13:04:57Z</time>
      </trkpt>
      <trkpt lat="45.28051" lon="6.19939">
        <ele>1374.5</ele>
        <time>2021-02-17T13:04:58Z</time>
      </trkpt>
      <trkpt lat="45.28051" lon="6.19939">
        <ele>1374.5</ele>
        <time>2021-02-17T13:04:59Z</time>
      </trkpt>
      <trkpt lat="45.28052" lon="6.1994">
        <ele>1374.5</ele>
        <time>2021-02-17T13:05:00Z</time>
      </trkpt>
      <trkpt lat="45.28052" lon="6.19941">
        <ele>1374.5</ele>
        <time>2021-02-17T13:05:01Z</time>
      </trkpt>
      <trkpt lat="45.28052" lon="6.19941">
        <ele>1374.5</ele>
        <time>2021-02-17T13:05:02Z</time>
      </trkpt>
      <trkpt lat="45.28052" lon="6.19941">
        <ele>1374.5</ele>
        <time>2021-02-17T13:05:03Z</time>
      </trkpt>
      <trkpt lat="45.28052" lon="6.19941">
        <ele>1374.5</ele>
        <time>2021-02-17T13:05:04Z</time>
      </trkpt>
      <trkpt lat="45.28052" lon="6.19941">
        <ele>1374.5</ele>
        <time>2021-02-17T13:05:05Z</time>
      </trkpt>
      <trkpt lat="45.28052" lon="6.19943">
        <ele>1374.6</ele>
        <time>2021-02-17T13:05:06Z</time>
      </trkpt>
      <trkpt lat="45.28052" lon="6.19944">
        <ele>1374.6</ele>
        <time>2021-02-17T13:05:07Z</time>
      </trkpt>
      <trkpt lat="45.28052" lon="6.19945">
        <ele>1374.6</ele>
        <time>2021-02-17T13:05:08Z</time>
      </trkpt>
      <trkpt lat="45.28052" lon="6.19945">
        <ele>1374.6</ele>
        <time>2021-02-17T13:05:09Z</time>
      </trkpt>
      <trkpt lat="45.28052" lon="6.19946">
        <ele>1374.6</ele>
        <time>2021-02-17T13:05:10Z</time>
      </trkpt>
      <trkpt lat="45.28052" lon="6.19947">
        <ele>1374.6</ele>
        <time>2021-02-17T13:05:11Z</time>
      </trkpt>
      <trkpt lat="45.28053" lon="6.19948">
        <ele>1374.6</ele>
        <time>2021-02-17T13:05:12Z</time>
      </trkpt>
      <trkpt lat="45.2806" lon="6.19961">
        <ele>1374.1</ele>
        <time>2021-02-17T13:05:40Z</time>
      </trkpt>
      <trkpt lat="45.2806" lon="6.19962">
        <ele>1374.1</ele>
        <time>2021-02-17T13:05:41Z</time>
      </trkpt>
      <trkpt lat="45.28061" lon="6.19963">
        <ele>1374</ele>
        <time>2021-02-17T13:05:42Z</time>
      </trkpt>
      <trkpt lat="45.28063" lon="6.19965">
        <ele>1373.8</ele>
        <time>2021-02-17T13:05:43Z</time>
      </trkpt>
      <trkpt lat="45.28064" lon="6.19966">
        <ele>1373.8</ele>
        <time>2021-02-17T13:05:44Z</time>
      </trkpt>
      <trkpt lat="45.28064" lon="6.19966">
        <ele>1373.7</ele>
        <time>2021-02-17T13:05:45Z</time>
      </trkpt>
      <trkpt lat="45.28065" lon="6.19968">
        <ele>1373.6</ele>
        <time>2021-02-17T13:05:46Z</time>
      </trkpt>
      <trkpt lat="45.28066" lon="6.19969">
        <ele>1373.5</ele>
        <time>2021-02-17T13:05:47Z</time>
      </trkpt>
      <trkpt lat="45.28067" lon="6.1997">
        <ele>1373.5</ele>
        <time>2021-02-17T13:05:48Z</time>
      </trkpt>
      <trkpt lat="45.28067" lon="6.1997">
        <ele>1373.4</ele>
        <time>2021-02-17T13:05:49Z</time>
      </trkpt>
      <trkpt lat="45.28067" lon="6.1997">
        <ele>1373.4</ele>
        <time>2021-02-17T13:05:50Z</time>
      </trkpt>
      <trkpt lat="45.28067" lon="6.19971">
        <ele>1373.4</ele>
        <time>2021-02-17T13:05:51Z</time>
      </trkpt>
      <trkpt lat="45.28067" lon="6.1997">
        <ele>1373.4</ele>
        <time>2021-02-17T13:05:52Z</time>
      </trkpt>
      <trkpt lat="45.28067" lon="6.1997">
        <ele>1373.4</ele>
        <time>2021-02-17T13:05:53Z</time>
      </trkpt>
      <trkpt lat="45.28068" lon="6.1997">
        <ele>1373.3</ele>
        <time>2021-02-17T13:05:54Z</time>
      </trkpt>
      <trkpt lat="45.28068" lon="6.19971">
        <ele>1373.3</ele>
        <time>2021-02-17T13:05:55Z</time>
      </trkpt>
      <trkpt lat="45.28069" lon="6.19972">
        <ele>1373.2</ele>
        <time>2021-02-17T13:05:56Z</time>
      </trkpt>
      <trkpt lat="45.28069" lon="6.19973">
        <ele>1373.2</ele>
        <time>2021-02-17T13:05:57Z</time>
      </trkpt>
      <trkpt lat="45.2807" lon="6.19974">
        <ele>1373.1</ele>
        <time>2021-02-17T13:05:58Z</time>
      </trkpt>
      <trkpt lat="45.28071" lon="6.19976">
        <ele>1373.1</ele>
        <time>2021-02-17T13:05:59Z</time>
      </trkpt>
      <trkpt lat="45.28071" lon="6.19977">
        <ele>1373</ele>
        <time>2021-02-17T13:06:00Z</time>
      </trkpt>
      <trkpt lat="45.28072" lon="6.19978">
        <ele>1373</ele>
        <time>2021-02-17T13:06:01Z</time>
      </trkpt>
      <trkpt lat="45.28072" lon="6.19979">
        <ele>1373</ele>
        <time>2021-02-17T13:06:02Z</time>
      </trkpt>
      <trkpt lat="45.28073" lon="6.1998">
        <ele>1373</ele>
        <time>2021-02-17T13:06:03Z</time>
      </trkpt>
      <trkpt lat="45.28073" lon="6.19981">
        <ele>1373</ele>
        <time>2021-02-17T13:06:04Z</time>
      </trkpt>
      <trkpt lat="45.28074" lon="6.19982">
        <ele>1372.9</ele>
        <time>2021-02-17T13:06:05Z</time>
      </trkpt>
      <trkpt lat="45.28074" lon="6.19983">
        <ele>1372.9</ele>
        <time>2021-02-17T13:06:06Z</time>
      </trkpt>
      <trkpt lat="45.28075" lon="6.19984">
        <ele>1372.9</ele>
        <time>2021-02-17T13:06:07Z</time>
      </trkpt>
      <trkpt lat="45.28075" lon="6.19985">
        <ele>1372.9</ele>
        <time>2021-02-17T13:06:08Z</time>
      </trkpt>
      <trkpt lat="45.28076" lon="6.19986">
        <ele>1372.9</ele>
        <time>2021-02-17T13:06:09Z</time>
      </trkpt>
      <trkpt lat="45.28076" lon="6.19987">
        <ele>1372.9</ele>
        <time>2021-02-17T13:06:10Z</time>
      </trkpt>
      <trkpt lat="45.28077" lon="6.19988">
        <ele>1372.9</ele>
        <time>2021-02-17T13:06:11Z</time>
      </trkpt>
      <trkpt lat="45.28077" lon="6.19989">
        <ele>1373</ele>
        <time>2021-02-17T13:06:12Z</time>
      </trkpt>
      <trkpt lat="45.28078" lon="6.1999">
        <ele>1373</ele>
        <time>2021-02-17T13:06:13Z</time>
      </trkpt>
      <trkpt lat="45.28079" lon="6.1999">
        <ele>1373</ele>
        <time>2021-02-17T13:06:14Z</time>
      </trkpt>
      <trkpt lat="45.28079" lon="6.19991">
        <ele>1373</ele>
        <time>2021-02-17T13:06:15Z</time>
      </trkpt>
      <trkpt lat="45.2808" lon="6.19992">
        <ele>1373</ele>
        <time>2021-02-17T13:06:16Z</time>
      </trkpt>
      <trkpt lat="45.2808" lon="6.19993">
        <ele>1373.1</ele>
        <time>2021-02-17T13:06:17Z</time>
      </trkpt>
      <trkpt lat="45.28081" lon="6.19994">
        <ele>1373.1</ele>
        <time>2021-02-17T13:06:18Z</time>
      </trkpt>
      <trkpt lat="45.28081" lon="6.19995">
        <ele>1373.1</ele>
        <time>2021-02-17T13:06:19Z</time>
      </trkpt>
      <trkpt lat="45.28082" lon="6.19996">
        <ele>1373.2</ele>
        <time>2021-02-17T13:06:20Z</time>
      </trkpt>
      <trkpt lat="45.28082" lon="6.19997">
        <ele>1373.2</ele>
        <time>2021-02-17T13:06:21Z</time>
      </trkpt>
      <trkpt lat="45.28083" lon="6.19997">
        <ele>1373.2</ele>
        <time>2021-02-17T13:06:22Z</time>
      </trkpt>
      <trkpt lat="45.28084" lon="6.19998">
        <ele>1373.3</ele>
        <time>2021-02-17T13:06:23Z</time>
      </trkpt>
      <trkpt lat="45.28084" lon="6.19999">
        <ele>1373.3</ele>
        <time>2021-02-17T13:06:24Z</time>
      </trkpt>
      <trkpt lat="45.28085" lon="6.2">
        <ele>1373.4</ele>
        <time>2021-02-17T13:06:25Z</time>
      </trkpt>
      <trkpt lat="45.28085" lon="6.2">
        <ele>1373.4</ele>
        <time>2021-02-17T13:06:26Z</time>
      </trkpt>
      <trkpt lat="45.28086" lon="6.20001">
        <ele>1373.4</ele>
        <time>2021-02-17T13:06:27Z</time>
      </trkpt>
      <trkpt lat="45.28086" lon="6.20001">
        <ele>1373.5</ele>
        <time>2021-02-17T13:06:28Z</time>
      </trkpt>
      <trkpt lat="45.28087" lon="6.20002">
        <ele>1373.5</ele>
        <time>2021-02-17T13:06:29Z</time>
      </trkpt>
      <trkpt lat="45.28087" lon="6.20003">
        <ele>1373.5</ele>
        <time>2021-02-17T13:06:30Z</time>
      </trkpt>
      <trkpt lat="45.28088" lon="6.20004">
        <ele>1373.6</ele>
        <time>2021-02-17T13:06:31Z</time>
      </trkpt>
      <trkpt lat="45.28089" lon="6.20005">
        <ele>1373.7</ele>
        <time>2021-02-17T13:06:32Z</time>
      </trkpt>
      <trkpt lat="45.28089" lon="6.20006">
        <ele>1373.7</ele>
        <time>2021-02-17T13:06:33Z</time>
      </trkpt>
      <trkpt lat="45.2809" lon="6.20007">
        <ele>1373.8</ele>
        <time>2021-02-17T13:06:34Z</time>
      </trkpt>
      <trkpt lat="45.28091" lon="6.20008">
        <ele>1373.8</ele>
        <time>2021-02-17T13:06:35Z</time>
      </trkpt>
      <trkpt lat="45.28091" lon="6.20008">
        <ele>1373.8</ele>
        <time>2021-02-17T13:06:36Z</time>
      </trkpt>
      <trkpt lat="45.28092" lon="6.20009">
        <ele>1373.9</ele>
        <time>2021-02-17T13:06:37Z</time>
      </trkpt>
      <trkpt lat="45.28092" lon="6.2001">
        <ele>1373.9</ele>
        <time>2021-02-17T13:06:38Z</time>
      </trkpt>
      <trkpt lat="45.28093" lon="6.20011">
        <ele>1373.9</ele>
        <time>2021-02-17T13:06:39Z</time>
      </trkpt>
      <trkpt lat="45.28093" lon="6.20012">
        <ele>1374</ele>
        <time>2021-02-17T13:06:40Z</time>
      </trkpt>
      <trkpt lat="45.28094" lon="6.20012">
        <ele>1374</ele>
        <time>2021-02-17T13:06:41Z</time>
      </trkpt>
      <trkpt lat="45.28095" lon="6.20013">
        <ele>1374.1</ele>
        <time>2021-02-17T13:06:42Z</time>
      </trkpt>
      <trkpt lat="45.28095" lon="6.20014">
        <ele>1374.1</ele>
        <time>2021-02-17T13:06:43Z</time>
      </trkpt>
      <trkpt lat="45.28096" lon="6.20015">
        <ele>1374.2</ele>
        <time>2021-02-17T13:06:44Z</time>
      </trkpt>
      <trkpt lat="45.28097" lon="6.20016">
        <ele>1374.2</ele>
        <time>2021-02-17T13:06:45Z</time>
      </trkpt>
      <trkpt lat="45.28097" lon="6.20017">
        <ele>1374.3</ele>
        <time>2021-02-17T13:06:46Z</time>
      </trkpt>
      <trkpt lat="45.28098" lon="6.20017">
        <ele>1374.3</ele>
        <time>2021-02-17T13:06:47Z</time>
      </trkpt>
      <trkpt lat="45.28098" lon="6.20018">
        <ele>1374.3</ele>
        <time>2021-02-17T13:06:48Z</time>
      </trkpt>
      <trkpt lat="45.28099" lon="6.20019">
        <ele>1374.4</ele>
        <time>2021-02-17T13:06:49Z</time>
      </trkpt>
      <trkpt lat="45.28099" lon="6.2002">
        <ele>1374.4</ele>
        <time>2021-02-17T13:06:50Z</time>
      </trkpt>
      <trkpt lat="45.281" lon="6.2002">
        <ele>1374.4</ele>
        <time>2021-02-17T13:06:51Z</time>
      </trkpt>
      <trkpt lat="45.281" lon="6.20021">
        <ele>1374.4</ele>
        <time>2021-02-17T13:06:52Z</time>
      </trkpt>
      <trkpt lat="45.28101" lon="6.20021">
        <ele>1374.5</ele>
        <time>2021-02-17T13:06:53Z</time>
      </trkpt>
      <trkpt lat="45.28101" lon="6.20021">
        <ele>1374.5</ele>
        <time>2021-02-17T13:06:54Z</time>
      </trkpt>
      <trkpt lat="45.28102" lon="6.20022">
        <ele>1374.5</ele>
        <time>2021-02-17T13:06:55Z</time>
      </trkpt>
      <trkpt lat="45.28102" lon="6.20022">
        <ele>1374.6</ele>
        <time>2021-02-17T13:06:56Z</time>
      </trkpt>
      <trkpt lat="45.28103" lon="6.20022">
        <ele>1374.6</ele>
        <time>2021-02-17T13:06:57Z</time>
      </trkpt>
      <trkpt lat="45.28103" lon="6.20023">
        <ele>1374.6</ele>
        <time>2021-02-17T13:06:58Z</time>
      </trkpt>
      <trkpt lat="45.28104" lon="6.20023">
        <ele>1374.7</ele>
        <time>2021-02-17T13:06:59Z</time>
      </trkpt>
      <trkpt lat="45.28104" lon="6.20024">
        <ele>1374.7</ele>
        <time>2021-02-17T13:07:00Z</time>
      </trkpt>
      <trkpt lat="45.28105" lon="6.20024">
        <ele>1374.7</ele>
        <time>2021-02-17T13:07:01Z</time>
      </trkpt>
      <trkpt lat="45.28105" lon="6.20025">
        <ele>1374.8</ele>
        <time>2021-02-17T13:07:02Z</time>
      </trkpt>
      <trkpt lat="45.28106" lon="6.20025">
        <ele>1374.8</ele>
        <time>2021-02-17T13:07:03Z</time>
      </trkpt>
      <trkpt lat="45.28106" lon="6.20026">
        <ele>1374.8</ele>
        <time>2021-02-17T13:07:04Z</time>
      </trkpt>
      <trkpt lat="45.28107" lon="6.20027">
        <ele>1374.9</ele>
        <time>2021-02-17T13:07:05Z</time>
      </trkpt>
      <trkpt lat="45.28107" lon="6.20028">
        <ele>1374.9</ele>
        <time>2021-02-17T13:07:06Z</time>
      </trkpt>
      <trkpt lat="45.28108" lon="6.20028">
        <ele>1374.9</ele>
        <time>2021-02-17T13:07:07Z</time>
      </trkpt>
      <trkpt lat="45.28108" lon="6.20029">
        <ele>1375</ele>
        <time>2021-02-17T13:07:08Z</time>
      </trkpt>
      <trkpt lat="45.28109" lon="6.2003">
        <ele>1375</ele>
        <time>2021-02-17T13:07:09Z</time>
      </trkpt>
      <trkpt lat="45.28109" lon="6.20031">
        <ele>1375.1</ele>
        <time>2021-02-17T13:07:10Z</time>
      </trkpt>
      <trkpt lat="45.2811" lon="6.20032">
        <ele>1375.1</ele>
        <time>2021-02-17T13:07:11Z</time>
      </trkpt>
      <trkpt lat="45.2811" lon="6.20033">
        <ele>1375.2</ele>
        <time>2021-02-17T13:07:12Z</time>
      </trkpt>
      <trkpt lat="45.28111" lon="6.20033">
        <ele>1375.2</ele>
        <time>2021-02-17T13:07:13Z</time>
      </trkpt>
      <trkpt lat="45.28112" lon="6.20034">
        <ele>1375.3</ele>
        <time>2021-02-17T13:07:14Z</time>
      </trkpt>
      <trkpt lat="45.28112" lon="6.20035">
        <ele>1375.3</ele>
        <time>2021-02-17T13:07:15Z</time>
      </trkpt>
      <trkpt lat="45.28112" lon="6.20035">
        <ele>1375.3</ele>
        <time>2021-02-17T13:07:16Z</time>
      </trkpt>
      <trkpt lat="45.28113" lon="6.20036">
        <ele>1375.4</ele>
        <time>2021-02-17T13:07:17Z</time>
      </trkpt>
      <trkpt lat="45.28113" lon="6.20036">
        <ele>1375.4</ele>
        <time>2021-02-17T13:07:18Z</time>
      </trkpt>
      <trkpt lat="45.28113" lon="6.20036">
        <ele>1375.4</ele>
        <time>2021-02-17T13:07:19Z</time>
      </trkpt>
      <trkpt lat="45.28114" lon="6.20037">
        <ele>1375.4</ele>
        <time>2021-02-17T13:07:20Z</time>
      </trkpt>
      <trkpt lat="45.28115" lon="6.20038">
        <ele>1375.5</ele>
        <time>2021-02-17T13:07:21Z</time>
      </trkpt>
      <trkpt lat="45.28115" lon="6.20039">
        <ele>1375.5</ele>
        <time>2021-02-17T13:07:22Z</time>
      </trkpt>
      <trkpt lat="45.28115" lon="6.2004">
        <ele>1375.6</ele>
        <time>2021-02-17T13:07:23Z</time>
      </trkpt>
      <trkpt lat="45.28116" lon="6.20041">
        <ele>1375.6</ele>
        <time>2021-02-17T13:07:24Z</time>
      </trkpt>
      <trkpt lat="45.28116" lon="6.20042">
        <ele>1375.7</ele>
        <time>2021-02-17T13:07:25Z</time>
      </trkpt>
      <trkpt lat="45.28117" lon="6.20043">
        <ele>1375.7</ele>
        <time>2021-02-17T13:07:26Z</time>
      </trkpt>
      <trkpt lat="45.28117" lon="6.20043">
        <ele>1375.8</ele>
        <time>2021-02-17T13:07:27Z</time>
      </trkpt>
      <trkpt lat="45.28118" lon="6.20044">
        <ele>1375.8</ele>
        <time>2021-02-17T13:07:28Z</time>
      </trkpt>
      <trkpt lat="45.28118" lon="6.20044">
        <ele>1375.8</ele>
        <time>2021-02-17T13:07:29Z</time>
      </trkpt>
      <trkpt lat="45.28118" lon="6.20044">
        <ele>1375.8</ele>
        <time>2021-02-17T13:07:30Z</time>
      </trkpt>
      <trkpt lat="45.28119" lon="6.20044">
        <ele>1375.9</ele>
        <time>2021-02-17T13:07:31Z</time>
      </trkpt>
      <trkpt lat="45.28119" lon="6.20044">
        <ele>1375.9</ele>
        <time>2021-02-17T13:07:32Z</time>
      </trkpt>
      <trkpt lat="45.28119" lon="6.20044">
        <ele>1375.9</ele>
        <time>2021-02-17T13:07:33Z</time>
      </trkpt>
      <trkpt lat="45.2812" lon="6.20043">
        <ele>1375.9</ele>
        <time>2021-02-17T13:07:34Z</time>
      </trkpt>
      <trkpt lat="45.2812" lon="6.20043">
        <ele>1376</ele>
        <time>2021-02-17T13:07:35Z</time>
      </trkpt>
      <trkpt lat="45.28121" lon="6.20044">
        <ele>1376</ele>
        <time>2021-02-17T13:07:36Z</time>
      </trkpt>
      <trkpt lat="45.28123" lon="6.20043">
        <ele>1376.1</ele>
        <time>2021-02-17T13:07:40Z</time>
      </trkpt>
      <trkpt lat="45.28125" lon="6.20043">
        <ele>1376.2</ele>
        <time>2021-02-17T13:07:41Z</time>
      </trkpt>
      <trkpt lat="45.28125" lon="6.20043">
        <ele>1376.2</ele>
        <time>2021-02-17T13:07:42Z</time>
      </trkpt>
      <trkpt lat="45.28126" lon="6.20043">
        <ele>1376.3</ele>
        <time>2021-02-17T13:07:43Z</time>
      </trkpt>
      <trkpt lat="45.28126" lon="6.20043">
        <ele>1376.3</ele>
        <time>2021-02-17T13:07:44Z</time>
      </trkpt>
      <trkpt lat="45.28126" lon="6.20043">
        <ele>1376.3</ele>
        <time>2021-02-17T13:07:45Z</time>
      </trkpt>
      <trkpt lat="45.28126" lon="6.20043">
        <ele>1376.3</ele>
        <time>2021-02-17T13:07:46Z</time>
      </trkpt>
      <trkpt lat="45.28126" lon="6.20043">
        <ele>1376.3</ele>
        <time>2021-02-17T13:07:47Z</time>
      </trkpt>
      <trkpt lat="45.28126" lon="6.20043">
        <ele>1376.3</ele>
        <time>2021-02-17T13:07:48Z</time>
      </trkpt>
      <trkpt lat="45.28126" lon="6.20043">
        <ele>1376.3</ele>
        <time>2021-02-17T13:07:49Z</time>
      </trkpt>
      <trkpt lat="45.28126" lon="6.20044">
        <ele>1376.3</ele>
        <time>2021-02-17T13:07:50Z</time>
      </trkpt>
      <trkpt lat="45.28126" lon="6.20044">
        <ele>1376.3</ele>
        <time>2021-02-17T13:07:51Z</time>
      </trkpt>
      <trkpt lat="45.28126" lon="6.20044">
        <ele>1376.3</ele>
        <time>2021-02-17T13:07:52Z</time>
      </trkpt>
      <trkpt lat="45.28137" lon="6.20042">
        <ele>1377</ele>
        <time>2021-02-17T13:08:58Z</time>
      </trkpt>
      <trkpt lat="45.28138" lon="6.20041">
        <ele>1376.7</ele>
        <time>2021-02-17T13:08:59Z</time>
      </trkpt>
      <trkpt lat="45.28138" lon="6.20041">
        <ele>1376.7</ele>
        <time>2021-02-17T13:09:00Z</time>
      </trkpt>
      <trkpt lat="45.28138" lon="6.2004">
        <ele>1376.6</ele>
        <time>2021-02-17T13:09:01Z</time>
      </trkpt>
      <trkpt lat="45.28137" lon="6.20039">
        <ele>1376.5</ele>
        <time>2021-02-17T13:09:02Z</time>
      </trkpt>
      <trkpt lat="45.28136" lon="6.2004">
        <ele>1376.3</ele>
        <time>2021-02-17T13:09:03Z</time>
      </trkpt>
      <trkpt lat="45.28135" lon="6.2004">
        <ele>1376.1</ele>
        <time>2021-02-17T13:09:04Z</time>
      </trkpt>
      <trkpt lat="45.28135" lon="6.2004">
        <ele>1376.1</ele>
        <time>2021-02-17T13:09:05Z</time>
      </trkpt>
      <trkpt lat="45.28135" lon="6.2004">
        <ele>1376.1</ele>
        <time>2021-02-17T13:09:06Z</time>
      </trkpt>
      <trkpt lat="45.28135" lon="6.2004">
        <ele>1376.1</ele>
        <time>2021-02-17T13:09:07Z</time>
      </trkpt>
      <trkpt lat="45.28135" lon="6.2004">
        <ele>1376.1</ele>
        <time>2021-02-17T13:09:08Z</time>
      </trkpt>
      <trkpt lat="45.28135" lon="6.2004">
        <ele>1376.1</ele>
        <time>2021-02-17T13:09:09Z</time>
      </trkpt>
      <trkpt lat="45.28135" lon="6.2004">
        <ele>1376.1</ele>
        <time>2021-02-17T13:09:10Z</time>
      </trkpt>
      <trkpt lat="45.28131" lon="6.20051">
        <ele>1374.8</ele>
        <time>2021-02-17T13:09:34Z</time>
      </trkpt>
      <trkpt lat="45.28131" lon="6.20052">
        <ele>1374.6</ele>
        <time>2021-02-17T13:09:35Z</time>
      </trkpt>
      <trkpt lat="45.28132" lon="6.20053">
        <ele>1374.4</ele>
        <time>2021-02-17T13:09:36Z</time>
      </trkpt>
      <trkpt lat="45.28134" lon="6.20057">
        <ele>1373.9</ele>
        <time>2021-02-17T13:09:37Z</time>
      </trkpt>
      <trkpt lat="45.28134" lon="6.20058">
        <ele>1373.8</ele>
        <time>2021-02-17T13:09:38Z</time>
      </trkpt>
      <trkpt lat="45.28136" lon="6.20061">
        <ele>1373.2</ele>
        <time>2021-02-17T13:09:39Z</time>
      </trkpt>
      <trkpt lat="45.28137" lon="6.20062">
        <ele>1373</ele>
        <time>2021-02-17T13:09:40Z</time>
      </trkpt>
      <trkpt lat="45.28138" lon="6.20064">
        <ele>1372.7</ele>
        <time>2021-02-17T13:09:41Z</time>
      </trkpt>
      <trkpt lat="45.28139" lon="6.20065">
        <ele>1372.4</ele>
        <time>2021-02-17T13:09:42Z</time>
      </trkpt>
      <trkpt lat="45.28141" lon="6.20068">
        <ele>1371.9</ele>
        <time>2021-02-17T13:09:43Z</time>
      </trkpt>
      <trkpt lat="45.28143" lon="6.20071">
        <ele>1371.4</ele>
        <time>2021-02-17T13:09:44Z</time>
      </trkpt>
      <trkpt lat="45.28146" lon="6.20076">
        <ele>1370.6</ele>
        <time>2021-02-17T13:09:45Z</time>
      </trkpt>
      <trkpt lat="45.28146" lon="6.20077">
        <ele>1370.4</ele>
        <time>2021-02-17T13:09:46Z</time>
      </trkpt>
      <trkpt lat="45.28148" lon="6.20082">
        <ele>1369.7</ele>
        <time>2021-02-17T13:09:47Z</time>
      </trkpt>
      <trkpt lat="45.28149" lon="6.20083">
        <ele>1369.4</ele>
        <time>2021-02-17T13:09:48Z</time>
      </trkpt>
      <trkpt lat="45.28152" lon="6.20087">
        <ele>1368.7</ele>
        <time>2021-02-17T13:09:49Z</time>
      </trkpt>
      <trkpt lat="45.28153" lon="6.20088">
        <ele>1368.5</ele>
        <time>2021-02-17T13:09:50Z</time>
      </trkpt>
      <trkpt lat="45.28156" lon="6.20091">
        <ele>1367.8</ele>
        <time>2021-02-17T13:09:51Z</time>
      </trkpt>
      <trkpt lat="45.28159" lon="6.20095">
        <ele>1367.1</ele>
        <time>2021-02-17T13:09:52Z</time>
      </trkpt>
      <trkpt lat="45.28161" lon="6.20101">
        <ele>1366.3</ele>
        <time>2021-02-17T13:09:53Z</time>
      </trkpt>
      <trkpt lat="45.28164" lon="6.20107">
        <ele>1365.3</ele>
        <time>2021-02-17T13:09:54Z</time>
      </trkpt>
      <trkpt lat="45.28168" lon="6.20114">
        <ele>1364.4</ele>
        <time>2021-02-17T13:09:55Z</time>
      </trkpt>
      <trkpt lat="45.28171" lon="6.20121">
        <ele>1363.5</ele>
        <time>2021-02-17T13:09:56Z</time>
      </trkpt>
      <trkpt lat="45.28174" lon="6.20125">
        <ele>1362.8</ele>
        <time>2021-02-17T13:09:57Z</time>
      </trkpt>
      <trkpt lat="45.28177" lon="6.20129">
        <ele>1362.2</ele>
        <time>2021-02-17T13:09:58Z</time>
      </trkpt>
      <trkpt lat="45.2818" lon="6.20131">
        <ele>1361.6</ele>
        <time>2021-02-17T13:09:59Z</time>
      </trkpt>
      <trkpt lat="45.28183" lon="6.20132">
        <ele>1361.1</ele>
        <time>2021-02-17T13:10:00Z</time>
      </trkpt>
      <trkpt lat="45.28187" lon="6.20134">
        <ele>1360.5</ele>
        <time>2021-02-17T13:10:01Z</time>
      </trkpt>
      <trkpt lat="45.28191" lon="6.20136">
        <ele>1359.8</ele>
        <time>2021-02-17T13:10:02Z</time>
      </trkpt>
      <trkpt lat="45.28194" lon="6.20138">
        <ele>1359.2</ele>
        <time>2021-02-17T13:10:03Z</time>
      </trkpt>
      <trkpt lat="45.28197" lon="6.20142">
        <ele>1358.6</ele>
        <time>2021-02-17T13:10:04Z</time>
      </trkpt>
      <trkpt lat="45.282" lon="6.20146">
        <ele>1357.9</ele>
        <time>2021-02-17T13:10:05Z</time>
      </trkpt>
      <trkpt lat="45.28201" lon="6.20148">
        <ele>1357.7</ele>
        <time>2021-02-17T13:10:06Z</time>
      </trkpt>
      <trkpt lat="45.28203" lon="6.20151">
        <ele>1357.2</ele>
        <time>2021-02-17T13:10:07Z</time>
      </trkpt>
      <trkpt lat="45.28204" lon="6.20157">
        <ele>1356.5</ele>
        <time>2021-02-17T13:10:08Z</time>
      </trkpt>
      <trkpt lat="45.28206" lon="6.20163">
        <ele>1355.8</ele>
        <time>2021-02-17T13:10:09Z</time>
      </trkpt>
      <trkpt lat="45.28206" lon="6.20168">
        <ele>1355.2</ele>
        <time>2021-02-17T13:10:10Z</time>
      </trkpt>
      <trkpt lat="45.28208" lon="6.20173">
        <ele>1354.6</ele>
        <time>2021-02-17T13:10:11Z</time>
      </trkpt>
      <trkpt lat="45.28209" lon="6.20178">
        <ele>1354</ele>
        <time>2021-02-17T13:10:12Z</time>
      </trkpt>
      <trkpt lat="45.28212" lon="6.20185">
        <ele>1353</ele>
        <time>2021-02-17T13:10:13Z</time>
      </trkpt>
      <trkpt lat="45.28215" lon="6.20192">
        <ele>1352.1</ele>
        <time>2021-02-17T13:10:14Z</time>
      </trkpt>
      <trkpt lat="45.28217" lon="6.20196">
        <ele>1351.4</ele>
        <time>2021-02-17T13:10:15Z</time>
      </trkpt>
      <trkpt lat="45.28219" lon="6.20202">
        <ele>1350.5</ele>
        <time>2021-02-17T13:10:16Z</time>
      </trkpt>
      <trkpt lat="45.28221" lon="6.20208">
        <ele>1349.7</ele>
        <time>2021-02-17T13:10:17Z</time>
      </trkpt>
      <trkpt lat="45.28223" lon="6.20214">
        <ele>1348.9</ele>
        <time>2021-02-17T13:10:18Z</time>
      </trkpt>
      <trkpt lat="45.28225" lon="6.2022">
        <ele>1348</ele>
        <time>2021-02-17T13:10:19Z</time>
      </trkpt>
      <trkpt lat="45.28226" lon="6.20228">
        <ele>1347.1</ele>
        <time>2021-02-17T13:10:20Z</time>
      </trkpt>
      <trkpt lat="45.28228" lon="6.20233">
        <ele>1346.3</ele>
        <time>2021-02-17T13:10:21Z</time>
      </trkpt>
      <trkpt lat="45.2823" lon="6.20241">
        <ele>1345.4</ele>
        <time>2021-02-17T13:10:22Z</time>
      </trkpt>
      <trkpt lat="45.28231" lon="6.20247">
        <ele>1344.7</ele>
        <time>2021-02-17T13:10:23Z</time>
      </trkpt>
      <trkpt lat="45.28232" lon="6.20253">
        <ele>1344</ele>
        <time>2021-02-17T13:10:24Z</time>
      </trkpt>
      <trkpt lat="45.28233" lon="6.20258">
        <ele>1343.4</ele>
        <time>2021-02-17T13:10:25Z</time>
      </trkpt>
      <trkpt lat="45.28235" lon="6.20263">
        <ele>1342.9</ele>
        <time>2021-02-17T13:10:26Z</time>
      </trkpt>
      <trkpt lat="45.28236" lon="6.20267">
        <ele>1342.3</ele>
        <time>2021-02-17T13:10:27Z</time>
      </trkpt>
      <trkpt lat="45.28237" lon="6.20272">
        <ele>1341.7</ele>
        <time>2021-02-17T13:10:28Z</time>
      </trkpt>
      <trkpt lat="45.2824" lon="6.20276">
        <ele>1341.1</ele>
        <time>2021-02-17T13:10:29Z</time>
      </trkpt>
      <trkpt lat="45.28241" lon="6.20281">
        <ele>1340.5</ele>
        <time>2021-02-17T13:10:30Z</time>
      </trkpt>
      <trkpt lat="45.28243" lon="6.20287">
        <ele>1339.9</ele>
        <time>2021-02-17T13:10:31Z</time>
      </trkpt>
      <trkpt lat="45.28244" lon="6.20291">
        <ele>1339.4</ele>
        <time>2021-02-17T13:10:32Z</time>
      </trkpt>
      <trkpt lat="45.28246" lon="6.20296">
        <ele>1338.8</ele>
        <time>2021-02-17T13:10:33Z</time>
      </trkpt>
      <trkpt lat="45.28247" lon="6.203">
        <ele>1338.4</ele>
        <time>2021-02-17T13:10:34Z</time>
      </trkpt>
      <trkpt lat="45.28249" lon="6.20304">
        <ele>1338</ele>
        <time>2021-02-17T13:10:35Z</time>
      </trkpt>
      <trkpt lat="45.28249" lon="6.20305">
        <ele>1337.9</ele>
        <time>2021-02-17T13:10:36Z</time>
      </trkpt>
      <trkpt lat="45.2825" lon="6.20308">
        <ele>1337.6</ele>
        <time>2021-02-17T13:10:37Z</time>
      </trkpt>
      <trkpt lat="45.28251" lon="6.2031">
        <ele>1337.4</ele>
        <time>2021-02-17T13:10:38Z</time>
      </trkpt>
      <trkpt lat="45.28253" lon="6.20314">
        <ele>1337</ele>
        <time>2021-02-17T13:10:39Z</time>
      </trkpt>
      <trkpt lat="45.28253" lon="6.20315">
        <ele>1336.8</ele>
        <time>2021-02-17T13:10:40Z</time>
      </trkpt>
      <trkpt lat="45.28255" lon="6.2032">
        <ele>1336.3</ele>
        <time>2021-02-17T13:10:41Z</time>
      </trkpt>
      <trkpt lat="45.28257" lon="6.20325">
        <ele>1335.8</ele>
        <time>2021-02-17T13:10:42Z</time>
      </trkpt>
      <trkpt lat="45.28259" lon="6.20329">
        <ele>1335.3</ele>
        <time>2021-02-17T13:10:43Z</time>
      </trkpt>
      <trkpt lat="45.2826" lon="6.2033">
        <ele>1335.2</ele>
        <time>2021-02-17T13:10:44Z</time>
      </trkpt>
      <trkpt lat="45.28262" lon="6.20333">
        <ele>1334.7</ele>
        <time>2021-02-17T13:10:45Z</time>
      </trkpt>
      <trkpt lat="45.28265" lon="6.20335">
        <ele>1334.3</ele>
        <time>2021-02-17T13:10:46Z</time>
      </trkpt>
      <trkpt lat="45.28269" lon="6.20335">
        <ele>1333.8</ele>
        <time>2021-02-17T13:10:47Z</time>
      </trkpt>
      <trkpt lat="45.2827" lon="6.20334">
        <ele>1333.6</ele>
        <time>2021-02-17T13:10:48Z</time>
      </trkpt>
      <trkpt lat="45.28272" lon="6.2033">
        <ele>1333.1</ele>
        <time>2021-02-17T13:10:49Z</time>
      </trkpt>
      <trkpt lat="45.28272" lon="6.20328">
        <ele>1333</ele>
        <time>2021-02-17T13:10:50Z</time>
      </trkpt>
      <trkpt lat="45.28273" lon="6.20324">
        <ele>1332.6</ele>
        <time>2021-02-17T13:10:51Z</time>
      </trkpt>
      <trkpt lat="45.28273" lon="6.20322">
        <ele>1332.4</ele>
        <time>2021-02-17T13:10:52Z</time>
      </trkpt>
      <trkpt lat="45.28273" lon="6.20318">
        <ele>1332.1</ele>
        <time>2021-02-17T13:10:53Z</time>
      </trkpt>
      <trkpt lat="45.28273" lon="6.20317">
        <ele>1332</ele>
        <time>2021-02-17T13:10:54Z</time>
      </trkpt>
      <trkpt lat="45.28273" lon="6.20315">
        <ele>1331.8</ele>
        <time>2021-02-17T13:10:55Z</time>
      </trkpt>
      <trkpt lat="45.28273" lon="6.20314">
        <ele>1331.7</ele>
        <time>2021-02-17T13:10:56Z</time>
      </trkpt>
      <trkpt lat="45.28273" lon="6.20314">
        <ele>1331.7</ele>
        <time>2021-02-17T13:10:57Z</time>
      </trkpt>
      <trkpt lat="45.28273" lon="6.20314">
        <ele>1331.7</ele>
        <time>2021-02-17T13:10:58Z</time>
      </trkpt>
      <trkpt lat="45.28273" lon="6.20314">
        <ele>1331.7</ele>
        <time>2021-02-17T13:10:59Z</time>
      </trkpt>
      <trkpt lat="45.28273" lon="6.20314">
        <ele>1331.7</ele>
        <time>2021-02-17T13:11:00Z</time>
      </trkpt>
      <trkpt lat="45.28273" lon="6.20314">
        <ele>1331.7</ele>
        <time>2021-02-17T13:11:01Z</time>
      </trkpt>
      <trkpt lat="45.28273" lon="6.20314">
        <ele>1331.7</ele>
        <time>2021-02-17T13:11:02Z</time>
      </trkpt>
      <trkpt lat="45.28273" lon="6.20314">
        <ele>1331.7</ele>
        <time>2021-02-17T13:11:03Z</time>
      </trkpt>
      <trkpt lat="45.28273" lon="6.20314">
        <ele>1331.7</ele>
        <time>2021-02-17T13:11:04Z</time>
      </trkpt>
      <trkpt lat="45.28277" lon="6.20314">
        <ele>1331.2</ele>
        <time>2021-02-17T13:11:21Z</time>
      </trkpt>
      <trkpt lat="45.28277" lon="6.20313">
        <ele>1331.2</ele>
        <time>2021-02-17T13:11:22Z</time>
      </trkpt>
      <trkpt lat="45.28277" lon="6.20313">
        <ele>1331.2</ele>
        <time>2021-02-17T13:11:23Z</time>
      </trkpt>
      <trkpt lat="45.28278" lon="6.20313">
        <ele>1331.1</ele>
        <time>2021-02-17T13:11:24Z</time>
      </trkpt>
      <trkpt lat="45.28278" lon="6.20314">
        <ele>1331</ele>
        <time>2021-02-17T13:11:25Z</time>
      </trkpt>
      <trkpt lat="45.28278" lon="6.20315">
        <ele>1331</ele>
        <time>2021-02-17T13:11:26Z</time>
      </trkpt>
      <trkpt lat="45.28278" lon="6.20315">
        <ele>1330.9</ele>
        <time>2021-02-17T13:11:27Z</time>
      </trkpt>
      <trkpt lat="45.28278" lon="6.20316">
        <ele>1330.8</ele>
        <time>2021-02-17T13:11:28Z</time>
      </trkpt>
      <trkpt lat="45.28278" lon="6.20318">
        <ele>1330.6</ele>
        <time>2021-02-17T13:11:29Z</time>
      </trkpt>
      <trkpt lat="45.28278" lon="6.20319">
        <ele>1330.6</ele>
        <time>2021-02-17T13:11:30Z</time>
      </trkpt>
      <trkpt lat="45.28278" lon="6.20319">
        <ele>1330.5</ele>
        <time>2021-02-17T13:11:31Z</time>
      </trkpt>
      <trkpt lat="45.28278" lon="6.2032">
        <ele>1330.5</ele>
        <time>2021-02-17T13:11:32Z</time>
      </trkpt>
      <trkpt lat="45.28278" lon="6.20321">
        <ele>1330.4</ele>
        <time>2021-02-17T13:11:33Z</time>
      </trkpt>
      <trkpt lat="45.28278" lon="6.20321">
        <ele>1330.3</ele>
        <time>2021-02-17T13:11:34Z</time>
      </trkpt>
      <trkpt lat="45.28278" lon="6.20322">
        <ele>1330.3</ele>
        <time>2021-02-17T13:11:35Z</time>
      </trkpt>
      <trkpt lat="45.28278" lon="6.20323">
        <ele>1330.2</ele>
        <time>2021-02-17T13:11:36Z</time>
      </trkpt>
      <trkpt lat="45.28278" lon="6.20323">
        <ele>1330.1</ele>
        <time>2021-02-17T13:11:37Z</time>
      </trkpt>
      <trkpt lat="45.28279" lon="6.20324">
        <ele>1330.1</ele>
        <time>2021-02-17T13:11:38Z</time>
      </trkpt>
      <trkpt lat="45.28279" lon="6.20325">
        <ele>1330</ele>
        <time>2021-02-17T13:11:39Z</time>
      </trkpt>
      <trkpt lat="45.28279" lon="6.20326">
        <ele>1329.9</ele>
        <time>2021-02-17T13:11:57Z</time>
      </trkpt>
      <trkpt lat="45.28279" lon="6.20326">
        <ele>1329.9</ele>
        <time>2021-02-17T13:11:58Z</time>
      </trkpt>
      <trkpt lat="45.28279" lon="6.20327">
        <ele>1329.8</ele>
        <time>2021-02-17T13:11:59Z</time>
      </trkpt>
      <trkpt lat="45.28279" lon="6.2033">
        <ele>1329.5</ele>
        <time>2021-02-17T13:12:00Z</time>
      </trkpt>
      <trkpt lat="45.28279" lon="6.20331">
        <ele>1329.3</ele>
        <time>2021-02-17T13:12:01Z</time>
      </trkpt>
      <trkpt lat="45.28279" lon="6.20332">
        <ele>1329.2</ele>
        <time>2021-02-17T13:12:02Z</time>
      </trkpt>
      <trkpt lat="45.28279" lon="6.20335">
        <ele>1328.9</ele>
        <time>2021-02-17T13:12:03Z</time>
      </trkpt>
      <trkpt lat="45.28279" lon="6.20337">
        <ele>1328.6</ele>
        <time>2021-02-17T13:12:04Z</time>
      </trkpt>
      <trkpt lat="45.28279" lon="6.20342">
        <ele>1328</ele>
        <time>2021-02-17T13:12:05Z</time>
      </trkpt>
      <trkpt lat="45.28279" lon="6.20344">
        <ele>1327.8</ele>
        <time>2021-02-17T13:12:06Z</time>
      </trkpt>
      <trkpt lat="45.2828" lon="6.20348">
        <ele>1327.3</ele>
        <time>2021-02-17T13:12:07Z</time>
      </trkpt>
      <trkpt lat="45.2828" lon="6.2035">
        <ele>1327.1</ele>
        <time>2021-02-17T13:12:08Z</time>
      </trkpt>
      <trkpt lat="45.28281" lon="6.20354">
        <ele>1326.6</ele>
        <time>2021-02-17T13:12:09Z</time>
      </trkpt>
      <trkpt lat="45.28281" lon="6.20355">
        <ele>1326.4</ele>
        <time>2021-02-17T13:12:10Z</time>
      </trkpt>
      <trkpt lat="45.28282" lon="6.20357">
        <ele>1326.1</ele>
        <time>2021-02-17T13:12:11Z</time>
      </trkpt>
      <trkpt lat="45.28283" lon="6.20359">
        <ele>1325.8</ele>
        <time>2021-02-17T13:12:12Z</time>
      </trkpt>
      <trkpt lat="45.28284" lon="6.2036">
        <ele>1325.6</ele>
        <time>2021-02-17T13:12:13Z</time>
      </trkpt>
      <trkpt lat="45.28285" lon="6.2036">
        <ele>1325.4</ele>
        <time>2021-02-17T13:12:14Z</time>
      </trkpt>
      <trkpt lat="45.28286" lon="6.2036">
        <ele>1325.2</ele>
        <time>2021-02-17T13:12:15Z</time>
      </trkpt>
      <trkpt lat="45.28288" lon="6.20359">
        <ele>1324.9</ele>
        <time>2021-02-17T13:12:16Z</time>
      </trkpt>
      <trkpt lat="45.28289" lon="6.20359">
        <ele>1324.7</ele>
        <time>2021-02-17T13:12:17Z</time>
      </trkpt>
      <trkpt lat="45.2829" lon="6.20359">
        <ele>1324.5</ele>
        <time>2021-02-17T13:12:18Z</time>
      </trkpt>
      <trkpt lat="45.28293" lon="6.20357">
        <ele>1324</ele>
        <time>2021-02-17T13:12:19Z</time>
      </trkpt>
      <trkpt lat="45.28293" lon="6.20357">
        <ele>1323.9</ele>
        <time>2021-02-17T13:12:20Z</time>
      </trkpt>
      <trkpt lat="45.28295" lon="6.20356">
        <ele>1323.6</ele>
        <time>2021-02-17T13:12:21Z</time>
      </trkpt>
      <trkpt lat="45.28295" lon="6.20356">
        <ele>1323.5</ele>
        <time>2021-02-17T13:12:22Z</time>
      </trkpt>
      <trkpt lat="45.28296" lon="6.20355">
        <ele>1323.4</ele>
        <time>2021-02-17T13:12:23Z</time>
      </trkpt>
      <trkpt lat="45.28296" lon="6.20355">
        <ele>1323.4</ele>
        <time>2021-02-17T13:12:24Z</time>
      </trkpt>
      <trkpt lat="45.28296" lon="6.20355">
        <ele>1323.3</ele>
        <time>2021-02-17T13:12:25Z</time>
      </trkpt>
      <trkpt lat="45.28297" lon="6.20355">
        <ele>1323.2</ele>
        <time>2021-02-17T13:12:26Z</time>
      </trkpt>
      <trkpt lat="45.28297" lon="6.20354">
        <ele>1323.2</ele>
        <time>2021-02-17T13:12:27Z</time>
      </trkpt>
      <trkpt lat="45.28297" lon="6.20354">
        <ele>1323.1</ele>
        <time>2021-02-17T13:12:28Z</time>
      </trkpt>
      <trkpt lat="45.28298" lon="6.20353">
        <ele>1322.9</ele>
        <time>2021-02-17T13:12:29Z</time>
      </trkpt>
      <trkpt lat="45.283" lon="6.20352">
        <ele>1322.6</ele>
        <time>2021-02-17T13:12:30Z</time>
      </trkpt>
      <trkpt lat="45.28301" lon="6.20351">
        <ele>1322.4</ele>
        <time>2021-02-17T13:12:31Z</time>
      </trkpt>
      <trkpt lat="45.28301" lon="6.20352">
        <ele>1322.3</ele>
        <time>2021-02-17T13:12:32Z</time>
      </trkpt>
      <trkpt lat="45.28301" lon="6.20352">
        <ele>1322.3</ele>
        <time>2021-02-17T13:13:04Z</time>
      </trkpt>
      <trkpt lat="45.28301" lon="6.20352">
        <ele>1322.3</ele>
        <time>2021-02-17T13:13:05Z</time>
      </trkpt>
      <trkpt lat="45.28301" lon="6.20352">
        <ele>1322.3</ele>
        <time>2021-02-17T13:13:06Z</time>
      </trkpt>
      <trkpt lat="45.28301" lon="6.20352">
        <ele>1322.3</ele>
        <time>2021-02-17T13:13:07Z</time>
      </trkpt>
      <trkpt lat="45.28302" lon="6.20352">
        <ele>1322.2</ele>
        <time>2021-02-17T13:13:08Z</time>
      </trkpt>
      <trkpt lat="45.28302" lon="6.20352">
        <ele>1322.2</ele>
        <time>2021-02-17T13:13:09Z</time>
      </trkpt>
      <trkpt lat="45.28302" lon="6.20353">
        <ele>1322.2</ele>
        <time>2021-02-17T13:13:10Z</time>
      </trkpt>
      <trkpt lat="45.28302" lon="6.20353">
        <ele>1322.2</ele>
        <time>2021-02-17T13:13:11Z</time>
      </trkpt>
      <trkpt lat="45.28302" lon="6.20353">
        <ele>1322.2</ele>
        <time>2021-02-17T13:13:12Z</time>
      </trkpt>
      <trkpt lat="45.28302" lon="6.20353">
        <ele>1322.2</ele>
        <time>2021-02-17T13:13:13Z</time>
      </trkpt>
      <trkpt lat="45.28302" lon="6.20353">
        <ele>1322.1</ele>
        <time>2021-02-17T13:13:14Z</time>
      </trkpt>
      <trkpt lat="45.28302" lon="6.20353">
        <ele>1322.1</ele>
        <time>2021-02-17T13:13:15Z</time>
      </trkpt>
      <trkpt lat="45.28302" lon="6.20353">
        <ele>1322.1</ele>
        <time>2021-02-17T13:13:16Z</time>
      </trkpt>
      <trkpt lat="45.28302" lon="6.20354">
        <ele>1322.1</ele>
        <time>2021-02-17T13:13:17Z</time>
      </trkpt>
      <trkpt lat="45.28302" lon="6.20354">
        <ele>1322.1</ele>
        <time>2021-02-17T13:13:44Z</time>
      </trkpt>
      <trkpt lat="45.28302" lon="6.20354">
        <ele>1322</ele>
        <time>2021-02-17T13:13:45Z</time>
      </trkpt>
      <trkpt lat="45.28302" lon="6.20354">
        <ele>1322</ele>
        <time>2021-02-17T13:13:46Z</time>
      </trkpt>
      <trkpt lat="45.28302" lon="6.20354">
        <ele>1322</ele>
        <time>2021-02-17T13:13:47Z</time>
      </trkpt>
      <trkpt lat="45.28302" lon="6.20354">
        <ele>1322</ele>
        <time>2021-02-17T13:13:48Z</time>
      </trkpt>
      <trkpt lat="45.28302" lon="6.20354">
        <ele>1322</ele>
        <time>2021-02-17T13:13:49Z</time>
      </trkpt>
      <trkpt lat="45.28303" lon="6.20354">
        <ele>1321.9</ele>
        <time>2021-02-17T13:13:50Z</time>
      </trkpt>
      <trkpt lat="45.28303" lon="6.20354">
        <ele>1321.9</ele>
        <time>2021-02-17T13:13:51Z</time>
      </trkpt>
      <trkpt lat="45.28303" lon="6.20354">
        <ele>1321.8</ele>
        <time>2021-02-17T13:13:52Z</time>
      </trkpt>
      <trkpt lat="45.28304" lon="6.20353">
        <ele>1321.6</ele>
        <time>2021-02-17T13:13:53Z</time>
      </trkpt>
      <trkpt lat="45.28308" lon="6.20348">
        <ele>1320.9</ele>
        <time>2021-02-17T13:13:58Z</time>
      </trkpt>
      <trkpt lat="45.28308" lon="6.20347">
        <ele>1320.8</ele>
        <time>2021-02-17T13:13:59Z</time>
      </trkpt>
      <trkpt lat="45.28308" lon="6.20346">
        <ele>1320.7</ele>
        <time>2021-02-17T13:14:00Z</time>
      </trkpt>
      <trkpt lat="45.28308" lon="6.20345">
        <ele>1320.6</ele>
        <time>2021-02-17T13:14:01Z</time>
      </trkpt>
      <trkpt lat="45.28309" lon="6.20345">
        <ele>1320.5</ele>
        <time>2021-02-17T13:14:02Z</time>
      </trkpt>
      <trkpt lat="45.28309" lon="6.20344">
        <ele>1320.5</ele>
        <time>2021-02-17T13:14:03Z</time>
      </trkpt>
      <trkpt lat="45.2831" lon="6.20344">
        <ele>1320.4</ele>
        <time>2021-02-17T13:14:04Z</time>
      </trkpt>
      <trkpt lat="45.2831" lon="6.20344">
        <ele>1320.3</ele>
        <time>2021-02-17T13:14:05Z</time>
      </trkpt>
      <trkpt lat="45.2831" lon="6.20344">
        <ele>1320.2</ele>
        <time>2021-02-17T13:14:06Z</time>
      </trkpt>
      <trkpt lat="45.28311" lon="6.20343">
        <ele>1320.2</ele>
        <time>2021-02-17T13:14:07Z</time>
      </trkpt>
      <trkpt lat="45.28311" lon="6.20343">
        <ele>1320.2</ele>
        <time>2021-02-17T13:14:08Z</time>
      </trkpt>
      <trkpt lat="45.28311" lon="6.20344">
        <ele>1320.1</ele>
        <time>2021-02-17T13:14:09Z</time>
      </trkpt>
      <trkpt lat="45.28312" lon="6.20344">
        <ele>1320</ele>
        <time>2021-02-17T13:14:10Z</time>
      </trkpt>
      <trkpt lat="45.28313" lon="6.20345">
        <ele>1319.9</ele>
        <time>2021-02-17T13:14:11Z</time>
      </trkpt>
      <trkpt lat="45.28313" lon="6.20346">
        <ele>1319.8</ele>
        <time>2021-02-17T13:14:12Z</time>
      </trkpt>
      <trkpt lat="45.28314" lon="6.20347">
        <ele>1319.6</ele>
        <time>2021-02-17T13:14:13Z</time>
      </trkpt>
      <trkpt lat="45.28314" lon="6.20349">
        <ele>1319.5</ele>
        <time>2021-02-17T13:14:14Z</time>
      </trkpt>
      <trkpt lat="45.28315" lon="6.2035">
        <ele>1319.3</ele>
        <time>2021-02-17T13:14:15Z</time>
      </trkpt>
      <trkpt lat="45.28316" lon="6.20351">
        <ele>1319.2</ele>
        <time>2021-02-17T13:14:16Z</time>
      </trkpt>
      <trkpt lat="45.28317" lon="6.20352">
        <ele>1319.1</ele>
        <time>2021-02-17T13:14:17Z</time>
      </trkpt>
      <trkpt lat="45.28317" lon="6.20352">
        <ele>1319</ele>
        <time>2021-02-17T13:14:18Z</time>
      </trkpt>
      <trkpt lat="45.28318" lon="6.20353">
        <ele>1318.9</ele>
        <time>2021-02-17T13:14:19Z</time>
      </trkpt>
      <trkpt lat="45.28318" lon="6.20354">
        <ele>1318.8</ele>
        <time>2021-02-17T13:14:20Z</time>
      </trkpt>
      <trkpt lat="45.28318" lon="6.20356">
        <ele>1318.6</ele>
        <time>2021-02-17T13:14:21Z</time>
      </trkpt>
      <trkpt lat="45.28318" lon="6.20358">
        <ele>1318.5</ele>
        <time>2021-02-17T13:14:22Z</time>
      </trkpt>
      <trkpt lat="45.28318" lon="6.2036">
        <ele>1318.2</ele>
        <time>2021-02-17T13:14:23Z</time>
      </trkpt>
      <trkpt lat="45.28318" lon="6.20362">
        <ele>1318.1</ele>
        <time>2021-02-17T13:14:24Z</time>
      </trkpt>
      <trkpt lat="45.28318" lon="6.20363">
        <ele>1317.9</ele>
        <time>2021-02-17T13:14:25Z</time>
      </trkpt>
      <trkpt lat="45.28318" lon="6.20365">
        <ele>1317.8</ele>
        <time>2021-02-17T13:14:26Z</time>
      </trkpt>
      <trkpt lat="45.28318" lon="6.20366">
        <ele>1317.6</ele>
        <time>2021-02-17T13:14:27Z</time>
      </trkpt>
      <trkpt lat="45.28317" lon="6.20368">
        <ele>1317.5</ele>
        <time>2021-02-17T13:14:28Z</time>
      </trkpt>
      <trkpt lat="45.28316" lon="6.20369">
        <ele>1317.3</ele>
        <time>2021-02-17T13:14:29Z</time>
      </trkpt>
      <trkpt lat="45.28316" lon="6.20371">
        <ele>1317.2</ele>
        <time>2021-02-17T13:14:30Z</time>
      </trkpt>
      <trkpt lat="45.28315" lon="6.20372">
        <ele>1317</ele>
        <time>2021-02-17T13:14:31Z</time>
      </trkpt>
      <trkpt lat="45.28314" lon="6.20372">
        <ele>1316.9</ele>
        <time>2021-02-17T13:14:32Z</time>
      </trkpt>
      <trkpt lat="45.28314" lon="6.20373">
        <ele>1316.8</ele>
        <time>2021-02-17T13:14:33Z</time>
      </trkpt>
      <trkpt lat="45.28313" lon="6.20374">
        <ele>1316.7</ele>
        <time>2021-02-17T13:14:34Z</time>
      </trkpt>
      <trkpt lat="45.28312" lon="6.20375">
        <ele>1316.6</ele>
        <time>2021-02-17T13:14:35Z</time>
      </trkpt>
      <trkpt lat="45.28312" lon="6.20376">
        <ele>1316.4</ele>
        <time>2021-02-17T13:14:36Z</time>
      </trkpt>
      <trkpt lat="45.28311" lon="6.20377">
        <ele>1316.3</ele>
        <time>2021-02-17T13:14:37Z</time>
      </trkpt>
      <trkpt lat="45.28311" lon="6.20378">
        <ele>1316.2</ele>
        <time>2021-02-17T13:14:38Z</time>
      </trkpt>
      <trkpt lat="45.2831" lon="6.20379">
        <ele>1316.1</ele>
        <time>2021-02-17T13:14:39Z</time>
      </trkpt>
      <trkpt lat="45.2831" lon="6.20381">
        <ele>1316</ele>
        <time>2021-02-17T13:14:40Z</time>
      </trkpt>
      <trkpt lat="45.2831" lon="6.20382">
        <ele>1315.8</ele>
        <time>2021-02-17T13:14:41Z</time>
      </trkpt>
      <trkpt lat="45.2831" lon="6.20384">
        <ele>1315.7</ele>
        <time>2021-02-17T13:14:42Z</time>
      </trkpt>
      <trkpt lat="45.2831" lon="6.20385">
        <ele>1315.6</ele>
        <time>2021-02-17T13:14:43Z</time>
      </trkpt>
      <trkpt lat="45.28309" lon="6.20386">
        <ele>1315.5</ele>
        <time>2021-02-17T13:14:44Z</time>
      </trkpt>
      <trkpt lat="45.28308" lon="6.20387">
        <ele>1315.4</ele>
        <time>2021-02-17T13:14:45Z</time>
      </trkpt>
      <trkpt lat="45.28308" lon="6.20388">
        <ele>1315.3</ele>
        <time>2021-02-17T13:14:46Z</time>
      </trkpt>
      <trkpt lat="45.28307" lon="6.20389">
        <ele>1315.2</ele>
        <time>2021-02-17T13:14:47Z</time>
      </trkpt>
      <trkpt lat="45.28307" lon="6.2039">
        <ele>1315</ele>
        <time>2021-02-17T13:14:48Z</time>
      </trkpt>
      <trkpt lat="45.28306" lon="6.20392">
        <ele>1314.9</ele>
        <time>2021-02-17T13:14:49Z</time>
      </trkpt>
      <trkpt lat="45.28305" lon="6.20393">
        <ele>1314.8</ele>
        <time>2021-02-17T13:14:50Z</time>
      </trkpt>
      <trkpt lat="45.28305" lon="6.20394">
        <ele>1314.7</ele>
        <time>2021-02-17T13:14:51Z</time>
      </trkpt>
      <trkpt lat="45.28305" lon="6.20396">
        <ele>1314.6</ele>
        <time>2021-02-17T13:14:52Z</time>
      </trkpt>
      <trkpt lat="45.28304" lon="6.20397">
        <ele>1314.5</ele>
        <time>2021-02-17T13:14:53Z</time>
      </trkpt>
      <trkpt lat="45.28304" lon="6.20399">
        <ele>1314.4</ele>
        <time>2021-02-17T13:14:54Z</time>
      </trkpt>
      <trkpt lat="45.28304" lon="6.20399">
        <ele>1314.3</ele>
        <time>2021-02-17T13:14:55Z</time>
      </trkpt>
      <trkpt lat="45.28304" lon="6.204">
        <ele>1314.3</ele>
        <time>2021-02-17T13:14:56Z</time>
      </trkpt>
      <trkpt lat="45.28304" lon="6.204">
        <ele>1314.3</ele>
        <time>2021-02-17T13:14:57Z</time>
      </trkpt>
      <trkpt lat="45.28304" lon="6.204">
        <ele>1314.3</ele>
        <time>2021-02-17T13:14:58Z</time>
      </trkpt>
      <trkpt lat="45.28304" lon="6.204">
        <ele>1314.3</ele>
        <time>2021-02-17T13:14:59Z</time>
      </trkpt>
      <trkpt lat="45.28305" lon="6.204">
        <ele>1314.2</ele>
        <time>2021-02-17T13:15:00Z</time>
      </trkpt>
      <trkpt lat="45.28306" lon="6.204">
        <ele>1314.2</ele>
        <time>2021-02-17T13:15:01Z</time>
      </trkpt>
      <trkpt lat="45.28306" lon="6.204">
        <ele>1314.2</ele>
        <time>2021-02-17T13:15:02Z</time>
      </trkpt>
      <trkpt lat="45.28307" lon="6.20399">
        <ele>1314.1</ele>
        <time>2021-02-17T13:15:03Z</time>
      </trkpt>
      <trkpt lat="45.28307" lon="6.20399">
        <ele>1314</ele>
        <time>2021-02-17T13:15:04Z</time>
      </trkpt>
      <trkpt lat="45.28306" lon="6.20399">
        <ele>1314</ele>
        <time>2021-02-17T13:15:05Z</time>
      </trkpt>
      <trkpt lat="45.28307" lon="6.20399">
        <ele>1314</ele>
        <time>2021-02-17T13:15:06Z</time>
      </trkpt>
      <trkpt lat="45.28312" lon="6.20403">
        <ele>1313.3</ele>
        <time>2021-02-17T13:15:11Z</time>
      </trkpt>
      <trkpt lat="45.28313" lon="6.20403">
        <ele>1313.3</ele>
        <time>2021-02-17T13:15:12Z</time>
      </trkpt>
      <trkpt lat="45.28314" lon="6.20404">
        <ele>1313.2</ele>
        <time>2021-02-17T13:15:13Z</time>
      </trkpt>
      <trkpt lat="45.28314" lon="6.20404">
        <ele>1313.1</ele>
        <time>2021-02-17T13:15:14Z</time>
      </trkpt>
      <trkpt lat="45.28315" lon="6.20404">
        <ele>1313.1</ele>
        <time>2021-02-17T13:15:15Z</time>
      </trkpt>
      <trkpt lat="45.28315" lon="6.20405">
        <ele>1313</ele>
        <time>2021-02-17T13:15:16Z</time>
      </trkpt>
      <trkpt lat="45.28314" lon="6.20405">
        <ele>1313</ele>
        <time>2021-02-17T13:15:17Z</time>
      </trkpt>
      <trkpt lat="45.28314" lon="6.20405">
        <ele>1313</ele>
        <time>2021-02-17T13:15:18Z</time>
      </trkpt>
      <trkpt lat="45.28315" lon="6.20406">
        <ele>1312.8</ele>
        <time>2021-02-17T13:15:19Z</time>
      </trkpt>
      <trkpt lat="45.28316" lon="6.20407">
        <ele>1312.8</ele>
        <time>2021-02-17T13:15:20Z</time>
      </trkpt>
      <trkpt lat="45.28316" lon="6.20407">
        <ele>1312.8</ele>
        <time>2021-02-17T13:15:21Z</time>
      </trkpt>
      <trkpt lat="45.28316" lon="6.20407">
        <ele>1312.8</ele>
        <time>2021-02-17T13:15:22Z</time>
      </trkpt>
      <trkpt lat="45.28316" lon="6.20407">
        <ele>1312.8</ele>
        <time>2021-02-17T13:15:23Z</time>
      </trkpt>
      <trkpt lat="45.28317" lon="6.20406">
        <ele>1312.6</ele>
        <time>2021-02-17T13:15:24Z</time>
      </trkpt>
      <trkpt lat="45.28313" lon="6.20407">
        <ele>1312.2</ele>
        <time>2021-02-17T13:15:35Z</time>
      </trkpt>
      <trkpt lat="45.28313" lon="6.20409">
        <ele>1312</ele>
        <time>2021-02-17T13:15:36Z</time>
      </trkpt>
      <trkpt lat="45.28312" lon="6.20413">
        <ele>1311.7</ele>
        <time>2021-02-17T13:15:37Z</time>
      </trkpt>
      <trkpt lat="45.28311" lon="6.20414">
        <ele>1311.6</ele>
        <time>2021-02-17T13:15:38Z</time>
      </trkpt>
      <trkpt lat="45.28311" lon="6.20415">
        <ele>1311.5</ele>
        <time>2021-02-17T13:15:39Z</time>
      </trkpt>
      <trkpt lat="45.28311" lon="6.20415">
        <ele>1311.5</ele>
        <time>2021-02-17T13:15:40Z</time>
      </trkpt>
      <trkpt lat="45.2831" lon="6.20415">
        <ele>1311.4</ele>
        <time>2021-02-17T13:15:41Z</time>
      </trkpt>
      <trkpt lat="45.28309" lon="6.20415">
        <ele>1311.3</ele>
        <time>2021-02-17T13:15:42Z</time>
      </trkpt>
      <trkpt lat="45.28309" lon="6.20416">
        <ele>1311.2</ele>
        <time>2021-02-17T13:15:43Z</time>
      </trkpt>
      <trkpt lat="45.28309" lon="6.20416">
        <ele>1311.2</ele>
        <time>2021-02-17T13:15:44Z</time>
      </trkpt>
      <trkpt lat="45.28309" lon="6.20417">
        <ele>1311.1</ele>
        <time>2021-02-17T13:15:45Z</time>
      </trkpt>
      <trkpt lat="45.28309" lon="6.20418">
        <ele>1311.1</ele>
        <time>2021-02-17T13:15:46Z</time>
      </trkpt>
      <trkpt lat="45.28309" lon="6.20418">
        <ele>1311</ele>
        <time>2021-02-17T13:15:47Z</time>
      </trkpt>
      <trkpt lat="45.2831" lon="6.2042">
        <ele>1310.9</ele>
        <time>2021-02-17T13:15:48Z</time>
      </trkpt>
      <trkpt lat="45.28311" lon="6.20421">
        <ele>1310.7</ele>
        <time>2021-02-17T13:15:49Z</time>
      </trkpt>
      <trkpt lat="45.28311" lon="6.20423">
        <ele>1310.6</ele>
        <time>2021-02-17T13:15:50Z</time>
      </trkpt>
      <trkpt lat="45.28312" lon="6.20425">
        <ele>1310.4</ele>
        <time>2021-02-17T13:15:51Z</time>
      </trkpt>
      <trkpt lat="45.28312" lon="6.20426">
        <ele>1310.3</ele>
        <time>2021-02-17T13:15:52Z</time>
      </trkpt>
      <trkpt lat="45.28312" lon="6.20427">
        <ele>1310.1</ele>
        <time>2021-02-17T13:15:53Z</time>
      </trkpt>
      <trkpt lat="45.28313" lon="6.20429">
        <ele>1310</ele>
        <time>2021-02-17T13:15:54Z</time>
      </trkpt>
      <trkpt lat="45.28313" lon="6.2043">
        <ele>1309.9</ele>
        <time>2021-02-17T13:15:55Z</time>
      </trkpt>
      <trkpt lat="45.28314" lon="6.2043">
        <ele>1309.8</ele>
        <time>2021-02-17T13:15:56Z</time>
      </trkpt>
      <trkpt lat="45.28314" lon="6.20431">
        <ele>1309.7</ele>
        <time>2021-02-17T13:15:57Z</time>
      </trkpt>
      <trkpt lat="45.28315" lon="6.20431">
        <ele>1309.6</ele>
        <time>2021-02-17T13:15:58Z</time>
      </trkpt>
      <trkpt lat="45.28315" lon="6.20431">
        <ele>1309.6</ele>
        <time>2021-02-17T13:15:59Z</time>
      </trkpt>
      <trkpt lat="45.28315" lon="6.20431">
        <ele>1309.6</ele>
        <time>2021-02-17T13:16:00Z</time>
      </trkpt>
      <trkpt lat="45.28315" lon="6.20432">
        <ele>1309.6</ele>
        <time>2021-02-17T13:16:01Z</time>
      </trkpt>
      <trkpt lat="45.28315" lon="6.20432">
        <ele>1309.5</ele>
        <time>2021-02-17T13:16:02Z</time>
      </trkpt>
      <trkpt lat="45.28315" lon="6.20432">
        <ele>1309.5</ele>
        <time>2021-02-17T13:16:03Z</time>
      </trkpt>
      <trkpt lat="45.28315" lon="6.20432">
        <ele>1309.5</ele>
        <time>2021-02-17T13:16:04Z</time>
      </trkpt>
      <trkpt lat="45.28315" lon="6.20432">
        <ele>1309.4</ele>
        <time>2021-02-17T13:16:05Z</time>
      </trkpt>
      <trkpt lat="45.28314" lon="6.20433">
        <ele>1309.4</ele>
        <time>2021-02-17T13:16:06Z</time>
      </trkpt>
      <trkpt lat="45.28315" lon="6.20433">
        <ele>1309.4</ele>
        <time>2021-02-17T13:16:07Z</time>
      </trkpt>
      <trkpt lat="45.2832" lon="6.20446">
        <ele>1307.6</ele>
        <time>2021-02-17T13:16:21Z</time>
      </trkpt>
      <trkpt lat="45.28321" lon="6.20449">
        <ele>1307.3</ele>
        <time>2021-02-17T13:16:22Z</time>
      </trkpt>
      <trkpt lat="45.28322" lon="6.20451">
        <ele>1307.1</ele>
        <time>2021-02-17T13:16:23Z</time>
      </trkpt>
      <trkpt lat="45.28322" lon="6.20454">
        <ele>1306.8</ele>
        <time>2021-02-17T13:16:24Z</time>
      </trkpt>
      <trkpt lat="45.28322" lon="6.20456">
        <ele>1306.5</ele>
        <time>2021-02-17T13:16:25Z</time>
      </trkpt>
      <trkpt lat="45.28322" lon="6.20458">
        <ele>1306.3</ele>
        <time>2021-02-17T13:16:26Z</time>
      </trkpt>
      <trkpt lat="45.28322" lon="6.20461">
        <ele>1306</ele>
        <time>2021-02-17T13:16:27Z</time>
      </trkpt>
      <trkpt lat="45.28322" lon="6.20463">
        <ele>1305.8</ele>
        <time>2021-02-17T13:16:28Z</time>
      </trkpt>
      <trkpt lat="45.28322" lon="6.20465">
        <ele>1305.6</ele>
        <time>2021-02-17T13:16:29Z</time>
      </trkpt>
      <trkpt lat="45.28323" lon="6.20467">
        <ele>1305.4</ele>
        <time>2021-02-17T13:16:30Z</time>
      </trkpt>
      <trkpt lat="45.28323" lon="6.20469">
        <ele>1305.2</ele>
        <time>2021-02-17T13:16:31Z</time>
      </trkpt>
      <trkpt lat="45.28323" lon="6.20471">
        <ele>1305</ele>
        <time>2021-02-17T13:16:32Z</time>
      </trkpt>
      <trkpt lat="45.28324" lon="6.20477">
        <ele>1304.5</ele>
        <time>2021-02-17T13:16:33Z</time>
      </trkpt>
      <trkpt lat="45.28324" lon="6.20479">
        <ele>1304.3</ele>
        <time>2021-02-17T13:16:34Z</time>
      </trkpt>
      <trkpt lat="45.28326" lon="6.20483">
        <ele>1303.8</ele>
        <time>2021-02-17T13:16:35Z</time>
      </trkpt>
      <trkpt lat="45.28326" lon="6.20484">
        <ele>1303.7</ele>
        <time>2021-02-17T13:16:36Z</time>
      </trkpt>
      <trkpt lat="45.28327" lon="6.20487">
        <ele>1303.5</ele>
        <time>2021-02-17T13:16:37Z</time>
      </trkpt>
      <trkpt lat="45.28327" lon="6.20489">
        <ele>1303.3</ele>
        <time>2021-02-17T13:16:38Z</time>
      </trkpt>
      <trkpt lat="45.28329" lon="6.20494">
        <ele>1302.8</ele>
        <time>2021-02-17T13:16:39Z</time>
      </trkpt>
      <trkpt lat="45.2833" lon="6.20496">
        <ele>1302.6</ele>
        <time>2021-02-17T13:16:40Z</time>
      </trkpt>
      <trkpt lat="45.28331" lon="6.20501">
        <ele>1302.1</ele>
        <time>2021-02-17T13:16:41Z</time>
      </trkpt>
      <trkpt lat="45.28332" lon="6.20506">
        <ele>1301.6</ele>
        <time>2021-02-17T13:16:42Z</time>
      </trkpt>
      <trkpt lat="45.28333" lon="6.20511">
        <ele>1301.1</ele>
        <time>2021-02-17T13:16:43Z</time>
      </trkpt>
      <trkpt lat="45.28334" lon="6.20517">
        <ele>1300.5</ele>
        <time>2021-02-17T13:16:44Z</time>
      </trkpt>
      <trkpt lat="45.28335" lon="6.20524">
        <ele>1300</ele>
        <time>2021-02-17T13:16:45Z</time>
      </trkpt>
      <trkpt lat="45.28336" lon="6.20529">
        <ele>1299.4</ele>
        <time>2021-02-17T13:16:46Z</time>
      </trkpt>
      <trkpt lat="45.28338" lon="6.20534">
        <ele>1298.9</ele>
        <time>2021-02-17T13:16:47Z</time>
      </trkpt>
      <trkpt lat="45.28339" lon="6.20539">
        <ele>1298.4</ele>
        <time>2021-02-17T13:16:48Z</time>
      </trkpt>
      <trkpt lat="45.2834" lon="6.20546">
        <ele>1297.7</ele>
        <time>2021-02-17T13:16:49Z</time>
      </trkpt>
      <trkpt lat="45.2834" lon="6.20553">
        <ele>1297</ele>
        <time>2021-02-17T13:16:50Z</time>
      </trkpt>
      <trkpt lat="45.28342" lon="6.20561">
        <ele>1296.1</ele>
        <time>2021-02-17T13:16:51Z</time>
      </trkpt>
      <trkpt lat="45.28343" lon="6.20568">
        <ele>1295.5</ele>
        <time>2021-02-17T13:16:52Z</time>
      </trkpt>
      <trkpt lat="45.28344" lon="6.20575">
        <ele>1294.8</ele>
        <time>2021-02-17T13:16:53Z</time>
      </trkpt>
      <trkpt lat="45.28346" lon="6.2058">
        <ele>1294.2</ele>
        <time>2021-02-17T13:16:54Z</time>
      </trkpt>
      <trkpt lat="45.28348" lon="6.20584">
        <ele>1293.8</ele>
        <time>2021-02-17T13:16:55Z</time>
      </trkpt>
      <trkpt lat="45.28349" lon="6.20588">
        <ele>1293.4</ele>
        <time>2021-02-17T13:16:56Z</time>
      </trkpt>
      <trkpt lat="45.28351" lon="6.20592">
        <ele>1292.9</ele>
        <time>2021-02-17T13:16:57Z</time>
      </trkpt>
      <trkpt lat="45.28352" lon="6.20593">
        <ele>1292.7</ele>
        <time>2021-02-17T13:16:58Z</time>
      </trkpt>
      <trkpt lat="45.28353" lon="6.20597">
        <ele>1292.3</ele>
        <time>2021-02-17T13:16:59Z</time>
      </trkpt>
      <trkpt lat="45.28354" lon="6.20599">
        <ele>1292.2</ele>
        <time>2021-02-17T13:17:00Z</time>
      </trkpt>
      <trkpt lat="45.28355" lon="6.20602">
        <ele>1291.7</ele>
        <time>2021-02-17T13:17:01Z</time>
      </trkpt>
      <trkpt lat="45.28356" lon="6.20603">
        <ele>1291.6</ele>
        <time>2021-02-17T13:17:02Z</time>
      </trkpt>
      <trkpt lat="45.28356" lon="6.20604">
        <ele>1291.5</ele>
        <time>2021-02-17T13:17:03Z</time>
      </trkpt>
      <trkpt lat="45.28357" lon="6.20604">
        <ele>1291.4</ele>
        <time>2021-02-17T13:17:04Z</time>
      </trkpt>
      <trkpt lat="45.28358" lon="6.20606">
        <ele>1291.2</ele>
        <time>2021-02-17T13:17:05Z</time>
      </trkpt>
      <trkpt lat="45.2836" lon="6.20608">
        <ele>1290.9</ele>
        <time>2021-02-17T13:17:06Z</time>
      </trkpt>
      <trkpt lat="45.2836" lon="6.20609">
        <ele>1290.8</ele>
        <time>2021-02-17T13:17:07Z</time>
      </trkpt>
      <trkpt lat="45.28361" lon="6.20609">
        <ele>1290.7</ele>
        <time>2021-02-17T13:17:08Z</time>
      </trkpt>
      <trkpt lat="45.28361" lon="6.20609">
        <ele>1290.7</ele>
        <time>2021-02-17T13:17:09Z</time>
      </trkpt>
      <trkpt lat="45.2836" lon="6.20608">
        <ele>1290.6</ele>
        <time>2021-02-17T13:17:10Z</time>
      </trkpt>
      <trkpt lat="45.2836" lon="6.20608">
        <ele>1290.6</ele>
        <time>2021-02-17T13:17:11Z</time>
      </trkpt>
      <trkpt lat="45.2836" lon="6.20608">
        <ele>1290.6</ele>
        <time>2021-02-17T13:17:12Z</time>
      </trkpt>
      <trkpt lat="45.2836" lon="6.20608">
        <ele>1290.6</ele>
        <time>2021-02-17T13:17:13Z</time>
      </trkpt>
      <trkpt lat="45.2836" lon="6.20608">
        <ele>1290.6</ele>
        <time>2021-02-17T13:17:14Z</time>
      </trkpt>
      <trkpt lat="45.2836" lon="6.20608">
        <ele>1290.6</ele>
        <time>2021-02-17T13:17:15Z</time>
      </trkpt>
      <trkpt lat="45.2836" lon="6.20608">
        <ele>1290.6</ele>
        <time>2021-02-17T13:17:16Z</time>
      </trkpt>
      <trkpt lat="45.2836" lon="6.20608">
        <ele>1290.6</ele>
        <time>2021-02-17T13:17:17Z</time>
      </trkpt>
      <trkpt lat="45.28358" lon="6.2062">
        <ele>1289.3</ele>
        <time>2021-02-17T13:17:36Z</time>
      </trkpt>
      <trkpt lat="45.28359" lon="6.20624">
        <ele>1288.9</ele>
        <time>2021-02-17T13:17:37Z</time>
      </trkpt>
      <trkpt lat="45.28359" lon="6.20628">
        <ele>1288.6</ele>
        <time>2021-02-17T13:17:38Z</time>
      </trkpt>
      <trkpt lat="45.2836" lon="6.20631">
        <ele>1288.3</ele>
        <time>2021-02-17T13:17:39Z</time>
      </trkpt>
      <trkpt lat="45.2836" lon="6.20632">
        <ele>1288.1</ele>
        <time>2021-02-17T13:17:40Z</time>
      </trkpt>
      <trkpt lat="45.28359" lon="6.20632">
        <ele>1288</ele>
        <time>2021-02-17T13:17:41Z</time>
      </trkpt>
      <trkpt lat="45.28358" lon="6.20631">
        <ele>1287.8</ele>
        <time>2021-02-17T13:17:42Z</time>
      </trkpt>
      <trkpt lat="45.28358" lon="6.2063">
        <ele>1287.7</ele>
        <time>2021-02-17T13:17:43Z</time>
      </trkpt>
      <trkpt lat="45.28357" lon="6.2063">
        <ele>1287.5</ele>
        <time>2021-02-17T13:17:44Z</time>
      </trkpt>
      <trkpt lat="45.28356" lon="6.20629">
        <ele>1287.4</ele>
        <time>2021-02-17T13:17:45Z</time>
      </trkpt>
      <trkpt lat="45.28356" lon="6.20629">
        <ele>1287.4</ele>
        <time>2021-02-17T13:17:46Z</time>
      </trkpt>
      <trkpt lat="45.28355" lon="6.20629">
        <ele>1287.3</ele>
        <time>2021-02-17T13:17:47Z</time>
      </trkpt>
      <trkpt lat="45.28355" lon="6.20629">
        <ele>1287.3</ele>
        <time>2021-02-17T13:17:48Z</time>
      </trkpt>
      <trkpt lat="45.28355" lon="6.20629">
        <ele>1287.3</ele>
        <time>2021-02-17T13:17:49Z</time>
      </trkpt>
      <trkpt lat="45.28355" lon="6.20629">
        <ele>1287.2</ele>
        <time>2021-02-17T13:17:50Z</time>
      </trkpt>
      <trkpt lat="45.28354" lon="6.20629">
        <ele>1287.1</ele>
        <time>2021-02-17T13:17:51Z</time>
      </trkpt>
      <trkpt lat="45.28354" lon="6.2063">
        <ele>1287</ele>
        <time>2021-02-17T13:17:52Z</time>
      </trkpt>
      <trkpt lat="45.28354" lon="6.20631">
        <ele>1287</ele>
        <time>2021-02-17T13:17:53Z</time>
      </trkpt>
      <trkpt lat="45.28354" lon="6.20632">
        <ele>1286.8</ele>
        <time>2021-02-17T13:17:54Z</time>
      </trkpt>
      <trkpt lat="45.28353" lon="6.20635">
        <ele>1285.6</ele>
        <time>2021-02-17T13:17:55Z</time>
      </trkpt>
      <trkpt lat="45.28352" lon="6.20639">
        <ele>1282.8</ele>
        <time>2021-02-17T13:17:56Z</time>
      </trkpt>
      <trkpt lat="45.28352" lon="6.20643">
        <ele>1281.4</ele>
        <time>2021-02-17T13:17:57Z</time>
      </trkpt>
      <trkpt lat="45.28352" lon="6.20648">
        <ele>1280.1</ele>
        <time>2021-02-17T13:17:58Z</time>
      </trkpt>
      <trkpt lat="45.28352" lon="6.20649">
        <ele>1280.1</ele>
        <time>2021-02-17T13:17:59Z</time>
      </trkpt>
      <trkpt lat="45.28352" lon="6.20649">
        <ele>1280.1</ele>
        <time>2021-02-17T13:18:00Z</time>
      </trkpt>
      <trkpt lat="45.28351" lon="6.20648">
        <ele>1280.1</ele>
        <time>2021-02-17T13:18:01Z</time>
      </trkpt>
      <trkpt lat="45.2835" lon="6.20647">
        <ele>1280.1</ele>
        <time>2021-02-17T13:18:02Z</time>
      </trkpt>
      <trkpt lat="45.28349" lon="6.20649">
        <ele>1278.8</ele>
        <time>2021-02-17T13:18:03Z</time>
      </trkpt>
      <trkpt lat="45.28349" lon="6.20653">
        <ele>1277.6</ele>
        <time>2021-02-17T13:18:04Z</time>
      </trkpt>
      <trkpt lat="45.28348" lon="6.20657">
        <ele>1276.3</ele>
        <time>2021-02-17T13:18:05Z</time>
      </trkpt>
      <trkpt lat="45.28347" lon="6.20663">
        <ele>1274</ele>
        <time>2021-02-17T13:18:06Z</time>
      </trkpt>
      <trkpt lat="45.28343" lon="6.20675">
        <ele>1270.1</ele>
        <time>2021-02-17T13:18:07Z</time>
      </trkpt>
      <trkpt lat="45.28343" lon="6.2068">
        <ele>1268.1</ele>
        <time>2021-02-17T13:18:08Z</time>
      </trkpt>
      <trkpt lat="45.28343" lon="6.20683">
        <ele>1268.9</ele>
        <time>2021-02-17T13:18:09Z</time>
      </trkpt>
      <trkpt lat="45.28342" lon="6.20687">
        <ele>1267</ele>
        <time>2021-02-17T13:18:10Z</time>
      </trkpt>
      <trkpt lat="45.28341" lon="6.20687">
        <ele>1267</ele>
        <time>2021-02-17T13:18:11Z</time>
      </trkpt>
      <trkpt lat="45.2834" lon="6.20687">
        <ele>1266.2</ele>
        <time>2021-02-17T13:18:12Z</time>
      </trkpt>
      <trkpt lat="45.2834" lon="6.20689">
        <ele>1265.9</ele>
        <time>2021-02-17T13:18:13Z</time>
      </trkpt>
      <trkpt lat="45.28341" lon="6.20691">
        <ele>1265.9</ele>
        <time>2021-02-17T13:18:14Z</time>
      </trkpt>
      <trkpt lat="45.28342" lon="6.20694">
        <ele>1264.8</ele>
        <time>2021-02-17T13:18:15Z</time>
      </trkpt>
      <trkpt lat="45.28343" lon="6.20696">
        <ele>1264.8</ele>
        <time>2021-02-17T13:18:16Z</time>
      </trkpt>
      <trkpt lat="45.28344" lon="6.20696">
        <ele>1265.6</ele>
        <time>2021-02-17T13:18:17Z</time>
      </trkpt>
      <trkpt lat="45.28344" lon="6.20696">
        <ele>1265.6</ele>
        <time>2021-02-17T13:18:18Z</time>
      </trkpt>
      <trkpt lat="45.28345" lon="6.20696">
        <ele>1265.6</ele>
        <time>2021-02-17T13:18:19Z</time>
      </trkpt>
      <trkpt lat="45.28345" lon="6.20696">
        <ele>1265.6</ele>
        <time>2021-02-17T13:18:20Z</time>
      </trkpt>
      <trkpt lat="45.28345" lon="6.20696">
        <ele>1265.6</ele>
        <time>2021-02-17T13:18:21Z</time>
      </trkpt>
      <trkpt lat="45.28346" lon="6.20696">
        <ele>1265.6</ele>
        <time>2021-02-17T13:18:22Z</time>
      </trkpt>
      <trkpt lat="45.28346" lon="6.20697">
        <ele>1266.5</ele>
        <time>2021-02-17T13:18:23Z</time>
      </trkpt>
      <trkpt lat="45.28347" lon="6.20698">
        <ele>1265.5</ele>
        <time>2021-02-17T13:18:24Z</time>
      </trkpt>
      <trkpt lat="45.28347" lon="6.20698">
        <ele>1265.5</ele>
        <time>2021-02-17T13:18:25Z</time>
      </trkpt>
      <trkpt lat="45.28348" lon="6.20699">
        <ele>1265.5</ele>
        <time>2021-02-17T13:18:26Z</time>
      </trkpt>
      <trkpt lat="45.28348" lon="6.207">
        <ele>1265.5</ele>
        <time>2021-02-17T13:18:27Z</time>
      </trkpt>
      <trkpt lat="45.28349" lon="6.207">
        <ele>1265.5</ele>
        <time>2021-02-17T13:18:28Z</time>
      </trkpt>
      <trkpt lat="45.28349" lon="6.20701">
        <ele>1265.5</ele>
        <time>2021-02-17T13:18:29Z</time>
      </trkpt>
      <trkpt lat="45.28349" lon="6.20701">
        <ele>1266.4</ele>
        <time>2021-02-17T13:18:50Z</time>
      </trkpt>
      <trkpt lat="45.2835" lon="6.20702">
        <ele>1265.5</ele>
        <time>2021-02-17T13:18:51Z</time>
      </trkpt>
      <trkpt lat="45.2835" lon="6.20703">
        <ele>1265.5</ele>
        <time>2021-02-17T13:18:52Z</time>
      </trkpt>
      <trkpt lat="45.28351" lon="6.20703">
        <ele>1265.5</ele>
        <time>2021-02-17T13:18:53Z</time>
      </trkpt>
      <trkpt lat="45.28351" lon="6.20704">
        <ele>1265.5</ele>
        <time>2021-02-17T13:18:54Z</time>
      </trkpt>
      <trkpt lat="45.28351" lon="6.20705">
        <ele>1265.5</ele>
        <time>2021-02-17T13:18:55Z</time>
      </trkpt>
      <trkpt lat="45.28352" lon="6.20705">
        <ele>1265.5</ele>
        <time>2021-02-17T13:18:56Z</time>
      </trkpt>
      <trkpt lat="45.28352" lon="6.20706">
        <ele>1266.5</ele>
        <time>2021-02-17T13:18:57Z</time>
      </trkpt>
      <trkpt lat="45.28353" lon="6.20707">
        <ele>1265.7</ele>
        <time>2021-02-17T13:18:58Z</time>
      </trkpt>
      <trkpt lat="45.28353" lon="6.20707">
        <ele>1265.7</ele>
        <time>2021-02-17T13:18:59Z</time>
      </trkpt>
      <trkpt lat="45.28354" lon="6.20708">
        <ele>1265.7</ele>
        <time>2021-02-17T13:19:15Z</time>
      </trkpt>
      <trkpt lat="45.28354" lon="6.20709">
        <ele>1265.7</ele>
        <time>2021-02-17T13:19:16Z</time>
      </trkpt>
      <trkpt lat="45.28354" lon="6.20709">
        <ele>1265.7</ele>
        <time>2021-02-17T13:19:17Z</time>
      </trkpt>
      <trkpt lat="45.28355" lon="6.2071">
        <ele>1265.7</ele>
        <time>2021-02-17T13:19:18Z</time>
      </trkpt>
      <trkpt lat="45.28355" lon="6.2071">
        <ele>1264.9</ele>
        <time>2021-02-17T13:19:19Z</time>
      </trkpt>
      <trkpt lat="45.28356" lon="6.20711">
        <ele>1266</ele>
        <time>2021-02-17T13:19:20Z</time>
      </trkpt>
      <trkpt lat="45.28356" lon="6.20712">
        <ele>1266</ele>
        <time>2021-02-17T13:19:21Z</time>
      </trkpt>
      <trkpt lat="45.28357" lon="6.20712">
        <ele>1266</ele>
        <time>2021-02-17T13:19:22Z</time>
      </trkpt>
      <trkpt lat="45.28357" lon="6.20713">
        <ele>1266</ele>
        <time>2021-02-17T13:19:23Z</time>
      </trkpt>
      <trkpt lat="45.28357" lon="6.20714">
        <ele>1266</ele>
        <time>2021-02-17T13:19:24Z</time>
      </trkpt>
      <trkpt lat="45.28358" lon="6.20714">
        <ele>1266</ele>
        <time>2021-02-17T13:19:25Z</time>
      </trkpt>
      <trkpt lat="45.28358" lon="6.20715">
        <ele>1265.3</ele>
        <time>2021-02-17T13:19:26Z</time>
      </trkpt>
      <trkpt lat="45.28359" lon="6.20716">
        <ele>1266.5</ele>
        <time>2021-02-17T13:19:27Z</time>
      </trkpt>
      <trkpt lat="45.28359" lon="6.20716">
        <ele>1266.5</ele>
        <time>2021-02-17T13:20:06Z</time>
      </trkpt>
      <trkpt lat="45.2836" lon="6.20717">
        <ele>1266.5</ele>
        <time>2021-02-17T13:20:07Z</time>
      </trkpt>
      <trkpt lat="45.28361" lon="6.20721">
        <ele>1265.7</ele>
        <time>2021-02-17T13:20:08Z</time>
      </trkpt>
      <trkpt lat="45.28362" lon="6.20725">
        <ele>1266.1</ele>
        <time>2021-02-17T13:20:09Z</time>
      </trkpt>
      <trkpt lat="45.28364" lon="6.2073">
        <ele>1264.6</ele>
        <time>2021-02-17T13:20:10Z</time>
      </trkpt>
      <trkpt lat="45.28364" lon="6.20736">
        <ele>1263.7</ele>
        <time>2021-02-17T13:20:11Z</time>
      </trkpt>
      <trkpt lat="45.28364" lon="6.2074">
        <ele>1262.7</ele>
        <time>2021-02-17T13:20:12Z</time>
      </trkpt>
      <trkpt lat="45.28362" lon="6.20745">
        <ele>1260.9</ele>
        <time>2021-02-17T13:20:13Z</time>
      </trkpt>
      <trkpt lat="45.28362" lon="6.20747">
        <ele>1260.9</ele>
        <time>2021-02-17T13:20:14Z</time>
      </trkpt>
      <trkpt lat="45.28361" lon="6.20751">
        <ele>1258.8</ele>
        <time>2021-02-17T13:20:15Z</time>
      </trkpt>
      <trkpt lat="45.28361" lon="6.20755">
        <ele>1257.9</ele>
        <time>2021-02-17T13:20:16Z</time>
      </trkpt>
      <trkpt lat="45.28363" lon="6.20762">
        <ele>1258.2</ele>
        <time>2021-02-17T13:20:17Z</time>
      </trkpt>
      <trkpt lat="45.28365" lon="6.2077">
        <ele>1257.6</ele>
        <time>2021-02-17T13:20:18Z</time>
      </trkpt>
      <trkpt lat="45.28368" lon="6.20778">
        <ele>1256.7</ele>
        <time>2021-02-17T13:20:19Z</time>
      </trkpt>
      <trkpt lat="45.2837" lon="6.20786">
        <ele>1254.8</ele>
        <time>2021-02-17T13:20:20Z</time>
      </trkpt>
      <trkpt lat="45.28373" lon="6.20794">
        <ele>1254.1</ele>
        <time>2021-02-17T13:20:21Z</time>
      </trkpt>
      <trkpt lat="45.28376" lon="6.208">
        <ele>1254.4</ele>
        <time>2021-02-17T13:20:22Z</time>
      </trkpt>
      <trkpt lat="45.28377" lon="6.20804">
        <ele>1254.7</ele>
        <time>2021-02-17T13:20:23Z</time>
      </trkpt>
      <trkpt lat="45.28379" lon="6.20811">
        <ele>1253.1</ele>
        <time>2021-02-17T13:20:24Z</time>
      </trkpt>
      <trkpt lat="45.28378" lon="6.20817">
        <ele>1252.2</ele>
        <time>2021-02-17T13:20:25Z</time>
      </trkpt>
      <trkpt lat="45.28377" lon="6.20821">
        <ele>1251.4</ele>
        <time>2021-02-17T13:20:26Z</time>
      </trkpt>
      <trkpt lat="45.28376" lon="6.20825">
        <ele>1249.4</ele>
        <time>2021-02-17T13:20:27Z</time>
      </trkpt>
      <trkpt lat="45.28372" lon="6.20827">
        <ele>1247.5</ele>
        <time>2021-02-17T13:20:28Z</time>
      </trkpt>
      <trkpt lat="45.28369" lon="6.20829">
        <ele>1246.5</ele>
        <time>2021-02-17T13:20:29Z</time>
      </trkpt>
      <trkpt lat="45.28367" lon="6.20834">
        <ele>1244.7</ele>
        <time>2021-02-17T13:20:30Z</time>
      </trkpt>
      <trkpt lat="45.28363" lon="6.2084">
        <ele>1242</ele>
        <time>2021-02-17T13:20:31Z</time>
      </trkpt>
      <trkpt lat="45.28358" lon="6.20844">
        <ele>1239.4</ele>
        <time>2021-02-17T13:20:32Z</time>
      </trkpt>
      <trkpt lat="45.28354" lon="6.2084">
        <ele>1239.3</ele>
        <time>2021-02-17T13:20:33Z</time>
      </trkpt>
      <trkpt lat="45.28351" lon="6.20842">
        <ele>1238.4</ele>
        <time>2021-02-17T13:20:34Z</time>
      </trkpt>
      <trkpt lat="45.28352" lon="6.20844">
        <ele>1237.6</ele>
        <time>2021-02-17T13:20:35Z</time>
      </trkpt>
      <trkpt lat="45.28352" lon="6.20844">
        <ele>1237.6</ele>
        <time>2021-02-17T13:20:36Z</time>
      </trkpt>
      <trkpt lat="45.28352" lon="6.20844">
        <ele>1237.6</ele>
        <time>2021-02-17T13:20:37Z</time>
      </trkpt>
      <trkpt lat="45.28352" lon="6.20844">
        <ele>1237.6</ele>
        <time>2021-02-17T13:20:38Z</time>
      </trkpt>
      <trkpt lat="45.28352" lon="6.20844">
        <ele>1237.6</ele>
        <time>2021-02-17T13:20:39Z</time>
      </trkpt>
      <trkpt lat="45.28352" lon="6.20844">
        <ele>1237.6</ele>
        <time>2021-02-17T13:20:40Z</time>
      </trkpt>
      <trkpt lat="45.28352" lon="6.20844">
        <ele>1237.6</ele>
        <time>2021-02-17T13:20:41Z</time>
      </trkpt>
      <trkpt lat="45.28352" lon="6.20844">
        <ele>1237.6</ele>
        <time>2021-02-17T13:20:42Z</time>
      </trkpt>
      <trkpt lat="45.28352" lon="6.20844">
        <ele>1237.6</ele>
        <time>2021-02-17T13:20:43Z</time>
      </trkpt>
      <trkpt lat="45.28352" lon="6.20844">
        <ele>1237.6</ele>
        <time>2021-02-17T13:20:44Z</time>
      </trkpt>
      <trkpt lat="45.28352" lon="6.20844">
        <ele>1237.6</ele>
        <time>2021-02-17T13:20:45Z</time>
      </trkpt>
      <trkpt lat="45.28353" lon="6.20847">
        <ele>1238.5</ele>
        <time>2021-02-17T13:20:52Z</time>
      </trkpt>
      <trkpt lat="45.28353" lon="6.20848">
        <ele>1237.7</ele>
        <time>2021-02-17T13:20:53Z</time>
      </trkpt>
      <trkpt lat="45.28353" lon="6.20849">
        <ele>1237.7</ele>
        <time>2021-02-17T13:20:54Z</time>
      </trkpt>
      <trkpt lat="45.28353" lon="6.20849">
        <ele>1237.7</ele>
        <time>2021-02-17T13:20:55Z</time>
      </trkpt>
      <trkpt lat="45.28353" lon="6.20849">
        <ele>1237.7</ele>
        <time>2021-02-17T13:20:56Z</time>
      </trkpt>
      <trkpt lat="45.28353" lon="6.20849">
        <ele>1237.7</ele>
        <time>2021-02-17T13:20:57Z</time>
      </trkpt>
      <trkpt lat="45.2835" lon="6.20847">
        <ele>1237.6</ele>
        <time>2021-02-17T13:20:58Z</time>
      </trkpt>
      <trkpt lat="45.28349" lon="6.20847">
        <ele>1237.6</ele>
        <time>2021-02-17T13:20:59Z</time>
      </trkpt>
      <trkpt lat="45.28349" lon="6.20848">
        <ele>1236.1</ele>
        <time>2021-02-17T13:21:00Z</time>
      </trkpt>
      <trkpt lat="45.28348" lon="6.20848">
        <ele>1236.1</ele>
        <time>2021-02-17T13:21:01Z</time>
      </trkpt>
      <trkpt lat="45.28348" lon="6.20849">
        <ele>1236.1</ele>
        <time>2021-02-17T13:21:02Z</time>
      </trkpt>
      <trkpt lat="45.28347" lon="6.20849">
        <ele>1236.1</ele>
        <time>2021-02-17T13:21:03Z</time>
      </trkpt>
      <trkpt lat="45.28345" lon="6.2085">
        <ele>1235.3</ele>
        <time>2021-02-17T13:21:04Z</time>
      </trkpt>
      <trkpt lat="45.28345" lon="6.2085">
        <ele>1235.3</ele>
        <time>2021-02-17T13:21:04Z</time>
      </trkpt>
      <trkpt lat="45.28342" lon="6.2085">
        <ele>1234.6</ele>
        <time>2021-02-17T13:21:05Z</time>
      </trkpt>
      <trkpt lat="45.28339" lon="6.20849">
        <ele>1233.8</ele>
        <time>2021-02-17T13:21:06Z</time>
      </trkpt>
      <trkpt lat="45.28335" lon="6.20849">
        <ele>1233.1</ele>
        <time>2021-02-17T13:21:07Z</time>
      </trkpt>
      <trkpt lat="45.28333" lon="6.20851">
        <ele>1232.3</ele>
        <time>2021-02-17T13:21:08Z</time>
      </trkpt>
      <trkpt lat="45.28331" lon="6.20855">
        <ele>1231</ele>
        <time>2021-02-17T13:21:09Z</time>
      </trkpt>
      <trkpt lat="45.28331" lon="6.20861">
        <ele>1230.3</ele>
        <time>2021-02-17T13:21:10Z</time>
      </trkpt>
      <trkpt lat="45.28332" lon="6.20869">
        <ele>1229.4</ele>
        <time>2021-02-17T13:21:11Z</time>
      </trkpt>
      <trkpt lat="45.28334" lon="6.20879">
        <ele>1228</ele>
        <time>2021-02-17T13:21:12Z</time>
      </trkpt>
      <trkpt lat="45.28336" lon="6.20888">
        <ele>1226.8</ele>
        <time>2021-02-17T13:21:13Z</time>
      </trkpt>
      <trkpt lat="45.28338" lon="6.20898">
        <ele>1226.2</ele>
        <time>2021-02-17T13:21:14Z</time>
      </trkpt>
      <trkpt lat="45.28338" lon="6.20906">
        <ele>1224.9</ele>
        <time>2021-02-17T13:21:15Z</time>
      </trkpt>
      <trkpt lat="45.28338" lon="6.2091">
        <ele>1224.1</ele>
        <time>2021-02-17T13:21:16Z</time>
      </trkpt>
      <trkpt lat="45.28337" lon="6.20911">
        <ele>1223.5</ele>
        <time>2021-02-17T13:21:17Z</time>
      </trkpt>
      <trkpt lat="45.28334" lon="6.20915">
        <ele>1222.2</ele>
        <time>2021-02-17T13:21:18Z</time>
      </trkpt>
      <trkpt lat="45.28332" lon="6.20917">
        <ele>1221.4</ele>
        <time>2021-02-17T13:21:19Z</time>
      </trkpt>
      <trkpt lat="45.28331" lon="6.20921">
        <ele>1220.1</ele>
        <time>2021-02-17T13:21:20Z</time>
      </trkpt>
      <trkpt lat="45.28331" lon="6.20927">
        <ele>1219.5</ele>
        <time>2021-02-17T13:21:21Z</time>
      </trkpt>
      <trkpt lat="45.28333" lon="6.20933">
        <ele>1219.4</ele>
        <time>2021-02-17T13:21:22Z</time>
      </trkpt>
      <trkpt lat="45.28334" lon="6.20941">
        <ele>1218.8</ele>
        <time>2021-02-17T13:21:23Z</time>
      </trkpt>
      <trkpt lat="45.28336" lon="6.2095">
        <ele>1217.7</ele>
        <time>2021-02-17T13:21:24Z</time>
      </trkpt>
      <trkpt lat="45.28337" lon="6.20958">
        <ele>1216.6</ele>
        <time>2021-02-17T13:21:25Z</time>
      </trkpt>
      <trkpt lat="45.28337" lon="6.20962">
        <ele>1216</ele>
        <time>2021-02-17T13:21:26Z</time>
      </trkpt>
      <trkpt lat="45.28338" lon="6.20966">
        <ele>1216</ele>
        <time>2021-02-17T13:21:27Z</time>
      </trkpt>
      <trkpt lat="45.28336" lon="6.20968">
        <ele>1214.9</ele>
        <time>2021-02-17T13:21:28Z</time>
      </trkpt>
      <trkpt lat="45.28332" lon="6.20978">
        <ele>1213.3</ele>
        <time>2021-02-17T13:21:29Z</time>
      </trkpt>
      <trkpt lat="45.28332" lon="6.20985">
        <ele>1212.9</ele>
        <time>2021-02-17T13:21:30Z</time>
      </trkpt>
      <trkpt lat="45.28333" lon="6.2099">
        <ele>1211.9</ele>
        <time>2021-02-17T13:21:31Z</time>
      </trkpt>
      <trkpt lat="45.28334" lon="6.20992">
        <ele>1211.9</ele>
        <time>2021-02-17T13:21:32Z</time>
      </trkpt>
      <trkpt lat="45.28333" lon="6.20992">
        <ele>1211.9</ele>
        <time>2021-02-17T13:21:33Z</time>
      </trkpt>
      <trkpt lat="45.28332" lon="6.20995">
        <ele>1211.4</ele>
        <time>2021-02-17T13:21:34Z</time>
      </trkpt>
      <trkpt lat="45.28329" lon="6.20998">
        <ele>1211</ele>
        <time>2021-02-17T13:21:35Z</time>
      </trkpt>
      <trkpt lat="45.28328" lon="6.21">
        <ele>1210.1</ele>
        <time>2021-02-17T13:21:36Z</time>
      </trkpt>
      <trkpt lat="45.28327" lon="6.21006">
        <ele>1209.6</ele>
        <time>2021-02-17T13:21:37Z</time>
      </trkpt>
      <trkpt lat="45.28324" lon="6.21007">
        <ele>1208.7</ele>
        <time>2021-02-17T13:21:38Z</time>
      </trkpt>
      <trkpt lat="45.28321" lon="6.21007">
        <ele>1208.4</ele>
        <time>2021-02-17T13:21:39Z</time>
      </trkpt>
      <trkpt lat="45.28319" lon="6.21007">
        <ele>1208.4</ele>
        <time>2021-02-17T13:21:40Z</time>
      </trkpt>
      <trkpt lat="45.28318" lon="6.21005">
        <ele>1208.7</ele>
        <time>2021-02-17T13:21:41Z</time>
      </trkpt>
      <trkpt lat="45.28317" lon="6.21004">
        <ele>1208.7</ele>
        <time>2021-02-17T13:21:42Z</time>
      </trkpt>
      <trkpt lat="45.28317" lon="6.21003">
        <ele>1208.7</ele>
        <time>2021-02-17T13:21:43Z</time>
      </trkpt>
      <trkpt lat="45.28316" lon="6.21003">
        <ele>1208.5</ele>
        <time>2021-02-17T13:21:44Z</time>
      </trkpt>
      <trkpt lat="45.28315" lon="6.21003">
        <ele>1208.5</ele>
        <time>2021-02-17T13:21:45Z</time>
      </trkpt>
      <trkpt lat="45.28312" lon="6.20999">
        <ele>1208.9</ele>
        <time>2021-02-17T13:21:46Z</time>
      </trkpt>
      <trkpt lat="45.28311" lon="6.20998">
        <ele>1209.4</ele>
        <time>2021-02-17T13:21:47Z</time>
      </trkpt>
      <trkpt lat="45.2831" lon="6.20996">
        <ele>1209.4</ele>
        <time>2021-02-17T13:21:48Z</time>
      </trkpt>
      <trkpt lat="45.2831" lon="6.20994">
        <ele>1209.3</ele>
        <time>2021-02-17T13:21:49Z</time>
      </trkpt>
      <trkpt lat="45.2831" lon="6.20994">
        <ele>1209.3</ele>
        <time>2021-02-17T13:21:50Z</time>
      </trkpt>
      <trkpt lat="45.2831" lon="6.20994">
        <ele>1209.3</ele>
        <time>2021-02-17T13:21:51Z</time>
      </trkpt>
      <trkpt lat="45.2831" lon="6.20994">
        <ele>1209.3</ele>
        <time>2021-02-17T13:21:52Z</time>
      </trkpt>
      <trkpt lat="45.2831" lon="6.20994">
        <ele>1209.3</ele>
        <time>2021-02-17T13:21:53Z</time>
      </trkpt>
      <trkpt lat="45.2831" lon="6.20994">
        <ele>1209.3</ele>
        <time>2021-02-17T13:21:54Z</time>
      </trkpt>
      <trkpt lat="45.2831" lon="6.20994">
        <ele>1209.3</ele>
        <time>2021-02-17T13:21:55Z</time>
      </trkpt>
      <trkpt lat="45.2831" lon="6.20994">
        <ele>1209.3</ele>
        <time>2021-02-17T13:21:56Z</time>
      </trkpt>
      <trkpt lat="45.2831" lon="6.20994">
        <ele>1209.3</ele>
        <time>2021-02-17T13:21:57Z</time>
      </trkpt>
      <trkpt lat="45.28305" lon="6.20992">
        <ele>1209.6</ele>
        <time>2021-02-17T13:21:58Z</time>
      </trkpt>
      <trkpt lat="45.28305" lon="6.20992">
        <ele>1209.6</ele>
        <time>2021-02-17T13:21:59Z</time>
      </trkpt>
      <trkpt lat="45.28303" lon="6.20996">
        <ele>1209</ele>
        <time>2021-02-17T13:22:24Z</time>
      </trkpt>
      <trkpt lat="45.28302" lon="6.20997">
        <ele>1209</ele>
        <time>2021-02-17T13:22:25Z</time>
      </trkpt>
      <trkpt lat="45.28302" lon="6.20999">
        <ele>1208.5</ele>
        <time>2021-02-17T13:22:26Z</time>
      </trkpt>
      <trkpt lat="45.28302" lon="6.21">
        <ele>1208.5</ele>
        <time>2021-02-17T13:22:27Z</time>
      </trkpt>
      <trkpt lat="45.28302" lon="6.21001">
        <ele>1208.5</ele>
        <time>2021-02-17T13:22:28Z</time>
      </trkpt>
      <trkpt lat="45.28302" lon="6.21001">
        <ele>1208.5</ele>
        <time>2021-02-17T13:22:29Z</time>
      </trkpt>
      <trkpt lat="45.28302" lon="6.21001">
        <ele>1208.5</ele>
        <time>2021-02-17T13:22:30Z</time>
      </trkpt>
      <trkpt lat="45.28302" lon="6.21001">
        <ele>1208.5</ele>
        <time>2021-02-17T13:22:31Z</time>
      </trkpt>
      <trkpt lat="45.28302" lon="6.21001">
        <ele>1208.5</ele>
        <time>2021-02-17T13:22:32Z</time>
      </trkpt>
      <trkpt lat="45.28302" lon="6.21001">
        <ele>1208.5</ele>
        <time>2021-02-17T13:22:33Z</time>
      </trkpt>
      <trkpt lat="45.28301" lon="6.21003">
        <ele>1208</ele>
        <time>2021-02-17T13:22:34Z</time>
      </trkpt>
      <trkpt lat="45.28301" lon="6.21002">
        <ele>1208.5</ele>
        <time>2021-02-17T13:22:35Z</time>
      </trkpt>
      <trkpt lat="45.28301" lon="6.21">
        <ele>1208.5</ele>
        <time>2021-02-17T13:22:36Z</time>
      </trkpt>
      <trkpt lat="45.28301" lon="6.21">
        <ele>1208.4</ele>
        <time>2021-02-17T13:22:37Z</time>
      </trkpt>
      <trkpt lat="45.28301" lon="6.20999">
        <ele>1208.4</ele>
        <time>2021-02-17T13:22:38Z</time>
      </trkpt>
      <trkpt lat="45.28301" lon="6.20998">
        <ele>1208.4</ele>
        <time>2021-02-17T13:22:39Z</time>
      </trkpt>
      <trkpt lat="45.28301" lon="6.20998">
        <ele>1208.9</ele>
        <time>2021-02-17T13:22:40Z</time>
      </trkpt>
      <trkpt lat="45.28301" lon="6.20997">
        <ele>1209</ele>
        <time>2021-02-17T13:22:41Z</time>
      </trkpt>
      <trkpt lat="45.28302" lon="6.20996">
        <ele>1209</ele>
        <time>2021-02-17T13:22:42Z</time>
      </trkpt>
      <trkpt lat="45.28302" lon="6.20996">
        <ele>1209</ele>
        <time>2021-02-17T13:22:43Z</time>
      </trkpt>
      <trkpt lat="45.28303" lon="6.20995">
        <ele>1209</ele>
        <time>2021-02-17T13:22:44Z</time>
      </trkpt>
      <trkpt lat="45.28303" lon="6.20995">
        <ele>1209</ele>
        <time>2021-02-17T13:22:45Z</time>
      </trkpt>
      <trkpt lat="45.28303" lon="6.20995">
        <ele>1209</ele>
        <time>2021-02-17T13:22:46Z</time>
      </trkpt>
    </trkseg>
  </trk>
</gpx>